<?xml version="1.0" encoding="UTF-8" standalone="no" ?>
<gpx xmlns="http://www.topografix.com/GPX/1/1" xmlns:xsi="http://www.w3.org/2001/XMLSchema-instance" xsi:schemaLocation="http://www.topografix.com/GPX/1/1 http://www.topografix.com/GPX/1/1/gpx.xsd" version="1.1" creator="VisuGPX - https://www.visugpx.com">
  <metadata>
    <name>les cabanes de Luzenac</name>
    <desc><![CDATA[Au départ de Luzenac , une belle boucle parsemée de cabanes]]></desc>
  </metadata>
  <trk>
    <name><![CDATA[les cabanes Luzenac-MNT]]></name>
    <trkseg>
      <trkpt lat="42.75891" lon="1.76397">
        <ele>627</ele>
        <time>2016-09-10T08:02:33Z</time>
      </trkpt>
      <trkpt lat="42.75891" lon="1.76397">
        <ele>627</ele>
        <time>2016-09-10T08:02:37Z</time>
      </trkpt>
      <trkpt lat="42.75891" lon="1.76397">
        <ele>627</ele>
        <time>2016-09-10T08:02:38Z</time>
      </trkpt>
      <trkpt lat="42.75891" lon="1.76396">
        <ele>627</ele>
        <time>2016-09-10T08:02:42Z</time>
      </trkpt>
      <trkpt lat="42.75891" lon="1.76397">
        <ele>627</ele>
        <time>2016-09-10T08:02:44Z</time>
      </trkpt>
      <trkpt lat="42.75893" lon="1.76397">
        <ele>627</ele>
        <time>2016-09-10T08:02:52Z</time>
      </trkpt>
      <trkpt lat="42.75896" lon="1.7639">
        <ele>627</ele>
        <time>2016-09-10T08:02:59Z</time>
      </trkpt>
      <trkpt lat="42.75903" lon="1.76381">
        <ele>627</ele>
        <time>2016-09-10T08:03:07Z</time>
      </trkpt>
      <trkpt lat="42.75904" lon="1.76376">
        <ele>628</ele>
        <time>2016-09-10T08:03:14Z</time>
      </trkpt>
      <trkpt lat="42.75903" lon="1.76367">
        <ele>629</ele>
        <time>2016-09-10T08:03:23Z</time>
      </trkpt>
      <trkpt lat="42.75902" lon="1.76365">
        <ele>629</ele>
        <time>2016-09-10T08:03:25Z</time>
      </trkpt>
      <trkpt lat="42.75901" lon="1.76365">
        <ele>629</ele>
        <time>2016-09-10T08:03:26Z</time>
      </trkpt>
      <trkpt lat="42.75901" lon="1.76364">
        <ele>629</ele>
        <time>2016-09-10T08:03:27Z</time>
      </trkpt>
      <trkpt lat="42.75899" lon="1.76362">
        <ele>630</ele>
        <time>2016-09-10T08:03:28Z</time>
      </trkpt>
      <trkpt lat="42.75898" lon="1.76361">
        <ele>630</ele>
        <time>2016-09-10T08:03:30Z</time>
      </trkpt>
      <trkpt lat="42.75892" lon="1.76357">
        <ele>630</ele>
        <time>2016-09-10T08:03:38Z</time>
      </trkpt>
      <trkpt lat="42.75884" lon="1.76351">
        <ele>631</ele>
        <time>2016-09-10T08:03:47Z</time>
      </trkpt>
      <trkpt lat="42.75882" lon="1.76348">
        <ele>631</ele>
        <time>2016-09-10T08:03:50Z</time>
      </trkpt>
      <trkpt lat="42.75882" lon="1.76347">
        <ele>631</ele>
        <time>2016-09-10T08:03:51Z</time>
      </trkpt>
      <trkpt lat="42.75881" lon="1.76346">
        <ele>631</ele>
        <time>2016-09-10T08:03:52Z</time>
      </trkpt>
      <trkpt lat="42.7588" lon="1.76345">
        <ele>631</ele>
        <time>2016-09-10T08:03:53Z</time>
      </trkpt>
      <trkpt lat="42.75876" lon="1.76342">
        <ele>631</ele>
        <time>2016-09-10T08:03:57Z</time>
      </trkpt>
      <trkpt lat="42.75869" lon="1.76334">
        <ele>631</ele>
        <time>2016-09-10T08:04:04Z</time>
      </trkpt>
      <trkpt lat="42.75863" lon="1.76325">
        <ele>632</ele>
        <time>2016-09-10T08:04:12Z</time>
      </trkpt>
      <trkpt lat="42.75863" lon="1.76325">
        <ele>632</ele>
        <time>2016-09-10T08:04:13Z</time>
      </trkpt>
      <trkpt lat="42.75863" lon="1.76325">
        <ele>632</ele>
        <time>2016-09-10T08:04:14Z</time>
      </trkpt>
      <trkpt lat="42.75865" lon="1.76328">
        <ele>632</ele>
        <time>2016-09-10T08:04:15Z</time>
      </trkpt>
      <trkpt lat="42.75865" lon="1.76329">
        <ele>631</ele>
        <time>2016-09-10T08:04:16Z</time>
      </trkpt>
      <trkpt lat="42.75867" lon="1.76331">
        <ele>631</ele>
        <time>2016-09-10T08:04:17Z</time>
      </trkpt>
      <trkpt lat="42.75867" lon="1.76335">
        <ele>631</ele>
        <time>2016-09-10T08:04:22Z</time>
      </trkpt>
      <trkpt lat="42.75866" lon="1.76333">
        <ele>631</ele>
        <time>2016-09-10T08:04:30Z</time>
      </trkpt>
      <trkpt lat="42.75866" lon="1.76333">
        <ele>631</ele>
        <time>2016-09-10T08:04:34Z</time>
      </trkpt>
      <trkpt lat="42.75866" lon="1.76333">
        <ele>631</ele>
        <time>2016-09-10T08:04:40Z</time>
      </trkpt>
      <trkpt lat="42.75866" lon="1.76333">
        <ele>631</ele>
        <time>2016-09-10T08:04:52Z</time>
      </trkpt>
      <trkpt lat="42.75866" lon="1.76333">
        <ele>631</ele>
        <time>2016-09-10T08:05:05Z</time>
      </trkpt>
      <trkpt lat="42.75866" lon="1.76331">
        <ele>631</ele>
        <time>2016-09-10T08:05:16Z</time>
      </trkpt>
      <trkpt lat="42.75866" lon="1.76324">
        <ele>632</ele>
        <time>2016-09-10T08:05:27Z</time>
      </trkpt>
      <trkpt lat="42.75865" lon="1.76323">
        <ele>632</ele>
        <time>2016-09-10T08:05:49Z</time>
      </trkpt>
      <trkpt lat="42.75861" lon="1.76321">
        <ele>632</ele>
        <time>2016-09-10T08:06:01Z</time>
      </trkpt>
      <trkpt lat="42.75858" lon="1.76328">
        <ele>631</ele>
        <time>2016-09-10T08:06:10Z</time>
      </trkpt>
      <trkpt lat="42.7586" lon="1.76327">
        <ele>631</ele>
        <time>2016-09-10T08:06:20Z</time>
      </trkpt>
      <trkpt lat="42.75869" lon="1.76331">
        <ele>632</ele>
        <time>2016-09-10T08:06:26Z</time>
      </trkpt>
      <trkpt lat="42.7587" lon="1.76332">
        <ele>632</ele>
        <time>2016-09-10T08:06:27Z</time>
      </trkpt>
      <trkpt lat="42.75876" lon="1.76342">
        <ele>631</ele>
        <time>2016-09-10T08:06:33Z</time>
      </trkpt>
      <trkpt lat="42.75886" lon="1.76347">
        <ele>631</ele>
        <time>2016-09-10T08:06:42Z</time>
      </trkpt>
      <trkpt lat="42.75892" lon="1.76349">
        <ele>631</ele>
        <time>2016-09-10T08:06:46Z</time>
      </trkpt>
      <trkpt lat="42.75894" lon="1.76349">
        <ele>631</ele>
        <time>2016-09-10T08:06:47Z</time>
      </trkpt>
      <trkpt lat="42.75895" lon="1.7635">
        <ele>631</ele>
        <time>2016-09-10T08:06:48Z</time>
      </trkpt>
      <trkpt lat="42.75896" lon="1.76351">
        <ele>631</ele>
        <time>2016-09-10T08:06:49Z</time>
      </trkpt>
      <trkpt lat="42.75899" lon="1.76353">
        <ele>631</ele>
        <time>2016-09-10T08:06:51Z</time>
      </trkpt>
      <trkpt lat="42.7591" lon="1.76361">
        <ele>630</ele>
        <time>2016-09-10T08:06:58Z</time>
      </trkpt>
      <trkpt lat="42.75915" lon="1.76372">
        <ele>628</ele>
        <time>2016-09-10T08:07:04Z</time>
      </trkpt>
      <trkpt lat="42.75914" lon="1.76373">
        <ele>628</ele>
        <time>2016-09-10T08:07:05Z</time>
      </trkpt>
      <trkpt lat="42.75913" lon="1.76375">
        <ele>628</ele>
        <time>2016-09-10T08:07:06Z</time>
      </trkpt>
      <trkpt lat="42.75912" lon="1.76376">
        <ele>628</ele>
        <time>2016-09-10T08:07:07Z</time>
      </trkpt>
      <trkpt lat="42.75911" lon="1.76378">
        <ele>627</ele>
        <time>2016-09-10T08:07:08Z</time>
      </trkpt>
      <trkpt lat="42.75909" lon="1.76385">
        <ele>627</ele>
        <time>2016-09-10T08:07:12Z</time>
      </trkpt>
      <trkpt lat="42.75906" lon="1.76399">
        <ele>626</ele>
        <time>2016-09-10T08:07:19Z</time>
      </trkpt>
      <trkpt lat="42.75904" lon="1.764">
        <ele>626</ele>
        <time>2016-09-10T08:07:24Z</time>
      </trkpt>
      <trkpt lat="42.75904" lon="1.764">
        <ele>626</ele>
        <time>2016-09-10T08:07:34Z</time>
      </trkpt>
      <trkpt lat="42.75905" lon="1.76395">
        <ele>626</ele>
        <time>2016-09-10T08:07:40Z</time>
      </trkpt>
      <trkpt lat="42.75906" lon="1.76392">
        <ele>627</ele>
        <time>2016-09-10T08:07:42Z</time>
      </trkpt>
      <trkpt lat="42.75908" lon="1.76389">
        <ele>627</ele>
        <time>2016-09-10T08:07:44Z</time>
      </trkpt>
      <trkpt lat="42.75911" lon="1.7639">
        <ele>627</ele>
        <time>2016-09-10T08:07:46Z</time>
      </trkpt>
      <trkpt lat="42.75914" lon="1.76394">
        <ele>626</ele>
        <time>2016-09-10T08:07:48Z</time>
      </trkpt>
      <trkpt lat="42.75915" lon="1.76407">
        <ele>625</ele>
        <time>2016-09-10T08:07:53Z</time>
      </trkpt>
      <trkpt lat="42.75914" lon="1.76409">
        <ele>625</ele>
        <time>2016-09-10T08:07:54Z</time>
      </trkpt>
      <trkpt lat="42.75912" lon="1.76411">
        <ele>625</ele>
        <time>2016-09-10T08:07:55Z</time>
      </trkpt>
      <trkpt lat="42.75908" lon="1.76414">
        <ele>625</ele>
        <time>2016-09-10T08:07:57Z</time>
      </trkpt>
      <trkpt lat="42.75906" lon="1.76416">
        <ele>625</ele>
        <time>2016-09-10T08:07:58Z</time>
      </trkpt>
      <trkpt lat="42.75904" lon="1.76416">
        <ele>625</ele>
        <time>2016-09-10T08:07:59Z</time>
      </trkpt>
      <trkpt lat="42.75901" lon="1.76418">
        <ele>625</ele>
        <time>2016-09-10T08:08:00Z</time>
      </trkpt>
      <trkpt lat="42.75893" lon="1.76418">
        <ele>625</ele>
        <time>2016-09-10T08:08:06Z</time>
      </trkpt>
      <trkpt lat="42.75884" lon="1.7642">
        <ele>626</ele>
        <time>2016-09-10T08:08:12Z</time>
      </trkpt>
      <trkpt lat="42.75877" lon="1.7642">
        <ele>626</ele>
        <time>2016-09-10T08:08:18Z</time>
      </trkpt>
      <trkpt lat="42.75866" lon="1.76421">
        <ele>627</ele>
        <time>2016-09-10T08:08:26Z</time>
      </trkpt>
      <trkpt lat="42.75852" lon="1.76421">
        <ele>628</ele>
        <time>2016-09-10T08:08:34Z</time>
      </trkpt>
      <trkpt lat="42.75843" lon="1.76423">
        <ele>629</ele>
        <time>2016-09-10T08:08:41Z</time>
      </trkpt>
      <trkpt lat="42.75833" lon="1.76421">
        <ele>630</ele>
        <time>2016-09-10T08:08:50Z</time>
      </trkpt>
      <trkpt lat="42.75828" lon="1.76422">
        <ele>631</ele>
        <time>2016-09-10T08:08:54Z</time>
      </trkpt>
      <trkpt lat="42.75827" lon="1.76422">
        <ele>631</ele>
        <time>2016-09-10T08:08:55Z</time>
      </trkpt>
      <trkpt lat="42.75826" lon="1.76423">
        <ele>631</ele>
        <time>2016-09-10T08:08:56Z</time>
      </trkpt>
      <trkpt lat="42.75825" lon="1.76423">
        <ele>631</ele>
        <time>2016-09-10T08:08:57Z</time>
      </trkpt>
      <trkpt lat="42.75824" lon="1.76424">
        <ele>631</ele>
        <time>2016-09-10T08:08:58Z</time>
      </trkpt>
      <trkpt lat="42.75814" lon="1.76422">
        <ele>632</ele>
        <time>2016-09-10T08:09:07Z</time>
      </trkpt>
      <trkpt lat="42.7581" lon="1.7642">
        <ele>634</ele>
        <time>2016-09-10T08:09:13Z</time>
      </trkpt>
      <trkpt lat="42.7581" lon="1.76421">
        <ele>633</ele>
        <time>2016-09-10T08:09:18Z</time>
      </trkpt>
      <trkpt lat="42.75811" lon="1.76422">
        <ele>633</ele>
        <time>2016-09-10T08:09:19Z</time>
      </trkpt>
      <trkpt lat="42.75812" lon="1.76424">
        <ele>633</ele>
        <time>2016-09-10T08:09:20Z</time>
      </trkpt>
      <trkpt lat="42.75812" lon="1.76425">
        <ele>633</ele>
        <time>2016-09-10T08:09:21Z</time>
      </trkpt>
      <trkpt lat="42.75812" lon="1.76426">
        <ele>633</ele>
        <time>2016-09-10T08:09:22Z</time>
      </trkpt>
      <trkpt lat="42.75815" lon="1.76433">
        <ele>633</ele>
        <time>2016-09-10T08:09:26Z</time>
      </trkpt>
      <trkpt lat="42.75824" lon="1.76442">
        <ele>631</ele>
        <time>2016-09-10T08:09:33Z</time>
      </trkpt>
      <trkpt lat="42.75831" lon="1.76451">
        <ele>631</ele>
        <time>2016-09-10T08:09:39Z</time>
      </trkpt>
      <trkpt lat="42.75841" lon="1.76465">
        <ele>629</ele>
        <time>2016-09-10T08:09:46Z</time>
      </trkpt>
      <trkpt lat="42.75841" lon="1.76467">
        <ele>629</ele>
        <time>2016-09-10T08:09:51Z</time>
      </trkpt>
      <trkpt lat="42.7584" lon="1.76469">
        <ele>630</ele>
        <time>2016-09-10T08:09:55Z</time>
      </trkpt>
      <trkpt lat="42.75838" lon="1.76471">
        <ele>630</ele>
        <time>2016-09-10T08:09:56Z</time>
      </trkpt>
      <trkpt lat="42.75838" lon="1.76471">
        <ele>630</ele>
        <time>2016-09-10T08:09:57Z</time>
      </trkpt>
      <trkpt lat="42.75837" lon="1.76471">
        <ele>630</ele>
        <time>2016-09-10T08:09:58Z</time>
      </trkpt>
      <trkpt lat="42.75834" lon="1.76472">
        <ele>630</ele>
        <time>2016-09-10T08:09:59Z</time>
      </trkpt>
      <trkpt lat="42.75829" lon="1.76472">
        <ele>631</ele>
        <time>2016-09-10T08:10:01Z</time>
      </trkpt>
      <trkpt lat="42.7582" lon="1.76477">
        <ele>632</ele>
        <time>2016-09-10T08:10:11Z</time>
      </trkpt>
      <trkpt lat="42.7582" lon="1.76477">
        <ele>632</ele>
        <time>2016-09-10T08:10:17Z</time>
      </trkpt>
      <trkpt lat="42.7582" lon="1.76477">
        <ele>632</ele>
        <time>2016-09-10T08:10:18Z</time>
      </trkpt>
      <trkpt lat="42.7582" lon="1.76477">
        <ele>632</ele>
        <time>2016-09-10T08:10:19Z</time>
      </trkpt>
      <trkpt lat="42.7582" lon="1.76477">
        <ele>632</ele>
        <time>2016-09-10T08:10:20Z</time>
      </trkpt>
      <trkpt lat="42.75819" lon="1.76477">
        <ele>632</ele>
        <time>2016-09-10T08:10:21Z</time>
      </trkpt>
      <trkpt lat="42.75816" lon="1.76477">
        <ele>633</ele>
        <time>2016-09-10T08:10:26Z</time>
      </trkpt>
      <trkpt lat="42.75812" lon="1.76479">
        <ele>633</ele>
        <time>2016-09-10T08:10:33Z</time>
      </trkpt>
      <trkpt lat="42.75809" lon="1.76478">
        <ele>634</ele>
        <time>2016-09-10T08:10:35Z</time>
      </trkpt>
      <trkpt lat="42.75808" lon="1.76478">
        <ele>634</ele>
        <time>2016-09-10T08:10:36Z</time>
      </trkpt>
      <trkpt lat="42.75808" lon="1.76478">
        <ele>634</ele>
        <time>2016-09-10T08:10:37Z</time>
      </trkpt>
      <trkpt lat="42.75808" lon="1.76477">
        <ele>634</ele>
        <time>2016-09-10T08:10:38Z</time>
      </trkpt>
      <trkpt lat="42.75808" lon="1.76477">
        <ele>634</ele>
        <time>2016-09-10T08:10:39Z</time>
      </trkpt>
      <trkpt lat="42.75808" lon="1.76477">
        <ele>634</ele>
        <time>2016-09-10T08:10:41Z</time>
      </trkpt>
      <trkpt lat="42.75808" lon="1.76477">
        <ele>634</ele>
        <time>2016-09-10T08:10:44Z</time>
      </trkpt>
      <trkpt lat="42.75808" lon="1.76477">
        <ele>634</ele>
        <time>2016-09-10T08:10:45Z</time>
      </trkpt>
      <trkpt lat="42.75808" lon="1.76478">
        <ele>634</ele>
        <time>2016-09-10T08:10:46Z</time>
      </trkpt>
      <trkpt lat="42.75809" lon="1.76478">
        <ele>634</ele>
        <time>2016-09-10T08:10:47Z</time>
      </trkpt>
      <trkpt lat="42.7581" lon="1.76478">
        <ele>634</ele>
        <time>2016-09-10T08:10:48Z</time>
      </trkpt>
      <trkpt lat="42.7581" lon="1.76478">
        <ele>634</ele>
        <time>2016-09-10T08:10:49Z</time>
      </trkpt>
      <trkpt lat="42.7581" lon="1.76479">
        <ele>633</ele>
        <time>2016-09-10T08:10:50Z</time>
      </trkpt>
      <trkpt lat="42.7581" lon="1.76479">
        <ele>633</ele>
        <time>2016-09-10T08:10:51Z</time>
      </trkpt>
      <trkpt lat="42.7581" lon="1.76479">
        <ele>633</ele>
        <time>2016-09-10T08:10:52Z</time>
      </trkpt>
      <trkpt lat="42.7581" lon="1.76479">
        <ele>633</ele>
        <time>2016-09-10T08:10:53Z</time>
      </trkpt>
      <trkpt lat="42.7581" lon="1.76479">
        <ele>633</ele>
        <time>2016-09-10T08:10:54Z</time>
      </trkpt>
      <trkpt lat="42.7581" lon="1.76479">
        <ele>633</ele>
        <time>2016-09-10T08:10:55Z</time>
      </trkpt>
      <trkpt lat="42.7581" lon="1.76479">
        <ele>633</ele>
        <time>2016-09-10T08:10:56Z</time>
      </trkpt>
      <trkpt lat="42.7581" lon="1.76479">
        <ele>633</ele>
        <time>2016-09-10T08:10:57Z</time>
      </trkpt>
      <trkpt lat="42.7581" lon="1.76479">
        <ele>633</ele>
        <time>2016-09-10T08:10:58Z</time>
      </trkpt>
      <trkpt lat="42.7581" lon="1.76479">
        <ele>633</ele>
        <time>2016-09-10T08:11:08Z</time>
      </trkpt>
      <trkpt lat="42.7581" lon="1.76479">
        <ele>633</ele>
        <time>2016-09-10T08:11:09Z</time>
      </trkpt>
      <trkpt lat="42.7581" lon="1.76479">
        <ele>633</ele>
        <time>2016-09-10T08:11:10Z</time>
      </trkpt>
      <trkpt lat="42.7581" lon="1.76479">
        <ele>633</ele>
        <time>2016-09-10T08:11:11Z</time>
      </trkpt>
      <trkpt lat="42.75807" lon="1.76477">
        <ele>634</ele>
        <time>2016-09-10T08:11:12Z</time>
      </trkpt>
      <trkpt lat="42.75807" lon="1.76477">
        <ele>634</ele>
        <time>2016-09-10T08:11:13Z</time>
      </trkpt>
      <trkpt lat="42.75807" lon="1.76477">
        <ele>634</ele>
        <time>2016-09-10T08:11:14Z</time>
      </trkpt>
      <trkpt lat="42.75807" lon="1.76477">
        <ele>634</ele>
        <time>2016-09-10T08:11:15Z</time>
      </trkpt>
      <trkpt lat="42.75805" lon="1.76476">
        <ele>635</ele>
        <time>2016-09-10T08:11:16Z</time>
      </trkpt>
      <trkpt lat="42.75801" lon="1.76469">
        <ele>636</ele>
        <time>2016-09-10T08:11:21Z</time>
      </trkpt>
      <trkpt lat="42.75801" lon="1.76469">
        <ele>636</ele>
        <time>2016-09-10T08:11:22Z</time>
      </trkpt>
      <trkpt lat="42.75801" lon="1.76469">
        <ele>636</ele>
        <time>2016-09-10T08:11:23Z</time>
      </trkpt>
      <trkpt lat="42.75801" lon="1.76469">
        <ele>636</ele>
        <time>2016-09-10T08:11:24Z</time>
      </trkpt>
      <trkpt lat="42.75801" lon="1.76469">
        <ele>636</ele>
        <time>2016-09-10T08:11:25Z</time>
      </trkpt>
      <trkpt lat="42.75801" lon="1.76469">
        <ele>636</ele>
        <time>2016-09-10T08:11:26Z</time>
      </trkpt>
      <trkpt lat="42.75799" lon="1.76469">
        <ele>637</ele>
        <time>2016-09-10T08:11:27Z</time>
      </trkpt>
      <trkpt lat="42.75798" lon="1.76468">
        <ele>637</ele>
        <time>2016-09-10T08:11:28Z</time>
      </trkpt>
      <trkpt lat="42.75797" lon="1.76468">
        <ele>637</ele>
        <time>2016-09-10T08:11:29Z</time>
      </trkpt>
      <trkpt lat="42.75796" lon="1.76468">
        <ele>638</ele>
        <time>2016-09-10T08:11:30Z</time>
      </trkpt>
      <trkpt lat="42.75796" lon="1.76468">
        <ele>638</ele>
        <time>2016-09-10T08:11:33Z</time>
      </trkpt>
      <trkpt lat="42.75796" lon="1.76468">
        <ele>638</ele>
        <time>2016-09-10T08:11:41Z</time>
      </trkpt>
      <trkpt lat="42.75796" lon="1.76466">
        <ele>638</ele>
        <time>2016-09-10T08:11:51Z</time>
      </trkpt>
      <trkpt lat="42.75797" lon="1.76466">
        <ele>637</ele>
        <time>2016-09-10T08:11:55Z</time>
      </trkpt>
      <trkpt lat="42.75799" lon="1.76466">
        <ele>637</ele>
        <time>2016-09-10T08:11:56Z</time>
      </trkpt>
      <trkpt lat="42.758" lon="1.76466">
        <ele>637</ele>
        <time>2016-09-10T08:11:57Z</time>
      </trkpt>
      <trkpt lat="42.75801" lon="1.76466">
        <ele>636</ele>
        <time>2016-09-10T08:11:58Z</time>
      </trkpt>
      <trkpt lat="42.75801" lon="1.76465">
        <ele>636</ele>
        <time>2016-09-10T08:11:59Z</time>
      </trkpt>
      <trkpt lat="42.75802" lon="1.76465">
        <ele>636</ele>
        <time>2016-09-10T08:12:03Z</time>
      </trkpt>
      <trkpt lat="42.75802" lon="1.76465">
        <ele>636</ele>
        <time>2016-09-10T08:12:04Z</time>
      </trkpt>
      <trkpt lat="42.75802" lon="1.76465">
        <ele>636</ele>
        <time>2016-09-10T08:12:05Z</time>
      </trkpt>
      <trkpt lat="42.75802" lon="1.76465">
        <ele>636</ele>
        <time>2016-09-10T08:12:06Z</time>
      </trkpt>
      <trkpt lat="42.75802" lon="1.76465">
        <ele>636</ele>
        <time>2016-09-10T08:12:07Z</time>
      </trkpt>
      <trkpt lat="42.75802" lon="1.76465">
        <ele>636</ele>
        <time>2016-09-10T08:12:08Z</time>
      </trkpt>
      <trkpt lat="42.75802" lon="1.76466">
        <ele>636</ele>
        <time>2016-09-10T08:12:09Z</time>
      </trkpt>
      <trkpt lat="42.75802" lon="1.76466">
        <ele>636</ele>
        <time>2016-09-10T08:12:10Z</time>
      </trkpt>
      <trkpt lat="42.75802" lon="1.76467">
        <ele>636</ele>
        <time>2016-09-10T08:12:11Z</time>
      </trkpt>
      <trkpt lat="42.75802" lon="1.76467">
        <ele>636</ele>
        <time>2016-09-10T08:12:12Z</time>
      </trkpt>
      <trkpt lat="42.75802" lon="1.76467">
        <ele>636</ele>
        <time>2016-09-10T08:12:13Z</time>
      </trkpt>
      <trkpt lat="42.75803" lon="1.76468">
        <ele>636</ele>
        <time>2016-09-10T08:12:14Z</time>
      </trkpt>
      <trkpt lat="42.75803" lon="1.76468">
        <ele>636</ele>
        <time>2016-09-10T08:12:16Z</time>
      </trkpt>
      <trkpt lat="42.75803" lon="1.76468">
        <ele>636</ele>
        <time>2016-09-10T08:12:17Z</time>
      </trkpt>
      <trkpt lat="42.75803" lon="1.76468">
        <ele>636</ele>
        <time>2016-09-10T08:12:18Z</time>
      </trkpt>
      <trkpt lat="42.75803" lon="1.76468">
        <ele>636</ele>
        <time>2016-09-10T08:12:19Z</time>
      </trkpt>
      <trkpt lat="42.75803" lon="1.76468">
        <ele>636</ele>
        <time>2016-09-10T08:12:20Z</time>
      </trkpt>
      <trkpt lat="42.75803" lon="1.76468">
        <ele>636</ele>
        <time>2016-09-10T08:12:21Z</time>
      </trkpt>
      <trkpt lat="42.75807" lon="1.76467">
        <ele>634</ele>
        <time>2016-09-10T08:12:29Z</time>
      </trkpt>
      <trkpt lat="42.75807" lon="1.76467">
        <ele>634</ele>
        <time>2016-09-10T08:12:30Z</time>
      </trkpt>
      <trkpt lat="42.75809" lon="1.76466">
        <ele>634</ele>
        <time>2016-09-10T08:12:31Z</time>
      </trkpt>
      <trkpt lat="42.75809" lon="1.76466">
        <ele>634</ele>
        <time>2016-09-10T08:12:32Z</time>
      </trkpt>
      <trkpt lat="42.75816" lon="1.76469">
        <ele>632</ele>
        <time>2016-09-10T08:12:39Z</time>
      </trkpt>
      <trkpt lat="42.75818" lon="1.76469">
        <ele>632</ele>
        <time>2016-09-10T08:12:40Z</time>
      </trkpt>
      <trkpt lat="42.75818" lon="1.76469">
        <ele>632</ele>
        <time>2016-09-10T08:12:41Z</time>
      </trkpt>
      <trkpt lat="42.75818" lon="1.76468">
        <ele>632</ele>
        <time>2016-09-10T08:12:42Z</time>
      </trkpt>
      <trkpt lat="42.75819" lon="1.76468">
        <ele>632</ele>
        <time>2016-09-10T08:12:43Z</time>
      </trkpt>
      <trkpt lat="42.75822" lon="1.76466">
        <ele>632</ele>
        <time>2016-09-10T08:12:48Z</time>
      </trkpt>
      <trkpt lat="42.75828" lon="1.76466">
        <ele>631</ele>
        <time>2016-09-10T08:12:56Z</time>
      </trkpt>
      <trkpt lat="42.7583" lon="1.76465">
        <ele>631</ele>
        <time>2016-09-10T08:12:58Z</time>
      </trkpt>
      <trkpt lat="42.75831" lon="1.76464">
        <ele>631</ele>
        <time>2016-09-10T08:12:59Z</time>
      </trkpt>
      <trkpt lat="42.75832" lon="1.76463">
        <ele>631</ele>
        <time>2016-09-10T08:13:00Z</time>
      </trkpt>
      <trkpt lat="42.75833" lon="1.76461">
        <ele>630</ele>
        <time>2016-09-10T08:13:01Z</time>
      </trkpt>
      <trkpt lat="42.75833" lon="1.7646">
        <ele>630</ele>
        <time>2016-09-10T08:13:02Z</time>
      </trkpt>
      <trkpt lat="42.75832" lon="1.76447">
        <ele>630</ele>
        <time>2016-09-10T08:13:12Z</time>
      </trkpt>
      <trkpt lat="42.75827" lon="1.76434">
        <ele>631</ele>
        <time>2016-09-10T08:13:23Z</time>
      </trkpt>
      <trkpt lat="42.75826" lon="1.76423">
        <ele>631</ele>
        <time>2016-09-10T08:13:31Z</time>
      </trkpt>
      <trkpt lat="42.75825" lon="1.76419">
        <ele>631</ele>
        <time>2016-09-10T08:13:34Z</time>
      </trkpt>
      <trkpt lat="42.75825" lon="1.76417">
        <ele>631</ele>
        <time>2016-09-10T08:13:35Z</time>
      </trkpt>
      <trkpt lat="42.75824" lon="1.76416">
        <ele>631</ele>
        <time>2016-09-10T08:13:36Z</time>
      </trkpt>
      <trkpt lat="42.75824" lon="1.76415">
        <ele>631</ele>
        <time>2016-09-10T08:13:37Z</time>
      </trkpt>
      <trkpt lat="42.75823" lon="1.76414">
        <ele>631</ele>
        <time>2016-09-10T08:13:38Z</time>
      </trkpt>
      <trkpt lat="42.75822" lon="1.76412">
        <ele>631</ele>
        <time>2016-09-10T08:13:40Z</time>
      </trkpt>
      <trkpt lat="42.75819" lon="1.76407">
        <ele>632</ele>
        <time>2016-09-10T08:13:46Z</time>
      </trkpt>
      <trkpt lat="42.75818" lon="1.76402">
        <ele>632</ele>
        <time>2016-09-10T08:13:49Z</time>
      </trkpt>
      <trkpt lat="42.75818" lon="1.76401">
        <ele>632</ele>
        <time>2016-09-10T08:13:50Z</time>
      </trkpt>
      <trkpt lat="42.75818" lon="1.76399">
        <ele>632</ele>
        <time>2016-09-10T08:13:51Z</time>
      </trkpt>
      <trkpt lat="42.75818" lon="1.76398">
        <ele>632</ele>
        <time>2016-09-10T08:13:52Z</time>
      </trkpt>
      <trkpt lat="42.75818" lon="1.76396">
        <ele>632</ele>
        <time>2016-09-10T08:13:53Z</time>
      </trkpt>
      <trkpt lat="42.75817" lon="1.7639">
        <ele>632</ele>
        <time>2016-09-10T08:13:57Z</time>
      </trkpt>
      <trkpt lat="42.75816" lon="1.76381">
        <ele>632</ele>
        <time>2016-09-10T08:14:03Z</time>
      </trkpt>
      <trkpt lat="42.75816" lon="1.76379">
        <ele>632</ele>
        <time>2016-09-10T08:14:04Z</time>
      </trkpt>
      <trkpt lat="42.75816" lon="1.76377">
        <ele>632</ele>
        <time>2016-09-10T08:14:05Z</time>
      </trkpt>
      <trkpt lat="42.75815" lon="1.76375">
        <ele>632</ele>
        <time>2016-09-10T08:14:06Z</time>
      </trkpt>
      <trkpt lat="42.75815" lon="1.76373">
        <ele>632</ele>
        <time>2016-09-10T08:14:07Z</time>
      </trkpt>
      <trkpt lat="42.75813" lon="1.76369">
        <ele>632</ele>
        <time>2016-09-10T08:14:09Z</time>
      </trkpt>
      <trkpt lat="42.75811" lon="1.76364">
        <ele>632</ele>
        <time>2016-09-10T08:14:12Z</time>
      </trkpt>
      <trkpt lat="42.75811" lon="1.76363">
        <ele>633</ele>
        <time>2016-09-10T08:14:13Z</time>
      </trkpt>
      <trkpt lat="42.7581" lon="1.76362">
        <ele>633</ele>
        <time>2016-09-10T08:14:14Z</time>
      </trkpt>
      <trkpt lat="42.7581" lon="1.76361">
        <ele>633</ele>
        <time>2016-09-10T08:14:15Z</time>
      </trkpt>
      <trkpt lat="42.7581" lon="1.7636">
        <ele>633</ele>
        <time>2016-09-10T08:14:16Z</time>
      </trkpt>
      <trkpt lat="42.7581" lon="1.76359">
        <ele>633</ele>
        <time>2016-09-10T08:14:17Z</time>
      </trkpt>
      <trkpt lat="42.75806" lon="1.76345">
        <ele>635</ele>
        <time>2016-09-10T08:14:27Z</time>
      </trkpt>
      <trkpt lat="42.75805" lon="1.76344">
        <ele>635</ele>
        <time>2016-09-10T08:14:28Z</time>
      </trkpt>
      <trkpt lat="42.75804" lon="1.76343">
        <ele>635</ele>
        <time>2016-09-10T08:14:29Z</time>
      </trkpt>
      <trkpt lat="42.75804" lon="1.76342">
        <ele>635</ele>
        <time>2016-09-10T08:14:30Z</time>
      </trkpt>
      <trkpt lat="42.75803" lon="1.76341">
        <ele>635</ele>
        <time>2016-09-10T08:14:31Z</time>
      </trkpt>
      <trkpt lat="42.75802" lon="1.76341">
        <ele>636</ele>
        <time>2016-09-10T08:14:32Z</time>
      </trkpt>
      <trkpt lat="42.75801" lon="1.7634">
        <ele>636</ele>
        <time>2016-09-10T08:14:34Z</time>
      </trkpt>
      <trkpt lat="42.75797" lon="1.76344">
        <ele>638</ele>
        <time>2016-09-10T08:14:40Z</time>
      </trkpt>
      <trkpt lat="42.75797" lon="1.76345">
        <ele>638</ele>
        <time>2016-09-10T08:14:41Z</time>
      </trkpt>
      <trkpt lat="42.75797" lon="1.76346">
        <ele>638</ele>
        <time>2016-09-10T08:14:42Z</time>
      </trkpt>
      <trkpt lat="42.75797" lon="1.76347">
        <ele>638</ele>
        <time>2016-09-10T08:14:43Z</time>
      </trkpt>
      <trkpt lat="42.75797" lon="1.76349">
        <ele>638</ele>
        <time>2016-09-10T08:14:44Z</time>
      </trkpt>
      <trkpt lat="42.75799" lon="1.76354">
        <ele>637</ele>
        <time>2016-09-10T08:14:51Z</time>
      </trkpt>
      <trkpt lat="42.75799" lon="1.76355">
        <ele>637</ele>
        <time>2016-09-10T08:14:52Z</time>
      </trkpt>
      <trkpt lat="42.75798" lon="1.76358">
        <ele>637</ele>
        <time>2016-09-10T08:14:53Z</time>
      </trkpt>
      <trkpt lat="42.75798" lon="1.76359">
        <ele>637</ele>
        <time>2016-09-10T08:14:54Z</time>
      </trkpt>
      <trkpt lat="42.75798" lon="1.76361">
        <ele>637</ele>
        <time>2016-09-10T08:14:55Z</time>
      </trkpt>
      <trkpt lat="42.75799" lon="1.76363">
        <ele>637</ele>
        <time>2016-09-10T08:14:56Z</time>
      </trkpt>
      <trkpt lat="42.758" lon="1.76368">
        <ele>637</ele>
        <time>2016-09-10T08:15:00Z</time>
      </trkpt>
      <trkpt lat="42.75801" lon="1.76373">
        <ele>637</ele>
        <time>2016-09-10T08:15:03Z</time>
      </trkpt>
      <trkpt lat="42.75801" lon="1.76374">
        <ele>636</ele>
        <time>2016-09-10T08:15:04Z</time>
      </trkpt>
      <trkpt lat="42.75801" lon="1.76376">
        <ele>636</ele>
        <time>2016-09-10T08:15:05Z</time>
      </trkpt>
      <trkpt lat="42.75802" lon="1.76378">
        <ele>636</ele>
        <time>2016-09-10T08:15:06Z</time>
      </trkpt>
      <trkpt lat="42.75802" lon="1.7638">
        <ele>636</ele>
        <time>2016-09-10T08:15:07Z</time>
      </trkpt>
      <trkpt lat="42.75802" lon="1.76384">
        <ele>636</ele>
        <time>2016-09-10T08:15:10Z</time>
      </trkpt>
      <trkpt lat="42.75801" lon="1.76386">
        <ele>637</ele>
        <time>2016-09-10T08:15:12Z</time>
      </trkpt>
      <trkpt lat="42.758" lon="1.76388">
        <ele>637</ele>
        <time>2016-09-10T08:15:13Z</time>
      </trkpt>
      <trkpt lat="42.75799" lon="1.76389">
        <ele>637</ele>
        <time>2016-09-10T08:15:14Z</time>
      </trkpt>
      <trkpt lat="42.75799" lon="1.7639">
        <ele>638</ele>
        <time>2016-09-10T08:15:15Z</time>
      </trkpt>
      <trkpt lat="42.75798" lon="1.76391">
        <ele>638</ele>
        <time>2016-09-10T08:15:16Z</time>
      </trkpt>
      <trkpt lat="42.75795" lon="1.76392">
        <ele>639</ele>
        <time>2016-09-10T08:15:20Z</time>
      </trkpt>
      <trkpt lat="42.75793" lon="1.76392">
        <ele>640</ele>
        <time>2016-09-10T08:15:23Z</time>
      </trkpt>
      <trkpt lat="42.75793" lon="1.76392">
        <ele>640</ele>
        <time>2016-09-10T08:15:24Z</time>
      </trkpt>
      <trkpt lat="42.75793" lon="1.76392">
        <ele>640</ele>
        <time>2016-09-10T08:15:25Z</time>
      </trkpt>
      <trkpt lat="42.75793" lon="1.76392">
        <ele>640</ele>
        <time>2016-09-10T08:15:26Z</time>
      </trkpt>
      <trkpt lat="42.75794" lon="1.76394">
        <ele>640</ele>
        <time>2016-09-10T08:15:28Z</time>
      </trkpt>
      <trkpt lat="42.75795" lon="1.76411">
        <ele>639</ele>
        <time>2016-09-10T08:15:37Z</time>
      </trkpt>
      <trkpt lat="42.75795" lon="1.76413">
        <ele>639</ele>
        <time>2016-09-10T08:15:38Z</time>
      </trkpt>
      <trkpt lat="42.75794" lon="1.76415">
        <ele>639</ele>
        <time>2016-09-10T08:15:39Z</time>
      </trkpt>
      <trkpt lat="42.75794" lon="1.76416">
        <ele>640</ele>
        <time>2016-09-10T08:15:40Z</time>
      </trkpt>
      <trkpt lat="42.75793" lon="1.76418">
        <ele>640</ele>
        <time>2016-09-10T08:15:41Z</time>
      </trkpt>
      <trkpt lat="42.75792" lon="1.76419">
        <ele>640</ele>
        <time>2016-09-10T08:15:42Z</time>
      </trkpt>
      <trkpt lat="42.75791" lon="1.7642">
        <ele>641</ele>
        <time>2016-09-10T08:15:43Z</time>
      </trkpt>
      <trkpt lat="42.75792" lon="1.76414">
        <ele>640</ele>
        <time>2016-09-10T08:15:48Z</time>
      </trkpt>
      <trkpt lat="42.75793" lon="1.76411">
        <ele>640</ele>
        <time>2016-09-10T08:15:49Z</time>
      </trkpt>
      <trkpt lat="42.75793" lon="1.76402">
        <ele>640</ele>
        <time>2016-09-10T08:15:54Z</time>
      </trkpt>
      <trkpt lat="42.75791" lon="1.76391">
        <ele>641</ele>
        <time>2016-09-10T08:16:00Z</time>
      </trkpt>
      <trkpt lat="42.7579" lon="1.76391">
        <ele>641</ele>
        <time>2016-09-10T08:16:03Z</time>
      </trkpt>
      <trkpt lat="42.75789" lon="1.76392">
        <ele>642</ele>
        <time>2016-09-10T08:16:04Z</time>
      </trkpt>
      <trkpt lat="42.75788" lon="1.76394">
        <ele>642</ele>
        <time>2016-09-10T08:16:05Z</time>
      </trkpt>
      <trkpt lat="42.75788" lon="1.76395">
        <ele>642</ele>
        <time>2016-09-10T08:16:06Z</time>
      </trkpt>
      <trkpt lat="42.75788" lon="1.76396">
        <ele>642</ele>
        <time>2016-09-10T08:16:07Z</time>
      </trkpt>
      <trkpt lat="42.75785" lon="1.76404">
        <ele>643</ele>
        <time>2016-09-10T08:16:16Z</time>
      </trkpt>
      <trkpt lat="42.75785" lon="1.76405">
        <ele>643</ele>
        <time>2016-09-10T08:16:17Z</time>
      </trkpt>
      <trkpt lat="42.75784" lon="1.76406">
        <ele>644</ele>
        <time>2016-09-10T08:16:18Z</time>
      </trkpt>
      <trkpt lat="42.75783" lon="1.76407">
        <ele>644</ele>
        <time>2016-09-10T08:16:19Z</time>
      </trkpt>
      <trkpt lat="42.75782" lon="1.76409">
        <ele>644</ele>
        <time>2016-09-10T08:16:20Z</time>
      </trkpt>
      <trkpt lat="42.7578" lon="1.76415">
        <ele>645</ele>
        <time>2016-09-10T08:16:25Z</time>
      </trkpt>
      <trkpt lat="42.75781" lon="1.76416">
        <ele>645</ele>
        <time>2016-09-10T08:16:27Z</time>
      </trkpt>
      <trkpt lat="42.75782" lon="1.76417">
        <ele>645</ele>
        <time>2016-09-10T08:16:28Z</time>
      </trkpt>
      <trkpt lat="42.75782" lon="1.76417">
        <ele>645</ele>
        <time>2016-09-10T08:16:29Z</time>
      </trkpt>
      <trkpt lat="42.75782" lon="1.76417">
        <ele>645</ele>
        <time>2016-09-10T08:16:30Z</time>
      </trkpt>
      <trkpt lat="42.75782" lon="1.76417">
        <ele>645</ele>
        <time>2016-09-10T08:16:31Z</time>
      </trkpt>
      <trkpt lat="42.75782" lon="1.76417">
        <ele>645</ele>
        <time>2016-09-10T08:16:35Z</time>
      </trkpt>
      <trkpt lat="42.75784" lon="1.76422">
        <ele>644</ele>
        <time>2016-09-10T08:16:42Z</time>
      </trkpt>
      <trkpt lat="42.75783" lon="1.76433">
        <ele>644</ele>
        <time>2016-09-10T08:16:51Z</time>
      </trkpt>
      <trkpt lat="42.75781" lon="1.76441">
        <ele>644</ele>
        <time>2016-09-10T08:16:58Z</time>
      </trkpt>
      <trkpt lat="42.75777" lon="1.76452">
        <ele>644</ele>
        <time>2016-09-10T08:17:06Z</time>
      </trkpt>
      <trkpt lat="42.75774" lon="1.76461">
        <ele>645</ele>
        <time>2016-09-10T08:17:13Z</time>
      </trkpt>
      <trkpt lat="42.7577" lon="1.76469">
        <ele>645</ele>
        <time>2016-09-10T08:17:21Z</time>
      </trkpt>
      <trkpt lat="42.75768" lon="1.76479">
        <ele>644</ele>
        <time>2016-09-10T08:17:30Z</time>
      </trkpt>
      <trkpt lat="42.75766" lon="1.76483">
        <ele>644</ele>
        <time>2016-09-10T08:17:34Z</time>
      </trkpt>
      <trkpt lat="42.75766" lon="1.76484">
        <ele>644</ele>
        <time>2016-09-10T08:17:35Z</time>
      </trkpt>
      <trkpt lat="42.75766" lon="1.76486">
        <ele>644</ele>
        <time>2016-09-10T08:17:36Z</time>
      </trkpt>
      <trkpt lat="42.75765" lon="1.76487">
        <ele>644</ele>
        <time>2016-09-10T08:17:37Z</time>
      </trkpt>
      <trkpt lat="42.75764" lon="1.76488">
        <ele>645</ele>
        <time>2016-09-10T08:17:38Z</time>
      </trkpt>
      <trkpt lat="42.75763" lon="1.76488">
        <ele>645</ele>
        <time>2016-09-10T08:17:39Z</time>
      </trkpt>
      <trkpt lat="42.75757" lon="1.76493">
        <ele>647</ele>
        <time>2016-09-10T08:17:46Z</time>
      </trkpt>
      <trkpt lat="42.75753" lon="1.765">
        <ele>648</ele>
        <time>2016-09-10T08:17:51Z</time>
      </trkpt>
      <trkpt lat="42.75751" lon="1.76502">
        <ele>649</ele>
        <time>2016-09-10T08:17:52Z</time>
      </trkpt>
      <trkpt lat="42.7575" lon="1.76503">
        <ele>649</ele>
        <time>2016-09-10T08:17:53Z</time>
      </trkpt>
      <trkpt lat="42.75749" lon="1.76503">
        <ele>650</ele>
        <time>2016-09-10T08:17:54Z</time>
      </trkpt>
      <trkpt lat="42.75748" lon="1.76504">
        <ele>650</ele>
        <time>2016-09-10T08:17:55Z</time>
      </trkpt>
      <trkpt lat="42.75742" lon="1.76507">
        <ele>652</ele>
        <time>2016-09-10T08:18:01Z</time>
      </trkpt>
      <trkpt lat="42.75741" lon="1.7651">
        <ele>653</ele>
        <time>2016-09-10T08:18:10Z</time>
      </trkpt>
      <trkpt lat="42.75737" lon="1.76519">
        <ele>653</ele>
        <time>2016-09-10T08:18:20Z</time>
      </trkpt>
      <trkpt lat="42.75734" lon="1.76528">
        <ele>653</ele>
        <time>2016-09-10T08:18:28Z</time>
      </trkpt>
      <trkpt lat="42.75734" lon="1.7653">
        <ele>653</ele>
        <time>2016-09-10T08:18:29Z</time>
      </trkpt>
      <trkpt lat="42.75733" lon="1.76531">
        <ele>653</ele>
        <time>2016-09-10T08:18:30Z</time>
      </trkpt>
      <trkpt lat="42.75733" lon="1.76532">
        <ele>653</ele>
        <time>2016-09-10T08:18:31Z</time>
      </trkpt>
      <trkpt lat="42.75733" lon="1.76533">
        <ele>653</ele>
        <time>2016-09-10T08:18:32Z</time>
      </trkpt>
      <trkpt lat="42.75731" lon="1.76545">
        <ele>652</ele>
        <time>2016-09-10T08:18:40Z</time>
      </trkpt>
      <trkpt lat="42.75731" lon="1.76546">
        <ele>652</ele>
        <time>2016-09-10T08:18:41Z</time>
      </trkpt>
      <trkpt lat="42.75731" lon="1.76547">
        <ele>652</ele>
        <time>2016-09-10T08:18:42Z</time>
      </trkpt>
      <trkpt lat="42.7573" lon="1.76548">
        <ele>652</ele>
        <time>2016-09-10T08:18:43Z</time>
      </trkpt>
      <trkpt lat="42.75722" lon="1.76561">
        <ele>653</ele>
        <time>2016-09-10T08:18:51Z</time>
      </trkpt>
      <trkpt lat="42.75721" lon="1.76563">
        <ele>653</ele>
        <time>2016-09-10T08:18:52Z</time>
      </trkpt>
      <trkpt lat="42.7572" lon="1.76564">
        <ele>654</ele>
        <time>2016-09-10T08:18:53Z</time>
      </trkpt>
      <trkpt lat="42.75719" lon="1.76565">
        <ele>654</ele>
        <time>2016-09-10T08:18:54Z</time>
      </trkpt>
      <trkpt lat="42.75719" lon="1.76566">
        <ele>654</ele>
        <time>2016-09-10T08:18:55Z</time>
      </trkpt>
      <trkpt lat="42.75714" lon="1.7657">
        <ele>655</ele>
        <time>2016-09-10T08:19:00Z</time>
      </trkpt>
      <trkpt lat="42.7571" lon="1.76572">
        <ele>657</ele>
        <time>2016-09-10T08:19:04Z</time>
      </trkpt>
      <trkpt lat="42.75709" lon="1.76572">
        <ele>657</ele>
        <time>2016-09-10T08:19:05Z</time>
      </trkpt>
      <trkpt lat="42.75708" lon="1.76573">
        <ele>657</ele>
        <time>2016-09-10T08:19:06Z</time>
      </trkpt>
      <trkpt lat="42.75707" lon="1.76574">
        <ele>658</ele>
        <time>2016-09-10T08:19:07Z</time>
      </trkpt>
      <trkpt lat="42.75702" lon="1.76577">
        <ele>659</ele>
        <time>2016-09-10T08:19:12Z</time>
      </trkpt>
      <trkpt lat="42.75699" lon="1.76577">
        <ele>660</ele>
        <time>2016-09-10T08:19:14Z</time>
      </trkpt>
      <trkpt lat="42.75698" lon="1.76577">
        <ele>660</ele>
        <time>2016-09-10T08:19:15Z</time>
      </trkpt>
      <trkpt lat="42.75696" lon="1.76577">
        <ele>661</ele>
        <time>2016-09-10T08:19:16Z</time>
      </trkpt>
      <trkpt lat="42.75694" lon="1.76578">
        <ele>662</ele>
        <time>2016-09-10T08:19:17Z</time>
      </trkpt>
      <trkpt lat="42.75693" lon="1.76578">
        <ele>662</ele>
        <time>2016-09-10T08:19:18Z</time>
      </trkpt>
      <trkpt lat="42.7569" lon="1.76579">
        <ele>663</ele>
        <time>2016-09-10T08:19:21Z</time>
      </trkpt>
      <trkpt lat="42.75689" lon="1.76577">
        <ele>663</ele>
        <time>2016-09-10T08:19:23Z</time>
      </trkpt>
      <trkpt lat="42.75689" lon="1.76576">
        <ele>664</ele>
        <time>2016-09-10T08:19:24Z</time>
      </trkpt>
      <trkpt lat="42.75689" lon="1.76576">
        <ele>664</ele>
        <time>2016-09-10T08:19:25Z</time>
      </trkpt>
      <trkpt lat="42.75688" lon="1.76576">
        <ele>664</ele>
        <time>2016-09-10T08:19:26Z</time>
      </trkpt>
      <trkpt lat="42.75688" lon="1.76577">
        <ele>664</ele>
        <time>2016-09-10T08:19:27Z</time>
      </trkpt>
      <trkpt lat="42.75687" lon="1.76577">
        <ele>664</ele>
        <time>2016-09-10T08:19:30Z</time>
      </trkpt>
      <trkpt lat="42.75686" lon="1.76577">
        <ele>665</ele>
        <time>2016-09-10T08:19:32Z</time>
      </trkpt>
      <trkpt lat="42.75685" lon="1.76577">
        <ele>665</ele>
        <time>2016-09-10T08:19:33Z</time>
      </trkpt>
      <trkpt lat="42.75685" lon="1.76578">
        <ele>665</ele>
        <time>2016-09-10T08:19:34Z</time>
      </trkpt>
      <trkpt lat="42.75683" lon="1.76578">
        <ele>665</ele>
        <time>2016-09-10T08:19:35Z</time>
      </trkpt>
      <trkpt lat="42.75683" lon="1.76578">
        <ele>665</ele>
        <time>2016-09-10T08:19:36Z</time>
      </trkpt>
      <trkpt lat="42.75683" lon="1.76578">
        <ele>665</ele>
        <time>2016-09-10T08:19:38Z</time>
      </trkpt>
      <trkpt lat="42.75679" lon="1.76579">
        <ele>667</ele>
        <time>2016-09-10T08:19:47Z</time>
      </trkpt>
      <trkpt lat="42.75679" lon="1.76579">
        <ele>667</ele>
        <time>2016-09-10T08:19:48Z</time>
      </trkpt>
      <trkpt lat="42.75679" lon="1.76579">
        <ele>667</ele>
        <time>2016-09-10T08:19:49Z</time>
      </trkpt>
      <trkpt lat="42.75679" lon="1.76579">
        <ele>667</ele>
        <time>2016-09-10T08:19:50Z</time>
      </trkpt>
      <trkpt lat="42.75678" lon="1.7658">
        <ele>667</ele>
        <time>2016-09-10T08:19:51Z</time>
      </trkpt>
      <trkpt lat="42.75675" lon="1.76585">
        <ele>667</ele>
        <time>2016-09-10T08:19:55Z</time>
      </trkpt>
      <trkpt lat="42.75675" lon="1.76588">
        <ele>667</ele>
        <time>2016-09-10T08:19:56Z</time>
      </trkpt>
      <trkpt lat="42.75675" lon="1.76589">
        <ele>667</ele>
        <time>2016-09-10T08:19:57Z</time>
      </trkpt>
      <trkpt lat="42.75675" lon="1.7659">
        <ele>667</ele>
        <time>2016-09-10T08:19:58Z</time>
      </trkpt>
      <trkpt lat="42.75674" lon="1.76591">
        <ele>667</ele>
        <time>2016-09-10T08:19:59Z</time>
      </trkpt>
      <trkpt lat="42.75669" lon="1.76589">
        <ele>669</ele>
        <time>2016-09-10T08:20:05Z</time>
      </trkpt>
      <trkpt lat="42.75669" lon="1.76588">
        <ele>670</ele>
        <time>2016-09-10T08:20:06Z</time>
      </trkpt>
      <trkpt lat="42.75668" lon="1.76588">
        <ele>670</ele>
        <time>2016-09-10T08:20:07Z</time>
      </trkpt>
      <trkpt lat="42.75667" lon="1.76588">
        <ele>670</ele>
        <time>2016-09-10T08:20:08Z</time>
      </trkpt>
      <trkpt lat="42.75666" lon="1.76588">
        <ele>671</ele>
        <time>2016-09-10T08:20:09Z</time>
      </trkpt>
      <trkpt lat="42.75666" lon="1.76589">
        <ele>671</ele>
        <time>2016-09-10T08:20:10Z</time>
      </trkpt>
      <trkpt lat="42.75664" lon="1.76588">
        <ele>672</ele>
        <time>2016-09-10T08:20:14Z</time>
      </trkpt>
      <trkpt lat="42.75662" lon="1.76589">
        <ele>672</ele>
        <time>2016-09-10T08:20:15Z</time>
      </trkpt>
      <trkpt lat="42.75661" lon="1.76589">
        <ele>673</ele>
        <time>2016-09-10T08:20:16Z</time>
      </trkpt>
      <trkpt lat="42.7566" lon="1.76589">
        <ele>673</ele>
        <time>2016-09-10T08:20:17Z</time>
      </trkpt>
      <trkpt lat="42.75659" lon="1.76589">
        <ele>674</ele>
        <time>2016-09-10T08:20:18Z</time>
      </trkpt>
      <trkpt lat="42.75655" lon="1.76592">
        <ele>675</ele>
        <time>2016-09-10T08:20:22Z</time>
      </trkpt>
      <trkpt lat="42.75654" lon="1.76593">
        <ele>675</ele>
        <time>2016-09-10T08:20:23Z</time>
      </trkpt>
      <trkpt lat="42.75654" lon="1.76594">
        <ele>675</ele>
        <time>2016-09-10T08:20:24Z</time>
      </trkpt>
      <trkpt lat="42.75652" lon="1.76594">
        <ele>675</ele>
        <time>2016-09-10T08:20:25Z</time>
      </trkpt>
      <trkpt lat="42.75652" lon="1.76594">
        <ele>676</ele>
        <time>2016-09-10T08:20:26Z</time>
      </trkpt>
      <trkpt lat="42.75648" lon="1.76593">
        <ele>678</ele>
        <time>2016-09-10T08:20:31Z</time>
      </trkpt>
      <trkpt lat="42.75647" lon="1.76592">
        <ele>678</ele>
        <time>2016-09-10T08:20:32Z</time>
      </trkpt>
      <trkpt lat="42.75646" lon="1.76591">
        <ele>678</ele>
        <time>2016-09-10T08:20:33Z</time>
      </trkpt>
      <trkpt lat="42.75646" lon="1.7659">
        <ele>679</ele>
        <time>2016-09-10T08:20:34Z</time>
      </trkpt>
      <trkpt lat="42.75645" lon="1.76588">
        <ele>680</ele>
        <time>2016-09-10T08:20:35Z</time>
      </trkpt>
      <trkpt lat="42.7564" lon="1.76583">
        <ele>683</ele>
        <time>2016-09-10T08:20:44Z</time>
      </trkpt>
      <trkpt lat="42.7564" lon="1.76583">
        <ele>684</ele>
        <time>2016-09-10T08:20:45Z</time>
      </trkpt>
      <trkpt lat="42.75639" lon="1.76583">
        <ele>684</ele>
        <time>2016-09-10T08:20:46Z</time>
      </trkpt>
      <trkpt lat="42.75638" lon="1.76583">
        <ele>684</ele>
        <time>2016-09-10T08:20:47Z</time>
      </trkpt>
      <trkpt lat="42.75636" lon="1.76585">
        <ele>685</ele>
        <time>2016-09-10T08:20:55Z</time>
      </trkpt>
      <trkpt lat="42.75635" lon="1.76585">
        <ele>685</ele>
        <time>2016-09-10T08:20:56Z</time>
      </trkpt>
      <trkpt lat="42.75635" lon="1.76585">
        <ele>685</ele>
        <time>2016-09-10T08:20:57Z</time>
      </trkpt>
      <trkpt lat="42.75634" lon="1.76585">
        <ele>686</ele>
        <time>2016-09-10T08:20:58Z</time>
      </trkpt>
      <trkpt lat="42.75633" lon="1.76584">
        <ele>686</ele>
        <time>2016-09-10T08:20:59Z</time>
      </trkpt>
      <trkpt lat="42.75633" lon="1.76584">
        <ele>686</ele>
        <time>2016-09-10T08:21:04Z</time>
      </trkpt>
      <trkpt lat="42.75628" lon="1.76592">
        <ele>686</ele>
        <time>2016-09-10T08:21:14Z</time>
      </trkpt>
      <trkpt lat="42.75628" lon="1.76592">
        <ele>686</ele>
        <time>2016-09-10T08:21:27Z</time>
      </trkpt>
      <trkpt lat="42.75628" lon="1.76592">
        <ele>686</ele>
        <time>2016-09-10T08:21:30Z</time>
      </trkpt>
      <trkpt lat="42.75627" lon="1.76593">
        <ele>686</ele>
        <time>2016-09-10T08:21:38Z</time>
      </trkpt>
      <trkpt lat="42.75624" lon="1.766">
        <ele>686</ele>
        <time>2016-09-10T08:21:42Z</time>
      </trkpt>
      <trkpt lat="42.75623" lon="1.76601">
        <ele>686</ele>
        <time>2016-09-10T08:21:43Z</time>
      </trkpt>
      <trkpt lat="42.75622" lon="1.76602">
        <ele>686</ele>
        <time>2016-09-10T08:21:44Z</time>
      </trkpt>
      <trkpt lat="42.7562" lon="1.76604">
        <ele>686</ele>
        <time>2016-09-10T08:21:45Z</time>
      </trkpt>
      <trkpt lat="42.75619" lon="1.76606">
        <ele>686</ele>
        <time>2016-09-10T08:21:46Z</time>
      </trkpt>
      <trkpt lat="42.75618" lon="1.76607">
        <ele>686</ele>
        <time>2016-09-10T08:21:47Z</time>
      </trkpt>
      <trkpt lat="42.75611" lon="1.7662">
        <ele>685</ele>
        <time>2016-09-10T08:21:54Z</time>
      </trkpt>
      <trkpt lat="42.75606" lon="1.7663">
        <ele>685</ele>
        <time>2016-09-10T08:22:03Z</time>
      </trkpt>
      <trkpt lat="42.756" lon="1.76634">
        <ele>686</ele>
        <time>2016-09-10T08:22:12Z</time>
      </trkpt>
      <trkpt lat="42.75597" lon="1.76639">
        <ele>686</ele>
        <time>2016-09-10T08:22:22Z</time>
      </trkpt>
      <trkpt lat="42.75594" lon="1.76644">
        <ele>686</ele>
        <time>2016-09-10T08:22:30Z</time>
      </trkpt>
      <trkpt lat="42.7559" lon="1.76646">
        <ele>687</ele>
        <time>2016-09-10T08:22:34Z</time>
      </trkpt>
      <trkpt lat="42.75589" lon="1.76647">
        <ele>687</ele>
        <time>2016-09-10T08:22:35Z</time>
      </trkpt>
      <trkpt lat="42.75589" lon="1.76648">
        <ele>687</ele>
        <time>2016-09-10T08:22:36Z</time>
      </trkpt>
      <trkpt lat="42.75588" lon="1.7665">
        <ele>687</ele>
        <time>2016-09-10T08:22:37Z</time>
      </trkpt>
      <trkpt lat="42.75588" lon="1.76651">
        <ele>687</ele>
        <time>2016-09-10T08:22:38Z</time>
      </trkpt>
      <trkpt lat="42.75587" lon="1.76653">
        <ele>687</ele>
        <time>2016-09-10T08:22:39Z</time>
      </trkpt>
      <trkpt lat="42.75579" lon="1.76665">
        <ele>687</ele>
        <time>2016-09-10T08:22:50Z</time>
      </trkpt>
      <trkpt lat="42.75579" lon="1.76668">
        <ele>687</ele>
        <time>2016-09-10T08:22:59Z</time>
      </trkpt>
      <trkpt lat="42.75579" lon="1.76668">
        <ele>687</ele>
        <time>2016-09-10T08:23:00Z</time>
      </trkpt>
      <trkpt lat="42.75579" lon="1.76669">
        <ele>687</ele>
        <time>2016-09-10T08:23:01Z</time>
      </trkpt>
      <trkpt lat="42.75578" lon="1.76671">
        <ele>686</ele>
        <time>2016-09-10T08:23:02Z</time>
      </trkpt>
      <trkpt lat="42.75577" lon="1.76672">
        <ele>686</ele>
        <time>2016-09-10T08:23:03Z</time>
      </trkpt>
      <trkpt lat="42.75576" lon="1.76674">
        <ele>686</ele>
        <time>2016-09-10T08:23:04Z</time>
      </trkpt>
      <trkpt lat="42.75574" lon="1.76678">
        <ele>686</ele>
        <time>2016-09-10T08:23:08Z</time>
      </trkpt>
      <trkpt lat="42.7557" lon="1.76682">
        <ele>687</ele>
        <time>2016-09-10T08:23:16Z</time>
      </trkpt>
      <trkpt lat="42.75568" lon="1.76684">
        <ele>687</ele>
        <time>2016-09-10T08:23:17Z</time>
      </trkpt>
      <trkpt lat="42.75567" lon="1.76685">
        <ele>687</ele>
        <time>2016-09-10T08:23:18Z</time>
      </trkpt>
      <trkpt lat="42.75566" lon="1.76687">
        <ele>687</ele>
        <time>2016-09-10T08:23:19Z</time>
      </trkpt>
      <trkpt lat="42.75566" lon="1.76688">
        <ele>687</ele>
        <time>2016-09-10T08:23:20Z</time>
      </trkpt>
      <trkpt lat="42.75562" lon="1.76691">
        <ele>688</ele>
        <time>2016-09-10T08:23:26Z</time>
      </trkpt>
      <trkpt lat="42.75562" lon="1.76691">
        <ele>688</ele>
        <time>2016-09-10T08:23:27Z</time>
      </trkpt>
      <trkpt lat="42.75561" lon="1.76692">
        <ele>688</ele>
        <time>2016-09-10T08:23:28Z</time>
      </trkpt>
      <trkpt lat="42.75561" lon="1.76692">
        <ele>689</ele>
        <time>2016-09-10T08:23:29Z</time>
      </trkpt>
      <trkpt lat="42.75559" lon="1.76693">
        <ele>689</ele>
        <time>2016-09-10T08:23:30Z</time>
      </trkpt>
      <trkpt lat="42.75558" lon="1.76694">
        <ele>689</ele>
        <time>2016-09-10T08:23:31Z</time>
      </trkpt>
      <trkpt lat="42.75555" lon="1.76694">
        <ele>690</ele>
        <time>2016-09-10T08:23:33Z</time>
      </trkpt>
      <trkpt lat="42.7555" lon="1.76696">
        <ele>692</ele>
        <time>2016-09-10T08:23:38Z</time>
      </trkpt>
      <trkpt lat="42.7555" lon="1.76696">
        <ele>692</ele>
        <time>2016-09-10T08:23:39Z</time>
      </trkpt>
      <trkpt lat="42.75549" lon="1.76696">
        <ele>693</ele>
        <time>2016-09-10T08:23:40Z</time>
      </trkpt>
      <trkpt lat="42.75548" lon="1.76696">
        <ele>693</ele>
        <time>2016-09-10T08:23:41Z</time>
      </trkpt>
      <trkpt lat="42.75547" lon="1.76696">
        <ele>693</ele>
        <time>2016-09-10T08:23:42Z</time>
      </trkpt>
      <trkpt lat="42.75545" lon="1.76697">
        <ele>694</ele>
        <time>2016-09-10T08:23:46Z</time>
      </trkpt>
      <trkpt lat="42.75542" lon="1.76702">
        <ele>694</ele>
        <time>2016-09-10T08:23:52Z</time>
      </trkpt>
      <trkpt lat="42.75541" lon="1.76702">
        <ele>694</ele>
        <time>2016-09-10T08:23:56Z</time>
      </trkpt>
      <trkpt lat="42.7554" lon="1.76703">
        <ele>695</ele>
        <time>2016-09-10T08:23:57Z</time>
      </trkpt>
      <trkpt lat="42.75539" lon="1.76703">
        <ele>695</ele>
        <time>2016-09-10T08:23:58Z</time>
      </trkpt>
      <trkpt lat="42.75539" lon="1.76703">
        <ele>695</ele>
        <time>2016-09-10T08:23:59Z</time>
      </trkpt>
      <trkpt lat="42.75538" lon="1.76703">
        <ele>695</ele>
        <time>2016-09-10T08:24:00Z</time>
      </trkpt>
      <trkpt lat="42.75534" lon="1.76706">
        <ele>697</ele>
        <time>2016-09-10T08:24:06Z</time>
      </trkpt>
      <trkpt lat="42.75533" lon="1.76707">
        <ele>697</ele>
        <time>2016-09-10T08:24:07Z</time>
      </trkpt>
      <trkpt lat="42.75532" lon="1.76708">
        <ele>697</ele>
        <time>2016-09-10T08:24:08Z</time>
      </trkpt>
      <trkpt lat="42.75532" lon="1.76708">
        <ele>697</ele>
        <time>2016-09-10T08:24:09Z</time>
      </trkpt>
      <trkpt lat="42.75531" lon="1.76709">
        <ele>697</ele>
        <time>2016-09-10T08:24:10Z</time>
      </trkpt>
      <trkpt lat="42.75528" lon="1.7671">
        <ele>698</ele>
        <time>2016-09-10T08:24:15Z</time>
      </trkpt>
      <trkpt lat="42.75527" lon="1.7671">
        <ele>698</ele>
        <time>2016-09-10T08:24:17Z</time>
      </trkpt>
      <trkpt lat="42.75526" lon="1.7671">
        <ele>699</ele>
        <time>2016-09-10T08:24:18Z</time>
      </trkpt>
      <trkpt lat="42.75526" lon="1.7671">
        <ele>699</ele>
        <time>2016-09-10T08:24:19Z</time>
      </trkpt>
      <trkpt lat="42.75526" lon="1.7671">
        <ele>699</ele>
        <time>2016-09-10T08:24:20Z</time>
      </trkpt>
      <trkpt lat="42.75525" lon="1.7671">
        <ele>699</ele>
        <time>2016-09-10T08:24:21Z</time>
      </trkpt>
      <trkpt lat="42.75523" lon="1.7671">
        <ele>700</ele>
        <time>2016-09-10T08:24:23Z</time>
      </trkpt>
      <trkpt lat="42.75522" lon="1.76709">
        <ele>701</ele>
        <time>2016-09-10T08:24:28Z</time>
      </trkpt>
      <trkpt lat="42.75522" lon="1.76709">
        <ele>701</ele>
        <time>2016-09-10T08:24:29Z</time>
      </trkpt>
      <trkpt lat="42.75521" lon="1.7671">
        <ele>701</ele>
        <time>2016-09-10T08:24:30Z</time>
      </trkpt>
      <trkpt lat="42.75521" lon="1.7671">
        <ele>701</ele>
        <time>2016-09-10T08:24:31Z</time>
      </trkpt>
      <trkpt lat="42.7552" lon="1.7671">
        <ele>701</ele>
        <time>2016-09-10T08:24:32Z</time>
      </trkpt>
      <trkpt lat="42.75517" lon="1.76709">
        <ele>703</ele>
        <time>2016-09-10T08:24:36Z</time>
      </trkpt>
      <trkpt lat="42.75514" lon="1.76709">
        <ele>704</ele>
        <time>2016-09-10T08:24:41Z</time>
      </trkpt>
      <trkpt lat="42.75513" lon="1.76709">
        <ele>705</ele>
        <time>2016-09-10T08:24:42Z</time>
      </trkpt>
      <trkpt lat="42.75512" lon="1.76709">
        <ele>705</ele>
        <time>2016-09-10T08:24:43Z</time>
      </trkpt>
      <trkpt lat="42.75511" lon="1.76709">
        <ele>705</ele>
        <time>2016-09-10T08:24:44Z</time>
      </trkpt>
      <trkpt lat="42.7551" lon="1.7671">
        <ele>706</ele>
        <time>2016-09-10T08:24:45Z</time>
      </trkpt>
      <trkpt lat="42.75506" lon="1.76709">
        <ele>708</ele>
        <time>2016-09-10T08:24:53Z</time>
      </trkpt>
      <trkpt lat="42.75505" lon="1.76708">
        <ele>708</ele>
        <time>2016-09-10T08:24:54Z</time>
      </trkpt>
      <trkpt lat="42.75504" lon="1.76708">
        <ele>709</ele>
        <time>2016-09-10T08:24:55Z</time>
      </trkpt>
      <trkpt lat="42.75503" lon="1.76708">
        <ele>709</ele>
        <time>2016-09-10T08:24:56Z</time>
      </trkpt>
      <trkpt lat="42.75497" lon="1.76708">
        <ele>712</ele>
        <time>2016-09-10T08:25:03Z</time>
      </trkpt>
      <trkpt lat="42.75497" lon="1.76708">
        <ele>712</ele>
        <time>2016-09-10T08:25:06Z</time>
      </trkpt>
      <trkpt lat="42.75496" lon="1.76708">
        <ele>712</ele>
        <time>2016-09-10T08:25:07Z</time>
      </trkpt>
      <trkpt lat="42.75495" lon="1.76707">
        <ele>712</ele>
        <time>2016-09-10T08:25:08Z</time>
      </trkpt>
      <trkpt lat="42.75495" lon="1.76707">
        <ele>712</ele>
        <time>2016-09-10T08:25:09Z</time>
      </trkpt>
      <trkpt lat="42.75495" lon="1.76707">
        <ele>712</ele>
        <time>2016-09-10T08:25:10Z</time>
      </trkpt>
      <trkpt lat="42.75495" lon="1.76707">
        <ele>713</ele>
        <time>2016-09-10T08:25:12Z</time>
      </trkpt>
      <trkpt lat="42.75492" lon="1.76707">
        <ele>714</ele>
        <time>2016-09-10T08:25:19Z</time>
      </trkpt>
      <trkpt lat="42.75492" lon="1.76707">
        <ele>714</ele>
        <time>2016-09-10T08:25:20Z</time>
      </trkpt>
      <trkpt lat="42.75492" lon="1.76707">
        <ele>714</ele>
        <time>2016-09-10T08:25:21Z</time>
      </trkpt>
      <trkpt lat="42.75492" lon="1.76707">
        <ele>714</ele>
        <time>2016-09-10T08:25:22Z</time>
      </trkpt>
      <trkpt lat="42.75492" lon="1.76707">
        <ele>714</ele>
        <time>2016-09-10T08:25:23Z</time>
      </trkpt>
      <trkpt lat="42.75492" lon="1.76707">
        <ele>714</ele>
        <time>2016-09-10T08:25:33Z</time>
      </trkpt>
      <trkpt lat="42.75492" lon="1.76707">
        <ele>714</ele>
        <time>2016-09-10T08:25:46Z</time>
      </trkpt>
      <trkpt lat="42.75494" lon="1.76707">
        <ele>713</ele>
        <time>2016-09-10T08:25:57Z</time>
      </trkpt>
      <trkpt lat="42.75492" lon="1.76704">
        <ele>714</ele>
        <time>2016-09-10T08:26:06Z</time>
      </trkpt>
      <trkpt lat="42.75483" lon="1.76715">
        <ele>715</ele>
        <time>2016-09-10T08:26:14Z</time>
      </trkpt>
      <trkpt lat="42.75476" lon="1.76717">
        <ele>717</ele>
        <time>2016-09-10T08:26:22Z</time>
      </trkpt>
      <trkpt lat="42.7547" lon="1.76721">
        <ele>717</ele>
        <time>2016-09-10T08:26:31Z</time>
      </trkpt>
      <trkpt lat="42.7547" lon="1.76721">
        <ele>717</ele>
        <time>2016-09-10T08:26:32Z</time>
      </trkpt>
      <trkpt lat="42.7547" lon="1.76722">
        <ele>717</ele>
        <time>2016-09-10T08:26:33Z</time>
      </trkpt>
      <trkpt lat="42.75469" lon="1.76723">
        <ele>717</ele>
        <time>2016-09-10T08:26:34Z</time>
      </trkpt>
      <trkpt lat="42.75467" lon="1.76725">
        <ele>717</ele>
        <time>2016-09-10T08:26:41Z</time>
      </trkpt>
      <trkpt lat="42.75467" lon="1.76725">
        <ele>717</ele>
        <time>2016-09-10T08:26:42Z</time>
      </trkpt>
      <trkpt lat="42.75466" lon="1.76725">
        <ele>717</ele>
        <time>2016-09-10T08:26:43Z</time>
      </trkpt>
      <trkpt lat="42.75466" lon="1.76726">
        <ele>717</ele>
        <time>2016-09-10T08:26:44Z</time>
      </trkpt>
      <trkpt lat="42.75465" lon="1.76726">
        <ele>718</ele>
        <time>2016-09-10T08:26:45Z</time>
      </trkpt>
      <trkpt lat="42.75459" lon="1.76729">
        <ele>719</ele>
        <time>2016-09-10T08:26:50Z</time>
      </trkpt>
      <trkpt lat="42.75456" lon="1.76731">
        <ele>719</ele>
        <time>2016-09-10T08:26:53Z</time>
      </trkpt>
      <trkpt lat="42.75456" lon="1.76732">
        <ele>719</ele>
        <time>2016-09-10T08:26:54Z</time>
      </trkpt>
      <trkpt lat="42.75455" lon="1.76733">
        <ele>719</ele>
        <time>2016-09-10T08:26:55Z</time>
      </trkpt>
      <trkpt lat="42.75454" lon="1.76734">
        <ele>719</ele>
        <time>2016-09-10T08:26:56Z</time>
      </trkpt>
      <trkpt lat="42.75452" lon="1.76735">
        <ele>719</ele>
        <time>2016-09-10T08:26:58Z</time>
      </trkpt>
      <trkpt lat="42.75449" lon="1.76736">
        <ele>719</ele>
        <time>2016-09-10T08:27:03Z</time>
      </trkpt>
      <trkpt lat="42.75449" lon="1.76736">
        <ele>719</ele>
        <time>2016-09-10T08:27:04Z</time>
      </trkpt>
      <trkpt lat="42.75449" lon="1.76736">
        <ele>719</ele>
        <time>2016-09-10T08:27:05Z</time>
      </trkpt>
      <trkpt lat="42.75448" lon="1.76736">
        <ele>719</ele>
        <time>2016-09-10T08:27:06Z</time>
      </trkpt>
      <trkpt lat="42.75446" lon="1.76736">
        <ele>720</ele>
        <time>2016-09-10T08:27:07Z</time>
      </trkpt>
      <trkpt lat="42.75442" lon="1.76738">
        <ele>720</ele>
        <time>2016-09-10T08:27:13Z</time>
      </trkpt>
      <trkpt lat="42.75442" lon="1.76738">
        <ele>720</ele>
        <time>2016-09-10T08:27:14Z</time>
      </trkpt>
      <trkpt lat="42.75441" lon="1.76738">
        <ele>721</ele>
        <time>2016-09-10T08:27:15Z</time>
      </trkpt>
      <trkpt lat="42.7544" lon="1.76737">
        <ele>722</ele>
        <time>2016-09-10T08:27:16Z</time>
      </trkpt>
      <trkpt lat="42.75439" lon="1.76735">
        <ele>722</ele>
        <time>2016-09-10T08:27:17Z</time>
      </trkpt>
      <trkpt lat="42.75439" lon="1.76735">
        <ele>722</ele>
        <time>2016-09-10T08:27:18Z</time>
      </trkpt>
      <trkpt lat="42.75439" lon="1.76736">
        <ele>722</ele>
        <time>2016-09-10T08:27:20Z</time>
      </trkpt>
      <trkpt lat="42.75435" lon="1.76737">
        <ele>723</ele>
        <time>2016-09-10T08:27:24Z</time>
      </trkpt>
      <trkpt lat="42.75434" lon="1.76738">
        <ele>723</ele>
        <time>2016-09-10T08:27:25Z</time>
      </trkpt>
      <trkpt lat="42.75433" lon="1.76738">
        <ele>723</ele>
        <time>2016-09-10T08:27:26Z</time>
      </trkpt>
      <trkpt lat="42.75433" lon="1.76738">
        <ele>723</ele>
        <time>2016-09-10T08:27:27Z</time>
      </trkpt>
      <trkpt lat="42.75432" lon="1.76739">
        <ele>723</ele>
        <time>2016-09-10T08:27:28Z</time>
      </trkpt>
      <trkpt lat="42.75431" lon="1.76739">
        <ele>724</ele>
        <time>2016-09-10T08:27:29Z</time>
      </trkpt>
      <trkpt lat="42.75426" lon="1.76735">
        <ele>727</ele>
        <time>2016-09-10T08:27:36Z</time>
      </trkpt>
      <trkpt lat="42.75426" lon="1.76734">
        <ele>727</ele>
        <time>2016-09-10T08:27:37Z</time>
      </trkpt>
      <trkpt lat="42.75424" lon="1.76733">
        <ele>728</ele>
        <time>2016-09-10T08:27:38Z</time>
      </trkpt>
      <trkpt lat="42.75424" lon="1.76732">
        <ele>728</ele>
        <time>2016-09-10T08:27:39Z</time>
      </trkpt>
      <trkpt lat="42.75424" lon="1.76731">
        <ele>729</ele>
        <time>2016-09-10T08:27:40Z</time>
      </trkpt>
      <trkpt lat="42.75421" lon="1.76723">
        <ele>732</ele>
        <time>2016-09-10T08:27:47Z</time>
      </trkpt>
      <trkpt lat="42.75421" lon="1.76722">
        <ele>732</ele>
        <time>2016-09-10T08:27:48Z</time>
      </trkpt>
      <trkpt lat="42.75422" lon="1.76721">
        <ele>733</ele>
        <time>2016-09-10T08:27:49Z</time>
      </trkpt>
      <trkpt lat="42.75422" lon="1.76721">
        <ele>733</ele>
        <time>2016-09-10T08:27:50Z</time>
      </trkpt>
      <trkpt lat="42.75421" lon="1.7672">
        <ele>733</ele>
        <time>2016-09-10T08:27:51Z</time>
      </trkpt>
      <trkpt lat="42.7542" lon="1.76715">
        <ele>735</ele>
        <time>2016-09-10T08:27:58Z</time>
      </trkpt>
      <trkpt lat="42.75419" lon="1.76714">
        <ele>736</ele>
        <time>2016-09-10T08:27:59Z</time>
      </trkpt>
      <trkpt lat="42.75419" lon="1.76714">
        <ele>736</ele>
        <time>2016-09-10T08:28:00Z</time>
      </trkpt>
      <trkpt lat="42.75418" lon="1.76713">
        <ele>737</ele>
        <time>2016-09-10T08:28:01Z</time>
      </trkpt>
      <trkpt lat="42.75418" lon="1.76713">
        <ele>737</ele>
        <time>2016-09-10T08:28:02Z</time>
      </trkpt>
      <trkpt lat="42.75417" lon="1.76712">
        <ele>737</ele>
        <time>2016-09-10T08:28:03Z</time>
      </trkpt>
      <trkpt lat="42.75415" lon="1.7671">
        <ele>739</ele>
        <time>2016-09-10T08:28:06Z</time>
      </trkpt>
      <trkpt lat="42.75412" lon="1.76709">
        <ele>740</ele>
        <time>2016-09-10T08:28:10Z</time>
      </trkpt>
      <trkpt lat="42.75411" lon="1.76709">
        <ele>740</ele>
        <time>2016-09-10T08:28:11Z</time>
      </trkpt>
      <trkpt lat="42.7541" lon="1.76708">
        <ele>741</ele>
        <time>2016-09-10T08:28:12Z</time>
      </trkpt>
      <trkpt lat="42.75409" lon="1.76708">
        <ele>741</ele>
        <time>2016-09-10T08:28:13Z</time>
      </trkpt>
      <trkpt lat="42.75409" lon="1.76708">
        <ele>741</ele>
        <time>2016-09-10T08:28:14Z</time>
      </trkpt>
      <trkpt lat="42.75409" lon="1.76708">
        <ele>741</ele>
        <time>2016-09-10T08:28:15Z</time>
      </trkpt>
      <trkpt lat="42.75408" lon="1.76709">
        <ele>741</ele>
        <time>2016-09-10T08:28:22Z</time>
      </trkpt>
      <trkpt lat="42.75408" lon="1.76709">
        <ele>741</ele>
        <time>2016-09-10T08:28:23Z</time>
      </trkpt>
      <trkpt lat="42.75408" lon="1.76709">
        <ele>741</ele>
        <time>2016-09-10T08:28:24Z</time>
      </trkpt>
      <trkpt lat="42.75408" lon="1.76709">
        <ele>741</ele>
        <time>2016-09-10T08:28:25Z</time>
      </trkpt>
      <trkpt lat="42.75408" lon="1.76709">
        <ele>741</ele>
        <time>2016-09-10T08:28:26Z</time>
      </trkpt>
      <trkpt lat="42.75408" lon="1.76709">
        <ele>741</ele>
        <time>2016-09-10T08:28:33Z</time>
      </trkpt>
      <trkpt lat="42.75408" lon="1.76709">
        <ele>741</ele>
        <time>2016-09-10T08:28:52Z</time>
      </trkpt>
      <trkpt lat="42.75404" lon="1.76714">
        <ele>740</ele>
        <time>2016-09-10T08:29:01Z</time>
      </trkpt>
      <trkpt lat="42.75403" lon="1.76715">
        <ele>740</ele>
        <time>2016-09-10T08:29:08Z</time>
      </trkpt>
      <trkpt lat="42.75403" lon="1.76715">
        <ele>740</ele>
        <time>2016-09-10T08:29:19Z</time>
      </trkpt>
      <trkpt lat="42.75411" lon="1.76715">
        <ele>738</ele>
        <time>2016-09-10T08:29:24Z</time>
      </trkpt>
      <trkpt lat="42.75411" lon="1.76715">
        <ele>738</ele>
        <time>2016-09-10T08:29:25Z</time>
      </trkpt>
      <trkpt lat="42.75411" lon="1.76715">
        <ele>738</ele>
        <time>2016-09-10T08:29:26Z</time>
      </trkpt>
      <trkpt lat="42.75411" lon="1.76715">
        <ele>738</ele>
        <time>2016-09-10T08:29:27Z</time>
      </trkpt>
      <trkpt lat="42.75411" lon="1.76715">
        <ele>738</ele>
        <time>2016-09-10T08:29:28Z</time>
      </trkpt>
      <trkpt lat="42.75411" lon="1.76715">
        <ele>738</ele>
        <time>2016-09-10T08:29:29Z</time>
      </trkpt>
      <trkpt lat="42.75411" lon="1.76728">
        <ele>733</ele>
        <time>2016-09-10T08:29:37Z</time>
      </trkpt>
      <trkpt lat="42.75405" lon="1.76733">
        <ele>733</ele>
        <time>2016-09-10T08:29:46Z</time>
      </trkpt>
      <trkpt lat="42.75397" lon="1.76738">
        <ele>732</ele>
        <time>2016-09-10T08:29:53Z</time>
      </trkpt>
      <trkpt lat="42.75395" lon="1.76737">
        <ele>733</ele>
        <time>2016-09-10T08:30:01Z</time>
      </trkpt>
      <trkpt lat="42.75395" lon="1.76737">
        <ele>733</ele>
        <time>2016-09-10T08:30:13Z</time>
      </trkpt>
      <trkpt lat="42.75395" lon="1.76737">
        <ele>733</ele>
        <time>2016-09-10T08:30:25Z</time>
      </trkpt>
      <trkpt lat="42.75395" lon="1.76737">
        <ele>732</ele>
        <time>2016-09-10T08:30:38Z</time>
      </trkpt>
      <trkpt lat="42.75395" lon="1.76737">
        <ele>732</ele>
        <time>2016-09-10T08:30:43Z</time>
      </trkpt>
      <trkpt lat="42.75395" lon="1.76738">
        <ele>732</ele>
        <time>2016-09-10T08:30:50Z</time>
      </trkpt>
      <trkpt lat="42.75391" lon="1.76736">
        <ele>733</ele>
        <time>2016-09-10T08:30:59Z</time>
      </trkpt>
      <trkpt lat="42.75387" lon="1.76739">
        <ele>733</ele>
        <time>2016-09-10T08:32:53Z</time>
      </trkpt>
      <trkpt lat="42.75395" lon="1.7674">
        <ele>731</ele>
        <time>2016-09-10T08:33:03Z</time>
      </trkpt>
      <trkpt lat="42.75399" lon="1.76735">
        <ele>733</ele>
        <time>2016-09-10T08:33:11Z</time>
      </trkpt>
      <trkpt lat="42.75405" lon="1.76736">
        <ele>731</ele>
        <time>2016-09-10T08:33:23Z</time>
      </trkpt>
      <trkpt lat="42.75414" lon="1.76737">
        <ele>729</ele>
        <time>2016-09-10T08:33:35Z</time>
      </trkpt>
      <trkpt lat="42.75416" lon="1.76731">
        <ele>731</ele>
        <time>2016-09-10T08:33:45Z</time>
      </trkpt>
      <trkpt lat="42.75418" lon="1.76726">
        <ele>732</ele>
        <time>2016-09-10T08:33:54Z</time>
      </trkpt>
      <trkpt lat="42.75415" lon="1.7672">
        <ele>735</ele>
        <time>2016-09-10T08:34:00Z</time>
      </trkpt>
      <trkpt lat="42.75414" lon="1.76717">
        <ele>736</ele>
        <time>2016-09-10T08:34:01Z</time>
      </trkpt>
      <trkpt lat="42.75414" lon="1.76714">
        <ele>737</ele>
        <time>2016-09-10T08:34:02Z</time>
      </trkpt>
      <trkpt lat="42.75414" lon="1.76712">
        <ele>738</ele>
        <time>2016-09-10T08:34:03Z</time>
      </trkpt>
      <trkpt lat="42.75414" lon="1.7671">
        <ele>739</ele>
        <time>2016-09-10T08:34:04Z</time>
      </trkpt>
      <trkpt lat="42.75409" lon="1.76704">
        <ele>742</ele>
        <time>2016-09-10T08:34:11Z</time>
      </trkpt>
      <trkpt lat="42.75405" lon="1.76706">
        <ele>743</ele>
        <time>2016-09-10T08:34:17Z</time>
      </trkpt>
      <trkpt lat="42.75405" lon="1.76705">
        <ele>743</ele>
        <time>2016-09-10T08:34:18Z</time>
      </trkpt>
      <trkpt lat="42.75404" lon="1.76705">
        <ele>743</ele>
        <time>2016-09-10T08:34:19Z</time>
      </trkpt>
      <trkpt lat="42.75404" lon="1.76704">
        <ele>744</ele>
        <time>2016-09-10T08:34:20Z</time>
      </trkpt>
      <trkpt lat="42.75403" lon="1.76703">
        <ele>744</ele>
        <time>2016-09-10T08:34:21Z</time>
      </trkpt>
      <trkpt lat="42.75402" lon="1.76703">
        <ele>745</ele>
        <time>2016-09-10T08:34:22Z</time>
      </trkpt>
      <trkpt lat="42.75399" lon="1.76697">
        <ele>748</ele>
        <time>2016-09-10T08:34:28Z</time>
      </trkpt>
      <trkpt lat="42.75399" lon="1.76696">
        <ele>748</ele>
        <time>2016-09-10T08:34:29Z</time>
      </trkpt>
      <trkpt lat="42.754" lon="1.76695">
        <ele>748</ele>
        <time>2016-09-10T08:34:30Z</time>
      </trkpt>
      <trkpt lat="42.754" lon="1.76695">
        <ele>748</ele>
        <time>2016-09-10T08:34:31Z</time>
      </trkpt>
      <trkpt lat="42.75401" lon="1.7669">
        <ele>750</ele>
        <time>2016-09-10T08:34:37Z</time>
      </trkpt>
      <trkpt lat="42.75401" lon="1.76688">
        <ele>751</ele>
        <time>2016-09-10T08:34:38Z</time>
      </trkpt>
      <trkpt lat="42.75402" lon="1.76686">
        <ele>751</ele>
        <time>2016-09-10T08:34:39Z</time>
      </trkpt>
      <trkpt lat="42.75402" lon="1.76685">
        <ele>751</ele>
        <time>2016-09-10T08:34:40Z</time>
      </trkpt>
      <trkpt lat="42.75402" lon="1.76684">
        <ele>752</ele>
        <time>2016-09-10T08:34:41Z</time>
      </trkpt>
      <trkpt lat="42.75405" lon="1.76684">
        <ele>751</ele>
        <time>2016-09-10T08:34:47Z</time>
      </trkpt>
      <trkpt lat="42.75408" lon="1.7668">
        <ele>752</ele>
        <time>2016-09-10T08:34:53Z</time>
      </trkpt>
      <trkpt lat="42.75408" lon="1.7668">
        <ele>752</ele>
        <time>2016-09-10T08:34:54Z</time>
      </trkpt>
      <trkpt lat="42.75408" lon="1.76679">
        <ele>752</ele>
        <time>2016-09-10T08:34:55Z</time>
      </trkpt>
      <trkpt lat="42.75408" lon="1.76679">
        <ele>752</ele>
        <time>2016-09-10T08:34:56Z</time>
      </trkpt>
      <trkpt lat="42.75409" lon="1.76678">
        <ele>752</ele>
        <time>2016-09-10T08:34:57Z</time>
      </trkpt>
      <trkpt lat="42.75412" lon="1.7667">
        <ele>754</ele>
        <time>2016-09-10T08:35:05Z</time>
      </trkpt>
      <trkpt lat="42.75412" lon="1.76669">
        <ele>754</ele>
        <time>2016-09-10T08:35:06Z</time>
      </trkpt>
      <trkpt lat="42.75412" lon="1.76668">
        <ele>754</ele>
        <time>2016-09-10T08:35:07Z</time>
      </trkpt>
      <trkpt lat="42.75413" lon="1.76667">
        <ele>754</ele>
        <time>2016-09-10T08:35:08Z</time>
      </trkpt>
      <trkpt lat="42.75413" lon="1.76666">
        <ele>754</ele>
        <time>2016-09-10T08:35:09Z</time>
      </trkpt>
      <trkpt lat="42.75414" lon="1.7666">
        <ele>756</ele>
        <time>2016-09-10T08:35:16Z</time>
      </trkpt>
      <trkpt lat="42.75414" lon="1.76659">
        <ele>757</ele>
        <time>2016-09-10T08:35:17Z</time>
      </trkpt>
      <trkpt lat="42.75414" lon="1.76658">
        <ele>757</ele>
        <time>2016-09-10T08:35:18Z</time>
      </trkpt>
      <trkpt lat="42.75413" lon="1.76657">
        <ele>758</ele>
        <time>2016-09-10T08:35:19Z</time>
      </trkpt>
      <trkpt lat="42.75413" lon="1.76656">
        <ele>758</ele>
        <time>2016-09-10T08:35:20Z</time>
      </trkpt>
      <trkpt lat="42.75414" lon="1.76654">
        <ele>758</ele>
        <time>2016-09-10T08:35:21Z</time>
      </trkpt>
      <trkpt lat="42.75416" lon="1.76647">
        <ele>760</ele>
        <time>2016-09-10T08:35:26Z</time>
      </trkpt>
      <trkpt lat="42.75417" lon="1.76643">
        <ele>761</ele>
        <time>2016-09-10T08:35:30Z</time>
      </trkpt>
      <trkpt lat="42.75416" lon="1.76642">
        <ele>761</ele>
        <time>2016-09-10T08:35:31Z</time>
      </trkpt>
      <trkpt lat="42.75415" lon="1.76642">
        <ele>762</ele>
        <time>2016-09-10T08:35:32Z</time>
      </trkpt>
      <trkpt lat="42.75415" lon="1.76641">
        <ele>762</ele>
        <time>2016-09-10T08:35:33Z</time>
      </trkpt>
      <trkpt lat="42.75415" lon="1.76641">
        <ele>762</ele>
        <time>2016-09-10T08:35:34Z</time>
      </trkpt>
      <trkpt lat="42.75414" lon="1.76641">
        <ele>763</ele>
        <time>2016-09-10T08:35:36Z</time>
      </trkpt>
      <trkpt lat="42.75414" lon="1.76638">
        <ele>764</ele>
        <time>2016-09-10T08:35:40Z</time>
      </trkpt>
      <trkpt lat="42.75414" lon="1.76636">
        <ele>764</ele>
        <time>2016-09-10T08:35:41Z</time>
      </trkpt>
      <trkpt lat="42.75413" lon="1.76635">
        <ele>765</ele>
        <time>2016-09-10T08:35:42Z</time>
      </trkpt>
      <trkpt lat="42.75413" lon="1.76634">
        <ele>765</ele>
        <time>2016-09-10T08:35:43Z</time>
      </trkpt>
      <trkpt lat="42.75413" lon="1.76632">
        <ele>766</ele>
        <time>2016-09-10T08:35:47Z</time>
      </trkpt>
      <trkpt lat="42.75413" lon="1.76632">
        <ele>766</ele>
        <time>2016-09-10T08:35:50Z</time>
      </trkpt>
      <trkpt lat="42.75413" lon="1.76632">
        <ele>766</ele>
        <time>2016-09-10T08:35:51Z</time>
      </trkpt>
      <trkpt lat="42.75414" lon="1.7663">
        <ele>767</ele>
        <time>2016-09-10T08:35:52Z</time>
      </trkpt>
      <trkpt lat="42.75414" lon="1.76628">
        <ele>767</ele>
        <time>2016-09-10T08:35:53Z</time>
      </trkpt>
      <trkpt lat="42.75415" lon="1.76626">
        <ele>767</ele>
        <time>2016-09-10T08:35:54Z</time>
      </trkpt>
      <trkpt lat="42.75415" lon="1.76624">
        <ele>768</ele>
        <time>2016-09-10T08:35:55Z</time>
      </trkpt>
      <trkpt lat="42.75414" lon="1.76614">
        <ele>772</ele>
        <time>2016-09-10T08:36:03Z</time>
      </trkpt>
      <trkpt lat="42.75414" lon="1.76612">
        <ele>773</ele>
        <time>2016-09-10T08:36:04Z</time>
      </trkpt>
      <trkpt lat="42.75414" lon="1.76611">
        <ele>773</ele>
        <time>2016-09-10T08:36:05Z</time>
      </trkpt>
      <trkpt lat="42.75414" lon="1.76609">
        <ele>774</ele>
        <time>2016-09-10T08:36:06Z</time>
      </trkpt>
      <trkpt lat="42.75415" lon="1.76608">
        <ele>774</ele>
        <time>2016-09-10T08:36:07Z</time>
      </trkpt>
      <trkpt lat="42.75416" lon="1.76605">
        <ele>774</ele>
        <time>2016-09-10T08:36:12Z</time>
      </trkpt>
      <trkpt lat="42.75416" lon="1.76603">
        <ele>775</ele>
        <time>2016-09-10T08:36:15Z</time>
      </trkpt>
      <trkpt lat="42.75416" lon="1.76602">
        <ele>776</ele>
        <time>2016-09-10T08:36:16Z</time>
      </trkpt>
      <trkpt lat="42.75416" lon="1.76602">
        <ele>776</ele>
        <time>2016-09-10T08:36:17Z</time>
      </trkpt>
      <trkpt lat="42.75416" lon="1.76601">
        <ele>776</ele>
        <time>2016-09-10T08:36:18Z</time>
      </trkpt>
      <trkpt lat="42.75415" lon="1.76601">
        <ele>777</ele>
        <time>2016-09-10T08:36:19Z</time>
      </trkpt>
      <trkpt lat="42.75412" lon="1.76597">
        <ele>780</ele>
        <time>2016-09-10T08:36:28Z</time>
      </trkpt>
      <trkpt lat="42.75412" lon="1.76597">
        <ele>780</ele>
        <time>2016-09-10T08:36:29Z</time>
      </trkpt>
      <trkpt lat="42.75412" lon="1.76597">
        <ele>780</ele>
        <time>2016-09-10T08:36:30Z</time>
      </trkpt>
      <trkpt lat="42.75412" lon="1.76597">
        <ele>780</ele>
        <time>2016-09-10T08:36:31Z</time>
      </trkpt>
      <trkpt lat="42.75411" lon="1.76597">
        <ele>780</ele>
        <time>2016-09-10T08:36:39Z</time>
      </trkpt>
      <trkpt lat="42.75411" lon="1.76597">
        <ele>780</ele>
        <time>2016-09-10T08:36:40Z</time>
      </trkpt>
      <trkpt lat="42.7541" lon="1.76598">
        <ele>780</ele>
        <time>2016-09-10T08:36:41Z</time>
      </trkpt>
      <trkpt lat="42.7541" lon="1.76598">
        <ele>780</ele>
        <time>2016-09-10T08:36:42Z</time>
      </trkpt>
      <trkpt lat="42.75411" lon="1.76599">
        <ele>779</ele>
        <time>2016-09-10T08:36:43Z</time>
      </trkpt>
      <trkpt lat="42.7541" lon="1.76602">
        <ele>778</ele>
        <time>2016-09-10T08:36:48Z</time>
      </trkpt>
      <trkpt lat="42.75408" lon="1.76604">
        <ele>778</ele>
        <time>2016-09-10T08:36:52Z</time>
      </trkpt>
      <trkpt lat="42.75408" lon="1.76604">
        <ele>778</ele>
        <time>2016-09-10T08:36:53Z</time>
      </trkpt>
      <trkpt lat="42.75408" lon="1.76605">
        <ele>778</ele>
        <time>2016-09-10T08:36:54Z</time>
      </trkpt>
      <trkpt lat="42.75408" lon="1.76605">
        <ele>778</ele>
        <time>2016-09-10T08:36:55Z</time>
      </trkpt>
      <trkpt lat="42.75408" lon="1.76605">
        <ele>778</ele>
        <time>2016-09-10T08:36:57Z</time>
      </trkpt>
      <trkpt lat="42.75404" lon="1.76607">
        <ele>779</ele>
        <time>2016-09-10T08:37:02Z</time>
      </trkpt>
      <trkpt lat="42.75402" lon="1.76607">
        <ele>779</ele>
        <time>2016-09-10T08:37:03Z</time>
      </trkpt>
      <trkpt lat="42.75401" lon="1.76608">
        <ele>779</ele>
        <time>2016-09-10T08:37:04Z</time>
      </trkpt>
      <trkpt lat="42.754" lon="1.76608">
        <ele>779</ele>
        <time>2016-09-10T08:37:05Z</time>
      </trkpt>
      <trkpt lat="42.75399" lon="1.76608">
        <ele>780</ele>
        <time>2016-09-10T08:37:06Z</time>
      </trkpt>
      <trkpt lat="42.75397" lon="1.76607">
        <ele>781</ele>
        <time>2016-09-10T08:37:11Z</time>
      </trkpt>
      <trkpt lat="42.75397" lon="1.76607">
        <ele>781</ele>
        <time>2016-09-10T08:37:12Z</time>
      </trkpt>
      <trkpt lat="42.75396" lon="1.76606">
        <ele>781</ele>
        <time>2016-09-10T08:37:13Z</time>
      </trkpt>
      <trkpt lat="42.75396" lon="1.76606">
        <ele>781</ele>
        <time>2016-09-10T08:37:14Z</time>
      </trkpt>
      <trkpt lat="42.75396" lon="1.76606">
        <ele>781</ele>
        <time>2016-09-10T08:37:15Z</time>
      </trkpt>
      <trkpt lat="42.75393" lon="1.76604">
        <ele>783</ele>
        <time>2016-09-10T08:37:22Z</time>
      </trkpt>
      <trkpt lat="42.75393" lon="1.76604">
        <ele>783</ele>
        <time>2016-09-10T08:37:23Z</time>
      </trkpt>
      <trkpt lat="42.75393" lon="1.76604">
        <ele>783</ele>
        <time>2016-09-10T08:37:24Z</time>
      </trkpt>
      <trkpt lat="42.75393" lon="1.76604">
        <ele>783</ele>
        <time>2016-09-10T08:37:25Z</time>
      </trkpt>
      <trkpt lat="42.75393" lon="1.76604">
        <ele>783</ele>
        <time>2016-09-10T08:37:26Z</time>
      </trkpt>
      <trkpt lat="42.75389" lon="1.76606">
        <ele>783</ele>
        <time>2016-09-10T08:37:31Z</time>
      </trkpt>
      <trkpt lat="42.75381" lon="1.76612">
        <ele>784</ele>
        <time>2016-09-10T08:37:38Z</time>
      </trkpt>
      <trkpt lat="42.75379" lon="1.76613">
        <ele>784</ele>
        <time>2016-09-10T08:37:39Z</time>
      </trkpt>
      <trkpt lat="42.75378" lon="1.76613">
        <ele>784</ele>
        <time>2016-09-10T08:37:42Z</time>
      </trkpt>
      <trkpt lat="42.75377" lon="1.76614">
        <ele>784</ele>
        <time>2016-09-10T08:37:43Z</time>
      </trkpt>
      <trkpt lat="42.75376" lon="1.76614">
        <ele>784</ele>
        <time>2016-09-10T08:37:44Z</time>
      </trkpt>
      <trkpt lat="42.75376" lon="1.76614">
        <ele>784</ele>
        <time>2016-09-10T08:37:45Z</time>
      </trkpt>
      <trkpt lat="42.75375" lon="1.76614">
        <ele>784</ele>
        <time>2016-09-10T08:37:46Z</time>
      </trkpt>
      <trkpt lat="42.75369" lon="1.76619">
        <ele>785</ele>
        <time>2016-09-10T08:37:53Z</time>
      </trkpt>
      <trkpt lat="42.75363" lon="1.76625">
        <ele>785</ele>
        <time>2016-09-10T08:37:59Z</time>
      </trkpt>
      <trkpt lat="42.75363" lon="1.76625">
        <ele>785</ele>
        <time>2016-09-10T08:38:00Z</time>
      </trkpt>
      <trkpt lat="42.75362" lon="1.76625">
        <ele>785</ele>
        <time>2016-09-10T08:38:01Z</time>
      </trkpt>
      <trkpt lat="42.75362" lon="1.76626">
        <ele>785</ele>
        <time>2016-09-10T08:38:02Z</time>
      </trkpt>
      <trkpt lat="42.75361" lon="1.76626">
        <ele>785</ele>
        <time>2016-09-10T08:38:03Z</time>
      </trkpt>
      <trkpt lat="42.75359" lon="1.76625">
        <ele>786</ele>
        <time>2016-09-10T08:38:07Z</time>
      </trkpt>
      <trkpt lat="42.75353" lon="1.76627">
        <ele>788</ele>
        <time>2016-09-10T08:38:14Z</time>
      </trkpt>
      <trkpt lat="42.75352" lon="1.76627">
        <ele>789</ele>
        <time>2016-09-10T08:38:17Z</time>
      </trkpt>
      <trkpt lat="42.75351" lon="1.76627">
        <ele>789</ele>
        <time>2016-09-10T08:38:18Z</time>
      </trkpt>
      <trkpt lat="42.7535" lon="1.76627">
        <ele>789</ele>
        <time>2016-09-10T08:38:19Z</time>
      </trkpt>
      <trkpt lat="42.7535" lon="1.76627">
        <ele>790</ele>
        <time>2016-09-10T08:38:20Z</time>
      </trkpt>
      <trkpt lat="42.75349" lon="1.76627">
        <ele>790</ele>
        <time>2016-09-10T08:38:21Z</time>
      </trkpt>
      <trkpt lat="42.75348" lon="1.76627">
        <ele>790</ele>
        <time>2016-09-10T08:38:22Z</time>
      </trkpt>
      <trkpt lat="42.75344" lon="1.76629">
        <ele>791</ele>
        <time>2016-09-10T08:38:30Z</time>
      </trkpt>
      <trkpt lat="42.75344" lon="1.7663">
        <ele>791</ele>
        <time>2016-09-10T08:38:31Z</time>
      </trkpt>
      <trkpt lat="42.75344" lon="1.7663">
        <ele>791</ele>
        <time>2016-09-10T08:38:32Z</time>
      </trkpt>
      <trkpt lat="42.75344" lon="1.7663">
        <ele>791</ele>
        <time>2016-09-10T08:38:33Z</time>
      </trkpt>
      <trkpt lat="42.75344" lon="1.7663">
        <ele>791</ele>
        <time>2016-09-10T08:38:34Z</time>
      </trkpt>
      <trkpt lat="42.75342" lon="1.76632">
        <ele>791</ele>
        <time>2016-09-10T08:38:37Z</time>
      </trkpt>
      <trkpt lat="42.75341" lon="1.76633">
        <ele>791</ele>
        <time>2016-09-10T08:38:41Z</time>
      </trkpt>
      <trkpt lat="42.7534" lon="1.76633">
        <ele>791</ele>
        <time>2016-09-10T08:38:42Z</time>
      </trkpt>
      <trkpt lat="42.7534" lon="1.76633">
        <ele>791</ele>
        <time>2016-09-10T08:38:43Z</time>
      </trkpt>
      <trkpt lat="42.75339" lon="1.76633">
        <ele>791</ele>
        <time>2016-09-10T08:38:44Z</time>
      </trkpt>
      <trkpt lat="42.75339" lon="1.76634">
        <ele>792</ele>
        <time>2016-09-10T08:38:45Z</time>
      </trkpt>
      <trkpt lat="42.75332" lon="1.76639">
        <ele>792</ele>
        <time>2016-09-10T08:38:53Z</time>
      </trkpt>
      <trkpt lat="42.75331" lon="1.76639">
        <ele>793</ele>
        <time>2016-09-10T08:38:54Z</time>
      </trkpt>
      <trkpt lat="42.7533" lon="1.7664">
        <ele>793</ele>
        <time>2016-09-10T08:38:55Z</time>
      </trkpt>
      <trkpt lat="42.7533" lon="1.76641">
        <ele>793</ele>
        <time>2016-09-10T08:38:56Z</time>
      </trkpt>
      <trkpt lat="42.75329" lon="1.76642">
        <ele>793</ele>
        <time>2016-09-10T08:38:57Z</time>
      </trkpt>
      <trkpt lat="42.75325" lon="1.76643">
        <ele>794</ele>
        <time>2016-09-10T08:39:01Z</time>
      </trkpt>
      <trkpt lat="42.7532" lon="1.76645">
        <ele>795</ele>
        <time>2016-09-10T08:39:08Z</time>
      </trkpt>
      <trkpt lat="42.75319" lon="1.76646">
        <ele>795</ele>
        <time>2016-09-10T08:39:09Z</time>
      </trkpt>
      <trkpt lat="42.75319" lon="1.76646">
        <ele>795</ele>
        <time>2016-09-10T08:39:10Z</time>
      </trkpt>
      <trkpt lat="42.75319" lon="1.76647">
        <ele>795</ele>
        <time>2016-09-10T08:39:11Z</time>
      </trkpt>
      <trkpt lat="42.75319" lon="1.76647">
        <ele>795</ele>
        <time>2016-09-10T08:39:12Z</time>
      </trkpt>
      <trkpt lat="42.75316" lon="1.76644">
        <ele>797</ele>
        <time>2016-09-10T08:39:19Z</time>
      </trkpt>
      <trkpt lat="42.75312" lon="1.76647">
        <ele>798</ele>
        <time>2016-09-10T08:39:32Z</time>
      </trkpt>
      <trkpt lat="42.75308" lon="1.7665">
        <ele>798</ele>
        <time>2016-09-10T08:39:42Z</time>
      </trkpt>
      <trkpt lat="42.75307" lon="1.7665">
        <ele>799</ele>
        <time>2016-09-10T08:39:43Z</time>
      </trkpt>
      <trkpt lat="42.75307" lon="1.7665">
        <ele>799</ele>
        <time>2016-09-10T08:39:44Z</time>
      </trkpt>
      <trkpt lat="42.75306" lon="1.7665">
        <ele>799</ele>
        <time>2016-09-10T08:39:45Z</time>
      </trkpt>
      <trkpt lat="42.75305" lon="1.76649">
        <ele>800</ele>
        <time>2016-09-10T08:39:46Z</time>
      </trkpt>
      <trkpt lat="42.75304" lon="1.76649">
        <ele>800</ele>
        <time>2016-09-10T08:39:47Z</time>
      </trkpt>
      <trkpt lat="42.75301" lon="1.7665">
        <ele>801</ele>
        <time>2016-09-10T08:39:51Z</time>
      </trkpt>
      <trkpt lat="42.75301" lon="1.7665">
        <ele>802</ele>
        <time>2016-09-10T08:39:53Z</time>
      </trkpt>
      <trkpt lat="42.75301" lon="1.7665">
        <ele>802</ele>
        <time>2016-09-10T08:39:54Z</time>
      </trkpt>
      <trkpt lat="42.753" lon="1.7665">
        <ele>802</ele>
        <time>2016-09-10T08:39:55Z</time>
      </trkpt>
      <trkpt lat="42.753" lon="1.7665">
        <ele>802</ele>
        <time>2016-09-10T08:39:56Z</time>
      </trkpt>
      <trkpt lat="42.75299" lon="1.76651">
        <ele>802</ele>
        <time>2016-09-10T08:39:57Z</time>
      </trkpt>
      <trkpt lat="42.75297" lon="1.76652">
        <ele>802</ele>
        <time>2016-09-10T08:39:59Z</time>
      </trkpt>
      <trkpt lat="42.75294" lon="1.76654">
        <ele>802</ele>
        <time>2016-09-10T08:40:05Z</time>
      </trkpt>
      <trkpt lat="42.75294" lon="1.76654">
        <ele>802</ele>
        <time>2016-09-10T08:40:06Z</time>
      </trkpt>
      <trkpt lat="42.75294" lon="1.76654">
        <ele>803</ele>
        <time>2016-09-10T08:40:07Z</time>
      </trkpt>
      <trkpt lat="42.75293" lon="1.76654">
        <ele>803</ele>
        <time>2016-09-10T08:40:08Z</time>
      </trkpt>
      <trkpt lat="42.75292" lon="1.76654">
        <ele>803</ele>
        <time>2016-09-10T08:40:09Z</time>
      </trkpt>
      <trkpt lat="42.75289" lon="1.76656">
        <ele>804</ele>
        <time>2016-09-10T08:40:15Z</time>
      </trkpt>
      <trkpt lat="42.75287" lon="1.76657">
        <ele>804</ele>
        <time>2016-09-10T08:40:16Z</time>
      </trkpt>
      <trkpt lat="42.75287" lon="1.76657">
        <ele>804</ele>
        <time>2016-09-10T08:40:17Z</time>
      </trkpt>
      <trkpt lat="42.75286" lon="1.76657">
        <ele>804</ele>
        <time>2016-09-10T08:40:18Z</time>
      </trkpt>
      <trkpt lat="42.75284" lon="1.76657">
        <ele>805</ele>
        <time>2016-09-10T08:40:19Z</time>
      </trkpt>
      <trkpt lat="42.75282" lon="1.76657">
        <ele>806</ele>
        <time>2016-09-10T08:40:24Z</time>
      </trkpt>
      <trkpt lat="42.75281" lon="1.76657">
        <ele>807</ele>
        <time>2016-09-10T08:40:26Z</time>
      </trkpt>
      <trkpt lat="42.7528" lon="1.76657">
        <ele>807</ele>
        <time>2016-09-10T08:40:27Z</time>
      </trkpt>
      <trkpt lat="42.75279" lon="1.76658">
        <ele>807</ele>
        <time>2016-09-10T08:40:28Z</time>
      </trkpt>
      <trkpt lat="42.75278" lon="1.7666">
        <ele>807</ele>
        <time>2016-09-10T08:40:29Z</time>
      </trkpt>
      <trkpt lat="42.75277" lon="1.7666">
        <ele>806</ele>
        <time>2016-09-10T08:40:30Z</time>
      </trkpt>
      <trkpt lat="42.75276" lon="1.76663">
        <ele>806</ele>
        <time>2016-09-10T08:40:33Z</time>
      </trkpt>
      <trkpt lat="42.75271" lon="1.76669">
        <ele>804</ele>
        <time>2016-09-10T08:40:41Z</time>
      </trkpt>
      <trkpt lat="42.75271" lon="1.76669">
        <ele>804</ele>
        <time>2016-09-10T08:40:43Z</time>
      </trkpt>
      <trkpt lat="42.75271" lon="1.76669">
        <ele>804</ele>
        <time>2016-09-10T08:40:44Z</time>
      </trkpt>
      <trkpt lat="42.7527" lon="1.7667">
        <ele>804</ele>
        <time>2016-09-10T08:40:45Z</time>
      </trkpt>
      <trkpt lat="42.75269" lon="1.7667">
        <ele>804</ele>
        <time>2016-09-10T08:40:46Z</time>
      </trkpt>
      <trkpt lat="42.75269" lon="1.76671">
        <ele>804</ele>
        <time>2016-09-10T08:40:47Z</time>
      </trkpt>
      <trkpt lat="42.75269" lon="1.76671">
        <ele>804</ele>
        <time>2016-09-10T08:40:48Z</time>
      </trkpt>
      <trkpt lat="42.75263" lon="1.76673">
        <ele>805</ele>
        <time>2016-09-10T08:40:55Z</time>
      </trkpt>
      <trkpt lat="42.75257" lon="1.76674">
        <ele>807</ele>
        <time>2016-09-10T08:41:03Z</time>
      </trkpt>
      <trkpt lat="42.75255" lon="1.76678">
        <ele>806</ele>
        <time>2016-09-10T08:41:08Z</time>
      </trkpt>
      <trkpt lat="42.75253" lon="1.7668">
        <ele>806</ele>
        <time>2016-09-10T08:41:09Z</time>
      </trkpt>
      <trkpt lat="42.75252" lon="1.7668">
        <ele>806</ele>
        <time>2016-09-10T08:41:10Z</time>
      </trkpt>
      <trkpt lat="42.75252" lon="1.76681">
        <ele>805</ele>
        <time>2016-09-10T08:41:11Z</time>
      </trkpt>
      <trkpt lat="42.75251" lon="1.76682">
        <ele>805</ele>
        <time>2016-09-10T08:41:12Z</time>
      </trkpt>
      <trkpt lat="42.75248" lon="1.76681">
        <ele>807</ele>
        <time>2016-09-10T08:41:19Z</time>
      </trkpt>
      <trkpt lat="42.75247" lon="1.76681">
        <ele>808</ele>
        <time>2016-09-10T08:41:20Z</time>
      </trkpt>
      <trkpt lat="42.75247" lon="1.76681">
        <ele>808</ele>
        <time>2016-09-10T08:41:21Z</time>
      </trkpt>
      <trkpt lat="42.75246" lon="1.76681">
        <ele>808</ele>
        <time>2016-09-10T08:41:22Z</time>
      </trkpt>
      <trkpt lat="42.75246" lon="1.76681">
        <ele>808</ele>
        <time>2016-09-10T08:41:23Z</time>
      </trkpt>
      <trkpt lat="42.75245" lon="1.7668">
        <ele>808</ele>
        <time>2016-09-10T08:41:24Z</time>
      </trkpt>
      <trkpt lat="42.75243" lon="1.7668">
        <ele>809</ele>
        <time>2016-09-10T08:41:26Z</time>
      </trkpt>
      <trkpt lat="42.75241" lon="1.76681">
        <ele>810</ele>
        <time>2016-09-10T08:41:30Z</time>
      </trkpt>
      <trkpt lat="42.7524" lon="1.76681">
        <ele>810</ele>
        <time>2016-09-10T08:41:31Z</time>
      </trkpt>
      <trkpt lat="42.75238" lon="1.76682">
        <ele>810</ele>
        <time>2016-09-10T08:41:32Z</time>
      </trkpt>
      <trkpt lat="42.75237" lon="1.76684">
        <ele>810</ele>
        <time>2016-09-10T08:41:33Z</time>
      </trkpt>
      <trkpt lat="42.75236" lon="1.76684">
        <ele>810</ele>
        <time>2016-09-10T08:41:34Z</time>
      </trkpt>
      <trkpt lat="42.75233" lon="1.76687">
        <ele>810</ele>
        <time>2016-09-10T08:41:39Z</time>
      </trkpt>
      <trkpt lat="42.75228" lon="1.76691">
        <ele>809</ele>
        <time>2016-09-10T08:41:43Z</time>
      </trkpt>
      <trkpt lat="42.75227" lon="1.76692">
        <ele>809</ele>
        <time>2016-09-10T08:41:44Z</time>
      </trkpt>
      <trkpt lat="42.75226" lon="1.76693">
        <ele>809</ele>
        <time>2016-09-10T08:41:45Z</time>
      </trkpt>
      <trkpt lat="42.75225" lon="1.76693">
        <ele>809</ele>
        <time>2016-09-10T08:41:46Z</time>
      </trkpt>
      <trkpt lat="42.75225" lon="1.76693">
        <ele>809</ele>
        <time>2016-09-10T08:41:47Z</time>
      </trkpt>
      <trkpt lat="42.75221" lon="1.76695">
        <ele>810</ele>
        <time>2016-09-10T08:41:51Z</time>
      </trkpt>
      <trkpt lat="42.75217" lon="1.76694">
        <ele>812</ele>
        <time>2016-09-10T08:41:55Z</time>
      </trkpt>
      <trkpt lat="42.75217" lon="1.76694">
        <ele>812</ele>
        <time>2016-09-10T08:41:56Z</time>
      </trkpt>
      <trkpt lat="42.75216" lon="1.76694">
        <ele>812</ele>
        <time>2016-09-10T08:41:57Z</time>
      </trkpt>
      <trkpt lat="42.75216" lon="1.76695">
        <ele>812</ele>
        <time>2016-09-10T08:41:58Z</time>
      </trkpt>
      <trkpt lat="42.75216" lon="1.76695">
        <ele>812</ele>
        <time>2016-09-10T08:41:59Z</time>
      </trkpt>
      <trkpt lat="42.75209" lon="1.76698">
        <ele>813</ele>
        <time>2016-09-10T08:42:06Z</time>
      </trkpt>
      <trkpt lat="42.75205" lon="1.767">
        <ele>813</ele>
        <time>2016-09-10T08:42:11Z</time>
      </trkpt>
      <trkpt lat="42.75205" lon="1.767">
        <ele>814</ele>
        <time>2016-09-10T08:42:12Z</time>
      </trkpt>
      <trkpt lat="42.75204" lon="1.767">
        <ele>814</ele>
        <time>2016-09-10T08:42:13Z</time>
      </trkpt>
      <trkpt lat="42.75203" lon="1.767">
        <ele>814</ele>
        <time>2016-09-10T08:42:14Z</time>
      </trkpt>
      <trkpt lat="42.75203" lon="1.767">
        <ele>814</ele>
        <time>2016-09-10T08:42:15Z</time>
      </trkpt>
      <trkpt lat="42.75199" lon="1.76702">
        <ele>815</ele>
        <time>2016-09-10T08:42:21Z</time>
      </trkpt>
      <trkpt lat="42.75198" lon="1.76703">
        <ele>814</ele>
        <time>2016-09-10T08:42:22Z</time>
      </trkpt>
      <trkpt lat="42.75198" lon="1.76704">
        <ele>814</ele>
        <time>2016-09-10T08:42:23Z</time>
      </trkpt>
      <trkpt lat="42.75197" lon="1.76704">
        <ele>814</ele>
        <time>2016-09-10T08:42:24Z</time>
      </trkpt>
      <trkpt lat="42.75197" lon="1.76704">
        <ele>814</ele>
        <time>2016-09-10T08:42:25Z</time>
      </trkpt>
      <trkpt lat="42.75197" lon="1.76704">
        <ele>814</ele>
        <time>2016-09-10T08:42:26Z</time>
      </trkpt>
      <trkpt lat="42.75196" lon="1.76705">
        <ele>814</ele>
        <time>2016-09-10T08:42:28Z</time>
      </trkpt>
      <trkpt lat="42.7519" lon="1.76706">
        <ele>816</ele>
        <time>2016-09-10T08:42:35Z</time>
      </trkpt>
      <trkpt lat="42.75189" lon="1.76707">
        <ele>816</ele>
        <time>2016-09-10T08:42:36Z</time>
      </trkpt>
      <trkpt lat="42.75188" lon="1.76707">
        <ele>816</ele>
        <time>2016-09-10T08:42:37Z</time>
      </trkpt>
      <trkpt lat="42.75187" lon="1.76707">
        <ele>816</ele>
        <time>2016-09-10T08:42:38Z</time>
      </trkpt>
      <trkpt lat="42.75186" lon="1.76707">
        <ele>817</ele>
        <time>2016-09-10T08:42:39Z</time>
      </trkpt>
      <trkpt lat="42.75184" lon="1.76707">
        <ele>817</ele>
        <time>2016-09-10T08:42:42Z</time>
      </trkpt>
      <trkpt lat="42.7518" lon="1.76707">
        <ele>819</ele>
        <time>2016-09-10T08:42:49Z</time>
      </trkpt>
      <trkpt lat="42.75179" lon="1.76707">
        <ele>819</ele>
        <time>2016-09-10T08:42:51Z</time>
      </trkpt>
      <trkpt lat="42.75178" lon="1.76707">
        <ele>820</ele>
        <time>2016-09-10T08:42:52Z</time>
      </trkpt>
      <trkpt lat="42.75177" lon="1.76707">
        <ele>820</ele>
        <time>2016-09-10T08:42:53Z</time>
      </trkpt>
      <trkpt lat="42.75176" lon="1.76707">
        <ele>820</ele>
        <time>2016-09-10T08:42:54Z</time>
      </trkpt>
      <trkpt lat="42.75175" lon="1.76707">
        <ele>820</ele>
        <time>2016-09-10T08:42:55Z</time>
      </trkpt>
      <trkpt lat="42.75173" lon="1.76707">
        <ele>821</ele>
        <time>2016-09-10T08:42:59Z</time>
      </trkpt>
      <trkpt lat="42.75171" lon="1.76706">
        <ele>822</ele>
        <time>2016-09-10T08:43:02Z</time>
      </trkpt>
      <trkpt lat="42.7517" lon="1.76706">
        <ele>822</ele>
        <time>2016-09-10T08:43:03Z</time>
      </trkpt>
      <trkpt lat="42.75169" lon="1.76705">
        <ele>823</ele>
        <time>2016-09-10T08:43:04Z</time>
      </trkpt>
      <trkpt lat="42.75169" lon="1.76704">
        <ele>824</ele>
        <time>2016-09-10T08:43:05Z</time>
      </trkpt>
      <trkpt lat="42.75168" lon="1.76704">
        <ele>824</ele>
        <time>2016-09-10T08:43:06Z</time>
      </trkpt>
      <trkpt lat="42.75161" lon="1.76702">
        <ele>827</ele>
        <time>2016-09-10T08:43:14Z</time>
      </trkpt>
      <trkpt lat="42.75161" lon="1.76702">
        <ele>827</ele>
        <time>2016-09-10T08:43:15Z</time>
      </trkpt>
      <trkpt lat="42.7516" lon="1.76702">
        <ele>828</ele>
        <time>2016-09-10T08:43:16Z</time>
      </trkpt>
      <trkpt lat="42.75159" lon="1.76701">
        <ele>828</ele>
        <time>2016-09-10T08:43:17Z</time>
      </trkpt>
      <trkpt lat="42.75158" lon="1.76701">
        <ele>829</ele>
        <time>2016-09-10T08:43:18Z</time>
      </trkpt>
      <trkpt lat="42.75157" lon="1.76701">
        <ele>829</ele>
        <time>2016-09-10T08:43:19Z</time>
      </trkpt>
      <trkpt lat="42.75156" lon="1.767">
        <ele>830</ele>
        <time>2016-09-10T08:43:22Z</time>
      </trkpt>
      <trkpt lat="42.75156" lon="1.767">
        <ele>830</ele>
        <time>2016-09-10T08:43:26Z</time>
      </trkpt>
      <trkpt lat="42.75155" lon="1.76701">
        <ele>830</ele>
        <time>2016-09-10T08:43:27Z</time>
      </trkpt>
      <trkpt lat="42.75155" lon="1.76701">
        <ele>830</ele>
        <time>2016-09-10T08:43:28Z</time>
      </trkpt>
      <trkpt lat="42.75154" lon="1.76701">
        <ele>830</ele>
        <time>2016-09-10T08:43:29Z</time>
      </trkpt>
      <trkpt lat="42.75153" lon="1.76701">
        <ele>830</ele>
        <time>2016-09-10T08:43:30Z</time>
      </trkpt>
      <trkpt lat="42.75148" lon="1.76699">
        <ele>833</ele>
        <time>2016-09-10T08:43:36Z</time>
      </trkpt>
      <trkpt lat="42.75147" lon="1.76699">
        <ele>833</ele>
        <time>2016-09-10T08:43:37Z</time>
      </trkpt>
      <trkpt lat="42.75147" lon="1.76699">
        <ele>833</ele>
        <time>2016-09-10T08:43:38Z</time>
      </trkpt>
      <trkpt lat="42.75147" lon="1.76699">
        <ele>833</ele>
        <time>2016-09-10T08:43:39Z</time>
      </trkpt>
      <trkpt lat="42.75147" lon="1.76699">
        <ele>833</ele>
        <time>2016-09-10T08:43:40Z</time>
      </trkpt>
      <trkpt lat="42.75145" lon="1.76699">
        <ele>833</ele>
        <time>2016-09-10T08:43:42Z</time>
      </trkpt>
      <trkpt lat="42.75142" lon="1.767">
        <ele>834</ele>
        <time>2016-09-10T08:43:47Z</time>
      </trkpt>
      <trkpt lat="42.75142" lon="1.767">
        <ele>834</ele>
        <time>2016-09-10T08:43:48Z</time>
      </trkpt>
      <trkpt lat="42.75142" lon="1.767">
        <ele>834</ele>
        <time>2016-09-10T08:43:49Z</time>
      </trkpt>
      <trkpt lat="42.75142" lon="1.767">
        <ele>834</ele>
        <time>2016-09-10T08:43:50Z</time>
      </trkpt>
      <trkpt lat="42.75142" lon="1.767">
        <ele>834</ele>
        <time>2016-09-10T08:43:51Z</time>
      </trkpt>
      <trkpt lat="42.75138" lon="1.76699">
        <ele>835</ele>
        <time>2016-09-10T08:43:57Z</time>
      </trkpt>
      <trkpt lat="42.75135" lon="1.76698">
        <ele>836</ele>
        <time>2016-09-10T08:44:02Z</time>
      </trkpt>
      <trkpt lat="42.75134" lon="1.76697">
        <ele>837</ele>
        <time>2016-09-10T08:44:03Z</time>
      </trkpt>
      <trkpt lat="42.75134" lon="1.76697">
        <ele>837</ele>
        <time>2016-09-10T08:44:04Z</time>
      </trkpt>
      <trkpt lat="42.75133" lon="1.76697">
        <ele>837</ele>
        <time>2016-09-10T08:44:05Z</time>
      </trkpt>
      <trkpt lat="42.75133" lon="1.76697">
        <ele>837</ele>
        <time>2016-09-10T08:44:06Z</time>
      </trkpt>
      <trkpt lat="42.7513" lon="1.76696">
        <ele>838</ele>
        <time>2016-09-10T08:44:12Z</time>
      </trkpt>
      <trkpt lat="42.75128" lon="1.76696">
        <ele>838</ele>
        <time>2016-09-10T08:44:17Z</time>
      </trkpt>
      <trkpt lat="42.75126" lon="1.76695">
        <ele>838</ele>
        <time>2016-09-10T08:44:18Z</time>
      </trkpt>
      <trkpt lat="42.75126" lon="1.76695">
        <ele>839</ele>
        <time>2016-09-10T08:44:19Z</time>
      </trkpt>
      <trkpt lat="42.75125" lon="1.76694">
        <ele>839</ele>
        <time>2016-09-10T08:44:20Z</time>
      </trkpt>
      <trkpt lat="42.75118" lon="1.76689">
        <ele>842</ele>
        <time>2016-09-10T08:44:28Z</time>
      </trkpt>
      <trkpt lat="42.75117" lon="1.76689">
        <ele>843</ele>
        <time>2016-09-10T08:44:30Z</time>
      </trkpt>
      <trkpt lat="42.75116" lon="1.76689">
        <ele>843</ele>
        <time>2016-09-10T08:44:31Z</time>
      </trkpt>
      <trkpt lat="42.75116" lon="1.76689">
        <ele>843</ele>
        <time>2016-09-10T08:44:32Z</time>
      </trkpt>
      <trkpt lat="42.75116" lon="1.76689">
        <ele>843</ele>
        <time>2016-09-10T08:44:33Z</time>
      </trkpt>
      <trkpt lat="42.75115" lon="1.76688">
        <ele>843</ele>
        <time>2016-09-10T08:44:34Z</time>
      </trkpt>
      <trkpt lat="42.75112" lon="1.76687">
        <ele>844</ele>
        <time>2016-09-10T08:44:37Z</time>
      </trkpt>
      <trkpt lat="42.75106" lon="1.76687">
        <ele>845</ele>
        <time>2016-09-10T08:44:46Z</time>
      </trkpt>
      <trkpt lat="42.75106" lon="1.76687">
        <ele>845</ele>
        <time>2016-09-10T08:44:47Z</time>
      </trkpt>
      <trkpt lat="42.75105" lon="1.76687">
        <ele>845</ele>
        <time>2016-09-10T08:44:48Z</time>
      </trkpt>
      <trkpt lat="42.75105" lon="1.76687">
        <ele>845</ele>
        <time>2016-09-10T08:44:49Z</time>
      </trkpt>
      <trkpt lat="42.75099" lon="1.76683">
        <ele>847</ele>
        <time>2016-09-10T08:44:56Z</time>
      </trkpt>
      <trkpt lat="42.75099" lon="1.76683">
        <ele>847</ele>
        <time>2016-09-10T08:45:06Z</time>
      </trkpt>
      <trkpt lat="42.75099" lon="1.76683">
        <ele>847</ele>
        <time>2016-09-10T08:45:07Z</time>
      </trkpt>
      <trkpt lat="42.75099" lon="1.76683">
        <ele>847</ele>
        <time>2016-09-10T08:45:08Z</time>
      </trkpt>
      <trkpt lat="42.75099" lon="1.76683">
        <ele>847</ele>
        <time>2016-09-10T08:45:09Z</time>
      </trkpt>
      <trkpt lat="42.75099" lon="1.76683">
        <ele>847</ele>
        <time>2016-09-10T08:45:10Z</time>
      </trkpt>
      <trkpt lat="42.75099" lon="1.76683">
        <ele>847</ele>
        <time>2016-09-10T08:45:20Z</time>
      </trkpt>
      <trkpt lat="42.75094" lon="1.76681">
        <ele>848</ele>
        <time>2016-09-10T08:45:27Z</time>
      </trkpt>
      <trkpt lat="42.75085" lon="1.76682">
        <ele>849</ele>
        <time>2016-09-10T08:45:35Z</time>
      </trkpt>
      <trkpt lat="42.75078" lon="1.7668">
        <ele>850</ele>
        <time>2016-09-10T08:45:42Z</time>
      </trkpt>
      <trkpt lat="42.75077" lon="1.7668">
        <ele>850</ele>
        <time>2016-09-10T08:45:43Z</time>
      </trkpt>
      <trkpt lat="42.75077" lon="1.76679">
        <ele>850</ele>
        <time>2016-09-10T08:45:44Z</time>
      </trkpt>
      <trkpt lat="42.75076" lon="1.7668">
        <ele>850</ele>
        <time>2016-09-10T08:45:45Z</time>
      </trkpt>
      <trkpt lat="42.75076" lon="1.7668">
        <ele>850</ele>
        <time>2016-09-10T08:45:46Z</time>
      </trkpt>
      <trkpt lat="42.75074" lon="1.76679">
        <ele>851</ele>
        <time>2016-09-10T08:45:51Z</time>
      </trkpt>
      <trkpt lat="42.7507" lon="1.76677">
        <ele>852</ele>
        <time>2016-09-10T08:46:01Z</time>
      </trkpt>
      <trkpt lat="42.75065" lon="1.76672">
        <ele>854</ele>
        <time>2016-09-10T08:46:07Z</time>
      </trkpt>
      <trkpt lat="42.75057" lon="1.7667">
        <ele>856</ele>
        <time>2016-09-10T08:46:15Z</time>
      </trkpt>
      <trkpt lat="42.75056" lon="1.7667">
        <ele>856</ele>
        <time>2016-09-10T08:46:16Z</time>
      </trkpt>
      <trkpt lat="42.75055" lon="1.7667">
        <ele>856</ele>
        <time>2016-09-10T08:46:17Z</time>
      </trkpt>
      <trkpt lat="42.75055" lon="1.7667">
        <ele>856</ele>
        <time>2016-09-10T08:46:18Z</time>
      </trkpt>
      <trkpt lat="42.75054" lon="1.76671">
        <ele>856</ele>
        <time>2016-09-10T08:46:19Z</time>
      </trkpt>
      <trkpt lat="42.7505" lon="1.7667">
        <ele>856</ele>
        <time>2016-09-10T08:46:23Z</time>
      </trkpt>
      <trkpt lat="42.75044" lon="1.76667">
        <ele>858</ele>
        <time>2016-09-10T08:46:31Z</time>
      </trkpt>
      <trkpt lat="42.75042" lon="1.76667">
        <ele>858</ele>
        <time>2016-09-10T08:46:35Z</time>
      </trkpt>
      <trkpt lat="42.75041" lon="1.76667">
        <ele>858</ele>
        <time>2016-09-10T08:46:36Z</time>
      </trkpt>
      <trkpt lat="42.7504" lon="1.76668">
        <ele>858</ele>
        <time>2016-09-10T08:46:37Z</time>
      </trkpt>
      <trkpt lat="42.75039" lon="1.76668">
        <ele>858</ele>
        <time>2016-09-10T08:46:38Z</time>
      </trkpt>
      <trkpt lat="42.75038" lon="1.76668">
        <ele>858</ele>
        <time>2016-09-10T08:46:39Z</time>
      </trkpt>
      <trkpt lat="42.75033" lon="1.76668">
        <ele>858</ele>
        <time>2016-09-10T08:46:46Z</time>
      </trkpt>
      <trkpt lat="42.75031" lon="1.76668">
        <ele>858</ele>
        <time>2016-09-10T08:46:47Z</time>
      </trkpt>
      <trkpt lat="42.7503" lon="1.76668">
        <ele>859</ele>
        <time>2016-09-10T08:46:48Z</time>
      </trkpt>
      <trkpt lat="42.75029" lon="1.76669">
        <ele>858</ele>
        <time>2016-09-10T08:46:49Z</time>
      </trkpt>
      <trkpt lat="42.75028" lon="1.76669">
        <ele>858</ele>
        <time>2016-09-10T08:46:50Z</time>
      </trkpt>
      <trkpt lat="42.75026" lon="1.7667">
        <ele>858</ele>
        <time>2016-09-10T08:46:52Z</time>
      </trkpt>
      <trkpt lat="42.75017" lon="1.76669">
        <ele>859</ele>
        <time>2016-09-10T08:47:00Z</time>
      </trkpt>
      <trkpt lat="42.75015" lon="1.76669">
        <ele>859</ele>
        <time>2016-09-10T08:47:03Z</time>
      </trkpt>
      <trkpt lat="42.75014" lon="1.7667">
        <ele>859</ele>
        <time>2016-09-10T08:47:04Z</time>
      </trkpt>
      <trkpt lat="42.75013" lon="1.7667">
        <ele>859</ele>
        <time>2016-09-10T08:47:05Z</time>
      </trkpt>
      <trkpt lat="42.75013" lon="1.7667">
        <ele>859</ele>
        <time>2016-09-10T08:47:06Z</time>
      </trkpt>
      <trkpt lat="42.75012" lon="1.7667">
        <ele>859</ele>
        <time>2016-09-10T08:47:07Z</time>
      </trkpt>
      <trkpt lat="42.75008" lon="1.7667">
        <ele>860</ele>
        <time>2016-09-10T08:47:16Z</time>
      </trkpt>
      <trkpt lat="42.75007" lon="1.76669">
        <ele>860</ele>
        <time>2016-09-10T08:47:17Z</time>
      </trkpt>
      <trkpt lat="42.75007" lon="1.76669">
        <ele>860</ele>
        <time>2016-09-10T08:47:18Z</time>
      </trkpt>
      <trkpt lat="42.75007" lon="1.76669">
        <ele>860</ele>
        <time>2016-09-10T08:47:19Z</time>
      </trkpt>
      <trkpt lat="42.75007" lon="1.76669">
        <ele>860</ele>
        <time>2016-09-10T08:47:20Z</time>
      </trkpt>
      <trkpt lat="42.75007" lon="1.76669">
        <ele>860</ele>
        <time>2016-09-10T08:47:25Z</time>
      </trkpt>
      <trkpt lat="42.75003" lon="1.76665">
        <ele>862</ele>
        <time>2016-09-10T08:47:34Z</time>
      </trkpt>
      <trkpt lat="42.74997" lon="1.7666">
        <ele>865</ele>
        <time>2016-09-10T08:47:40Z</time>
      </trkpt>
      <trkpt lat="42.74996" lon="1.7666">
        <ele>865</ele>
        <time>2016-09-10T08:47:41Z</time>
      </trkpt>
      <trkpt lat="42.74995" lon="1.76659">
        <ele>866</ele>
        <time>2016-09-10T08:47:42Z</time>
      </trkpt>
      <trkpt lat="42.74993" lon="1.76659">
        <ele>866</ele>
        <time>2016-09-10T08:47:43Z</time>
      </trkpt>
      <trkpt lat="42.74988" lon="1.7666">
        <ele>866</ele>
        <time>2016-09-10T08:47:51Z</time>
      </trkpt>
      <trkpt lat="42.74987" lon="1.76659">
        <ele>867</ele>
        <time>2016-09-10T08:47:53Z</time>
      </trkpt>
      <trkpt lat="42.74986" lon="1.76658">
        <ele>867</ele>
        <time>2016-09-10T08:47:54Z</time>
      </trkpt>
      <trkpt lat="42.74986" lon="1.76658">
        <ele>867</ele>
        <time>2016-09-10T08:47:55Z</time>
      </trkpt>
      <trkpt lat="42.74985" lon="1.76657">
        <ele>868</ele>
        <time>2016-09-10T08:47:56Z</time>
      </trkpt>
      <trkpt lat="42.74985" lon="1.76657">
        <ele>868</ele>
        <time>2016-09-10T08:47:57Z</time>
      </trkpt>
      <trkpt lat="42.74985" lon="1.76657">
        <ele>868</ele>
        <time>2016-09-10T08:47:59Z</time>
      </trkpt>
      <trkpt lat="42.7498" lon="1.76658">
        <ele>868</ele>
        <time>2016-09-10T08:48:05Z</time>
      </trkpt>
      <trkpt lat="42.7498" lon="1.76659">
        <ele>868</ele>
        <time>2016-09-10T08:48:06Z</time>
      </trkpt>
      <trkpt lat="42.74979" lon="1.76659">
        <ele>868</ele>
        <time>2016-09-10T08:48:07Z</time>
      </trkpt>
      <trkpt lat="42.74979" lon="1.7666">
        <ele>868</ele>
        <time>2016-09-10T08:48:08Z</time>
      </trkpt>
      <trkpt lat="42.74978" lon="1.76659">
        <ele>868</ele>
        <time>2016-09-10T08:48:09Z</time>
      </trkpt>
      <trkpt lat="42.74975" lon="1.76655">
        <ele>870</ele>
        <time>2016-09-10T08:48:14Z</time>
      </trkpt>
      <trkpt lat="42.74973" lon="1.76654">
        <ele>871</ele>
        <time>2016-09-10T08:48:18Z</time>
      </trkpt>
      <trkpt lat="42.74972" lon="1.76654">
        <ele>871</ele>
        <time>2016-09-10T08:48:19Z</time>
      </trkpt>
      <trkpt lat="42.74972" lon="1.76654">
        <ele>871</ele>
        <time>2016-09-10T08:48:20Z</time>
      </trkpt>
      <trkpt lat="42.74972" lon="1.76654">
        <ele>871</ele>
        <time>2016-09-10T08:48:21Z</time>
      </trkpt>
      <trkpt lat="42.74972" lon="1.76654">
        <ele>871</ele>
        <time>2016-09-10T08:48:22Z</time>
      </trkpt>
      <trkpt lat="42.74969" lon="1.76654">
        <ele>871</ele>
        <time>2016-09-10T08:48:27Z</time>
      </trkpt>
      <trkpt lat="42.74968" lon="1.76655">
        <ele>871</ele>
        <time>2016-09-10T08:48:33Z</time>
      </trkpt>
      <trkpt lat="42.74967" lon="1.76655">
        <ele>871</ele>
        <time>2016-09-10T08:48:35Z</time>
      </trkpt>
      <trkpt lat="42.74967" lon="1.76655">
        <ele>871</ele>
        <time>2016-09-10T08:48:36Z</time>
      </trkpt>
      <trkpt lat="42.74967" lon="1.76655">
        <ele>871</ele>
        <time>2016-09-10T08:48:37Z</time>
      </trkpt>
      <trkpt lat="42.74967" lon="1.76655">
        <ele>871</ele>
        <time>2016-09-10T08:48:38Z</time>
      </trkpt>
      <trkpt lat="42.74967" lon="1.76655">
        <ele>871</ele>
        <time>2016-09-10T08:48:39Z</time>
      </trkpt>
      <trkpt lat="42.74967" lon="1.76655">
        <ele>871</ele>
        <time>2016-09-10T08:48:40Z</time>
      </trkpt>
      <trkpt lat="42.74963" lon="1.76655">
        <ele>872</ele>
        <time>2016-09-10T08:48:50Z</time>
      </trkpt>
      <trkpt lat="42.74958" lon="1.76657">
        <ele>871</ele>
        <time>2016-09-10T08:48:58Z</time>
      </trkpt>
      <trkpt lat="42.74958" lon="1.76657">
        <ele>871</ele>
        <time>2016-09-10T08:48:59Z</time>
      </trkpt>
      <trkpt lat="42.74958" lon="1.76657">
        <ele>871</ele>
        <time>2016-09-10T08:49:00Z</time>
      </trkpt>
      <trkpt lat="42.74958" lon="1.76657">
        <ele>871</ele>
        <time>2016-09-10T08:49:01Z</time>
      </trkpt>
      <trkpt lat="42.74958" lon="1.76657">
        <ele>871</ele>
        <time>2016-09-10T08:49:02Z</time>
      </trkpt>
      <trkpt lat="42.74955" lon="1.76657">
        <ele>872</ele>
        <time>2016-09-10T08:49:07Z</time>
      </trkpt>
      <trkpt lat="42.74954" lon="1.76657">
        <ele>872</ele>
        <time>2016-09-10T08:49:14Z</time>
      </trkpt>
      <trkpt lat="42.74954" lon="1.76657">
        <ele>872</ele>
        <time>2016-09-10T08:49:18Z</time>
      </trkpt>
      <trkpt lat="42.74952" lon="1.76656">
        <ele>872</ele>
        <time>2016-09-10T08:49:19Z</time>
      </trkpt>
      <trkpt lat="42.74951" lon="1.76656">
        <ele>873</ele>
        <time>2016-09-10T08:49:20Z</time>
      </trkpt>
      <trkpt lat="42.74949" lon="1.76656">
        <ele>873</ele>
        <time>2016-09-10T08:49:21Z</time>
      </trkpt>
      <trkpt lat="42.74949" lon="1.76655">
        <ele>873</ele>
        <time>2016-09-10T08:49:22Z</time>
      </trkpt>
      <trkpt lat="42.74948" lon="1.76655">
        <ele>874</ele>
        <time>2016-09-10T08:49:23Z</time>
      </trkpt>
      <trkpt lat="42.74948" lon="1.76655">
        <ele>874</ele>
        <time>2016-09-10T08:49:30Z</time>
      </trkpt>
      <trkpt lat="42.74946" lon="1.76654">
        <ele>874</ele>
        <time>2016-09-10T08:49:34Z</time>
      </trkpt>
      <trkpt lat="42.74945" lon="1.76653">
        <ele>875</ele>
        <time>2016-09-10T08:49:35Z</time>
      </trkpt>
      <trkpt lat="42.74944" lon="1.76653">
        <ele>875</ele>
        <time>2016-09-10T08:49:36Z</time>
      </trkpt>
      <trkpt lat="42.74944" lon="1.76653">
        <ele>875</ele>
        <time>2016-09-10T08:49:37Z</time>
      </trkpt>
      <trkpt lat="42.74944" lon="1.76653">
        <ele>875</ele>
        <time>2016-09-10T08:49:38Z</time>
      </trkpt>
      <trkpt lat="42.74937" lon="1.76653">
        <ele>876</ele>
        <time>2016-09-10T08:49:46Z</time>
      </trkpt>
      <trkpt lat="42.74934" lon="1.76652">
        <ele>877</ele>
        <time>2016-09-10T08:49:53Z</time>
      </trkpt>
      <trkpt lat="42.74934" lon="1.76652">
        <ele>877</ele>
        <time>2016-09-10T08:49:54Z</time>
      </trkpt>
      <trkpt lat="42.74934" lon="1.76652">
        <ele>877</ele>
        <time>2016-09-10T08:49:55Z</time>
      </trkpt>
      <trkpt lat="42.74934" lon="1.76653">
        <ele>877</ele>
        <time>2016-09-10T08:49:56Z</time>
      </trkpt>
      <trkpt lat="42.74934" lon="1.76653">
        <ele>876</ele>
        <time>2016-09-10T08:49:57Z</time>
      </trkpt>
      <trkpt lat="42.74933" lon="1.76654">
        <ele>876</ele>
        <time>2016-09-10T08:49:58Z</time>
      </trkpt>
      <trkpt lat="42.74929" lon="1.76655">
        <ele>876</ele>
        <time>2016-09-10T08:50:05Z</time>
      </trkpt>
      <trkpt lat="42.74924" lon="1.76653">
        <ele>878</ele>
        <time>2016-09-10T08:50:13Z</time>
      </trkpt>
      <trkpt lat="42.74923" lon="1.76653">
        <ele>878</ele>
        <time>2016-09-10T08:50:14Z</time>
      </trkpt>
      <trkpt lat="42.74922" lon="1.76654">
        <ele>878</ele>
        <time>2016-09-10T08:50:15Z</time>
      </trkpt>
      <trkpt lat="42.74922" lon="1.76654">
        <ele>878</ele>
        <time>2016-09-10T08:50:16Z</time>
      </trkpt>
      <trkpt lat="42.74922" lon="1.76654">
        <ele>877</ele>
        <time>2016-09-10T08:50:17Z</time>
      </trkpt>
      <trkpt lat="42.74922" lon="1.76655">
        <ele>877</ele>
        <time>2016-09-10T08:50:18Z</time>
      </trkpt>
      <trkpt lat="42.74922" lon="1.76655">
        <ele>877</ele>
        <time>2016-09-10T08:50:22Z</time>
      </trkpt>
      <trkpt lat="42.74921" lon="1.76655">
        <ele>877</ele>
        <time>2016-09-10T08:50:30Z</time>
      </trkpt>
      <trkpt lat="42.7492" lon="1.76656">
        <ele>877</ele>
        <time>2016-09-10T08:50:38Z</time>
      </trkpt>
      <trkpt lat="42.7492" lon="1.76656">
        <ele>877</ele>
        <time>2016-09-10T08:50:47Z</time>
      </trkpt>
      <trkpt lat="42.74918" lon="1.76656">
        <ele>877</ele>
        <time>2016-09-10T08:50:52Z</time>
      </trkpt>
      <trkpt lat="42.74918" lon="1.76656">
        <ele>877</ele>
        <time>2016-09-10T08:50:53Z</time>
      </trkpt>
      <trkpt lat="42.74917" lon="1.76655">
        <ele>877</ele>
        <time>2016-09-10T08:50:54Z</time>
      </trkpt>
      <trkpt lat="42.74916" lon="1.76655">
        <ele>878</ele>
        <time>2016-09-10T08:50:55Z</time>
      </trkpt>
      <trkpt lat="42.74914" lon="1.76655">
        <ele>878</ele>
        <time>2016-09-10T08:50:56Z</time>
      </trkpt>
      <trkpt lat="42.74911" lon="1.76655">
        <ele>878</ele>
        <time>2016-09-10T08:51:02Z</time>
      </trkpt>
      <trkpt lat="42.74907" lon="1.76656">
        <ele>879</ele>
        <time>2016-09-10T08:51:07Z</time>
      </trkpt>
      <trkpt lat="42.74902" lon="1.76653">
        <ele>881</ele>
        <time>2016-09-10T08:51:15Z</time>
      </trkpt>
      <trkpt lat="42.74901" lon="1.76653">
        <ele>881</ele>
        <time>2016-09-10T08:51:20Z</time>
      </trkpt>
      <trkpt lat="42.74901" lon="1.76653">
        <ele>881</ele>
        <time>2016-09-10T08:51:21Z</time>
      </trkpt>
      <trkpt lat="42.74901" lon="1.76652">
        <ele>881</ele>
        <time>2016-09-10T08:51:22Z</time>
      </trkpt>
      <trkpt lat="42.74901" lon="1.76652">
        <ele>881</ele>
        <time>2016-09-10T08:51:23Z</time>
      </trkpt>
      <trkpt lat="42.74901" lon="1.76652">
        <ele>881</ele>
        <time>2016-09-10T08:51:24Z</time>
      </trkpt>
      <trkpt lat="42.74895" lon="1.76653">
        <ele>882</ele>
        <time>2016-09-10T08:51:32Z</time>
      </trkpt>
      <trkpt lat="42.74891" lon="1.76651">
        <ele>884</ele>
        <time>2016-09-10T08:51:38Z</time>
      </trkpt>
      <trkpt lat="42.74891" lon="1.76651">
        <ele>884</ele>
        <time>2016-09-10T08:51:39Z</time>
      </trkpt>
      <trkpt lat="42.74891" lon="1.76651">
        <ele>884</ele>
        <time>2016-09-10T08:51:40Z</time>
      </trkpt>
      <trkpt lat="42.74891" lon="1.76651">
        <ele>884</ele>
        <time>2016-09-10T08:51:41Z</time>
      </trkpt>
      <trkpt lat="42.74891" lon="1.76651">
        <ele>884</ele>
        <time>2016-09-10T08:51:42Z</time>
      </trkpt>
      <trkpt lat="42.74887" lon="1.76653">
        <ele>883</ele>
        <time>2016-09-10T08:51:48Z</time>
      </trkpt>
      <trkpt lat="42.74881" lon="1.76652">
        <ele>885</ele>
        <time>2016-09-10T08:51:56Z</time>
      </trkpt>
      <trkpt lat="42.74879" lon="1.76653">
        <ele>884</ele>
        <time>2016-09-10T08:52:01Z</time>
      </trkpt>
      <trkpt lat="42.74878" lon="1.76653">
        <ele>885</ele>
        <time>2016-09-10T08:52:03Z</time>
      </trkpt>
      <trkpt lat="42.74878" lon="1.76653">
        <ele>885</ele>
        <time>2016-09-10T08:52:04Z</time>
      </trkpt>
      <trkpt lat="42.74878" lon="1.76653">
        <ele>885</ele>
        <time>2016-09-10T08:52:05Z</time>
      </trkpt>
      <trkpt lat="42.74877" lon="1.76652">
        <ele>885</ele>
        <time>2016-09-10T08:52:06Z</time>
      </trkpt>
      <trkpt lat="42.74876" lon="1.76651">
        <ele>886</ele>
        <time>2016-09-10T08:52:07Z</time>
      </trkpt>
      <trkpt lat="42.74875" lon="1.7665">
        <ele>886</ele>
        <time>2016-09-10T08:52:08Z</time>
      </trkpt>
      <trkpt lat="42.74873" lon="1.7665">
        <ele>887</ele>
        <time>2016-09-10T08:52:14Z</time>
      </trkpt>
      <trkpt lat="42.74869" lon="1.76648">
        <ele>888</ele>
        <time>2016-09-10T08:52:19Z</time>
      </trkpt>
      <trkpt lat="42.74867" lon="1.76648">
        <ele>888</ele>
        <time>2016-09-10T08:52:20Z</time>
      </trkpt>
      <trkpt lat="42.74867" lon="1.76647">
        <ele>889</ele>
        <time>2016-09-10T08:52:21Z</time>
      </trkpt>
      <trkpt lat="42.74866" lon="1.76647">
        <ele>889</ele>
        <time>2016-09-10T08:52:22Z</time>
      </trkpt>
      <trkpt lat="42.74865" lon="1.76646">
        <ele>889</ele>
        <time>2016-09-10T08:52:23Z</time>
      </trkpt>
      <trkpt lat="42.74863" lon="1.7664">
        <ele>892</ele>
        <time>2016-09-10T08:52:31Z</time>
      </trkpt>
      <trkpt lat="42.74861" lon="1.7664">
        <ele>893</ele>
        <time>2016-09-10T08:52:37Z</time>
      </trkpt>
      <trkpt lat="42.74861" lon="1.7664">
        <ele>893</ele>
        <time>2016-09-10T08:52:38Z</time>
      </trkpt>
      <trkpt lat="42.74861" lon="1.7664">
        <ele>893</ele>
        <time>2016-09-10T08:52:39Z</time>
      </trkpt>
      <trkpt lat="42.74861" lon="1.7664">
        <ele>893</ele>
        <time>2016-09-10T08:52:40Z</time>
      </trkpt>
      <trkpt lat="42.74861" lon="1.7664">
        <ele>893</ele>
        <time>2016-09-10T08:52:41Z</time>
      </trkpt>
      <trkpt lat="42.74855" lon="1.76635">
        <ele>895</ele>
        <time>2016-09-10T08:52:50Z</time>
      </trkpt>
      <trkpt lat="42.74853" lon="1.76635">
        <ele>896</ele>
        <time>2016-09-10T08:52:53Z</time>
      </trkpt>
      <trkpt lat="42.74853" lon="1.76635">
        <ele>896</ele>
        <time>2016-09-10T08:52:54Z</time>
      </trkpt>
      <trkpt lat="42.74853" lon="1.76635">
        <ele>896</ele>
        <time>2016-09-10T08:52:55Z</time>
      </trkpt>
      <trkpt lat="42.74853" lon="1.76635">
        <ele>896</ele>
        <time>2016-09-10T08:52:56Z</time>
      </trkpt>
      <trkpt lat="42.74853" lon="1.76635">
        <ele>896</ele>
        <time>2016-09-10T08:52:57Z</time>
      </trkpt>
      <trkpt lat="42.74853" lon="1.76635">
        <ele>896</ele>
        <time>2016-09-10T08:53:00Z</time>
      </trkpt>
      <trkpt lat="42.74851" lon="1.76633">
        <ele>897</ele>
        <time>2016-09-10T08:53:08Z</time>
      </trkpt>
      <trkpt lat="42.74851" lon="1.76631">
        <ele>897</ele>
        <time>2016-09-10T08:53:09Z</time>
      </trkpt>
      <trkpt lat="42.74851" lon="1.76631">
        <ele>897</ele>
        <time>2016-09-10T08:53:10Z</time>
      </trkpt>
      <trkpt lat="42.7485" lon="1.7663">
        <ele>898</ele>
        <time>2016-09-10T08:53:11Z</time>
      </trkpt>
      <trkpt lat="42.74849" lon="1.76628">
        <ele>899</ele>
        <time>2016-09-10T08:53:12Z</time>
      </trkpt>
      <trkpt lat="42.74847" lon="1.76623">
        <ele>901</ele>
        <time>2016-09-10T08:53:18Z</time>
      </trkpt>
      <trkpt lat="42.74838" lon="1.7662">
        <ele>903</ele>
        <time>2016-09-10T08:53:27Z</time>
      </trkpt>
      <trkpt lat="42.74837" lon="1.7662">
        <ele>903</ele>
        <time>2016-09-10T08:53:30Z</time>
      </trkpt>
      <trkpt lat="42.74836" lon="1.7662">
        <ele>903</ele>
        <time>2016-09-10T08:53:31Z</time>
      </trkpt>
      <trkpt lat="42.74835" lon="1.7662">
        <ele>903</ele>
        <time>2016-09-10T08:53:32Z</time>
      </trkpt>
      <trkpt lat="42.74834" lon="1.7662">
        <ele>903</ele>
        <time>2016-09-10T08:53:33Z</time>
      </trkpt>
      <trkpt lat="42.74832" lon="1.76619">
        <ele>904</ele>
        <time>2016-09-10T08:53:37Z</time>
      </trkpt>
      <trkpt lat="42.74832" lon="1.76615">
        <ele>905</ele>
        <time>2016-09-10T08:53:48Z</time>
      </trkpt>
      <trkpt lat="42.74832" lon="1.76615">
        <ele>905</ele>
        <time>2016-09-10T08:54:00Z</time>
      </trkpt>
      <trkpt lat="42.74832" lon="1.76615">
        <ele>905</ele>
        <time>2016-09-10T08:54:11Z</time>
      </trkpt>
      <trkpt lat="42.74833" lon="1.76615">
        <ele>905</ele>
        <time>2016-09-10T08:54:23Z</time>
      </trkpt>
      <trkpt lat="42.74833" lon="1.76615">
        <ele>905</ele>
        <time>2016-09-10T08:54:32Z</time>
      </trkpt>
      <trkpt lat="42.74833" lon="1.76615">
        <ele>905</ele>
        <time>2016-09-10T08:54:43Z</time>
      </trkpt>
      <trkpt lat="42.74833" lon="1.76615">
        <ele>905</ele>
        <time>2016-09-10T08:54:56Z</time>
      </trkpt>
      <trkpt lat="42.74833" lon="1.76615">
        <ele>905</ele>
        <time>2016-09-10T08:55:08Z</time>
      </trkpt>
      <trkpt lat="42.74833" lon="1.76615">
        <ele>905</ele>
        <time>2016-09-10T08:55:21Z</time>
      </trkpt>
      <trkpt lat="42.74833" lon="1.76615">
        <ele>905</ele>
        <time>2016-09-10T08:55:32Z</time>
      </trkpt>
      <trkpt lat="42.74835" lon="1.76616">
        <ele>904</ele>
        <time>2016-09-10T08:55:44Z</time>
      </trkpt>
      <trkpt lat="42.74836" lon="1.76616">
        <ele>904</ele>
        <time>2016-09-10T08:55:52Z</time>
      </trkpt>
      <trkpt lat="42.74836" lon="1.76616">
        <ele>904</ele>
        <time>2016-09-10T08:56:07Z</time>
      </trkpt>
      <trkpt lat="42.74836" lon="1.76616">
        <ele>904</ele>
        <time>2016-09-10T08:56:20Z</time>
      </trkpt>
      <trkpt lat="42.74836" lon="1.76617">
        <ele>904</ele>
        <time>2016-09-10T08:56:34Z</time>
      </trkpt>
      <trkpt lat="42.74836" lon="1.76617">
        <ele>904</ele>
        <time>2016-09-10T08:56:53Z</time>
      </trkpt>
      <trkpt lat="42.74836" lon="1.76617">
        <ele>904</ele>
        <time>2016-09-10T08:57:08Z</time>
      </trkpt>
      <trkpt lat="42.74837" lon="1.76617">
        <ele>904</ele>
        <time>2016-09-10T08:57:23Z</time>
      </trkpt>
      <trkpt lat="42.74837" lon="1.76617">
        <ele>904</ele>
        <time>2016-09-10T08:57:32Z</time>
      </trkpt>
      <trkpt lat="42.74837" lon="1.76617">
        <ele>904</ele>
        <time>2016-09-10T08:57:42Z</time>
      </trkpt>
      <trkpt lat="42.74838" lon="1.76618">
        <ele>904</ele>
        <time>2016-09-10T08:57:50Z</time>
      </trkpt>
      <trkpt lat="42.74838" lon="1.76618">
        <ele>904</ele>
        <time>2016-09-10T08:58:01Z</time>
      </trkpt>
      <trkpt lat="42.74838" lon="1.76618">
        <ele>904</ele>
        <time>2016-09-10T08:58:14Z</time>
      </trkpt>
      <trkpt lat="42.74838" lon="1.76618">
        <ele>903</ele>
        <time>2016-09-10T08:58:31Z</time>
      </trkpt>
      <trkpt lat="42.74838" lon="1.76618">
        <ele>903</ele>
        <time>2016-09-10T08:58:44Z</time>
      </trkpt>
      <trkpt lat="42.74838" lon="1.76618">
        <ele>903</ele>
        <time>2016-09-10T08:58:58Z</time>
      </trkpt>
      <trkpt lat="42.74839" lon="1.7662">
        <ele>903</ele>
        <time>2016-09-10T08:59:06Z</time>
      </trkpt>
      <trkpt lat="42.74841" lon="1.7662">
        <ele>902</ele>
        <time>2016-09-10T08:59:12Z</time>
      </trkpt>
      <trkpt lat="42.74841" lon="1.7662">
        <ele>902</ele>
        <time>2016-09-10T08:59:23Z</time>
      </trkpt>
      <trkpt lat="42.74841" lon="1.7662">
        <ele>902</ele>
        <time>2016-09-10T08:59:35Z</time>
      </trkpt>
      <trkpt lat="42.74839" lon="1.7662">
        <ele>903</ele>
        <time>2016-09-10T08:59:46Z</time>
      </trkpt>
      <trkpt lat="42.74839" lon="1.7662">
        <ele>903</ele>
        <time>2016-09-10T09:00:00Z</time>
      </trkpt>
      <trkpt lat="42.74839" lon="1.76621">
        <ele>902</ele>
        <time>2016-09-10T09:00:12Z</time>
      </trkpt>
      <trkpt lat="42.74839" lon="1.76622">
        <ele>902</ele>
        <time>2016-09-10T09:00:21Z</time>
      </trkpt>
      <trkpt lat="42.7484" lon="1.7662">
        <ele>903</ele>
        <time>2016-09-10T09:00:30Z</time>
      </trkpt>
      <trkpt lat="42.74838" lon="1.76617">
        <ele>904</ele>
        <time>2016-09-10T09:00:40Z</time>
      </trkpt>
      <trkpt lat="42.74837" lon="1.76608">
        <ele>907</ele>
        <time>2016-09-10T09:00:47Z</time>
      </trkpt>
      <trkpt lat="42.74837" lon="1.76607">
        <ele>908</ele>
        <time>2016-09-10T09:00:48Z</time>
      </trkpt>
      <trkpt lat="42.74836" lon="1.76606">
        <ele>908</ele>
        <time>2016-09-10T09:00:49Z</time>
      </trkpt>
      <trkpt lat="42.74836" lon="1.76606">
        <ele>908</ele>
        <time>2016-09-10T09:00:50Z</time>
      </trkpt>
      <trkpt lat="42.74836" lon="1.76606">
        <ele>908</ele>
        <time>2016-09-10T09:00:56Z</time>
      </trkpt>
      <trkpt lat="42.74836" lon="1.76606">
        <ele>908</ele>
        <time>2016-09-10T09:01:00Z</time>
      </trkpt>
      <trkpt lat="42.74836" lon="1.76606">
        <ele>908</ele>
        <time>2016-09-10T09:01:01Z</time>
      </trkpt>
      <trkpt lat="42.74836" lon="1.76606">
        <ele>908</ele>
        <time>2016-09-10T09:01:02Z</time>
      </trkpt>
      <trkpt lat="42.74836" lon="1.76606">
        <ele>908</ele>
        <time>2016-09-10T09:01:03Z</time>
      </trkpt>
      <trkpt lat="42.74836" lon="1.76606">
        <ele>908</ele>
        <time>2016-09-10T09:01:04Z</time>
      </trkpt>
      <trkpt lat="42.74836" lon="1.76606">
        <ele>908</ele>
        <time>2016-09-10T09:01:06Z</time>
      </trkpt>
      <trkpt lat="42.74836" lon="1.76606">
        <ele>908</ele>
        <time>2016-09-10T09:01:17Z</time>
      </trkpt>
      <trkpt lat="42.74836" lon="1.76606">
        <ele>908</ele>
        <time>2016-09-10T09:01:21Z</time>
      </trkpt>
      <trkpt lat="42.74836" lon="1.76606">
        <ele>908</ele>
        <time>2016-09-10T09:01:22Z</time>
      </trkpt>
      <trkpt lat="42.74836" lon="1.76606">
        <ele>908</ele>
        <time>2016-09-10T09:01:23Z</time>
      </trkpt>
      <trkpt lat="42.74836" lon="1.76606">
        <ele>908</ele>
        <time>2016-09-10T09:01:24Z</time>
      </trkpt>
      <trkpt lat="42.74836" lon="1.76606">
        <ele>908</ele>
        <time>2016-09-10T09:01:25Z</time>
      </trkpt>
      <trkpt lat="42.74835" lon="1.76605">
        <ele>909</ele>
        <time>2016-09-10T09:01:26Z</time>
      </trkpt>
      <trkpt lat="42.74824" lon="1.76598">
        <ele>912</ele>
        <time>2016-09-10T09:01:36Z</time>
      </trkpt>
      <trkpt lat="42.74824" lon="1.76598">
        <ele>912</ele>
        <time>2016-09-10T09:01:37Z</time>
      </trkpt>
      <trkpt lat="42.74824" lon="1.76598">
        <ele>912</ele>
        <time>2016-09-10T09:01:38Z</time>
      </trkpt>
      <trkpt lat="42.74824" lon="1.76598">
        <ele>912</ele>
        <time>2016-09-10T09:01:39Z</time>
      </trkpt>
      <trkpt lat="42.74821" lon="1.76596">
        <ele>913</ele>
        <time>2016-09-10T09:01:46Z</time>
      </trkpt>
      <trkpt lat="42.74818" lon="1.76596">
        <ele>913</ele>
        <time>2016-09-10T09:01:52Z</time>
      </trkpt>
      <trkpt lat="42.74817" lon="1.76597">
        <ele>913</ele>
        <time>2016-09-10T09:01:53Z</time>
      </trkpt>
      <trkpt lat="42.74817" lon="1.76597">
        <ele>912</ele>
        <time>2016-09-10T09:01:54Z</time>
      </trkpt>
      <trkpt lat="42.74817" lon="1.76597">
        <ele>912</ele>
        <time>2016-09-10T09:01:55Z</time>
      </trkpt>
      <trkpt lat="42.74817" lon="1.76597">
        <ele>912</ele>
        <time>2016-09-10T09:01:56Z</time>
      </trkpt>
      <trkpt lat="42.74817" lon="1.76597">
        <ele>912</ele>
        <time>2016-09-10T09:01:57Z</time>
      </trkpt>
      <trkpt lat="42.74819" lon="1.76591">
        <ele>915</ele>
        <time>2016-09-10T09:02:04Z</time>
      </trkpt>
      <trkpt lat="42.74822" lon="1.76587">
        <ele>916</ele>
        <time>2016-09-10T09:02:12Z</time>
      </trkpt>
      <trkpt lat="42.74822" lon="1.76587">
        <ele>916</ele>
        <time>2016-09-10T09:02:13Z</time>
      </trkpt>
      <trkpt lat="42.74822" lon="1.76587">
        <ele>916</ele>
        <time>2016-09-10T09:02:14Z</time>
      </trkpt>
      <trkpt lat="42.74822" lon="1.76587">
        <ele>916</ele>
        <time>2016-09-10T09:02:15Z</time>
      </trkpt>
      <trkpt lat="42.74822" lon="1.76587">
        <ele>916</ele>
        <time>2016-09-10T09:02:16Z</time>
      </trkpt>
      <trkpt lat="42.74822" lon="1.76587">
        <ele>916</ele>
        <time>2016-09-10T09:02:17Z</time>
      </trkpt>
      <trkpt lat="42.74822" lon="1.76587">
        <ele>916</ele>
        <time>2016-09-10T09:02:24Z</time>
      </trkpt>
      <trkpt lat="42.74822" lon="1.76587">
        <ele>916</ele>
        <time>2016-09-10T09:02:38Z</time>
      </trkpt>
      <trkpt lat="42.74822" lon="1.76587">
        <ele>916</ele>
        <time>2016-09-10T09:02:54Z</time>
      </trkpt>
      <trkpt lat="42.74822" lon="1.76587">
        <ele>916</ele>
        <time>2016-09-10T09:03:07Z</time>
      </trkpt>
      <trkpt lat="42.74822" lon="1.76587">
        <ele>916</ele>
        <time>2016-09-10T09:03:16Z</time>
      </trkpt>
      <trkpt lat="42.74822" lon="1.76587">
        <ele>916</ele>
        <time>2016-09-10T09:03:28Z</time>
      </trkpt>
      <trkpt lat="42.74822" lon="1.76587">
        <ele>916</ele>
        <time>2016-09-10T09:03:43Z</time>
      </trkpt>
      <trkpt lat="42.74822" lon="1.76588">
        <ele>916</ele>
        <time>2016-09-10T09:03:54Z</time>
      </trkpt>
      <trkpt lat="42.74833" lon="1.76593">
        <ele>913</ele>
        <time>2016-09-10T09:04:07Z</time>
      </trkpt>
      <trkpt lat="42.74833" lon="1.76593">
        <ele>913</ele>
        <time>2016-09-10T09:04:17Z</time>
      </trkpt>
      <trkpt lat="42.74832" lon="1.76591">
        <ele>914</ele>
        <time>2016-09-10T09:04:22Z</time>
      </trkpt>
      <trkpt lat="42.74832" lon="1.76591">
        <ele>914</ele>
        <time>2016-09-10T09:04:23Z</time>
      </trkpt>
      <trkpt lat="42.74831" lon="1.76591">
        <ele>914</ele>
        <time>2016-09-10T09:04:24Z</time>
      </trkpt>
      <trkpt lat="42.74831" lon="1.76591">
        <ele>914</ele>
        <time>2016-09-10T09:04:25Z</time>
      </trkpt>
      <trkpt lat="42.74831" lon="1.76591">
        <ele>914</ele>
        <time>2016-09-10T09:04:26Z</time>
      </trkpt>
      <trkpt lat="42.74831" lon="1.76591">
        <ele>914</ele>
        <time>2016-09-10T09:04:32Z</time>
      </trkpt>
      <trkpt lat="42.74831" lon="1.76591">
        <ele>914</ele>
        <time>2016-09-10T09:04:33Z</time>
      </trkpt>
      <trkpt lat="42.74831" lon="1.76591">
        <ele>914</ele>
        <time>2016-09-10T09:04:34Z</time>
      </trkpt>
      <trkpt lat="42.7483" lon="1.76588">
        <ele>915</ele>
        <time>2016-09-10T09:04:35Z</time>
      </trkpt>
      <trkpt lat="42.74828" lon="1.76587">
        <ele>916</ele>
        <time>2016-09-10T09:04:36Z</time>
      </trkpt>
      <trkpt lat="42.74822" lon="1.76581">
        <ele>918</ele>
        <time>2016-09-10T09:04:43Z</time>
      </trkpt>
      <trkpt lat="42.74822" lon="1.76579">
        <ele>919</ele>
        <time>2016-09-10T09:04:45Z</time>
      </trkpt>
      <trkpt lat="42.74822" lon="1.76579">
        <ele>919</ele>
        <time>2016-09-10T09:04:46Z</time>
      </trkpt>
      <trkpt lat="42.74821" lon="1.76578">
        <ele>919</ele>
        <time>2016-09-10T09:04:47Z</time>
      </trkpt>
      <trkpt lat="42.74821" lon="1.76577">
        <ele>920</ele>
        <time>2016-09-10T09:04:48Z</time>
      </trkpt>
      <trkpt lat="42.74821" lon="1.76577">
        <ele>920</ele>
        <time>2016-09-10T09:04:49Z</time>
      </trkpt>
      <trkpt lat="42.74818" lon="1.76573">
        <ele>921</ele>
        <time>2016-09-10T09:04:54Z</time>
      </trkpt>
      <trkpt lat="42.74817" lon="1.76572">
        <ele>922</ele>
        <time>2016-09-10T09:04:55Z</time>
      </trkpt>
      <trkpt lat="42.74816" lon="1.76572">
        <ele>922</ele>
        <time>2016-09-10T09:04:56Z</time>
      </trkpt>
      <trkpt lat="42.74815" lon="1.76571">
        <ele>922</ele>
        <time>2016-09-10T09:04:57Z</time>
      </trkpt>
      <trkpt lat="42.74813" lon="1.76563">
        <ele>925</ele>
        <time>2016-09-10T09:05:05Z</time>
      </trkpt>
      <trkpt lat="42.74812" lon="1.76563">
        <ele>925</ele>
        <time>2016-09-10T09:05:06Z</time>
      </trkpt>
      <trkpt lat="42.74811" lon="1.76562">
        <ele>925</ele>
        <time>2016-09-10T09:05:07Z</time>
      </trkpt>
      <trkpt lat="42.74811" lon="1.76561">
        <ele>925</ele>
        <time>2016-09-10T09:05:08Z</time>
      </trkpt>
      <trkpt lat="42.74811" lon="1.76561">
        <ele>925</ele>
        <time>2016-09-10T09:05:09Z</time>
      </trkpt>
      <trkpt lat="42.74811" lon="1.76561">
        <ele>925</ele>
        <time>2016-09-10T09:05:16Z</time>
      </trkpt>
      <trkpt lat="42.7481" lon="1.7656">
        <ele>926</ele>
        <time>2016-09-10T09:05:17Z</time>
      </trkpt>
      <trkpt lat="42.7481" lon="1.7656">
        <ele>926</ele>
        <time>2016-09-10T09:05:18Z</time>
      </trkpt>
      <trkpt lat="42.7481" lon="1.7656">
        <ele>926</ele>
        <time>2016-09-10T09:05:19Z</time>
      </trkpt>
      <trkpt lat="42.74807" lon="1.76556">
        <ele>927</ele>
        <time>2016-09-10T09:05:27Z</time>
      </trkpt>
      <trkpt lat="42.74807" lon="1.76556">
        <ele>927</ele>
        <time>2016-09-10T09:05:28Z</time>
      </trkpt>
      <trkpt lat="42.74807" lon="1.76554">
        <ele>928</ele>
        <time>2016-09-10T09:05:29Z</time>
      </trkpt>
      <trkpt lat="42.74805" lon="1.76552">
        <ele>928</ele>
        <time>2016-09-10T09:05:30Z</time>
      </trkpt>
      <trkpt lat="42.74804" lon="1.76551">
        <ele>928</ele>
        <time>2016-09-10T09:05:31Z</time>
      </trkpt>
      <trkpt lat="42.74804" lon="1.76551">
        <ele>928</ele>
        <time>2016-09-10T09:05:32Z</time>
      </trkpt>
      <trkpt lat="42.74802" lon="1.76546">
        <ele>930</ele>
        <time>2016-09-10T09:05:36Z</time>
      </trkpt>
      <trkpt lat="42.74799" lon="1.76539">
        <ele>932</ele>
        <time>2016-09-10T09:05:43Z</time>
      </trkpt>
      <trkpt lat="42.74798" lon="1.76539">
        <ele>932</ele>
        <time>2016-09-10T09:05:44Z</time>
      </trkpt>
      <trkpt lat="42.74798" lon="1.76538">
        <ele>932</ele>
        <time>2016-09-10T09:05:45Z</time>
      </trkpt>
      <trkpt lat="42.74797" lon="1.76538">
        <ele>932</ele>
        <time>2016-09-10T09:05:46Z</time>
      </trkpt>
      <trkpt lat="42.74797" lon="1.76538">
        <ele>932</ele>
        <time>2016-09-10T09:05:47Z</time>
      </trkpt>
      <trkpt lat="42.74795" lon="1.76537">
        <ele>932</ele>
        <time>2016-09-10T09:05:55Z</time>
      </trkpt>
      <trkpt lat="42.74794" lon="1.76536">
        <ele>933</ele>
        <time>2016-09-10T09:05:58Z</time>
      </trkpt>
      <trkpt lat="42.74794" lon="1.76536">
        <ele>933</ele>
        <time>2016-09-10T09:05:59Z</time>
      </trkpt>
      <trkpt lat="42.74794" lon="1.76536">
        <ele>933</ele>
        <time>2016-09-10T09:06:00Z</time>
      </trkpt>
      <trkpt lat="42.74794" lon="1.76536">
        <ele>933</ele>
        <time>2016-09-10T09:06:01Z</time>
      </trkpt>
      <trkpt lat="42.74794" lon="1.76536">
        <ele>933</ele>
        <time>2016-09-10T09:06:02Z</time>
      </trkpt>
      <trkpt lat="42.74794" lon="1.76535">
        <ele>933</ele>
        <time>2016-09-10T09:06:04Z</time>
      </trkpt>
      <trkpt lat="42.74792" lon="1.76533">
        <ele>934</ele>
        <time>2016-09-10T09:06:13Z</time>
      </trkpt>
      <trkpt lat="42.74791" lon="1.76532">
        <ele>934</ele>
        <time>2016-09-10T09:06:14Z</time>
      </trkpt>
      <trkpt lat="42.74789" lon="1.76532">
        <ele>934</ele>
        <time>2016-09-10T09:06:15Z</time>
      </trkpt>
      <trkpt lat="42.74787" lon="1.76533">
        <ele>934</ele>
        <time>2016-09-10T09:06:16Z</time>
      </trkpt>
      <trkpt lat="42.74785" lon="1.76533">
        <ele>934</ele>
        <time>2016-09-10T09:06:17Z</time>
      </trkpt>
      <trkpt lat="42.74781" lon="1.76534">
        <ele>933</ele>
        <time>2016-09-10T09:06:20Z</time>
      </trkpt>
      <trkpt lat="42.74777" lon="1.76528">
        <ele>935</ele>
        <time>2016-09-10T09:06:28Z</time>
      </trkpt>
      <trkpt lat="42.74776" lon="1.76528">
        <ele>935</ele>
        <time>2016-09-10T09:06:29Z</time>
      </trkpt>
      <trkpt lat="42.74775" lon="1.76528">
        <ele>935</ele>
        <time>2016-09-10T09:06:30Z</time>
      </trkpt>
      <trkpt lat="42.74774" lon="1.76529">
        <ele>935</ele>
        <time>2016-09-10T09:06:31Z</time>
      </trkpt>
      <trkpt lat="42.74773" lon="1.76529">
        <ele>935</ele>
        <time>2016-09-10T09:06:32Z</time>
      </trkpt>
      <trkpt lat="42.74772" lon="1.76529">
        <ele>935</ele>
        <time>2016-09-10T09:06:33Z</time>
      </trkpt>
      <trkpt lat="42.7477" lon="1.76529">
        <ele>935</ele>
        <time>2016-09-10T09:06:36Z</time>
      </trkpt>
      <trkpt lat="42.74765" lon="1.76523">
        <ele>937</ele>
        <time>2016-09-10T09:06:46Z</time>
      </trkpt>
      <trkpt lat="42.74764" lon="1.76522">
        <ele>937</ele>
        <time>2016-09-10T09:06:47Z</time>
      </trkpt>
      <trkpt lat="42.74763" lon="1.76522">
        <ele>937</ele>
        <time>2016-09-10T09:06:48Z</time>
      </trkpt>
      <trkpt lat="42.74762" lon="1.76521">
        <ele>937</ele>
        <time>2016-09-10T09:06:49Z</time>
      </trkpt>
      <trkpt lat="42.7476" lon="1.76521">
        <ele>937</ele>
        <time>2016-09-10T09:06:50Z</time>
      </trkpt>
      <trkpt lat="42.74759" lon="1.76521">
        <ele>937</ele>
        <time>2016-09-10T09:06:51Z</time>
      </trkpt>
      <trkpt lat="42.74759" lon="1.76521">
        <ele>937</ele>
        <time>2016-09-10T09:06:56Z</time>
      </trkpt>
      <trkpt lat="42.74759" lon="1.76521">
        <ele>937</ele>
        <time>2016-09-10T09:06:57Z</time>
      </trkpt>
      <trkpt lat="42.74757" lon="1.76519">
        <ele>938</ele>
        <time>2016-09-10T09:07:04Z</time>
      </trkpt>
      <trkpt lat="42.74756" lon="1.76518">
        <ele>938</ele>
        <time>2016-09-10T09:07:05Z</time>
      </trkpt>
      <trkpt lat="42.74755" lon="1.76518">
        <ele>938</ele>
        <time>2016-09-10T09:07:06Z</time>
      </trkpt>
      <trkpt lat="42.74754" lon="1.76517">
        <ele>939</ele>
        <time>2016-09-10T09:07:07Z</time>
      </trkpt>
      <trkpt lat="42.74753" lon="1.76516">
        <ele>939</ele>
        <time>2016-09-10T09:07:08Z</time>
      </trkpt>
      <trkpt lat="42.74749" lon="1.76513">
        <ele>940</ele>
        <time>2016-09-10T09:07:12Z</time>
      </trkpt>
      <trkpt lat="42.74746" lon="1.76507">
        <ele>942</ele>
        <time>2016-09-10T09:07:18Z</time>
      </trkpt>
      <trkpt lat="42.74746" lon="1.76506">
        <ele>942</ele>
        <time>2016-09-10T09:07:19Z</time>
      </trkpt>
      <trkpt lat="42.74746" lon="1.76505">
        <ele>942</ele>
        <time>2016-09-10T09:07:20Z</time>
      </trkpt>
      <trkpt lat="42.74745" lon="1.76504">
        <ele>942</ele>
        <time>2016-09-10T09:07:21Z</time>
      </trkpt>
      <trkpt lat="42.74745" lon="1.76504">
        <ele>942</ele>
        <time>2016-09-10T09:07:22Z</time>
      </trkpt>
      <trkpt lat="42.74743" lon="1.76498">
        <ele>944</ele>
        <time>2016-09-10T09:07:28Z</time>
      </trkpt>
      <trkpt lat="42.74741" lon="1.76496">
        <ele>945</ele>
        <time>2016-09-10T09:07:30Z</time>
      </trkpt>
      <trkpt lat="42.74741" lon="1.76496">
        <ele>945</ele>
        <time>2016-09-10T09:07:31Z</time>
      </trkpt>
      <trkpt lat="42.74741" lon="1.76496">
        <ele>945</ele>
        <time>2016-09-10T09:07:32Z</time>
      </trkpt>
      <trkpt lat="42.7474" lon="1.76495">
        <ele>945</ele>
        <time>2016-09-10T09:07:33Z</time>
      </trkpt>
      <trkpt lat="42.7474" lon="1.76494">
        <ele>945</ele>
        <time>2016-09-10T09:07:34Z</time>
      </trkpt>
      <trkpt lat="42.74739" lon="1.76493">
        <ele>945</ele>
        <time>2016-09-10T09:07:35Z</time>
      </trkpt>
      <trkpt lat="42.74735" lon="1.7649">
        <ele>946</ele>
        <time>2016-09-10T09:07:41Z</time>
      </trkpt>
      <trkpt lat="42.74734" lon="1.7649">
        <ele>946</ele>
        <time>2016-09-10T09:07:42Z</time>
      </trkpt>
      <trkpt lat="42.74734" lon="1.76489">
        <ele>947</ele>
        <time>2016-09-10T09:07:43Z</time>
      </trkpt>
      <trkpt lat="42.74734" lon="1.76489">
        <ele>947</ele>
        <time>2016-09-10T09:07:44Z</time>
      </trkpt>
      <trkpt lat="42.74734" lon="1.76489">
        <ele>947</ele>
        <time>2016-09-10T09:07:45Z</time>
      </trkpt>
      <trkpt lat="42.74737" lon="1.76487">
        <ele>947</ele>
        <time>2016-09-10T09:07:50Z</time>
      </trkpt>
      <trkpt lat="42.74734" lon="1.76484">
        <ele>948</ele>
        <time>2016-09-10T09:08:02Z</time>
      </trkpt>
      <trkpt lat="42.74728" lon="1.76481">
        <ele>950</ele>
        <time>2016-09-10T09:08:11Z</time>
      </trkpt>
      <trkpt lat="42.74725" lon="1.76478">
        <ele>951</ele>
        <time>2016-09-10T09:08:16Z</time>
      </trkpt>
      <trkpt lat="42.74724" lon="1.76477">
        <ele>951</ele>
        <time>2016-09-10T09:08:17Z</time>
      </trkpt>
      <trkpt lat="42.74724" lon="1.76477">
        <ele>951</ele>
        <time>2016-09-10T09:08:18Z</time>
      </trkpt>
      <trkpt lat="42.74723" lon="1.76476">
        <ele>952</ele>
        <time>2016-09-10T09:08:19Z</time>
      </trkpt>
      <trkpt lat="42.74722" lon="1.76476">
        <ele>952</ele>
        <time>2016-09-10T09:08:20Z</time>
      </trkpt>
      <trkpt lat="42.74715" lon="1.76474">
        <ele>954</ele>
        <time>2016-09-10T09:08:30Z</time>
      </trkpt>
      <trkpt lat="42.74713" lon="1.76472">
        <ele>955</ele>
        <time>2016-09-10T09:08:34Z</time>
      </trkpt>
      <trkpt lat="42.74713" lon="1.76471">
        <ele>955</ele>
        <time>2016-09-10T09:08:35Z</time>
      </trkpt>
      <trkpt lat="42.74713" lon="1.76471">
        <ele>955</ele>
        <time>2016-09-10T09:08:36Z</time>
      </trkpt>
      <trkpt lat="42.74712" lon="1.7647">
        <ele>955</ele>
        <time>2016-09-10T09:08:37Z</time>
      </trkpt>
      <trkpt lat="42.74712" lon="1.7647">
        <ele>955</ele>
        <time>2016-09-10T09:08:42Z</time>
      </trkpt>
      <trkpt lat="42.74712" lon="1.7647">
        <ele>955</ele>
        <time>2016-09-10T09:08:45Z</time>
      </trkpt>
      <trkpt lat="42.74712" lon="1.7647">
        <ele>955</ele>
        <time>2016-09-10T09:08:46Z</time>
      </trkpt>
      <trkpt lat="42.74712" lon="1.7647">
        <ele>955</ele>
        <time>2016-09-10T09:08:47Z</time>
      </trkpt>
      <trkpt lat="42.74712" lon="1.7647">
        <ele>955</ele>
        <time>2016-09-10T09:08:48Z</time>
      </trkpt>
      <trkpt lat="42.74712" lon="1.7647">
        <ele>955</ele>
        <time>2016-09-10T09:08:49Z</time>
      </trkpt>
      <trkpt lat="42.74711" lon="1.7647">
        <ele>955</ele>
        <time>2016-09-10T09:08:52Z</time>
      </trkpt>
      <trkpt lat="42.74709" lon="1.76471">
        <ele>955</ele>
        <time>2016-09-10T09:09:03Z</time>
      </trkpt>
      <trkpt lat="42.74708" lon="1.7647">
        <ele>956</ele>
        <time>2016-09-10T09:09:06Z</time>
      </trkpt>
      <trkpt lat="42.74708" lon="1.7647">
        <ele>956</ele>
        <time>2016-09-10T09:09:07Z</time>
      </trkpt>
      <trkpt lat="42.74708" lon="1.7647">
        <ele>956</ele>
        <time>2016-09-10T09:09:08Z</time>
      </trkpt>
      <trkpt lat="42.74708" lon="1.7647">
        <ele>956</ele>
        <time>2016-09-10T09:09:09Z</time>
      </trkpt>
      <trkpt lat="42.74707" lon="1.76468">
        <ele>957</ele>
        <time>2016-09-10T09:09:10Z</time>
      </trkpt>
      <trkpt lat="42.74711" lon="1.76466">
        <ele>957</ele>
        <time>2016-09-10T09:09:19Z</time>
      </trkpt>
      <trkpt lat="42.74714" lon="1.76469">
        <ele>955</ele>
        <time>2016-09-10T09:09:26Z</time>
      </trkpt>
      <trkpt lat="42.74714" lon="1.76469">
        <ele>955</ele>
        <time>2016-09-10T09:09:30Z</time>
      </trkpt>
      <trkpt lat="42.74713" lon="1.76467">
        <ele>956</ele>
        <time>2016-09-10T09:09:31Z</time>
      </trkpt>
      <trkpt lat="42.74713" lon="1.76466">
        <ele>956</ele>
        <time>2016-09-10T09:09:32Z</time>
      </trkpt>
      <trkpt lat="42.74712" lon="1.76464">
        <ele>957</ele>
        <time>2016-09-10T09:09:33Z</time>
      </trkpt>
      <trkpt lat="42.74711" lon="1.76462">
        <ele>958</ele>
        <time>2016-09-10T09:09:34Z</time>
      </trkpt>
      <trkpt lat="42.7471" lon="1.76461">
        <ele>958</ele>
        <time>2016-09-10T09:09:35Z</time>
      </trkpt>
      <trkpt lat="42.747" lon="1.76456">
        <ele>962</ele>
        <time>2016-09-10T09:09:45Z</time>
      </trkpt>
      <trkpt lat="42.747" lon="1.76455">
        <ele>962</ele>
        <time>2016-09-10T09:09:47Z</time>
      </trkpt>
      <trkpt lat="42.747" lon="1.76455">
        <ele>962</ele>
        <time>2016-09-10T09:09:48Z</time>
      </trkpt>
      <trkpt lat="42.74699" lon="1.76455">
        <ele>962</ele>
        <time>2016-09-10T09:09:49Z</time>
      </trkpt>
      <trkpt lat="42.74699" lon="1.76455">
        <ele>962</ele>
        <time>2016-09-10T09:09:50Z</time>
      </trkpt>
      <trkpt lat="42.74698" lon="1.76452">
        <ele>963</ele>
        <time>2016-09-10T09:09:55Z</time>
      </trkpt>
      <trkpt lat="42.74698" lon="1.76451">
        <ele>964</ele>
        <time>2016-09-10T09:09:56Z</time>
      </trkpt>
      <trkpt lat="42.74699" lon="1.7645">
        <ele>964</ele>
        <time>2016-09-10T09:09:57Z</time>
      </trkpt>
      <trkpt lat="42.747" lon="1.7645">
        <ele>964</ele>
        <time>2016-09-10T09:09:58Z</time>
      </trkpt>
      <trkpt lat="42.747" lon="1.76449">
        <ele>964</ele>
        <time>2016-09-10T09:09:59Z</time>
      </trkpt>
      <trkpt lat="42.747" lon="1.76449">
        <ele>964</ele>
        <time>2016-09-10T09:10:06Z</time>
      </trkpt>
      <trkpt lat="42.747" lon="1.76449">
        <ele>964</ele>
        <time>2016-09-10T09:10:07Z</time>
      </trkpt>
      <trkpt lat="42.747" lon="1.76449">
        <ele>964</ele>
        <time>2016-09-10T09:10:08Z</time>
      </trkpt>
      <trkpt lat="42.747" lon="1.76447">
        <ele>964</ele>
        <time>2016-09-10T09:10:09Z</time>
      </trkpt>
      <trkpt lat="42.74701" lon="1.76446">
        <ele>965</ele>
        <time>2016-09-10T09:10:10Z</time>
      </trkpt>
      <trkpt lat="42.74703" lon="1.7644">
        <ele>966</ele>
        <time>2016-09-10T09:10:15Z</time>
      </trkpt>
      <trkpt lat="42.74705" lon="1.76438">
        <ele>966</ele>
        <time>2016-09-10T09:10:18Z</time>
      </trkpt>
      <trkpt lat="42.74706" lon="1.76437">
        <ele>966</ele>
        <time>2016-09-10T09:10:19Z</time>
      </trkpt>
      <trkpt lat="42.74706" lon="1.76437">
        <ele>966</ele>
        <time>2016-09-10T09:10:20Z</time>
      </trkpt>
      <trkpt lat="42.74707" lon="1.76437">
        <ele>966</ele>
        <time>2016-09-10T09:10:21Z</time>
      </trkpt>
      <trkpt lat="42.74708" lon="1.76436">
        <ele>966</ele>
        <time>2016-09-10T09:10:22Z</time>
      </trkpt>
      <trkpt lat="42.74708" lon="1.76434">
        <ele>967</ele>
        <time>2016-09-10T09:10:24Z</time>
      </trkpt>
      <trkpt lat="42.74708" lon="1.76431">
        <ele>968</ele>
        <time>2016-09-10T09:10:26Z</time>
      </trkpt>
      <trkpt lat="42.74709" lon="1.76429">
        <ele>968</ele>
        <time>2016-09-10T09:10:27Z</time>
      </trkpt>
      <trkpt lat="42.74709" lon="1.76429">
        <ele>968</ele>
        <time>2016-09-10T09:10:28Z</time>
      </trkpt>
      <trkpt lat="42.74709" lon="1.76428">
        <ele>969</ele>
        <time>2016-09-10T09:10:29Z</time>
      </trkpt>
      <trkpt lat="42.74709" lon="1.76428">
        <ele>969</ele>
        <time>2016-09-10T09:10:30Z</time>
      </trkpt>
      <trkpt lat="42.74708" lon="1.76425">
        <ele>970</ele>
        <time>2016-09-10T09:10:33Z</time>
      </trkpt>
      <trkpt lat="42.74702" lon="1.76419">
        <ele>973</ele>
        <time>2016-09-10T09:10:36Z</time>
      </trkpt>
      <trkpt lat="42.74697" lon="1.76414">
        <ele>976</ele>
        <time>2016-09-10T09:10:38Z</time>
      </trkpt>
      <trkpt lat="42.74694" lon="1.76409">
        <ele>978</ele>
        <time>2016-09-10T09:10:40Z</time>
      </trkpt>
      <trkpt lat="42.74693" lon="1.76407">
        <ele>979</ele>
        <time>2016-09-10T09:10:41Z</time>
      </trkpt>
      <trkpt lat="42.74691" lon="1.76404">
        <ele>981</ele>
        <time>2016-09-10T09:10:42Z</time>
      </trkpt>
      <trkpt lat="42.7469" lon="1.76401">
        <ele>982</ele>
        <time>2016-09-10T09:10:43Z</time>
      </trkpt>
      <trkpt lat="42.7469" lon="1.76399">
        <ele>983</ele>
        <time>2016-09-10T09:10:44Z</time>
      </trkpt>
      <trkpt lat="42.74689" lon="1.76394">
        <ele>984</ele>
        <time>2016-09-10T09:10:47Z</time>
      </trkpt>
      <trkpt lat="42.74691" lon="1.76391">
        <ele>985</ele>
        <time>2016-09-10T09:10:50Z</time>
      </trkpt>
      <trkpt lat="42.74692" lon="1.7639">
        <ele>985</ele>
        <time>2016-09-10T09:10:51Z</time>
      </trkpt>
      <trkpt lat="42.74692" lon="1.76389">
        <ele>985</ele>
        <time>2016-09-10T09:10:52Z</time>
      </trkpt>
      <trkpt lat="42.74692" lon="1.76389">
        <ele>985</ele>
        <time>2016-09-10T09:10:53Z</time>
      </trkpt>
      <trkpt lat="42.74692" lon="1.76389">
        <ele>985</ele>
        <time>2016-09-10T09:10:54Z</time>
      </trkpt>
      <trkpt lat="42.74693" lon="1.76388">
        <ele>985</ele>
        <time>2016-09-10T09:11:03Z</time>
      </trkpt>
      <trkpt lat="42.74703" lon="1.76383">
        <ele>985</ele>
        <time>2016-09-10T09:11:07Z</time>
      </trkpt>
      <trkpt lat="42.74706" lon="1.76382">
        <ele>984</ele>
        <time>2016-09-10T09:11:08Z</time>
      </trkpt>
      <trkpt lat="42.74708" lon="1.76381">
        <ele>984</ele>
        <time>2016-09-10T09:11:09Z</time>
      </trkpt>
      <trkpt lat="42.7471" lon="1.76379">
        <ele>984</ele>
        <time>2016-09-10T09:11:10Z</time>
      </trkpt>
      <trkpt lat="42.74711" lon="1.76377">
        <ele>985</ele>
        <time>2016-09-10T09:11:11Z</time>
      </trkpt>
      <trkpt lat="42.74711" lon="1.76376">
        <ele>985</ele>
        <time>2016-09-10T09:11:12Z</time>
      </trkpt>
      <trkpt lat="42.74713" lon="1.76373">
        <ele>985</ele>
        <time>2016-09-10T09:11:20Z</time>
      </trkpt>
      <trkpt lat="42.74716" lon="1.76368">
        <ele>986</ele>
        <time>2016-09-10T09:11:25Z</time>
      </trkpt>
      <trkpt lat="42.74717" lon="1.76366">
        <ele>987</ele>
        <time>2016-09-10T09:11:26Z</time>
      </trkpt>
      <trkpt lat="42.74717" lon="1.76363">
        <ele>988</ele>
        <time>2016-09-10T09:11:27Z</time>
      </trkpt>
      <trkpt lat="42.74717" lon="1.76363">
        <ele>988</ele>
        <time>2016-09-10T09:11:28Z</time>
      </trkpt>
      <trkpt lat="42.74717" lon="1.76363">
        <ele>988</ele>
        <time>2016-09-10T09:11:29Z</time>
      </trkpt>
      <trkpt lat="42.74731" lon="1.76366">
        <ele>983</ele>
        <time>2016-09-10T09:11:40Z</time>
      </trkpt>
      <trkpt lat="42.74735" lon="1.76362">
        <ele>983</ele>
        <time>2016-09-10T09:11:50Z</time>
      </trkpt>
      <trkpt lat="42.74736" lon="1.76359">
        <ele>984</ele>
        <time>2016-09-10T09:11:55Z</time>
      </trkpt>
      <trkpt lat="42.74736" lon="1.76359">
        <ele>984</ele>
        <time>2016-09-10T09:11:56Z</time>
      </trkpt>
      <trkpt lat="42.74736" lon="1.76359">
        <ele>984</ele>
        <time>2016-09-10T09:11:57Z</time>
      </trkpt>
      <trkpt lat="42.74735" lon="1.76358">
        <ele>984</ele>
        <time>2016-09-10T09:11:58Z</time>
      </trkpt>
      <trkpt lat="42.74734" lon="1.76358">
        <ele>985</ele>
        <time>2016-09-10T09:11:59Z</time>
      </trkpt>
      <trkpt lat="42.7472" lon="1.7635">
        <ele>991</ele>
        <time>2016-09-10T09:12:08Z</time>
      </trkpt>
      <trkpt lat="42.74713" lon="1.76346">
        <ele>994</ele>
        <time>2016-09-10T09:12:14Z</time>
      </trkpt>
      <trkpt lat="42.74712" lon="1.76345">
        <ele>995</ele>
        <time>2016-09-10T09:12:15Z</time>
      </trkpt>
      <trkpt lat="42.7471" lon="1.76344">
        <ele>995</ele>
        <time>2016-09-10T09:12:16Z</time>
      </trkpt>
      <trkpt lat="42.74709" lon="1.76344">
        <ele>996</ele>
        <time>2016-09-10T09:12:17Z</time>
      </trkpt>
      <trkpt lat="42.74708" lon="1.76344">
        <ele>996</ele>
        <time>2016-09-10T09:12:18Z</time>
      </trkpt>
      <trkpt lat="42.74706" lon="1.76343">
        <ele>997</ele>
        <time>2016-09-10T09:12:19Z</time>
      </trkpt>
      <trkpt lat="42.74701" lon="1.76341">
        <ele>999</ele>
        <time>2016-09-10T09:12:23Z</time>
      </trkpt>
      <trkpt lat="42.747" lon="1.76341">
        <ele>999</ele>
        <time>2016-09-10T09:12:24Z</time>
      </trkpt>
      <trkpt lat="42.74699" lon="1.7634">
        <ele>1000</ele>
        <time>2016-09-10T09:12:25Z</time>
      </trkpt>
      <trkpt lat="42.74698" lon="1.76339">
        <ele>1001</ele>
        <time>2016-09-10T09:12:26Z</time>
      </trkpt>
      <trkpt lat="42.74697" lon="1.76338">
        <ele>1001</ele>
        <time>2016-09-10T09:12:27Z</time>
      </trkpt>
      <trkpt lat="42.74709" lon="1.76334">
        <ele>999</ele>
        <time>2016-09-10T09:12:29Z</time>
      </trkpt>
      <trkpt lat="42.74716" lon="1.76332">
        <ele>997</ele>
        <time>2016-09-10T09:12:38Z</time>
      </trkpt>
      <trkpt lat="42.74719" lon="1.76331">
        <ele>997</ele>
        <time>2016-09-10T09:12:39Z</time>
      </trkpt>
      <trkpt lat="42.7472" lon="1.7633">
        <ele>997</ele>
        <time>2016-09-10T09:12:40Z</time>
      </trkpt>
      <trkpt lat="42.7472" lon="1.7633">
        <ele>997</ele>
        <time>2016-09-10T09:12:41Z</time>
      </trkpt>
      <trkpt lat="42.74721" lon="1.7633">
        <ele>996</ele>
        <time>2016-09-10T09:12:42Z</time>
      </trkpt>
      <trkpt lat="42.74725" lon="1.76329">
        <ele>995</ele>
        <time>2016-09-10T09:12:47Z</time>
      </trkpt>
      <trkpt lat="42.74727" lon="1.76329">
        <ele>995</ele>
        <time>2016-09-10T09:12:48Z</time>
      </trkpt>
      <trkpt lat="42.74727" lon="1.76329">
        <ele>995</ele>
        <time>2016-09-10T09:12:49Z</time>
      </trkpt>
      <trkpt lat="42.74727" lon="1.76328">
        <ele>995</ele>
        <time>2016-09-10T09:12:50Z</time>
      </trkpt>
      <trkpt lat="42.74729" lon="1.76328">
        <ele>994</ele>
        <time>2016-09-10T09:12:51Z</time>
      </trkpt>
      <trkpt lat="42.74732" lon="1.76325">
        <ele>994</ele>
        <time>2016-09-10T09:12:56Z</time>
      </trkpt>
      <trkpt lat="42.74732" lon="1.76325">
        <ele>994</ele>
        <time>2016-09-10T09:12:57Z</time>
      </trkpt>
      <trkpt lat="42.74734" lon="1.76323">
        <ele>995</ele>
        <time>2016-09-10T09:12:58Z</time>
      </trkpt>
      <trkpt lat="42.74738" lon="1.7632">
        <ele>996</ele>
        <time>2016-09-10T09:12:59Z</time>
      </trkpt>
      <trkpt lat="42.74739" lon="1.76318">
        <ele>997</ele>
        <time>2016-09-10T09:13:00Z</time>
      </trkpt>
      <trkpt lat="42.74744" lon="1.76313">
        <ele>998</ele>
        <time>2016-09-10T09:13:06Z</time>
      </trkpt>
      <trkpt lat="42.74744" lon="1.76313">
        <ele>999</ele>
        <time>2016-09-10T09:13:07Z</time>
      </trkpt>
      <trkpt lat="42.74746" lon="1.76311">
        <ele>999</ele>
        <time>2016-09-10T09:13:08Z</time>
      </trkpt>
      <trkpt lat="42.74746" lon="1.76311">
        <ele>999</ele>
        <time>2016-09-10T09:13:09Z</time>
      </trkpt>
      <trkpt lat="42.74746" lon="1.76311">
        <ele>999</ele>
        <time>2016-09-10T09:13:10Z</time>
      </trkpt>
      <trkpt lat="42.74747" lon="1.7631">
        <ele>999</ele>
        <time>2016-09-10T09:13:14Z</time>
      </trkpt>
      <trkpt lat="42.7475" lon="1.76309">
        <ele>1000</ele>
        <time>2016-09-10T09:13:22Z</time>
      </trkpt>
      <trkpt lat="42.74763" lon="1.76309">
        <ele>998</ele>
        <time>2016-09-10T09:13:33Z</time>
      </trkpt>
      <trkpt lat="42.74763" lon="1.76309">
        <ele>998</ele>
        <time>2016-09-10T09:13:44Z</time>
      </trkpt>
      <trkpt lat="42.74763" lon="1.76309">
        <ele>998</ele>
        <time>2016-09-10T09:13:46Z</time>
      </trkpt>
      <trkpt lat="42.74763" lon="1.76309">
        <ele>998</ele>
        <time>2016-09-10T09:13:47Z</time>
      </trkpt>
      <trkpt lat="42.74762" lon="1.76308">
        <ele>999</ele>
        <time>2016-09-10T09:13:48Z</time>
      </trkpt>
      <trkpt lat="42.74762" lon="1.76307">
        <ele>999</ele>
        <time>2016-09-10T09:13:49Z</time>
      </trkpt>
      <trkpt lat="42.74761" lon="1.76306">
        <ele>999</ele>
        <time>2016-09-10T09:13:50Z</time>
      </trkpt>
      <trkpt lat="42.74762" lon="1.76299">
        <ele>1002</ele>
        <time>2016-09-10T09:13:55Z</time>
      </trkpt>
      <trkpt lat="42.74761" lon="1.76297">
        <ele>1003</ele>
        <time>2016-09-10T09:13:57Z</time>
      </trkpt>
      <trkpt lat="42.74761" lon="1.76296">
        <ele>1004</ele>
        <time>2016-09-10T09:13:58Z</time>
      </trkpt>
      <trkpt lat="42.74761" lon="1.76296">
        <ele>1004</ele>
        <time>2016-09-10T09:13:59Z</time>
      </trkpt>
      <trkpt lat="42.74761" lon="1.76295">
        <ele>1004</ele>
        <time>2016-09-10T09:14:00Z</time>
      </trkpt>
      <trkpt lat="42.74761" lon="1.76295">
        <ele>1004</ele>
        <time>2016-09-10T09:14:03Z</time>
      </trkpt>
      <trkpt lat="42.74761" lon="1.76293">
        <ele>1005</ele>
        <time>2016-09-10T09:14:10Z</time>
      </trkpt>
      <trkpt lat="42.74761" lon="1.76293">
        <ele>1005</ele>
        <time>2016-09-10T09:14:11Z</time>
      </trkpt>
      <trkpt lat="42.74761" lon="1.76293">
        <ele>1005</ele>
        <time>2016-09-10T09:14:12Z</time>
      </trkpt>
      <trkpt lat="42.74761" lon="1.76293">
        <ele>1005</ele>
        <time>2016-09-10T09:14:13Z</time>
      </trkpt>
      <trkpt lat="42.74761" lon="1.76293">
        <ele>1005</ele>
        <time>2016-09-10T09:14:14Z</time>
      </trkpt>
      <trkpt lat="42.74761" lon="1.76293">
        <ele>1005</ele>
        <time>2016-09-10T09:14:22Z</time>
      </trkpt>
      <trkpt lat="42.74761" lon="1.76293">
        <ele>1005</ele>
        <time>2016-09-10T09:14:23Z</time>
      </trkpt>
      <trkpt lat="42.74761" lon="1.76293">
        <ele>1005</ele>
        <time>2016-09-10T09:14:24Z</time>
      </trkpt>
      <trkpt lat="42.74761" lon="1.76293">
        <ele>1005</ele>
        <time>2016-09-10T09:14:25Z</time>
      </trkpt>
      <trkpt lat="42.7477" lon="1.76299">
        <ele>1001</ele>
        <time>2016-09-10T09:14:32Z</time>
      </trkpt>
      <trkpt lat="42.7477" lon="1.76299">
        <ele>1001</ele>
        <time>2016-09-10T09:14:33Z</time>
      </trkpt>
      <trkpt lat="42.7477" lon="1.76299">
        <ele>1001</ele>
        <time>2016-09-10T09:14:34Z</time>
      </trkpt>
      <trkpt lat="42.7477" lon="1.76299">
        <ele>1001</ele>
        <time>2016-09-10T09:14:35Z</time>
      </trkpt>
      <trkpt lat="42.7477" lon="1.76299">
        <ele>1001</ele>
        <time>2016-09-10T09:14:36Z</time>
      </trkpt>
      <trkpt lat="42.74783" lon="1.76298">
        <ele>1001</ele>
        <time>2016-09-10T09:14:42Z</time>
      </trkpt>
      <trkpt lat="42.7479" lon="1.76298">
        <ele>1002</ele>
        <time>2016-09-10T09:14:47Z</time>
      </trkpt>
      <trkpt lat="42.74791" lon="1.76298">
        <ele>1002</ele>
        <time>2016-09-10T09:14:48Z</time>
      </trkpt>
      <trkpt lat="42.74792" lon="1.76298">
        <ele>1002</ele>
        <time>2016-09-10T09:14:49Z</time>
      </trkpt>
      <trkpt lat="42.74792" lon="1.76298">
        <ele>1002</ele>
        <time>2016-09-10T09:14:50Z</time>
      </trkpt>
      <trkpt lat="42.74793" lon="1.76298">
        <ele>1002</ele>
        <time>2016-09-10T09:14:51Z</time>
      </trkpt>
      <trkpt lat="42.74793" lon="1.76298">
        <ele>1002</ele>
        <time>2016-09-10T09:14:56Z</time>
      </trkpt>
      <trkpt lat="42.74793" lon="1.76298">
        <ele>1002</ele>
        <time>2016-09-10T09:14:57Z</time>
      </trkpt>
      <trkpt lat="42.74793" lon="1.76298">
        <ele>1002</ele>
        <time>2016-09-10T09:14:58Z</time>
      </trkpt>
      <trkpt lat="42.74793" lon="1.76298">
        <ele>1002</ele>
        <time>2016-09-10T09:14:59Z</time>
      </trkpt>
      <trkpt lat="42.74795" lon="1.76298">
        <ele>1002</ele>
        <time>2016-09-10T09:15:00Z</time>
      </trkpt>
      <trkpt lat="42.74796" lon="1.76299">
        <ele>1002</ele>
        <time>2016-09-10T09:15:01Z</time>
      </trkpt>
      <trkpt lat="42.74805" lon="1.763">
        <ele>1002</ele>
        <time>2016-09-10T09:15:11Z</time>
      </trkpt>
      <trkpt lat="42.74807" lon="1.76301">
        <ele>1002</ele>
        <time>2016-09-10T09:15:12Z</time>
      </trkpt>
      <trkpt lat="42.74807" lon="1.76301">
        <ele>1002</ele>
        <time>2016-09-10T09:15:13Z</time>
      </trkpt>
      <trkpt lat="42.74807" lon="1.76301">
        <ele>1002</ele>
        <time>2016-09-10T09:15:14Z</time>
      </trkpt>
      <trkpt lat="42.74809" lon="1.76301">
        <ele>1003</ele>
        <time>2016-09-10T09:15:15Z</time>
      </trkpt>
      <trkpt lat="42.74816" lon="1.76302">
        <ele>1003</ele>
        <time>2016-09-10T09:15:19Z</time>
      </trkpt>
      <trkpt lat="42.74818" lon="1.76303">
        <ele>1003</ele>
        <time>2016-09-10T09:15:25Z</time>
      </trkpt>
      <trkpt lat="42.74818" lon="1.76303">
        <ele>1003</ele>
        <time>2016-09-10T09:15:26Z</time>
      </trkpt>
      <trkpt lat="42.74818" lon="1.76303">
        <ele>1003</ele>
        <time>2016-09-10T09:15:27Z</time>
      </trkpt>
      <trkpt lat="42.74818" lon="1.76303">
        <ele>1003</ele>
        <time>2016-09-10T09:15:28Z</time>
      </trkpt>
      <trkpt lat="42.74818" lon="1.76303">
        <ele>1003</ele>
        <time>2016-09-10T09:15:29Z</time>
      </trkpt>
      <trkpt lat="42.74832" lon="1.76302">
        <ele>1005</ele>
        <time>2016-09-10T09:15:37Z</time>
      </trkpt>
      <trkpt lat="42.7484" lon="1.76297">
        <ele>1007</ele>
        <time>2016-09-10T09:15:45Z</time>
      </trkpt>
      <trkpt lat="42.74842" lon="1.76294">
        <ele>1009</ele>
        <time>2016-09-10T09:15:57Z</time>
      </trkpt>
      <trkpt lat="42.74837" lon="1.76302">
        <ele>1006</ele>
        <time>2016-09-10T09:16:03Z</time>
      </trkpt>
      <trkpt lat="42.7483" lon="1.76306">
        <ele>1003</ele>
        <time>2016-09-10T09:16:10Z</time>
      </trkpt>
      <trkpt lat="42.74823" lon="1.7631">
        <ele>1001</ele>
        <time>2016-09-10T09:16:18Z</time>
      </trkpt>
      <trkpt lat="42.7482" lon="1.76311">
        <ele>1000</ele>
        <time>2016-09-10T09:16:26Z</time>
      </trkpt>
      <trkpt lat="42.74816" lon="1.76311">
        <ele>1000</ele>
        <time>2016-09-10T09:16:34Z</time>
      </trkpt>
      <trkpt lat="42.74814" lon="1.76311">
        <ele>1000</ele>
        <time>2016-09-10T09:16:36Z</time>
      </trkpt>
      <trkpt lat="42.74813" lon="1.76311">
        <ele>1000</ele>
        <time>2016-09-10T09:16:37Z</time>
      </trkpt>
      <trkpt lat="42.74812" lon="1.76311">
        <ele>1000</ele>
        <time>2016-09-10T09:16:38Z</time>
      </trkpt>
      <trkpt lat="42.74811" lon="1.76311">
        <ele>1000</ele>
        <time>2016-09-10T09:16:39Z</time>
      </trkpt>
      <trkpt lat="42.7481" lon="1.7631">
        <ele>1000</ele>
        <time>2016-09-10T09:16:40Z</time>
      </trkpt>
      <trkpt lat="42.74808" lon="1.7631">
        <ele>999</ele>
        <time>2016-09-10T09:16:43Z</time>
      </trkpt>
      <trkpt lat="42.74803" lon="1.76309">
        <ele>999</ele>
        <time>2016-09-10T09:16:54Z</time>
      </trkpt>
      <trkpt lat="42.748" lon="1.7631">
        <ele>999</ele>
        <time>2016-09-10T09:16:57Z</time>
      </trkpt>
      <trkpt lat="42.74799" lon="1.7631">
        <ele>999</ele>
        <time>2016-09-10T09:16:58Z</time>
      </trkpt>
      <trkpt lat="42.74799" lon="1.76309">
        <ele>999</ele>
        <time>2016-09-10T09:16:59Z</time>
      </trkpt>
      <trkpt lat="42.74798" lon="1.76309">
        <ele>999</ele>
        <time>2016-09-10T09:17:00Z</time>
      </trkpt>
      <trkpt lat="42.74798" lon="1.76309">
        <ele>999</ele>
        <time>2016-09-10T09:17:01Z</time>
      </trkpt>
      <trkpt lat="42.74797" lon="1.76308">
        <ele>999</ele>
        <time>2016-09-10T09:17:03Z</time>
      </trkpt>
      <trkpt lat="42.74795" lon="1.76308">
        <ele>999</ele>
        <time>2016-09-10T09:17:09Z</time>
      </trkpt>
      <trkpt lat="42.74795" lon="1.76308">
        <ele>999</ele>
        <time>2016-09-10T09:17:10Z</time>
      </trkpt>
      <trkpt lat="42.74795" lon="1.76308">
        <ele>999</ele>
        <time>2016-09-10T09:17:11Z</time>
      </trkpt>
      <trkpt lat="42.74795" lon="1.76308">
        <ele>999</ele>
        <time>2016-09-10T09:17:12Z</time>
      </trkpt>
      <trkpt lat="42.74795" lon="1.76308">
        <ele>999</ele>
        <time>2016-09-10T09:17:13Z</time>
      </trkpt>
      <trkpt lat="42.74795" lon="1.76308">
        <ele>999</ele>
        <time>2016-09-10T09:17:14Z</time>
      </trkpt>
      <trkpt lat="42.74795" lon="1.76308">
        <ele>999</ele>
        <time>2016-09-10T09:17:22Z</time>
      </trkpt>
      <trkpt lat="42.74787" lon="1.76307">
        <ele>998</ele>
        <time>2016-09-10T09:17:26Z</time>
      </trkpt>
      <trkpt lat="42.74786" lon="1.76307">
        <ele>998</ele>
        <time>2016-09-10T09:17:27Z</time>
      </trkpt>
      <trkpt lat="42.74785" lon="1.76308">
        <ele>998</ele>
        <time>2016-09-10T09:17:28Z</time>
      </trkpt>
      <trkpt lat="42.74784" lon="1.76308">
        <ele>998</ele>
        <time>2016-09-10T09:17:29Z</time>
      </trkpt>
      <trkpt lat="42.74784" lon="1.76308">
        <ele>998</ele>
        <time>2016-09-10T09:17:30Z</time>
      </trkpt>
      <trkpt lat="42.74784" lon="1.76308">
        <ele>998</ele>
        <time>2016-09-10T09:17:31Z</time>
      </trkpt>
      <trkpt lat="42.74785" lon="1.76308">
        <ele>998</ele>
        <time>2016-09-10T09:17:42Z</time>
      </trkpt>
      <trkpt lat="42.74784" lon="1.7631">
        <ele>997</ele>
        <time>2016-09-10T09:17:50Z</time>
      </trkpt>
      <trkpt lat="42.74781" lon="1.76306">
        <ele>998</ele>
        <time>2016-09-10T09:17:57Z</time>
      </trkpt>
      <trkpt lat="42.74778" lon="1.76307">
        <ele>997</ele>
        <time>2016-09-10T09:18:03Z</time>
      </trkpt>
      <trkpt lat="42.74778" lon="1.76307">
        <ele>997</ele>
        <time>2016-09-10T09:18:04Z</time>
      </trkpt>
      <trkpt lat="42.74778" lon="1.76307">
        <ele>997</ele>
        <time>2016-09-10T09:18:05Z</time>
      </trkpt>
      <trkpt lat="42.74778" lon="1.76307">
        <ele>997</ele>
        <time>2016-09-10T09:18:06Z</time>
      </trkpt>
      <trkpt lat="42.74776" lon="1.76305">
        <ele>998</ele>
        <time>2016-09-10T09:18:14Z</time>
      </trkpt>
      <trkpt lat="42.74787" lon="1.76309">
        <ele>997</ele>
        <time>2016-09-10T09:18:37Z</time>
      </trkpt>
      <trkpt lat="42.74791" lon="1.76306">
        <ele>999</ele>
        <time>2016-09-10T09:18:44Z</time>
      </trkpt>
      <trkpt lat="42.74792" lon="1.76305">
        <ele>999</ele>
        <time>2016-09-10T09:18:45Z</time>
      </trkpt>
      <trkpt lat="42.74792" lon="1.76305">
        <ele>999</ele>
        <time>2016-09-10T09:18:46Z</time>
      </trkpt>
      <trkpt lat="42.74793" lon="1.76305">
        <ele>1000</ele>
        <time>2016-09-10T09:18:47Z</time>
      </trkpt>
      <trkpt lat="42.74794" lon="1.76304">
        <ele>1000</ele>
        <time>2016-09-10T09:18:48Z</time>
      </trkpt>
      <trkpt lat="42.74794" lon="1.76302">
        <ele>1001</ele>
        <time>2016-09-10T09:18:56Z</time>
      </trkpt>
      <trkpt lat="42.74794" lon="1.76302">
        <ele>1001</ele>
        <time>2016-09-10T09:18:58Z</time>
      </trkpt>
      <trkpt lat="42.74794" lon="1.76302">
        <ele>1001</ele>
        <time>2016-09-10T09:18:59Z</time>
      </trkpt>
      <trkpt lat="42.74794" lon="1.76302">
        <ele>1001</ele>
        <time>2016-09-10T09:19:00Z</time>
      </trkpt>
      <trkpt lat="42.74794" lon="1.76301">
        <ele>1001</ele>
        <time>2016-09-10T09:19:01Z</time>
      </trkpt>
      <trkpt lat="42.74795" lon="1.763">
        <ele>1001</ele>
        <time>2016-09-10T09:19:02Z</time>
      </trkpt>
      <trkpt lat="42.74797" lon="1.76297">
        <ele>1003</ele>
        <time>2016-09-10T09:19:07Z</time>
      </trkpt>
      <trkpt lat="42.74797" lon="1.76297">
        <ele>1003</ele>
        <time>2016-09-10T09:19:11Z</time>
      </trkpt>
      <trkpt lat="42.74798" lon="1.76298">
        <ele>1002</ele>
        <time>2016-09-10T09:19:12Z</time>
      </trkpt>
      <trkpt lat="42.74799" lon="1.76299">
        <ele>1002</ele>
        <time>2016-09-10T09:19:13Z</time>
      </trkpt>
      <trkpt lat="42.748" lon="1.76299">
        <ele>1002</ele>
        <time>2016-09-10T09:19:14Z</time>
      </trkpt>
      <trkpt lat="42.74801" lon="1.763">
        <ele>1002</ele>
        <time>2016-09-10T09:19:15Z</time>
      </trkpt>
      <trkpt lat="42.74804" lon="1.763">
        <ele>1002</ele>
        <time>2016-09-10T09:19:25Z</time>
      </trkpt>
      <trkpt lat="42.74805" lon="1.76299">
        <ele>1003</ele>
        <time>2016-09-10T09:19:26Z</time>
      </trkpt>
      <trkpt lat="42.74807" lon="1.76299">
        <ele>1003</ele>
        <time>2016-09-10T09:19:27Z</time>
      </trkpt>
      <trkpt lat="42.74809" lon="1.76299">
        <ele>1003</ele>
        <time>2016-09-10T09:19:28Z</time>
      </trkpt>
      <trkpt lat="42.74811" lon="1.76299">
        <ele>1003</ele>
        <time>2016-09-10T09:19:29Z</time>
      </trkpt>
      <trkpt lat="42.74813" lon="1.76299">
        <ele>1004</ele>
        <time>2016-09-10T09:19:30Z</time>
      </trkpt>
      <trkpt lat="42.74818" lon="1.76299">
        <ele>1004</ele>
        <time>2016-09-10T09:19:35Z</time>
      </trkpt>
      <trkpt lat="42.74824" lon="1.76301">
        <ele>1004</ele>
        <time>2016-09-10T09:19:43Z</time>
      </trkpt>
      <trkpt lat="42.74824" lon="1.76301">
        <ele>1004</ele>
        <time>2016-09-10T09:19:44Z</time>
      </trkpt>
      <trkpt lat="42.74824" lon="1.76301">
        <ele>1004</ele>
        <time>2016-09-10T09:19:45Z</time>
      </trkpt>
      <trkpt lat="42.74824" lon="1.76301">
        <ele>1004</ele>
        <time>2016-09-10T09:19:46Z</time>
      </trkpt>
      <trkpt lat="42.7483" lon="1.76305">
        <ele>1004</ele>
        <time>2016-09-10T09:19:53Z</time>
      </trkpt>
      <trkpt lat="42.74839" lon="1.76301">
        <ele>1006</ele>
        <time>2016-09-10T09:20:03Z</time>
      </trkpt>
      <trkpt lat="42.7484" lon="1.76302">
        <ele>1006</ele>
        <time>2016-09-10T09:20:13Z</time>
      </trkpt>
      <trkpt lat="42.7484" lon="1.76302">
        <ele>1006</ele>
        <time>2016-09-10T09:20:15Z</time>
      </trkpt>
      <trkpt lat="42.7484" lon="1.76302">
        <ele>1006</ele>
        <time>2016-09-10T09:20:16Z</time>
      </trkpt>
      <trkpt lat="42.7484" lon="1.76302">
        <ele>1006</ele>
        <time>2016-09-10T09:20:17Z</time>
      </trkpt>
      <trkpt lat="42.7484" lon="1.76302">
        <ele>1006</ele>
        <time>2016-09-10T09:20:18Z</time>
      </trkpt>
      <trkpt lat="42.74841" lon="1.76303">
        <ele>1006</ele>
        <time>2016-09-10T09:20:19Z</time>
      </trkpt>
      <trkpt lat="42.74843" lon="1.76303">
        <ele>1006</ele>
        <time>2016-09-10T09:20:21Z</time>
      </trkpt>
      <trkpt lat="42.74845" lon="1.76301">
        <ele>1007</ele>
        <time>2016-09-10T09:20:31Z</time>
      </trkpt>
      <trkpt lat="42.74844" lon="1.76299">
        <ele>1007</ele>
        <time>2016-09-10T09:20:33Z</time>
      </trkpt>
      <trkpt lat="42.74846" lon="1.76295">
        <ele>1009</ele>
        <time>2016-09-10T09:20:39Z</time>
      </trkpt>
      <trkpt lat="42.74846" lon="1.76295">
        <ele>1009</ele>
        <time>2016-09-10T09:20:40Z</time>
      </trkpt>
      <trkpt lat="42.74846" lon="1.76294">
        <ele>1009</ele>
        <time>2016-09-10T09:20:41Z</time>
      </trkpt>
      <trkpt lat="42.74846" lon="1.76292">
        <ele>1009</ele>
        <time>2016-09-10T09:20:42Z</time>
      </trkpt>
      <trkpt lat="42.74846" lon="1.76291">
        <ele>1010</ele>
        <time>2016-09-10T09:20:43Z</time>
      </trkpt>
      <trkpt lat="42.74845" lon="1.76289">
        <ele>1010</ele>
        <time>2016-09-10T09:20:44Z</time>
      </trkpt>
      <trkpt lat="42.74846" lon="1.76285">
        <ele>1012</ele>
        <time>2016-09-10T09:20:47Z</time>
      </trkpt>
      <trkpt lat="42.74846" lon="1.76276">
        <ele>1014</ele>
        <time>2016-09-10T09:20:56Z</time>
      </trkpt>
      <trkpt lat="42.74844" lon="1.76277">
        <ele>1014</ele>
        <time>2016-09-10T09:21:06Z</time>
      </trkpt>
      <trkpt lat="42.74852" lon="1.76278">
        <ele>1014</ele>
        <time>2016-09-10T09:21:15Z</time>
      </trkpt>
      <trkpt lat="42.74862" lon="1.76277">
        <ele>1016</ele>
        <time>2016-09-10T09:21:25Z</time>
      </trkpt>
      <trkpt lat="42.74866" lon="1.7628">
        <ele>1015</ele>
        <time>2016-09-10T09:21:34Z</time>
      </trkpt>
      <trkpt lat="42.7487" lon="1.76279">
        <ele>1016</ele>
        <time>2016-09-10T09:21:44Z</time>
      </trkpt>
      <trkpt lat="42.74869" lon="1.76285">
        <ele>1014</ele>
        <time>2016-09-10T09:21:52Z</time>
      </trkpt>
      <trkpt lat="42.74867" lon="1.7629">
        <ele>1013</ele>
        <time>2016-09-10T09:21:59Z</time>
      </trkpt>
      <trkpt lat="42.74862" lon="1.76297">
        <ele>1010</ele>
        <time>2016-09-10T09:22:07Z</time>
      </trkpt>
      <trkpt lat="42.74858" lon="1.76299">
        <ele>1009</ele>
        <time>2016-09-10T09:22:14Z</time>
      </trkpt>
      <trkpt lat="42.74851" lon="1.76302">
        <ele>1007</ele>
        <time>2016-09-10T09:22:23Z</time>
      </trkpt>
      <trkpt lat="42.74851" lon="1.76304">
        <ele>1007</ele>
        <time>2016-09-10T09:22:28Z</time>
      </trkpt>
      <trkpt lat="42.74851" lon="1.76304">
        <ele>1007</ele>
        <time>2016-09-10T09:22:29Z</time>
      </trkpt>
      <trkpt lat="42.74851" lon="1.76304">
        <ele>1007</ele>
        <time>2016-09-10T09:22:30Z</time>
      </trkpt>
      <trkpt lat="42.74851" lon="1.76304">
        <ele>1007</ele>
        <time>2016-09-10T09:22:31Z</time>
      </trkpt>
      <trkpt lat="42.74851" lon="1.76304">
        <ele>1007</ele>
        <time>2016-09-10T09:22:32Z</time>
      </trkpt>
      <trkpt lat="42.74851" lon="1.76304">
        <ele>1007</ele>
        <time>2016-09-10T09:22:40Z</time>
      </trkpt>
      <trkpt lat="42.74851" lon="1.76305">
        <ele>1007</ele>
        <time>2016-09-10T09:22:50Z</time>
      </trkpt>
      <trkpt lat="42.74851" lon="1.76305">
        <ele>1007</ele>
        <time>2016-09-10T09:22:55Z</time>
      </trkpt>
      <trkpt lat="42.74851" lon="1.76305">
        <ele>1007</ele>
        <time>2016-09-10T09:22:56Z</time>
      </trkpt>
      <trkpt lat="42.74851" lon="1.76305">
        <ele>1007</ele>
        <time>2016-09-10T09:22:57Z</time>
      </trkpt>
      <trkpt lat="42.74851" lon="1.76305">
        <ele>1007</ele>
        <time>2016-09-10T09:22:58Z</time>
      </trkpt>
      <trkpt lat="42.74851" lon="1.76305">
        <ele>1007</ele>
        <time>2016-09-10T09:22:59Z</time>
      </trkpt>
      <trkpt lat="42.74851" lon="1.76304">
        <ele>1007</ele>
        <time>2016-09-10T09:23:00Z</time>
      </trkpt>
      <trkpt lat="42.74852" lon="1.76304">
        <ele>1007</ele>
        <time>2016-09-10T09:23:01Z</time>
      </trkpt>
      <trkpt lat="42.74851" lon="1.76304">
        <ele>1007</ele>
        <time>2016-09-10T09:23:02Z</time>
      </trkpt>
      <trkpt lat="42.74848" lon="1.763">
        <ele>1008</ele>
        <time>2016-09-10T09:23:11Z</time>
      </trkpt>
      <trkpt lat="42.74845" lon="1.76305">
        <ele>1006</ele>
        <time>2016-09-10T09:23:19Z</time>
      </trkpt>
      <trkpt lat="42.74839" lon="1.76307">
        <ele>1004</ele>
        <time>2016-09-10T09:23:27Z</time>
      </trkpt>
      <trkpt lat="42.74838" lon="1.76303">
        <ele>1005</ele>
        <time>2016-09-10T09:23:35Z</time>
      </trkpt>
      <trkpt lat="42.74838" lon="1.76303">
        <ele>1005</ele>
        <time>2016-09-10T09:23:36Z</time>
      </trkpt>
      <trkpt lat="42.74838" lon="1.76303">
        <ele>1005</ele>
        <time>2016-09-10T09:23:37Z</time>
      </trkpt>
      <trkpt lat="42.74838" lon="1.76303">
        <ele>1005</ele>
        <time>2016-09-10T09:23:38Z</time>
      </trkpt>
      <trkpt lat="42.74838" lon="1.76303">
        <ele>1005</ele>
        <time>2016-09-10T09:23:39Z</time>
      </trkpt>
      <trkpt lat="42.74838" lon="1.76301">
        <ele>1006</ele>
        <time>2016-09-10T09:23:45Z</time>
      </trkpt>
      <trkpt lat="42.74836" lon="1.76298">
        <ele>1007</ele>
        <time>2016-09-10T09:23:51Z</time>
      </trkpt>
      <trkpt lat="42.74836" lon="1.76298">
        <ele>1007</ele>
        <time>2016-09-10T09:24:02Z</time>
      </trkpt>
      <trkpt lat="42.74834" lon="1.76295">
        <ele>1007</ele>
        <time>2016-09-10T09:24:10Z</time>
      </trkpt>
      <trkpt lat="42.74832" lon="1.76292">
        <ele>1008</ele>
        <time>2016-09-10T09:24:17Z</time>
      </trkpt>
      <trkpt lat="42.74832" lon="1.76292">
        <ele>1008</ele>
        <time>2016-09-10T09:24:18Z</time>
      </trkpt>
      <trkpt lat="42.74832" lon="1.76292">
        <ele>1008</ele>
        <time>2016-09-10T09:24:19Z</time>
      </trkpt>
      <trkpt lat="42.74832" lon="1.76292">
        <ele>1008</ele>
        <time>2016-09-10T09:24:20Z</time>
      </trkpt>
      <trkpt lat="42.74832" lon="1.76292">
        <ele>1008</ele>
        <time>2016-09-10T09:24:21Z</time>
      </trkpt>
      <trkpt lat="42.74833" lon="1.7629">
        <ele>1009</ele>
        <time>2016-09-10T09:24:30Z</time>
      </trkpt>
      <trkpt lat="42.74839" lon="1.76285">
        <ele>1011</ele>
        <time>2016-09-10T09:24:38Z</time>
      </trkpt>
      <trkpt lat="42.74838" lon="1.76286">
        <ele>1010</ele>
        <time>2016-09-10T09:24:43Z</time>
      </trkpt>
      <trkpt lat="42.74842" lon="1.76283">
        <ele>1012</ele>
        <time>2016-09-10T09:24:51Z</time>
      </trkpt>
      <trkpt lat="42.7485" lon="1.76278">
        <ele>1014</ele>
        <time>2016-09-10T09:25:00Z</time>
      </trkpt>
      <trkpt lat="42.7486" lon="1.76278">
        <ele>1015</ele>
        <time>2016-09-10T09:25:09Z</time>
      </trkpt>
      <trkpt lat="42.74868" lon="1.76278">
        <ele>1016</ele>
        <time>2016-09-10T09:25:18Z</time>
      </trkpt>
      <trkpt lat="42.74873" lon="1.76277">
        <ele>1016</ele>
        <time>2016-09-10T09:25:25Z</time>
      </trkpt>
      <trkpt lat="42.74877" lon="1.76277">
        <ele>1017</ele>
        <time>2016-09-10T09:25:33Z</time>
      </trkpt>
      <trkpt lat="42.7488" lon="1.76278">
        <ele>1017</ele>
        <time>2016-09-10T09:25:44Z</time>
      </trkpt>
      <trkpt lat="42.7488" lon="1.76278">
        <ele>1017</ele>
        <time>2016-09-10T09:25:50Z</time>
      </trkpt>
      <trkpt lat="42.74882" lon="1.76277">
        <ele>1017</ele>
        <time>2016-09-10T09:25:51Z</time>
      </trkpt>
      <trkpt lat="42.74882" lon="1.76277">
        <ele>1017</ele>
        <time>2016-09-10T09:25:52Z</time>
      </trkpt>
      <trkpt lat="42.74883" lon="1.76277">
        <ele>1017</ele>
        <time>2016-09-10T09:25:53Z</time>
      </trkpt>
      <trkpt lat="42.74884" lon="1.76276">
        <ele>1017</ele>
        <time>2016-09-10T09:25:54Z</time>
      </trkpt>
      <trkpt lat="42.74884" lon="1.76276">
        <ele>1017</ele>
        <time>2016-09-10T09:25:55Z</time>
      </trkpt>
      <trkpt lat="42.74887" lon="1.76272">
        <ele>1018</ele>
        <time>2016-09-10T09:26:03Z</time>
      </trkpt>
      <trkpt lat="42.74888" lon="1.76272">
        <ele>1018</ele>
        <time>2016-09-10T09:26:04Z</time>
      </trkpt>
      <trkpt lat="42.74888" lon="1.76271">
        <ele>1019</ele>
        <time>2016-09-10T09:26:05Z</time>
      </trkpt>
      <trkpt lat="42.74888" lon="1.76271">
        <ele>1019</ele>
        <time>2016-09-10T09:26:06Z</time>
      </trkpt>
      <trkpt lat="42.74888" lon="1.76271">
        <ele>1019</ele>
        <time>2016-09-10T09:26:07Z</time>
      </trkpt>
      <trkpt lat="42.74888" lon="1.76271">
        <ele>1019</ele>
        <time>2016-09-10T09:26:08Z</time>
      </trkpt>
      <trkpt lat="42.74888" lon="1.76272">
        <ele>1018</ele>
        <time>2016-09-10T09:26:11Z</time>
      </trkpt>
      <trkpt lat="42.74893" lon="1.76274">
        <ele>1018</ele>
        <time>2016-09-10T09:26:19Z</time>
      </trkpt>
      <trkpt lat="42.74902" lon="1.76264">
        <ele>1021</ele>
        <time>2016-09-10T09:26:30Z</time>
      </trkpt>
      <trkpt lat="42.74904" lon="1.76263">
        <ele>1021</ele>
        <time>2016-09-10T09:26:32Z</time>
      </trkpt>
      <trkpt lat="42.74905" lon="1.76261">
        <ele>1022</ele>
        <time>2016-09-10T09:26:33Z</time>
      </trkpt>
      <trkpt lat="42.74906" lon="1.7626">
        <ele>1022</ele>
        <time>2016-09-10T09:26:34Z</time>
      </trkpt>
      <trkpt lat="42.74906" lon="1.76259">
        <ele>1023</ele>
        <time>2016-09-10T09:26:35Z</time>
      </trkpt>
      <trkpt lat="42.74907" lon="1.76258">
        <ele>1023</ele>
        <time>2016-09-10T09:26:36Z</time>
      </trkpt>
      <trkpt lat="42.74908" lon="1.76255">
        <ele>1024</ele>
        <time>2016-09-10T09:26:41Z</time>
      </trkpt>
      <trkpt lat="42.7491" lon="1.76253">
        <ele>1025</ele>
        <time>2016-09-10T09:26:51Z</time>
      </trkpt>
      <trkpt lat="42.7491" lon="1.76253">
        <ele>1025</ele>
        <time>2016-09-10T09:26:52Z</time>
      </trkpt>
      <trkpt lat="42.7491" lon="1.76253">
        <ele>1025</ele>
        <time>2016-09-10T09:26:53Z</time>
      </trkpt>
      <trkpt lat="42.7491" lon="1.76253">
        <ele>1025</ele>
        <time>2016-09-10T09:26:54Z</time>
      </trkpt>
      <trkpt lat="42.7491" lon="1.76253">
        <ele>1025</ele>
        <time>2016-09-10T09:26:55Z</time>
      </trkpt>
      <trkpt lat="42.7491" lon="1.76252">
        <ele>1025</ele>
        <time>2016-09-10T09:27:02Z</time>
      </trkpt>
      <trkpt lat="42.74914" lon="1.76244">
        <ele>1027</ele>
        <time>2016-09-10T09:27:12Z</time>
      </trkpt>
      <trkpt lat="42.74914" lon="1.76244">
        <ele>1027</ele>
        <time>2016-09-10T09:27:13Z</time>
      </trkpt>
      <trkpt lat="42.74914" lon="1.76243">
        <ele>1028</ele>
        <time>2016-09-10T09:27:14Z</time>
      </trkpt>
      <trkpt lat="42.74914" lon="1.76242">
        <ele>1028</ele>
        <time>2016-09-10T09:27:15Z</time>
      </trkpt>
      <trkpt lat="42.74915" lon="1.76241">
        <ele>1028</ele>
        <time>2016-09-10T09:27:16Z</time>
      </trkpt>
      <trkpt lat="42.74918" lon="1.76238">
        <ele>1029</ele>
        <time>2016-09-10T09:27:22Z</time>
      </trkpt>
      <trkpt lat="42.7492" lon="1.76235">
        <ele>1030</ele>
        <time>2016-09-10T09:27:25Z</time>
      </trkpt>
      <trkpt lat="42.7492" lon="1.76235">
        <ele>1030</ele>
        <time>2016-09-10T09:27:26Z</time>
      </trkpt>
      <trkpt lat="42.7492" lon="1.76234">
        <ele>1030</ele>
        <time>2016-09-10T09:27:27Z</time>
      </trkpt>
      <trkpt lat="42.74921" lon="1.76233">
        <ele>1030</ele>
        <time>2016-09-10T09:27:28Z</time>
      </trkpt>
      <trkpt lat="42.74921" lon="1.76232">
        <ele>1031</ele>
        <time>2016-09-10T09:27:29Z</time>
      </trkpt>
      <trkpt lat="42.74924" lon="1.76228">
        <ele>1032</ele>
        <time>2016-09-10T09:27:32Z</time>
      </trkpt>
      <trkpt lat="42.74925" lon="1.76224">
        <ele>1033</ele>
        <time>2016-09-10T09:27:36Z</time>
      </trkpt>
      <trkpt lat="42.74925" lon="1.76224">
        <ele>1033</ele>
        <time>2016-09-10T09:27:37Z</time>
      </trkpt>
      <trkpt lat="42.74926" lon="1.76223">
        <ele>1033</ele>
        <time>2016-09-10T09:27:38Z</time>
      </trkpt>
      <trkpt lat="42.74927" lon="1.76223">
        <ele>1034</ele>
        <time>2016-09-10T09:27:39Z</time>
      </trkpt>
      <trkpt lat="42.74927" lon="1.76222">
        <ele>1034</ele>
        <time>2016-09-10T09:27:40Z</time>
      </trkpt>
      <trkpt lat="42.74928" lon="1.76222">
        <ele>1034</ele>
        <time>2016-09-10T09:27:41Z</time>
      </trkpt>
      <trkpt lat="42.74928" lon="1.76214">
        <ele>1036</ele>
        <time>2016-09-10T09:27:49Z</time>
      </trkpt>
      <trkpt lat="42.74928" lon="1.76214">
        <ele>1036</ele>
        <time>2016-09-10T09:27:50Z</time>
      </trkpt>
      <trkpt lat="42.74928" lon="1.76214">
        <ele>1036</ele>
        <time>2016-09-10T09:27:51Z</time>
      </trkpt>
      <trkpt lat="42.74929" lon="1.76214">
        <ele>1036</ele>
        <time>2016-09-10T09:27:52Z</time>
      </trkpt>
      <trkpt lat="42.74929" lon="1.76214">
        <ele>1036</ele>
        <time>2016-09-10T09:27:53Z</time>
      </trkpt>
      <trkpt lat="42.74931" lon="1.76214">
        <ele>1036</ele>
        <time>2016-09-10T09:27:58Z</time>
      </trkpt>
      <trkpt lat="42.74935" lon="1.76212">
        <ele>1037</ele>
        <time>2016-09-10T09:28:03Z</time>
      </trkpt>
      <trkpt lat="42.74936" lon="1.76212">
        <ele>1037</ele>
        <time>2016-09-10T09:28:04Z</time>
      </trkpt>
      <trkpt lat="42.74937" lon="1.76211">
        <ele>1037</ele>
        <time>2016-09-10T09:28:05Z</time>
      </trkpt>
      <trkpt lat="42.74938" lon="1.76211">
        <ele>1037</ele>
        <time>2016-09-10T09:28:06Z</time>
      </trkpt>
      <trkpt lat="42.74938" lon="1.76211">
        <ele>1037</ele>
        <time>2016-09-10T09:28:07Z</time>
      </trkpt>
      <trkpt lat="42.74938" lon="1.7621">
        <ele>1037</ele>
        <time>2016-09-10T09:28:08Z</time>
      </trkpt>
      <trkpt lat="42.74941" lon="1.76206">
        <ele>1038</ele>
        <time>2016-09-10T09:28:15Z</time>
      </trkpt>
      <trkpt lat="42.74941" lon="1.76206">
        <ele>1039</ele>
        <time>2016-09-10T09:28:16Z</time>
      </trkpt>
      <trkpt lat="42.74942" lon="1.76205">
        <ele>1039</ele>
        <time>2016-09-10T09:28:17Z</time>
      </trkpt>
      <trkpt lat="42.74942" lon="1.76205">
        <ele>1039</ele>
        <time>2016-09-10T09:28:18Z</time>
      </trkpt>
      <trkpt lat="42.74943" lon="1.76205">
        <ele>1039</ele>
        <time>2016-09-10T09:28:19Z</time>
      </trkpt>
      <trkpt lat="42.74944" lon="1.76203">
        <ele>1039</ele>
        <time>2016-09-10T09:28:26Z</time>
      </trkpt>
      <trkpt lat="42.74944" lon="1.76203">
        <ele>1039</ele>
        <time>2016-09-10T09:28:29Z</time>
      </trkpt>
      <trkpt lat="42.74944" lon="1.76203">
        <ele>1039</ele>
        <time>2016-09-10T09:28:32Z</time>
      </trkpt>
      <trkpt lat="42.74946" lon="1.76203">
        <ele>1039</ele>
        <time>2016-09-10T09:28:33Z</time>
      </trkpt>
      <trkpt lat="42.74947" lon="1.76203">
        <ele>1039</ele>
        <time>2016-09-10T09:28:34Z</time>
      </trkpt>
      <trkpt lat="42.74948" lon="1.76203">
        <ele>1039</ele>
        <time>2016-09-10T09:28:35Z</time>
      </trkpt>
      <trkpt lat="42.74948" lon="1.76203">
        <ele>1039</ele>
        <time>2016-09-10T09:28:36Z</time>
      </trkpt>
      <trkpt lat="42.7495" lon="1.76202">
        <ele>1039</ele>
        <time>2016-09-10T09:28:46Z</time>
      </trkpt>
      <trkpt lat="42.74952" lon="1.762">
        <ele>1040</ele>
        <time>2016-09-10T09:28:54Z</time>
      </trkpt>
      <trkpt lat="42.74952" lon="1.76199">
        <ele>1040</ele>
        <time>2016-09-10T09:28:56Z</time>
      </trkpt>
      <trkpt lat="42.74953" lon="1.76199">
        <ele>1041</ele>
        <time>2016-09-10T09:28:57Z</time>
      </trkpt>
      <trkpt lat="42.74954" lon="1.76198">
        <ele>1041</ele>
        <time>2016-09-10T09:28:58Z</time>
      </trkpt>
      <trkpt lat="42.74954" lon="1.76198">
        <ele>1041</ele>
        <time>2016-09-10T09:28:59Z</time>
      </trkpt>
      <trkpt lat="42.74954" lon="1.76198">
        <ele>1041</ele>
        <time>2016-09-10T09:29:00Z</time>
      </trkpt>
      <trkpt lat="42.74954" lon="1.76197">
        <ele>1042</ele>
        <time>2016-09-10T09:29:04Z</time>
      </trkpt>
      <trkpt lat="42.74957" lon="1.76195">
        <ele>1042</ele>
        <time>2016-09-10T09:29:13Z</time>
      </trkpt>
      <trkpt lat="42.74958" lon="1.76194">
        <ele>1042</ele>
        <time>2016-09-10T09:29:17Z</time>
      </trkpt>
      <trkpt lat="42.74958" lon="1.76194">
        <ele>1042</ele>
        <time>2016-09-10T09:29:18Z</time>
      </trkpt>
      <trkpt lat="42.74958" lon="1.76194">
        <ele>1042</ele>
        <time>2016-09-10T09:29:19Z</time>
      </trkpt>
      <trkpt lat="42.74958" lon="1.76194">
        <ele>1043</ele>
        <time>2016-09-10T09:29:20Z</time>
      </trkpt>
      <trkpt lat="42.74959" lon="1.76192">
        <ele>1043</ele>
        <time>2016-09-10T09:29:21Z</time>
      </trkpt>
      <trkpt lat="42.74961" lon="1.76189">
        <ele>1045</ele>
        <time>2016-09-10T09:29:31Z</time>
      </trkpt>
      <trkpt lat="42.74961" lon="1.76187">
        <ele>1046</ele>
        <time>2016-09-10T09:29:32Z</time>
      </trkpt>
      <trkpt lat="42.74961" lon="1.76187">
        <ele>1046</ele>
        <time>2016-09-10T09:29:33Z</time>
      </trkpt>
      <trkpt lat="42.74961" lon="1.76186">
        <ele>1046</ele>
        <time>2016-09-10T09:29:34Z</time>
      </trkpt>
      <trkpt lat="42.74961" lon="1.76186">
        <ele>1046</ele>
        <time>2016-09-10T09:29:35Z</time>
      </trkpt>
      <trkpt lat="42.74961" lon="1.76185">
        <ele>1046</ele>
        <time>2016-09-10T09:29:36Z</time>
      </trkpt>
      <trkpt lat="42.74961" lon="1.76185">
        <ele>1046</ele>
        <time>2016-09-10T09:29:38Z</time>
      </trkpt>
      <trkpt lat="42.74962" lon="1.76184">
        <ele>1047</ele>
        <time>2016-09-10T09:29:43Z</time>
      </trkpt>
      <trkpt lat="42.74963" lon="1.76183">
        <ele>1047</ele>
        <time>2016-09-10T09:29:44Z</time>
      </trkpt>
      <trkpt lat="42.74964" lon="1.76182">
        <ele>1048</ele>
        <time>2016-09-10T09:29:45Z</time>
      </trkpt>
      <trkpt lat="42.74964" lon="1.76181">
        <ele>1048</ele>
        <time>2016-09-10T09:29:46Z</time>
      </trkpt>
      <trkpt lat="42.74965" lon="1.7618">
        <ele>1048</ele>
        <time>2016-09-10T09:29:47Z</time>
      </trkpt>
      <trkpt lat="42.74965" lon="1.76174">
        <ele>1051</ele>
        <time>2016-09-10T09:29:55Z</time>
      </trkpt>
      <trkpt lat="42.74966" lon="1.76173">
        <ele>1051</ele>
        <time>2016-09-10T09:30:03Z</time>
      </trkpt>
      <trkpt lat="42.74969" lon="1.7617">
        <ele>1052</ele>
        <time>2016-09-10T09:30:07Z</time>
      </trkpt>
      <trkpt lat="42.7497" lon="1.7617">
        <ele>1052</ele>
        <time>2016-09-10T09:30:08Z</time>
      </trkpt>
      <trkpt lat="42.7497" lon="1.7617">
        <ele>1053</ele>
        <time>2016-09-10T09:30:09Z</time>
      </trkpt>
      <trkpt lat="42.74971" lon="1.76169">
        <ele>1053</ele>
        <time>2016-09-10T09:30:10Z</time>
      </trkpt>
      <trkpt lat="42.74973" lon="1.76164">
        <ele>1055</ele>
        <time>2016-09-10T09:30:17Z</time>
      </trkpt>
      <trkpt lat="42.74973" lon="1.76164">
        <ele>1055</ele>
        <time>2016-09-10T09:30:18Z</time>
      </trkpt>
      <trkpt lat="42.74973" lon="1.76164">
        <ele>1055</ele>
        <time>2016-09-10T09:30:19Z</time>
      </trkpt>
      <trkpt lat="42.74973" lon="1.76164">
        <ele>1055</ele>
        <time>2016-09-10T09:30:20Z</time>
      </trkpt>
      <trkpt lat="42.74973" lon="1.76164">
        <ele>1055</ele>
        <time>2016-09-10T09:30:21Z</time>
      </trkpt>
      <trkpt lat="42.7498" lon="1.76161">
        <ele>1056</ele>
        <time>2016-09-10T09:30:26Z</time>
      </trkpt>
      <trkpt lat="42.74984" lon="1.76158">
        <ele>1057</ele>
        <time>2016-09-10T09:30:28Z</time>
      </trkpt>
      <trkpt lat="42.74987" lon="1.76157">
        <ele>1058</ele>
        <time>2016-09-10T09:30:29Z</time>
      </trkpt>
      <trkpt lat="42.74989" lon="1.76156">
        <ele>1058</ele>
        <time>2016-09-10T09:30:30Z</time>
      </trkpt>
      <trkpt lat="42.74991" lon="1.76155">
        <ele>1058</ele>
        <time>2016-09-10T09:30:31Z</time>
      </trkpt>
      <trkpt lat="42.74994" lon="1.76154">
        <ele>1059</ele>
        <time>2016-09-10T09:30:32Z</time>
      </trkpt>
      <trkpt lat="42.74995" lon="1.76154">
        <ele>1059</ele>
        <time>2016-09-10T09:30:33Z</time>
      </trkpt>
      <trkpt lat="42.74995" lon="1.76153">
        <ele>1060</ele>
        <time>2016-09-10T09:30:42Z</time>
      </trkpt>
      <trkpt lat="42.74994" lon="1.76153">
        <ele>1059</ele>
        <time>2016-09-10T09:30:43Z</time>
      </trkpt>
      <trkpt lat="42.74995" lon="1.76153">
        <ele>1059</ele>
        <time>2016-09-10T09:30:44Z</time>
      </trkpt>
      <trkpt lat="42.74994" lon="1.76152">
        <ele>1060</ele>
        <time>2016-09-10T09:30:45Z</time>
      </trkpt>
      <trkpt lat="42.74993" lon="1.76151">
        <ele>1060</ele>
        <time>2016-09-10T09:30:46Z</time>
      </trkpt>
      <trkpt lat="42.74993" lon="1.7615">
        <ele>1060</ele>
        <time>2016-09-10T09:30:52Z</time>
      </trkpt>
      <trkpt lat="42.74996" lon="1.7615">
        <ele>1060</ele>
        <time>2016-09-10T09:31:00Z</time>
      </trkpt>
      <trkpt lat="42.74997" lon="1.7615">
        <ele>1061</ele>
        <time>2016-09-10T09:31:01Z</time>
      </trkpt>
      <trkpt lat="42.74997" lon="1.7615">
        <ele>1061</ele>
        <time>2016-09-10T09:31:02Z</time>
      </trkpt>
      <trkpt lat="42.74997" lon="1.7615">
        <ele>1061</ele>
        <time>2016-09-10T09:31:03Z</time>
      </trkpt>
      <trkpt lat="42.74997" lon="1.7615">
        <ele>1061</ele>
        <time>2016-09-10T09:31:04Z</time>
      </trkpt>
      <trkpt lat="42.75002" lon="1.76148">
        <ele>1062</ele>
        <time>2016-09-10T09:31:12Z</time>
      </trkpt>
      <trkpt lat="42.75004" lon="1.76147">
        <ele>1062</ele>
        <time>2016-09-10T09:31:13Z</time>
      </trkpt>
      <trkpt lat="42.75005" lon="1.76147">
        <ele>1062</ele>
        <time>2016-09-10T09:31:14Z</time>
      </trkpt>
      <trkpt lat="42.75006" lon="1.76146">
        <ele>1062</ele>
        <time>2016-09-10T09:31:15Z</time>
      </trkpt>
      <trkpt lat="42.75007" lon="1.76146">
        <ele>1062</ele>
        <time>2016-09-10T09:31:16Z</time>
      </trkpt>
      <trkpt lat="42.75011" lon="1.76143">
        <ele>1063</ele>
        <time>2016-09-10T09:31:22Z</time>
      </trkpt>
      <trkpt lat="42.75013" lon="1.76142">
        <ele>1063</ele>
        <time>2016-09-10T09:31:26Z</time>
      </trkpt>
      <trkpt lat="42.75013" lon="1.76141">
        <ele>1064</ele>
        <time>2016-09-10T09:31:27Z</time>
      </trkpt>
      <trkpt lat="42.75014" lon="1.7614">
        <ele>1064</ele>
        <time>2016-09-10T09:31:28Z</time>
      </trkpt>
      <trkpt lat="42.75014" lon="1.76139">
        <ele>1064</ele>
        <time>2016-09-10T09:31:29Z</time>
      </trkpt>
      <trkpt lat="42.75015" lon="1.76139">
        <ele>1064</ele>
        <time>2016-09-10T09:31:30Z</time>
      </trkpt>
      <trkpt lat="42.75015" lon="1.76138">
        <ele>1065</ele>
        <time>2016-09-10T09:31:31Z</time>
      </trkpt>
      <trkpt lat="42.75018" lon="1.76134">
        <ele>1066</ele>
        <time>2016-09-10T09:31:36Z</time>
      </trkpt>
      <trkpt lat="42.75019" lon="1.76133">
        <ele>1066</ele>
        <time>2016-09-10T09:31:37Z</time>
      </trkpt>
      <trkpt lat="42.75019" lon="1.76132">
        <ele>1067</ele>
        <time>2016-09-10T09:31:38Z</time>
      </trkpt>
      <trkpt lat="42.75019" lon="1.76131">
        <ele>1067</ele>
        <time>2016-09-10T09:31:39Z</time>
      </trkpt>
      <trkpt lat="42.75019" lon="1.7613">
        <ele>1067</ele>
        <time>2016-09-10T09:31:40Z</time>
      </trkpt>
      <trkpt lat="42.75024" lon="1.76126">
        <ele>1069</ele>
        <time>2016-09-10T09:31:48Z</time>
      </trkpt>
      <trkpt lat="42.75025" lon="1.76125">
        <ele>1069</ele>
        <time>2016-09-10T09:31:49Z</time>
      </trkpt>
      <trkpt lat="42.75025" lon="1.76124">
        <ele>1069</ele>
        <time>2016-09-10T09:31:50Z</time>
      </trkpt>
      <trkpt lat="42.75025" lon="1.76123">
        <ele>1069</ele>
        <time>2016-09-10T09:31:51Z</time>
      </trkpt>
      <trkpt lat="42.75026" lon="1.76122">
        <ele>1070</ele>
        <time>2016-09-10T09:31:52Z</time>
      </trkpt>
      <trkpt lat="42.75026" lon="1.76122">
        <ele>1070</ele>
        <time>2016-09-10T09:31:53Z</time>
      </trkpt>
      <trkpt lat="42.75027" lon="1.76121">
        <ele>1070</ele>
        <time>2016-09-10T09:31:57Z</time>
      </trkpt>
      <trkpt lat="42.75027" lon="1.76119">
        <ele>1071</ele>
        <time>2016-09-10T09:32:02Z</time>
      </trkpt>
      <trkpt lat="42.75027" lon="1.76118">
        <ele>1071</ele>
        <time>2016-09-10T09:32:03Z</time>
      </trkpt>
      <trkpt lat="42.75027" lon="1.76118">
        <ele>1071</ele>
        <time>2016-09-10T09:32:04Z</time>
      </trkpt>
      <trkpt lat="42.75027" lon="1.76118">
        <ele>1071</ele>
        <time>2016-09-10T09:32:05Z</time>
      </trkpt>
      <trkpt lat="42.75027" lon="1.76118">
        <ele>1071</ele>
        <time>2016-09-10T09:32:06Z</time>
      </trkpt>
      <trkpt lat="42.75027" lon="1.76118">
        <ele>1071</ele>
        <time>2016-09-10T09:32:07Z</time>
      </trkpt>
      <trkpt lat="42.75026" lon="1.76115">
        <ele>1072</ele>
        <time>2016-09-10T09:32:13Z</time>
      </trkpt>
      <trkpt lat="42.75025" lon="1.76114">
        <ele>1073</ele>
        <time>2016-09-10T09:32:14Z</time>
      </trkpt>
      <trkpt lat="42.75025" lon="1.76114">
        <ele>1073</ele>
        <time>2016-09-10T09:32:15Z</time>
      </trkpt>
      <trkpt lat="42.75024" lon="1.76115">
        <ele>1073</ele>
        <time>2016-09-10T09:32:16Z</time>
      </trkpt>
      <trkpt lat="42.75023" lon="1.76115">
        <ele>1073</ele>
        <time>2016-09-10T09:32:17Z</time>
      </trkpt>
      <trkpt lat="42.75019" lon="1.76113">
        <ele>1074</ele>
        <time>2016-09-10T09:32:25Z</time>
      </trkpt>
      <trkpt lat="42.75019" lon="1.76113">
        <ele>1074</ele>
        <time>2016-09-10T09:32:26Z</time>
      </trkpt>
      <trkpt lat="42.75019" lon="1.76113">
        <ele>1074</ele>
        <time>2016-09-10T09:32:27Z</time>
      </trkpt>
      <trkpt lat="42.75019" lon="1.76113">
        <ele>1074</ele>
        <time>2016-09-10T09:32:28Z</time>
      </trkpt>
      <trkpt lat="42.75019" lon="1.76112">
        <ele>1074</ele>
        <time>2016-09-10T09:32:29Z</time>
      </trkpt>
      <trkpt lat="42.75018" lon="1.76104">
        <ele>1077</ele>
        <time>2016-09-10T09:32:35Z</time>
      </trkpt>
      <trkpt lat="42.75019" lon="1.761">
        <ele>1078</ele>
        <time>2016-09-10T09:32:38Z</time>
      </trkpt>
      <trkpt lat="42.75019" lon="1.76099">
        <ele>1078</ele>
        <time>2016-09-10T09:32:39Z</time>
      </trkpt>
      <trkpt lat="42.75019" lon="1.76098">
        <ele>1079</ele>
        <time>2016-09-10T09:32:40Z</time>
      </trkpt>
      <trkpt lat="42.7502" lon="1.76097">
        <ele>1079</ele>
        <time>2016-09-10T09:32:41Z</time>
      </trkpt>
      <trkpt lat="42.7502" lon="1.76095">
        <ele>1080</ele>
        <time>2016-09-10T09:32:42Z</time>
      </trkpt>
      <trkpt lat="42.75021" lon="1.76093">
        <ele>1081</ele>
        <time>2016-09-10T09:32:44Z</time>
      </trkpt>
      <trkpt lat="42.75022" lon="1.76085">
        <ele>1083</ele>
        <time>2016-09-10T09:32:52Z</time>
      </trkpt>
      <trkpt lat="42.75021" lon="1.76084">
        <ele>1084</ele>
        <time>2016-09-10T09:32:53Z</time>
      </trkpt>
      <trkpt lat="42.7502" lon="1.76084">
        <ele>1084</ele>
        <time>2016-09-10T09:32:54Z</time>
      </trkpt>
      <trkpt lat="42.7502" lon="1.76083">
        <ele>1084</ele>
        <time>2016-09-10T09:32:55Z</time>
      </trkpt>
      <trkpt lat="42.7502" lon="1.76083">
        <ele>1084</ele>
        <time>2016-09-10T09:32:56Z</time>
      </trkpt>
      <trkpt lat="42.75019" lon="1.76081">
        <ele>1085</ele>
        <time>2016-09-10T09:33:04Z</time>
      </trkpt>
      <trkpt lat="42.75016" lon="1.76072">
        <ele>1088</ele>
        <time>2016-09-10T09:33:10Z</time>
      </trkpt>
      <trkpt lat="42.75014" lon="1.7607">
        <ele>1088</ele>
        <time>2016-09-10T09:33:11Z</time>
      </trkpt>
      <trkpt lat="42.75014" lon="1.76068">
        <ele>1089</ele>
        <time>2016-09-10T09:33:12Z</time>
      </trkpt>
      <trkpt lat="42.75014" lon="1.76068">
        <ele>1089</ele>
        <time>2016-09-10T09:33:13Z</time>
      </trkpt>
      <trkpt lat="42.75013" lon="1.76067">
        <ele>1089</ele>
        <time>2016-09-10T09:33:14Z</time>
      </trkpt>
      <trkpt lat="42.75013" lon="1.76067">
        <ele>1089</ele>
        <time>2016-09-10T09:33:15Z</time>
      </trkpt>
      <trkpt lat="42.75008" lon="1.76064">
        <ele>1090</ele>
        <time>2016-09-10T09:33:22Z</time>
      </trkpt>
      <trkpt lat="42.75008" lon="1.76064">
        <ele>1090</ele>
        <time>2016-09-10T09:33:23Z</time>
      </trkpt>
      <trkpt lat="42.75007" lon="1.76064">
        <ele>1090</ele>
        <time>2016-09-10T09:33:24Z</time>
      </trkpt>
      <trkpt lat="42.75007" lon="1.76064">
        <ele>1091</ele>
        <time>2016-09-10T09:33:25Z</time>
      </trkpt>
      <trkpt lat="42.75007" lon="1.76064">
        <ele>1091</ele>
        <time>2016-09-10T09:33:26Z</time>
      </trkpt>
      <trkpt lat="42.75003" lon="1.76064">
        <ele>1091</ele>
        <time>2016-09-10T09:33:32Z</time>
      </trkpt>
      <trkpt lat="42.75003" lon="1.76064">
        <ele>1091</ele>
        <time>2016-09-10T09:33:33Z</time>
      </trkpt>
      <trkpt lat="42.75003" lon="1.76064">
        <ele>1091</ele>
        <time>2016-09-10T09:33:34Z</time>
      </trkpt>
      <trkpt lat="42.75002" lon="1.76064">
        <ele>1091</ele>
        <time>2016-09-10T09:33:35Z</time>
      </trkpt>
      <trkpt lat="42.75002" lon="1.76064">
        <ele>1091</ele>
        <time>2016-09-10T09:33:36Z</time>
      </trkpt>
      <trkpt lat="42.75002" lon="1.76064">
        <ele>1091</ele>
        <time>2016-09-10T09:33:37Z</time>
      </trkpt>
      <trkpt lat="42.75001" lon="1.76065">
        <ele>1091</ele>
        <time>2016-09-10T09:33:44Z</time>
      </trkpt>
      <trkpt lat="42.75001" lon="1.76065">
        <ele>1091</ele>
        <time>2016-09-10T09:33:46Z</time>
      </trkpt>
      <trkpt lat="42.75" lon="1.76064">
        <ele>1091</ele>
        <time>2016-09-10T09:33:47Z</time>
      </trkpt>
      <trkpt lat="42.75" lon="1.76064">
        <ele>1092</ele>
        <time>2016-09-10T09:33:48Z</time>
      </trkpt>
      <trkpt lat="42.74999" lon="1.76064">
        <ele>1092</ele>
        <time>2016-09-10T09:33:49Z</time>
      </trkpt>
      <trkpt lat="42.74998" lon="1.76063">
        <ele>1092</ele>
        <time>2016-09-10T09:33:50Z</time>
      </trkpt>
      <trkpt lat="42.74995" lon="1.76064">
        <ele>1092</ele>
        <time>2016-09-10T09:33:55Z</time>
      </trkpt>
      <trkpt lat="42.74995" lon="1.76064">
        <ele>1092</ele>
        <time>2016-09-10T09:34:08Z</time>
      </trkpt>
      <trkpt lat="42.74995" lon="1.76064">
        <ele>1092</ele>
        <time>2016-09-10T09:34:23Z</time>
      </trkpt>
      <trkpt lat="42.74995" lon="1.76064">
        <ele>1092</ele>
        <time>2016-09-10T09:34:32Z</time>
      </trkpt>
      <trkpt lat="42.74994" lon="1.76064">
        <ele>1092</ele>
        <time>2016-09-10T09:34:33Z</time>
      </trkpt>
      <trkpt lat="42.74994" lon="1.76064">
        <ele>1092</ele>
        <time>2016-09-10T09:34:34Z</time>
      </trkpt>
      <trkpt lat="42.74993" lon="1.76064">
        <ele>1092</ele>
        <time>2016-09-10T09:34:35Z</time>
      </trkpt>
      <trkpt lat="42.74993" lon="1.76064">
        <ele>1092</ele>
        <time>2016-09-10T09:34:36Z</time>
      </trkpt>
      <trkpt lat="42.74987" lon="1.76065">
        <ele>1092</ele>
        <time>2016-09-10T09:34:42Z</time>
      </trkpt>
      <trkpt lat="42.74986" lon="1.76068">
        <ele>1091</ele>
        <time>2016-09-10T09:34:46Z</time>
      </trkpt>
      <trkpt lat="42.74986" lon="1.76068">
        <ele>1091</ele>
        <time>2016-09-10T09:34:47Z</time>
      </trkpt>
      <trkpt lat="42.74985" lon="1.76069">
        <ele>1091</ele>
        <time>2016-09-10T09:34:48Z</time>
      </trkpt>
      <trkpt lat="42.74985" lon="1.76069">
        <ele>1091</ele>
        <time>2016-09-10T09:34:49Z</time>
      </trkpt>
      <trkpt lat="42.74984" lon="1.7607">
        <ele>1091</ele>
        <time>2016-09-10T09:34:50Z</time>
      </trkpt>
      <trkpt lat="42.74984" lon="1.7607">
        <ele>1091</ele>
        <time>2016-09-10T09:34:51Z</time>
      </trkpt>
      <trkpt lat="42.74981" lon="1.76073">
        <ele>1090</ele>
        <time>2016-09-10T09:34:57Z</time>
      </trkpt>
      <trkpt lat="42.7498" lon="1.76074">
        <ele>1090</ele>
        <time>2016-09-10T09:34:58Z</time>
      </trkpt>
      <trkpt lat="42.7498" lon="1.76074">
        <ele>1090</ele>
        <time>2016-09-10T09:34:59Z</time>
      </trkpt>
      <trkpt lat="42.74979" lon="1.76075">
        <ele>1090</ele>
        <time>2016-09-10T09:35:00Z</time>
      </trkpt>
      <trkpt lat="42.74979" lon="1.76075">
        <ele>1090</ele>
        <time>2016-09-10T09:35:01Z</time>
      </trkpt>
      <trkpt lat="42.74976" lon="1.76077">
        <ele>1089</ele>
        <time>2016-09-10T09:35:07Z</time>
      </trkpt>
      <trkpt lat="42.74973" lon="1.76078">
        <ele>1089</ele>
        <time>2016-09-10T09:35:11Z</time>
      </trkpt>
      <trkpt lat="42.74972" lon="1.76079">
        <ele>1089</ele>
        <time>2016-09-10T09:35:12Z</time>
      </trkpt>
      <trkpt lat="42.74971" lon="1.76079">
        <ele>1088</ele>
        <time>2016-09-10T09:35:13Z</time>
      </trkpt>
      <trkpt lat="42.7497" lon="1.7608">
        <ele>1088</ele>
        <time>2016-09-10T09:35:14Z</time>
      </trkpt>
      <trkpt lat="42.74969" lon="1.7608">
        <ele>1088</ele>
        <time>2016-09-10T09:35:15Z</time>
      </trkpt>
      <trkpt lat="42.74967" lon="1.76081">
        <ele>1088</ele>
        <time>2016-09-10T09:35:17Z</time>
      </trkpt>
      <trkpt lat="42.74959" lon="1.76084">
        <ele>1087</ele>
        <time>2016-09-10T09:35:26Z</time>
      </trkpt>
      <trkpt lat="42.74958" lon="1.76084">
        <ele>1087</ele>
        <time>2016-09-10T09:35:27Z</time>
      </trkpt>
      <trkpt lat="42.74957" lon="1.76084">
        <ele>1087</ele>
        <time>2016-09-10T09:35:28Z</time>
      </trkpt>
      <trkpt lat="42.74957" lon="1.76084">
        <ele>1087</ele>
        <time>2016-09-10T09:35:29Z</time>
      </trkpt>
      <trkpt lat="42.74957" lon="1.76084">
        <ele>1087</ele>
        <time>2016-09-10T09:35:30Z</time>
      </trkpt>
      <trkpt lat="42.7495" lon="1.76085">
        <ele>1087</ele>
        <time>2016-09-10T09:35:36Z</time>
      </trkpt>
      <trkpt lat="42.74946" lon="1.76086">
        <ele>1087</ele>
        <time>2016-09-10T09:35:39Z</time>
      </trkpt>
      <trkpt lat="42.74945" lon="1.76086">
        <ele>1087</ele>
        <time>2016-09-10T09:35:40Z</time>
      </trkpt>
      <trkpt lat="42.74944" lon="1.76087">
        <ele>1087</ele>
        <time>2016-09-10T09:35:41Z</time>
      </trkpt>
      <trkpt lat="42.74943" lon="1.76087">
        <ele>1087</ele>
        <time>2016-09-10T09:35:42Z</time>
      </trkpt>
      <trkpt lat="42.74942" lon="1.76087">
        <ele>1087</ele>
        <time>2016-09-10T09:35:43Z</time>
      </trkpt>
      <trkpt lat="42.7494" lon="1.76087">
        <ele>1087</ele>
        <time>2016-09-10T09:35:45Z</time>
      </trkpt>
      <trkpt lat="42.74935" lon="1.76082">
        <ele>1090</ele>
        <time>2016-09-10T09:35:51Z</time>
      </trkpt>
      <trkpt lat="42.74935" lon="1.76082">
        <ele>1090</ele>
        <time>2016-09-10T09:35:52Z</time>
      </trkpt>
      <trkpt lat="42.74935" lon="1.76082">
        <ele>1090</ele>
        <time>2016-09-10T09:35:53Z</time>
      </trkpt>
      <trkpt lat="42.74934" lon="1.76081">
        <ele>1091</ele>
        <time>2016-09-10T09:35:54Z</time>
      </trkpt>
      <trkpt lat="42.74934" lon="1.76081">
        <ele>1091</ele>
        <time>2016-09-10T09:35:55Z</time>
      </trkpt>
      <trkpt lat="42.74934" lon="1.76081">
        <ele>1091</ele>
        <time>2016-09-10T09:35:56Z</time>
      </trkpt>
      <trkpt lat="42.74934" lon="1.76081">
        <ele>1091</ele>
        <time>2016-09-10T09:36:03Z</time>
      </trkpt>
      <trkpt lat="42.74934" lon="1.76081">
        <ele>1091</ele>
        <time>2016-09-10T09:36:04Z</time>
      </trkpt>
      <trkpt lat="42.74934" lon="1.76081">
        <ele>1091</ele>
        <time>2016-09-10T09:36:05Z</time>
      </trkpt>
      <trkpt lat="42.74935" lon="1.76079">
        <ele>1091</ele>
        <time>2016-09-10T09:36:06Z</time>
      </trkpt>
      <trkpt lat="42.74935" lon="1.76079">
        <ele>1091</ele>
        <time>2016-09-10T09:36:07Z</time>
      </trkpt>
      <trkpt lat="42.74936" lon="1.76065">
        <ele>1096</ele>
        <time>2016-09-10T09:36:14Z</time>
      </trkpt>
      <trkpt lat="42.74936" lon="1.76064">
        <ele>1097</ele>
        <time>2016-09-10T09:36:15Z</time>
      </trkpt>
      <trkpt lat="42.74936" lon="1.76064">
        <ele>1097</ele>
        <time>2016-09-10T09:36:16Z</time>
      </trkpt>
      <trkpt lat="42.74936" lon="1.76064">
        <ele>1097</ele>
        <time>2016-09-10T09:36:17Z</time>
      </trkpt>
      <trkpt lat="42.74936" lon="1.76064">
        <ele>1097</ele>
        <time>2016-09-10T09:36:18Z</time>
      </trkpt>
      <trkpt lat="42.74936" lon="1.76064">
        <ele>1097</ele>
        <time>2016-09-10T09:36:28Z</time>
      </trkpt>
      <trkpt lat="42.74936" lon="1.76064">
        <ele>1097</ele>
        <time>2016-09-10T09:36:29Z</time>
      </trkpt>
      <trkpt lat="42.74936" lon="1.76064">
        <ele>1097</ele>
        <time>2016-09-10T09:36:30Z</time>
      </trkpt>
      <trkpt lat="42.74936" lon="1.76064">
        <ele>1097</ele>
        <time>2016-09-10T09:36:31Z</time>
      </trkpt>
      <trkpt lat="42.74936" lon="1.76064">
        <ele>1097</ele>
        <time>2016-09-10T09:36:32Z</time>
      </trkpt>
      <trkpt lat="42.74933" lon="1.76058">
        <ele>1099</ele>
        <time>2016-09-10T09:36:38Z</time>
      </trkpt>
      <trkpt lat="42.74932" lon="1.76057">
        <ele>1099</ele>
        <time>2016-09-10T09:36:39Z</time>
      </trkpt>
      <trkpt lat="42.74932" lon="1.76056">
        <ele>1100</ele>
        <time>2016-09-10T09:36:40Z</time>
      </trkpt>
      <trkpt lat="42.74932" lon="1.76055">
        <ele>1100</ele>
        <time>2016-09-10T09:36:41Z</time>
      </trkpt>
      <trkpt lat="42.74932" lon="1.76054">
        <ele>1100</ele>
        <time>2016-09-10T09:36:42Z</time>
      </trkpt>
      <trkpt lat="42.74931" lon="1.76054">
        <ele>1101</ele>
        <time>2016-09-10T09:36:43Z</time>
      </trkpt>
      <trkpt lat="42.74931" lon="1.76054">
        <ele>1101</ele>
        <time>2016-09-10T09:36:46Z</time>
      </trkpt>
      <trkpt lat="42.74928" lon="1.76054">
        <ele>1101</ele>
        <time>2016-09-10T09:36:54Z</time>
      </trkpt>
      <trkpt lat="42.74928" lon="1.76054">
        <ele>1101</ele>
        <time>2016-09-10T09:36:55Z</time>
      </trkpt>
      <trkpt lat="42.74927" lon="1.76054">
        <ele>1101</ele>
        <time>2016-09-10T09:36:56Z</time>
      </trkpt>
      <trkpt lat="42.74927" lon="1.76054">
        <ele>1101</ele>
        <time>2016-09-10T09:36:57Z</time>
      </trkpt>
      <trkpt lat="42.74921" lon="1.76052">
        <ele>1102</ele>
        <time>2016-09-10T09:37:06Z</time>
      </trkpt>
      <trkpt lat="42.74921" lon="1.76052">
        <ele>1102</ele>
        <time>2016-09-10T09:37:07Z</time>
      </trkpt>
      <trkpt lat="42.7492" lon="1.76052">
        <ele>1102</ele>
        <time>2016-09-10T09:37:08Z</time>
      </trkpt>
      <trkpt lat="42.7492" lon="1.76052">
        <ele>1103</ele>
        <time>2016-09-10T09:37:09Z</time>
      </trkpt>
      <trkpt lat="42.7492" lon="1.76052">
        <ele>1103</ele>
        <time>2016-09-10T09:37:10Z</time>
      </trkpt>
      <trkpt lat="42.7492" lon="1.76052">
        <ele>1103</ele>
        <time>2016-09-10T09:37:17Z</time>
      </trkpt>
      <trkpt lat="42.7492" lon="1.76052">
        <ele>1103</ele>
        <time>2016-09-10T09:37:18Z</time>
      </trkpt>
      <trkpt lat="42.74919" lon="1.7605">
        <ele>1103</ele>
        <time>2016-09-10T09:37:19Z</time>
      </trkpt>
      <trkpt lat="42.74918" lon="1.76049">
        <ele>1104</ele>
        <time>2016-09-10T09:37:20Z</time>
      </trkpt>
      <trkpt lat="42.74918" lon="1.76049">
        <ele>1104</ele>
        <time>2016-09-10T09:37:21Z</time>
      </trkpt>
      <trkpt lat="42.74914" lon="1.76046">
        <ele>1105</ele>
        <time>2016-09-10T09:37:27Z</time>
      </trkpt>
      <trkpt lat="42.74911" lon="1.76046">
        <ele>1106</ele>
        <time>2016-09-10T09:37:29Z</time>
      </trkpt>
      <trkpt lat="42.74911" lon="1.76045">
        <ele>1106</ele>
        <time>2016-09-10T09:37:30Z</time>
      </trkpt>
      <trkpt lat="42.7491" lon="1.76044">
        <ele>1106</ele>
        <time>2016-09-10T09:37:31Z</time>
      </trkpt>
      <trkpt lat="42.74909" lon="1.76043">
        <ele>1107</ele>
        <time>2016-09-10T09:37:32Z</time>
      </trkpt>
      <trkpt lat="42.74909" lon="1.76043">
        <ele>1107</ele>
        <time>2016-09-10T09:37:33Z</time>
      </trkpt>
      <trkpt lat="42.74908" lon="1.76042">
        <ele>1108</ele>
        <time>2016-09-10T09:37:36Z</time>
      </trkpt>
      <trkpt lat="42.74907" lon="1.76039">
        <ele>1109</ele>
        <time>2016-09-10T09:37:41Z</time>
      </trkpt>
      <trkpt lat="42.74907" lon="1.76038">
        <ele>1109</ele>
        <time>2016-09-10T09:37:42Z</time>
      </trkpt>
      <trkpt lat="42.74907" lon="1.76036">
        <ele>1110</ele>
        <time>2016-09-10T09:37:43Z</time>
      </trkpt>
      <trkpt lat="42.74907" lon="1.76034">
        <ele>1111</ele>
        <time>2016-09-10T09:37:44Z</time>
      </trkpt>
      <trkpt lat="42.74907" lon="1.76033">
        <ele>1111</ele>
        <time>2016-09-10T09:37:45Z</time>
      </trkpt>
      <trkpt lat="42.74907" lon="1.76031">
        <ele>1112</ele>
        <time>2016-09-10T09:37:46Z</time>
      </trkpt>
      <trkpt lat="42.74909" lon="1.76022">
        <ele>1114</ele>
        <time>2016-09-10T09:37:55Z</time>
      </trkpt>
      <trkpt lat="42.7491" lon="1.76021">
        <ele>1114</ele>
        <time>2016-09-10T09:37:57Z</time>
      </trkpt>
      <trkpt lat="42.74911" lon="1.7602">
        <ele>1115</ele>
        <time>2016-09-10T09:37:58Z</time>
      </trkpt>
      <trkpt lat="42.74911" lon="1.76019">
        <ele>1115</ele>
        <time>2016-09-10T09:37:59Z</time>
      </trkpt>
      <trkpt lat="42.74912" lon="1.76018">
        <ele>1115</ele>
        <time>2016-09-10T09:38:00Z</time>
      </trkpt>
      <trkpt lat="42.74912" lon="1.76017">
        <ele>1115</ele>
        <time>2016-09-10T09:38:01Z</time>
      </trkpt>
      <trkpt lat="42.74913" lon="1.76014">
        <ele>1116</ele>
        <time>2016-09-10T09:38:06Z</time>
      </trkpt>
      <trkpt lat="42.74913" lon="1.76014">
        <ele>1116</ele>
        <time>2016-09-10T09:38:09Z</time>
      </trkpt>
      <trkpt lat="42.74911" lon="1.76014">
        <ele>1117</ele>
        <time>2016-09-10T09:38:10Z</time>
      </trkpt>
      <trkpt lat="42.7491" lon="1.76013">
        <ele>1117</ele>
        <time>2016-09-10T09:38:11Z</time>
      </trkpt>
      <trkpt lat="42.74909" lon="1.76012">
        <ele>1118</ele>
        <time>2016-09-10T09:38:12Z</time>
      </trkpt>
      <trkpt lat="42.74907" lon="1.76011">
        <ele>1119</ele>
        <time>2016-09-10T09:38:17Z</time>
      </trkpt>
      <trkpt lat="42.74907" lon="1.76013">
        <ele>1118</ele>
        <time>2016-09-10T09:38:22Z</time>
      </trkpt>
      <trkpt lat="42.74907" lon="1.76013">
        <ele>1118</ele>
        <time>2016-09-10T09:38:23Z</time>
      </trkpt>
      <trkpt lat="42.74907" lon="1.76013">
        <ele>1118</ele>
        <time>2016-09-10T09:38:24Z</time>
      </trkpt>
      <trkpt lat="42.74907" lon="1.76012">
        <ele>1118</ele>
        <time>2016-09-10T09:38:25Z</time>
      </trkpt>
      <trkpt lat="42.74906" lon="1.76012">
        <ele>1119</ele>
        <time>2016-09-10T09:38:26Z</time>
      </trkpt>
      <trkpt lat="42.74906" lon="1.76011">
        <ele>1120</ele>
        <time>2016-09-10T09:38:34Z</time>
      </trkpt>
      <trkpt lat="42.74906" lon="1.76011">
        <ele>1120</ele>
        <time>2016-09-10T09:38:35Z</time>
      </trkpt>
      <trkpt lat="42.74906" lon="1.76011">
        <ele>1120</ele>
        <time>2016-09-10T09:38:36Z</time>
      </trkpt>
      <trkpt lat="42.74906" lon="1.76011">
        <ele>1120</ele>
        <time>2016-09-10T09:38:37Z</time>
      </trkpt>
      <trkpt lat="42.74906" lon="1.76011">
        <ele>1120</ele>
        <time>2016-09-10T09:38:38Z</time>
      </trkpt>
      <trkpt lat="42.74906" lon="1.7601">
        <ele>1120</ele>
        <time>2016-09-10T09:38:46Z</time>
      </trkpt>
      <trkpt lat="42.74906" lon="1.7601">
        <ele>1120</ele>
        <time>2016-09-10T09:38:56Z</time>
      </trkpt>
      <trkpt lat="42.74902" lon="1.76011">
        <ele>1121</ele>
        <time>2016-09-10T09:39:05Z</time>
      </trkpt>
      <trkpt lat="42.74895" lon="1.76009">
        <ele>1123</ele>
        <time>2016-09-10T09:39:14Z</time>
      </trkpt>
      <trkpt lat="42.74894" lon="1.7601">
        <ele>1123</ele>
        <time>2016-09-10T09:39:15Z</time>
      </trkpt>
      <trkpt lat="42.74894" lon="1.7601">
        <ele>1123</ele>
        <time>2016-09-10T09:39:16Z</time>
      </trkpt>
      <trkpt lat="42.74894" lon="1.7601">
        <ele>1123</ele>
        <time>2016-09-10T09:39:17Z</time>
      </trkpt>
      <trkpt lat="42.74894" lon="1.7601">
        <ele>1123</ele>
        <time>2016-09-10T09:39:18Z</time>
      </trkpt>
      <trkpt lat="42.74895" lon="1.76008">
        <ele>1124</ele>
        <time>2016-09-10T09:39:25Z</time>
      </trkpt>
      <trkpt lat="42.74896" lon="1.76003">
        <ele>1125</ele>
        <time>2016-09-10T09:39:33Z</time>
      </trkpt>
      <trkpt lat="42.74897" lon="1.76">
        <ele>1126</ele>
        <time>2016-09-10T09:39:44Z</time>
      </trkpt>
      <trkpt lat="42.74897" lon="1.75998">
        <ele>1127</ele>
        <time>2016-09-10T09:39:46Z</time>
      </trkpt>
      <trkpt lat="42.74897" lon="1.75998">
        <ele>1127</ele>
        <time>2016-09-10T09:39:47Z</time>
      </trkpt>
      <trkpt lat="42.74897" lon="1.75997">
        <ele>1128</ele>
        <time>2016-09-10T09:39:48Z</time>
      </trkpt>
      <trkpt lat="42.74896" lon="1.75995">
        <ele>1128</ele>
        <time>2016-09-10T09:39:49Z</time>
      </trkpt>
      <trkpt lat="42.74896" lon="1.75995">
        <ele>1128</ele>
        <time>2016-09-10T09:39:50Z</time>
      </trkpt>
      <trkpt lat="42.74896" lon="1.75995">
        <ele>1128</ele>
        <time>2016-09-10T09:39:54Z</time>
      </trkpt>
      <trkpt lat="42.74896" lon="1.75995">
        <ele>1128</ele>
        <time>2016-09-10T09:39:57Z</time>
      </trkpt>
      <trkpt lat="42.74896" lon="1.75995">
        <ele>1128</ele>
        <time>2016-09-10T09:39:58Z</time>
      </trkpt>
      <trkpt lat="42.74896" lon="1.75995">
        <ele>1128</ele>
        <time>2016-09-10T09:39:59Z</time>
      </trkpt>
      <trkpt lat="42.74896" lon="1.75995">
        <ele>1128</ele>
        <time>2016-09-10T09:40:00Z</time>
      </trkpt>
      <trkpt lat="42.74896" lon="1.75995">
        <ele>1128</ele>
        <time>2016-09-10T09:40:01Z</time>
      </trkpt>
      <trkpt lat="42.74895" lon="1.75994">
        <ele>1129</ele>
        <time>2016-09-10T09:40:03Z</time>
      </trkpt>
      <trkpt lat="42.74892" lon="1.7599">
        <ele>1132</ele>
        <time>2016-09-10T09:40:10Z</time>
      </trkpt>
      <trkpt lat="42.74892" lon="1.7599">
        <ele>1132</ele>
        <time>2016-09-10T09:40:11Z</time>
      </trkpt>
      <trkpt lat="42.74892" lon="1.7599">
        <ele>1132</ele>
        <time>2016-09-10T09:40:12Z</time>
      </trkpt>
      <trkpt lat="42.74892" lon="1.7599">
        <ele>1132</ele>
        <time>2016-09-10T09:40:13Z</time>
      </trkpt>
      <trkpt lat="42.74891" lon="1.75991">
        <ele>1131</ele>
        <time>2016-09-10T09:40:14Z</time>
      </trkpt>
      <trkpt lat="42.74888" lon="1.75986">
        <ele>1134</ele>
        <time>2016-09-10T09:40:23Z</time>
      </trkpt>
      <trkpt lat="42.74888" lon="1.75986">
        <ele>1134</ele>
        <time>2016-09-10T09:40:24Z</time>
      </trkpt>
      <trkpt lat="42.74888" lon="1.75986">
        <ele>1134</ele>
        <time>2016-09-10T09:40:25Z</time>
      </trkpt>
      <trkpt lat="42.74887" lon="1.75985">
        <ele>1135</ele>
        <time>2016-09-10T09:40:26Z</time>
      </trkpt>
      <trkpt lat="42.74887" lon="1.75985">
        <ele>1135</ele>
        <time>2016-09-10T09:40:27Z</time>
      </trkpt>
      <trkpt lat="42.74887" lon="1.75985">
        <ele>1135</ele>
        <time>2016-09-10T09:40:34Z</time>
      </trkpt>
      <trkpt lat="42.74886" lon="1.75985">
        <ele>1135</ele>
        <time>2016-09-10T09:40:36Z</time>
      </trkpt>
      <trkpt lat="42.74886" lon="1.75985">
        <ele>1135</ele>
        <time>2016-09-10T09:40:37Z</time>
      </trkpt>
      <trkpt lat="42.74886" lon="1.75985">
        <ele>1135</ele>
        <time>2016-09-10T09:40:38Z</time>
      </trkpt>
      <trkpt lat="42.74886" lon="1.75985">
        <ele>1135</ele>
        <time>2016-09-10T09:40:39Z</time>
      </trkpt>
      <trkpt lat="42.74886" lon="1.75985">
        <ele>1135</ele>
        <time>2016-09-10T09:40:40Z</time>
      </trkpt>
      <trkpt lat="42.74886" lon="1.75985">
        <ele>1135</ele>
        <time>2016-09-10T09:40:43Z</time>
      </trkpt>
      <trkpt lat="42.74886" lon="1.75985">
        <ele>1135</ele>
        <time>2016-09-10T09:40:55Z</time>
      </trkpt>
      <trkpt lat="42.74886" lon="1.75985">
        <ele>1135</ele>
        <time>2016-09-10T09:41:07Z</time>
      </trkpt>
      <trkpt lat="42.74886" lon="1.75985">
        <ele>1135</ele>
        <time>2016-09-10T09:41:18Z</time>
      </trkpt>
      <trkpt lat="42.74886" lon="1.75985">
        <ele>1135</ele>
        <time>2016-09-10T09:41:32Z</time>
      </trkpt>
      <trkpt lat="42.74886" lon="1.75985">
        <ele>1135</ele>
        <time>2016-09-10T09:41:34Z</time>
      </trkpt>
      <trkpt lat="42.74886" lon="1.75985">
        <ele>1135</ele>
        <time>2016-09-10T09:41:35Z</time>
      </trkpt>
      <trkpt lat="42.74886" lon="1.75985">
        <ele>1135</ele>
        <time>2016-09-10T09:41:36Z</time>
      </trkpt>
      <trkpt lat="42.74886" lon="1.75985">
        <ele>1135</ele>
        <time>2016-09-10T09:41:37Z</time>
      </trkpt>
      <trkpt lat="42.74885" lon="1.75984">
        <ele>1136</ele>
        <time>2016-09-10T09:41:38Z</time>
      </trkpt>
      <trkpt lat="42.74882" lon="1.75981">
        <ele>1138</ele>
        <time>2016-09-10T09:41:41Z</time>
      </trkpt>
      <trkpt lat="42.74875" lon="1.7598">
        <ele>1140</ele>
        <time>2016-09-10T09:41:52Z</time>
      </trkpt>
      <trkpt lat="42.74868" lon="1.7598">
        <ele>1142</ele>
        <time>2016-09-10T09:42:03Z</time>
      </trkpt>
      <trkpt lat="42.74865" lon="1.7598">
        <ele>1143</ele>
        <time>2016-09-10T09:42:11Z</time>
      </trkpt>
      <trkpt lat="42.74863" lon="1.75979">
        <ele>1144</ele>
        <time>2016-09-10T09:42:19Z</time>
      </trkpt>
      <trkpt lat="42.74862" lon="1.75979">
        <ele>1145</ele>
        <time>2016-09-10T09:42:20Z</time>
      </trkpt>
      <trkpt lat="42.74862" lon="1.75979">
        <ele>1145</ele>
        <time>2016-09-10T09:42:21Z</time>
      </trkpt>
      <trkpt lat="42.74861" lon="1.75979">
        <ele>1145</ele>
        <time>2016-09-10T09:42:22Z</time>
      </trkpt>
      <trkpt lat="42.74861" lon="1.75979">
        <ele>1145</ele>
        <time>2016-09-10T09:42:23Z</time>
      </trkpt>
      <trkpt lat="42.74857" lon="1.75978">
        <ele>1146</ele>
        <time>2016-09-10T09:42:29Z</time>
      </trkpt>
      <trkpt lat="42.74856" lon="1.75978">
        <ele>1147</ele>
        <time>2016-09-10T09:42:30Z</time>
      </trkpt>
      <trkpt lat="42.74856" lon="1.75978">
        <ele>1147</ele>
        <time>2016-09-10T09:42:31Z</time>
      </trkpt>
      <trkpt lat="42.74855" lon="1.75978">
        <ele>1147</ele>
        <time>2016-09-10T09:42:32Z</time>
      </trkpt>
      <trkpt lat="42.74855" lon="1.75978">
        <ele>1147</ele>
        <time>2016-09-10T09:42:33Z</time>
      </trkpt>
      <trkpt lat="42.74854" lon="1.75979">
        <ele>1147</ele>
        <time>2016-09-10T09:42:34Z</time>
      </trkpt>
      <trkpt lat="42.74854" lon="1.7598">
        <ele>1147</ele>
        <time>2016-09-10T09:42:38Z</time>
      </trkpt>
      <trkpt lat="42.74853" lon="1.75982">
        <ele>1146</ele>
        <time>2016-09-10T09:42:42Z</time>
      </trkpt>
      <trkpt lat="42.74853" lon="1.75981">
        <ele>1147</ele>
        <time>2016-09-10T09:42:43Z</time>
      </trkpt>
      <trkpt lat="42.74852" lon="1.75981">
        <ele>1147</ele>
        <time>2016-09-10T09:42:44Z</time>
      </trkpt>
      <trkpt lat="42.7485" lon="1.75981">
        <ele>1148</ele>
        <time>2016-09-10T09:42:45Z</time>
      </trkpt>
      <trkpt lat="42.74848" lon="1.75981">
        <ele>1148</ele>
        <time>2016-09-10T09:42:47Z</time>
      </trkpt>
      <trkpt lat="42.74846" lon="1.75982">
        <ele>1148</ele>
        <time>2016-09-10T09:42:52Z</time>
      </trkpt>
      <trkpt lat="42.74846" lon="1.75982">
        <ele>1148</ele>
        <time>2016-09-10T09:42:53Z</time>
      </trkpt>
      <trkpt lat="42.74846" lon="1.75982">
        <ele>1148</ele>
        <time>2016-09-10T09:42:54Z</time>
      </trkpt>
      <trkpt lat="42.74846" lon="1.75982">
        <ele>1148</ele>
        <time>2016-09-10T09:42:55Z</time>
      </trkpt>
      <trkpt lat="42.74846" lon="1.75982">
        <ele>1148</ele>
        <time>2016-09-10T09:42:56Z</time>
      </trkpt>
      <trkpt lat="42.74844" lon="1.7598">
        <ele>1150</ele>
        <time>2016-09-10T09:43:05Z</time>
      </trkpt>
      <trkpt lat="42.74844" lon="1.7598">
        <ele>1150</ele>
        <time>2016-09-10T09:43:06Z</time>
      </trkpt>
      <trkpt lat="42.74844" lon="1.7598">
        <ele>1150</ele>
        <time>2016-09-10T09:43:07Z</time>
      </trkpt>
      <trkpt lat="42.74844" lon="1.7598">
        <ele>1150</ele>
        <time>2016-09-10T09:43:08Z</time>
      </trkpt>
      <trkpt lat="42.7484" lon="1.75976">
        <ele>1153</ele>
        <time>2016-09-10T09:43:16Z</time>
      </trkpt>
      <trkpt lat="42.7484" lon="1.75975">
        <ele>1153</ele>
        <time>2016-09-10T09:43:17Z</time>
      </trkpt>
      <trkpt lat="42.74839" lon="1.75975">
        <ele>1153</ele>
        <time>2016-09-10T09:43:18Z</time>
      </trkpt>
      <trkpt lat="42.74839" lon="1.75975">
        <ele>1154</ele>
        <time>2016-09-10T09:43:19Z</time>
      </trkpt>
      <trkpt lat="42.74838" lon="1.75974">
        <ele>1154</ele>
        <time>2016-09-10T09:43:20Z</time>
      </trkpt>
      <trkpt lat="42.74838" lon="1.75974">
        <ele>1154</ele>
        <time>2016-09-10T09:43:21Z</time>
      </trkpt>
      <trkpt lat="42.74837" lon="1.75974">
        <ele>1154</ele>
        <time>2016-09-10T09:43:25Z</time>
      </trkpt>
      <trkpt lat="42.74834" lon="1.75976">
        <ele>1155</ele>
        <time>2016-09-10T09:43:31Z</time>
      </trkpt>
      <trkpt lat="42.74833" lon="1.75977">
        <ele>1154</ele>
        <time>2016-09-10T09:43:32Z</time>
      </trkpt>
      <trkpt lat="42.74833" lon="1.75977">
        <ele>1154</ele>
        <time>2016-09-10T09:43:33Z</time>
      </trkpt>
      <trkpt lat="42.74833" lon="1.75977">
        <ele>1154</ele>
        <time>2016-09-10T09:43:35Z</time>
      </trkpt>
      <trkpt lat="42.74831" lon="1.75975">
        <ele>1156</ele>
        <time>2016-09-10T09:43:41Z</time>
      </trkpt>
      <trkpt lat="42.7483" lon="1.75972">
        <ele>1157</ele>
        <time>2016-09-10T09:43:45Z</time>
      </trkpt>
      <trkpt lat="42.7483" lon="1.75972">
        <ele>1157</ele>
        <time>2016-09-10T09:43:46Z</time>
      </trkpt>
      <trkpt lat="42.7483" lon="1.75972">
        <ele>1157</ele>
        <time>2016-09-10T09:43:47Z</time>
      </trkpt>
      <trkpt lat="42.7483" lon="1.75972">
        <ele>1157</ele>
        <time>2016-09-10T09:43:48Z</time>
      </trkpt>
      <trkpt lat="42.74829" lon="1.75972">
        <ele>1158</ele>
        <time>2016-09-10T09:43:49Z</time>
      </trkpt>
      <trkpt lat="42.74828" lon="1.7597">
        <ele>1158</ele>
        <time>2016-09-10T09:43:55Z</time>
      </trkpt>
      <trkpt lat="42.74828" lon="1.75969">
        <ele>1159</ele>
        <time>2016-09-10T09:43:58Z</time>
      </trkpt>
      <trkpt lat="42.74828" lon="1.75969">
        <ele>1159</ele>
        <time>2016-09-10T09:43:59Z</time>
      </trkpt>
      <trkpt lat="42.74828" lon="1.75969">
        <ele>1159</ele>
        <time>2016-09-10T09:44:00Z</time>
      </trkpt>
      <trkpt lat="42.74828" lon="1.75969">
        <ele>1159</ele>
        <time>2016-09-10T09:44:01Z</time>
      </trkpt>
      <trkpt lat="42.74828" lon="1.75969">
        <ele>1159</ele>
        <time>2016-09-10T09:44:05Z</time>
      </trkpt>
      <trkpt lat="42.74828" lon="1.75962">
        <ele>1162</ele>
        <time>2016-09-10T09:44:10Z</time>
      </trkpt>
      <trkpt lat="42.74828" lon="1.7596">
        <ele>1162</ele>
        <time>2016-09-10T09:44:11Z</time>
      </trkpt>
      <trkpt lat="42.74827" lon="1.75959">
        <ele>1163</ele>
        <time>2016-09-10T09:44:12Z</time>
      </trkpt>
      <trkpt lat="42.74827" lon="1.75957">
        <ele>1164</ele>
        <time>2016-09-10T09:44:13Z</time>
      </trkpt>
      <trkpt lat="42.74827" lon="1.75955">
        <ele>1164</ele>
        <time>2016-09-10T09:44:14Z</time>
      </trkpt>
      <trkpt lat="42.74827" lon="1.75953">
        <ele>1165</ele>
        <time>2016-09-10T09:44:15Z</time>
      </trkpt>
      <trkpt lat="42.74831" lon="1.75942">
        <ele>1168</ele>
        <time>2016-09-10T09:44:25Z</time>
      </trkpt>
      <trkpt lat="42.74829" lon="1.75941">
        <ele>1168</ele>
        <time>2016-09-10T09:44:26Z</time>
      </trkpt>
      <trkpt lat="42.74829" lon="1.75941">
        <ele>1168</ele>
        <time>2016-09-10T09:44:27Z</time>
      </trkpt>
      <trkpt lat="42.74828" lon="1.75939">
        <ele>1169</ele>
        <time>2016-09-10T09:44:28Z</time>
      </trkpt>
      <trkpt lat="42.74828" lon="1.75938">
        <ele>1170</ele>
        <time>2016-09-10T09:44:29Z</time>
      </trkpt>
      <trkpt lat="42.74828" lon="1.75937">
        <ele>1170</ele>
        <time>2016-09-10T09:44:30Z</time>
      </trkpt>
      <trkpt lat="42.74828" lon="1.75936">
        <ele>1170</ele>
        <time>2016-09-10T09:44:33Z</time>
      </trkpt>
      <trkpt lat="42.74827" lon="1.75932">
        <ele>1172</ele>
        <time>2016-09-10T09:44:40Z</time>
      </trkpt>
      <trkpt lat="42.74827" lon="1.75931">
        <ele>1172</ele>
        <time>2016-09-10T09:44:41Z</time>
      </trkpt>
      <trkpt lat="42.74827" lon="1.7593">
        <ele>1172</ele>
        <time>2016-09-10T09:44:42Z</time>
      </trkpt>
      <trkpt lat="42.74827" lon="1.7593">
        <ele>1173</ele>
        <time>2016-09-10T09:44:43Z</time>
      </trkpt>
      <trkpt lat="42.74827" lon="1.75929">
        <ele>1173</ele>
        <time>2016-09-10T09:44:44Z</time>
      </trkpt>
      <trkpt lat="42.74825" lon="1.7593">
        <ele>1173</ele>
        <time>2016-09-10T09:44:53Z</time>
      </trkpt>
      <trkpt lat="42.74825" lon="1.75928">
        <ele>1174</ele>
        <time>2016-09-10T09:44:54Z</time>
      </trkpt>
      <trkpt lat="42.74825" lon="1.75927">
        <ele>1174</ele>
        <time>2016-09-10T09:44:55Z</time>
      </trkpt>
      <trkpt lat="42.74826" lon="1.75926">
        <ele>1174</ele>
        <time>2016-09-10T09:44:56Z</time>
      </trkpt>
      <trkpt lat="42.74827" lon="1.75925">
        <ele>1174</ele>
        <time>2016-09-10T09:44:57Z</time>
      </trkpt>
      <trkpt lat="42.74827" lon="1.75924">
        <ele>1174</ele>
        <time>2016-09-10T09:45:00Z</time>
      </trkpt>
      <trkpt lat="42.74825" lon="1.75925">
        <ele>1175</ele>
        <time>2016-09-10T09:45:07Z</time>
      </trkpt>
      <trkpt lat="42.74825" lon="1.75925">
        <ele>1175</ele>
        <time>2016-09-10T09:45:08Z</time>
      </trkpt>
      <trkpt lat="42.74824" lon="1.75924">
        <ele>1175</ele>
        <time>2016-09-10T09:45:09Z</time>
      </trkpt>
      <trkpt lat="42.74824" lon="1.75924">
        <ele>1175</ele>
        <time>2016-09-10T09:45:10Z</time>
      </trkpt>
      <trkpt lat="42.74824" lon="1.75924">
        <ele>1175</ele>
        <time>2016-09-10T09:45:11Z</time>
      </trkpt>
      <trkpt lat="42.74821" lon="1.75927">
        <ele>1175</ele>
        <time>2016-09-10T09:45:18Z</time>
      </trkpt>
      <trkpt lat="42.7482" lon="1.75927">
        <ele>1175</ele>
        <time>2016-09-10T09:45:21Z</time>
      </trkpt>
      <trkpt lat="42.7482" lon="1.75928">
        <ele>1175</ele>
        <time>2016-09-10T09:45:22Z</time>
      </trkpt>
      <trkpt lat="42.7482" lon="1.75928">
        <ele>1175</ele>
        <time>2016-09-10T09:45:23Z</time>
      </trkpt>
      <trkpt lat="42.7482" lon="1.75928">
        <ele>1175</ele>
        <time>2016-09-10T09:45:24Z</time>
      </trkpt>
      <trkpt lat="42.74819" lon="1.75928">
        <ele>1176</ele>
        <time>2016-09-10T09:45:25Z</time>
      </trkpt>
      <trkpt lat="42.7482" lon="1.75928">
        <ele>1176</ele>
        <time>2016-09-10T09:45:27Z</time>
      </trkpt>
      <trkpt lat="42.7482" lon="1.75928">
        <ele>1176</ele>
        <time>2016-09-10T09:45:42Z</time>
      </trkpt>
      <trkpt lat="42.74819" lon="1.75927">
        <ele>1176</ele>
        <time>2016-09-10T09:45:47Z</time>
      </trkpt>
      <trkpt lat="42.74819" lon="1.75927">
        <ele>1176</ele>
        <time>2016-09-10T09:45:48Z</time>
      </trkpt>
      <trkpt lat="42.74819" lon="1.75927">
        <ele>1176</ele>
        <time>2016-09-10T09:45:49Z</time>
      </trkpt>
      <trkpt lat="42.74819" lon="1.75927">
        <ele>1176</ele>
        <time>2016-09-10T09:45:50Z</time>
      </trkpt>
      <trkpt lat="42.74819" lon="1.75927">
        <ele>1176</ele>
        <time>2016-09-10T09:45:51Z</time>
      </trkpt>
      <trkpt lat="42.74819" lon="1.75927">
        <ele>1176</ele>
        <time>2016-09-10T09:45:52Z</time>
      </trkpt>
      <trkpt lat="42.74814" lon="1.75927">
        <ele>1178</ele>
        <time>2016-09-10T09:46:00Z</time>
      </trkpt>
      <trkpt lat="42.74813" lon="1.75927">
        <ele>1178</ele>
        <time>2016-09-10T09:46:01Z</time>
      </trkpt>
      <trkpt lat="42.74812" lon="1.75926">
        <ele>1179</ele>
        <time>2016-09-10T09:46:02Z</time>
      </trkpt>
      <trkpt lat="42.74811" lon="1.75926">
        <ele>1179</ele>
        <time>2016-09-10T09:46:03Z</time>
      </trkpt>
      <trkpt lat="42.74802" lon="1.75926">
        <ele>1183</ele>
        <time>2016-09-10T09:46:10Z</time>
      </trkpt>
      <trkpt lat="42.74801" lon="1.75926">
        <ele>1183</ele>
        <time>2016-09-10T09:46:11Z</time>
      </trkpt>
      <trkpt lat="42.74801" lon="1.75926">
        <ele>1183</ele>
        <time>2016-09-10T09:46:12Z</time>
      </trkpt>
      <trkpt lat="42.74801" lon="1.75926">
        <ele>1183</ele>
        <time>2016-09-10T09:46:13Z</time>
      </trkpt>
      <trkpt lat="42.74801" lon="1.75926">
        <ele>1183</ele>
        <time>2016-09-10T09:46:14Z</time>
      </trkpt>
      <trkpt lat="42.74801" lon="1.75926">
        <ele>1183</ele>
        <time>2016-09-10T09:46:15Z</time>
      </trkpt>
      <trkpt lat="42.74801" lon="1.75926">
        <ele>1183</ele>
        <time>2016-09-10T09:46:19Z</time>
      </trkpt>
      <trkpt lat="42.74798" lon="1.75923">
        <ele>1185</ele>
        <time>2016-09-10T09:46:25Z</time>
      </trkpt>
      <trkpt lat="42.74797" lon="1.75924">
        <ele>1185</ele>
        <time>2016-09-10T09:46:26Z</time>
      </trkpt>
      <trkpt lat="42.74796" lon="1.75924">
        <ele>1186</ele>
        <time>2016-09-10T09:46:27Z</time>
      </trkpt>
      <trkpt lat="42.74796" lon="1.75924">
        <ele>1186</ele>
        <time>2016-09-10T09:46:28Z</time>
      </trkpt>
      <trkpt lat="42.74795" lon="1.75923">
        <ele>1187</ele>
        <time>2016-09-10T09:46:35Z</time>
      </trkpt>
      <trkpt lat="42.74793" lon="1.75923">
        <ele>1187</ele>
        <time>2016-09-10T09:46:39Z</time>
      </trkpt>
      <trkpt lat="42.74793" lon="1.75924">
        <ele>1187</ele>
        <time>2016-09-10T09:46:40Z</time>
      </trkpt>
      <trkpt lat="42.74792" lon="1.75924">
        <ele>1188</ele>
        <time>2016-09-10T09:46:41Z</time>
      </trkpt>
      <trkpt lat="42.74791" lon="1.75924">
        <ele>1188</ele>
        <time>2016-09-10T09:46:42Z</time>
      </trkpt>
      <trkpt lat="42.7479" lon="1.75925">
        <ele>1188</ele>
        <time>2016-09-10T09:46:43Z</time>
      </trkpt>
      <trkpt lat="42.7479" lon="1.75926">
        <ele>1188</ele>
        <time>2016-09-10T09:46:44Z</time>
      </trkpt>
      <trkpt lat="42.74787" lon="1.75926">
        <ele>1189</ele>
        <time>2016-09-10T09:46:51Z</time>
      </trkpt>
      <trkpt lat="42.74787" lon="1.75926">
        <ele>1189</ele>
        <time>2016-09-10T09:46:52Z</time>
      </trkpt>
      <trkpt lat="42.74786" lon="1.75926">
        <ele>1189</ele>
        <time>2016-09-10T09:46:53Z</time>
      </trkpt>
      <trkpt lat="42.74786" lon="1.75926">
        <ele>1189</ele>
        <time>2016-09-10T09:46:54Z</time>
      </trkpt>
      <trkpt lat="42.74786" lon="1.75925">
        <ele>1190</ele>
        <time>2016-09-10T09:46:55Z</time>
      </trkpt>
      <trkpt lat="42.74782" lon="1.75924">
        <ele>1191</ele>
        <time>2016-09-10T09:47:04Z</time>
      </trkpt>
      <trkpt lat="42.74781" lon="1.75924">
        <ele>1192</ele>
        <time>2016-09-10T09:47:05Z</time>
      </trkpt>
      <trkpt lat="42.7478" lon="1.75924">
        <ele>1192</ele>
        <time>2016-09-10T09:47:06Z</time>
      </trkpt>
      <trkpt lat="42.7478" lon="1.75923">
        <ele>1193</ele>
        <time>2016-09-10T09:47:07Z</time>
      </trkpt>
      <trkpt lat="42.74778" lon="1.75923">
        <ele>1193</ele>
        <time>2016-09-10T09:47:08Z</time>
      </trkpt>
      <trkpt lat="42.74778" lon="1.75924">
        <ele>1193</ele>
        <time>2016-09-10T09:47:09Z</time>
      </trkpt>
      <trkpt lat="42.74777" lon="1.75924">
        <ele>1194</ele>
        <time>2016-09-10T09:47:12Z</time>
      </trkpt>
      <trkpt lat="42.74774" lon="1.75924">
        <ele>1195</ele>
        <time>2016-09-10T09:47:17Z</time>
      </trkpt>
      <trkpt lat="42.74773" lon="1.75923">
        <ele>1195</ele>
        <time>2016-09-10T09:47:18Z</time>
      </trkpt>
      <trkpt lat="42.74773" lon="1.75924">
        <ele>1195</ele>
        <time>2016-09-10T09:47:19Z</time>
      </trkpt>
      <trkpt lat="42.74772" lon="1.75924">
        <ele>1195</ele>
        <time>2016-09-10T09:47:20Z</time>
      </trkpt>
      <trkpt lat="42.74772" lon="1.75925">
        <ele>1195</ele>
        <time>2016-09-10T09:47:21Z</time>
      </trkpt>
      <trkpt lat="42.74771" lon="1.75926">
        <ele>1195</ele>
        <time>2016-09-10T09:47:31Z</time>
      </trkpt>
      <trkpt lat="42.74771" lon="1.75926">
        <ele>1195</ele>
        <time>2016-09-10T09:47:32Z</time>
      </trkpt>
      <trkpt lat="42.74771" lon="1.75926">
        <ele>1195</ele>
        <time>2016-09-10T09:47:33Z</time>
      </trkpt>
      <trkpt lat="42.74771" lon="1.75926">
        <ele>1195</ele>
        <time>2016-09-10T09:47:34Z</time>
      </trkpt>
      <trkpt lat="42.7477" lon="1.75926">
        <ele>1196</ele>
        <time>2016-09-10T09:47:35Z</time>
      </trkpt>
      <trkpt lat="42.74765" lon="1.75929">
        <ele>1196</ele>
        <time>2016-09-10T09:47:45Z</time>
      </trkpt>
      <trkpt lat="42.74765" lon="1.75929">
        <ele>1196</ele>
        <time>2016-09-10T09:47:46Z</time>
      </trkpt>
      <trkpt lat="42.74765" lon="1.75929">
        <ele>1196</ele>
        <time>2016-09-10T09:47:47Z</time>
      </trkpt>
      <trkpt lat="42.74765" lon="1.75929">
        <ele>1196</ele>
        <time>2016-09-10T09:47:48Z</time>
      </trkpt>
      <trkpt lat="42.74765" lon="1.75929">
        <ele>1196</ele>
        <time>2016-09-10T09:47:49Z</time>
      </trkpt>
      <trkpt lat="42.74765" lon="1.75928">
        <ele>1197</ele>
        <time>2016-09-10T09:47:50Z</time>
      </trkpt>
      <trkpt lat="42.74759" lon="1.75929">
        <ele>1199</ele>
        <time>2016-09-10T09:47:56Z</time>
      </trkpt>
      <trkpt lat="42.74758" lon="1.75929">
        <ele>1199</ele>
        <time>2016-09-10T09:48:00Z</time>
      </trkpt>
      <trkpt lat="42.74757" lon="1.7593">
        <ele>1199</ele>
        <time>2016-09-10T09:48:01Z</time>
      </trkpt>
      <trkpt lat="42.74757" lon="1.75931">
        <ele>1199</ele>
        <time>2016-09-10T09:48:02Z</time>
      </trkpt>
      <trkpt lat="42.74756" lon="1.75931">
        <ele>1199</ele>
        <time>2016-09-10T09:48:03Z</time>
      </trkpt>
      <trkpt lat="42.74755" lon="1.75931">
        <ele>1199</ele>
        <time>2016-09-10T09:48:04Z</time>
      </trkpt>
      <trkpt lat="42.74755" lon="1.75933">
        <ele>1199</ele>
        <time>2016-09-10T09:48:06Z</time>
      </trkpt>
      <trkpt lat="42.74753" lon="1.75935">
        <ele>1199</ele>
        <time>2016-09-10T09:48:14Z</time>
      </trkpt>
      <trkpt lat="42.74752" lon="1.75935">
        <ele>1199</ele>
        <time>2016-09-10T09:48:15Z</time>
      </trkpt>
      <trkpt lat="42.74752" lon="1.75935">
        <ele>1199</ele>
        <time>2016-09-10T09:48:16Z</time>
      </trkpt>
      <trkpt lat="42.74751" lon="1.75935">
        <ele>1199</ele>
        <time>2016-09-10T09:48:17Z</time>
      </trkpt>
      <trkpt lat="42.74751" lon="1.75935">
        <ele>1200</ele>
        <time>2016-09-10T09:48:18Z</time>
      </trkpt>
      <trkpt lat="42.74751" lon="1.75935">
        <ele>1200</ele>
        <time>2016-09-10T09:48:26Z</time>
      </trkpt>
      <trkpt lat="42.74751" lon="1.75935">
        <ele>1200</ele>
        <time>2016-09-10T09:48:37Z</time>
      </trkpt>
      <trkpt lat="42.7475" lon="1.75935">
        <ele>1200</ele>
        <time>2016-09-10T09:48:42Z</time>
      </trkpt>
      <trkpt lat="42.7475" lon="1.75935">
        <ele>1200</ele>
        <time>2016-09-10T09:48:43Z</time>
      </trkpt>
      <trkpt lat="42.74749" lon="1.75935">
        <ele>1200</ele>
        <time>2016-09-10T09:48:44Z</time>
      </trkpt>
      <trkpt lat="42.74749" lon="1.75935">
        <ele>1200</ele>
        <time>2016-09-10T09:48:45Z</time>
      </trkpt>
      <trkpt lat="42.74749" lon="1.75935">
        <ele>1200</ele>
        <time>2016-09-10T09:48:46Z</time>
      </trkpt>
      <trkpt lat="42.74748" lon="1.75934">
        <ele>1201</ele>
        <time>2016-09-10T09:48:55Z</time>
      </trkpt>
      <trkpt lat="42.74746" lon="1.75934">
        <ele>1202</ele>
        <time>2016-09-10T09:48:57Z</time>
      </trkpt>
      <trkpt lat="42.74746" lon="1.75934">
        <ele>1202</ele>
        <time>2016-09-10T09:48:58Z</time>
      </trkpt>
      <trkpt lat="42.74746" lon="1.75934">
        <ele>1202</ele>
        <time>2016-09-10T09:48:59Z</time>
      </trkpt>
      <trkpt lat="42.74746" lon="1.75934">
        <ele>1202</ele>
        <time>2016-09-10T09:49:00Z</time>
      </trkpt>
      <trkpt lat="42.74746" lon="1.75934">
        <ele>1202</ele>
        <time>2016-09-10T09:49:01Z</time>
      </trkpt>
      <trkpt lat="42.74746" lon="1.75934">
        <ele>1202</ele>
        <time>2016-09-10T09:49:05Z</time>
      </trkpt>
      <trkpt lat="42.74746" lon="1.75934">
        <ele>1202</ele>
        <time>2016-09-10T09:49:13Z</time>
      </trkpt>
      <trkpt lat="42.74746" lon="1.75934">
        <ele>1202</ele>
        <time>2016-09-10T09:49:14Z</time>
      </trkpt>
      <trkpt lat="42.74746" lon="1.75934">
        <ele>1202</ele>
        <time>2016-09-10T09:49:15Z</time>
      </trkpt>
      <trkpt lat="42.74746" lon="1.75934">
        <ele>1202</ele>
        <time>2016-09-10T09:49:16Z</time>
      </trkpt>
      <trkpt lat="42.74746" lon="1.75934">
        <ele>1202</ele>
        <time>2016-09-10T09:49:17Z</time>
      </trkpt>
      <trkpt lat="42.74746" lon="1.75933">
        <ele>1202</ele>
        <time>2016-09-10T09:49:25Z</time>
      </trkpt>
      <trkpt lat="42.74745" lon="1.75933">
        <ele>1203</ele>
        <time>2016-09-10T09:49:26Z</time>
      </trkpt>
      <trkpt lat="42.74745" lon="1.75932">
        <ele>1203</ele>
        <time>2016-09-10T09:49:27Z</time>
      </trkpt>
      <trkpt lat="42.74744" lon="1.75932">
        <ele>1204</ele>
        <time>2016-09-10T09:49:28Z</time>
      </trkpt>
      <trkpt lat="42.74743" lon="1.75931">
        <ele>1205</ele>
        <time>2016-09-10T09:49:29Z</time>
      </trkpt>
      <trkpt lat="42.74741" lon="1.75931">
        <ele>1206</ele>
        <time>2016-09-10T09:49:30Z</time>
      </trkpt>
      <trkpt lat="42.74737" lon="1.7593">
        <ele>1208</ele>
        <time>2016-09-10T09:49:33Z</time>
      </trkpt>
      <trkpt lat="42.74729" lon="1.75929">
        <ele>1211</ele>
        <time>2016-09-10T09:49:39Z</time>
      </trkpt>
      <trkpt lat="42.74729" lon="1.75929">
        <ele>1211</ele>
        <time>2016-09-10T09:49:40Z</time>
      </trkpt>
      <trkpt lat="42.74728" lon="1.75929">
        <ele>1211</ele>
        <time>2016-09-10T09:49:41Z</time>
      </trkpt>
      <trkpt lat="42.74727" lon="1.75929">
        <ele>1212</ele>
        <time>2016-09-10T09:49:42Z</time>
      </trkpt>
      <trkpt lat="42.74726" lon="1.75928">
        <ele>1213</ele>
        <time>2016-09-10T09:49:44Z</time>
      </trkpt>
      <trkpt lat="42.74726" lon="1.75928">
        <ele>1213</ele>
        <time>2016-09-10T09:49:51Z</time>
      </trkpt>
      <trkpt lat="42.74726" lon="1.75928">
        <ele>1213</ele>
        <time>2016-09-10T09:49:52Z</time>
      </trkpt>
      <trkpt lat="42.74726" lon="1.75928">
        <ele>1213</ele>
        <time>2016-09-10T09:49:53Z</time>
      </trkpt>
      <trkpt lat="42.74726" lon="1.75928">
        <ele>1213</ele>
        <time>2016-09-10T09:49:54Z</time>
      </trkpt>
      <trkpt lat="42.74726" lon="1.75928">
        <ele>1213</ele>
        <time>2016-09-10T09:49:55Z</time>
      </trkpt>
      <trkpt lat="42.74724" lon="1.75926">
        <ele>1214</ele>
        <time>2016-09-10T09:50:03Z</time>
      </trkpt>
      <trkpt lat="42.74724" lon="1.75926">
        <ele>1214</ele>
        <time>2016-09-10T09:50:05Z</time>
      </trkpt>
      <trkpt lat="42.74724" lon="1.75926">
        <ele>1214</ele>
        <time>2016-09-10T09:50:06Z</time>
      </trkpt>
      <trkpt lat="42.74724" lon="1.75926">
        <ele>1214</ele>
        <time>2016-09-10T09:50:07Z</time>
      </trkpt>
      <trkpt lat="42.74724" lon="1.75926">
        <ele>1214</ele>
        <time>2016-09-10T09:50:08Z</time>
      </trkpt>
      <trkpt lat="42.74724" lon="1.75927">
        <ele>1214</ele>
        <time>2016-09-10T09:50:10Z</time>
      </trkpt>
      <trkpt lat="42.74718" lon="1.75927">
        <ele>1216</ele>
        <time>2016-09-10T09:50:18Z</time>
      </trkpt>
      <trkpt lat="42.74718" lon="1.75927">
        <ele>1216</ele>
        <time>2016-09-10T09:50:19Z</time>
      </trkpt>
      <trkpt lat="42.74718" lon="1.75927">
        <ele>1216</ele>
        <time>2016-09-10T09:50:20Z</time>
      </trkpt>
      <trkpt lat="42.74718" lon="1.75927">
        <ele>1216</ele>
        <time>2016-09-10T09:50:21Z</time>
      </trkpt>
      <trkpt lat="42.74718" lon="1.75927">
        <ele>1216</ele>
        <time>2016-09-10T09:50:22Z</time>
      </trkpt>
      <trkpt lat="42.74718" lon="1.75927">
        <ele>1216</ele>
        <time>2016-09-10T09:50:23Z</time>
      </trkpt>
      <trkpt lat="42.74718" lon="1.75926">
        <ele>1216</ele>
        <time>2016-09-10T09:50:27Z</time>
      </trkpt>
      <trkpt lat="42.74718" lon="1.75926">
        <ele>1216</ele>
        <time>2016-09-10T09:50:33Z</time>
      </trkpt>
      <trkpt lat="42.74718" lon="1.75926">
        <ele>1216</ele>
        <time>2016-09-10T09:50:34Z</time>
      </trkpt>
      <trkpt lat="42.74718" lon="1.75926">
        <ele>1216</ele>
        <time>2016-09-10T09:50:35Z</time>
      </trkpt>
      <trkpt lat="42.74718" lon="1.75926">
        <ele>1216</ele>
        <time>2016-09-10T09:50:36Z</time>
      </trkpt>
      <trkpt lat="42.74718" lon="1.75926">
        <ele>1216</ele>
        <time>2016-09-10T09:50:37Z</time>
      </trkpt>
      <trkpt lat="42.74716" lon="1.75923">
        <ele>1218</ele>
        <time>2016-09-10T09:50:43Z</time>
      </trkpt>
      <trkpt lat="42.74713" lon="1.75922">
        <ele>1220</ele>
        <time>2016-09-10T09:50:51Z</time>
      </trkpt>
      <trkpt lat="42.74706" lon="1.75923">
        <ele>1222</ele>
        <time>2016-09-10T09:50:57Z</time>
      </trkpt>
      <trkpt lat="42.74705" lon="1.75923">
        <ele>1222</ele>
        <time>2016-09-10T09:50:58Z</time>
      </trkpt>
      <trkpt lat="42.74704" lon="1.75923">
        <ele>1222</ele>
        <time>2016-09-10T09:50:59Z</time>
      </trkpt>
      <trkpt lat="42.74703" lon="1.75923">
        <ele>1223</ele>
        <time>2016-09-10T09:51:00Z</time>
      </trkpt>
      <trkpt lat="42.74702" lon="1.75923">
        <ele>1223</ele>
        <time>2016-09-10T09:51:01Z</time>
      </trkpt>
      <trkpt lat="42.74701" lon="1.75922">
        <ele>1223</ele>
        <time>2016-09-10T09:51:02Z</time>
      </trkpt>
      <trkpt lat="42.74699" lon="1.7592">
        <ele>1225</ele>
        <time>2016-09-10T09:51:11Z</time>
      </trkpt>
      <trkpt lat="42.74701" lon="1.75921">
        <ele>1224</ele>
        <time>2016-09-10T09:51:22Z</time>
      </trkpt>
      <trkpt lat="42.74701" lon="1.75922">
        <ele>1224</ele>
        <time>2016-09-10T09:51:32Z</time>
      </trkpt>
      <trkpt lat="42.74701" lon="1.75922">
        <ele>1224</ele>
        <time>2016-09-10T09:51:46Z</time>
      </trkpt>
      <trkpt lat="42.74701" lon="1.75922">
        <ele>1224</ele>
        <time>2016-09-10T09:51:56Z</time>
      </trkpt>
      <trkpt lat="42.74701" lon="1.75922">
        <ele>1224</ele>
        <time>2016-09-10T09:52:10Z</time>
      </trkpt>
      <trkpt lat="42.74701" lon="1.75922">
        <ele>1224</ele>
        <time>2016-09-10T09:52:23Z</time>
      </trkpt>
      <trkpt lat="42.74698" lon="1.75924">
        <ele>1224</ele>
        <time>2016-09-10T09:52:38Z</time>
      </trkpt>
      <trkpt lat="42.74698" lon="1.75924">
        <ele>1224</ele>
        <time>2016-09-10T09:52:55Z</time>
      </trkpt>
      <trkpt lat="42.74697" lon="1.75927">
        <ele>1223</ele>
        <time>2016-09-10T09:53:08Z</time>
      </trkpt>
      <trkpt lat="42.74697" lon="1.75927">
        <ele>1223</ele>
        <time>2016-09-10T09:53:24Z</time>
      </trkpt>
      <trkpt lat="42.74696" lon="1.75927">
        <ele>1223</ele>
        <time>2016-09-10T09:53:43Z</time>
      </trkpt>
      <trkpt lat="42.74696" lon="1.75927">
        <ele>1223</ele>
        <time>2016-09-10T09:54:00Z</time>
      </trkpt>
      <trkpt lat="42.74696" lon="1.75927">
        <ele>1223</ele>
        <time>2016-09-10T09:54:15Z</time>
      </trkpt>
      <trkpt lat="42.74694" lon="1.75926">
        <ele>1224</ele>
        <time>2016-09-10T09:54:25Z</time>
      </trkpt>
      <trkpt lat="42.74693" lon="1.75926">
        <ele>1224</ele>
        <time>2016-09-10T09:54:30Z</time>
      </trkpt>
      <trkpt lat="42.74691" lon="1.75926">
        <ele>1225</ele>
        <time>2016-09-10T09:54:41Z</time>
      </trkpt>
      <trkpt lat="42.74691" lon="1.75926">
        <ele>1225</ele>
        <time>2016-09-10T09:54:53Z</time>
      </trkpt>
      <trkpt lat="42.74691" lon="1.75926">
        <ele>1225</ele>
        <time>2016-09-10T09:55:09Z</time>
      </trkpt>
      <trkpt lat="42.7469" lon="1.75925">
        <ele>1226</ele>
        <time>2016-09-10T09:55:24Z</time>
      </trkpt>
      <trkpt lat="42.74688" lon="1.75924">
        <ele>1227</ele>
        <time>2016-09-10T09:55:35Z</time>
      </trkpt>
      <trkpt lat="42.74686" lon="1.75922">
        <ele>1228</ele>
        <time>2016-09-10T09:55:45Z</time>
      </trkpt>
      <trkpt lat="42.74685" lon="1.75921">
        <ele>1229</ele>
        <time>2016-09-10T09:55:56Z</time>
      </trkpt>
      <trkpt lat="42.74685" lon="1.75921">
        <ele>1229</ele>
        <time>2016-09-10T09:56:09Z</time>
      </trkpt>
      <trkpt lat="42.74681" lon="1.75923">
        <ele>1230</ele>
        <time>2016-09-10T09:56:20Z</time>
      </trkpt>
      <trkpt lat="42.74673" lon="1.75926">
        <ele>1230</ele>
        <time>2016-09-10T09:56:27Z</time>
      </trkpt>
      <trkpt lat="42.7467" lon="1.75929">
        <ele>1229</ele>
        <time>2016-09-10T09:56:30Z</time>
      </trkpt>
      <trkpt lat="42.74663" lon="1.75933">
        <ele>1229</ele>
        <time>2016-09-10T09:56:41Z</time>
      </trkpt>
      <trkpt lat="42.74664" lon="1.75933">
        <ele>1229</ele>
        <time>2016-09-10T09:56:42Z</time>
      </trkpt>
      <trkpt lat="42.74665" lon="1.75932">
        <ele>1229</ele>
        <time>2016-09-10T09:56:43Z</time>
      </trkpt>
      <trkpt lat="42.74666" lon="1.75932">
        <ele>1229</ele>
        <time>2016-09-10T09:56:44Z</time>
      </trkpt>
      <trkpt lat="42.74667" lon="1.75931">
        <ele>1229</ele>
        <time>2016-09-10T09:56:51Z</time>
      </trkpt>
      <trkpt lat="42.74667" lon="1.7593">
        <ele>1229</ele>
        <time>2016-09-10T09:57:00Z</time>
      </trkpt>
      <trkpt lat="42.74668" lon="1.7593">
        <ele>1229</ele>
        <time>2016-09-10T09:57:10Z</time>
      </trkpt>
      <trkpt lat="42.74668" lon="1.7593">
        <ele>1229</ele>
        <time>2016-09-10T09:57:23Z</time>
      </trkpt>
      <trkpt lat="42.74668" lon="1.7593">
        <ele>1229</ele>
        <time>2016-09-10T09:57:31Z</time>
      </trkpt>
      <trkpt lat="42.74668" lon="1.7593">
        <ele>1229</ele>
        <time>2016-09-10T09:57:36Z</time>
      </trkpt>
      <trkpt lat="42.7467" lon="1.7593">
        <ele>1229</ele>
        <time>2016-09-10T09:57:52Z</time>
      </trkpt>
      <trkpt lat="42.7467" lon="1.7593">
        <ele>1229</ele>
        <time>2016-09-10T09:58:07Z</time>
      </trkpt>
      <trkpt lat="42.7467" lon="1.7593">
        <ele>1229</ele>
        <time>2016-09-10T09:58:17Z</time>
      </trkpt>
      <trkpt lat="42.7467" lon="1.75929">
        <ele>1229</ele>
        <time>2016-09-10T09:58:31Z</time>
      </trkpt>
      <trkpt lat="42.7467" lon="1.75929">
        <ele>1229</ele>
        <time>2016-09-10T09:58:48Z</time>
      </trkpt>
      <trkpt lat="42.74675" lon="1.7593">
        <ele>1227</ele>
        <time>2016-09-10T09:59:05Z</time>
      </trkpt>
      <trkpt lat="42.74675" lon="1.7593">
        <ele>1227</ele>
        <time>2016-09-10T09:59:19Z</time>
      </trkpt>
      <trkpt lat="42.74675" lon="1.7593">
        <ele>1227</ele>
        <time>2016-09-10T09:59:33Z</time>
      </trkpt>
      <trkpt lat="42.74676" lon="1.7593">
        <ele>1227</ele>
        <time>2016-09-10T09:59:49Z</time>
      </trkpt>
      <trkpt lat="42.74676" lon="1.7593">
        <ele>1227</ele>
        <time>2016-09-10T10:00:03Z</time>
      </trkpt>
      <trkpt lat="42.74676" lon="1.7593">
        <ele>1227</ele>
        <time>2016-09-10T10:00:18Z</time>
      </trkpt>
      <trkpt lat="42.74677" lon="1.7593">
        <ele>1227</ele>
        <time>2016-09-10T10:00:31Z</time>
      </trkpt>
      <trkpt lat="42.74677" lon="1.7593">
        <ele>1227</ele>
        <time>2016-09-10T10:00:46Z</time>
      </trkpt>
      <trkpt lat="42.74677" lon="1.7593">
        <ele>1227</ele>
        <time>2016-09-10T10:00:51Z</time>
      </trkpt>
      <trkpt lat="42.74677" lon="1.7593">
        <ele>1227</ele>
        <time>2016-09-10T10:00:59Z</time>
      </trkpt>
      <trkpt lat="42.74677" lon="1.7593">
        <ele>1227</ele>
        <time>2016-09-10T10:01:14Z</time>
      </trkpt>
      <trkpt lat="42.74684" lon="1.75932">
        <ele>1224</ele>
        <time>2016-09-10T10:01:25Z</time>
      </trkpt>
      <trkpt lat="42.74684" lon="1.75932">
        <ele>1224</ele>
        <time>2016-09-10T10:01:33Z</time>
      </trkpt>
      <trkpt lat="42.74685" lon="1.75932">
        <ele>1224</ele>
        <time>2016-09-10T10:01:44Z</time>
      </trkpt>
      <trkpt lat="42.74687" lon="1.75931">
        <ele>1224</ele>
        <time>2016-09-10T10:01:51Z</time>
      </trkpt>
      <trkpt lat="42.74691" lon="1.75931">
        <ele>1222</ele>
        <time>2016-09-10T10:01:57Z</time>
      </trkpt>
      <trkpt lat="42.74691" lon="1.75932">
        <ele>1222</ele>
        <time>2016-09-10T10:02:01Z</time>
      </trkpt>
      <trkpt lat="42.74691" lon="1.75932">
        <ele>1222</ele>
        <time>2016-09-10T10:02:08Z</time>
      </trkpt>
      <trkpt lat="42.74691" lon="1.75932">
        <ele>1222</ele>
        <time>2016-09-10T10:02:19Z</time>
      </trkpt>
      <trkpt lat="42.74691" lon="1.75932">
        <ele>1222</ele>
        <time>2016-09-10T10:02:32Z</time>
      </trkpt>
      <trkpt lat="42.7469" lon="1.75933">
        <ele>1222</ele>
        <time>2016-09-10T10:02:38Z</time>
      </trkpt>
      <trkpt lat="42.74686" lon="1.75934">
        <ele>1223</ele>
        <time>2016-09-10T10:02:45Z</time>
      </trkpt>
      <trkpt lat="42.74685" lon="1.75935">
        <ele>1223</ele>
        <time>2016-09-10T10:02:50Z</time>
      </trkpt>
      <trkpt lat="42.74685" lon="1.75935">
        <ele>1223</ele>
        <time>2016-09-10T10:02:51Z</time>
      </trkpt>
      <trkpt lat="42.74685" lon="1.75935">
        <ele>1223</ele>
        <time>2016-09-10T10:02:52Z</time>
      </trkpt>
      <trkpt lat="42.74685" lon="1.75935">
        <ele>1223</ele>
        <time>2016-09-10T10:02:53Z</time>
      </trkpt>
      <trkpt lat="42.74684" lon="1.75935">
        <ele>1223</ele>
        <time>2016-09-10T10:02:54Z</time>
      </trkpt>
      <trkpt lat="42.7468" lon="1.75936">
        <ele>1223</ele>
        <time>2016-09-10T10:02:58Z</time>
      </trkpt>
      <trkpt lat="42.74676" lon="1.75936">
        <ele>1224</ele>
        <time>2016-09-10T10:03:02Z</time>
      </trkpt>
      <trkpt lat="42.74676" lon="1.75936">
        <ele>1224</ele>
        <time>2016-09-10T10:03:03Z</time>
      </trkpt>
      <trkpt lat="42.74675" lon="1.75936">
        <ele>1225</ele>
        <time>2016-09-10T10:03:04Z</time>
      </trkpt>
      <trkpt lat="42.74674" lon="1.75936">
        <ele>1225</ele>
        <time>2016-09-10T10:03:05Z</time>
      </trkpt>
      <trkpt lat="42.74674" lon="1.75937">
        <ele>1225</ele>
        <time>2016-09-10T10:03:06Z</time>
      </trkpt>
      <trkpt lat="42.7467" lon="1.75936">
        <ele>1226</ele>
        <time>2016-09-10T10:03:15Z</time>
      </trkpt>
      <trkpt lat="42.74667" lon="1.75936">
        <ele>1227</ele>
        <time>2016-09-10T10:03:18Z</time>
      </trkpt>
      <trkpt lat="42.74667" lon="1.75936">
        <ele>1227</ele>
        <time>2016-09-10T10:03:19Z</time>
      </trkpt>
      <trkpt lat="42.74667" lon="1.75936">
        <ele>1227</ele>
        <time>2016-09-10T10:03:20Z</time>
      </trkpt>
      <trkpt lat="42.74667" lon="1.75936">
        <ele>1227</ele>
        <time>2016-09-10T10:03:21Z</time>
      </trkpt>
      <trkpt lat="42.74667" lon="1.75936">
        <ele>1227</ele>
        <time>2016-09-10T10:03:22Z</time>
      </trkpt>
      <trkpt lat="42.74667" lon="1.75936">
        <ele>1227</ele>
        <time>2016-09-10T10:03:29Z</time>
      </trkpt>
      <trkpt lat="42.74666" lon="1.75935">
        <ele>1228</ele>
        <time>2016-09-10T10:03:30Z</time>
      </trkpt>
      <trkpt lat="42.74665" lon="1.75934">
        <ele>1228</ele>
        <time>2016-09-10T10:03:31Z</time>
      </trkpt>
      <trkpt lat="42.74664" lon="1.75933">
        <ele>1229</ele>
        <time>2016-09-10T10:03:32Z</time>
      </trkpt>
      <trkpt lat="42.74664" lon="1.75933">
        <ele>1229</ele>
        <time>2016-09-10T10:03:33Z</time>
      </trkpt>
      <trkpt lat="42.74659" lon="1.75932">
        <ele>1231</ele>
        <time>2016-09-10T10:03:41Z</time>
      </trkpt>
      <trkpt lat="42.74658" lon="1.75932">
        <ele>1231</ele>
        <time>2016-09-10T10:03:42Z</time>
      </trkpt>
      <trkpt lat="42.74658" lon="1.75932">
        <ele>1231</ele>
        <time>2016-09-10T10:03:43Z</time>
      </trkpt>
      <trkpt lat="42.74658" lon="1.75932">
        <ele>1231</ele>
        <time>2016-09-10T10:03:44Z</time>
      </trkpt>
      <trkpt lat="42.74658" lon="1.75932">
        <ele>1231</ele>
        <time>2016-09-10T10:03:45Z</time>
      </trkpt>
      <trkpt lat="42.74656" lon="1.75931">
        <ele>1232</ele>
        <time>2016-09-10T10:03:51Z</time>
      </trkpt>
      <trkpt lat="42.74655" lon="1.7593">
        <ele>1233</ele>
        <time>2016-09-10T10:03:52Z</time>
      </trkpt>
      <trkpt lat="42.74654" lon="1.75929">
        <ele>1233</ele>
        <time>2016-09-10T10:03:53Z</time>
      </trkpt>
      <trkpt lat="42.74653" lon="1.75928">
        <ele>1234</ele>
        <time>2016-09-10T10:03:54Z</time>
      </trkpt>
      <trkpt lat="42.74652" lon="1.75928">
        <ele>1235</ele>
        <time>2016-09-10T10:03:55Z</time>
      </trkpt>
      <trkpt lat="42.74651" lon="1.75927">
        <ele>1235</ele>
        <time>2016-09-10T10:03:56Z</time>
      </trkpt>
      <trkpt lat="42.74647" lon="1.75927">
        <ele>1236</ele>
        <time>2016-09-10T10:04:02Z</time>
      </trkpt>
      <trkpt lat="42.74647" lon="1.75926">
        <ele>1236</ele>
        <time>2016-09-10T10:04:06Z</time>
      </trkpt>
      <trkpt lat="42.74647" lon="1.75926">
        <ele>1236</ele>
        <time>2016-09-10T10:04:07Z</time>
      </trkpt>
      <trkpt lat="42.74647" lon="1.75926">
        <ele>1236</ele>
        <time>2016-09-10T10:04:08Z</time>
      </trkpt>
      <trkpt lat="42.74646" lon="1.75926">
        <ele>1237</ele>
        <time>2016-09-10T10:04:09Z</time>
      </trkpt>
      <trkpt lat="42.74645" lon="1.75926">
        <ele>1237</ele>
        <time>2016-09-10T10:04:10Z</time>
      </trkpt>
      <trkpt lat="42.74644" lon="1.75926">
        <ele>1237</ele>
        <time>2016-09-10T10:04:11Z</time>
      </trkpt>
      <trkpt lat="42.74642" lon="1.75926">
        <ele>1238</ele>
        <time>2016-09-10T10:04:18Z</time>
      </trkpt>
      <trkpt lat="42.74641" lon="1.75927">
        <ele>1237</ele>
        <time>2016-09-10T10:04:19Z</time>
      </trkpt>
      <trkpt lat="42.74641" lon="1.75927">
        <ele>1237</ele>
        <time>2016-09-10T10:04:20Z</time>
      </trkpt>
      <trkpt lat="42.74641" lon="1.75927">
        <ele>1237</ele>
        <time>2016-09-10T10:04:21Z</time>
      </trkpt>
      <trkpt lat="42.74641" lon="1.75926">
        <ele>1238</ele>
        <time>2016-09-10T10:04:22Z</time>
      </trkpt>
      <trkpt lat="42.74639" lon="1.75926">
        <ele>1239</ele>
        <time>2016-09-10T10:04:25Z</time>
      </trkpt>
      <trkpt lat="42.74637" lon="1.75922">
        <ele>1241</ele>
        <time>2016-09-10T10:04:33Z</time>
      </trkpt>
      <trkpt lat="42.74636" lon="1.75922">
        <ele>1241</ele>
        <time>2016-09-10T10:04:34Z</time>
      </trkpt>
      <trkpt lat="42.74636" lon="1.75922">
        <ele>1241</ele>
        <time>2016-09-10T10:04:35Z</time>
      </trkpt>
      <trkpt lat="42.74636" lon="1.75922">
        <ele>1241</ele>
        <time>2016-09-10T10:04:36Z</time>
      </trkpt>
      <trkpt lat="42.7463" lon="1.7592">
        <ele>1243</ele>
        <time>2016-09-10T10:04:41Z</time>
      </trkpt>
      <trkpt lat="42.74627" lon="1.75921">
        <ele>1244</ele>
        <time>2016-09-10T10:04:47Z</time>
      </trkpt>
      <trkpt lat="42.74627" lon="1.75921">
        <ele>1244</ele>
        <time>2016-09-10T10:04:48Z</time>
      </trkpt>
      <trkpt lat="42.74627" lon="1.75921">
        <ele>1244</ele>
        <time>2016-09-10T10:04:49Z</time>
      </trkpt>
      <trkpt lat="42.74627" lon="1.75921">
        <ele>1244</ele>
        <time>2016-09-10T10:04:50Z</time>
      </trkpt>
      <trkpt lat="42.74627" lon="1.75921">
        <ele>1244</ele>
        <time>2016-09-10T10:04:51Z</time>
      </trkpt>
      <trkpt lat="42.74626" lon="1.75919">
        <ele>1245</ele>
        <time>2016-09-10T10:04:58Z</time>
      </trkpt>
      <trkpt lat="42.74626" lon="1.75919">
        <ele>1245</ele>
        <time>2016-09-10T10:05:01Z</time>
      </trkpt>
      <trkpt lat="42.74626" lon="1.75919">
        <ele>1245</ele>
        <time>2016-09-10T10:05:02Z</time>
      </trkpt>
      <trkpt lat="42.74626" lon="1.75919">
        <ele>1245</ele>
        <time>2016-09-10T10:05:03Z</time>
      </trkpt>
      <trkpt lat="42.74625" lon="1.75919">
        <ele>1245</ele>
        <time>2016-09-10T10:05:04Z</time>
      </trkpt>
      <trkpt lat="42.74625" lon="1.75919">
        <ele>1245</ele>
        <time>2016-09-10T10:05:05Z</time>
      </trkpt>
      <trkpt lat="42.74624" lon="1.75919">
        <ele>1245</ele>
        <time>2016-09-10T10:05:08Z</time>
      </trkpt>
      <trkpt lat="42.74624" lon="1.75919">
        <ele>1245</ele>
        <time>2016-09-10T10:05:14Z</time>
      </trkpt>
      <trkpt lat="42.74624" lon="1.75919">
        <ele>1245</ele>
        <time>2016-09-10T10:05:15Z</time>
      </trkpt>
      <trkpt lat="42.74624" lon="1.75919">
        <ele>1245</ele>
        <time>2016-09-10T10:05:16Z</time>
      </trkpt>
      <trkpt lat="42.74623" lon="1.75917">
        <ele>1246</ele>
        <time>2016-09-10T10:05:17Z</time>
      </trkpt>
      <trkpt lat="42.74622" lon="1.75915">
        <ele>1247</ele>
        <time>2016-09-10T10:05:18Z</time>
      </trkpt>
      <trkpt lat="42.74618" lon="1.75906">
        <ele>1251</ele>
        <time>2016-09-10T10:05:25Z</time>
      </trkpt>
      <trkpt lat="42.74617" lon="1.75906">
        <ele>1252</ele>
        <time>2016-09-10T10:05:26Z</time>
      </trkpt>
      <trkpt lat="42.74616" lon="1.75906">
        <ele>1252</ele>
        <time>2016-09-10T10:05:27Z</time>
      </trkpt>
      <trkpt lat="42.74616" lon="1.75905">
        <ele>1252</ele>
        <time>2016-09-10T10:05:28Z</time>
      </trkpt>
      <trkpt lat="42.74615" lon="1.75905">
        <ele>1253</ele>
        <time>2016-09-10T10:05:34Z</time>
      </trkpt>
      <trkpt lat="42.74615" lon="1.75905">
        <ele>1253</ele>
        <time>2016-09-10T10:05:40Z</time>
      </trkpt>
      <trkpt lat="42.74615" lon="1.75903">
        <ele>1253</ele>
        <time>2016-09-10T10:05:41Z</time>
      </trkpt>
      <trkpt lat="42.74615" lon="1.75902">
        <ele>1254</ele>
        <time>2016-09-10T10:05:42Z</time>
      </trkpt>
      <trkpt lat="42.74615" lon="1.75902">
        <ele>1254</ele>
        <time>2016-09-10T10:05:43Z</time>
      </trkpt>
      <trkpt lat="42.74615" lon="1.75902">
        <ele>1254</ele>
        <time>2016-09-10T10:05:44Z</time>
      </trkpt>
      <trkpt lat="42.74613" lon="1.75898">
        <ele>1255</ele>
        <time>2016-09-10T10:05:54Z</time>
      </trkpt>
      <trkpt lat="42.74612" lon="1.75897">
        <ele>1256</ele>
        <time>2016-09-10T10:05:55Z</time>
      </trkpt>
      <trkpt lat="42.74612" lon="1.75896">
        <ele>1256</ele>
        <time>2016-09-10T10:05:56Z</time>
      </trkpt>
      <trkpt lat="42.74611" lon="1.75895">
        <ele>1257</ele>
        <time>2016-09-10T10:05:57Z</time>
      </trkpt>
      <trkpt lat="42.74611" lon="1.75894">
        <ele>1257</ele>
        <time>2016-09-10T10:05:58Z</time>
      </trkpt>
      <trkpt lat="42.74609" lon="1.75888">
        <ele>1259</ele>
        <time>2016-09-10T10:06:04Z</time>
      </trkpt>
      <trkpt lat="42.74606" lon="1.7588">
        <ele>1261</ele>
        <time>2016-09-10T10:06:08Z</time>
      </trkpt>
      <trkpt lat="42.74607" lon="1.75878">
        <ele>1261</ele>
        <time>2016-09-10T10:06:09Z</time>
      </trkpt>
      <trkpt lat="42.74607" lon="1.75876">
        <ele>1261</ele>
        <time>2016-09-10T10:06:10Z</time>
      </trkpt>
      <trkpt lat="42.74607" lon="1.75876">
        <ele>1261</ele>
        <time>2016-09-10T10:06:11Z</time>
      </trkpt>
      <trkpt lat="42.74607" lon="1.75874">
        <ele>1262</ele>
        <time>2016-09-10T10:06:12Z</time>
      </trkpt>
      <trkpt lat="42.74607" lon="1.75872">
        <ele>1262</ele>
        <time>2016-09-10T10:06:14Z</time>
      </trkpt>
      <trkpt lat="42.74606" lon="1.75869">
        <ele>1263</ele>
        <time>2016-09-10T10:06:19Z</time>
      </trkpt>
      <trkpt lat="42.74605" lon="1.75869">
        <ele>1263</ele>
        <time>2016-09-10T10:06:20Z</time>
      </trkpt>
      <trkpt lat="42.74605" lon="1.75869">
        <ele>1263</ele>
        <time>2016-09-10T10:06:21Z</time>
      </trkpt>
      <trkpt lat="42.74605" lon="1.75869">
        <ele>1263</ele>
        <time>2016-09-10T10:06:22Z</time>
      </trkpt>
      <trkpt lat="42.74605" lon="1.75869">
        <ele>1263</ele>
        <time>2016-09-10T10:06:23Z</time>
      </trkpt>
      <trkpt lat="42.74603" lon="1.75866">
        <ele>1264</ele>
        <time>2016-09-10T10:06:33Z</time>
      </trkpt>
      <trkpt lat="42.74603" lon="1.75866">
        <ele>1264</ele>
        <time>2016-09-10T10:06:34Z</time>
      </trkpt>
      <trkpt lat="42.74603" lon="1.75866">
        <ele>1264</ele>
        <time>2016-09-10T10:06:35Z</time>
      </trkpt>
      <trkpt lat="42.74603" lon="1.75866">
        <ele>1264</ele>
        <time>2016-09-10T10:06:36Z</time>
      </trkpt>
      <trkpt lat="42.74602" lon="1.75865">
        <ele>1265</ele>
        <time>2016-09-10T10:06:37Z</time>
      </trkpt>
      <trkpt lat="42.74601" lon="1.75865">
        <ele>1265</ele>
        <time>2016-09-10T10:06:38Z</time>
      </trkpt>
      <trkpt lat="42.74596" lon="1.75858">
        <ele>1267</ele>
        <time>2016-09-10T10:06:42Z</time>
      </trkpt>
      <trkpt lat="42.74592" lon="1.7585">
        <ele>1270</ele>
        <time>2016-09-10T10:06:48Z</time>
      </trkpt>
      <trkpt lat="42.74592" lon="1.75849">
        <ele>1270</ele>
        <time>2016-09-10T10:06:49Z</time>
      </trkpt>
      <trkpt lat="42.74591" lon="1.75849">
        <ele>1270</ele>
        <time>2016-09-10T10:06:50Z</time>
      </trkpt>
      <trkpt lat="42.74591" lon="1.75848">
        <ele>1271</ele>
        <time>2016-09-10T10:06:51Z</time>
      </trkpt>
      <trkpt lat="42.7459" lon="1.75848">
        <ele>1271</ele>
        <time>2016-09-10T10:06:52Z</time>
      </trkpt>
      <trkpt lat="42.74586" lon="1.75845">
        <ele>1273</ele>
        <time>2016-09-10T10:06:59Z</time>
      </trkpt>
      <trkpt lat="42.74586" lon="1.75845">
        <ele>1273</ele>
        <time>2016-09-10T10:07:00Z</time>
      </trkpt>
      <trkpt lat="42.74586" lon="1.75844">
        <ele>1273</ele>
        <time>2016-09-10T10:07:01Z</time>
      </trkpt>
      <trkpt lat="42.74587" lon="1.75844">
        <ele>1273</ele>
        <time>2016-09-10T10:07:02Z</time>
      </trkpt>
      <trkpt lat="42.74587" lon="1.75844">
        <ele>1273</ele>
        <time>2016-09-10T10:07:03Z</time>
      </trkpt>
      <trkpt lat="42.74587" lon="1.75844">
        <ele>1273</ele>
        <time>2016-09-10T10:07:09Z</time>
      </trkpt>
      <trkpt lat="42.74587" lon="1.75844">
        <ele>1273</ele>
        <time>2016-09-10T10:07:21Z</time>
      </trkpt>
      <trkpt lat="42.74587" lon="1.75844">
        <ele>1273</ele>
        <time>2016-09-10T10:07:32Z</time>
      </trkpt>
      <trkpt lat="42.74578" lon="1.75831">
        <ele>1277</ele>
        <time>2016-09-10T10:07:44Z</time>
      </trkpt>
      <trkpt lat="42.74578" lon="1.75831">
        <ele>1277</ele>
        <time>2016-09-10T10:07:54Z</time>
      </trkpt>
      <trkpt lat="42.74579" lon="1.75831">
        <ele>1277</ele>
        <time>2016-09-10T10:08:07Z</time>
      </trkpt>
      <trkpt lat="42.74582" lon="1.75833">
        <ele>1276</ele>
        <time>2016-09-10T10:08:14Z</time>
      </trkpt>
      <trkpt lat="42.74582" lon="1.75833">
        <ele>1276</ele>
        <time>2016-09-10T10:08:15Z</time>
      </trkpt>
      <trkpt lat="42.74582" lon="1.75834">
        <ele>1276</ele>
        <time>2016-09-10T10:08:16Z</time>
      </trkpt>
      <trkpt lat="42.74582" lon="1.75834">
        <ele>1276</ele>
        <time>2016-09-10T10:08:17Z</time>
      </trkpt>
      <trkpt lat="42.74582" lon="1.75834">
        <ele>1276</ele>
        <time>2016-09-10T10:08:18Z</time>
      </trkpt>
      <trkpt lat="42.74582" lon="1.75834">
        <ele>1276</ele>
        <time>2016-09-10T10:08:27Z</time>
      </trkpt>
      <trkpt lat="42.7458" lon="1.75831">
        <ele>1277</ele>
        <time>2016-09-10T10:08:36Z</time>
      </trkpt>
      <trkpt lat="42.7458" lon="1.75831">
        <ele>1277</ele>
        <time>2016-09-10T10:08:37Z</time>
      </trkpt>
      <trkpt lat="42.7458" lon="1.75831">
        <ele>1277</ele>
        <time>2016-09-10T10:08:38Z</time>
      </trkpt>
      <trkpt lat="42.7458" lon="1.75831">
        <ele>1277</ele>
        <time>2016-09-10T10:08:39Z</time>
      </trkpt>
      <trkpt lat="42.7458" lon="1.75831">
        <ele>1277</ele>
        <time>2016-09-10T10:08:40Z</time>
      </trkpt>
      <trkpt lat="42.7458" lon="1.75831">
        <ele>1277</ele>
        <time>2016-09-10T10:08:42Z</time>
      </trkpt>
      <trkpt lat="42.7458" lon="1.75831">
        <ele>1277</ele>
        <time>2016-09-10T10:08:43Z</time>
      </trkpt>
      <trkpt lat="42.7458" lon="1.75832">
        <ele>1277</ele>
        <time>2016-09-10T10:08:44Z</time>
      </trkpt>
      <trkpt lat="42.7458" lon="1.75832">
        <ele>1277</ele>
        <time>2016-09-10T10:08:45Z</time>
      </trkpt>
      <trkpt lat="42.7458" lon="1.75832">
        <ele>1277</ele>
        <time>2016-09-10T10:08:46Z</time>
      </trkpt>
      <trkpt lat="42.7458" lon="1.75832">
        <ele>1277</ele>
        <time>2016-09-10T10:08:47Z</time>
      </trkpt>
      <trkpt lat="42.7458" lon="1.75832">
        <ele>1277</ele>
        <time>2016-09-10T10:08:48Z</time>
      </trkpt>
      <trkpt lat="42.74577" lon="1.75826">
        <ele>1278</ele>
        <time>2016-09-10T10:08:58Z</time>
      </trkpt>
      <trkpt lat="42.7458" lon="1.7581">
        <ele>1280</ele>
        <time>2016-09-10T10:09:05Z</time>
      </trkpt>
      <trkpt lat="42.7458" lon="1.75806">
        <ele>1280</ele>
        <time>2016-09-10T10:09:07Z</time>
      </trkpt>
      <trkpt lat="42.7458" lon="1.75805">
        <ele>1281</ele>
        <time>2016-09-10T10:09:08Z</time>
      </trkpt>
      <trkpt lat="42.7458" lon="1.75804">
        <ele>1281</ele>
        <time>2016-09-10T10:09:09Z</time>
      </trkpt>
      <trkpt lat="42.7458" lon="1.75803">
        <ele>1281</ele>
        <time>2016-09-10T10:09:10Z</time>
      </trkpt>
      <trkpt lat="42.74577" lon="1.75797">
        <ele>1283</ele>
        <time>2016-09-10T10:09:15Z</time>
      </trkpt>
      <trkpt lat="42.74575" lon="1.75795">
        <ele>1284</ele>
        <time>2016-09-10T10:09:18Z</time>
      </trkpt>
      <trkpt lat="42.74575" lon="1.75794">
        <ele>1284</ele>
        <time>2016-09-10T10:09:19Z</time>
      </trkpt>
      <trkpt lat="42.74575" lon="1.75793">
        <ele>1284</ele>
        <time>2016-09-10T10:09:20Z</time>
      </trkpt>
      <trkpt lat="42.74575" lon="1.75793">
        <ele>1284</ele>
        <time>2016-09-10T10:09:21Z</time>
      </trkpt>
      <trkpt lat="42.74575" lon="1.75793">
        <ele>1284</ele>
        <time>2016-09-10T10:09:22Z</time>
      </trkpt>
      <trkpt lat="42.74575" lon="1.75794">
        <ele>1284</ele>
        <time>2016-09-10T10:09:25Z</time>
      </trkpt>
      <trkpt lat="42.74574" lon="1.75793">
        <ele>1284</ele>
        <time>2016-09-10T10:09:30Z</time>
      </trkpt>
      <trkpt lat="42.74574" lon="1.75793">
        <ele>1284</ele>
        <time>2016-09-10T10:09:31Z</time>
      </trkpt>
      <trkpt lat="42.74574" lon="1.75793">
        <ele>1284</ele>
        <time>2016-09-10T10:09:32Z</time>
      </trkpt>
      <trkpt lat="42.74574" lon="1.75793">
        <ele>1284</ele>
        <time>2016-09-10T10:09:33Z</time>
      </trkpt>
      <trkpt lat="42.74575" lon="1.75791">
        <ele>1284</ele>
        <time>2016-09-10T10:09:41Z</time>
      </trkpt>
      <trkpt lat="42.74575" lon="1.75791">
        <ele>1284</ele>
        <time>2016-09-10T10:09:42Z</time>
      </trkpt>
      <trkpt lat="42.74575" lon="1.75791">
        <ele>1284</ele>
        <time>2016-09-10T10:09:43Z</time>
      </trkpt>
      <trkpt lat="42.74575" lon="1.75791">
        <ele>1284</ele>
        <time>2016-09-10T10:09:44Z</time>
      </trkpt>
      <trkpt lat="42.74575" lon="1.75791">
        <ele>1284</ele>
        <time>2016-09-10T10:09:45Z</time>
      </trkpt>
      <trkpt lat="42.74577" lon="1.75788">
        <ele>1284</ele>
        <time>2016-09-10T10:09:50Z</time>
      </trkpt>
      <trkpt lat="42.74577" lon="1.75784">
        <ele>1285</ele>
        <time>2016-09-10T10:09:55Z</time>
      </trkpt>
      <trkpt lat="42.74577" lon="1.75784">
        <ele>1285</ele>
        <time>2016-09-10T10:09:56Z</time>
      </trkpt>
      <trkpt lat="42.74577" lon="1.75784">
        <ele>1285</ele>
        <time>2016-09-10T10:09:57Z</time>
      </trkpt>
      <trkpt lat="42.74577" lon="1.75784">
        <ele>1285</ele>
        <time>2016-09-10T10:09:58Z</time>
      </trkpt>
      <trkpt lat="42.74577" lon="1.75784">
        <ele>1285</ele>
        <time>2016-09-10T10:10:05Z</time>
      </trkpt>
      <trkpt lat="42.74577" lon="1.75784">
        <ele>1285</ele>
        <time>2016-09-10T10:10:07Z</time>
      </trkpt>
      <trkpt lat="42.74577" lon="1.75784">
        <ele>1285</ele>
        <time>2016-09-10T10:10:08Z</time>
      </trkpt>
      <trkpt lat="42.74577" lon="1.75782">
        <ele>1285</ele>
        <time>2016-09-10T10:10:09Z</time>
      </trkpt>
      <trkpt lat="42.74577" lon="1.7578">
        <ele>1285</ele>
        <time>2016-09-10T10:10:10Z</time>
      </trkpt>
      <trkpt lat="42.74577" lon="1.7578">
        <ele>1285</ele>
        <time>2016-09-10T10:10:11Z</time>
      </trkpt>
      <trkpt lat="42.74577" lon="1.75771">
        <ele>1285</ele>
        <time>2016-09-10T10:10:14Z</time>
      </trkpt>
      <trkpt lat="42.74579" lon="1.75762">
        <ele>1284</ele>
        <time>2016-09-10T10:10:20Z</time>
      </trkpt>
      <trkpt lat="42.74578" lon="1.75761">
        <ele>1284</ele>
        <time>2016-09-10T10:10:21Z</time>
      </trkpt>
      <trkpt lat="42.74578" lon="1.75759">
        <ele>1284</ele>
        <time>2016-09-10T10:10:22Z</time>
      </trkpt>
      <trkpt lat="42.74578" lon="1.75757">
        <ele>1284</ele>
        <time>2016-09-10T10:10:23Z</time>
      </trkpt>
      <trkpt lat="42.74578" lon="1.75756">
        <ele>1284</ele>
        <time>2016-09-10T10:10:24Z</time>
      </trkpt>
      <trkpt lat="42.74577" lon="1.75753">
        <ele>1284</ele>
        <time>2016-09-10T10:10:31Z</time>
      </trkpt>
      <trkpt lat="42.74577" lon="1.75753">
        <ele>1284</ele>
        <time>2016-09-10T10:10:32Z</time>
      </trkpt>
      <trkpt lat="42.74577" lon="1.75752">
        <ele>1284</ele>
        <time>2016-09-10T10:10:33Z</time>
      </trkpt>
      <trkpt lat="42.74577" lon="1.7575">
        <ele>1284</ele>
        <time>2016-09-10T10:10:34Z</time>
      </trkpt>
      <trkpt lat="42.74577" lon="1.75749">
        <ele>1284</ele>
        <time>2016-09-10T10:10:35Z</time>
      </trkpt>
      <trkpt lat="42.74579" lon="1.75739">
        <ele>1283</ele>
        <time>2016-09-10T10:10:40Z</time>
      </trkpt>
      <trkpt lat="42.74581" lon="1.75735">
        <ele>1282</ele>
        <time>2016-09-10T10:10:50Z</time>
      </trkpt>
      <trkpt lat="42.74578" lon="1.7573">
        <ele>1283</ele>
        <time>2016-09-10T10:10:58Z</time>
      </trkpt>
      <trkpt lat="42.74578" lon="1.75726">
        <ele>1283</ele>
        <time>2016-09-10T10:11:10Z</time>
      </trkpt>
      <trkpt lat="42.74578" lon="1.75726">
        <ele>1283</ele>
        <time>2016-09-10T10:11:20Z</time>
      </trkpt>
      <trkpt lat="42.74584" lon="1.75734">
        <ele>1281</ele>
        <time>2016-09-10T10:11:30Z</time>
      </trkpt>
      <trkpt lat="42.74591" lon="1.75739">
        <ele>1279</ele>
        <time>2016-09-10T10:11:42Z</time>
      </trkpt>
      <trkpt lat="42.74591" lon="1.7574">
        <ele>1279</ele>
        <time>2016-09-10T10:11:45Z</time>
      </trkpt>
      <trkpt lat="42.7459" lon="1.75739">
        <ele>1280</ele>
        <time>2016-09-10T10:11:46Z</time>
      </trkpt>
      <trkpt lat="42.7458" lon="1.7573">
        <ele>1282</ele>
        <time>2016-09-10T10:11:47Z</time>
      </trkpt>
      <trkpt lat="42.7458" lon="1.7573">
        <ele>1282</ele>
        <time>2016-09-10T10:11:48Z</time>
      </trkpt>
      <trkpt lat="42.74577" lon="1.75727">
        <ele>1283</ele>
        <time>2016-09-10T10:11:49Z</time>
      </trkpt>
      <trkpt lat="42.74574" lon="1.75726">
        <ele>1284</ele>
        <time>2016-09-10T10:11:53Z</time>
      </trkpt>
      <trkpt lat="42.74574" lon="1.75726">
        <ele>1284</ele>
        <time>2016-09-10T10:12:04Z</time>
      </trkpt>
      <trkpt lat="42.74574" lon="1.75726">
        <ele>1284</ele>
        <time>2016-09-10T10:12:19Z</time>
      </trkpt>
      <trkpt lat="42.74574" lon="1.75726">
        <ele>1284</ele>
        <time>2016-09-10T10:12:32Z</time>
      </trkpt>
      <trkpt lat="42.74572" lon="1.75725">
        <ele>1284</ele>
        <time>2016-09-10T10:12:43Z</time>
      </trkpt>
      <trkpt lat="42.74572" lon="1.75724">
        <ele>1284</ele>
        <time>2016-09-10T10:12:55Z</time>
      </trkpt>
      <trkpt lat="42.74572" lon="1.75724">
        <ele>1284</ele>
        <time>2016-09-10T10:13:11Z</time>
      </trkpt>
      <trkpt lat="42.7457" lon="1.7573">
        <ele>1285</ele>
        <time>2016-09-10T10:13:21Z</time>
      </trkpt>
      <trkpt lat="42.7457" lon="1.7573">
        <ele>1285</ele>
        <time>2016-09-10T10:13:32Z</time>
      </trkpt>
      <trkpt lat="42.7457" lon="1.7573">
        <ele>1285</ele>
        <time>2016-09-10T10:13:33Z</time>
      </trkpt>
      <trkpt lat="42.7457" lon="1.7573">
        <ele>1285</ele>
        <time>2016-09-10T10:13:34Z</time>
      </trkpt>
      <trkpt lat="42.7457" lon="1.7573">
        <ele>1285</ele>
        <time>2016-09-10T10:13:35Z</time>
      </trkpt>
      <trkpt lat="42.7457" lon="1.7573">
        <ele>1285</ele>
        <time>2016-09-10T10:13:36Z</time>
      </trkpt>
      <trkpt lat="42.74568" lon="1.75731">
        <ele>1286</ele>
        <time>2016-09-10T10:13:42Z</time>
      </trkpt>
      <trkpt lat="42.74567" lon="1.75732">
        <ele>1286</ele>
        <time>2016-09-10T10:13:44Z</time>
      </trkpt>
      <trkpt lat="42.74567" lon="1.75733">
        <ele>1286</ele>
        <time>2016-09-10T10:13:45Z</time>
      </trkpt>
      <trkpt lat="42.74566" lon="1.75733">
        <ele>1287</ele>
        <time>2016-09-10T10:13:46Z</time>
      </trkpt>
      <trkpt lat="42.74566" lon="1.75733">
        <ele>1287</ele>
        <time>2016-09-10T10:13:47Z</time>
      </trkpt>
      <trkpt lat="42.74566" lon="1.75733">
        <ele>1287</ele>
        <time>2016-09-10T10:13:48Z</time>
      </trkpt>
      <trkpt lat="42.74564" lon="1.75734">
        <ele>1287</ele>
        <time>2016-09-10T10:13:52Z</time>
      </trkpt>
      <trkpt lat="42.74562" lon="1.75735">
        <ele>1288</ele>
        <time>2016-09-10T10:13:56Z</time>
      </trkpt>
      <trkpt lat="42.74562" lon="1.75735">
        <ele>1288</ele>
        <time>2016-09-10T10:13:57Z</time>
      </trkpt>
      <trkpt lat="42.74562" lon="1.75735">
        <ele>1288</ele>
        <time>2016-09-10T10:13:58Z</time>
      </trkpt>
      <trkpt lat="42.74561" lon="1.75736">
        <ele>1288</ele>
        <time>2016-09-10T10:13:59Z</time>
      </trkpt>
      <trkpt lat="42.7456" lon="1.75736">
        <ele>1289</ele>
        <time>2016-09-10T10:14:00Z</time>
      </trkpt>
      <trkpt lat="42.7456" lon="1.75737">
        <ele>1289</ele>
        <time>2016-09-10T10:14:02Z</time>
      </trkpt>
      <trkpt lat="42.74559" lon="1.7574">
        <ele>1289</ele>
        <time>2016-09-10T10:14:10Z</time>
      </trkpt>
      <trkpt lat="42.74559" lon="1.7574">
        <ele>1289</ele>
        <time>2016-09-10T10:14:11Z</time>
      </trkpt>
      <trkpt lat="42.74559" lon="1.7574">
        <ele>1289</ele>
        <time>2016-09-10T10:14:12Z</time>
      </trkpt>
      <trkpt lat="42.74559" lon="1.75741">
        <ele>1289</ele>
        <time>2016-09-10T10:14:13Z</time>
      </trkpt>
      <trkpt lat="42.74558" lon="1.75742">
        <ele>1290</ele>
        <time>2016-09-10T10:14:14Z</time>
      </trkpt>
      <trkpt lat="42.74548" lon="1.75752">
        <ele>1294</ele>
        <time>2016-09-10T10:14:23Z</time>
      </trkpt>
      <trkpt lat="42.74542" lon="1.75755">
        <ele>1297</ele>
        <time>2016-09-10T10:14:32Z</time>
      </trkpt>
      <trkpt lat="42.74537" lon="1.75753">
        <ele>1298</ele>
        <time>2016-09-10T10:14:38Z</time>
      </trkpt>
      <trkpt lat="42.74537" lon="1.75753">
        <ele>1298</ele>
        <time>2016-09-10T10:14:39Z</time>
      </trkpt>
      <trkpt lat="42.74537" lon="1.75753">
        <ele>1298</ele>
        <time>2016-09-10T10:14:40Z</time>
      </trkpt>
      <trkpt lat="42.74537" lon="1.75752">
        <ele>1298</ele>
        <time>2016-09-10T10:14:41Z</time>
      </trkpt>
      <trkpt lat="42.74535" lon="1.75751">
        <ele>1299</ele>
        <time>2016-09-10T10:14:42Z</time>
      </trkpt>
      <trkpt lat="42.74535" lon="1.7575">
        <ele>1299</ele>
        <time>2016-09-10T10:14:43Z</time>
      </trkpt>
      <trkpt lat="42.74529" lon="1.75749">
        <ele>1301</ele>
        <time>2016-09-10T10:14:51Z</time>
      </trkpt>
      <trkpt lat="42.74529" lon="1.75749">
        <ele>1301</ele>
        <time>2016-09-10T10:14:52Z</time>
      </trkpt>
      <trkpt lat="42.74529" lon="1.75749">
        <ele>1301</ele>
        <time>2016-09-10T10:14:53Z</time>
      </trkpt>
      <trkpt lat="42.74529" lon="1.75749">
        <ele>1301</ele>
        <time>2016-09-10T10:14:54Z</time>
      </trkpt>
      <trkpt lat="42.74523" lon="1.75749">
        <ele>1303</ele>
        <time>2016-09-10T10:15:00Z</time>
      </trkpt>
      <trkpt lat="42.74519" lon="1.7575">
        <ele>1305</ele>
        <time>2016-09-10T10:15:05Z</time>
      </trkpt>
      <trkpt lat="42.74518" lon="1.75749">
        <ele>1305</ele>
        <time>2016-09-10T10:15:06Z</time>
      </trkpt>
      <trkpt lat="42.74518" lon="1.75748">
        <ele>1305</ele>
        <time>2016-09-10T10:15:07Z</time>
      </trkpt>
      <trkpt lat="42.74517" lon="1.75748">
        <ele>1305</ele>
        <time>2016-09-10T10:15:08Z</time>
      </trkpt>
      <trkpt lat="42.74517" lon="1.75748">
        <ele>1305</ele>
        <time>2016-09-10T10:15:09Z</time>
      </trkpt>
      <trkpt lat="42.74516" lon="1.75748">
        <ele>1305</ele>
        <time>2016-09-10T10:15:10Z</time>
      </trkpt>
      <trkpt lat="42.74513" lon="1.75746">
        <ele>1306</ele>
        <time>2016-09-10T10:15:18Z</time>
      </trkpt>
      <trkpt lat="42.74513" lon="1.75744">
        <ele>1306</ele>
        <time>2016-09-10T10:15:19Z</time>
      </trkpt>
      <trkpt lat="42.74513" lon="1.75743">
        <ele>1306</ele>
        <time>2016-09-10T10:15:20Z</time>
      </trkpt>
      <trkpt lat="42.74513" lon="1.75743">
        <ele>1306</ele>
        <time>2016-09-10T10:15:21Z</time>
      </trkpt>
      <trkpt lat="42.74511" lon="1.75741">
        <ele>1306</ele>
        <time>2016-09-10T10:15:28Z</time>
      </trkpt>
      <trkpt lat="42.74511" lon="1.7574">
        <ele>1306</ele>
        <time>2016-09-10T10:15:29Z</time>
      </trkpt>
      <trkpt lat="42.74511" lon="1.7574">
        <ele>1306</ele>
        <time>2016-09-10T10:15:30Z</time>
      </trkpt>
      <trkpt lat="42.74511" lon="1.75739">
        <ele>1306</ele>
        <time>2016-09-10T10:15:31Z</time>
      </trkpt>
      <trkpt lat="42.74511" lon="1.75738">
        <ele>1306</ele>
        <time>2016-09-10T10:15:32Z</time>
      </trkpt>
      <trkpt lat="42.74508" lon="1.75732">
        <ele>1306</ele>
        <time>2016-09-10T10:15:39Z</time>
      </trkpt>
      <trkpt lat="42.74508" lon="1.75731">
        <ele>1306</ele>
        <time>2016-09-10T10:15:40Z</time>
      </trkpt>
      <trkpt lat="42.74507" lon="1.7573">
        <ele>1306</ele>
        <time>2016-09-10T10:15:41Z</time>
      </trkpt>
      <trkpt lat="42.74507" lon="1.75729">
        <ele>1306</ele>
        <time>2016-09-10T10:15:42Z</time>
      </trkpt>
      <trkpt lat="42.74506" lon="1.75728">
        <ele>1306</ele>
        <time>2016-09-10T10:15:43Z</time>
      </trkpt>
      <trkpt lat="42.74501" lon="1.75725">
        <ele>1308</ele>
        <time>2016-09-10T10:15:49Z</time>
      </trkpt>
      <trkpt lat="42.74498" lon="1.75724">
        <ele>1309</ele>
        <time>2016-09-10T10:15:54Z</time>
      </trkpt>
      <trkpt lat="42.74497" lon="1.75723">
        <ele>1309</ele>
        <time>2016-09-10T10:15:55Z</time>
      </trkpt>
      <trkpt lat="42.74497" lon="1.75723">
        <ele>1309</ele>
        <time>2016-09-10T10:15:56Z</time>
      </trkpt>
      <trkpt lat="42.74497" lon="1.75723">
        <ele>1309</ele>
        <time>2016-09-10T10:15:57Z</time>
      </trkpt>
      <trkpt lat="42.74497" lon="1.75723">
        <ele>1309</ele>
        <time>2016-09-10T10:15:58Z</time>
      </trkpt>
      <trkpt lat="42.74496" lon="1.75722">
        <ele>1309</ele>
        <time>2016-09-10T10:16:01Z</time>
      </trkpt>
      <trkpt lat="42.74496" lon="1.75722">
        <ele>1309</ele>
        <time>2016-09-10T10:16:02Z</time>
      </trkpt>
      <trkpt lat="42.74495" lon="1.75722">
        <ele>1309</ele>
        <time>2016-09-10T10:16:03Z</time>
      </trkpt>
      <trkpt lat="42.74495" lon="1.75722">
        <ele>1310</ele>
        <time>2016-09-10T10:16:04Z</time>
      </trkpt>
      <trkpt lat="42.74494" lon="1.75723">
        <ele>1310</ele>
        <time>2016-09-10T10:16:05Z</time>
      </trkpt>
      <trkpt lat="42.74494" lon="1.75723">
        <ele>1310</ele>
        <time>2016-09-10T10:16:06Z</time>
      </trkpt>
      <trkpt lat="42.74491" lon="1.75727">
        <ele>1312</ele>
        <time>2016-09-10T10:16:17Z</time>
      </trkpt>
      <trkpt lat="42.74491" lon="1.75727">
        <ele>1312</ele>
        <time>2016-09-10T10:16:20Z</time>
      </trkpt>
      <trkpt lat="42.74491" lon="1.75727">
        <ele>1312</ele>
        <time>2016-09-10T10:16:21Z</time>
      </trkpt>
      <trkpt lat="42.74491" lon="1.75727">
        <ele>1312</ele>
        <time>2016-09-10T10:16:22Z</time>
      </trkpt>
      <trkpt lat="42.74491" lon="1.75727">
        <ele>1312</ele>
        <time>2016-09-10T10:16:23Z</time>
      </trkpt>
      <trkpt lat="42.7449" lon="1.75729">
        <ele>1312</ele>
        <time>2016-09-10T10:16:24Z</time>
      </trkpt>
      <trkpt lat="42.74487" lon="1.75733">
        <ele>1314</ele>
        <time>2016-09-10T10:16:28Z</time>
      </trkpt>
      <trkpt lat="42.74483" lon="1.75738">
        <ele>1315</ele>
        <time>2016-09-10T10:16:36Z</time>
      </trkpt>
      <trkpt lat="42.74481" lon="1.75741">
        <ele>1316</ele>
        <time>2016-09-10T10:16:38Z</time>
      </trkpt>
      <trkpt lat="42.7448" lon="1.75742">
        <ele>1317</ele>
        <time>2016-09-10T10:16:39Z</time>
      </trkpt>
      <trkpt lat="42.74478" lon="1.75743">
        <ele>1318</ele>
        <time>2016-09-10T10:16:40Z</time>
      </trkpt>
      <trkpt lat="42.74477" lon="1.75744">
        <ele>1318</ele>
        <time>2016-09-10T10:16:41Z</time>
      </trkpt>
      <trkpt lat="42.74476" lon="1.75745">
        <ele>1319</ele>
        <time>2016-09-10T10:16:42Z</time>
      </trkpt>
      <trkpt lat="42.74473" lon="1.75748">
        <ele>1320</ele>
        <time>2016-09-10T10:16:47Z</time>
      </trkpt>
      <trkpt lat="42.74466" lon="1.75755">
        <ele>1324</ele>
        <time>2016-09-10T10:16:57Z</time>
      </trkpt>
      <trkpt lat="42.74466" lon="1.75758">
        <ele>1324</ele>
        <time>2016-09-10T10:16:59Z</time>
      </trkpt>
      <trkpt lat="42.74466" lon="1.75759">
        <ele>1324</ele>
        <time>2016-09-10T10:17:00Z</time>
      </trkpt>
      <trkpt lat="42.74466" lon="1.7576">
        <ele>1324</ele>
        <time>2016-09-10T10:17:01Z</time>
      </trkpt>
      <trkpt lat="42.74465" lon="1.75762">
        <ele>1325</ele>
        <time>2016-09-10T10:17:02Z</time>
      </trkpt>
      <trkpt lat="42.74464" lon="1.75763">
        <ele>1325</ele>
        <time>2016-09-10T10:17:03Z</time>
      </trkpt>
      <trkpt lat="42.74462" lon="1.75764">
        <ele>1326</ele>
        <time>2016-09-10T10:17:08Z</time>
      </trkpt>
      <trkpt lat="42.74456" lon="1.75767">
        <ele>1328</ele>
        <time>2016-09-10T10:17:16Z</time>
      </trkpt>
      <trkpt lat="42.74456" lon="1.75767">
        <ele>1328</ele>
        <time>2016-09-10T10:17:17Z</time>
      </trkpt>
      <trkpt lat="42.74456" lon="1.75767">
        <ele>1328</ele>
        <time>2016-09-10T10:17:18Z</time>
      </trkpt>
      <trkpt lat="42.74456" lon="1.75767">
        <ele>1328</ele>
        <time>2016-09-10T10:17:19Z</time>
      </trkpt>
      <trkpt lat="42.74456" lon="1.75767">
        <ele>1328</ele>
        <time>2016-09-10T10:17:20Z</time>
      </trkpt>
      <trkpt lat="42.74456" lon="1.75767">
        <ele>1328</ele>
        <time>2016-09-10T10:17:28Z</time>
      </trkpt>
      <trkpt lat="42.74455" lon="1.75769">
        <ele>1328</ele>
        <time>2016-09-10T10:17:37Z</time>
      </trkpt>
      <trkpt lat="42.74455" lon="1.7577">
        <ele>1329</ele>
        <time>2016-09-10T10:17:38Z</time>
      </trkpt>
      <trkpt lat="42.74455" lon="1.7577">
        <ele>1329</ele>
        <time>2016-09-10T10:17:39Z</time>
      </trkpt>
      <trkpt lat="42.74454" lon="1.75771">
        <ele>1329</ele>
        <time>2016-09-10T10:17:40Z</time>
      </trkpt>
      <trkpt lat="42.74454" lon="1.75771">
        <ele>1329</ele>
        <time>2016-09-10T10:17:41Z</time>
      </trkpt>
      <trkpt lat="42.74446" lon="1.75779">
        <ele>1332</ele>
        <time>2016-09-10T10:17:47Z</time>
      </trkpt>
      <trkpt lat="42.74441" lon="1.75783">
        <ele>1333</ele>
        <time>2016-09-10T10:17:51Z</time>
      </trkpt>
      <trkpt lat="42.7444" lon="1.75784">
        <ele>1333</ele>
        <time>2016-09-10T10:17:52Z</time>
      </trkpt>
      <trkpt lat="42.74439" lon="1.75785">
        <ele>1333</ele>
        <time>2016-09-10T10:17:53Z</time>
      </trkpt>
      <trkpt lat="42.74438" lon="1.75786">
        <ele>1334</ele>
        <time>2016-09-10T10:17:54Z</time>
      </trkpt>
      <trkpt lat="42.74437" lon="1.75786">
        <ele>1334</ele>
        <time>2016-09-10T10:17:55Z</time>
      </trkpt>
      <trkpt lat="42.74433" lon="1.75786">
        <ele>1335</ele>
        <time>2016-09-10T10:17:57Z</time>
      </trkpt>
      <trkpt lat="42.74432" lon="1.75785">
        <ele>1335</ele>
        <time>2016-09-10T10:18:06Z</time>
      </trkpt>
      <trkpt lat="42.74432" lon="1.75785">
        <ele>1335</ele>
        <time>2016-09-10T10:18:07Z</time>
      </trkpt>
      <trkpt lat="42.74432" lon="1.75785">
        <ele>1335</ele>
        <time>2016-09-10T10:18:08Z</time>
      </trkpt>
      <trkpt lat="42.74432" lon="1.75785">
        <ele>1335</ele>
        <time>2016-09-10T10:18:09Z</time>
      </trkpt>
      <trkpt lat="42.74432" lon="1.75785">
        <ele>1335</ele>
        <time>2016-09-10T10:18:10Z</time>
      </trkpt>
      <trkpt lat="42.74428" lon="1.75788">
        <ele>1336</ele>
        <time>2016-09-10T10:18:16Z</time>
      </trkpt>
      <trkpt lat="42.74427" lon="1.75788">
        <ele>1336</ele>
        <time>2016-09-10T10:18:19Z</time>
      </trkpt>
      <trkpt lat="42.74425" lon="1.75789">
        <ele>1337</ele>
        <time>2016-09-10T10:18:20Z</time>
      </trkpt>
      <trkpt lat="42.74424" lon="1.7579">
        <ele>1337</ele>
        <time>2016-09-10T10:18:21Z</time>
      </trkpt>
      <trkpt lat="42.74423" lon="1.75789">
        <ele>1338</ele>
        <time>2016-09-10T10:18:22Z</time>
      </trkpt>
      <trkpt lat="42.74421" lon="1.75789">
        <ele>1338</ele>
        <time>2016-09-10T10:18:23Z</time>
      </trkpt>
      <trkpt lat="42.74417" lon="1.7579">
        <ele>1339</ele>
        <time>2016-09-10T10:18:26Z</time>
      </trkpt>
      <trkpt lat="42.74408" lon="1.75788">
        <ele>1341</ele>
        <time>2016-09-10T10:18:34Z</time>
      </trkpt>
      <trkpt lat="42.74406" lon="1.75786">
        <ele>1342</ele>
        <time>2016-09-10T10:18:36Z</time>
      </trkpt>
      <trkpt lat="42.74405" lon="1.75784">
        <ele>1342</ele>
        <time>2016-09-10T10:18:37Z</time>
      </trkpt>
      <trkpt lat="42.74405" lon="1.75783">
        <ele>1343</ele>
        <time>2016-09-10T10:18:38Z</time>
      </trkpt>
      <trkpt lat="42.74404" lon="1.75782">
        <ele>1343</ele>
        <time>2016-09-10T10:18:39Z</time>
      </trkpt>
      <trkpt lat="42.74402" lon="1.75781">
        <ele>1344</ele>
        <time>2016-09-10T10:18:40Z</time>
      </trkpt>
      <trkpt lat="42.74402" lon="1.75781">
        <ele>1344</ele>
        <time>2016-09-10T10:18:45Z</time>
      </trkpt>
      <trkpt lat="42.74402" lon="1.75778">
        <ele>1344</ele>
        <time>2016-09-10T10:18:52Z</time>
      </trkpt>
      <trkpt lat="42.74402" lon="1.75776">
        <ele>1343</ele>
        <time>2016-09-10T10:18:53Z</time>
      </trkpt>
      <trkpt lat="42.74401" lon="1.75773">
        <ele>1343</ele>
        <time>2016-09-10T10:18:54Z</time>
      </trkpt>
      <trkpt lat="42.74401" lon="1.7577">
        <ele>1343</ele>
        <time>2016-09-10T10:18:55Z</time>
      </trkpt>
      <trkpt lat="42.744" lon="1.75767">
        <ele>1343</ele>
        <time>2016-09-10T10:18:56Z</time>
      </trkpt>
      <trkpt lat="42.74397" lon="1.75759">
        <ele>1343</ele>
        <time>2016-09-10T10:19:03Z</time>
      </trkpt>
      <trkpt lat="42.74397" lon="1.75757">
        <ele>1343</ele>
        <time>2016-09-10T10:19:05Z</time>
      </trkpt>
      <trkpt lat="42.74397" lon="1.75756">
        <ele>1343</ele>
        <time>2016-09-10T10:19:06Z</time>
      </trkpt>
      <trkpt lat="42.74397" lon="1.75755">
        <ele>1343</ele>
        <time>2016-09-10T10:19:07Z</time>
      </trkpt>
      <trkpt lat="42.74396" lon="1.75753">
        <ele>1343</ele>
        <time>2016-09-10T10:19:08Z</time>
      </trkpt>
      <trkpt lat="42.74396" lon="1.75752">
        <ele>1343</ele>
        <time>2016-09-10T10:19:09Z</time>
      </trkpt>
      <trkpt lat="42.74393" lon="1.7575">
        <ele>1344</ele>
        <time>2016-09-10T10:19:15Z</time>
      </trkpt>
      <trkpt lat="42.74393" lon="1.7575">
        <ele>1344</ele>
        <time>2016-09-10T10:19:17Z</time>
      </trkpt>
      <trkpt lat="42.74393" lon="1.7575">
        <ele>1344</ele>
        <time>2016-09-10T10:19:18Z</time>
      </trkpt>
      <trkpt lat="42.74392" lon="1.75749">
        <ele>1344</ele>
        <time>2016-09-10T10:19:19Z</time>
      </trkpt>
      <trkpt lat="42.74392" lon="1.75749">
        <ele>1344</ele>
        <time>2016-09-10T10:19:20Z</time>
      </trkpt>
      <trkpt lat="42.74392" lon="1.75749">
        <ele>1344</ele>
        <time>2016-09-10T10:19:21Z</time>
      </trkpt>
      <trkpt lat="42.74391" lon="1.75744">
        <ele>1344</ele>
        <time>2016-09-10T10:19:27Z</time>
      </trkpt>
      <trkpt lat="42.74391" lon="1.75743">
        <ele>1344</ele>
        <time>2016-09-10T10:19:29Z</time>
      </trkpt>
      <trkpt lat="42.74391" lon="1.75743">
        <ele>1344</ele>
        <time>2016-09-10T10:19:30Z</time>
      </trkpt>
      <trkpt lat="42.74391" lon="1.75743">
        <ele>1344</ele>
        <time>2016-09-10T10:19:31Z</time>
      </trkpt>
      <trkpt lat="42.74391" lon="1.75743">
        <ele>1344</ele>
        <time>2016-09-10T10:19:32Z</time>
      </trkpt>
      <trkpt lat="42.74391" lon="1.75743">
        <ele>1344</ele>
        <time>2016-09-10T10:19:33Z</time>
      </trkpt>
      <trkpt lat="42.74389" lon="1.7574">
        <ele>1344</ele>
        <time>2016-09-10T10:19:39Z</time>
      </trkpt>
      <trkpt lat="42.74389" lon="1.75739">
        <ele>1344</ele>
        <time>2016-09-10T10:19:41Z</time>
      </trkpt>
      <trkpt lat="42.74388" lon="1.75739">
        <ele>1344</ele>
        <time>2016-09-10T10:19:42Z</time>
      </trkpt>
      <trkpt lat="42.74387" lon="1.75738">
        <ele>1345</ele>
        <time>2016-09-10T10:19:43Z</time>
      </trkpt>
      <trkpt lat="42.74386" lon="1.75738">
        <ele>1345</ele>
        <time>2016-09-10T10:19:44Z</time>
      </trkpt>
      <trkpt lat="42.74384" lon="1.75738">
        <ele>1346</ele>
        <time>2016-09-10T10:19:45Z</time>
      </trkpt>
      <trkpt lat="42.74381" lon="1.75737">
        <ele>1347</ele>
        <time>2016-09-10T10:19:49Z</time>
      </trkpt>
      <trkpt lat="42.7438" lon="1.75735">
        <ele>1347</ele>
        <time>2016-09-10T10:19:52Z</time>
      </trkpt>
      <trkpt lat="42.74379" lon="1.75734">
        <ele>1347</ele>
        <time>2016-09-10T10:19:53Z</time>
      </trkpt>
      <trkpt lat="42.74378" lon="1.75733">
        <ele>1347</ele>
        <time>2016-09-10T10:19:54Z</time>
      </trkpt>
      <trkpt lat="42.74378" lon="1.75732">
        <ele>1347</ele>
        <time>2016-09-10T10:19:55Z</time>
      </trkpt>
      <trkpt lat="42.74377" lon="1.75732">
        <ele>1348</ele>
        <time>2016-09-10T10:19:56Z</time>
      </trkpt>
      <trkpt lat="42.74377" lon="1.75732">
        <ele>1348</ele>
        <time>2016-09-10T10:19:57Z</time>
      </trkpt>
      <trkpt lat="42.74377" lon="1.75732">
        <ele>1348</ele>
        <time>2016-09-10T10:20:06Z</time>
      </trkpt>
      <trkpt lat="42.74377" lon="1.75732">
        <ele>1348</ele>
        <time>2016-09-10T10:20:07Z</time>
      </trkpt>
      <trkpt lat="42.74377" lon="1.75732">
        <ele>1348</ele>
        <time>2016-09-10T10:20:08Z</time>
      </trkpt>
      <trkpt lat="42.74377" lon="1.75732">
        <ele>1348</ele>
        <time>2016-09-10T10:20:09Z</time>
      </trkpt>
      <trkpt lat="42.74377" lon="1.75732">
        <ele>1348</ele>
        <time>2016-09-10T10:20:10Z</time>
      </trkpt>
      <trkpt lat="42.74367" lon="1.7573">
        <ele>1351</ele>
        <time>2016-09-10T10:20:19Z</time>
      </trkpt>
      <trkpt lat="42.74367" lon="1.7573">
        <ele>1351</ele>
        <time>2016-09-10T10:20:20Z</time>
      </trkpt>
      <trkpt lat="42.74367" lon="1.7573">
        <ele>1351</ele>
        <time>2016-09-10T10:20:21Z</time>
      </trkpt>
      <trkpt lat="42.74367" lon="1.7573">
        <ele>1351</ele>
        <time>2016-09-10T10:20:22Z</time>
      </trkpt>
      <trkpt lat="42.74367" lon="1.7573">
        <ele>1351</ele>
        <time>2016-09-10T10:20:23Z</time>
      </trkpt>
      <trkpt lat="42.74367" lon="1.7573">
        <ele>1351</ele>
        <time>2016-09-10T10:20:24Z</time>
      </trkpt>
      <trkpt lat="42.74367" lon="1.7573">
        <ele>1351</ele>
        <time>2016-09-10T10:20:29Z</time>
      </trkpt>
      <trkpt lat="42.74363" lon="1.75728">
        <ele>1352</ele>
        <time>2016-09-10T10:20:32Z</time>
      </trkpt>
      <trkpt lat="42.74362" lon="1.75727">
        <ele>1353</ele>
        <time>2016-09-10T10:20:33Z</time>
      </trkpt>
      <trkpt lat="42.7436" lon="1.75726">
        <ele>1354</ele>
        <time>2016-09-10T10:20:34Z</time>
      </trkpt>
      <trkpt lat="42.74358" lon="1.75726">
        <ele>1354</ele>
        <time>2016-09-10T10:20:35Z</time>
      </trkpt>
      <trkpt lat="42.74357" lon="1.75726">
        <ele>1355</ele>
        <time>2016-09-10T10:20:36Z</time>
      </trkpt>
      <trkpt lat="42.74353" lon="1.75727">
        <ele>1356</ele>
        <time>2016-09-10T10:20:38Z</time>
      </trkpt>
      <trkpt lat="42.74348" lon="1.75725">
        <ele>1358</ele>
        <time>2016-09-10T10:20:47Z</time>
      </trkpt>
      <trkpt lat="42.74346" lon="1.75723">
        <ele>1359</ele>
        <time>2016-09-10T10:20:49Z</time>
      </trkpt>
      <trkpt lat="42.74345" lon="1.75723">
        <ele>1359</ele>
        <time>2016-09-10T10:20:50Z</time>
      </trkpt>
      <trkpt lat="42.74344" lon="1.75722">
        <ele>1359</ele>
        <time>2016-09-10T10:20:51Z</time>
      </trkpt>
      <trkpt lat="42.74344" lon="1.75721">
        <ele>1359</ele>
        <time>2016-09-10T10:20:52Z</time>
      </trkpt>
      <trkpt lat="42.74344" lon="1.7572">
        <ele>1359</ele>
        <time>2016-09-10T10:20:53Z</time>
      </trkpt>
      <trkpt lat="42.7434" lon="1.75718">
        <ele>1360</ele>
        <time>2016-09-10T10:20:56Z</time>
      </trkpt>
      <trkpt lat="42.74329" lon="1.75714">
        <ele>1363</ele>
        <time>2016-09-10T10:21:07Z</time>
      </trkpt>
      <trkpt lat="42.74328" lon="1.75714">
        <ele>1364</ele>
        <time>2016-09-10T10:21:12Z</time>
      </trkpt>
      <trkpt lat="42.74328" lon="1.75714">
        <ele>1364</ele>
        <time>2016-09-10T10:21:13Z</time>
      </trkpt>
      <trkpt lat="42.74328" lon="1.75714">
        <ele>1364</ele>
        <time>2016-09-10T10:21:14Z</time>
      </trkpt>
      <trkpt lat="42.74328" lon="1.75714">
        <ele>1364</ele>
        <time>2016-09-10T10:21:15Z</time>
      </trkpt>
      <trkpt lat="42.74327" lon="1.75713">
        <ele>1364</ele>
        <time>2016-09-10T10:21:16Z</time>
      </trkpt>
      <trkpt lat="42.74326" lon="1.75712">
        <ele>1364</ele>
        <time>2016-09-10T10:21:18Z</time>
      </trkpt>
      <trkpt lat="42.74323" lon="1.75709">
        <ele>1364</ele>
        <time>2016-09-10T10:21:26Z</time>
      </trkpt>
      <trkpt lat="42.74318" lon="1.75709">
        <ele>1365</ele>
        <time>2016-09-10T10:21:35Z</time>
      </trkpt>
      <trkpt lat="42.7431" lon="1.75709">
        <ele>1368</ele>
        <time>2016-09-10T10:21:41Z</time>
      </trkpt>
      <trkpt lat="42.7431" lon="1.75709">
        <ele>1368</ele>
        <time>2016-09-10T10:21:42Z</time>
      </trkpt>
      <trkpt lat="42.7431" lon="1.75709">
        <ele>1368</ele>
        <time>2016-09-10T10:21:43Z</time>
      </trkpt>
      <trkpt lat="42.7431" lon="1.75709">
        <ele>1368</ele>
        <time>2016-09-10T10:21:44Z</time>
      </trkpt>
      <trkpt lat="42.7431" lon="1.75709">
        <ele>1368</ele>
        <time>2016-09-10T10:21:45Z</time>
      </trkpt>
      <trkpt lat="42.74302" lon="1.75711">
        <ele>1371</ele>
        <time>2016-09-10T10:21:55Z</time>
      </trkpt>
      <trkpt lat="42.74294" lon="1.75716">
        <ele>1374</ele>
        <time>2016-09-10T10:21:59Z</time>
      </trkpt>
      <trkpt lat="42.74292" lon="1.75717">
        <ele>1375</ele>
        <time>2016-09-10T10:22:00Z</time>
      </trkpt>
      <trkpt lat="42.74291" lon="1.75717">
        <ele>1375</ele>
        <time>2016-09-10T10:22:01Z</time>
      </trkpt>
      <trkpt lat="42.7429" lon="1.75717">
        <ele>1376</ele>
        <time>2016-09-10T10:22:02Z</time>
      </trkpt>
      <trkpt lat="42.7429" lon="1.75717">
        <ele>1376</ele>
        <time>2016-09-10T10:22:03Z</time>
      </trkpt>
      <trkpt lat="42.74289" lon="1.75717">
        <ele>1376</ele>
        <time>2016-09-10T10:22:04Z</time>
      </trkpt>
      <trkpt lat="42.74279" lon="1.75717">
        <ele>1379</ele>
        <time>2016-09-10T10:22:14Z</time>
      </trkpt>
      <trkpt lat="42.74275" lon="1.75718">
        <ele>1381</ele>
        <time>2016-09-10T10:22:20Z</time>
      </trkpt>
      <trkpt lat="42.74274" lon="1.75719">
        <ele>1381</ele>
        <time>2016-09-10T10:22:21Z</time>
      </trkpt>
      <trkpt lat="42.74273" lon="1.7572">
        <ele>1381</ele>
        <time>2016-09-10T10:22:22Z</time>
      </trkpt>
      <trkpt lat="42.74272" lon="1.75721">
        <ele>1382</ele>
        <time>2016-09-10T10:22:23Z</time>
      </trkpt>
      <trkpt lat="42.74272" lon="1.75721">
        <ele>1382</ele>
        <time>2016-09-10T10:22:24Z</time>
      </trkpt>
      <trkpt lat="42.74272" lon="1.7572">
        <ele>1382</ele>
        <time>2016-09-10T10:22:29Z</time>
      </trkpt>
      <trkpt lat="42.74268" lon="1.75719">
        <ele>1383</ele>
        <time>2016-09-10T10:22:35Z</time>
      </trkpt>
      <trkpt lat="42.74268" lon="1.75719">
        <ele>1383</ele>
        <time>2016-09-10T10:22:36Z</time>
      </trkpt>
      <trkpt lat="42.74267" lon="1.75719">
        <ele>1383</ele>
        <time>2016-09-10T10:22:37Z</time>
      </trkpt>
      <trkpt lat="42.74266" lon="1.75719">
        <ele>1383</ele>
        <time>2016-09-10T10:22:38Z</time>
      </trkpt>
      <trkpt lat="42.74265" lon="1.75718">
        <ele>1383</ele>
        <time>2016-09-10T10:22:39Z</time>
      </trkpt>
      <trkpt lat="42.74259" lon="1.75708">
        <ele>1383</ele>
        <time>2016-09-10T10:22:48Z</time>
      </trkpt>
      <trkpt lat="42.74259" lon="1.75706">
        <ele>1383</ele>
        <time>2016-09-10T10:22:49Z</time>
      </trkpt>
      <trkpt lat="42.74258" lon="1.75704">
        <ele>1383</ele>
        <time>2016-09-10T10:22:50Z</time>
      </trkpt>
      <trkpt lat="42.74257" lon="1.75703">
        <ele>1383</ele>
        <time>2016-09-10T10:22:51Z</time>
      </trkpt>
      <trkpt lat="42.74257" lon="1.75702">
        <ele>1383</ele>
        <time>2016-09-10T10:22:52Z</time>
      </trkpt>
      <trkpt lat="42.74256" lon="1.75701">
        <ele>1383</ele>
        <time>2016-09-10T10:23:01Z</time>
      </trkpt>
      <trkpt lat="42.74256" lon="1.75699">
        <ele>1383</ele>
        <time>2016-09-10T10:23:03Z</time>
      </trkpt>
      <trkpt lat="42.74256" lon="1.75699">
        <ele>1383</ele>
        <time>2016-09-10T10:23:04Z</time>
      </trkpt>
      <trkpt lat="42.74256" lon="1.75699">
        <ele>1383</ele>
        <time>2016-09-10T10:23:05Z</time>
      </trkpt>
      <trkpt lat="42.74256" lon="1.75699">
        <ele>1383</ele>
        <time>2016-09-10T10:23:06Z</time>
      </trkpt>
      <trkpt lat="42.74256" lon="1.75699">
        <ele>1383</ele>
        <time>2016-09-10T10:23:07Z</time>
      </trkpt>
      <trkpt lat="42.74256" lon="1.75699">
        <ele>1383</ele>
        <time>2016-09-10T10:23:11Z</time>
      </trkpt>
      <trkpt lat="42.74253" lon="1.75697">
        <ele>1383</ele>
        <time>2016-09-10T10:23:16Z</time>
      </trkpt>
      <trkpt lat="42.74252" lon="1.75698">
        <ele>1384</ele>
        <time>2016-09-10T10:23:17Z</time>
      </trkpt>
      <trkpt lat="42.7425" lon="1.75698">
        <ele>1384</ele>
        <time>2016-09-10T10:23:18Z</time>
      </trkpt>
      <trkpt lat="42.74249" lon="1.75698">
        <ele>1385</ele>
        <time>2016-09-10T10:23:19Z</time>
      </trkpt>
      <trkpt lat="42.74248" lon="1.75699">
        <ele>1385</ele>
        <time>2016-09-10T10:23:20Z</time>
      </trkpt>
      <trkpt lat="42.74245" lon="1.75696">
        <ele>1386</ele>
        <time>2016-09-10T10:23:24Z</time>
      </trkpt>
      <trkpt lat="42.74241" lon="1.75694">
        <ele>1387</ele>
        <time>2016-09-10T10:23:27Z</time>
      </trkpt>
      <trkpt lat="42.7424" lon="1.75694">
        <ele>1387</ele>
        <time>2016-09-10T10:23:28Z</time>
      </trkpt>
      <trkpt lat="42.74239" lon="1.75694">
        <ele>1387</ele>
        <time>2016-09-10T10:23:29Z</time>
      </trkpt>
      <trkpt lat="42.74238" lon="1.75693">
        <ele>1388</ele>
        <time>2016-09-10T10:23:30Z</time>
      </trkpt>
      <trkpt lat="42.74237" lon="1.75693">
        <ele>1388</ele>
        <time>2016-09-10T10:23:31Z</time>
      </trkpt>
      <trkpt lat="42.74235" lon="1.75692">
        <ele>1389</ele>
        <time>2016-09-10T10:23:33Z</time>
      </trkpt>
      <trkpt lat="42.74231" lon="1.75685">
        <ele>1389</ele>
        <time>2016-09-10T10:23:42Z</time>
      </trkpt>
      <trkpt lat="42.74231" lon="1.75685">
        <ele>1389</ele>
        <time>2016-09-10T10:23:43Z</time>
      </trkpt>
      <trkpt lat="42.74231" lon="1.75685">
        <ele>1389</ele>
        <time>2016-09-10T10:23:44Z</time>
      </trkpt>
      <trkpt lat="42.74231" lon="1.75685">
        <ele>1389</ele>
        <time>2016-09-10T10:23:45Z</time>
      </trkpt>
      <trkpt lat="42.74231" lon="1.75685">
        <ele>1389</ele>
        <time>2016-09-10T10:23:46Z</time>
      </trkpt>
      <trkpt lat="42.74229" lon="1.75682">
        <ele>1390</ele>
        <time>2016-09-10T10:23:53Z</time>
      </trkpt>
      <trkpt lat="42.74226" lon="1.75679">
        <ele>1391</ele>
        <time>2016-09-10T10:23:56Z</time>
      </trkpt>
      <trkpt lat="42.74226" lon="1.75678">
        <ele>1391</ele>
        <time>2016-09-10T10:23:57Z</time>
      </trkpt>
      <trkpt lat="42.74226" lon="1.75677">
        <ele>1390</ele>
        <time>2016-09-10T10:23:58Z</time>
      </trkpt>
      <trkpt lat="42.74226" lon="1.75676">
        <ele>1390</ele>
        <time>2016-09-10T10:23:59Z</time>
      </trkpt>
      <trkpt lat="42.74226" lon="1.75672">
        <ele>1390</ele>
        <time>2016-09-10T10:24:03Z</time>
      </trkpt>
      <trkpt lat="42.7422" lon="1.75671">
        <ele>1392</ele>
        <time>2016-09-10T10:24:10Z</time>
      </trkpt>
      <trkpt lat="42.74219" lon="1.75672">
        <ele>1392</ele>
        <time>2016-09-10T10:24:11Z</time>
      </trkpt>
      <trkpt lat="42.74218" lon="1.75672">
        <ele>1393</ele>
        <time>2016-09-10T10:24:12Z</time>
      </trkpt>
      <trkpt lat="42.74217" lon="1.75672">
        <ele>1393</ele>
        <time>2016-09-10T10:24:13Z</time>
      </trkpt>
      <trkpt lat="42.74217" lon="1.75672">
        <ele>1393</ele>
        <time>2016-09-10T10:24:14Z</time>
      </trkpt>
      <trkpt lat="42.74216" lon="1.75669">
        <ele>1393</ele>
        <time>2016-09-10T10:24:21Z</time>
      </trkpt>
      <trkpt lat="42.74216" lon="1.75669">
        <ele>1393</ele>
        <time>2016-09-10T10:24:23Z</time>
      </trkpt>
      <trkpt lat="42.74216" lon="1.75669">
        <ele>1393</ele>
        <time>2016-09-10T10:24:24Z</time>
      </trkpt>
      <trkpt lat="42.74216" lon="1.75669">
        <ele>1393</ele>
        <time>2016-09-10T10:24:25Z</time>
      </trkpt>
      <trkpt lat="42.74216" lon="1.75669">
        <ele>1393</ele>
        <time>2016-09-10T10:24:26Z</time>
      </trkpt>
      <trkpt lat="42.74215" lon="1.75668">
        <ele>1394</ele>
        <time>2016-09-10T10:24:30Z</time>
      </trkpt>
      <trkpt lat="42.74213" lon="1.75666">
        <ele>1395</ele>
        <time>2016-09-10T10:24:37Z</time>
      </trkpt>
      <trkpt lat="42.74211" lon="1.75665">
        <ele>1395</ele>
        <time>2016-09-10T10:24:38Z</time>
      </trkpt>
      <trkpt lat="42.74209" lon="1.75665">
        <ele>1396</ele>
        <time>2016-09-10T10:24:39Z</time>
      </trkpt>
      <trkpt lat="42.74208" lon="1.75664">
        <ele>1396</ele>
        <time>2016-09-10T10:24:40Z</time>
      </trkpt>
      <trkpt lat="42.74207" lon="1.75662">
        <ele>1396</ele>
        <time>2016-09-10T10:24:41Z</time>
      </trkpt>
      <trkpt lat="42.74203" lon="1.75647">
        <ele>1393</ele>
        <time>2016-09-10T10:24:49Z</time>
      </trkpt>
      <trkpt lat="42.74203" lon="1.75646">
        <ele>1393</ele>
        <time>2016-09-10T10:24:50Z</time>
      </trkpt>
      <trkpt lat="42.74202" lon="1.75645">
        <ele>1392</ele>
        <time>2016-09-10T10:24:51Z</time>
      </trkpt>
      <trkpt lat="42.74202" lon="1.75643">
        <ele>1392</ele>
        <time>2016-09-10T10:24:52Z</time>
      </trkpt>
      <trkpt lat="42.74201" lon="1.75641">
        <ele>1392</ele>
        <time>2016-09-10T10:24:53Z</time>
      </trkpt>
      <trkpt lat="42.74199" lon="1.75637">
        <ele>1391</ele>
        <time>2016-09-10T10:25:00Z</time>
      </trkpt>
      <trkpt lat="42.74199" lon="1.75636">
        <ele>1391</ele>
        <time>2016-09-10T10:25:11Z</time>
      </trkpt>
      <trkpt lat="42.742" lon="1.75637">
        <ele>1391</ele>
        <time>2016-09-10T10:25:15Z</time>
      </trkpt>
      <trkpt lat="42.742" lon="1.75637">
        <ele>1391</ele>
        <time>2016-09-10T10:25:16Z</time>
      </trkpt>
      <trkpt lat="42.742" lon="1.75638">
        <ele>1391</ele>
        <time>2016-09-10T10:25:17Z</time>
      </trkpt>
      <trkpt lat="42.742" lon="1.75637">
        <ele>1391</ele>
        <time>2016-09-10T10:25:18Z</time>
      </trkpt>
      <trkpt lat="42.742" lon="1.75637">
        <ele>1391</ele>
        <time>2016-09-10T10:25:19Z</time>
      </trkpt>
      <trkpt lat="42.74199" lon="1.75638">
        <ele>1391</ele>
        <time>2016-09-10T10:25:21Z</time>
      </trkpt>
      <trkpt lat="42.74197" lon="1.75634">
        <ele>1391</ele>
        <time>2016-09-10T10:25:29Z</time>
      </trkpt>
      <trkpt lat="42.74195" lon="1.75634">
        <ele>1391</ele>
        <time>2016-09-10T10:25:30Z</time>
      </trkpt>
      <trkpt lat="42.74195" lon="1.75634">
        <ele>1392</ele>
        <time>2016-09-10T10:25:31Z</time>
      </trkpt>
      <trkpt lat="42.74194" lon="1.75633">
        <ele>1392</ele>
        <time>2016-09-10T10:25:32Z</time>
      </trkpt>
      <trkpt lat="42.74193" lon="1.75632">
        <ele>1392</ele>
        <time>2016-09-10T10:25:33Z</time>
      </trkpt>
      <trkpt lat="42.74188" lon="1.75628">
        <ele>1392</ele>
        <time>2016-09-10T10:25:43Z</time>
      </trkpt>
      <trkpt lat="42.74182" lon="1.75628">
        <ele>1393</ele>
        <time>2016-09-10T10:25:51Z</time>
      </trkpt>
      <trkpt lat="42.7418" lon="1.75629">
        <ele>1393</ele>
        <time>2016-09-10T10:25:52Z</time>
      </trkpt>
      <trkpt lat="42.7418" lon="1.75629">
        <ele>1394</ele>
        <time>2016-09-10T10:25:53Z</time>
      </trkpt>
      <trkpt lat="42.74179" lon="1.7563">
        <ele>1394</ele>
        <time>2016-09-10T10:25:54Z</time>
      </trkpt>
      <trkpt lat="42.74178" lon="1.7563">
        <ele>1394</ele>
        <time>2016-09-10T10:25:55Z</time>
      </trkpt>
      <trkpt lat="42.74173" lon="1.75629">
        <ele>1395</ele>
        <time>2016-09-10T10:26:03Z</time>
      </trkpt>
      <trkpt lat="42.74161" lon="1.75627">
        <ele>1396</ele>
        <time>2016-09-10T10:26:10Z</time>
      </trkpt>
      <trkpt lat="42.7416" lon="1.75627">
        <ele>1397</ele>
        <time>2016-09-10T10:26:12Z</time>
      </trkpt>
      <trkpt lat="42.74159" lon="1.75627">
        <ele>1397</ele>
        <time>2016-09-10T10:26:13Z</time>
      </trkpt>
      <trkpt lat="42.74158" lon="1.75626">
        <ele>1397</ele>
        <time>2016-09-10T10:26:14Z</time>
      </trkpt>
      <trkpt lat="42.74157" lon="1.75626">
        <ele>1397</ele>
        <time>2016-09-10T10:26:15Z</time>
      </trkpt>
      <trkpt lat="42.74157" lon="1.75626">
        <ele>1397</ele>
        <time>2016-09-10T10:26:16Z</time>
      </trkpt>
      <trkpt lat="42.74155" lon="1.75626">
        <ele>1397</ele>
        <time>2016-09-10T10:26:18Z</time>
      </trkpt>
      <trkpt lat="42.74147" lon="1.75624">
        <ele>1398</ele>
        <time>2016-09-10T10:26:25Z</time>
      </trkpt>
      <trkpt lat="42.74143" lon="1.75622">
        <ele>1399</ele>
        <time>2016-09-10T10:26:31Z</time>
      </trkpt>
      <trkpt lat="42.74141" lon="1.75621">
        <ele>1398</ele>
        <time>2016-09-10T10:26:34Z</time>
      </trkpt>
      <trkpt lat="42.74141" lon="1.75622">
        <ele>1399</ele>
        <time>2016-09-10T10:26:35Z</time>
      </trkpt>
      <trkpt lat="42.74141" lon="1.75623">
        <ele>1399</ele>
        <time>2016-09-10T10:26:36Z</time>
      </trkpt>
      <trkpt lat="42.7414" lon="1.75623">
        <ele>1399</ele>
        <time>2016-09-10T10:26:37Z</time>
      </trkpt>
      <trkpt lat="42.74139" lon="1.75623">
        <ele>1399</ele>
        <time>2016-09-10T10:26:38Z</time>
      </trkpt>
      <trkpt lat="42.74139" lon="1.75623">
        <ele>1399</ele>
        <time>2016-09-10T10:26:39Z</time>
      </trkpt>
      <trkpt lat="42.74139" lon="1.75623">
        <ele>1399</ele>
        <time>2016-09-10T10:26:52Z</time>
      </trkpt>
      <trkpt lat="42.74141" lon="1.75622">
        <ele>1399</ele>
        <time>2016-09-10T10:27:04Z</time>
      </trkpt>
      <trkpt lat="42.74142" lon="1.7562">
        <ele>1398</ele>
        <time>2016-09-10T10:27:07Z</time>
      </trkpt>
      <trkpt lat="42.74142" lon="1.7562">
        <ele>1398</ele>
        <time>2016-09-10T10:27:14Z</time>
      </trkpt>
      <trkpt lat="42.74139" lon="1.75626">
        <ele>1400</ele>
        <time>2016-09-10T10:27:23Z</time>
      </trkpt>
      <trkpt lat="42.74139" lon="1.75626">
        <ele>1400</ele>
        <time>2016-09-10T10:27:35Z</time>
      </trkpt>
      <trkpt lat="42.74139" lon="1.75626">
        <ele>1400</ele>
        <time>2016-09-10T10:27:48Z</time>
      </trkpt>
      <trkpt lat="42.74139" lon="1.75626">
        <ele>1400</ele>
        <time>2016-09-10T10:27:59Z</time>
      </trkpt>
      <trkpt lat="42.74139" lon="1.75626">
        <ele>1400</ele>
        <time>2016-09-10T10:28:00Z</time>
      </trkpt>
      <trkpt lat="42.74139" lon="1.75626">
        <ele>1400</ele>
        <time>2016-09-10T10:28:01Z</time>
      </trkpt>
      <trkpt lat="42.74138" lon="1.75626">
        <ele>1400</ele>
        <time>2016-09-10T10:28:02Z</time>
      </trkpt>
      <trkpt lat="42.74138" lon="1.75627">
        <ele>1401</ele>
        <time>2016-09-10T10:28:03Z</time>
      </trkpt>
      <trkpt lat="42.74136" lon="1.75628">
        <ele>1401</ele>
        <time>2016-09-10T10:28:08Z</time>
      </trkpt>
      <trkpt lat="42.74136" lon="1.75628">
        <ele>1401</ele>
        <time>2016-09-10T10:28:09Z</time>
      </trkpt>
      <trkpt lat="42.74135" lon="1.75629">
        <ele>1402</ele>
        <time>2016-09-10T10:28:10Z</time>
      </trkpt>
      <trkpt lat="42.74134" lon="1.75629">
        <ele>1402</ele>
        <time>2016-09-10T10:28:11Z</time>
      </trkpt>
      <trkpt lat="42.74134" lon="1.75629">
        <ele>1402</ele>
        <time>2016-09-10T10:28:12Z</time>
      </trkpt>
      <trkpt lat="42.74133" lon="1.7563">
        <ele>1402</ele>
        <time>2016-09-10T10:28:13Z</time>
      </trkpt>
      <trkpt lat="42.7413" lon="1.7563">
        <ele>1402</ele>
        <time>2016-09-10T10:28:18Z</time>
      </trkpt>
      <trkpt lat="42.7413" lon="1.7563">
        <ele>1403</ele>
        <time>2016-09-10T10:28:19Z</time>
      </trkpt>
      <trkpt lat="42.7413" lon="1.7563">
        <ele>1403</ele>
        <time>2016-09-10T10:28:20Z</time>
      </trkpt>
      <trkpt lat="42.7413" lon="1.7563">
        <ele>1403</ele>
        <time>2016-09-10T10:28:21Z</time>
      </trkpt>
      <trkpt lat="42.74129" lon="1.7563">
        <ele>1403</ele>
        <time>2016-09-10T10:28:22Z</time>
      </trkpt>
      <trkpt lat="42.74124" lon="1.75632">
        <ele>1404</ele>
        <time>2016-09-10T10:28:28Z</time>
      </trkpt>
      <trkpt lat="42.74122" lon="1.75632">
        <ele>1404</ele>
        <time>2016-09-10T10:28:29Z</time>
      </trkpt>
      <trkpt lat="42.7412" lon="1.75632">
        <ele>1404</ele>
        <time>2016-09-10T10:28:30Z</time>
      </trkpt>
      <trkpt lat="42.7412" lon="1.75632">
        <ele>1404</ele>
        <time>2016-09-10T10:28:31Z</time>
      </trkpt>
      <trkpt lat="42.74119" lon="1.75632">
        <ele>1404</ele>
        <time>2016-09-10T10:28:32Z</time>
      </trkpt>
      <trkpt lat="42.74116" lon="1.75632">
        <ele>1405</ele>
        <time>2016-09-10T10:28:38Z</time>
      </trkpt>
      <trkpt lat="42.74108" lon="1.75632">
        <ele>1406</ele>
        <time>2016-09-10T10:28:48Z</time>
      </trkpt>
      <trkpt lat="42.74108" lon="1.75632">
        <ele>1406</ele>
        <time>2016-09-10T10:28:49Z</time>
      </trkpt>
      <trkpt lat="42.74107" lon="1.75631">
        <ele>1406</ele>
        <time>2016-09-10T10:28:50Z</time>
      </trkpt>
      <trkpt lat="42.74106" lon="1.7563">
        <ele>1405</ele>
        <time>2016-09-10T10:28:51Z</time>
      </trkpt>
      <trkpt lat="42.74106" lon="1.75631">
        <ele>1406</ele>
        <time>2016-09-10T10:28:52Z</time>
      </trkpt>
      <trkpt lat="42.74106" lon="1.75631">
        <ele>1406</ele>
        <time>2016-09-10T10:28:57Z</time>
      </trkpt>
      <trkpt lat="42.74101" lon="1.7563">
        <ele>1406</ele>
        <time>2016-09-10T10:29:02Z</time>
      </trkpt>
      <trkpt lat="42.74101" lon="1.7563">
        <ele>1406</ele>
        <time>2016-09-10T10:29:03Z</time>
      </trkpt>
      <trkpt lat="42.74101" lon="1.7563">
        <ele>1406</ele>
        <time>2016-09-10T10:29:04Z</time>
      </trkpt>
      <trkpt lat="42.74101" lon="1.7563">
        <ele>1406</ele>
        <time>2016-09-10T10:29:05Z</time>
      </trkpt>
      <trkpt lat="42.74101" lon="1.7563">
        <ele>1406</ele>
        <time>2016-09-10T10:29:06Z</time>
      </trkpt>
      <trkpt lat="42.74101" lon="1.7563">
        <ele>1406</ele>
        <time>2016-09-10T10:29:08Z</time>
      </trkpt>
      <trkpt lat="42.74085" lon="1.75638">
        <ele>1409</ele>
        <time>2016-09-10T10:29:18Z</time>
      </trkpt>
      <trkpt lat="42.7408" lon="1.7564">
        <ele>1409</ele>
        <time>2016-09-10T10:29:21Z</time>
      </trkpt>
      <trkpt lat="42.74079" lon="1.7564">
        <ele>1410</ele>
        <time>2016-09-10T10:29:22Z</time>
      </trkpt>
      <trkpt lat="42.74077" lon="1.7564">
        <ele>1410</ele>
        <time>2016-09-10T10:29:23Z</time>
      </trkpt>
      <trkpt lat="42.74076" lon="1.75641">
        <ele>1410</ele>
        <time>2016-09-10T10:29:24Z</time>
      </trkpt>
      <trkpt lat="42.74075" lon="1.75642">
        <ele>1410</ele>
        <time>2016-09-10T10:29:25Z</time>
      </trkpt>
      <trkpt lat="42.74072" lon="1.75646">
        <ele>1411</ele>
        <time>2016-09-10T10:29:29Z</time>
      </trkpt>
      <trkpt lat="42.74068" lon="1.75648">
        <ele>1412</ele>
        <time>2016-09-10T10:29:35Z</time>
      </trkpt>
      <trkpt lat="42.74067" lon="1.75648">
        <ele>1412</ele>
        <time>2016-09-10T10:29:36Z</time>
      </trkpt>
      <trkpt lat="42.74067" lon="1.75648">
        <ele>1412</ele>
        <time>2016-09-10T10:29:37Z</time>
      </trkpt>
      <trkpt lat="42.74067" lon="1.75649">
        <ele>1412</ele>
        <time>2016-09-10T10:29:38Z</time>
      </trkpt>
      <trkpt lat="42.74067" lon="1.75649">
        <ele>1412</ele>
        <time>2016-09-10T10:29:39Z</time>
      </trkpt>
      <trkpt lat="42.74066" lon="1.75654">
        <ele>1414</ele>
        <time>2016-09-10T10:29:45Z</time>
      </trkpt>
      <trkpt lat="42.74065" lon="1.75655">
        <ele>1414</ele>
        <time>2016-09-10T10:29:46Z</time>
      </trkpt>
      <trkpt lat="42.74064" lon="1.75655">
        <ele>1414</ele>
        <time>2016-09-10T10:29:47Z</time>
      </trkpt>
      <trkpt lat="42.74063" lon="1.75656">
        <ele>1414</ele>
        <time>2016-09-10T10:29:48Z</time>
      </trkpt>
      <trkpt lat="42.74062" lon="1.75656">
        <ele>1414</ele>
        <time>2016-09-10T10:29:49Z</time>
      </trkpt>
      <trkpt lat="42.74062" lon="1.75657">
        <ele>1415</ele>
        <time>2016-09-10T10:29:50Z</time>
      </trkpt>
      <trkpt lat="42.74061" lon="1.7566">
        <ele>1416</ele>
        <time>2016-09-10T10:29:59Z</time>
      </trkpt>
      <trkpt lat="42.74061" lon="1.7566">
        <ele>1416</ele>
        <time>2016-09-10T10:30:00Z</time>
      </trkpt>
      <trkpt lat="42.74061" lon="1.75661">
        <ele>1416</ele>
        <time>2016-09-10T10:30:01Z</time>
      </trkpt>
      <trkpt lat="42.74061" lon="1.75661">
        <ele>1416</ele>
        <time>2016-09-10T10:30:02Z</time>
      </trkpt>
      <trkpt lat="42.74061" lon="1.75661">
        <ele>1416</ele>
        <time>2016-09-10T10:30:03Z</time>
      </trkpt>
      <trkpt lat="42.74059" lon="1.75664">
        <ele>1416</ele>
        <time>2016-09-10T10:30:07Z</time>
      </trkpt>
      <trkpt lat="42.74046" lon="1.75674">
        <ele>1416</ele>
        <time>2016-09-10T10:30:16Z</time>
      </trkpt>
      <trkpt lat="42.74045" lon="1.75675">
        <ele>1416</ele>
        <time>2016-09-10T10:30:17Z</time>
      </trkpt>
      <trkpt lat="42.74045" lon="1.75676">
        <ele>1416</ele>
        <time>2016-09-10T10:30:18Z</time>
      </trkpt>
      <trkpt lat="42.74044" lon="1.75677">
        <ele>1416</ele>
        <time>2016-09-10T10:30:19Z</time>
      </trkpt>
      <trkpt lat="42.74044" lon="1.75678">
        <ele>1416</ele>
        <time>2016-09-10T10:30:20Z</time>
      </trkpt>
      <trkpt lat="42.74044" lon="1.75683">
        <ele>1416</ele>
        <time>2016-09-10T10:30:25Z</time>
      </trkpt>
      <trkpt lat="42.74034" lon="1.7569">
        <ele>1417</ele>
        <time>2016-09-10T10:30:34Z</time>
      </trkpt>
      <trkpt lat="42.74031" lon="1.75694">
        <ele>1418</ele>
        <time>2016-09-10T10:30:38Z</time>
      </trkpt>
      <trkpt lat="42.7403" lon="1.75696">
        <ele>1418</ele>
        <time>2016-09-10T10:30:39Z</time>
      </trkpt>
      <trkpt lat="42.74028" lon="1.75699">
        <ele>1418</ele>
        <time>2016-09-10T10:30:40Z</time>
      </trkpt>
      <trkpt lat="42.74027" lon="1.757">
        <ele>1418</ele>
        <time>2016-09-10T10:30:41Z</time>
      </trkpt>
      <trkpt lat="42.74026" lon="1.75701">
        <ele>1418</ele>
        <time>2016-09-10T10:30:42Z</time>
      </trkpt>
      <trkpt lat="42.74018" lon="1.75707">
        <ele>1419</ele>
        <time>2016-09-10T10:30:52Z</time>
      </trkpt>
      <trkpt lat="42.7401" lon="1.75705">
        <ele>1420</ele>
        <time>2016-09-10T10:31:02Z</time>
      </trkpt>
      <trkpt lat="42.74008" lon="1.75704">
        <ele>1421</ele>
        <time>2016-09-10T10:31:03Z</time>
      </trkpt>
      <trkpt lat="42.74007" lon="1.75703">
        <ele>1421</ele>
        <time>2016-09-10T10:31:04Z</time>
      </trkpt>
      <trkpt lat="42.74005" lon="1.75703">
        <ele>1421</ele>
        <time>2016-09-10T10:31:05Z</time>
      </trkpt>
      <trkpt lat="42.74004" lon="1.75703">
        <ele>1421</ele>
        <time>2016-09-10T10:31:06Z</time>
      </trkpt>
      <trkpt lat="42.73995" lon="1.75701">
        <ele>1422</ele>
        <time>2016-09-10T10:31:14Z</time>
      </trkpt>
      <trkpt lat="42.73989" lon="1.75705">
        <ele>1424</ele>
        <time>2016-09-10T10:31:19Z</time>
      </trkpt>
      <trkpt lat="42.73988" lon="1.75705">
        <ele>1424</ele>
        <time>2016-09-10T10:31:20Z</time>
      </trkpt>
      <trkpt lat="42.73987" lon="1.75705">
        <ele>1424</ele>
        <time>2016-09-10T10:31:21Z</time>
      </trkpt>
      <trkpt lat="42.73986" lon="1.75705">
        <ele>1424</ele>
        <time>2016-09-10T10:31:22Z</time>
      </trkpt>
      <trkpt lat="42.73985" lon="1.75705">
        <ele>1424</ele>
        <time>2016-09-10T10:31:23Z</time>
      </trkpt>
      <trkpt lat="42.73976" lon="1.75703">
        <ele>1426</ele>
        <time>2016-09-10T10:31:33Z</time>
      </trkpt>
      <trkpt lat="42.73973" lon="1.75704">
        <ele>1426</ele>
        <time>2016-09-10T10:31:38Z</time>
      </trkpt>
      <trkpt lat="42.73972" lon="1.75704">
        <ele>1426</ele>
        <time>2016-09-10T10:31:39Z</time>
      </trkpt>
      <trkpt lat="42.73972" lon="1.75704">
        <ele>1426</ele>
        <time>2016-09-10T10:31:40Z</time>
      </trkpt>
      <trkpt lat="42.73971" lon="1.75704">
        <ele>1427</ele>
        <time>2016-09-10T10:31:41Z</time>
      </trkpt>
      <trkpt lat="42.73971" lon="1.75704">
        <ele>1427</ele>
        <time>2016-09-10T10:31:42Z</time>
      </trkpt>
      <trkpt lat="42.73966" lon="1.75704">
        <ele>1427</ele>
        <time>2016-09-10T10:31:51Z</time>
      </trkpt>
      <trkpt lat="42.73966" lon="1.75704">
        <ele>1427</ele>
        <time>2016-09-10T10:31:54Z</time>
      </trkpt>
      <trkpt lat="42.73965" lon="1.75704">
        <ele>1428</ele>
        <time>2016-09-10T10:31:55Z</time>
      </trkpt>
      <trkpt lat="42.73963" lon="1.75704">
        <ele>1428</ele>
        <time>2016-09-10T10:31:56Z</time>
      </trkpt>
      <trkpt lat="42.73962" lon="1.75704">
        <ele>1428</ele>
        <time>2016-09-10T10:31:57Z</time>
      </trkpt>
      <trkpt lat="42.73961" lon="1.75704">
        <ele>1428</ele>
        <time>2016-09-10T10:31:58Z</time>
      </trkpt>
      <trkpt lat="42.73959" lon="1.75704">
        <ele>1429</ele>
        <time>2016-09-10T10:32:00Z</time>
      </trkpt>
      <trkpt lat="42.7395" lon="1.75701">
        <ele>1430</ele>
        <time>2016-09-10T10:32:08Z</time>
      </trkpt>
      <trkpt lat="42.73949" lon="1.75703">
        <ele>1431</ele>
        <time>2016-09-10T10:32:11Z</time>
      </trkpt>
      <trkpt lat="42.73948" lon="1.75705">
        <ele>1431</ele>
        <time>2016-09-10T10:32:12Z</time>
      </trkpt>
      <trkpt lat="42.73948" lon="1.75705">
        <ele>1432</ele>
        <time>2016-09-10T10:32:13Z</time>
      </trkpt>
      <trkpt lat="42.73947" lon="1.75706">
        <ele>1432</ele>
        <time>2016-09-10T10:32:14Z</time>
      </trkpt>
      <trkpt lat="42.73946" lon="1.75707">
        <ele>1432</ele>
        <time>2016-09-10T10:32:16Z</time>
      </trkpt>
      <trkpt lat="42.73946" lon="1.75707">
        <ele>1432</ele>
        <time>2016-09-10T10:32:27Z</time>
      </trkpt>
      <trkpt lat="42.73945" lon="1.75707">
        <ele>1433</ele>
        <time>2016-09-10T10:32:29Z</time>
      </trkpt>
      <trkpt lat="42.73943" lon="1.75708">
        <ele>1433</ele>
        <time>2016-09-10T10:32:30Z</time>
      </trkpt>
      <trkpt lat="42.73941" lon="1.75708">
        <ele>1434</ele>
        <time>2016-09-10T10:32:31Z</time>
      </trkpt>
      <trkpt lat="42.73939" lon="1.75709">
        <ele>1435</ele>
        <time>2016-09-10T10:32:32Z</time>
      </trkpt>
      <trkpt lat="42.73937" lon="1.7571">
        <ele>1435</ele>
        <time>2016-09-10T10:32:33Z</time>
      </trkpt>
      <trkpt lat="42.73935" lon="1.75711">
        <ele>1436</ele>
        <time>2016-09-10T10:32:34Z</time>
      </trkpt>
      <trkpt lat="42.73923" lon="1.75717">
        <ele>1441</ele>
        <time>2016-09-10T10:32:45Z</time>
      </trkpt>
      <trkpt lat="42.73916" lon="1.75723">
        <ele>1444</ele>
        <time>2016-09-10T10:32:55Z</time>
      </trkpt>
      <trkpt lat="42.73915" lon="1.75724">
        <ele>1444</ele>
        <time>2016-09-10T10:32:56Z</time>
      </trkpt>
      <trkpt lat="42.73914" lon="1.75724">
        <ele>1444</ele>
        <time>2016-09-10T10:32:57Z</time>
      </trkpt>
      <trkpt lat="42.73914" lon="1.75725">
        <ele>1444</ele>
        <time>2016-09-10T10:32:58Z</time>
      </trkpt>
      <trkpt lat="42.73914" lon="1.75725">
        <ele>1444</ele>
        <time>2016-09-10T10:32:59Z</time>
      </trkpt>
      <trkpt lat="42.73911" lon="1.75726">
        <ele>1444</ele>
        <time>2016-09-10T10:33:06Z</time>
      </trkpt>
      <trkpt lat="42.73911" lon="1.75728">
        <ele>1443</ele>
        <time>2016-09-10T10:33:07Z</time>
      </trkpt>
      <trkpt lat="42.7391" lon="1.7573">
        <ele>1443</ele>
        <time>2016-09-10T10:33:08Z</time>
      </trkpt>
      <trkpt lat="42.7391" lon="1.7573">
        <ele>1443</ele>
        <time>2016-09-10T10:33:09Z</time>
      </trkpt>
      <trkpt lat="42.7391" lon="1.7573">
        <ele>1443</ele>
        <time>2016-09-10T10:33:10Z</time>
      </trkpt>
      <trkpt lat="42.7391" lon="1.7573">
        <ele>1443</ele>
        <time>2016-09-10T10:33:11Z</time>
      </trkpt>
      <trkpt lat="42.73904" lon="1.75736">
        <ele>1443</ele>
        <time>2016-09-10T10:33:15Z</time>
      </trkpt>
      <trkpt lat="42.73897" lon="1.7574">
        <ele>1444</ele>
        <time>2016-09-10T10:33:23Z</time>
      </trkpt>
      <trkpt lat="42.73892" lon="1.75744">
        <ele>1444</ele>
        <time>2016-09-10T10:33:29Z</time>
      </trkpt>
      <trkpt lat="42.73892" lon="1.75744">
        <ele>1444</ele>
        <time>2016-09-10T10:33:30Z</time>
      </trkpt>
      <trkpt lat="42.7389" lon="1.75744">
        <ele>1444</ele>
        <time>2016-09-10T10:33:31Z</time>
      </trkpt>
      <trkpt lat="42.73889" lon="1.75745">
        <ele>1445</ele>
        <time>2016-09-10T10:33:32Z</time>
      </trkpt>
      <trkpt lat="42.73887" lon="1.75747">
        <ele>1445</ele>
        <time>2016-09-10T10:33:33Z</time>
      </trkpt>
      <trkpt lat="42.73879" lon="1.75755">
        <ele>1447</ele>
        <time>2016-09-10T10:33:40Z</time>
      </trkpt>
      <trkpt lat="42.73869" lon="1.75761">
        <ele>1447</ele>
        <time>2016-09-10T10:33:49Z</time>
      </trkpt>
      <trkpt lat="42.73862" lon="1.75766">
        <ele>1448</ele>
        <time>2016-09-10T10:33:58Z</time>
      </trkpt>
      <trkpt lat="42.73851" lon="1.75766">
        <ele>1447</ele>
        <time>2016-09-10T10:34:07Z</time>
      </trkpt>
      <trkpt lat="42.73843" lon="1.75772">
        <ele>1448</ele>
        <time>2016-09-10T10:34:14Z</time>
      </trkpt>
      <trkpt lat="42.73842" lon="1.75772">
        <ele>1448</ele>
        <time>2016-09-10T10:34:15Z</time>
      </trkpt>
      <trkpt lat="42.73842" lon="1.75773">
        <ele>1448</ele>
        <time>2016-09-10T10:34:16Z</time>
      </trkpt>
      <trkpt lat="42.73841" lon="1.75774">
        <ele>1448</ele>
        <time>2016-09-10T10:34:17Z</time>
      </trkpt>
      <trkpt lat="42.73834" lon="1.7578">
        <ele>1450</ele>
        <time>2016-09-10T10:34:24Z</time>
      </trkpt>
      <trkpt lat="42.73829" lon="1.75785">
        <ele>1451</ele>
        <time>2016-09-10T10:34:33Z</time>
      </trkpt>
      <trkpt lat="42.73823" lon="1.7579">
        <ele>1451</ele>
        <time>2016-09-10T10:34:42Z</time>
      </trkpt>
      <trkpt lat="42.73818" lon="1.75796">
        <ele>1452</ele>
        <time>2016-09-10T10:34:51Z</time>
      </trkpt>
      <trkpt lat="42.73818" lon="1.75796">
        <ele>1452</ele>
        <time>2016-09-10T10:34:54Z</time>
      </trkpt>
      <trkpt lat="42.73816" lon="1.75796">
        <ele>1452</ele>
        <time>2016-09-10T10:34:55Z</time>
      </trkpt>
      <trkpt lat="42.73814" lon="1.75799">
        <ele>1452</ele>
        <time>2016-09-10T10:34:56Z</time>
      </trkpt>
      <trkpt lat="42.73812" lon="1.758">
        <ele>1452</ele>
        <time>2016-09-10T10:34:57Z</time>
      </trkpt>
      <trkpt lat="42.73812" lon="1.758">
        <ele>1452</ele>
        <time>2016-09-10T10:34:58Z</time>
      </trkpt>
      <trkpt lat="42.7381" lon="1.758">
        <ele>1452</ele>
        <time>2016-09-10T10:35:01Z</time>
      </trkpt>
      <trkpt lat="42.73789" lon="1.75805">
        <ele>1454</ele>
        <time>2016-09-10T10:35:10Z</time>
      </trkpt>
      <trkpt lat="42.73778" lon="1.75812">
        <ele>1455</ele>
        <time>2016-09-10T10:35:19Z</time>
      </trkpt>
      <trkpt lat="42.73777" lon="1.75813">
        <ele>1455</ele>
        <time>2016-09-10T10:35:21Z</time>
      </trkpt>
      <trkpt lat="42.73776" lon="1.75813">
        <ele>1455</ele>
        <time>2016-09-10T10:35:22Z</time>
      </trkpt>
      <trkpt lat="42.73776" lon="1.75814">
        <ele>1455</ele>
        <time>2016-09-10T10:35:23Z</time>
      </trkpt>
      <trkpt lat="42.73775" lon="1.75814">
        <ele>1456</ele>
        <time>2016-09-10T10:35:24Z</time>
      </trkpt>
      <trkpt lat="42.73775" lon="1.75815">
        <ele>1456</ele>
        <time>2016-09-10T10:35:25Z</time>
      </trkpt>
      <trkpt lat="42.73771" lon="1.75817">
        <ele>1456</ele>
        <time>2016-09-10T10:35:31Z</time>
      </trkpt>
      <trkpt lat="42.73767" lon="1.75818">
        <ele>1456</ele>
        <time>2016-09-10T10:35:42Z</time>
      </trkpt>
      <trkpt lat="42.73759" lon="1.7582">
        <ele>1456</ele>
        <time>2016-09-10T10:35:52Z</time>
      </trkpt>
      <trkpt lat="42.73758" lon="1.75821">
        <ele>1456</ele>
        <time>2016-09-10T10:35:53Z</time>
      </trkpt>
      <trkpt lat="42.73757" lon="1.75821">
        <ele>1456</ele>
        <time>2016-09-10T10:35:54Z</time>
      </trkpt>
      <trkpt lat="42.73756" lon="1.75821">
        <ele>1456</ele>
        <time>2016-09-10T10:35:55Z</time>
      </trkpt>
      <trkpt lat="42.73748" lon="1.75823">
        <ele>1456</ele>
        <time>2016-09-10T10:36:02Z</time>
      </trkpt>
      <trkpt lat="42.73739" lon="1.75825">
        <ele>1456</ele>
        <time>2016-09-10T10:36:11Z</time>
      </trkpt>
      <trkpt lat="42.73733" lon="1.75828">
        <ele>1456</ele>
        <time>2016-09-10T10:36:18Z</time>
      </trkpt>
      <trkpt lat="42.73726" lon="1.7583">
        <ele>1456</ele>
        <time>2016-09-10T10:36:23Z</time>
      </trkpt>
      <trkpt lat="42.73725" lon="1.7583">
        <ele>1456</ele>
        <time>2016-09-10T10:36:24Z</time>
      </trkpt>
      <trkpt lat="42.73724" lon="1.7583">
        <ele>1456</ele>
        <time>2016-09-10T10:36:25Z</time>
      </trkpt>
      <trkpt lat="42.73723" lon="1.7583">
        <ele>1455</ele>
        <time>2016-09-10T10:36:26Z</time>
      </trkpt>
      <trkpt lat="42.73723" lon="1.7583">
        <ele>1455</ele>
        <time>2016-09-10T10:36:27Z</time>
      </trkpt>
      <trkpt lat="42.73716" lon="1.75837">
        <ele>1457</ele>
        <time>2016-09-10T10:36:36Z</time>
      </trkpt>
      <trkpt lat="42.73705" lon="1.75844">
        <ele>1459</ele>
        <time>2016-09-10T10:36:46Z</time>
      </trkpt>
      <trkpt lat="42.73697" lon="1.75846">
        <ele>1458</ele>
        <time>2016-09-10T10:36:53Z</time>
      </trkpt>
      <trkpt lat="42.73691" lon="1.75847">
        <ele>1458</ele>
        <time>2016-09-10T10:36:57Z</time>
      </trkpt>
      <trkpt lat="42.7369" lon="1.75848">
        <ele>1458</ele>
        <time>2016-09-10T10:36:58Z</time>
      </trkpt>
      <trkpt lat="42.7369" lon="1.75849">
        <ele>1458</ele>
        <time>2016-09-10T10:36:59Z</time>
      </trkpt>
      <trkpt lat="42.73689" lon="1.75849">
        <ele>1458</ele>
        <time>2016-09-10T10:37:00Z</time>
      </trkpt>
      <trkpt lat="42.73688" lon="1.7585">
        <ele>1458</ele>
        <time>2016-09-10T10:37:01Z</time>
      </trkpt>
      <trkpt lat="42.73679" lon="1.75856">
        <ele>1459</ele>
        <time>2016-09-10T10:37:10Z</time>
      </trkpt>
      <trkpt lat="42.73668" lon="1.75861">
        <ele>1459</ele>
        <time>2016-09-10T10:37:20Z</time>
      </trkpt>
      <trkpt lat="42.73662" lon="1.75865">
        <ele>1459</ele>
        <time>2016-09-10T10:37:27Z</time>
      </trkpt>
      <trkpt lat="42.73654" lon="1.75868">
        <ele>1459</ele>
        <time>2016-09-10T10:37:36Z</time>
      </trkpt>
      <trkpt lat="42.73648" lon="1.75876">
        <ele>1461</ele>
        <time>2016-09-10T10:37:43Z</time>
      </trkpt>
      <trkpt lat="42.73648" lon="1.75878">
        <ele>1461</ele>
        <time>2016-09-10T10:37:44Z</time>
      </trkpt>
      <trkpt lat="42.73648" lon="1.75879">
        <ele>1461</ele>
        <time>2016-09-10T10:37:45Z</time>
      </trkpt>
      <trkpt lat="42.73648" lon="1.7588">
        <ele>1462</ele>
        <time>2016-09-10T10:37:46Z</time>
      </trkpt>
      <trkpt lat="42.73647" lon="1.75881">
        <ele>1462</ele>
        <time>2016-09-10T10:37:47Z</time>
      </trkpt>
      <trkpt lat="42.73642" lon="1.7589">
        <ele>1464</ele>
        <time>2016-09-10T10:37:57Z</time>
      </trkpt>
      <trkpt lat="42.73639" lon="1.7589">
        <ele>1464</ele>
        <time>2016-09-10T10:38:03Z</time>
      </trkpt>
      <trkpt lat="42.73639" lon="1.7589">
        <ele>1463</ele>
        <time>2016-09-10T10:38:04Z</time>
      </trkpt>
      <trkpt lat="42.73638" lon="1.7589">
        <ele>1463</ele>
        <time>2016-09-10T10:38:05Z</time>
      </trkpt>
      <trkpt lat="42.73637" lon="1.7589">
        <ele>1463</ele>
        <time>2016-09-10T10:38:06Z</time>
      </trkpt>
      <trkpt lat="42.73636" lon="1.75891">
        <ele>1463</ele>
        <time>2016-09-10T10:38:07Z</time>
      </trkpt>
      <trkpt lat="42.7363" lon="1.75895">
        <ele>1463</ele>
        <time>2016-09-10T10:38:15Z</time>
      </trkpt>
      <trkpt lat="42.73621" lon="1.75905">
        <ele>1465</ele>
        <time>2016-09-10T10:38:24Z</time>
      </trkpt>
      <trkpt lat="42.73618" lon="1.75909">
        <ele>1466</ele>
        <time>2016-09-10T10:38:34Z</time>
      </trkpt>
      <trkpt lat="42.73617" lon="1.7591">
        <ele>1466</ele>
        <time>2016-09-10T10:38:35Z</time>
      </trkpt>
      <trkpt lat="42.73616" lon="1.7591">
        <ele>1466</ele>
        <time>2016-09-10T10:38:36Z</time>
      </trkpt>
      <trkpt lat="42.73615" lon="1.75911">
        <ele>1466</ele>
        <time>2016-09-10T10:38:37Z</time>
      </trkpt>
      <trkpt lat="42.73614" lon="1.75912">
        <ele>1466</ele>
        <time>2016-09-10T10:38:38Z</time>
      </trkpt>
      <trkpt lat="42.7361" lon="1.75916">
        <ele>1466</ele>
        <time>2016-09-10T10:38:45Z</time>
      </trkpt>
      <trkpt lat="42.73606" lon="1.75922">
        <ele>1466</ele>
        <time>2016-09-10T10:38:56Z</time>
      </trkpt>
      <trkpt lat="42.73605" lon="1.75925">
        <ele>1467</ele>
        <time>2016-09-10T10:39:01Z</time>
      </trkpt>
      <trkpt lat="42.73605" lon="1.75927">
        <ele>1467</ele>
        <time>2016-09-10T10:39:02Z</time>
      </trkpt>
      <trkpt lat="42.73604" lon="1.75929">
        <ele>1467</ele>
        <time>2016-09-10T10:39:03Z</time>
      </trkpt>
      <trkpt lat="42.73604" lon="1.75931">
        <ele>1468</ele>
        <time>2016-09-10T10:39:04Z</time>
      </trkpt>
      <trkpt lat="42.73603" lon="1.75932">
        <ele>1468</ele>
        <time>2016-09-10T10:39:05Z</time>
      </trkpt>
      <trkpt lat="42.73599" lon="1.75947">
        <ele>1470</ele>
        <time>2016-09-10T10:39:18Z</time>
      </trkpt>
      <trkpt lat="42.73597" lon="1.75949">
        <ele>1470</ele>
        <time>2016-09-10T10:39:19Z</time>
      </trkpt>
      <trkpt lat="42.73594" lon="1.75956">
        <ele>1471</ele>
        <time>2016-09-10T10:39:20Z</time>
      </trkpt>
      <trkpt lat="42.73594" lon="1.75956">
        <ele>1471</ele>
        <time>2016-09-10T10:39:21Z</time>
      </trkpt>
      <trkpt lat="42.73593" lon="1.75959">
        <ele>1472</ele>
        <time>2016-09-10T10:39:22Z</time>
      </trkpt>
      <trkpt lat="42.73591" lon="1.7596">
        <ele>1472</ele>
        <time>2016-09-10T10:39:23Z</time>
      </trkpt>
      <trkpt lat="42.73589" lon="1.75962">
        <ele>1472</ele>
        <time>2016-09-10T10:39:25Z</time>
      </trkpt>
      <trkpt lat="42.73583" lon="1.7597">
        <ele>1472</ele>
        <time>2016-09-10T10:39:34Z</time>
      </trkpt>
      <trkpt lat="42.7358" lon="1.75973">
        <ele>1472</ele>
        <time>2016-09-10T10:39:42Z</time>
      </trkpt>
      <trkpt lat="42.7358" lon="1.75973">
        <ele>1472</ele>
        <time>2016-09-10T10:39:53Z</time>
      </trkpt>
      <trkpt lat="42.73567" lon="1.75981">
        <ele>1472</ele>
        <time>2016-09-10T10:40:01Z</time>
      </trkpt>
      <trkpt lat="42.73555" lon="1.75988">
        <ele>1473</ele>
        <time>2016-09-10T10:40:11Z</time>
      </trkpt>
      <trkpt lat="42.73546" lon="1.75996">
        <ele>1474</ele>
        <time>2016-09-10T10:40:19Z</time>
      </trkpt>
      <trkpt lat="42.73538" lon="1.75997">
        <ele>1473</ele>
        <time>2016-09-10T10:40:26Z</time>
      </trkpt>
      <trkpt lat="42.73535" lon="1.75998">
        <ele>1474</ele>
        <time>2016-09-10T10:40:34Z</time>
      </trkpt>
      <trkpt lat="42.73529" lon="1.76001">
        <ele>1474</ele>
        <time>2016-09-10T10:40:43Z</time>
      </trkpt>
      <trkpt lat="42.73517" lon="1.76003">
        <ele>1474</ele>
        <time>2016-09-10T10:40:54Z</time>
      </trkpt>
      <trkpt lat="42.73515" lon="1.76003">
        <ele>1473</ele>
        <time>2016-09-10T10:40:57Z</time>
      </trkpt>
      <trkpt lat="42.73515" lon="1.76003">
        <ele>1473</ele>
        <time>2016-09-10T10:40:58Z</time>
      </trkpt>
      <trkpt lat="42.73515" lon="1.76002">
        <ele>1473</ele>
        <time>2016-09-10T10:40:59Z</time>
      </trkpt>
      <trkpt lat="42.73514" lon="1.76002">
        <ele>1473</ele>
        <time>2016-09-10T10:41:00Z</time>
      </trkpt>
      <trkpt lat="42.73514" lon="1.76002">
        <ele>1473</ele>
        <time>2016-09-10T10:41:01Z</time>
      </trkpt>
      <trkpt lat="42.73514" lon="1.76002">
        <ele>1473</ele>
        <time>2016-09-10T10:41:02Z</time>
      </trkpt>
      <trkpt lat="42.73513" lon="1.76002">
        <ele>1473</ele>
        <time>2016-09-10T10:41:03Z</time>
      </trkpt>
      <trkpt lat="42.73512" lon="1.76001">
        <ele>1473</ele>
        <time>2016-09-10T10:41:04Z</time>
      </trkpt>
      <trkpt lat="42.73503" lon="1.76001">
        <ele>1472</ele>
        <time>2016-09-10T10:41:13Z</time>
      </trkpt>
      <trkpt lat="42.73478" lon="1.76017">
        <ele>1474</ele>
        <time>2016-09-10T10:41:22Z</time>
      </trkpt>
      <trkpt lat="42.73472" lon="1.76021">
        <ele>1475</ele>
        <time>2016-09-10T10:41:31Z</time>
      </trkpt>
      <trkpt lat="42.73463" lon="1.76025">
        <ele>1475</ele>
        <time>2016-09-10T10:41:39Z</time>
      </trkpt>
      <trkpt lat="42.73455" lon="1.76026">
        <ele>1475</ele>
        <time>2016-09-10T10:41:47Z</time>
      </trkpt>
      <trkpt lat="42.73453" lon="1.76026">
        <ele>1474</ele>
        <time>2016-09-10T10:41:50Z</time>
      </trkpt>
      <trkpt lat="42.73452" lon="1.76026">
        <ele>1474</ele>
        <time>2016-09-10T10:41:51Z</time>
      </trkpt>
      <trkpt lat="42.73451" lon="1.76026">
        <ele>1474</ele>
        <time>2016-09-10T10:41:52Z</time>
      </trkpt>
      <trkpt lat="42.73449" lon="1.76027">
        <ele>1474</ele>
        <time>2016-09-10T10:41:53Z</time>
      </trkpt>
      <trkpt lat="42.73448" lon="1.76027">
        <ele>1474</ele>
        <time>2016-09-10T10:41:54Z</time>
      </trkpt>
      <trkpt lat="42.73446" lon="1.76029">
        <ele>1474</ele>
        <time>2016-09-10T10:41:57Z</time>
      </trkpt>
      <trkpt lat="42.73442" lon="1.76031">
        <ele>1475</ele>
        <time>2016-09-10T10:42:07Z</time>
      </trkpt>
      <trkpt lat="42.7343" lon="1.76041">
        <ele>1475</ele>
        <time>2016-09-10T10:42:17Z</time>
      </trkpt>
      <trkpt lat="42.7343" lon="1.76042">
        <ele>1476</ele>
        <time>2016-09-10T10:42:18Z</time>
      </trkpt>
      <trkpt lat="42.73429" lon="1.76042">
        <ele>1475</ele>
        <time>2016-09-10T10:42:19Z</time>
      </trkpt>
      <trkpt lat="42.73429" lon="1.76042">
        <ele>1475</ele>
        <time>2016-09-10T10:42:20Z</time>
      </trkpt>
      <trkpt lat="42.73429" lon="1.76043">
        <ele>1476</ele>
        <time>2016-09-10T10:42:21Z</time>
      </trkpt>
      <trkpt lat="42.73426" lon="1.76043">
        <ele>1475</ele>
        <time>2016-09-10T10:42:25Z</time>
      </trkpt>
      <trkpt lat="42.73417" lon="1.76049">
        <ele>1476</ele>
        <time>2016-09-10T10:42:35Z</time>
      </trkpt>
      <trkpt lat="42.73415" lon="1.76049">
        <ele>1476</ele>
        <time>2016-09-10T10:42:36Z</time>
      </trkpt>
      <trkpt lat="42.73413" lon="1.76048">
        <ele>1475</ele>
        <time>2016-09-10T10:42:37Z</time>
      </trkpt>
      <trkpt lat="42.7341" lon="1.76049">
        <ele>1475</ele>
        <time>2016-09-10T10:42:38Z</time>
      </trkpt>
      <trkpt lat="42.73408" lon="1.7605">
        <ele>1475</ele>
        <time>2016-09-10T10:42:39Z</time>
      </trkpt>
      <trkpt lat="42.73406" lon="1.7605">
        <ele>1476</ele>
        <time>2016-09-10T10:42:40Z</time>
      </trkpt>
      <trkpt lat="42.73401" lon="1.76054">
        <ele>1476</ele>
        <time>2016-09-10T10:42:44Z</time>
      </trkpt>
      <trkpt lat="42.73391" lon="1.7606">
        <ele>1477</ele>
        <time>2016-09-10T10:42:53Z</time>
      </trkpt>
      <trkpt lat="42.73383" lon="1.76062">
        <ele>1477</ele>
        <time>2016-09-10T10:43:00Z</time>
      </trkpt>
      <trkpt lat="42.73377" lon="1.76068">
        <ele>1477</ele>
        <time>2016-09-10T10:43:09Z</time>
      </trkpt>
      <trkpt lat="42.73373" lon="1.76075">
        <ele>1479</ele>
        <time>2016-09-10T10:43:15Z</time>
      </trkpt>
      <trkpt lat="42.73373" lon="1.76076">
        <ele>1479</ele>
        <time>2016-09-10T10:43:16Z</time>
      </trkpt>
      <trkpt lat="42.73372" lon="1.76077">
        <ele>1479</ele>
        <time>2016-09-10T10:43:17Z</time>
      </trkpt>
      <trkpt lat="42.73371" lon="1.76078">
        <ele>1479</ele>
        <time>2016-09-10T10:43:18Z</time>
      </trkpt>
      <trkpt lat="42.73369" lon="1.76079">
        <ele>1479</ele>
        <time>2016-09-10T10:43:20Z</time>
      </trkpt>
      <trkpt lat="42.73361" lon="1.76086">
        <ele>1480</ele>
        <time>2016-09-10T10:43:27Z</time>
      </trkpt>
      <trkpt lat="42.73354" lon="1.76087">
        <ele>1479</ele>
        <time>2016-09-10T10:43:34Z</time>
      </trkpt>
      <trkpt lat="42.73349" lon="1.76094">
        <ele>1480</ele>
        <time>2016-09-10T10:43:42Z</time>
      </trkpt>
      <trkpt lat="42.73342" lon="1.76107">
        <ele>1480</ele>
        <time>2016-09-10T10:43:51Z</time>
      </trkpt>
      <trkpt lat="42.7334" lon="1.76116">
        <ele>1481</ele>
        <time>2016-09-10T10:44:00Z</time>
      </trkpt>
      <trkpt lat="42.73336" lon="1.76126">
        <ele>1482</ele>
        <time>2016-09-10T10:44:10Z</time>
      </trkpt>
      <trkpt lat="42.73334" lon="1.76131">
        <ele>1482</ele>
        <time>2016-09-10T10:44:13Z</time>
      </trkpt>
      <trkpt lat="42.73334" lon="1.76133">
        <ele>1482</ele>
        <time>2016-09-10T10:44:14Z</time>
      </trkpt>
      <trkpt lat="42.73332" lon="1.76136">
        <ele>1482</ele>
        <time>2016-09-10T10:44:15Z</time>
      </trkpt>
      <trkpt lat="42.73331" lon="1.76138">
        <ele>1483</ele>
        <time>2016-09-10T10:44:16Z</time>
      </trkpt>
      <trkpt lat="42.73329" lon="1.7614">
        <ele>1483</ele>
        <time>2016-09-10T10:44:17Z</time>
      </trkpt>
      <trkpt lat="42.73326" lon="1.76146">
        <ele>1483</ele>
        <time>2016-09-10T10:44:20Z</time>
      </trkpt>
      <trkpt lat="42.7332" lon="1.76156">
        <ele>1485</ele>
        <time>2016-09-10T10:44:27Z</time>
      </trkpt>
      <trkpt lat="42.73317" lon="1.76162">
        <ele>1484</ele>
        <time>2016-09-10T10:44:32Z</time>
      </trkpt>
      <trkpt lat="42.73316" lon="1.76164">
        <ele>1484</ele>
        <time>2016-09-10T10:44:34Z</time>
      </trkpt>
      <trkpt lat="42.73309" lon="1.76169">
        <ele>1484</ele>
        <time>2016-09-10T10:44:42Z</time>
      </trkpt>
      <trkpt lat="42.733" lon="1.76179">
        <ele>1484</ele>
        <time>2016-09-10T10:44:51Z</time>
      </trkpt>
      <trkpt lat="42.73296" lon="1.76188">
        <ele>1484</ele>
        <time>2016-09-10T10:44:59Z</time>
      </trkpt>
      <trkpt lat="42.73287" lon="1.76192">
        <ele>1484</ele>
        <time>2016-09-10T10:45:05Z</time>
      </trkpt>
      <trkpt lat="42.73278" lon="1.76201">
        <ele>1485</ele>
        <time>2016-09-10T10:45:14Z</time>
      </trkpt>
      <trkpt lat="42.73277" lon="1.76204">
        <ele>1485</ele>
        <time>2016-09-10T10:45:16Z</time>
      </trkpt>
      <trkpt lat="42.73276" lon="1.76205">
        <ele>1485</ele>
        <time>2016-09-10T10:45:17Z</time>
      </trkpt>
      <trkpt lat="42.73276" lon="1.76205">
        <ele>1485</ele>
        <time>2016-09-10T10:45:18Z</time>
      </trkpt>
      <trkpt lat="42.73276" lon="1.76205">
        <ele>1485</ele>
        <time>2016-09-10T10:45:19Z</time>
      </trkpt>
      <trkpt lat="42.73275" lon="1.76206">
        <ele>1485</ele>
        <time>2016-09-10T10:45:20Z</time>
      </trkpt>
      <trkpt lat="42.73273" lon="1.76208">
        <ele>1485</ele>
        <time>2016-09-10T10:45:22Z</time>
      </trkpt>
      <trkpt lat="42.73267" lon="1.76219">
        <ele>1486</ele>
        <time>2016-09-10T10:45:32Z</time>
      </trkpt>
      <trkpt lat="42.73265" lon="1.76221">
        <ele>1486</ele>
        <time>2016-09-10T10:45:35Z</time>
      </trkpt>
      <trkpt lat="42.73264" lon="1.76223">
        <ele>1486</ele>
        <time>2016-09-10T10:45:36Z</time>
      </trkpt>
      <trkpt lat="42.73263" lon="1.76223">
        <ele>1486</ele>
        <time>2016-09-10T10:45:37Z</time>
      </trkpt>
      <trkpt lat="42.73262" lon="1.76224">
        <ele>1486</ele>
        <time>2016-09-10T10:45:38Z</time>
      </trkpt>
      <trkpt lat="42.73261" lon="1.76226">
        <ele>1486</ele>
        <time>2016-09-10T10:45:39Z</time>
      </trkpt>
      <trkpt lat="42.73258" lon="1.76228">
        <ele>1486</ele>
        <time>2016-09-10T10:45:41Z</time>
      </trkpt>
      <trkpt lat="42.73252" lon="1.7624">
        <ele>1486</ele>
        <time>2016-09-10T10:45:52Z</time>
      </trkpt>
      <trkpt lat="42.73248" lon="1.76243">
        <ele>1487</ele>
        <time>2016-09-10T10:45:55Z</time>
      </trkpt>
      <trkpt lat="42.73247" lon="1.76244">
        <ele>1487</ele>
        <time>2016-09-10T10:45:56Z</time>
      </trkpt>
      <trkpt lat="42.73246" lon="1.76245">
        <ele>1487</ele>
        <time>2016-09-10T10:45:57Z</time>
      </trkpt>
      <trkpt lat="42.73245" lon="1.76247">
        <ele>1487</ele>
        <time>2016-09-10T10:45:58Z</time>
      </trkpt>
      <trkpt lat="42.73243" lon="1.76249">
        <ele>1487</ele>
        <time>2016-09-10T10:45:59Z</time>
      </trkpt>
      <trkpt lat="42.73237" lon="1.76253">
        <ele>1488</ele>
        <time>2016-09-10T10:46:05Z</time>
      </trkpt>
      <trkpt lat="42.73233" lon="1.76259">
        <ele>1488</ele>
        <time>2016-09-10T10:46:17Z</time>
      </trkpt>
      <trkpt lat="42.73232" lon="1.76259">
        <ele>1488</ele>
        <time>2016-09-10T10:46:26Z</time>
      </trkpt>
      <trkpt lat="42.73231" lon="1.76258">
        <ele>1488</ele>
        <time>2016-09-10T10:46:27Z</time>
      </trkpt>
      <trkpt lat="42.7323" lon="1.76259">
        <ele>1488</ele>
        <time>2016-09-10T10:46:28Z</time>
      </trkpt>
      <trkpt lat="42.73229" lon="1.76259">
        <ele>1488</ele>
        <time>2016-09-10T10:46:29Z</time>
      </trkpt>
      <trkpt lat="42.73228" lon="1.76259">
        <ele>1489</ele>
        <time>2016-09-10T10:46:30Z</time>
      </trkpt>
      <trkpt lat="42.73224" lon="1.7626">
        <ele>1489</ele>
        <time>2016-09-10T10:46:38Z</time>
      </trkpt>
      <trkpt lat="42.73222" lon="1.7626">
        <ele>1489</ele>
        <time>2016-09-10T10:46:40Z</time>
      </trkpt>
      <trkpt lat="42.73222" lon="1.7626">
        <ele>1489</ele>
        <time>2016-09-10T10:46:41Z</time>
      </trkpt>
      <trkpt lat="42.73222" lon="1.7626">
        <ele>1489</ele>
        <time>2016-09-10T10:46:42Z</time>
      </trkpt>
      <trkpt lat="42.73221" lon="1.7626">
        <ele>1490</ele>
        <time>2016-09-10T10:46:43Z</time>
      </trkpt>
      <trkpt lat="42.7322" lon="1.7626">
        <ele>1490</ele>
        <time>2016-09-10T10:46:44Z</time>
      </trkpt>
      <trkpt lat="42.73217" lon="1.76261">
        <ele>1490</ele>
        <time>2016-09-10T10:46:48Z</time>
      </trkpt>
      <trkpt lat="42.73211" lon="1.76262">
        <ele>1491</ele>
        <time>2016-09-10T10:46:53Z</time>
      </trkpt>
      <trkpt lat="42.7321" lon="1.76262">
        <ele>1491</ele>
        <time>2016-09-10T10:46:54Z</time>
      </trkpt>
      <trkpt lat="42.73209" lon="1.76262">
        <ele>1491</ele>
        <time>2016-09-10T10:46:55Z</time>
      </trkpt>
      <trkpt lat="42.73209" lon="1.76262">
        <ele>1491</ele>
        <time>2016-09-10T10:46:56Z</time>
      </trkpt>
      <trkpt lat="42.73208" lon="1.76262">
        <ele>1492</ele>
        <time>2016-09-10T10:46:57Z</time>
      </trkpt>
      <trkpt lat="42.73207" lon="1.76261">
        <ele>1492</ele>
        <time>2016-09-10T10:46:58Z</time>
      </trkpt>
      <trkpt lat="42.73201" lon="1.76262">
        <ele>1492</ele>
        <time>2016-09-10T10:47:04Z</time>
      </trkpt>
      <trkpt lat="42.732" lon="1.76262">
        <ele>1493</ele>
        <time>2016-09-10T10:47:05Z</time>
      </trkpt>
      <trkpt lat="42.732" lon="1.76262">
        <ele>1493</ele>
        <time>2016-09-10T10:47:06Z</time>
      </trkpt>
      <trkpt lat="42.732" lon="1.76262">
        <ele>1493</ele>
        <time>2016-09-10T10:47:07Z</time>
      </trkpt>
      <trkpt lat="42.73199" lon="1.76264">
        <ele>1493</ele>
        <time>2016-09-10T10:47:08Z</time>
      </trkpt>
      <trkpt lat="42.73199" lon="1.76264">
        <ele>1493</ele>
        <time>2016-09-10T10:47:09Z</time>
      </trkpt>
      <trkpt lat="42.73193" lon="1.7627">
        <ele>1494</ele>
        <time>2016-09-10T10:47:17Z</time>
      </trkpt>
      <trkpt lat="42.73192" lon="1.7627">
        <ele>1494</ele>
        <time>2016-09-10T10:47:18Z</time>
      </trkpt>
      <trkpt lat="42.7319" lon="1.76271">
        <ele>1494</ele>
        <time>2016-09-10T10:47:19Z</time>
      </trkpt>
      <trkpt lat="42.73188" lon="1.76272">
        <ele>1495</ele>
        <time>2016-09-10T10:47:20Z</time>
      </trkpt>
      <trkpt lat="42.73187" lon="1.76273">
        <ele>1495</ele>
        <time>2016-09-10T10:47:21Z</time>
      </trkpt>
      <trkpt lat="42.7318" lon="1.76278">
        <ele>1496</ele>
        <time>2016-09-10T10:47:29Z</time>
      </trkpt>
      <trkpt lat="42.73176" lon="1.76278">
        <ele>1497</ele>
        <time>2016-09-10T10:47:34Z</time>
      </trkpt>
      <trkpt lat="42.73176" lon="1.76278">
        <ele>1497</ele>
        <time>2016-09-10T10:47:35Z</time>
      </trkpt>
      <trkpt lat="42.73175" lon="1.76279">
        <ele>1497</ele>
        <time>2016-09-10T10:47:36Z</time>
      </trkpt>
      <trkpt lat="42.73174" lon="1.7628">
        <ele>1497</ele>
        <time>2016-09-10T10:47:37Z</time>
      </trkpt>
      <trkpt lat="42.73174" lon="1.7628">
        <ele>1497</ele>
        <time>2016-09-10T10:47:38Z</time>
      </trkpt>
      <trkpt lat="42.73173" lon="1.76281">
        <ele>1497</ele>
        <time>2016-09-10T10:47:39Z</time>
      </trkpt>
      <trkpt lat="42.73167" lon="1.76285">
        <ele>1498</ele>
        <time>2016-09-10T10:47:48Z</time>
      </trkpt>
      <trkpt lat="42.73166" lon="1.76287">
        <ele>1498</ele>
        <time>2016-09-10T10:47:51Z</time>
      </trkpt>
      <trkpt lat="42.73165" lon="1.76287">
        <ele>1498</ele>
        <time>2016-09-10T10:47:52Z</time>
      </trkpt>
      <trkpt lat="42.73163" lon="1.76288">
        <ele>1498</ele>
        <time>2016-09-10T10:47:53Z</time>
      </trkpt>
      <trkpt lat="42.7316" lon="1.76289">
        <ele>1499</ele>
        <time>2016-09-10T10:47:54Z</time>
      </trkpt>
      <trkpt lat="42.73159" lon="1.76289">
        <ele>1499</ele>
        <time>2016-09-10T10:47:55Z</time>
      </trkpt>
      <trkpt lat="42.73158" lon="1.76289">
        <ele>1499</ele>
        <time>2016-09-10T10:47:56Z</time>
      </trkpt>
      <trkpt lat="42.73156" lon="1.76288">
        <ele>1500</ele>
        <time>2016-09-10T10:48:02Z</time>
      </trkpt>
      <trkpt lat="42.73155" lon="1.76289">
        <ele>1500</ele>
        <time>2016-09-10T10:48:03Z</time>
      </trkpt>
      <trkpt lat="42.73155" lon="1.76289">
        <ele>1500</ele>
        <time>2016-09-10T10:48:04Z</time>
      </trkpt>
      <trkpt lat="42.73154" lon="1.7629">
        <ele>1500</ele>
        <time>2016-09-10T10:48:05Z</time>
      </trkpt>
      <trkpt lat="42.73154" lon="1.7629">
        <ele>1500</ele>
        <time>2016-09-10T10:48:06Z</time>
      </trkpt>
      <trkpt lat="42.73152" lon="1.76297">
        <ele>1500</ele>
        <time>2016-09-10T10:48:13Z</time>
      </trkpt>
      <trkpt lat="42.7314" lon="1.76304">
        <ele>1502</ele>
        <time>2016-09-10T10:48:21Z</time>
      </trkpt>
      <trkpt lat="42.73132" lon="1.763">
        <ele>1504</ele>
        <time>2016-09-10T10:48:28Z</time>
      </trkpt>
      <trkpt lat="42.73127" lon="1.76293">
        <ele>1505</ele>
        <time>2016-09-10T10:48:35Z</time>
      </trkpt>
      <trkpt lat="42.73125" lon="1.76288">
        <ele>1505</ele>
        <time>2016-09-10T10:48:42Z</time>
      </trkpt>
      <trkpt lat="42.73126" lon="1.76288">
        <ele>1505</ele>
        <time>2016-09-10T10:48:50Z</time>
      </trkpt>
      <trkpt lat="42.73134" lon="1.76289">
        <ele>1503</ele>
        <time>2016-09-10T10:48:57Z</time>
      </trkpt>
      <trkpt lat="42.73139" lon="1.76293">
        <ele>1502</ele>
        <time>2016-09-10T10:49:04Z</time>
      </trkpt>
      <trkpt lat="42.7314" lon="1.76294">
        <ele>1502</ele>
        <time>2016-09-10T10:49:05Z</time>
      </trkpt>
      <trkpt lat="42.73141" lon="1.76296">
        <ele>1502</ele>
        <time>2016-09-10T10:49:06Z</time>
      </trkpt>
      <trkpt lat="42.73141" lon="1.76296">
        <ele>1502</ele>
        <time>2016-09-10T10:49:07Z</time>
      </trkpt>
      <trkpt lat="42.73141" lon="1.76297">
        <ele>1502</ele>
        <time>2016-09-10T10:49:08Z</time>
      </trkpt>
      <trkpt lat="42.73142" lon="1.76298">
        <ele>1502</ele>
        <time>2016-09-10T10:49:09Z</time>
      </trkpt>
      <trkpt lat="42.73144" lon="1.76305">
        <ele>1502</ele>
        <time>2016-09-10T10:49:15Z</time>
      </trkpt>
      <trkpt lat="42.73144" lon="1.76305">
        <ele>1502</ele>
        <time>2016-09-10T10:49:26Z</time>
      </trkpt>
      <trkpt lat="42.73144" lon="1.76305">
        <ele>1502</ele>
        <time>2016-09-10T10:49:36Z</time>
      </trkpt>
      <trkpt lat="42.73145" lon="1.76306">
        <ele>1501</ele>
        <time>2016-09-10T10:49:47Z</time>
      </trkpt>
      <trkpt lat="42.73146" lon="1.76306">
        <ele>1501</ele>
        <time>2016-09-10T10:49:57Z</time>
      </trkpt>
      <trkpt lat="42.73146" lon="1.76306">
        <ele>1501</ele>
        <time>2016-09-10T10:50:04Z</time>
      </trkpt>
      <trkpt lat="42.73146" lon="1.76306">
        <ele>1501</ele>
        <time>2016-09-10T10:50:05Z</time>
      </trkpt>
      <trkpt lat="42.73146" lon="1.76306">
        <ele>1501</ele>
        <time>2016-09-10T10:50:06Z</time>
      </trkpt>
      <trkpt lat="42.73146" lon="1.76306">
        <ele>1501</ele>
        <time>2016-09-10T10:50:07Z</time>
      </trkpt>
      <trkpt lat="42.73146" lon="1.76306">
        <ele>1501</ele>
        <time>2016-09-10T10:50:08Z</time>
      </trkpt>
      <trkpt lat="42.73146" lon="1.76306">
        <ele>1501</ele>
        <time>2016-09-10T10:50:11Z</time>
      </trkpt>
      <trkpt lat="42.73146" lon="1.76306">
        <ele>1501</ele>
        <time>2016-09-10T10:50:20Z</time>
      </trkpt>
      <trkpt lat="42.73146" lon="1.76306">
        <ele>1501</ele>
        <time>2016-09-10T10:50:21Z</time>
      </trkpt>
      <trkpt lat="42.73146" lon="1.76306">
        <ele>1501</ele>
        <time>2016-09-10T10:50:22Z</time>
      </trkpt>
      <trkpt lat="42.73146" lon="1.76306">
        <ele>1501</ele>
        <time>2016-09-10T10:50:23Z</time>
      </trkpt>
      <trkpt lat="42.73146" lon="1.76306">
        <ele>1501</ele>
        <time>2016-09-10T10:50:24Z</time>
      </trkpt>
      <trkpt lat="42.73146" lon="1.76306">
        <ele>1501</ele>
        <time>2016-09-10T10:50:25Z</time>
      </trkpt>
      <trkpt lat="42.73146" lon="1.76305">
        <ele>1501</ele>
        <time>2016-09-10T10:50:26Z</time>
      </trkpt>
      <trkpt lat="42.73147" lon="1.76305">
        <ele>1501</ele>
        <time>2016-09-10T10:50:27Z</time>
      </trkpt>
      <trkpt lat="42.73147" lon="1.76305">
        <ele>1501</ele>
        <time>2016-09-10T10:50:28Z</time>
      </trkpt>
      <trkpt lat="42.73147" lon="1.76304">
        <ele>1501</ele>
        <time>2016-09-10T10:50:29Z</time>
      </trkpt>
      <trkpt lat="42.73147" lon="1.76304">
        <ele>1501</ele>
        <time>2016-09-10T10:50:30Z</time>
      </trkpt>
      <trkpt lat="42.73148" lon="1.76303">
        <ele>1501</ele>
        <time>2016-09-10T10:50:31Z</time>
      </trkpt>
      <trkpt lat="42.73148" lon="1.76303">
        <ele>1501</ele>
        <time>2016-09-10T10:50:32Z</time>
      </trkpt>
      <trkpt lat="42.73148" lon="1.76302">
        <ele>1501</ele>
        <time>2016-09-10T10:50:33Z</time>
      </trkpt>
      <trkpt lat="42.73149" lon="1.76302">
        <ele>1501</ele>
        <time>2016-09-10T10:50:34Z</time>
      </trkpt>
      <trkpt lat="42.73149" lon="1.76302">
        <ele>1501</ele>
        <time>2016-09-10T10:50:35Z</time>
      </trkpt>
      <trkpt lat="42.73151" lon="1.76302">
        <ele>1500</ele>
        <time>2016-09-10T10:50:43Z</time>
      </trkpt>
      <trkpt lat="42.73151" lon="1.76302">
        <ele>1500</ele>
        <time>2016-09-10T10:50:53Z</time>
      </trkpt>
      <trkpt lat="42.73151" lon="1.76302">
        <ele>1500</ele>
        <time>2016-09-10T10:51:07Z</time>
      </trkpt>
      <trkpt lat="42.73151" lon="1.76302">
        <ele>1500</ele>
        <time>2016-09-10T10:51:21Z</time>
      </trkpt>
      <trkpt lat="42.73148" lon="1.76305">
        <ele>1501</ele>
        <time>2016-09-10T10:51:30Z</time>
      </trkpt>
      <trkpt lat="42.73146" lon="1.76306">
        <ele>1501</ele>
        <time>2016-09-10T10:51:41Z</time>
      </trkpt>
      <trkpt lat="42.73146" lon="1.76306">
        <ele>1501</ele>
        <time>2016-09-10T10:51:53Z</time>
      </trkpt>
      <trkpt lat="42.73145" lon="1.76307">
        <ele>1501</ele>
        <time>2016-09-10T10:52:03Z</time>
      </trkpt>
      <trkpt lat="42.73145" lon="1.76307">
        <ele>1501</ele>
        <time>2016-09-10T10:52:14Z</time>
      </trkpt>
      <trkpt lat="42.73145" lon="1.76307">
        <ele>1501</ele>
        <time>2016-09-10T10:52:20Z</time>
      </trkpt>
      <trkpt lat="42.73145" lon="1.76307">
        <ele>1501</ele>
        <time>2016-09-10T10:52:21Z</time>
      </trkpt>
      <trkpt lat="42.73145" lon="1.76307">
        <ele>1501</ele>
        <time>2016-09-10T10:52:22Z</time>
      </trkpt>
      <trkpt lat="42.73145" lon="1.76307">
        <ele>1501</ele>
        <time>2016-09-10T10:52:23Z</time>
      </trkpt>
      <trkpt lat="42.73145" lon="1.76307">
        <ele>1501</ele>
        <time>2016-09-10T10:52:24Z</time>
      </trkpt>
      <trkpt lat="42.73145" lon="1.76307">
        <ele>1501</ele>
        <time>2016-09-10T10:52:25Z</time>
      </trkpt>
      <trkpt lat="42.73144" lon="1.76314">
        <ele>1501</ele>
        <time>2016-09-10T10:52:33Z</time>
      </trkpt>
      <trkpt lat="42.73142" lon="1.76315">
        <ele>1502</ele>
        <time>2016-09-10T10:52:41Z</time>
      </trkpt>
      <trkpt lat="42.73138" lon="1.76329">
        <ele>1503</ele>
        <time>2016-09-10T10:52:50Z</time>
      </trkpt>
      <trkpt lat="42.73136" lon="1.76333">
        <ele>1503</ele>
        <time>2016-09-10T10:52:53Z</time>
      </trkpt>
      <trkpt lat="42.73135" lon="1.76335">
        <ele>1504</ele>
        <time>2016-09-10T10:52:54Z</time>
      </trkpt>
      <trkpt lat="42.73135" lon="1.76336">
        <ele>1504</ele>
        <time>2016-09-10T10:52:55Z</time>
      </trkpt>
      <trkpt lat="42.73134" lon="1.76338">
        <ele>1504</ele>
        <time>2016-09-10T10:52:56Z</time>
      </trkpt>
      <trkpt lat="42.73133" lon="1.76339">
        <ele>1504</ele>
        <time>2016-09-10T10:52:57Z</time>
      </trkpt>
      <trkpt lat="42.7312" lon="1.76346">
        <ele>1508</ele>
        <time>2016-09-10T10:53:06Z</time>
      </trkpt>
      <trkpt lat="42.73119" lon="1.76347">
        <ele>1508</ele>
        <time>2016-09-10T10:53:07Z</time>
      </trkpt>
      <trkpt lat="42.73118" lon="1.76347">
        <ele>1508</ele>
        <time>2016-09-10T10:53:08Z</time>
      </trkpt>
      <trkpt lat="42.73118" lon="1.76348">
        <ele>1509</ele>
        <time>2016-09-10T10:53:09Z</time>
      </trkpt>
      <trkpt lat="42.73117" lon="1.76349">
        <ele>1509</ele>
        <time>2016-09-10T10:53:10Z</time>
      </trkpt>
      <trkpt lat="42.73116" lon="1.76351">
        <ele>1509</ele>
        <time>2016-09-10T10:53:15Z</time>
      </trkpt>
      <trkpt lat="42.73115" lon="1.76353">
        <ele>1509</ele>
        <time>2016-09-10T10:53:22Z</time>
      </trkpt>
      <trkpt lat="42.73115" lon="1.76353">
        <ele>1509</ele>
        <time>2016-09-10T10:53:23Z</time>
      </trkpt>
      <trkpt lat="42.73115" lon="1.76353">
        <ele>1509</ele>
        <time>2016-09-10T10:53:24Z</time>
      </trkpt>
      <trkpt lat="42.73115" lon="1.76353">
        <ele>1509</ele>
        <time>2016-09-10T10:53:25Z</time>
      </trkpt>
      <trkpt lat="42.73114" lon="1.76354">
        <ele>1510</ele>
        <time>2016-09-10T10:53:26Z</time>
      </trkpt>
      <trkpt lat="42.73108" lon="1.76359">
        <ele>1511</ele>
        <time>2016-09-10T10:53:31Z</time>
      </trkpt>
      <trkpt lat="42.73101" lon="1.76361">
        <ele>1513</ele>
        <time>2016-09-10T10:53:37Z</time>
      </trkpt>
      <trkpt lat="42.731" lon="1.76361">
        <ele>1513</ele>
        <time>2016-09-10T10:53:38Z</time>
      </trkpt>
      <trkpt lat="42.731" lon="1.76361">
        <ele>1513</ele>
        <time>2016-09-10T10:53:39Z</time>
      </trkpt>
      <trkpt lat="42.73099" lon="1.76361">
        <ele>1513</ele>
        <time>2016-09-10T10:53:40Z</time>
      </trkpt>
      <trkpt lat="42.73099" lon="1.76361">
        <ele>1513</ele>
        <time>2016-09-10T10:53:41Z</time>
      </trkpt>
      <trkpt lat="42.7309" lon="1.76363">
        <ele>1516</ele>
        <time>2016-09-10T10:53:49Z</time>
      </trkpt>
      <trkpt lat="42.73089" lon="1.76363">
        <ele>1516</ele>
        <time>2016-09-10T10:53:50Z</time>
      </trkpt>
      <trkpt lat="42.73088" lon="1.76363">
        <ele>1516</ele>
        <time>2016-09-10T10:53:51Z</time>
      </trkpt>
      <trkpt lat="42.73087" lon="1.76363">
        <ele>1517</ele>
        <time>2016-09-10T10:53:52Z</time>
      </trkpt>
      <trkpt lat="42.73085" lon="1.76363">
        <ele>1517</ele>
        <time>2016-09-10T10:53:53Z</time>
      </trkpt>
      <trkpt lat="42.73081" lon="1.76367">
        <ele>1518</ele>
        <time>2016-09-10T10:53:58Z</time>
      </trkpt>
      <trkpt lat="42.73079" lon="1.76366">
        <ele>1519</ele>
        <time>2016-09-10T10:54:01Z</time>
      </trkpt>
      <trkpt lat="42.73078" lon="1.76366">
        <ele>1519</ele>
        <time>2016-09-10T10:54:02Z</time>
      </trkpt>
      <trkpt lat="42.73077" lon="1.76366">
        <ele>1519</ele>
        <time>2016-09-10T10:54:03Z</time>
      </trkpt>
      <trkpt lat="42.73076" lon="1.76366">
        <ele>1520</ele>
        <time>2016-09-10T10:54:04Z</time>
      </trkpt>
      <trkpt lat="42.73075" lon="1.76366">
        <ele>1520</ele>
        <time>2016-09-10T10:54:06Z</time>
      </trkpt>
      <trkpt lat="42.73075" lon="1.76367">
        <ele>1520</ele>
        <time>2016-09-10T10:54:16Z</time>
      </trkpt>
      <trkpt lat="42.73067" lon="1.76364">
        <ele>1522</ele>
        <time>2016-09-10T10:54:24Z</time>
      </trkpt>
      <trkpt lat="42.73065" lon="1.76363">
        <ele>1522</ele>
        <time>2016-09-10T10:54:26Z</time>
      </trkpt>
      <trkpt lat="42.73065" lon="1.76363">
        <ele>1522</ele>
        <time>2016-09-10T10:54:27Z</time>
      </trkpt>
      <trkpt lat="42.73064" lon="1.76362">
        <ele>1522</ele>
        <time>2016-09-10T10:54:28Z</time>
      </trkpt>
      <trkpt lat="42.73064" lon="1.76362">
        <ele>1523</ele>
        <time>2016-09-10T10:54:29Z</time>
      </trkpt>
      <trkpt lat="42.73061" lon="1.76362">
        <ele>1523</ele>
        <time>2016-09-10T10:54:32Z</time>
      </trkpt>
      <trkpt lat="42.73057" lon="1.76366">
        <ele>1524</ele>
        <time>2016-09-10T10:54:37Z</time>
      </trkpt>
      <trkpt lat="42.73056" lon="1.76366">
        <ele>1525</ele>
        <time>2016-09-10T10:54:38Z</time>
      </trkpt>
      <trkpt lat="42.73054" lon="1.76367">
        <ele>1525</ele>
        <time>2016-09-10T10:54:39Z</time>
      </trkpt>
      <trkpt lat="42.73052" lon="1.76367">
        <ele>1525</ele>
        <time>2016-09-10T10:54:40Z</time>
      </trkpt>
      <trkpt lat="42.73051" lon="1.76368">
        <ele>1526</ele>
        <time>2016-09-10T10:54:41Z</time>
      </trkpt>
      <trkpt lat="42.7305" lon="1.76368">
        <ele>1526</ele>
        <time>2016-09-10T10:54:42Z</time>
      </trkpt>
      <trkpt lat="42.73043" lon="1.76367">
        <ele>1528</ele>
        <time>2016-09-10T10:54:48Z</time>
      </trkpt>
      <trkpt lat="42.73039" lon="1.76367">
        <ele>1528</ele>
        <time>2016-09-10T10:54:52Z</time>
      </trkpt>
      <trkpt lat="42.73038" lon="1.76367">
        <ele>1529</ele>
        <time>2016-09-10T10:54:53Z</time>
      </trkpt>
      <trkpt lat="42.73038" lon="1.76367">
        <ele>1529</ele>
        <time>2016-09-10T10:54:54Z</time>
      </trkpt>
      <trkpt lat="42.73037" lon="1.76367">
        <ele>1529</ele>
        <time>2016-09-10T10:54:55Z</time>
      </trkpt>
      <trkpt lat="42.73036" lon="1.76367">
        <ele>1529</ele>
        <time>2016-09-10T10:54:56Z</time>
      </trkpt>
      <trkpt lat="42.73034" lon="1.7637">
        <ele>1530</ele>
        <time>2016-09-10T10:55:07Z</time>
      </trkpt>
      <trkpt lat="42.73034" lon="1.7637">
        <ele>1530</ele>
        <time>2016-09-10T10:55:15Z</time>
      </trkpt>
      <trkpt lat="42.73034" lon="1.7637">
        <ele>1530</ele>
        <time>2016-09-10T10:55:16Z</time>
      </trkpt>
      <trkpt lat="42.73034" lon="1.7637">
        <ele>1530</ele>
        <time>2016-09-10T10:55:17Z</time>
      </trkpt>
      <trkpt lat="42.73034" lon="1.7637">
        <ele>1530</ele>
        <time>2016-09-10T10:55:18Z</time>
      </trkpt>
      <trkpt lat="42.73032" lon="1.76371">
        <ele>1530</ele>
        <time>2016-09-10T10:55:22Z</time>
      </trkpt>
      <trkpt lat="42.73026" lon="1.76373">
        <ele>1532</ele>
        <time>2016-09-10T10:55:31Z</time>
      </trkpt>
      <trkpt lat="42.73027" lon="1.76375">
        <ele>1532</ele>
        <time>2016-09-10T10:55:38Z</time>
      </trkpt>
      <trkpt lat="42.73027" lon="1.76375">
        <ele>1532</ele>
        <time>2016-09-10T10:55:39Z</time>
      </trkpt>
      <trkpt lat="42.73026" lon="1.76375">
        <ele>1532</ele>
        <time>2016-09-10T10:55:40Z</time>
      </trkpt>
      <trkpt lat="42.73026" lon="1.76375">
        <ele>1532</ele>
        <time>2016-09-10T10:55:41Z</time>
      </trkpt>
      <trkpt lat="42.73027" lon="1.76375">
        <ele>1532</ele>
        <time>2016-09-10T10:55:42Z</time>
      </trkpt>
      <trkpt lat="42.73029" lon="1.76375">
        <ele>1531</ele>
        <time>2016-09-10T10:55:47Z</time>
      </trkpt>
      <trkpt lat="42.73029" lon="1.76375">
        <ele>1531</ele>
        <time>2016-09-10T10:55:48Z</time>
      </trkpt>
      <trkpt lat="42.7303" lon="1.76375">
        <ele>1531</ele>
        <time>2016-09-10T10:55:49Z</time>
      </trkpt>
      <trkpt lat="42.7303" lon="1.76375">
        <ele>1531</ele>
        <time>2016-09-10T10:55:50Z</time>
      </trkpt>
      <trkpt lat="42.7303" lon="1.76375">
        <ele>1531</ele>
        <time>2016-09-10T10:55:51Z</time>
      </trkpt>
      <trkpt lat="42.7303" lon="1.76375">
        <ele>1531</ele>
        <time>2016-09-10T10:55:54Z</time>
      </trkpt>
      <trkpt lat="42.7303" lon="1.76375">
        <ele>1531</ele>
        <time>2016-09-10T10:55:55Z</time>
      </trkpt>
      <trkpt lat="42.7303" lon="1.76375">
        <ele>1531</ele>
        <time>2016-09-10T10:55:56Z</time>
      </trkpt>
      <trkpt lat="42.7303" lon="1.76375">
        <ele>1531</ele>
        <time>2016-09-10T10:55:57Z</time>
      </trkpt>
      <trkpt lat="42.7303" lon="1.76375">
        <ele>1531</ele>
        <time>2016-09-10T10:55:58Z</time>
      </trkpt>
      <trkpt lat="42.7303" lon="1.76375">
        <ele>1531</ele>
        <time>2016-09-10T10:55:59Z</time>
      </trkpt>
      <trkpt lat="42.7303" lon="1.76375">
        <ele>1531</ele>
        <time>2016-09-10T10:56:00Z</time>
      </trkpt>
      <trkpt lat="42.7303" lon="1.76375">
        <ele>1531</ele>
        <time>2016-09-10T10:56:01Z</time>
      </trkpt>
      <trkpt lat="42.73026" lon="1.76376">
        <ele>1532</ele>
        <time>2016-09-10T10:56:07Z</time>
      </trkpt>
      <trkpt lat="42.73022" lon="1.76376">
        <ele>1533</ele>
        <time>2016-09-10T10:56:12Z</time>
      </trkpt>
      <trkpt lat="42.73021" lon="1.76376">
        <ele>1533</ele>
        <time>2016-09-10T10:56:13Z</time>
      </trkpt>
      <trkpt lat="42.73019" lon="1.76375">
        <ele>1533</ele>
        <time>2016-09-10T10:56:14Z</time>
      </trkpt>
      <trkpt lat="42.73016" lon="1.76375">
        <ele>1534</ele>
        <time>2016-09-10T10:56:15Z</time>
      </trkpt>
      <trkpt lat="42.73014" lon="1.76375">
        <ele>1534</ele>
        <time>2016-09-10T10:56:16Z</time>
      </trkpt>
      <trkpt lat="42.73005" lon="1.76377">
        <ele>1535</ele>
        <time>2016-09-10T10:56:23Z</time>
      </trkpt>
      <trkpt lat="42.73001" lon="1.76376">
        <ele>1536</ele>
        <time>2016-09-10T10:56:26Z</time>
      </trkpt>
      <trkpt lat="42.73" lon="1.76376">
        <ele>1536</ele>
        <time>2016-09-10T10:56:27Z</time>
      </trkpt>
      <trkpt lat="42.72999" lon="1.76377">
        <ele>1536</ele>
        <time>2016-09-10T10:56:28Z</time>
      </trkpt>
      <trkpt lat="42.72998" lon="1.76377">
        <ele>1537</ele>
        <time>2016-09-10T10:56:29Z</time>
      </trkpt>
      <trkpt lat="42.72998" lon="1.76377">
        <ele>1537</ele>
        <time>2016-09-10T10:56:30Z</time>
      </trkpt>
      <trkpt lat="42.72994" lon="1.76379">
        <ele>1537</ele>
        <time>2016-09-10T10:56:32Z</time>
      </trkpt>
      <trkpt lat="42.7299" lon="1.7638">
        <ele>1538</ele>
        <time>2016-09-10T10:56:38Z</time>
      </trkpt>
      <trkpt lat="42.72989" lon="1.76379">
        <ele>1538</ele>
        <time>2016-09-10T10:56:39Z</time>
      </trkpt>
      <trkpt lat="42.72988" lon="1.76379">
        <ele>1538</ele>
        <time>2016-09-10T10:56:40Z</time>
      </trkpt>
      <trkpt lat="42.72987" lon="1.76379">
        <ele>1539</ele>
        <time>2016-09-10T10:56:41Z</time>
      </trkpt>
      <trkpt lat="42.72987" lon="1.7638">
        <ele>1539</ele>
        <time>2016-09-10T10:56:42Z</time>
      </trkpt>
      <trkpt lat="42.72984" lon="1.76381">
        <ele>1539</ele>
        <time>2016-09-10T10:56:46Z</time>
      </trkpt>
      <trkpt lat="42.7298" lon="1.76383">
        <ele>1540</ele>
        <time>2016-09-10T10:56:51Z</time>
      </trkpt>
      <trkpt lat="42.72979" lon="1.76383">
        <ele>1540</ele>
        <time>2016-09-10T10:56:52Z</time>
      </trkpt>
      <trkpt lat="42.72978" lon="1.76383">
        <ele>1540</ele>
        <time>2016-09-10T10:56:53Z</time>
      </trkpt>
      <trkpt lat="42.72978" lon="1.76384">
        <ele>1540</ele>
        <time>2016-09-10T10:56:54Z</time>
      </trkpt>
      <trkpt lat="42.72977" lon="1.76384">
        <ele>1540</ele>
        <time>2016-09-10T10:56:55Z</time>
      </trkpt>
      <trkpt lat="42.72977" lon="1.76384">
        <ele>1540</ele>
        <time>2016-09-10T10:56:56Z</time>
      </trkpt>
      <trkpt lat="42.72977" lon="1.76384">
        <ele>1540</ele>
        <time>2016-09-10T10:57:07Z</time>
      </trkpt>
      <trkpt lat="42.72978" lon="1.76385">
        <ele>1540</ele>
        <time>2016-09-10T10:57:17Z</time>
      </trkpt>
      <trkpt lat="42.72983" lon="1.76387">
        <ele>1540</ele>
        <time>2016-09-10T10:57:26Z</time>
      </trkpt>
      <trkpt lat="42.72985" lon="1.76391">
        <ele>1540</ele>
        <time>2016-09-10T10:57:32Z</time>
      </trkpt>
      <trkpt lat="42.72985" lon="1.76392">
        <ele>1540</ele>
        <time>2016-09-10T10:57:33Z</time>
      </trkpt>
      <trkpt lat="42.72984" lon="1.76393">
        <ele>1541</ele>
        <time>2016-09-10T10:57:34Z</time>
      </trkpt>
      <trkpt lat="42.72985" lon="1.76394">
        <ele>1541</ele>
        <time>2016-09-10T10:57:35Z</time>
      </trkpt>
      <trkpt lat="42.72984" lon="1.76395">
        <ele>1541</ele>
        <time>2016-09-10T10:57:36Z</time>
      </trkpt>
      <trkpt lat="42.72978" lon="1.76398">
        <ele>1542</ele>
        <time>2016-09-10T10:57:42Z</time>
      </trkpt>
      <trkpt lat="42.72977" lon="1.76399">
        <ele>1542</ele>
        <time>2016-09-10T10:57:43Z</time>
      </trkpt>
      <trkpt lat="42.72976" lon="1.764">
        <ele>1543</ele>
        <time>2016-09-10T10:57:44Z</time>
      </trkpt>
      <trkpt lat="42.72975" lon="1.76401">
        <ele>1543</ele>
        <time>2016-09-10T10:57:45Z</time>
      </trkpt>
      <trkpt lat="42.72974" lon="1.76401">
        <ele>1543</ele>
        <time>2016-09-10T10:57:46Z</time>
      </trkpt>
      <trkpt lat="42.72973" lon="1.76402">
        <ele>1543</ele>
        <time>2016-09-10T10:57:50Z</time>
      </trkpt>
      <trkpt lat="42.72973" lon="1.764">
        <ele>1543</ele>
        <time>2016-09-10T10:57:58Z</time>
      </trkpt>
      <trkpt lat="42.72973" lon="1.76397">
        <ele>1543</ele>
        <time>2016-09-10T10:58:06Z</time>
      </trkpt>
      <trkpt lat="42.72967" lon="1.7639">
        <ele>1542</ele>
        <time>2016-09-10T10:58:13Z</time>
      </trkpt>
      <trkpt lat="42.72966" lon="1.76384">
        <ele>1542</ele>
        <time>2016-09-10T10:58:22Z</time>
      </trkpt>
      <trkpt lat="42.72964" lon="1.76378">
        <ele>1541</ele>
        <time>2016-09-10T10:58:30Z</time>
      </trkpt>
      <trkpt lat="42.72953" lon="1.76371">
        <ele>1541</ele>
        <time>2016-09-10T10:58:38Z</time>
      </trkpt>
      <trkpt lat="42.72948" lon="1.76371">
        <ele>1542</ele>
        <time>2016-09-10T10:58:41Z</time>
      </trkpt>
      <trkpt lat="42.72943" lon="1.7637">
        <ele>1542</ele>
        <time>2016-09-10T10:58:44Z</time>
      </trkpt>
      <trkpt lat="42.72934" lon="1.7637">
        <ele>1543</ele>
        <time>2016-09-10T10:58:53Z</time>
      </trkpt>
      <trkpt lat="42.72928" lon="1.7637">
        <ele>1543</ele>
        <time>2016-09-10T10:59:01Z</time>
      </trkpt>
      <trkpt lat="42.72919" lon="1.76374">
        <ele>1545</ele>
        <time>2016-09-10T10:59:09Z</time>
      </trkpt>
      <trkpt lat="42.72914" lon="1.76373">
        <ele>1545</ele>
        <time>2016-09-10T10:59:14Z</time>
      </trkpt>
      <trkpt lat="42.72913" lon="1.76372">
        <ele>1545</ele>
        <time>2016-09-10T10:59:15Z</time>
      </trkpt>
      <trkpt lat="42.72912" lon="1.76372">
        <ele>1545</ele>
        <time>2016-09-10T10:59:16Z</time>
      </trkpt>
      <trkpt lat="42.72911" lon="1.76372">
        <ele>1545</ele>
        <time>2016-09-10T10:59:17Z</time>
      </trkpt>
      <trkpt lat="42.7291" lon="1.76373">
        <ele>1545</ele>
        <time>2016-09-10T10:59:18Z</time>
      </trkpt>
      <trkpt lat="42.72908" lon="1.76373">
        <ele>1545</ele>
        <time>2016-09-10T10:59:19Z</time>
      </trkpt>
      <trkpt lat="42.72899" lon="1.76383">
        <ele>1548</ele>
        <time>2016-09-10T10:59:26Z</time>
      </trkpt>
      <trkpt lat="42.72894" lon="1.76383">
        <ele>1548</ele>
        <time>2016-09-10T10:59:31Z</time>
      </trkpt>
      <trkpt lat="42.72885" lon="1.76385">
        <ele>1549</ele>
        <time>2016-09-10T10:59:39Z</time>
      </trkpt>
      <trkpt lat="42.72884" lon="1.76385">
        <ele>1550</ele>
        <time>2016-09-10T10:59:40Z</time>
      </trkpt>
      <trkpt lat="42.72883" lon="1.76385">
        <ele>1550</ele>
        <time>2016-09-10T10:59:41Z</time>
      </trkpt>
      <trkpt lat="42.72883" lon="1.76385">
        <ele>1550</ele>
        <time>2016-09-10T10:59:42Z</time>
      </trkpt>
      <trkpt lat="42.72883" lon="1.76385">
        <ele>1550</ele>
        <time>2016-09-10T10:59:43Z</time>
      </trkpt>
      <trkpt lat="42.72879" lon="1.76386">
        <ele>1550</ele>
        <time>2016-09-10T10:59:47Z</time>
      </trkpt>
      <trkpt lat="42.72873" lon="1.76385">
        <ele>1550</ele>
        <time>2016-09-10T10:59:54Z</time>
      </trkpt>
      <trkpt lat="42.72871" lon="1.76385">
        <ele>1551</ele>
        <time>2016-09-10T10:59:55Z</time>
      </trkpt>
      <trkpt lat="42.7287" lon="1.76385">
        <ele>1551</ele>
        <time>2016-09-10T10:59:56Z</time>
      </trkpt>
      <trkpt lat="42.72869" lon="1.76385">
        <ele>1551</ele>
        <time>2016-09-10T10:59:57Z</time>
      </trkpt>
      <trkpt lat="42.72868" lon="1.76385">
        <ele>1551</ele>
        <time>2016-09-10T10:59:58Z</time>
      </trkpt>
      <trkpt lat="42.7286" lon="1.76385">
        <ele>1551</ele>
        <time>2016-09-10T11:00:03Z</time>
      </trkpt>
      <trkpt lat="42.72853" lon="1.76385">
        <ele>1552</ele>
        <time>2016-09-10T11:00:08Z</time>
      </trkpt>
      <trkpt lat="42.72849" lon="1.76385">
        <ele>1552</ele>
        <time>2016-09-10T11:00:14Z</time>
      </trkpt>
      <trkpt lat="42.72843" lon="1.76384">
        <ele>1553</ele>
        <time>2016-09-10T11:00:19Z</time>
      </trkpt>
      <trkpt lat="42.72839" lon="1.76385">
        <ele>1553</ele>
        <time>2016-09-10T11:00:23Z</time>
      </trkpt>
      <trkpt lat="42.72836" lon="1.76385">
        <ele>1554</ele>
        <time>2016-09-10T11:00:25Z</time>
      </trkpt>
      <trkpt lat="42.72831" lon="1.76385">
        <ele>1554</ele>
        <time>2016-09-10T11:00:33Z</time>
      </trkpt>
      <trkpt lat="42.72829" lon="1.76386">
        <ele>1555</ele>
        <time>2016-09-10T11:00:40Z</time>
      </trkpt>
      <trkpt lat="42.72823" lon="1.76384">
        <ele>1555</ele>
        <time>2016-09-10T11:00:45Z</time>
      </trkpt>
      <trkpt lat="42.72822" lon="1.76384">
        <ele>1555</ele>
        <time>2016-09-10T11:00:46Z</time>
      </trkpt>
      <trkpt lat="42.72821" lon="1.76384">
        <ele>1555</ele>
        <time>2016-09-10T11:00:47Z</time>
      </trkpt>
      <trkpt lat="42.72821" lon="1.76384">
        <ele>1555</ele>
        <time>2016-09-10T11:00:48Z</time>
      </trkpt>
      <trkpt lat="42.7282" lon="1.76384">
        <ele>1555</ele>
        <time>2016-09-10T11:00:49Z</time>
      </trkpt>
      <trkpt lat="42.72818" lon="1.76383">
        <ele>1555</ele>
        <time>2016-09-10T11:00:53Z</time>
      </trkpt>
      <trkpt lat="42.72811" lon="1.76384">
        <ele>1556</ele>
        <time>2016-09-10T11:00:59Z</time>
      </trkpt>
      <trkpt lat="42.72803" lon="1.76386">
        <ele>1558</ele>
        <time>2016-09-10T11:01:05Z</time>
      </trkpt>
      <trkpt lat="42.72801" lon="1.76388">
        <ele>1558</ele>
        <time>2016-09-10T11:01:12Z</time>
      </trkpt>
      <trkpt lat="42.72796" lon="1.76385">
        <ele>1558</ele>
        <time>2016-09-10T11:01:22Z</time>
      </trkpt>
      <trkpt lat="42.72795" lon="1.76385">
        <ele>1558</ele>
        <time>2016-09-10T11:01:23Z</time>
      </trkpt>
      <trkpt lat="42.72794" lon="1.76384">
        <ele>1558</ele>
        <time>2016-09-10T11:01:24Z</time>
      </trkpt>
      <trkpt lat="42.72793" lon="1.76383">
        <ele>1559</ele>
        <time>2016-09-10T11:01:25Z</time>
      </trkpt>
      <trkpt lat="42.72792" lon="1.76383">
        <ele>1559</ele>
        <time>2016-09-10T11:01:26Z</time>
      </trkpt>
      <trkpt lat="42.72791" lon="1.76383">
        <ele>1559</ele>
        <time>2016-09-10T11:01:27Z</time>
      </trkpt>
      <trkpt lat="42.7279" lon="1.76383">
        <ele>1559</ele>
        <time>2016-09-10T11:01:29Z</time>
      </trkpt>
      <trkpt lat="42.72782" lon="1.76385">
        <ele>1560</ele>
        <time>2016-09-10T11:01:36Z</time>
      </trkpt>
      <trkpt lat="42.72781" lon="1.76386">
        <ele>1560</ele>
        <time>2016-09-10T11:01:37Z</time>
      </trkpt>
      <trkpt lat="42.72781" lon="1.76386">
        <ele>1561</ele>
        <time>2016-09-10T11:01:38Z</time>
      </trkpt>
      <trkpt lat="42.72779" lon="1.76387">
        <ele>1561</ele>
        <time>2016-09-10T11:01:39Z</time>
      </trkpt>
      <trkpt lat="42.72778" lon="1.76388">
        <ele>1561</ele>
        <time>2016-09-10T11:01:40Z</time>
      </trkpt>
      <trkpt lat="42.72776" lon="1.76387">
        <ele>1561</ele>
        <time>2016-09-10T11:01:41Z</time>
      </trkpt>
      <trkpt lat="42.72776" lon="1.76388">
        <ele>1561</ele>
        <time>2016-09-10T11:01:43Z</time>
      </trkpt>
      <trkpt lat="42.7277" lon="1.76387">
        <ele>1562</ele>
        <time>2016-09-10T11:01:49Z</time>
      </trkpt>
      <trkpt lat="42.72766" lon="1.76386">
        <ele>1563</ele>
        <time>2016-09-10T11:01:53Z</time>
      </trkpt>
      <trkpt lat="42.72765" lon="1.76386">
        <ele>1563</ele>
        <time>2016-09-10T11:01:54Z</time>
      </trkpt>
      <trkpt lat="42.72765" lon="1.76385">
        <ele>1562</ele>
        <time>2016-09-10T11:01:55Z</time>
      </trkpt>
      <trkpt lat="42.72763" lon="1.76384">
        <ele>1562</ele>
        <time>2016-09-10T11:01:56Z</time>
      </trkpt>
      <trkpt lat="42.72762" lon="1.76383">
        <ele>1563</ele>
        <time>2016-09-10T11:01:57Z</time>
      </trkpt>
      <trkpt lat="42.72758" lon="1.76381">
        <ele>1563</ele>
        <time>2016-09-10T11:02:01Z</time>
      </trkpt>
      <trkpt lat="42.72757" lon="1.7638">
        <ele>1563</ele>
        <time>2016-09-10T11:02:02Z</time>
      </trkpt>
      <trkpt lat="42.72753" lon="1.76373">
        <ele>1563</ele>
        <time>2016-09-10T11:02:07Z</time>
      </trkpt>
      <trkpt lat="42.72751" lon="1.76372">
        <ele>1563</ele>
        <time>2016-09-10T11:02:09Z</time>
      </trkpt>
      <trkpt lat="42.72745" lon="1.76371">
        <ele>1564</ele>
        <time>2016-09-10T11:02:14Z</time>
      </trkpt>
      <trkpt lat="42.72739" lon="1.7637">
        <ele>1565</ele>
        <time>2016-09-10T11:02:19Z</time>
      </trkpt>
      <trkpt lat="42.72738" lon="1.7637">
        <ele>1565</ele>
        <time>2016-09-10T11:02:20Z</time>
      </trkpt>
      <trkpt lat="42.72738" lon="1.7637">
        <ele>1565</ele>
        <time>2016-09-10T11:02:21Z</time>
      </trkpt>
      <trkpt lat="42.72738" lon="1.7637">
        <ele>1565</ele>
        <time>2016-09-10T11:02:22Z</time>
      </trkpt>
      <trkpt lat="42.72737" lon="1.7637">
        <ele>1565</ele>
        <time>2016-09-10T11:02:23Z</time>
      </trkpt>
      <trkpt lat="42.72732" lon="1.76373">
        <ele>1566</ele>
        <time>2016-09-10T11:02:27Z</time>
      </trkpt>
      <trkpt lat="42.7273" lon="1.76377">
        <ele>1567</ele>
        <time>2016-09-10T11:02:33Z</time>
      </trkpt>
      <trkpt lat="42.72729" lon="1.76381">
        <ele>1568</ele>
        <time>2016-09-10T11:02:34Z</time>
      </trkpt>
      <trkpt lat="42.72728" lon="1.76382">
        <ele>1568</ele>
        <time>2016-09-10T11:02:35Z</time>
      </trkpt>
      <trkpt lat="42.72728" lon="1.76383">
        <ele>1568</ele>
        <time>2016-09-10T11:02:36Z</time>
      </trkpt>
      <trkpt lat="42.72727" lon="1.76384">
        <ele>1568</ele>
        <time>2016-09-10T11:02:37Z</time>
      </trkpt>
      <trkpt lat="42.72727" lon="1.76386">
        <ele>1568</ele>
        <time>2016-09-10T11:02:40Z</time>
      </trkpt>
      <trkpt lat="42.72725" lon="1.76389">
        <ele>1569</ele>
        <time>2016-09-10T11:02:43Z</time>
      </trkpt>
      <trkpt lat="42.72724" lon="1.7639">
        <ele>1569</ele>
        <time>2016-09-10T11:02:44Z</time>
      </trkpt>
      <trkpt lat="42.72724" lon="1.76391">
        <ele>1569</ele>
        <time>2016-09-10T11:02:45Z</time>
      </trkpt>
      <trkpt lat="42.72724" lon="1.76391">
        <ele>1569</ele>
        <time>2016-09-10T11:02:46Z</time>
      </trkpt>
      <trkpt lat="42.72723" lon="1.76391">
        <ele>1570</ele>
        <time>2016-09-10T11:02:47Z</time>
      </trkpt>
      <trkpt lat="42.72723" lon="1.76392">
        <ele>1570</ele>
        <time>2016-09-10T11:02:48Z</time>
      </trkpt>
      <trkpt lat="42.72719" lon="1.76399">
        <ele>1571</ele>
        <time>2016-09-10T11:02:53Z</time>
      </trkpt>
      <trkpt lat="42.72714" lon="1.76406">
        <ele>1572</ele>
        <time>2016-09-10T11:02:59Z</time>
      </trkpt>
      <trkpt lat="42.72714" lon="1.76408">
        <ele>1572</ele>
        <time>2016-09-10T11:03:00Z</time>
      </trkpt>
      <trkpt lat="42.72714" lon="1.76409">
        <ele>1572</ele>
        <time>2016-09-10T11:03:01Z</time>
      </trkpt>
      <trkpt lat="42.72714" lon="1.76411">
        <ele>1572</ele>
        <time>2016-09-10T11:03:02Z</time>
      </trkpt>
      <trkpt lat="42.72713" lon="1.76412">
        <ele>1572</ele>
        <time>2016-09-10T11:03:03Z</time>
      </trkpt>
      <trkpt lat="42.72712" lon="1.76413">
        <ele>1572</ele>
        <time>2016-09-10T11:03:04Z</time>
      </trkpt>
      <trkpt lat="42.72711" lon="1.76414">
        <ele>1573</ele>
        <time>2016-09-10T11:03:05Z</time>
      </trkpt>
      <trkpt lat="42.72704" lon="1.76419">
        <ele>1573</ele>
        <time>2016-09-10T11:03:12Z</time>
      </trkpt>
      <trkpt lat="42.72697" lon="1.76424">
        <ele>1574</ele>
        <time>2016-09-10T11:03:19Z</time>
      </trkpt>
      <trkpt lat="42.72695" lon="1.76427">
        <ele>1574</ele>
        <time>2016-09-10T11:03:23Z</time>
      </trkpt>
      <trkpt lat="42.72694" lon="1.76428">
        <ele>1574</ele>
        <time>2016-09-10T11:03:24Z</time>
      </trkpt>
      <trkpt lat="42.72693" lon="1.76429">
        <ele>1574</ele>
        <time>2016-09-10T11:03:25Z</time>
      </trkpt>
      <trkpt lat="42.72692" lon="1.76429">
        <ele>1574</ele>
        <time>2016-09-10T11:03:26Z</time>
      </trkpt>
      <trkpt lat="42.72691" lon="1.7643">
        <ele>1574</ele>
        <time>2016-09-10T11:03:27Z</time>
      </trkpt>
      <trkpt lat="42.72687" lon="1.76433">
        <ele>1574</ele>
        <time>2016-09-10T11:03:32Z</time>
      </trkpt>
      <trkpt lat="42.72683" lon="1.76437">
        <ele>1575</ele>
        <time>2016-09-10T11:03:39Z</time>
      </trkpt>
      <trkpt lat="42.72679" lon="1.76438">
        <ele>1575</ele>
        <time>2016-09-10T11:03:46Z</time>
      </trkpt>
      <trkpt lat="42.72672" lon="1.7644">
        <ele>1575</ele>
        <time>2016-09-10T11:03:51Z</time>
      </trkpt>
      <trkpt lat="42.72669" lon="1.76441">
        <ele>1575</ele>
        <time>2016-09-10T11:03:53Z</time>
      </trkpt>
      <trkpt lat="42.72664" lon="1.76441">
        <ele>1575</ele>
        <time>2016-09-10T11:03:58Z</time>
      </trkpt>
      <trkpt lat="42.72663" lon="1.76441">
        <ele>1575</ele>
        <time>2016-09-10T11:03:59Z</time>
      </trkpt>
      <trkpt lat="42.72662" lon="1.76442">
        <ele>1575</ele>
        <time>2016-09-10T11:04:00Z</time>
      </trkpt>
      <trkpt lat="42.7266" lon="1.76442">
        <ele>1575</ele>
        <time>2016-09-10T11:04:01Z</time>
      </trkpt>
      <trkpt lat="42.72659" lon="1.76442">
        <ele>1575</ele>
        <time>2016-09-10T11:04:02Z</time>
      </trkpt>
      <trkpt lat="42.72654" lon="1.76442">
        <ele>1575</ele>
        <time>2016-09-10T11:04:06Z</time>
      </trkpt>
      <trkpt lat="42.7265" lon="1.76445">
        <ele>1575</ele>
        <time>2016-09-10T11:04:10Z</time>
      </trkpt>
      <trkpt lat="42.72648" lon="1.76446">
        <ele>1575</ele>
        <time>2016-09-10T11:04:12Z</time>
      </trkpt>
      <trkpt lat="42.72642" lon="1.76452">
        <ele>1574</ele>
        <time>2016-09-10T11:04:20Z</time>
      </trkpt>
      <trkpt lat="42.7264" lon="1.76454">
        <ele>1574</ele>
        <time>2016-09-10T11:04:22Z</time>
      </trkpt>
      <trkpt lat="42.72638" lon="1.76457">
        <ele>1574</ele>
        <time>2016-09-10T11:04:25Z</time>
      </trkpt>
      <trkpt lat="42.72638" lon="1.76459">
        <ele>1574</ele>
        <time>2016-09-10T11:04:27Z</time>
      </trkpt>
      <trkpt lat="42.72635" lon="1.76466">
        <ele>1573</ele>
        <time>2016-09-10T11:04:31Z</time>
      </trkpt>
      <trkpt lat="42.72631" lon="1.76472">
        <ele>1572</ele>
        <time>2016-09-10T11:04:37Z</time>
      </trkpt>
      <trkpt lat="42.7263" lon="1.76473">
        <ele>1572</ele>
        <time>2016-09-10T11:04:38Z</time>
      </trkpt>
      <trkpt lat="42.72624" lon="1.76476">
        <ele>1571</ele>
        <time>2016-09-10T11:04:44Z</time>
      </trkpt>
      <trkpt lat="42.72624" lon="1.76476">
        <ele>1571</ele>
        <time>2016-09-10T11:04:45Z</time>
      </trkpt>
      <trkpt lat="42.72623" lon="1.76477">
        <ele>1571</ele>
        <time>2016-09-10T11:04:46Z</time>
      </trkpt>
      <trkpt lat="42.72623" lon="1.76477">
        <ele>1571</ele>
        <time>2016-09-10T11:04:47Z</time>
      </trkpt>
      <trkpt lat="42.72623" lon="1.76477">
        <ele>1571</ele>
        <time>2016-09-10T11:04:48Z</time>
      </trkpt>
      <trkpt lat="42.72623" lon="1.76477">
        <ele>1571</ele>
        <time>2016-09-10T11:04:52Z</time>
      </trkpt>
      <trkpt lat="42.72622" lon="1.76477">
        <ele>1571</ele>
        <time>2016-09-10T11:05:00Z</time>
      </trkpt>
      <trkpt lat="42.72622" lon="1.76482">
        <ele>1571</ele>
        <time>2016-09-10T11:05:04Z</time>
      </trkpt>
      <trkpt lat="42.72623" lon="1.76484">
        <ele>1571</ele>
        <time>2016-09-10T11:05:05Z</time>
      </trkpt>
      <trkpt lat="42.72623" lon="1.76487">
        <ele>1570</ele>
        <time>2016-09-10T11:05:08Z</time>
      </trkpt>
      <trkpt lat="42.72623" lon="1.76489">
        <ele>1570</ele>
        <time>2016-09-10T11:05:09Z</time>
      </trkpt>
      <trkpt lat="42.72622" lon="1.76493">
        <ele>1570</ele>
        <time>2016-09-10T11:05:11Z</time>
      </trkpt>
      <trkpt lat="42.72622" lon="1.76495">
        <ele>1570</ele>
        <time>2016-09-10T11:05:12Z</time>
      </trkpt>
      <trkpt lat="42.72622" lon="1.76496">
        <ele>1569</ele>
        <time>2016-09-10T11:05:13Z</time>
      </trkpt>
      <trkpt lat="42.72621" lon="1.76497">
        <ele>1569</ele>
        <time>2016-09-10T11:05:14Z</time>
      </trkpt>
      <trkpt lat="42.72621" lon="1.76498">
        <ele>1569</ele>
        <time>2016-09-10T11:05:15Z</time>
      </trkpt>
      <trkpt lat="42.72621" lon="1.76501">
        <ele>1569</ele>
        <time>2016-09-10T11:05:17Z</time>
      </trkpt>
      <trkpt lat="42.72619" lon="1.76503">
        <ele>1569</ele>
        <time>2016-09-10T11:05:20Z</time>
      </trkpt>
      <trkpt lat="42.72619" lon="1.76503">
        <ele>1569</ele>
        <time>2016-09-10T11:05:23Z</time>
      </trkpt>
      <trkpt lat="42.72619" lon="1.76504">
        <ele>1568</ele>
        <time>2016-09-10T11:05:24Z</time>
      </trkpt>
      <trkpt lat="42.72618" lon="1.76506">
        <ele>1568</ele>
        <time>2016-09-10T11:05:25Z</time>
      </trkpt>
      <trkpt lat="42.72617" lon="1.76507">
        <ele>1568</ele>
        <time>2016-09-10T11:05:26Z</time>
      </trkpt>
      <trkpt lat="42.72616" lon="1.76508">
        <ele>1568</ele>
        <time>2016-09-10T11:05:27Z</time>
      </trkpt>
      <trkpt lat="42.72612" lon="1.76512">
        <ele>1567</ele>
        <time>2016-09-10T11:05:31Z</time>
      </trkpt>
      <trkpt lat="42.72609" lon="1.76514">
        <ele>1566</ele>
        <time>2016-09-10T11:05:34Z</time>
      </trkpt>
      <trkpt lat="42.72608" lon="1.76515">
        <ele>1566</ele>
        <time>2016-09-10T11:05:35Z</time>
      </trkpt>
      <trkpt lat="42.72607" lon="1.76515">
        <ele>1566</ele>
        <time>2016-09-10T11:05:36Z</time>
      </trkpt>
      <trkpt lat="42.72605" lon="1.76516">
        <ele>1566</ele>
        <time>2016-09-10T11:05:37Z</time>
      </trkpt>
      <trkpt lat="42.726" lon="1.7652">
        <ele>1564</ele>
        <time>2016-09-10T11:05:42Z</time>
      </trkpt>
      <trkpt lat="42.72599" lon="1.7652">
        <ele>1564</ele>
        <time>2016-09-10T11:05:43Z</time>
      </trkpt>
      <trkpt lat="42.72598" lon="1.7652">
        <ele>1564</ele>
        <time>2016-09-10T11:05:44Z</time>
      </trkpt>
      <trkpt lat="42.72597" lon="1.76521">
        <ele>1564</ele>
        <time>2016-09-10T11:05:45Z</time>
      </trkpt>
      <trkpt lat="42.72595" lon="1.76522">
        <ele>1563</ele>
        <time>2016-09-10T11:05:46Z</time>
      </trkpt>
      <trkpt lat="42.7259" lon="1.76524">
        <ele>1562</ele>
        <time>2016-09-10T11:05:51Z</time>
      </trkpt>
      <trkpt lat="42.72589" lon="1.76524">
        <ele>1562</ele>
        <time>2016-09-10T11:05:52Z</time>
      </trkpt>
      <trkpt lat="42.72588" lon="1.76524">
        <ele>1562</ele>
        <time>2016-09-10T11:05:53Z</time>
      </trkpt>
      <trkpt lat="42.72587" lon="1.76524">
        <ele>1562</ele>
        <time>2016-09-10T11:05:54Z</time>
      </trkpt>
      <trkpt lat="42.72585" lon="1.76525">
        <ele>1562</ele>
        <time>2016-09-10T11:05:55Z</time>
      </trkpt>
      <trkpt lat="42.72584" lon="1.76525">
        <ele>1561</ele>
        <time>2016-09-10T11:05:56Z</time>
      </trkpt>
      <trkpt lat="42.72583" lon="1.76525">
        <ele>1561</ele>
        <time>2016-09-10T11:05:58Z</time>
      </trkpt>
      <trkpt lat="42.72582" lon="1.76524">
        <ele>1561</ele>
        <time>2016-09-10T11:06:00Z</time>
      </trkpt>
      <trkpt lat="42.72581" lon="1.76524">
        <ele>1561</ele>
        <time>2016-09-10T11:06:02Z</time>
      </trkpt>
      <trkpt lat="42.72575" lon="1.76523">
        <ele>1560</ele>
        <time>2016-09-10T11:06:08Z</time>
      </trkpt>
      <trkpt lat="42.72572" lon="1.76525">
        <ele>1560</ele>
        <time>2016-09-10T11:06:11Z</time>
      </trkpt>
      <trkpt lat="42.72571" lon="1.76526">
        <ele>1559</ele>
        <time>2016-09-10T11:06:12Z</time>
      </trkpt>
      <trkpt lat="42.7257" lon="1.76526">
        <ele>1559</ele>
        <time>2016-09-10T11:06:13Z</time>
      </trkpt>
      <trkpt lat="42.72569" lon="1.76527">
        <ele>1559</ele>
        <time>2016-09-10T11:06:14Z</time>
      </trkpt>
      <trkpt lat="42.72568" lon="1.76528">
        <ele>1559</ele>
        <time>2016-09-10T11:06:15Z</time>
      </trkpt>
      <trkpt lat="42.72568" lon="1.76528">
        <ele>1559</ele>
        <time>2016-09-10T11:06:21Z</time>
      </trkpt>
      <trkpt lat="42.72568" lon="1.76528">
        <ele>1559</ele>
        <time>2016-09-10T11:06:38Z</time>
      </trkpt>
      <trkpt lat="42.72567" lon="1.76528">
        <ele>1559</ele>
        <time>2016-09-10T11:06:43Z</time>
      </trkpt>
      <trkpt lat="42.72564" lon="1.76528">
        <ele>1558</ele>
        <time>2016-09-10T11:06:45Z</time>
      </trkpt>
      <trkpt lat="42.72557" lon="1.7653">
        <ele>1557</ele>
        <time>2016-09-10T11:06:50Z</time>
      </trkpt>
      <trkpt lat="42.72554" lon="1.76531">
        <ele>1556</ele>
        <time>2016-09-10T11:06:52Z</time>
      </trkpt>
      <trkpt lat="42.7255" lon="1.76529">
        <ele>1556</ele>
        <time>2016-09-10T11:06:57Z</time>
      </trkpt>
      <trkpt lat="42.7255" lon="1.76529">
        <ele>1556</ele>
        <time>2016-09-10T11:07:07Z</time>
      </trkpt>
      <trkpt lat="42.7255" lon="1.76529">
        <ele>1556</ele>
        <time>2016-09-10T11:07:23Z</time>
      </trkpt>
      <trkpt lat="42.72547" lon="1.7653">
        <ele>1556</ele>
        <time>2016-09-10T11:07:30Z</time>
      </trkpt>
      <trkpt lat="42.72546" lon="1.7653">
        <ele>1555</ele>
        <time>2016-09-10T11:07:31Z</time>
      </trkpt>
      <trkpt lat="42.72545" lon="1.7653">
        <ele>1555</ele>
        <time>2016-09-10T11:07:32Z</time>
      </trkpt>
      <trkpt lat="42.72544" lon="1.7653">
        <ele>1555</ele>
        <time>2016-09-10T11:07:33Z</time>
      </trkpt>
      <trkpt lat="42.72543" lon="1.76531">
        <ele>1555</ele>
        <time>2016-09-10T11:07:34Z</time>
      </trkpt>
      <trkpt lat="42.7254" lon="1.76531">
        <ele>1554</ele>
        <time>2016-09-10T11:07:36Z</time>
      </trkpt>
      <trkpt lat="42.72532" lon="1.76532">
        <ele>1553</ele>
        <time>2016-09-10T11:07:43Z</time>
      </trkpt>
      <trkpt lat="42.72527" lon="1.7653">
        <ele>1553</ele>
        <time>2016-09-10T11:07:48Z</time>
      </trkpt>
      <trkpt lat="42.72526" lon="1.7653">
        <ele>1552</ele>
        <time>2016-09-10T11:07:49Z</time>
      </trkpt>
      <trkpt lat="42.72525" lon="1.7653">
        <ele>1552</ele>
        <time>2016-09-10T11:07:50Z</time>
      </trkpt>
      <trkpt lat="42.72524" lon="1.7653">
        <ele>1552</ele>
        <time>2016-09-10T11:07:51Z</time>
      </trkpt>
      <trkpt lat="42.72522" lon="1.76529">
        <ele>1552</ele>
        <time>2016-09-10T11:07:52Z</time>
      </trkpt>
      <trkpt lat="42.72517" lon="1.76528">
        <ele>1551</ele>
        <time>2016-09-10T11:07:56Z</time>
      </trkpt>
      <trkpt lat="42.72513" lon="1.76529">
        <ele>1550</ele>
        <time>2016-09-10T11:08:01Z</time>
      </trkpt>
      <trkpt lat="42.72512" lon="1.7653">
        <ele>1550</ele>
        <time>2016-09-10T11:08:04Z</time>
      </trkpt>
      <trkpt lat="42.72511" lon="1.76531">
        <ele>1550</ele>
        <time>2016-09-10T11:08:05Z</time>
      </trkpt>
      <trkpt lat="42.7251" lon="1.76531">
        <ele>1550</ele>
        <time>2016-09-10T11:08:06Z</time>
      </trkpt>
      <trkpt lat="42.72509" lon="1.76532">
        <ele>1549</ele>
        <time>2016-09-10T11:08:07Z</time>
      </trkpt>
      <trkpt lat="42.72507" lon="1.76533">
        <ele>1549</ele>
        <time>2016-09-10T11:08:09Z</time>
      </trkpt>
      <trkpt lat="42.72506" lon="1.76534">
        <ele>1548</ele>
        <time>2016-09-10T11:08:10Z</time>
      </trkpt>
      <trkpt lat="42.72504" lon="1.76534">
        <ele>1548</ele>
        <time>2016-09-10T11:08:11Z</time>
      </trkpt>
      <trkpt lat="42.72503" lon="1.76535">
        <ele>1548</ele>
        <time>2016-09-10T11:08:12Z</time>
      </trkpt>
      <trkpt lat="42.72502" lon="1.76536">
        <ele>1547</ele>
        <time>2016-09-10T11:08:13Z</time>
      </trkpt>
      <trkpt lat="42.72502" lon="1.76537">
        <ele>1547</ele>
        <time>2016-09-10T11:08:14Z</time>
      </trkpt>
      <trkpt lat="42.72498" lon="1.76542">
        <ele>1546</ele>
        <time>2016-09-10T11:08:21Z</time>
      </trkpt>
      <trkpt lat="42.72495" lon="1.76547">
        <ele>1545</ele>
        <time>2016-09-10T11:08:25Z</time>
      </trkpt>
      <trkpt lat="42.72495" lon="1.76548">
        <ele>1545</ele>
        <time>2016-09-10T11:08:26Z</time>
      </trkpt>
      <trkpt lat="42.72494" lon="1.7655">
        <ele>1544</ele>
        <time>2016-09-10T11:08:27Z</time>
      </trkpt>
      <trkpt lat="42.72494" lon="1.76552">
        <ele>1544</ele>
        <time>2016-09-10T11:08:28Z</time>
      </trkpt>
      <trkpt lat="42.72493" lon="1.76553">
        <ele>1544</ele>
        <time>2016-09-10T11:08:29Z</time>
      </trkpt>
      <trkpt lat="42.72491" lon="1.76558">
        <ele>1543</ele>
        <time>2016-09-10T11:08:32Z</time>
      </trkpt>
      <trkpt lat="42.7249" lon="1.7656">
        <ele>1543</ele>
        <time>2016-09-10T11:08:33Z</time>
      </trkpt>
      <trkpt lat="42.7249" lon="1.76561">
        <ele>1542</ele>
        <time>2016-09-10T11:08:34Z</time>
      </trkpt>
      <trkpt lat="42.7249" lon="1.76563">
        <ele>1542</ele>
        <time>2016-09-10T11:08:35Z</time>
      </trkpt>
      <trkpt lat="42.72489" lon="1.76565">
        <ele>1542</ele>
        <time>2016-09-10T11:08:36Z</time>
      </trkpt>
      <trkpt lat="42.72489" lon="1.76566">
        <ele>1542</ele>
        <time>2016-09-10T11:08:37Z</time>
      </trkpt>
      <trkpt lat="42.72488" lon="1.76566">
        <ele>1541</ele>
        <time>2016-09-10T11:08:38Z</time>
      </trkpt>
      <trkpt lat="42.72483" lon="1.7657">
        <ele>1540</ele>
        <time>2016-09-10T11:08:43Z</time>
      </trkpt>
      <trkpt lat="42.72483" lon="1.76571">
        <ele>1540</ele>
        <time>2016-09-10T11:08:44Z</time>
      </trkpt>
      <trkpt lat="42.72483" lon="1.76572">
        <ele>1540</ele>
        <time>2016-09-10T11:08:45Z</time>
      </trkpt>
      <trkpt lat="42.72483" lon="1.76573">
        <ele>1540</ele>
        <time>2016-09-10T11:08:46Z</time>
      </trkpt>
      <trkpt lat="42.72482" lon="1.76573">
        <ele>1540</ele>
        <time>2016-09-10T11:08:47Z</time>
      </trkpt>
      <trkpt lat="42.72481" lon="1.76574">
        <ele>1540</ele>
        <time>2016-09-10T11:08:48Z</time>
      </trkpt>
      <trkpt lat="42.72479" lon="1.76577">
        <ele>1539</ele>
        <time>2016-09-10T11:08:50Z</time>
      </trkpt>
      <trkpt lat="42.72476" lon="1.7658">
        <ele>1538</ele>
        <time>2016-09-10T11:08:53Z</time>
      </trkpt>
      <trkpt lat="42.72475" lon="1.76581">
        <ele>1538</ele>
        <time>2016-09-10T11:08:54Z</time>
      </trkpt>
      <trkpt lat="42.72474" lon="1.76583">
        <ele>1538</ele>
        <time>2016-09-10T11:08:55Z</time>
      </trkpt>
      <trkpt lat="42.72473" lon="1.76584">
        <ele>1538</ele>
        <time>2016-09-10T11:08:56Z</time>
      </trkpt>
      <trkpt lat="42.72472" lon="1.76585">
        <ele>1537</ele>
        <time>2016-09-10T11:08:57Z</time>
      </trkpt>
      <trkpt lat="42.72471" lon="1.76589">
        <ele>1537</ele>
        <time>2016-09-10T11:09:00Z</time>
      </trkpt>
      <trkpt lat="42.72471" lon="1.76589">
        <ele>1537</ele>
        <time>2016-09-10T11:09:01Z</time>
      </trkpt>
      <trkpt lat="42.7247" lon="1.76591">
        <ele>1537</ele>
        <time>2016-09-10T11:09:02Z</time>
      </trkpt>
      <trkpt lat="42.72469" lon="1.76592">
        <ele>1537</ele>
        <time>2016-09-10T11:09:03Z</time>
      </trkpt>
      <trkpt lat="42.72468" lon="1.76593">
        <ele>1536</ele>
        <time>2016-09-10T11:09:04Z</time>
      </trkpt>
      <trkpt lat="42.72468" lon="1.76595">
        <ele>1536</ele>
        <time>2016-09-10T11:09:05Z</time>
      </trkpt>
      <trkpt lat="42.72466" lon="1.76601">
        <ele>1536</ele>
        <time>2016-09-10T11:09:11Z</time>
      </trkpt>
      <trkpt lat="42.72467" lon="1.76603">
        <ele>1536</ele>
        <time>2016-09-10T11:09:13Z</time>
      </trkpt>
      <trkpt lat="42.72468" lon="1.76606">
        <ele>1536</ele>
        <time>2016-09-10T11:09:14Z</time>
      </trkpt>
      <trkpt lat="42.72468" lon="1.76608">
        <ele>1536</ele>
        <time>2016-09-10T11:09:15Z</time>
      </trkpt>
      <trkpt lat="42.72468" lon="1.7661">
        <ele>1536</ele>
        <time>2016-09-10T11:09:16Z</time>
      </trkpt>
      <trkpt lat="42.72469" lon="1.76612">
        <ele>1536</ele>
        <time>2016-09-10T11:09:17Z</time>
      </trkpt>
      <trkpt lat="42.72469" lon="1.76624">
        <ele>1535</ele>
        <time>2016-09-10T11:09:23Z</time>
      </trkpt>
      <trkpt lat="42.72469" lon="1.76625">
        <ele>1535</ele>
        <time>2016-09-10T11:09:24Z</time>
      </trkpt>
      <trkpt lat="42.72469" lon="1.76627">
        <ele>1535</ele>
        <time>2016-09-10T11:09:25Z</time>
      </trkpt>
      <trkpt lat="42.72469" lon="1.76629">
        <ele>1535</ele>
        <time>2016-09-10T11:09:26Z</time>
      </trkpt>
      <trkpt lat="42.7247" lon="1.76631">
        <ele>1535</ele>
        <time>2016-09-10T11:09:27Z</time>
      </trkpt>
      <trkpt lat="42.72471" lon="1.76633">
        <ele>1535</ele>
        <time>2016-09-10T11:09:28Z</time>
      </trkpt>
      <trkpt lat="42.7247" lon="1.76637">
        <ele>1534</ele>
        <time>2016-09-10T11:09:31Z</time>
      </trkpt>
      <trkpt lat="42.7247" lon="1.76641">
        <ele>1534</ele>
        <time>2016-09-10T11:09:34Z</time>
      </trkpt>
      <trkpt lat="42.7247" lon="1.76644">
        <ele>1534</ele>
        <time>2016-09-10T11:09:35Z</time>
      </trkpt>
      <trkpt lat="42.72469" lon="1.76651">
        <ele>1534</ele>
        <time>2016-09-10T11:09:39Z</time>
      </trkpt>
      <trkpt lat="42.72469" lon="1.76659">
        <ele>1533</ele>
        <time>2016-09-10T11:09:44Z</time>
      </trkpt>
      <trkpt lat="42.72468" lon="1.76669">
        <ele>1531</ele>
        <time>2016-09-10T11:09:50Z</time>
      </trkpt>
      <trkpt lat="42.72469" lon="1.7667">
        <ele>1531</ele>
        <time>2016-09-10T11:09:51Z</time>
      </trkpt>
      <trkpt lat="42.72471" lon="1.76672">
        <ele>1531</ele>
        <time>2016-09-10T11:09:55Z</time>
      </trkpt>
      <trkpt lat="42.72474" lon="1.76675">
        <ele>1531</ele>
        <time>2016-09-10T11:10:01Z</time>
      </trkpt>
      <trkpt lat="42.72475" lon="1.76678">
        <ele>1531</ele>
        <time>2016-09-10T11:10:07Z</time>
      </trkpt>
      <trkpt lat="42.72476" lon="1.76678">
        <ele>1531</ele>
        <time>2016-09-10T11:10:08Z</time>
      </trkpt>
      <trkpt lat="42.72476" lon="1.76679">
        <ele>1531</ele>
        <time>2016-09-10T11:10:09Z</time>
      </trkpt>
      <trkpt lat="42.72477" lon="1.76681">
        <ele>1531</ele>
        <time>2016-09-10T11:10:10Z</time>
      </trkpt>
      <trkpt lat="42.72477" lon="1.76682">
        <ele>1531</ele>
        <time>2016-09-10T11:10:11Z</time>
      </trkpt>
      <trkpt lat="42.72478" lon="1.76683">
        <ele>1530</ele>
        <time>2016-09-10T11:10:12Z</time>
      </trkpt>
      <trkpt lat="42.72478" lon="1.76684">
        <ele>1530</ele>
        <time>2016-09-10T11:10:13Z</time>
      </trkpt>
      <trkpt lat="42.7248" lon="1.76688">
        <ele>1530</ele>
        <time>2016-09-10T11:10:18Z</time>
      </trkpt>
      <trkpt lat="42.72478" lon="1.7669">
        <ele>1530</ele>
        <time>2016-09-10T11:10:25Z</time>
      </trkpt>
      <trkpt lat="42.72475" lon="1.76692">
        <ele>1529</ele>
        <time>2016-09-10T11:10:30Z</time>
      </trkpt>
      <trkpt lat="42.72474" lon="1.7669">
        <ele>1529</ele>
        <time>2016-09-10T11:10:37Z</time>
      </trkpt>
      <trkpt lat="42.72473" lon="1.76689">
        <ele>1529</ele>
        <time>2016-09-10T11:10:45Z</time>
      </trkpt>
      <trkpt lat="42.72473" lon="1.76689">
        <ele>1529</ele>
        <time>2016-09-10T11:10:54Z</time>
      </trkpt>
      <trkpt lat="42.72473" lon="1.76689">
        <ele>1529</ele>
        <time>2016-09-10T11:11:05Z</time>
      </trkpt>
      <trkpt lat="42.72477" lon="1.76685">
        <ele>1530</ele>
        <time>2016-09-10T11:11:14Z</time>
      </trkpt>
      <trkpt lat="42.72478" lon="1.76684">
        <ele>1530</ele>
        <time>2016-09-10T11:11:15Z</time>
      </trkpt>
      <trkpt lat="42.72479" lon="1.76682">
        <ele>1531</ele>
        <time>2016-09-10T11:11:16Z</time>
      </trkpt>
      <trkpt lat="42.7248" lon="1.76682">
        <ele>1531</ele>
        <time>2016-09-10T11:11:17Z</time>
      </trkpt>
      <trkpt lat="42.72481" lon="1.76681">
        <ele>1531</ele>
        <time>2016-09-10T11:11:18Z</time>
      </trkpt>
      <trkpt lat="42.72482" lon="1.7668">
        <ele>1531</ele>
        <time>2016-09-10T11:11:19Z</time>
      </trkpt>
      <trkpt lat="42.72484" lon="1.76679">
        <ele>1532</ele>
        <time>2016-09-10T11:11:20Z</time>
      </trkpt>
      <trkpt lat="42.72485" lon="1.76679">
        <ele>1532</ele>
        <time>2016-09-10T11:11:21Z</time>
      </trkpt>
      <trkpt lat="42.72486" lon="1.76678">
        <ele>1532</ele>
        <time>2016-09-10T11:11:22Z</time>
      </trkpt>
      <trkpt lat="42.72487" lon="1.76678">
        <ele>1532</ele>
        <time>2016-09-10T11:11:23Z</time>
      </trkpt>
      <trkpt lat="42.72487" lon="1.76677">
        <ele>1532</ele>
        <time>2016-09-10T11:11:24Z</time>
      </trkpt>
      <trkpt lat="42.72488" lon="1.76676">
        <ele>1532</ele>
        <time>2016-09-10T11:11:25Z</time>
      </trkpt>
      <trkpt lat="42.72489" lon="1.76675">
        <ele>1533</ele>
        <time>2016-09-10T11:11:32Z</time>
      </trkpt>
      <trkpt lat="42.72483" lon="1.76684">
        <ele>1531</ele>
        <time>2016-09-10T11:11:44Z</time>
      </trkpt>
      <trkpt lat="42.72473" lon="1.76677">
        <ele>1531</ele>
        <time>2016-09-10T11:11:52Z</time>
      </trkpt>
      <trkpt lat="42.72471" lon="1.76676">
        <ele>1531</ele>
        <time>2016-09-10T11:12:03Z</time>
      </trkpt>
      <trkpt lat="42.72472" lon="1.76678">
        <ele>1531</ele>
        <time>2016-09-10T11:12:14Z</time>
      </trkpt>
      <trkpt lat="42.72474" lon="1.76692">
        <ele>1529</ele>
        <time>2016-09-10T11:12:20Z</time>
      </trkpt>
      <trkpt lat="42.72476" lon="1.76691">
        <ele>1529</ele>
        <time>2016-09-10T11:12:26Z</time>
      </trkpt>
      <trkpt lat="42.72476" lon="1.76691">
        <ele>1529</ele>
        <time>2016-09-10T11:12:35Z</time>
      </trkpt>
      <trkpt lat="42.72476" lon="1.76691">
        <ele>1529</ele>
        <time>2016-09-10T11:12:48Z</time>
      </trkpt>
      <trkpt lat="42.72475" lon="1.76692">
        <ele>1529</ele>
        <time>2016-09-10T11:12:53Z</time>
      </trkpt>
      <trkpt lat="42.72473" lon="1.76692">
        <ele>1529</ele>
        <time>2016-09-10T11:13:00Z</time>
      </trkpt>
      <trkpt lat="42.72472" lon="1.76691">
        <ele>1529</ele>
        <time>2016-09-10T11:13:12Z</time>
      </trkpt>
      <trkpt lat="42.72471" lon="1.76689">
        <ele>1529</ele>
        <time>2016-09-10T11:13:14Z</time>
      </trkpt>
      <trkpt lat="42.72472" lon="1.76688">
        <ele>1529</ele>
        <time>2016-09-10T11:13:19Z</time>
      </trkpt>
      <trkpt lat="42.72472" lon="1.76688">
        <ele>1529</ele>
        <time>2016-09-10T11:13:31Z</time>
      </trkpt>
      <trkpt lat="42.72472" lon="1.76687">
        <ele>1529</ele>
        <time>2016-09-10T11:13:42Z</time>
      </trkpt>
      <trkpt lat="42.72472" lon="1.76687">
        <ele>1529</ele>
        <time>2016-09-10T11:13:52Z</time>
      </trkpt>
      <trkpt lat="42.72472" lon="1.76686">
        <ele>1529</ele>
        <time>2016-09-10T11:14:00Z</time>
      </trkpt>
      <trkpt lat="42.72473" lon="1.76687">
        <ele>1529</ele>
        <time>2016-09-10T11:14:13Z</time>
      </trkpt>
      <trkpt lat="42.72473" lon="1.76688">
        <ele>1529</ele>
        <time>2016-09-10T11:14:23Z</time>
      </trkpt>
      <trkpt lat="42.72474" lon="1.76688">
        <ele>1529</ele>
        <time>2016-09-10T11:14:33Z</time>
      </trkpt>
      <trkpt lat="42.72474" lon="1.76688">
        <ele>1529</ele>
        <time>2016-09-10T11:14:42Z</time>
      </trkpt>
      <trkpt lat="42.72473" lon="1.76687">
        <ele>1529</ele>
        <time>2016-09-10T11:14:50Z</time>
      </trkpt>
      <trkpt lat="42.72473" lon="1.76686">
        <ele>1530</ele>
        <time>2016-09-10T11:14:55Z</time>
      </trkpt>
      <trkpt lat="42.72473" lon="1.76686">
        <ele>1530</ele>
        <time>2016-09-10T11:14:56Z</time>
      </trkpt>
      <trkpt lat="42.72473" lon="1.76686">
        <ele>1530</ele>
        <time>2016-09-10T11:14:57Z</time>
      </trkpt>
      <trkpt lat="42.72473" lon="1.76686">
        <ele>1530</ele>
        <time>2016-09-10T11:14:58Z</time>
      </trkpt>
      <trkpt lat="42.72473" lon="1.76686">
        <ele>1530</ele>
        <time>2016-09-10T11:14:59Z</time>
      </trkpt>
      <trkpt lat="42.72473" lon="1.76686">
        <ele>1530</ele>
        <time>2016-09-10T11:15:00Z</time>
      </trkpt>
      <trkpt lat="42.72473" lon="1.76686">
        <ele>1530</ele>
        <time>2016-09-10T11:15:01Z</time>
      </trkpt>
      <trkpt lat="42.72473" lon="1.76686">
        <ele>1530</ele>
        <time>2016-09-10T11:15:02Z</time>
      </trkpt>
      <trkpt lat="42.72473" lon="1.76686">
        <ele>1530</ele>
        <time>2016-09-10T11:15:07Z</time>
      </trkpt>
      <trkpt lat="42.72473" lon="1.76686">
        <ele>1530</ele>
        <time>2016-09-10T11:15:21Z</time>
      </trkpt>
      <trkpt lat="42.72472" lon="1.76686">
        <ele>1529</ele>
        <time>2016-09-10T11:15:29Z</time>
      </trkpt>
      <trkpt lat="42.72472" lon="1.76686">
        <ele>1529</ele>
        <time>2016-09-10T11:15:42Z</time>
      </trkpt>
      <trkpt lat="42.72472" lon="1.76686">
        <ele>1529</ele>
        <time>2016-09-10T11:15:53Z</time>
      </trkpt>
      <trkpt lat="42.72472" lon="1.76686">
        <ele>1529</ele>
        <time>2016-09-10T11:15:54Z</time>
      </trkpt>
      <trkpt lat="42.72472" lon="1.76686">
        <ele>1529</ele>
        <time>2016-09-10T11:15:55Z</time>
      </trkpt>
      <trkpt lat="42.72472" lon="1.76686">
        <ele>1529</ele>
        <time>2016-09-10T11:15:56Z</time>
      </trkpt>
      <trkpt lat="42.72472" lon="1.76686">
        <ele>1529</ele>
        <time>2016-09-10T11:15:57Z</time>
      </trkpt>
      <trkpt lat="42.72472" lon="1.76686">
        <ele>1529</ele>
        <time>2016-09-10T11:15:58Z</time>
      </trkpt>
      <trkpt lat="42.72472" lon="1.76686">
        <ele>1529</ele>
        <time>2016-09-10T11:15:59Z</time>
      </trkpt>
      <trkpt lat="42.72472" lon="1.76686">
        <ele>1529</ele>
        <time>2016-09-10T11:16:00Z</time>
      </trkpt>
      <trkpt lat="42.72472" lon="1.76686">
        <ele>1529</ele>
        <time>2016-09-10T11:16:01Z</time>
      </trkpt>
      <trkpt lat="42.72472" lon="1.76687">
        <ele>1529</ele>
        <time>2016-09-10T11:16:07Z</time>
      </trkpt>
      <trkpt lat="42.72473" lon="1.7669">
        <ele>1529</ele>
        <time>2016-09-10T11:16:16Z</time>
      </trkpt>
      <trkpt lat="42.72473" lon="1.7669">
        <ele>1529</ele>
        <time>2016-09-10T11:16:19Z</time>
      </trkpt>
      <trkpt lat="42.72473" lon="1.7669">
        <ele>1529</ele>
        <time>2016-09-10T11:16:31Z</time>
      </trkpt>
      <trkpt lat="42.72469" lon="1.76685">
        <ele>1529</ele>
        <time>2016-09-10T11:16:44Z</time>
      </trkpt>
      <trkpt lat="42.72469" lon="1.76684">
        <ele>1529</ele>
        <time>2016-09-10T11:16:59Z</time>
      </trkpt>
      <trkpt lat="42.72469" lon="1.76684">
        <ele>1529</ele>
        <time>2016-09-10T11:17:10Z</time>
      </trkpt>
      <trkpt lat="42.72469" lon="1.76684">
        <ele>1529</ele>
        <time>2016-09-10T11:17:24Z</time>
      </trkpt>
      <trkpt lat="42.72469" lon="1.76684">
        <ele>1529</ele>
        <time>2016-09-10T11:17:36Z</time>
      </trkpt>
      <trkpt lat="42.72469" lon="1.76684">
        <ele>1529</ele>
        <time>2016-09-10T11:17:44Z</time>
      </trkpt>
      <trkpt lat="42.72469" lon="1.76684">
        <ele>1529</ele>
        <time>2016-09-10T11:17:48Z</time>
      </trkpt>
      <trkpt lat="42.72469" lon="1.76685">
        <ele>1529</ele>
        <time>2016-09-10T11:18:02Z</time>
      </trkpt>
      <trkpt lat="42.72469" lon="1.76685">
        <ele>1529</ele>
        <time>2016-09-10T11:18:15Z</time>
      </trkpt>
      <trkpt lat="42.7247" lon="1.76685">
        <ele>1529</ele>
        <time>2016-09-10T11:18:25Z</time>
      </trkpt>
      <trkpt lat="42.7247" lon="1.76684">
        <ele>1529</ele>
        <time>2016-09-10T11:18:35Z</time>
      </trkpt>
      <trkpt lat="42.7247" lon="1.76685">
        <ele>1529</ele>
        <time>2016-09-10T11:18:43Z</time>
      </trkpt>
      <trkpt lat="42.7247" lon="1.76685">
        <ele>1529</ele>
        <time>2016-09-10T11:18:56Z</time>
      </trkpt>
      <trkpt lat="42.7247" lon="1.76685">
        <ele>1529</ele>
        <time>2016-09-10T11:19:08Z</time>
      </trkpt>
      <trkpt lat="42.7247" lon="1.76685">
        <ele>1529</ele>
        <time>2016-09-10T11:19:17Z</time>
      </trkpt>
      <trkpt lat="42.72469" lon="1.76686">
        <ele>1529</ele>
        <time>2016-09-10T11:19:25Z</time>
      </trkpt>
      <trkpt lat="42.72468" lon="1.76686">
        <ele>1529</ele>
        <time>2016-09-10T11:19:33Z</time>
      </trkpt>
      <trkpt lat="42.72469" lon="1.76686">
        <ele>1529</ele>
        <time>2016-09-10T11:19:41Z</time>
      </trkpt>
      <trkpt lat="42.7247" lon="1.76686">
        <ele>1529</ele>
        <time>2016-09-10T11:19:47Z</time>
      </trkpt>
      <trkpt lat="42.7247" lon="1.76686">
        <ele>1529</ele>
        <time>2016-09-10T11:19:48Z</time>
      </trkpt>
      <trkpt lat="42.7247" lon="1.76686">
        <ele>1529</ele>
        <time>2016-09-10T11:19:49Z</time>
      </trkpt>
      <trkpt lat="42.7247" lon="1.76686">
        <ele>1529</ele>
        <time>2016-09-10T11:19:50Z</time>
      </trkpt>
      <trkpt lat="42.7247" lon="1.76686">
        <ele>1529</ele>
        <time>2016-09-10T11:19:51Z</time>
      </trkpt>
      <trkpt lat="42.7247" lon="1.76686">
        <ele>1529</ele>
        <time>2016-09-10T11:19:52Z</time>
      </trkpt>
      <trkpt lat="42.7247" lon="1.76686">
        <ele>1529</ele>
        <time>2016-09-10T11:20:09Z</time>
      </trkpt>
      <trkpt lat="42.7247" lon="1.76686">
        <ele>1529</ele>
        <time>2016-09-10T11:20:20Z</time>
      </trkpt>
      <trkpt lat="42.7247" lon="1.76686">
        <ele>1529</ele>
        <time>2016-09-10T11:20:23Z</time>
      </trkpt>
      <trkpt lat="42.7247" lon="1.76686">
        <ele>1529</ele>
        <time>2016-09-10T11:20:24Z</time>
      </trkpt>
      <trkpt lat="42.7247" lon="1.76686">
        <ele>1529</ele>
        <time>2016-09-10T11:20:25Z</time>
      </trkpt>
      <trkpt lat="42.7247" lon="1.76686">
        <ele>1529</ele>
        <time>2016-09-10T11:20:26Z</time>
      </trkpt>
      <trkpt lat="42.7247" lon="1.76686">
        <ele>1529</ele>
        <time>2016-09-10T11:20:27Z</time>
      </trkpt>
      <trkpt lat="42.7247" lon="1.76686">
        <ele>1529</ele>
        <time>2016-09-10T11:20:29Z</time>
      </trkpt>
      <trkpt lat="42.7247" lon="1.76686">
        <ele>1529</ele>
        <time>2016-09-10T11:20:46Z</time>
      </trkpt>
      <trkpt lat="42.7247" lon="1.76686">
        <ele>1529</ele>
        <time>2016-09-10T11:21:02Z</time>
      </trkpt>
      <trkpt lat="42.7247" lon="1.76686">
        <ele>1529</ele>
        <time>2016-09-10T11:21:05Z</time>
      </trkpt>
      <trkpt lat="42.7247" lon="1.76685">
        <ele>1529</ele>
        <time>2016-09-10T11:21:09Z</time>
      </trkpt>
      <trkpt lat="42.7247" lon="1.76685">
        <ele>1529</ele>
        <time>2016-09-10T11:21:25Z</time>
      </trkpt>
      <trkpt lat="42.7247" lon="1.76685">
        <ele>1529</ele>
        <time>2016-09-10T11:21:39Z</time>
      </trkpt>
      <trkpt lat="42.72469" lon="1.76685">
        <ele>1529</ele>
        <time>2016-09-10T11:21:50Z</time>
      </trkpt>
      <trkpt lat="42.7247" lon="1.76685">
        <ele>1529</ele>
        <time>2016-09-10T11:21:59Z</time>
      </trkpt>
      <trkpt lat="42.7247" lon="1.76685">
        <ele>1529</ele>
        <time>2016-09-10T11:22:16Z</time>
      </trkpt>
      <trkpt lat="42.7247" lon="1.76685">
        <ele>1529</ele>
        <time>2016-09-10T11:22:28Z</time>
      </trkpt>
      <trkpt lat="42.72469" lon="1.76685">
        <ele>1529</ele>
        <time>2016-09-10T11:22:35Z</time>
      </trkpt>
      <trkpt lat="42.72469" lon="1.76685">
        <ele>1529</ele>
        <time>2016-09-10T11:22:47Z</time>
      </trkpt>
      <trkpt lat="42.72469" lon="1.76685">
        <ele>1529</ele>
        <time>2016-09-10T11:22:56Z</time>
      </trkpt>
      <trkpt lat="42.72466" lon="1.76688">
        <ele>1528</ele>
        <time>2016-09-10T11:23:02Z</time>
      </trkpt>
      <trkpt lat="42.72464" lon="1.76689">
        <ele>1528</ele>
        <time>2016-09-10T11:23:08Z</time>
      </trkpt>
      <trkpt lat="42.72464" lon="1.76689">
        <ele>1528</ele>
        <time>2016-09-10T11:23:18Z</time>
      </trkpt>
      <trkpt lat="42.72464" lon="1.76689">
        <ele>1528</ele>
        <time>2016-09-10T11:23:27Z</time>
      </trkpt>
      <trkpt lat="42.72464" lon="1.76689">
        <ele>1528</ele>
        <time>2016-09-10T11:23:41Z</time>
      </trkpt>
      <trkpt lat="42.72464" lon="1.76689">
        <ele>1528</ele>
        <time>2016-09-10T11:23:43Z</time>
      </trkpt>
      <trkpt lat="42.72464" lon="1.76689">
        <ele>1528</ele>
        <time>2016-09-10T11:23:57Z</time>
      </trkpt>
      <trkpt lat="42.72464" lon="1.76689">
        <ele>1528</ele>
        <time>2016-09-10T11:24:12Z</time>
      </trkpt>
      <trkpt lat="42.72464" lon="1.76689">
        <ele>1528</ele>
        <time>2016-09-10T11:24:18Z</time>
      </trkpt>
      <trkpt lat="42.72446" lon="1.76669">
        <ele>1529</ele>
        <time>2016-09-10T11:48:04Z</time>
      </trkpt>
      <trkpt lat="42.72446" lon="1.76668">
        <ele>1529</ele>
        <time>2016-09-10T11:48:05Z</time>
      </trkpt>
      <trkpt lat="42.72445" lon="1.76667">
        <ele>1529</ele>
        <time>2016-09-10T11:48:06Z</time>
      </trkpt>
      <trkpt lat="42.72446" lon="1.76667">
        <ele>1530</ele>
        <time>2016-09-10T11:48:07Z</time>
      </trkpt>
      <trkpt lat="42.72445" lon="1.76666">
        <ele>1530</ele>
        <time>2016-09-10T11:48:08Z</time>
      </trkpt>
      <trkpt lat="42.72445" lon="1.76666">
        <ele>1530</ele>
        <time>2016-09-10T11:48:09Z</time>
      </trkpt>
      <trkpt lat="42.72445" lon="1.76665">
        <ele>1530</ele>
        <time>2016-09-10T11:48:10Z</time>
      </trkpt>
      <trkpt lat="42.72445" lon="1.76664">
        <ele>1530</ele>
        <time>2016-09-10T11:48:11Z</time>
      </trkpt>
      <trkpt lat="42.72444" lon="1.76664">
        <ele>1530</ele>
        <time>2016-09-10T11:48:12Z</time>
      </trkpt>
      <trkpt lat="42.72444" lon="1.76663">
        <ele>1530</ele>
        <time>2016-09-10T11:48:13Z</time>
      </trkpt>
      <trkpt lat="42.72444" lon="1.76662">
        <ele>1530</ele>
        <time>2016-09-10T11:48:14Z</time>
      </trkpt>
      <trkpt lat="42.72443" lon="1.76661">
        <ele>1530</ele>
        <time>2016-09-10T11:48:15Z</time>
      </trkpt>
      <trkpt lat="42.72443" lon="1.7666">
        <ele>1530</ele>
        <time>2016-09-10T11:48:16Z</time>
      </trkpt>
      <trkpt lat="42.72442" lon="1.76659">
        <ele>1531</ele>
        <time>2016-09-10T11:48:17Z</time>
      </trkpt>
      <trkpt lat="42.72442" lon="1.76658">
        <ele>1531</ele>
        <time>2016-09-10T11:48:18Z</time>
      </trkpt>
      <trkpt lat="42.72441" lon="1.76656">
        <ele>1531</ele>
        <time>2016-09-10T11:48:19Z</time>
      </trkpt>
      <trkpt lat="42.7244" lon="1.76655">
        <ele>1531</ele>
        <time>2016-09-10T11:48:20Z</time>
      </trkpt>
      <trkpt lat="42.7244" lon="1.76654">
        <ele>1531</ele>
        <time>2016-09-10T11:48:21Z</time>
      </trkpt>
      <trkpt lat="42.72439" lon="1.76653">
        <ele>1531</ele>
        <time>2016-09-10T11:48:22Z</time>
      </trkpt>
      <trkpt lat="42.72439" lon="1.76652">
        <ele>1531</ele>
        <time>2016-09-10T11:48:23Z</time>
      </trkpt>
      <trkpt lat="42.72439" lon="1.76652">
        <ele>1532</ele>
        <time>2016-09-10T11:48:24Z</time>
      </trkpt>
      <trkpt lat="42.72439" lon="1.76651">
        <ele>1532</ele>
        <time>2016-09-10T11:48:25Z</time>
      </trkpt>
      <trkpt lat="42.72439" lon="1.7665">
        <ele>1532</ele>
        <time>2016-09-10T11:48:26Z</time>
      </trkpt>
      <trkpt lat="42.72439" lon="1.7665">
        <ele>1532</ele>
        <time>2016-09-10T11:48:27Z</time>
      </trkpt>
      <trkpt lat="42.7244" lon="1.76649">
        <ele>1532</ele>
        <time>2016-09-10T11:48:28Z</time>
      </trkpt>
      <trkpt lat="42.7244" lon="1.76648">
        <ele>1532</ele>
        <time>2016-09-10T11:48:29Z</time>
      </trkpt>
      <trkpt lat="42.72441" lon="1.76648">
        <ele>1532</ele>
        <time>2016-09-10T11:48:30Z</time>
      </trkpt>
      <trkpt lat="42.72441" lon="1.76647">
        <ele>1532</ele>
        <time>2016-09-10T11:48:31Z</time>
      </trkpt>
      <trkpt lat="42.72441" lon="1.76646">
        <ele>1532</ele>
        <time>2016-09-10T11:48:32Z</time>
      </trkpt>
      <trkpt lat="42.72442" lon="1.76645">
        <ele>1532</ele>
        <time>2016-09-10T11:48:33Z</time>
      </trkpt>
      <trkpt lat="42.72442" lon="1.76644">
        <ele>1532</ele>
        <time>2016-09-10T11:48:34Z</time>
      </trkpt>
      <trkpt lat="42.72442" lon="1.76643">
        <ele>1532</ele>
        <time>2016-09-10T11:48:35Z</time>
      </trkpt>
      <trkpt lat="42.72442" lon="1.76642">
        <ele>1532</ele>
        <time>2016-09-10T11:48:36Z</time>
      </trkpt>
      <trkpt lat="42.72443" lon="1.7664">
        <ele>1532</ele>
        <time>2016-09-10T11:48:37Z</time>
      </trkpt>
      <trkpt lat="42.72444" lon="1.76639">
        <ele>1532</ele>
        <time>2016-09-10T11:48:38Z</time>
      </trkpt>
      <trkpt lat="42.72445" lon="1.76638">
        <ele>1532</ele>
        <time>2016-09-10T11:48:39Z</time>
      </trkpt>
      <trkpt lat="42.72445" lon="1.76637">
        <ele>1533</ele>
        <time>2016-09-10T11:48:40Z</time>
      </trkpt>
      <trkpt lat="42.72445" lon="1.76636">
        <ele>1533</ele>
        <time>2016-09-10T11:48:41Z</time>
      </trkpt>
      <trkpt lat="42.72446" lon="1.76636">
        <ele>1533</ele>
        <time>2016-09-10T11:48:42Z</time>
      </trkpt>
      <trkpt lat="42.72446" lon="1.76633">
        <ele>1533</ele>
        <time>2016-09-10T11:48:43Z</time>
      </trkpt>
      <trkpt lat="42.72446" lon="1.76632">
        <ele>1533</ele>
        <time>2016-09-10T11:48:44Z</time>
      </trkpt>
      <trkpt lat="42.72447" lon="1.7663">
        <ele>1533</ele>
        <time>2016-09-10T11:48:45Z</time>
      </trkpt>
      <trkpt lat="42.72447" lon="1.76628">
        <ele>1533</ele>
        <time>2016-09-10T11:48:46Z</time>
      </trkpt>
      <trkpt lat="42.72448" lon="1.76627">
        <ele>1533</ele>
        <time>2016-09-10T11:48:47Z</time>
      </trkpt>
      <trkpt lat="42.72448" lon="1.76627">
        <ele>1533</ele>
        <time>2016-09-10T11:48:48Z</time>
      </trkpt>
      <trkpt lat="42.72449" lon="1.76625">
        <ele>1533</ele>
        <time>2016-09-10T11:48:49Z</time>
      </trkpt>
      <trkpt lat="42.72449" lon="1.76624">
        <ele>1533</ele>
        <time>2016-09-10T11:48:50Z</time>
      </trkpt>
      <trkpt lat="42.72449" lon="1.76623">
        <ele>1533</ele>
        <time>2016-09-10T11:48:51Z</time>
      </trkpt>
      <trkpt lat="42.7245" lon="1.76622">
        <ele>1533</ele>
        <time>2016-09-10T11:48:52Z</time>
      </trkpt>
      <trkpt lat="42.7245" lon="1.76621">
        <ele>1533</ele>
        <time>2016-09-10T11:48:53Z</time>
      </trkpt>
      <trkpt lat="42.72451" lon="1.7662">
        <ele>1534</ele>
        <time>2016-09-10T11:48:54Z</time>
      </trkpt>
      <trkpt lat="42.72451" lon="1.76618">
        <ele>1534</ele>
        <time>2016-09-10T11:48:55Z</time>
      </trkpt>
      <trkpt lat="42.72452" lon="1.76616">
        <ele>1534</ele>
        <time>2016-09-10T11:48:56Z</time>
      </trkpt>
      <trkpt lat="42.72452" lon="1.76615">
        <ele>1534</ele>
        <time>2016-09-10T11:48:57Z</time>
      </trkpt>
      <trkpt lat="42.72453" lon="1.76613">
        <ele>1534</ele>
        <time>2016-09-10T11:48:58Z</time>
      </trkpt>
      <trkpt lat="42.72453" lon="1.76611">
        <ele>1534</ele>
        <time>2016-09-10T11:48:59Z</time>
      </trkpt>
      <trkpt lat="42.72453" lon="1.76611">
        <ele>1534</ele>
        <time>2016-09-10T11:49:00Z</time>
      </trkpt>
      <trkpt lat="42.72454" lon="1.76611">
        <ele>1534</ele>
        <time>2016-09-10T11:49:01Z</time>
      </trkpt>
      <trkpt lat="42.72454" lon="1.7661">
        <ele>1534</ele>
        <time>2016-09-10T11:49:02Z</time>
      </trkpt>
      <trkpt lat="42.72455" lon="1.76608">
        <ele>1534</ele>
        <time>2016-09-10T11:49:03Z</time>
      </trkpt>
      <trkpt lat="42.72455" lon="1.76607">
        <ele>1534</ele>
        <time>2016-09-10T11:49:04Z</time>
      </trkpt>
      <trkpt lat="42.72455" lon="1.76605">
        <ele>1535</ele>
        <time>2016-09-10T11:49:05Z</time>
      </trkpt>
      <trkpt lat="42.72455" lon="1.76604">
        <ele>1535</ele>
        <time>2016-09-10T11:49:06Z</time>
      </trkpt>
      <trkpt lat="42.72455" lon="1.76602">
        <ele>1535</ele>
        <time>2016-09-10T11:49:07Z</time>
      </trkpt>
      <trkpt lat="42.72456" lon="1.766">
        <ele>1535</ele>
        <time>2016-09-10T11:49:09Z</time>
      </trkpt>
      <trkpt lat="42.72457" lon="1.76599">
        <ele>1535</ele>
        <time>2016-09-10T11:49:10Z</time>
      </trkpt>
      <trkpt lat="42.72457" lon="1.76598">
        <ele>1535</ele>
        <time>2016-09-10T11:49:11Z</time>
      </trkpt>
      <trkpt lat="42.72458" lon="1.76597">
        <ele>1535</ele>
        <time>2016-09-10T11:49:12Z</time>
      </trkpt>
      <trkpt lat="42.72458" lon="1.76597">
        <ele>1535</ele>
        <time>2016-09-10T11:49:13Z</time>
      </trkpt>
      <trkpt lat="42.72459" lon="1.76596">
        <ele>1535</ele>
        <time>2016-09-10T11:49:16Z</time>
      </trkpt>
      <trkpt lat="42.72459" lon="1.76594">
        <ele>1535</ele>
        <time>2016-09-10T11:49:17Z</time>
      </trkpt>
      <trkpt lat="42.7246" lon="1.76594">
        <ele>1536</ele>
        <time>2016-09-10T11:49:18Z</time>
      </trkpt>
      <trkpt lat="42.7246" lon="1.76593">
        <ele>1536</ele>
        <time>2016-09-10T11:49:19Z</time>
      </trkpt>
      <trkpt lat="42.7246" lon="1.76591">
        <ele>1536</ele>
        <time>2016-09-10T11:49:20Z</time>
      </trkpt>
      <trkpt lat="42.72461" lon="1.76589">
        <ele>1536</ele>
        <time>2016-09-10T11:49:22Z</time>
      </trkpt>
      <trkpt lat="42.72462" lon="1.76588">
        <ele>1536</ele>
        <time>2016-09-10T11:49:23Z</time>
      </trkpt>
      <trkpt lat="42.72462" lon="1.76587">
        <ele>1536</ele>
        <time>2016-09-10T11:49:24Z</time>
      </trkpt>
      <trkpt lat="42.72463" lon="1.76586">
        <ele>1536</ele>
        <time>2016-09-10T11:49:25Z</time>
      </trkpt>
      <trkpt lat="42.72463" lon="1.76585">
        <ele>1536</ele>
        <time>2016-09-10T11:49:26Z</time>
      </trkpt>
      <trkpt lat="42.72463" lon="1.76584">
        <ele>1536</ele>
        <time>2016-09-10T11:49:27Z</time>
      </trkpt>
      <trkpt lat="42.72464" lon="1.76583">
        <ele>1536</ele>
        <time>2016-09-10T11:49:28Z</time>
      </trkpt>
      <trkpt lat="42.72464" lon="1.76583">
        <ele>1537</ele>
        <time>2016-09-10T11:49:29Z</time>
      </trkpt>
      <trkpt lat="42.72465" lon="1.76582">
        <ele>1537</ele>
        <time>2016-09-10T11:49:30Z</time>
      </trkpt>
      <trkpt lat="42.72466" lon="1.76582">
        <ele>1537</ele>
        <time>2016-09-10T11:49:31Z</time>
      </trkpt>
      <trkpt lat="42.72466" lon="1.76581">
        <ele>1537</ele>
        <time>2016-09-10T11:49:32Z</time>
      </trkpt>
      <trkpt lat="42.72469" lon="1.76582">
        <ele>1537</ele>
        <time>2016-09-10T11:49:35Z</time>
      </trkpt>
      <trkpt lat="42.72471" lon="1.76582">
        <ele>1537</ele>
        <time>2016-09-10T11:49:39Z</time>
      </trkpt>
      <trkpt lat="42.72471" lon="1.76581">
        <ele>1537</ele>
        <time>2016-09-10T11:49:40Z</time>
      </trkpt>
      <trkpt lat="42.72472" lon="1.7658">
        <ele>1538</ele>
        <time>2016-09-10T11:49:41Z</time>
      </trkpt>
      <trkpt lat="42.72472" lon="1.7658">
        <ele>1538</ele>
        <time>2016-09-10T11:49:44Z</time>
      </trkpt>
      <trkpt lat="42.72474" lon="1.76577">
        <ele>1538</ele>
        <time>2016-09-10T11:49:49Z</time>
      </trkpt>
      <trkpt lat="42.72475" lon="1.76577">
        <ele>1538</ele>
        <time>2016-09-10T11:49:50Z</time>
      </trkpt>
      <trkpt lat="42.72475" lon="1.76576">
        <ele>1539</ele>
        <time>2016-09-10T11:49:51Z</time>
      </trkpt>
      <trkpt lat="42.72477" lon="1.7657">
        <ele>1539</ele>
        <time>2016-09-10T11:49:56Z</time>
      </trkpt>
      <trkpt lat="42.7248" lon="1.76566">
        <ele>1540</ele>
        <time>2016-09-10T11:50:02Z</time>
      </trkpt>
      <trkpt lat="42.72482" lon="1.76562">
        <ele>1541</ele>
        <time>2016-09-10T11:50:05Z</time>
      </trkpt>
      <trkpt lat="42.72483" lon="1.76562">
        <ele>1541</ele>
        <time>2016-09-10T11:50:06Z</time>
      </trkpt>
      <trkpt lat="42.72483" lon="1.76561">
        <ele>1541</ele>
        <time>2016-09-10T11:50:07Z</time>
      </trkpt>
      <trkpt lat="42.72483" lon="1.7656">
        <ele>1541</ele>
        <time>2016-09-10T11:50:08Z</time>
      </trkpt>
      <trkpt lat="42.72484" lon="1.76559">
        <ele>1542</ele>
        <time>2016-09-10T11:50:09Z</time>
      </trkpt>
      <trkpt lat="42.72484" lon="1.76558">
        <ele>1542</ele>
        <time>2016-09-10T11:50:10Z</time>
      </trkpt>
      <trkpt lat="42.72487" lon="1.76552">
        <ele>1543</ele>
        <time>2016-09-10T11:50:18Z</time>
      </trkpt>
      <trkpt lat="42.72487" lon="1.76551">
        <ele>1543</ele>
        <time>2016-09-10T11:50:19Z</time>
      </trkpt>
      <trkpt lat="42.72487" lon="1.7655">
        <ele>1543</ele>
        <time>2016-09-10T11:50:20Z</time>
      </trkpt>
      <trkpt lat="42.72487" lon="1.76549">
        <ele>1543</ele>
        <time>2016-09-10T11:50:21Z</time>
      </trkpt>
      <trkpt lat="42.72488" lon="1.76545">
        <ele>1544</ele>
        <time>2016-09-10T11:50:25Z</time>
      </trkpt>
      <trkpt lat="42.72488" lon="1.76539">
        <ele>1545</ele>
        <time>2016-09-10T11:50:32Z</time>
      </trkpt>
      <trkpt lat="42.72488" lon="1.76538">
        <ele>1545</ele>
        <time>2016-09-10T11:50:33Z</time>
      </trkpt>
      <trkpt lat="42.72488" lon="1.76538">
        <ele>1545</ele>
        <time>2016-09-10T11:50:34Z</time>
      </trkpt>
      <trkpt lat="42.72488" lon="1.76536">
        <ele>1545</ele>
        <time>2016-09-10T11:50:35Z</time>
      </trkpt>
      <trkpt lat="42.72489" lon="1.76535">
        <ele>1545</ele>
        <time>2016-09-10T11:50:36Z</time>
      </trkpt>
      <trkpt lat="42.72491" lon="1.76532">
        <ele>1546</ele>
        <time>2016-09-10T11:50:39Z</time>
      </trkpt>
      <trkpt lat="42.72495" lon="1.76526">
        <ele>1548</ele>
        <time>2016-09-10T11:50:45Z</time>
      </trkpt>
      <trkpt lat="42.72494" lon="1.76521">
        <ele>1548</ele>
        <time>2016-09-10T11:50:49Z</time>
      </trkpt>
      <trkpt lat="42.72495" lon="1.7652">
        <ele>1549</ele>
        <time>2016-09-10T11:50:50Z</time>
      </trkpt>
      <trkpt lat="42.72495" lon="1.7652">
        <ele>1549</ele>
        <time>2016-09-10T11:50:51Z</time>
      </trkpt>
      <trkpt lat="42.72496" lon="1.7652">
        <ele>1549</ele>
        <time>2016-09-10T11:50:52Z</time>
      </trkpt>
      <trkpt lat="42.72496" lon="1.76519">
        <ele>1549</ele>
        <time>2016-09-10T11:50:53Z</time>
      </trkpt>
      <trkpt lat="42.72499" lon="1.76517">
        <ele>1550</ele>
        <time>2016-09-10T11:50:59Z</time>
      </trkpt>
      <trkpt lat="42.72499" lon="1.76517">
        <ele>1550</ele>
        <time>2016-09-10T11:51:00Z</time>
      </trkpt>
      <trkpt lat="42.72499" lon="1.76517">
        <ele>1550</ele>
        <time>2016-09-10T11:51:01Z</time>
      </trkpt>
      <trkpt lat="42.725" lon="1.76517">
        <ele>1550</ele>
        <time>2016-09-10T11:51:02Z</time>
      </trkpt>
      <trkpt lat="42.72501" lon="1.76517">
        <ele>1550</ele>
        <time>2016-09-10T11:51:03Z</time>
      </trkpt>
      <trkpt lat="42.72502" lon="1.76518">
        <ele>1551</ele>
        <time>2016-09-10T11:51:04Z</time>
      </trkpt>
      <trkpt lat="42.72503" lon="1.76518">
        <ele>1551</ele>
        <time>2016-09-10T11:51:05Z</time>
      </trkpt>
      <trkpt lat="42.72506" lon="1.76516">
        <ele>1552</ele>
        <time>2016-09-10T11:51:13Z</time>
      </trkpt>
      <trkpt lat="42.72507" lon="1.76516">
        <ele>1552</ele>
        <time>2016-09-10T11:51:14Z</time>
      </trkpt>
      <trkpt lat="42.72508" lon="1.76516">
        <ele>1552</ele>
        <time>2016-09-10T11:51:15Z</time>
      </trkpt>
      <trkpt lat="42.72508" lon="1.76516">
        <ele>1552</ele>
        <time>2016-09-10T11:51:16Z</time>
      </trkpt>
      <trkpt lat="42.72509" lon="1.76516">
        <ele>1552</ele>
        <time>2016-09-10T11:51:17Z</time>
      </trkpt>
      <trkpt lat="42.72509" lon="1.76516">
        <ele>1552</ele>
        <time>2016-09-10T11:51:18Z</time>
      </trkpt>
      <trkpt lat="42.72509" lon="1.76516">
        <ele>1552</ele>
        <time>2016-09-10T11:51:20Z</time>
      </trkpt>
      <trkpt lat="42.7251" lon="1.7651">
        <ele>1554</ele>
        <time>2016-09-10T11:51:27Z</time>
      </trkpt>
      <trkpt lat="42.7251" lon="1.7651">
        <ele>1554</ele>
        <time>2016-09-10T11:51:28Z</time>
      </trkpt>
      <trkpt lat="42.72511" lon="1.76509">
        <ele>1554</ele>
        <time>2016-09-10T11:51:29Z</time>
      </trkpt>
      <trkpt lat="42.72512" lon="1.76509">
        <ele>1554</ele>
        <time>2016-09-10T11:51:30Z</time>
      </trkpt>
      <trkpt lat="42.72512" lon="1.76508">
        <ele>1554</ele>
        <time>2016-09-10T11:51:31Z</time>
      </trkpt>
      <trkpt lat="42.72514" lon="1.76507">
        <ele>1555</ele>
        <time>2016-09-10T11:51:34Z</time>
      </trkpt>
      <trkpt lat="42.72516" lon="1.76505">
        <ele>1556</ele>
        <time>2016-09-10T11:51:38Z</time>
      </trkpt>
      <trkpt lat="42.72517" lon="1.76505">
        <ele>1556</ele>
        <time>2016-09-10T11:51:39Z</time>
      </trkpt>
      <trkpt lat="42.72517" lon="1.76504">
        <ele>1556</ele>
        <time>2016-09-10T11:51:40Z</time>
      </trkpt>
      <trkpt lat="42.72518" lon="1.76504">
        <ele>1556</ele>
        <time>2016-09-10T11:51:41Z</time>
      </trkpt>
      <trkpt lat="42.72518" lon="1.76504">
        <ele>1556</ele>
        <time>2016-09-10T11:51:42Z</time>
      </trkpt>
      <trkpt lat="42.7252" lon="1.765">
        <ele>1557</ele>
        <time>2016-09-10T11:51:47Z</time>
      </trkpt>
      <trkpt lat="42.7252" lon="1.76497">
        <ele>1558</ele>
        <time>2016-09-10T11:51:50Z</time>
      </trkpt>
      <trkpt lat="42.7252" lon="1.76496">
        <ele>1558</ele>
        <time>2016-09-10T11:51:51Z</time>
      </trkpt>
      <trkpt lat="42.7252" lon="1.76495">
        <ele>1558</ele>
        <time>2016-09-10T11:51:52Z</time>
      </trkpt>
      <trkpt lat="42.72521" lon="1.76494">
        <ele>1559</ele>
        <time>2016-09-10T11:51:53Z</time>
      </trkpt>
      <trkpt lat="42.72521" lon="1.76493">
        <ele>1559</ele>
        <time>2016-09-10T11:51:54Z</time>
      </trkpt>
      <trkpt lat="42.72521" lon="1.76493">
        <ele>1559</ele>
        <time>2016-09-10T11:51:55Z</time>
      </trkpt>
      <trkpt lat="42.72522" lon="1.76489">
        <ele>1560</ele>
        <time>2016-09-10T11:52:01Z</time>
      </trkpt>
      <trkpt lat="42.72522" lon="1.76488">
        <ele>1560</ele>
        <time>2016-09-10T11:52:02Z</time>
      </trkpt>
      <trkpt lat="42.72522" lon="1.76487">
        <ele>1560</ele>
        <time>2016-09-10T11:52:03Z</time>
      </trkpt>
      <trkpt lat="42.72522" lon="1.76486">
        <ele>1560</ele>
        <time>2016-09-10T11:52:04Z</time>
      </trkpt>
      <trkpt lat="42.72522" lon="1.76485">
        <ele>1561</ele>
        <time>2016-09-10T11:52:05Z</time>
      </trkpt>
      <trkpt lat="42.72522" lon="1.76481">
        <ele>1561</ele>
        <time>2016-09-10T11:52:09Z</time>
      </trkpt>
      <trkpt lat="42.72523" lon="1.7648">
        <ele>1562</ele>
        <time>2016-09-10T11:52:10Z</time>
      </trkpt>
      <trkpt lat="42.72523" lon="1.76479">
        <ele>1562</ele>
        <time>2016-09-10T11:52:12Z</time>
      </trkpt>
      <trkpt lat="42.72521" lon="1.76478">
        <ele>1562</ele>
        <time>2016-09-10T11:52:14Z</time>
      </trkpt>
      <trkpt lat="42.72521" lon="1.76478">
        <ele>1562</ele>
        <time>2016-09-10T11:52:15Z</time>
      </trkpt>
      <trkpt lat="42.7252" lon="1.76478">
        <ele>1562</ele>
        <time>2016-09-10T11:52:16Z</time>
      </trkpt>
      <trkpt lat="42.7252" lon="1.76477">
        <ele>1562</ele>
        <time>2016-09-10T11:52:17Z</time>
      </trkpt>
      <trkpt lat="42.7252" lon="1.76477">
        <ele>1562</ele>
        <time>2016-09-10T11:52:18Z</time>
      </trkpt>
      <trkpt lat="42.72519" lon="1.76476">
        <ele>1562</ele>
        <time>2016-09-10T11:52:19Z</time>
      </trkpt>
      <trkpt lat="42.72518" lon="1.76471">
        <ele>1563</ele>
        <time>2016-09-10T11:52:26Z</time>
      </trkpt>
      <trkpt lat="42.72518" lon="1.7647">
        <ele>1563</ele>
        <time>2016-09-10T11:52:27Z</time>
      </trkpt>
      <trkpt lat="42.72518" lon="1.76469">
        <ele>1563</ele>
        <time>2016-09-10T11:52:28Z</time>
      </trkpt>
      <trkpt lat="42.72519" lon="1.76468">
        <ele>1563</ele>
        <time>2016-09-10T11:52:29Z</time>
      </trkpt>
      <trkpt lat="42.72519" lon="1.76467">
        <ele>1564</ele>
        <time>2016-09-10T11:52:30Z</time>
      </trkpt>
      <trkpt lat="42.72519" lon="1.76465">
        <ele>1564</ele>
        <time>2016-09-10T11:52:31Z</time>
      </trkpt>
      <trkpt lat="42.72521" lon="1.76463">
        <ele>1564</ele>
        <time>2016-09-10T11:52:33Z</time>
      </trkpt>
      <trkpt lat="42.72522" lon="1.76458">
        <ele>1566</ele>
        <time>2016-09-10T11:52:39Z</time>
      </trkpt>
      <trkpt lat="42.72522" lon="1.76456">
        <ele>1566</ele>
        <time>2016-09-10T11:52:41Z</time>
      </trkpt>
      <trkpt lat="42.72523" lon="1.76455">
        <ele>1566</ele>
        <time>2016-09-10T11:52:42Z</time>
      </trkpt>
      <trkpt lat="42.72523" lon="1.76454">
        <ele>1566</ele>
        <time>2016-09-10T11:52:43Z</time>
      </trkpt>
      <trkpt lat="42.72523" lon="1.76453">
        <ele>1567</ele>
        <time>2016-09-10T11:52:44Z</time>
      </trkpt>
      <trkpt lat="42.72524" lon="1.76452">
        <ele>1567</ele>
        <time>2016-09-10T11:52:45Z</time>
      </trkpt>
      <trkpt lat="42.72524" lon="1.76451">
        <ele>1567</ele>
        <time>2016-09-10T11:52:46Z</time>
      </trkpt>
      <trkpt lat="42.72527" lon="1.76448">
        <ele>1568</ele>
        <time>2016-09-10T11:52:51Z</time>
      </trkpt>
      <trkpt lat="42.72527" lon="1.76447">
        <ele>1568</ele>
        <time>2016-09-10T11:52:52Z</time>
      </trkpt>
      <trkpt lat="42.72527" lon="1.76446">
        <ele>1568</ele>
        <time>2016-09-10T11:52:53Z</time>
      </trkpt>
      <trkpt lat="42.72527" lon="1.76444">
        <ele>1569</ele>
        <time>2016-09-10T11:52:54Z</time>
      </trkpt>
      <trkpt lat="42.72527" lon="1.76444">
        <ele>1569</ele>
        <time>2016-09-10T11:52:55Z</time>
      </trkpt>
      <trkpt lat="42.72528" lon="1.7644">
        <ele>1570</ele>
        <time>2016-09-10T11:52:59Z</time>
      </trkpt>
      <trkpt lat="42.72527" lon="1.76432">
        <ele>1571</ele>
        <time>2016-09-10T11:53:06Z</time>
      </trkpt>
      <trkpt lat="42.72526" lon="1.76425">
        <ele>1572</ele>
        <time>2016-09-10T11:53:11Z</time>
      </trkpt>
      <trkpt lat="42.72525" lon="1.76425">
        <ele>1571</ele>
        <time>2016-09-10T11:53:12Z</time>
      </trkpt>
      <trkpt lat="42.72525" lon="1.76423">
        <ele>1572</ele>
        <time>2016-09-10T11:53:13Z</time>
      </trkpt>
      <trkpt lat="42.72524" lon="1.76421">
        <ele>1572</ele>
        <time>2016-09-10T11:53:14Z</time>
      </trkpt>
      <trkpt lat="42.72521" lon="1.76418">
        <ele>1572</ele>
        <time>2016-09-10T11:53:18Z</time>
      </trkpt>
      <trkpt lat="42.7252" lon="1.76416">
        <ele>1572</ele>
        <time>2016-09-10T11:53:20Z</time>
      </trkpt>
      <trkpt lat="42.72515" lon="1.76407">
        <ele>1572</ele>
        <time>2016-09-10T11:53:28Z</time>
      </trkpt>
      <trkpt lat="42.72514" lon="1.76405">
        <ele>1572</ele>
        <time>2016-09-10T11:53:30Z</time>
      </trkpt>
      <trkpt lat="42.72512" lon="1.76396">
        <ele>1572</ele>
        <time>2016-09-10T11:53:36Z</time>
      </trkpt>
      <trkpt lat="42.72509" lon="1.76387">
        <ele>1572</ele>
        <time>2016-09-10T11:53:42Z</time>
      </trkpt>
      <trkpt lat="42.7251" lon="1.76379">
        <ele>1572</ele>
        <time>2016-09-10T11:53:48Z</time>
      </trkpt>
      <trkpt lat="42.72509" lon="1.76377">
        <ele>1572</ele>
        <time>2016-09-10T11:53:49Z</time>
      </trkpt>
      <trkpt lat="42.72507" lon="1.76369">
        <ele>1572</ele>
        <time>2016-09-10T11:53:54Z</time>
      </trkpt>
      <trkpt lat="42.72505" lon="1.76361">
        <ele>1571</ele>
        <time>2016-09-10T11:54:00Z</time>
      </trkpt>
      <trkpt lat="42.72505" lon="1.76351">
        <ele>1572</ele>
        <time>2016-09-10T11:54:07Z</time>
      </trkpt>
      <trkpt lat="42.72506" lon="1.76344">
        <ele>1572</ele>
        <time>2016-09-10T11:54:13Z</time>
      </trkpt>
      <trkpt lat="42.72505" lon="1.7633">
        <ele>1572</ele>
        <time>2016-09-10T11:54:20Z</time>
      </trkpt>
      <trkpt lat="42.72504" lon="1.76323">
        <ele>1571</ele>
        <time>2016-09-10T11:54:26Z</time>
      </trkpt>
      <trkpt lat="42.72505" lon="1.76314">
        <ele>1572</ele>
        <time>2016-09-10T11:54:32Z</time>
      </trkpt>
      <trkpt lat="42.72505" lon="1.76307">
        <ele>1572</ele>
        <time>2016-09-10T11:54:37Z</time>
      </trkpt>
      <trkpt lat="42.72507" lon="1.763">
        <ele>1572</ele>
        <time>2016-09-10T11:54:42Z</time>
      </trkpt>
      <trkpt lat="42.72507" lon="1.76293">
        <ele>1572</ele>
        <time>2016-09-10T11:54:47Z</time>
      </trkpt>
      <trkpt lat="42.72507" lon="1.76284">
        <ele>1573</ele>
        <time>2016-09-10T11:54:53Z</time>
      </trkpt>
      <trkpt lat="42.72508" lon="1.76274">
        <ele>1573</ele>
        <time>2016-09-10T11:54:59Z</time>
      </trkpt>
      <trkpt lat="42.72507" lon="1.76268">
        <ele>1573</ele>
        <time>2016-09-10T11:55:04Z</time>
      </trkpt>
      <trkpt lat="42.72504" lon="1.76258">
        <ele>1574</ele>
        <time>2016-09-10T11:55:11Z</time>
      </trkpt>
      <trkpt lat="42.72501" lon="1.76246">
        <ele>1574</ele>
        <time>2016-09-10T11:55:18Z</time>
      </trkpt>
      <trkpt lat="42.72501" lon="1.76245">
        <ele>1574</ele>
        <time>2016-09-10T11:55:19Z</time>
      </trkpt>
      <trkpt lat="42.72499" lon="1.76239">
        <ele>1574</ele>
        <time>2016-09-10T11:55:23Z</time>
      </trkpt>
      <trkpt lat="42.72499" lon="1.76237">
        <ele>1574</ele>
        <time>2016-09-10T11:55:24Z</time>
      </trkpt>
      <trkpt lat="42.72497" lon="1.76228">
        <ele>1575</ele>
        <time>2016-09-10T11:55:30Z</time>
      </trkpt>
      <trkpt lat="42.72497" lon="1.76228">
        <ele>1575</ele>
        <time>2016-09-10T11:55:37Z</time>
      </trkpt>
      <trkpt lat="42.72497" lon="1.76228">
        <ele>1575</ele>
        <time>2016-09-10T11:55:55Z</time>
      </trkpt>
      <trkpt lat="42.72495" lon="1.76225">
        <ele>1575</ele>
        <time>2016-09-10T11:56:04Z</time>
      </trkpt>
      <trkpt lat="42.72495" lon="1.76225">
        <ele>1575</ele>
        <time>2016-09-10T11:56:05Z</time>
      </trkpt>
      <trkpt lat="42.72491" lon="1.76217">
        <ele>1575</ele>
        <time>2016-09-10T11:56:11Z</time>
      </trkpt>
      <trkpt lat="42.7249" lon="1.76215">
        <ele>1575</ele>
        <time>2016-09-10T11:56:12Z</time>
      </trkpt>
      <trkpt lat="42.72489" lon="1.76214">
        <ele>1575</ele>
        <time>2016-09-10T11:56:13Z</time>
      </trkpt>
      <trkpt lat="42.72489" lon="1.76212">
        <ele>1575</ele>
        <time>2016-09-10T11:56:14Z</time>
      </trkpt>
      <trkpt lat="42.72488" lon="1.76211">
        <ele>1575</ele>
        <time>2016-09-10T11:56:15Z</time>
      </trkpt>
      <trkpt lat="42.72487" lon="1.76209">
        <ele>1576</ele>
        <time>2016-09-10T11:56:17Z</time>
      </trkpt>
      <trkpt lat="42.72483" lon="1.76201">
        <ele>1576</ele>
        <time>2016-09-10T11:56:24Z</time>
      </trkpt>
      <trkpt lat="42.72478" lon="1.76192">
        <ele>1577</ele>
        <time>2016-09-10T11:56:30Z</time>
      </trkpt>
      <trkpt lat="42.72474" lon="1.76186">
        <ele>1578</ele>
        <time>2016-09-10T11:56:36Z</time>
      </trkpt>
      <trkpt lat="42.72473" lon="1.76185">
        <ele>1578</ele>
        <time>2016-09-10T11:56:37Z</time>
      </trkpt>
      <trkpt lat="42.72472" lon="1.76183">
        <ele>1578</ele>
        <time>2016-09-10T11:56:38Z</time>
      </trkpt>
      <trkpt lat="42.72471" lon="1.76182">
        <ele>1578</ele>
        <time>2016-09-10T11:56:39Z</time>
      </trkpt>
      <trkpt lat="42.72471" lon="1.7618">
        <ele>1579</ele>
        <time>2016-09-10T11:56:40Z</time>
      </trkpt>
      <trkpt lat="42.7247" lon="1.76176">
        <ele>1579</ele>
        <time>2016-09-10T11:56:43Z</time>
      </trkpt>
      <trkpt lat="42.72469" lon="1.7617">
        <ele>1580</ele>
        <time>2016-09-10T11:56:50Z</time>
      </trkpt>
      <trkpt lat="42.72469" lon="1.76164">
        <ele>1581</ele>
        <time>2016-09-10T11:56:55Z</time>
      </trkpt>
      <trkpt lat="42.72469" lon="1.76163">
        <ele>1581</ele>
        <time>2016-09-10T11:56:56Z</time>
      </trkpt>
      <trkpt lat="42.72468" lon="1.76162">
        <ele>1581</ele>
        <time>2016-09-10T11:56:57Z</time>
      </trkpt>
      <trkpt lat="42.72468" lon="1.76161">
        <ele>1581</ele>
        <time>2016-09-10T11:56:58Z</time>
      </trkpt>
      <trkpt lat="42.72467" lon="1.7616">
        <ele>1581</ele>
        <time>2016-09-10T11:56:59Z</time>
      </trkpt>
      <trkpt lat="42.72466" lon="1.76157">
        <ele>1582</ele>
        <time>2016-09-10T11:57:04Z</time>
      </trkpt>
      <trkpt lat="42.72466" lon="1.76157">
        <ele>1582</ele>
        <time>2016-09-10T11:57:16Z</time>
      </trkpt>
      <trkpt lat="42.72464" lon="1.76157">
        <ele>1582</ele>
        <time>2016-09-10T11:57:25Z</time>
      </trkpt>
      <trkpt lat="42.72462" lon="1.76154">
        <ele>1583</ele>
        <time>2016-09-10T11:57:28Z</time>
      </trkpt>
      <trkpt lat="42.72461" lon="1.76153">
        <ele>1583</ele>
        <time>2016-09-10T11:57:30Z</time>
      </trkpt>
      <trkpt lat="42.72461" lon="1.76152">
        <ele>1583</ele>
        <time>2016-09-10T11:57:31Z</time>
      </trkpt>
      <trkpt lat="42.7246" lon="1.76151">
        <ele>1583</ele>
        <time>2016-09-10T11:57:32Z</time>
      </trkpt>
      <trkpt lat="42.7246" lon="1.7615">
        <ele>1584</ele>
        <time>2016-09-10T11:57:33Z</time>
      </trkpt>
      <trkpt lat="42.7246" lon="1.7615">
        <ele>1584</ele>
        <time>2016-09-10T11:57:34Z</time>
      </trkpt>
      <trkpt lat="42.72459" lon="1.76149">
        <ele>1584</ele>
        <time>2016-09-10T11:57:35Z</time>
      </trkpt>
      <trkpt lat="42.72457" lon="1.76146">
        <ele>1585</ele>
        <time>2016-09-10T11:57:39Z</time>
      </trkpt>
      <trkpt lat="42.72457" lon="1.76145">
        <ele>1585</ele>
        <time>2016-09-10T11:57:40Z</time>
      </trkpt>
      <trkpt lat="42.72455" lon="1.76144">
        <ele>1585</ele>
        <time>2016-09-10T11:57:42Z</time>
      </trkpt>
      <trkpt lat="42.72454" lon="1.76144">
        <ele>1585</ele>
        <time>2016-09-10T11:57:43Z</time>
      </trkpt>
      <trkpt lat="42.72453" lon="1.76143">
        <ele>1586</ele>
        <time>2016-09-10T11:57:44Z</time>
      </trkpt>
      <trkpt lat="42.72452" lon="1.76143">
        <ele>1586</ele>
        <time>2016-09-10T11:57:45Z</time>
      </trkpt>
      <trkpt lat="42.72449" lon="1.76142">
        <ele>1586</ele>
        <time>2016-09-10T11:57:50Z</time>
      </trkpt>
      <trkpt lat="42.72447" lon="1.76142">
        <ele>1586</ele>
        <time>2016-09-10T11:57:53Z</time>
      </trkpt>
      <trkpt lat="42.72446" lon="1.76143">
        <ele>1586</ele>
        <time>2016-09-10T11:57:54Z</time>
      </trkpt>
      <trkpt lat="42.72444" lon="1.76144">
        <ele>1586</ele>
        <time>2016-09-10T11:57:55Z</time>
      </trkpt>
      <trkpt lat="42.72443" lon="1.76144">
        <ele>1586</ele>
        <time>2016-09-10T11:57:56Z</time>
      </trkpt>
      <trkpt lat="42.72443" lon="1.76144">
        <ele>1586</ele>
        <time>2016-09-10T11:57:57Z</time>
      </trkpt>
      <trkpt lat="42.72439" lon="1.76143">
        <ele>1587</ele>
        <time>2016-09-10T11:58:00Z</time>
      </trkpt>
      <trkpt lat="42.72438" lon="1.76141">
        <ele>1587</ele>
        <time>2016-09-10T11:58:02Z</time>
      </trkpt>
      <trkpt lat="42.72436" lon="1.76139">
        <ele>1588</ele>
        <time>2016-09-10T11:58:05Z</time>
      </trkpt>
      <trkpt lat="42.72432" lon="1.76139">
        <ele>1589</ele>
        <time>2016-09-10T11:58:09Z</time>
      </trkpt>
      <trkpt lat="42.72432" lon="1.76139">
        <ele>1589</ele>
        <time>2016-09-10T11:58:10Z</time>
      </trkpt>
      <trkpt lat="42.72431" lon="1.76139">
        <ele>1589</ele>
        <time>2016-09-10T11:58:11Z</time>
      </trkpt>
      <trkpt lat="42.72431" lon="1.76139">
        <ele>1589</ele>
        <time>2016-09-10T11:58:12Z</time>
      </trkpt>
      <trkpt lat="42.72426" lon="1.76137">
        <ele>1590</ele>
        <time>2016-09-10T11:58:20Z</time>
      </trkpt>
      <trkpt lat="42.72426" lon="1.76137">
        <ele>1590</ele>
        <time>2016-09-10T11:58:30Z</time>
      </trkpt>
      <trkpt lat="42.72426" lon="1.76137">
        <ele>1590</ele>
        <time>2016-09-10T11:58:33Z</time>
      </trkpt>
      <trkpt lat="42.72426" lon="1.76137">
        <ele>1590</ele>
        <time>2016-09-10T11:58:34Z</time>
      </trkpt>
      <trkpt lat="42.72426" lon="1.76137">
        <ele>1590</ele>
        <time>2016-09-10T11:58:35Z</time>
      </trkpt>
      <trkpt lat="42.72426" lon="1.76137">
        <ele>1590</ele>
        <time>2016-09-10T11:58:36Z</time>
      </trkpt>
      <trkpt lat="42.72425" lon="1.76136">
        <ele>1590</ele>
        <time>2016-09-10T11:58:39Z</time>
      </trkpt>
      <trkpt lat="42.7242" lon="1.76133">
        <ele>1592</ele>
        <time>2016-09-10T11:58:48Z</time>
      </trkpt>
      <trkpt lat="42.72418" lon="1.76132">
        <ele>1592</ele>
        <time>2016-09-10T11:58:50Z</time>
      </trkpt>
      <trkpt lat="42.72417" lon="1.76132">
        <ele>1592</ele>
        <time>2016-09-10T11:58:51Z</time>
      </trkpt>
      <trkpt lat="42.72416" lon="1.76132">
        <ele>1592</ele>
        <time>2016-09-10T11:58:52Z</time>
      </trkpt>
      <trkpt lat="42.72415" lon="1.76133">
        <ele>1592</ele>
        <time>2016-09-10T11:58:53Z</time>
      </trkpt>
      <trkpt lat="42.72414" lon="1.76133">
        <ele>1592</ele>
        <time>2016-09-10T11:58:54Z</time>
      </trkpt>
      <trkpt lat="42.72412" lon="1.76132">
        <ele>1593</ele>
        <time>2016-09-10T11:58:56Z</time>
      </trkpt>
      <trkpt lat="42.72408" lon="1.76133">
        <ele>1593</ele>
        <time>2016-09-10T11:59:02Z</time>
      </trkpt>
      <trkpt lat="42.72408" lon="1.76133">
        <ele>1593</ele>
        <time>2016-09-10T11:59:03Z</time>
      </trkpt>
      <trkpt lat="42.72408" lon="1.76133">
        <ele>1593</ele>
        <time>2016-09-10T11:59:04Z</time>
      </trkpt>
      <trkpt lat="42.72408" lon="1.76133">
        <ele>1593</ele>
        <time>2016-09-10T11:59:05Z</time>
      </trkpt>
      <trkpt lat="42.72407" lon="1.76133">
        <ele>1593</ele>
        <time>2016-09-10T11:59:06Z</time>
      </trkpt>
      <trkpt lat="42.72403" lon="1.76132">
        <ele>1594</ele>
        <time>2016-09-10T11:59:12Z</time>
      </trkpt>
      <trkpt lat="42.72401" lon="1.76131">
        <ele>1595</ele>
        <time>2016-09-10T11:59:16Z</time>
      </trkpt>
      <trkpt lat="42.724" lon="1.7613">
        <ele>1595</ele>
        <time>2016-09-10T11:59:17Z</time>
      </trkpt>
      <trkpt lat="42.72399" lon="1.76129">
        <ele>1596</ele>
        <time>2016-09-10T11:59:18Z</time>
      </trkpt>
      <trkpt lat="42.72399" lon="1.76128">
        <ele>1596</ele>
        <time>2016-09-10T11:59:19Z</time>
      </trkpt>
      <trkpt lat="42.72398" lon="1.76128">
        <ele>1596</ele>
        <time>2016-09-10T11:59:20Z</time>
      </trkpt>
      <trkpt lat="42.72396" lon="1.76124">
        <ele>1597</ele>
        <time>2016-09-10T11:59:28Z</time>
      </trkpt>
      <trkpt lat="42.72396" lon="1.76124">
        <ele>1597</ele>
        <time>2016-09-10T11:59:29Z</time>
      </trkpt>
      <trkpt lat="42.72396" lon="1.76124">
        <ele>1597</ele>
        <time>2016-09-10T11:59:30Z</time>
      </trkpt>
      <trkpt lat="42.72396" lon="1.76124">
        <ele>1597</ele>
        <time>2016-09-10T11:59:31Z</time>
      </trkpt>
      <trkpt lat="42.72395" lon="1.76123">
        <ele>1598</ele>
        <time>2016-09-10T11:59:32Z</time>
      </trkpt>
      <trkpt lat="42.72391" lon="1.7612">
        <ele>1599</ele>
        <time>2016-09-10T11:59:37Z</time>
      </trkpt>
      <trkpt lat="42.72388" lon="1.76119">
        <ele>1600</ele>
        <time>2016-09-10T11:59:45Z</time>
      </trkpt>
      <trkpt lat="42.72387" lon="1.76119">
        <ele>1600</ele>
        <time>2016-09-10T11:59:48Z</time>
      </trkpt>
      <trkpt lat="42.72386" lon="1.76118">
        <ele>1600</ele>
        <time>2016-09-10T11:59:49Z</time>
      </trkpt>
      <trkpt lat="42.72386" lon="1.76118">
        <ele>1600</ele>
        <time>2016-09-10T11:59:50Z</time>
      </trkpt>
      <trkpt lat="42.72386" lon="1.76118">
        <ele>1600</ele>
        <time>2016-09-10T11:59:51Z</time>
      </trkpt>
      <trkpt lat="42.72386" lon="1.76118">
        <ele>1600</ele>
        <time>2016-09-10T11:59:52Z</time>
      </trkpt>
      <trkpt lat="42.72381" lon="1.76114">
        <ele>1603</ele>
        <time>2016-09-10T11:59:58Z</time>
      </trkpt>
      <trkpt lat="42.72379" lon="1.76114">
        <ele>1603</ele>
        <time>2016-09-10T11:59:59Z</time>
      </trkpt>
      <trkpt lat="42.72378" lon="1.76114">
        <ele>1603</ele>
        <time>2016-09-10T12:00:00Z</time>
      </trkpt>
      <trkpt lat="42.72377" lon="1.76115">
        <ele>1603</ele>
        <time>2016-09-10T12:00:01Z</time>
      </trkpt>
      <trkpt lat="42.72376" lon="1.76115">
        <ele>1603</ele>
        <time>2016-09-10T12:00:02Z</time>
      </trkpt>
      <trkpt lat="42.72372" lon="1.76115">
        <ele>1603</ele>
        <time>2016-09-10T12:00:05Z</time>
      </trkpt>
      <trkpt lat="42.7237" lon="1.7611">
        <ele>1606</ele>
        <time>2016-09-10T12:00:11Z</time>
      </trkpt>
      <trkpt lat="42.72367" lon="1.76109">
        <ele>1606</ele>
        <time>2016-09-10T12:00:15Z</time>
      </trkpt>
      <trkpt lat="42.72367" lon="1.7611">
        <ele>1606</ele>
        <time>2016-09-10T12:00:16Z</time>
      </trkpt>
      <trkpt lat="42.72365" lon="1.7611">
        <ele>1606</ele>
        <time>2016-09-10T12:00:17Z</time>
      </trkpt>
      <trkpt lat="42.72364" lon="1.7611">
        <ele>1606</ele>
        <time>2016-09-10T12:00:18Z</time>
      </trkpt>
      <trkpt lat="42.72364" lon="1.7611">
        <ele>1606</ele>
        <time>2016-09-10T12:00:19Z</time>
      </trkpt>
      <trkpt lat="42.72361" lon="1.76109">
        <ele>1607</ele>
        <time>2016-09-10T12:00:23Z</time>
      </trkpt>
      <trkpt lat="42.72355" lon="1.76107">
        <ele>1608</ele>
        <time>2016-09-10T12:00:30Z</time>
      </trkpt>
      <trkpt lat="42.72352" lon="1.76109">
        <ele>1608</ele>
        <time>2016-09-10T12:00:36Z</time>
      </trkpt>
      <trkpt lat="42.72351" lon="1.76111">
        <ele>1608</ele>
        <time>2016-09-10T12:00:37Z</time>
      </trkpt>
      <trkpt lat="42.72349" lon="1.76112">
        <ele>1607</ele>
        <time>2016-09-10T12:00:38Z</time>
      </trkpt>
      <trkpt lat="42.72348" lon="1.76113">
        <ele>1607</ele>
        <time>2016-09-10T12:00:39Z</time>
      </trkpt>
      <trkpt lat="42.72343" lon="1.76117">
        <ele>1605</ele>
        <time>2016-09-10T12:00:43Z</time>
      </trkpt>
      <trkpt lat="42.72339" lon="1.76117">
        <ele>1606</ele>
        <time>2016-09-10T12:00:50Z</time>
      </trkpt>
      <trkpt lat="42.72333" lon="1.7612">
        <ele>1605</ele>
        <time>2016-09-10T12:00:59Z</time>
      </trkpt>
      <trkpt lat="42.72333" lon="1.7612">
        <ele>1605</ele>
        <time>2016-09-10T12:01:00Z</time>
      </trkpt>
      <trkpt lat="42.72332" lon="1.76119">
        <ele>1605</ele>
        <time>2016-09-10T12:01:01Z</time>
      </trkpt>
      <trkpt lat="42.72331" lon="1.7612">
        <ele>1605</ele>
        <time>2016-09-10T12:01:02Z</time>
      </trkpt>
      <trkpt lat="42.7233" lon="1.7612">
        <ele>1605</ele>
        <time>2016-09-10T12:01:03Z</time>
      </trkpt>
      <trkpt lat="42.72329" lon="1.7612">
        <ele>1605</ele>
        <time>2016-09-10T12:01:05Z</time>
      </trkpt>
      <trkpt lat="42.72325" lon="1.76116">
        <ele>1607</ele>
        <time>2016-09-10T12:01:10Z</time>
      </trkpt>
      <trkpt lat="42.72324" lon="1.76115">
        <ele>1608</ele>
        <time>2016-09-10T12:01:11Z</time>
      </trkpt>
      <trkpt lat="42.72323" lon="1.76114">
        <ele>1608</ele>
        <time>2016-09-10T12:01:12Z</time>
      </trkpt>
      <trkpt lat="42.72322" lon="1.76114">
        <ele>1609</ele>
        <time>2016-09-10T12:01:13Z</time>
      </trkpt>
      <trkpt lat="42.72321" lon="1.76114">
        <ele>1609</ele>
        <time>2016-09-10T12:01:14Z</time>
      </trkpt>
      <trkpt lat="42.72317" lon="1.76114">
        <ele>1609</ele>
        <time>2016-09-10T12:01:19Z</time>
      </trkpt>
      <trkpt lat="42.72311" lon="1.76112">
        <ele>1610</ele>
        <time>2016-09-10T12:01:25Z</time>
      </trkpt>
      <trkpt lat="42.72307" lon="1.76112">
        <ele>1611</ele>
        <time>2016-09-10T12:01:29Z</time>
      </trkpt>
      <trkpt lat="42.72307" lon="1.76112">
        <ele>1611</ele>
        <time>2016-09-10T12:01:30Z</time>
      </trkpt>
      <trkpt lat="42.72306" lon="1.76112">
        <ele>1611</ele>
        <time>2016-09-10T12:01:31Z</time>
      </trkpt>
      <trkpt lat="42.72305" lon="1.76112">
        <ele>1611</ele>
        <time>2016-09-10T12:01:32Z</time>
      </trkpt>
      <trkpt lat="42.72305" lon="1.76111">
        <ele>1612</ele>
        <time>2016-09-10T12:01:33Z</time>
      </trkpt>
      <trkpt lat="42.72302" lon="1.76107">
        <ele>1614</ele>
        <time>2016-09-10T12:01:37Z</time>
      </trkpt>
      <trkpt lat="42.72297" lon="1.76103">
        <ele>1615</ele>
        <time>2016-09-10T12:01:44Z</time>
      </trkpt>
      <trkpt lat="42.72294" lon="1.76099">
        <ele>1617</ele>
        <time>2016-09-10T12:01:49Z</time>
      </trkpt>
      <trkpt lat="42.72293" lon="1.76098">
        <ele>1617</ele>
        <time>2016-09-10T12:01:50Z</time>
      </trkpt>
      <trkpt lat="42.72293" lon="1.76098">
        <ele>1617</ele>
        <time>2016-09-10T12:01:51Z</time>
      </trkpt>
      <trkpt lat="42.72292" lon="1.76097">
        <ele>1617</ele>
        <time>2016-09-10T12:01:52Z</time>
      </trkpt>
      <trkpt lat="42.72292" lon="1.76096">
        <ele>1617</ele>
        <time>2016-09-10T12:01:53Z</time>
      </trkpt>
      <trkpt lat="42.72288" lon="1.76089">
        <ele>1619</ele>
        <time>2016-09-10T12:01:59Z</time>
      </trkpt>
      <trkpt lat="42.72284" lon="1.76084">
        <ele>1621</ele>
        <time>2016-09-10T12:02:06Z</time>
      </trkpt>
      <trkpt lat="42.72283" lon="1.76082">
        <ele>1621</ele>
        <time>2016-09-10T12:02:07Z</time>
      </trkpt>
      <trkpt lat="42.72283" lon="1.76081">
        <ele>1622</ele>
        <time>2016-09-10T12:02:08Z</time>
      </trkpt>
      <trkpt lat="42.72282" lon="1.7608">
        <ele>1622</ele>
        <time>2016-09-10T12:02:09Z</time>
      </trkpt>
      <trkpt lat="42.72281" lon="1.76079">
        <ele>1622</ele>
        <time>2016-09-10T12:02:10Z</time>
      </trkpt>
      <trkpt lat="42.72276" lon="1.76074">
        <ele>1623</ele>
        <time>2016-09-10T12:02:16Z</time>
      </trkpt>
      <trkpt lat="42.72271" lon="1.76075">
        <ele>1623</ele>
        <time>2016-09-10T12:02:22Z</time>
      </trkpt>
      <trkpt lat="42.72271" lon="1.76075">
        <ele>1623</ele>
        <time>2016-09-10T12:02:25Z</time>
      </trkpt>
      <trkpt lat="42.7227" lon="1.76074">
        <ele>1624</ele>
        <time>2016-09-10T12:02:26Z</time>
      </trkpt>
      <trkpt lat="42.7227" lon="1.76072">
        <ele>1624</ele>
        <time>2016-09-10T12:02:27Z</time>
      </trkpt>
      <trkpt lat="42.7227" lon="1.76072">
        <ele>1624</ele>
        <time>2016-09-10T12:02:28Z</time>
      </trkpt>
      <trkpt lat="42.7227" lon="1.76072">
        <ele>1624</ele>
        <time>2016-09-10T12:02:29Z</time>
      </trkpt>
      <trkpt lat="42.7227" lon="1.76072">
        <ele>1624</ele>
        <time>2016-09-10T12:02:30Z</time>
      </trkpt>
      <trkpt lat="42.72266" lon="1.76064">
        <ele>1626</ele>
        <time>2016-09-10T12:02:37Z</time>
      </trkpt>
      <trkpt lat="42.72266" lon="1.76064">
        <ele>1626</ele>
        <time>2016-09-10T12:02:38Z</time>
      </trkpt>
      <trkpt lat="42.72266" lon="1.76064">
        <ele>1626</ele>
        <time>2016-09-10T12:02:39Z</time>
      </trkpt>
      <trkpt lat="42.72266" lon="1.76064">
        <ele>1626</ele>
        <time>2016-09-10T12:02:40Z</time>
      </trkpt>
      <trkpt lat="42.72266" lon="1.76064">
        <ele>1626</ele>
        <time>2016-09-10T12:02:41Z</time>
      </trkpt>
      <trkpt lat="42.72266" lon="1.76064">
        <ele>1626</ele>
        <time>2016-09-10T12:02:42Z</time>
      </trkpt>
      <trkpt lat="42.72263" lon="1.76057">
        <ele>1627</ele>
        <time>2016-09-10T12:02:47Z</time>
      </trkpt>
      <trkpt lat="42.72262" lon="1.76054">
        <ele>1628</ele>
        <time>2016-09-10T12:02:50Z</time>
      </trkpt>
      <trkpt lat="42.72262" lon="1.76054">
        <ele>1628</ele>
        <time>2016-09-10T12:02:51Z</time>
      </trkpt>
      <trkpt lat="42.72262" lon="1.76052">
        <ele>1628</ele>
        <time>2016-09-10T12:02:52Z</time>
      </trkpt>
      <trkpt lat="42.72262" lon="1.7605">
        <ele>1629</ele>
        <time>2016-09-10T12:02:53Z</time>
      </trkpt>
      <trkpt lat="42.72262" lon="1.7605">
        <ele>1629</ele>
        <time>2016-09-10T12:02:54Z</time>
      </trkpt>
      <trkpt lat="42.72259" lon="1.76042">
        <ele>1631</ele>
        <time>2016-09-10T12:03:01Z</time>
      </trkpt>
      <trkpt lat="42.72258" lon="1.7604">
        <ele>1631</ele>
        <time>2016-09-10T12:03:03Z</time>
      </trkpt>
      <trkpt lat="42.72257" lon="1.76039">
        <ele>1631</ele>
        <time>2016-09-10T12:03:04Z</time>
      </trkpt>
      <trkpt lat="42.72257" lon="1.76038">
        <ele>1631</ele>
        <time>2016-09-10T12:03:05Z</time>
      </trkpt>
      <trkpt lat="42.72256" lon="1.76038">
        <ele>1631</ele>
        <time>2016-09-10T12:03:06Z</time>
      </trkpt>
      <trkpt lat="42.72256" lon="1.76038">
        <ele>1631</ele>
        <time>2016-09-10T12:03:07Z</time>
      </trkpt>
      <trkpt lat="42.72256" lon="1.76038">
        <ele>1631</ele>
        <time>2016-09-10T12:03:08Z</time>
      </trkpt>
      <trkpt lat="42.72254" lon="1.76027">
        <ele>1633</ele>
        <time>2016-09-10T12:03:16Z</time>
      </trkpt>
      <trkpt lat="42.72254" lon="1.76024">
        <ele>1633</ele>
        <time>2016-09-10T12:03:17Z</time>
      </trkpt>
      <trkpt lat="42.72254" lon="1.76022">
        <ele>1634</ele>
        <time>2016-09-10T12:03:18Z</time>
      </trkpt>
      <trkpt lat="42.72255" lon="1.7602">
        <ele>1634</ele>
        <time>2016-09-10T12:03:19Z</time>
      </trkpt>
      <trkpt lat="42.72256" lon="1.76018">
        <ele>1634</ele>
        <time>2016-09-10T12:03:20Z</time>
      </trkpt>
      <trkpt lat="42.72256" lon="1.76017">
        <ele>1634</ele>
        <time>2016-09-10T12:03:21Z</time>
      </trkpt>
      <trkpt lat="42.72256" lon="1.76017">
        <ele>1635</ele>
        <time>2016-09-10T12:03:23Z</time>
      </trkpt>
      <trkpt lat="42.72257" lon="1.76011">
        <ele>1635</ele>
        <time>2016-09-10T12:03:30Z</time>
      </trkpt>
      <trkpt lat="42.72258" lon="1.76009">
        <ele>1636</ele>
        <time>2016-09-10T12:03:32Z</time>
      </trkpt>
      <trkpt lat="42.72257" lon="1.76008">
        <ele>1636</ele>
        <time>2016-09-10T12:03:33Z</time>
      </trkpt>
      <trkpt lat="42.72257" lon="1.76006">
        <ele>1636</ele>
        <time>2016-09-10T12:03:34Z</time>
      </trkpt>
      <trkpt lat="42.72256" lon="1.76005">
        <ele>1636</ele>
        <time>2016-09-10T12:03:35Z</time>
      </trkpt>
      <trkpt lat="42.72255" lon="1.76004">
        <ele>1636</ele>
        <time>2016-09-10T12:03:37Z</time>
      </trkpt>
      <trkpt lat="42.72249" lon="1.75996">
        <ele>1637</ele>
        <time>2016-09-10T12:03:43Z</time>
      </trkpt>
      <trkpt lat="42.72245" lon="1.7599">
        <ele>1638</ele>
        <time>2016-09-10T12:03:50Z</time>
      </trkpt>
      <trkpt lat="42.72239" lon="1.75993">
        <ele>1637</ele>
        <time>2016-09-10T12:03:54Z</time>
      </trkpt>
      <trkpt lat="42.72237" lon="1.75994">
        <ele>1637</ele>
        <time>2016-09-10T12:03:56Z</time>
      </trkpt>
      <trkpt lat="42.72235" lon="1.75995">
        <ele>1637</ele>
        <time>2016-09-10T12:03:57Z</time>
      </trkpt>
      <trkpt lat="42.72234" lon="1.75994">
        <ele>1637</ele>
        <time>2016-09-10T12:03:58Z</time>
      </trkpt>
      <trkpt lat="42.72233" lon="1.75994">
        <ele>1637</ele>
        <time>2016-09-10T12:03:59Z</time>
      </trkpt>
      <trkpt lat="42.7223" lon="1.7599">
        <ele>1637</ele>
        <time>2016-09-10T12:04:04Z</time>
      </trkpt>
      <trkpt lat="42.72227" lon="1.75983">
        <ele>1638</ele>
        <time>2016-09-10T12:04:12Z</time>
      </trkpt>
      <trkpt lat="42.72227" lon="1.75982">
        <ele>1638</ele>
        <time>2016-09-10T12:04:13Z</time>
      </trkpt>
      <trkpt lat="42.72227" lon="1.75982">
        <ele>1638</ele>
        <time>2016-09-10T12:04:14Z</time>
      </trkpt>
      <trkpt lat="42.72227" lon="1.75981">
        <ele>1638</ele>
        <time>2016-09-10T12:04:15Z</time>
      </trkpt>
      <trkpt lat="42.72226" lon="1.75979">
        <ele>1638</ele>
        <time>2016-09-10T12:04:16Z</time>
      </trkpt>
      <trkpt lat="42.72226" lon="1.75977">
        <ele>1639</ele>
        <time>2016-09-10T12:04:20Z</time>
      </trkpt>
      <trkpt lat="42.72223" lon="1.75976">
        <ele>1639</ele>
        <time>2016-09-10T12:04:31Z</time>
      </trkpt>
      <trkpt lat="42.72224" lon="1.75974">
        <ele>1639</ele>
        <time>2016-09-10T12:04:35Z</time>
      </trkpt>
      <trkpt lat="42.72224" lon="1.75974">
        <ele>1639</ele>
        <time>2016-09-10T12:04:36Z</time>
      </trkpt>
      <trkpt lat="42.72224" lon="1.75974">
        <ele>1639</ele>
        <time>2016-09-10T12:04:37Z</time>
      </trkpt>
      <trkpt lat="42.72224" lon="1.75974">
        <ele>1639</ele>
        <time>2016-09-10T12:04:38Z</time>
      </trkpt>
      <trkpt lat="42.72224" lon="1.75974">
        <ele>1639</ele>
        <time>2016-09-10T12:04:39Z</time>
      </trkpt>
      <trkpt lat="42.72224" lon="1.75971">
        <ele>1639</ele>
        <time>2016-09-10T12:04:45Z</time>
      </trkpt>
      <trkpt lat="42.72223" lon="1.75969">
        <ele>1640</ele>
        <time>2016-09-10T12:04:49Z</time>
      </trkpt>
      <trkpt lat="42.72222" lon="1.75966">
        <ele>1640</ele>
        <time>2016-09-10T12:04:50Z</time>
      </trkpt>
      <trkpt lat="42.72221" lon="1.75965">
        <ele>1640</ele>
        <time>2016-09-10T12:04:51Z</time>
      </trkpt>
      <trkpt lat="42.72221" lon="1.75964">
        <ele>1640</ele>
        <time>2016-09-10T12:04:52Z</time>
      </trkpt>
      <trkpt lat="42.7222" lon="1.75961">
        <ele>1641</ele>
        <time>2016-09-10T12:04:53Z</time>
      </trkpt>
      <trkpt lat="42.7222" lon="1.7595">
        <ele>1642</ele>
        <time>2016-09-10T12:04:58Z</time>
      </trkpt>
      <trkpt lat="42.72217" lon="1.75946">
        <ele>1643</ele>
        <time>2016-09-10T12:05:04Z</time>
      </trkpt>
      <trkpt lat="42.72218" lon="1.75937">
        <ele>1644</ele>
        <time>2016-09-10T12:05:10Z</time>
      </trkpt>
      <trkpt lat="42.72219" lon="1.75934">
        <ele>1645</ele>
        <time>2016-09-10T12:05:13Z</time>
      </trkpt>
      <trkpt lat="42.7222" lon="1.75933">
        <ele>1645</ele>
        <time>2016-09-10T12:05:14Z</time>
      </trkpt>
      <trkpt lat="42.7222" lon="1.75931">
        <ele>1645</ele>
        <time>2016-09-10T12:05:15Z</time>
      </trkpt>
      <trkpt lat="42.7222" lon="1.75929">
        <ele>1645</ele>
        <time>2016-09-10T12:05:16Z</time>
      </trkpt>
      <trkpt lat="42.7222" lon="1.75928">
        <ele>1646</ele>
        <time>2016-09-10T12:05:17Z</time>
      </trkpt>
      <trkpt lat="42.72221" lon="1.75922">
        <ele>1647</ele>
        <time>2016-09-10T12:05:24Z</time>
      </trkpt>
      <trkpt lat="42.72221" lon="1.75918">
        <ele>1647</ele>
        <time>2016-09-10T12:05:27Z</time>
      </trkpt>
      <trkpt lat="42.72221" lon="1.75918">
        <ele>1647</ele>
        <time>2016-09-10T12:05:28Z</time>
      </trkpt>
      <trkpt lat="42.72221" lon="1.75918">
        <ele>1647</ele>
        <time>2016-09-10T12:05:29Z</time>
      </trkpt>
      <trkpt lat="42.72221" lon="1.75918">
        <ele>1647</ele>
        <time>2016-09-10T12:05:30Z</time>
      </trkpt>
      <trkpt lat="42.72221" lon="1.75918">
        <ele>1647</ele>
        <time>2016-09-10T12:05:31Z</time>
      </trkpt>
      <trkpt lat="42.72219" lon="1.75913">
        <ele>1648</ele>
        <time>2016-09-10T12:05:39Z</time>
      </trkpt>
      <trkpt lat="42.72219" lon="1.75913">
        <ele>1648</ele>
        <time>2016-09-10T12:05:40Z</time>
      </trkpt>
      <trkpt lat="42.72219" lon="1.75913">
        <ele>1648</ele>
        <time>2016-09-10T12:05:41Z</time>
      </trkpt>
      <trkpt lat="42.72219" lon="1.75911">
        <ele>1648</ele>
        <time>2016-09-10T12:05:42Z</time>
      </trkpt>
      <trkpt lat="42.72219" lon="1.75909">
        <ele>1649</ele>
        <time>2016-09-10T12:05:43Z</time>
      </trkpt>
      <trkpt lat="42.72219" lon="1.75907">
        <ele>1649</ele>
        <time>2016-09-10T12:05:44Z</time>
      </trkpt>
      <trkpt lat="42.72217" lon="1.75903">
        <ele>1650</ele>
        <time>2016-09-10T12:05:48Z</time>
      </trkpt>
      <trkpt lat="42.72213" lon="1.75898">
        <ele>1651</ele>
        <time>2016-09-10T12:05:56Z</time>
      </trkpt>
      <trkpt lat="42.72211" lon="1.75896">
        <ele>1652</ele>
        <time>2016-09-10T12:06:02Z</time>
      </trkpt>
      <trkpt lat="42.7221" lon="1.75897">
        <ele>1652</ele>
        <time>2016-09-10T12:06:09Z</time>
      </trkpt>
      <trkpt lat="42.7221" lon="1.75897">
        <ele>1652</ele>
        <time>2016-09-10T12:06:10Z</time>
      </trkpt>
      <trkpt lat="42.7221" lon="1.75897">
        <ele>1652</ele>
        <time>2016-09-10T12:06:11Z</time>
      </trkpt>
      <trkpt lat="42.7221" lon="1.75897">
        <ele>1652</ele>
        <time>2016-09-10T12:06:12Z</time>
      </trkpt>
      <trkpt lat="42.7221" lon="1.75897">
        <ele>1652</ele>
        <time>2016-09-10T12:06:13Z</time>
      </trkpt>
      <trkpt lat="42.72206" lon="1.75892">
        <ele>1653</ele>
        <time>2016-09-10T12:06:18Z</time>
      </trkpt>
      <trkpt lat="42.72205" lon="1.7589">
        <ele>1654</ele>
        <time>2016-09-10T12:06:22Z</time>
      </trkpt>
      <trkpt lat="42.72205" lon="1.7589">
        <ele>1654</ele>
        <time>2016-09-10T12:06:23Z</time>
      </trkpt>
      <trkpt lat="42.72205" lon="1.7589">
        <ele>1654</ele>
        <time>2016-09-10T12:06:24Z</time>
      </trkpt>
      <trkpt lat="42.72205" lon="1.7589">
        <ele>1654</ele>
        <time>2016-09-10T12:06:25Z</time>
      </trkpt>
      <trkpt lat="42.72205" lon="1.7589">
        <ele>1654</ele>
        <time>2016-09-10T12:06:26Z</time>
      </trkpt>
      <trkpt lat="42.72205" lon="1.7589">
        <ele>1654</ele>
        <time>2016-09-10T12:06:40Z</time>
      </trkpt>
      <trkpt lat="42.72201" lon="1.75883">
        <ele>1655</ele>
        <time>2016-09-10T12:06:48Z</time>
      </trkpt>
      <trkpt lat="42.72199" lon="1.75882">
        <ele>1656</ele>
        <time>2016-09-10T12:06:57Z</time>
      </trkpt>
      <trkpt lat="42.72194" lon="1.75882">
        <ele>1657</ele>
        <time>2016-09-10T12:07:02Z</time>
      </trkpt>
      <trkpt lat="42.72194" lon="1.75882">
        <ele>1657</ele>
        <time>2016-09-10T12:07:03Z</time>
      </trkpt>
      <trkpt lat="42.72194" lon="1.75883">
        <ele>1657</ele>
        <time>2016-09-10T12:07:04Z</time>
      </trkpt>
      <trkpt lat="42.72194" lon="1.75883">
        <ele>1657</ele>
        <time>2016-09-10T12:07:05Z</time>
      </trkpt>
      <trkpt lat="42.72194" lon="1.75883">
        <ele>1657</ele>
        <time>2016-09-10T12:07:06Z</time>
      </trkpt>
      <trkpt lat="42.72192" lon="1.75884">
        <ele>1657</ele>
        <time>2016-09-10T12:07:14Z</time>
      </trkpt>
      <trkpt lat="42.72192" lon="1.75884">
        <ele>1657</ele>
        <time>2016-09-10T12:07:15Z</time>
      </trkpt>
      <trkpt lat="42.72192" lon="1.75884">
        <ele>1657</ele>
        <time>2016-09-10T12:07:16Z</time>
      </trkpt>
      <trkpt lat="42.72192" lon="1.75884">
        <ele>1657</ele>
        <time>2016-09-10T12:07:17Z</time>
      </trkpt>
      <trkpt lat="42.72192" lon="1.75884">
        <ele>1657</ele>
        <time>2016-09-10T12:07:18Z</time>
      </trkpt>
      <trkpt lat="42.72192" lon="1.75884">
        <ele>1657</ele>
        <time>2016-09-10T12:07:19Z</time>
      </trkpt>
      <trkpt lat="42.72192" lon="1.75886">
        <ele>1656</ele>
        <time>2016-09-10T12:07:22Z</time>
      </trkpt>
      <trkpt lat="42.72193" lon="1.75887">
        <ele>1656</ele>
        <time>2016-09-10T12:07:30Z</time>
      </trkpt>
      <trkpt lat="42.72188" lon="1.7589">
        <ele>1656</ele>
        <time>2016-09-10T12:07:36Z</time>
      </trkpt>
      <trkpt lat="42.7218" lon="1.759">
        <ele>1656</ele>
        <time>2016-09-10T12:07:43Z</time>
      </trkpt>
      <trkpt lat="42.72175" lon="1.75908">
        <ele>1656</ele>
        <time>2016-09-10T12:07:51Z</time>
      </trkpt>
      <trkpt lat="42.72172" lon="1.75914">
        <ele>1656</ele>
        <time>2016-09-10T12:07:58Z</time>
      </trkpt>
      <trkpt lat="42.72172" lon="1.75914">
        <ele>1656</ele>
        <time>2016-09-10T12:08:00Z</time>
      </trkpt>
      <trkpt lat="42.72172" lon="1.75914">
        <ele>1656</ele>
        <time>2016-09-10T12:08:01Z</time>
      </trkpt>
      <trkpt lat="42.72172" lon="1.75914">
        <ele>1656</ele>
        <time>2016-09-10T12:08:02Z</time>
      </trkpt>
      <trkpt lat="42.72172" lon="1.75914">
        <ele>1656</ele>
        <time>2016-09-10T12:08:03Z</time>
      </trkpt>
      <trkpt lat="42.72172" lon="1.75914">
        <ele>1656</ele>
        <time>2016-09-10T12:08:04Z</time>
      </trkpt>
      <trkpt lat="42.72172" lon="1.75916">
        <ele>1656</ele>
        <time>2016-09-10T12:08:08Z</time>
      </trkpt>
      <trkpt lat="42.72171" lon="1.75921">
        <ele>1655</ele>
        <time>2016-09-10T12:08:16Z</time>
      </trkpt>
      <trkpt lat="42.72168" lon="1.75932">
        <ele>1656</ele>
        <time>2016-09-10T12:08:25Z</time>
      </trkpt>
      <trkpt lat="42.72168" lon="1.75932">
        <ele>1656</ele>
        <time>2016-09-10T12:08:34Z</time>
      </trkpt>
      <trkpt lat="42.72163" lon="1.75939">
        <ele>1656</ele>
        <time>2016-09-10T12:08:39Z</time>
      </trkpt>
      <trkpt lat="42.72163" lon="1.75939">
        <ele>1656</ele>
        <time>2016-09-10T12:08:40Z</time>
      </trkpt>
      <trkpt lat="42.72163" lon="1.75939">
        <ele>1656</ele>
        <time>2016-09-10T12:08:41Z</time>
      </trkpt>
      <trkpt lat="42.72162" lon="1.7594">
        <ele>1657</ele>
        <time>2016-09-10T12:08:42Z</time>
      </trkpt>
      <trkpt lat="42.72161" lon="1.75942">
        <ele>1657</ele>
        <time>2016-09-10T12:08:43Z</time>
      </trkpt>
      <trkpt lat="42.72161" lon="1.75942">
        <ele>1657</ele>
        <time>2016-09-10T12:08:44Z</time>
      </trkpt>
      <trkpt lat="42.72159" lon="1.75944">
        <ele>1657</ele>
        <time>2016-09-10T12:08:53Z</time>
      </trkpt>
      <trkpt lat="42.72158" lon="1.75944">
        <ele>1658</ele>
        <time>2016-09-10T12:09:05Z</time>
      </trkpt>
      <trkpt lat="42.72156" lon="1.7595">
        <ele>1658</ele>
        <time>2016-09-10T12:09:15Z</time>
      </trkpt>
      <trkpt lat="42.72156" lon="1.75952">
        <ele>1658</ele>
        <time>2016-09-10T12:09:16Z</time>
      </trkpt>
      <trkpt lat="42.72155" lon="1.75953">
        <ele>1658</ele>
        <time>2016-09-10T12:09:17Z</time>
      </trkpt>
      <trkpt lat="42.72155" lon="1.75953">
        <ele>1658</ele>
        <time>2016-09-10T12:09:18Z</time>
      </trkpt>
      <trkpt lat="42.72154" lon="1.75956">
        <ele>1658</ele>
        <time>2016-09-10T12:09:19Z</time>
      </trkpt>
      <trkpt lat="42.72151" lon="1.75959">
        <ele>1658</ele>
        <time>2016-09-10T12:09:24Z</time>
      </trkpt>
      <trkpt lat="42.72148" lon="1.75962">
        <ele>1659</ele>
        <time>2016-09-10T12:09:29Z</time>
      </trkpt>
      <trkpt lat="42.72148" lon="1.75962">
        <ele>1659</ele>
        <time>2016-09-10T12:09:30Z</time>
      </trkpt>
      <trkpt lat="42.72148" lon="1.75964">
        <ele>1659</ele>
        <time>2016-09-10T12:09:31Z</time>
      </trkpt>
      <trkpt lat="42.72147" lon="1.75965">
        <ele>1659</ele>
        <time>2016-09-10T12:09:32Z</time>
      </trkpt>
      <trkpt lat="42.72147" lon="1.75966">
        <ele>1659</ele>
        <time>2016-09-10T12:09:33Z</time>
      </trkpt>
      <trkpt lat="42.72146" lon="1.75967">
        <ele>1660</ele>
        <time>2016-09-10T12:09:34Z</time>
      </trkpt>
      <trkpt lat="42.72141" lon="1.75967">
        <ele>1661</ele>
        <time>2016-09-10T12:09:40Z</time>
      </trkpt>
      <trkpt lat="42.7214" lon="1.75968">
        <ele>1662</ele>
        <time>2016-09-10T12:09:41Z</time>
      </trkpt>
      <trkpt lat="42.7214" lon="1.75968">
        <ele>1662</ele>
        <time>2016-09-10T12:09:42Z</time>
      </trkpt>
      <trkpt lat="42.7214" lon="1.75968">
        <ele>1662</ele>
        <time>2016-09-10T12:09:43Z</time>
      </trkpt>
      <trkpt lat="42.7214" lon="1.75968">
        <ele>1662</ele>
        <time>2016-09-10T12:09:49Z</time>
      </trkpt>
      <trkpt lat="42.72138" lon="1.7598">
        <ele>1661</ele>
        <time>2016-09-10T12:09:57Z</time>
      </trkpt>
      <trkpt lat="42.72138" lon="1.75982">
        <ele>1660</ele>
        <time>2016-09-10T12:09:58Z</time>
      </trkpt>
      <trkpt lat="42.72137" lon="1.75984">
        <ele>1660</ele>
        <time>2016-09-10T12:09:59Z</time>
      </trkpt>
      <trkpt lat="42.72136" lon="1.75987">
        <ele>1660</ele>
        <time>2016-09-10T12:10:00Z</time>
      </trkpt>
      <trkpt lat="42.72136" lon="1.75988">
        <ele>1660</ele>
        <time>2016-09-10T12:10:01Z</time>
      </trkpt>
      <trkpt lat="42.72134" lon="1.75991">
        <ele>1661</ele>
        <time>2016-09-10T12:10:05Z</time>
      </trkpt>
      <trkpt lat="42.72125" lon="1.75994">
        <ele>1664</ele>
        <time>2016-09-10T12:10:14Z</time>
      </trkpt>
      <trkpt lat="42.7212" lon="1.75998">
        <ele>1665</ele>
        <time>2016-09-10T12:10:20Z</time>
      </trkpt>
      <trkpt lat="42.72118" lon="1.76">
        <ele>1665</ele>
        <time>2016-09-10T12:10:21Z</time>
      </trkpt>
      <trkpt lat="42.72119" lon="1.76">
        <ele>1665</ele>
        <time>2016-09-10T12:10:22Z</time>
      </trkpt>
      <trkpt lat="42.72118" lon="1.76001">
        <ele>1665</ele>
        <time>2016-09-10T12:10:23Z</time>
      </trkpt>
      <trkpt lat="42.72117" lon="1.76002">
        <ele>1665</ele>
        <time>2016-09-10T12:10:24Z</time>
      </trkpt>
      <trkpt lat="42.72117" lon="1.76002">
        <ele>1666</ele>
        <time>2016-09-10T12:10:25Z</time>
      </trkpt>
      <trkpt lat="42.72116" lon="1.76004">
        <ele>1666</ele>
        <time>2016-09-10T12:10:27Z</time>
      </trkpt>
      <trkpt lat="42.72114" lon="1.76005">
        <ele>1666</ele>
        <time>2016-09-10T12:10:34Z</time>
      </trkpt>
      <trkpt lat="42.72111" lon="1.76011">
        <ele>1666</ele>
        <time>2016-09-10T12:10:40Z</time>
      </trkpt>
      <trkpt lat="42.72109" lon="1.76016">
        <ele>1666</ele>
        <time>2016-09-10T12:10:46Z</time>
      </trkpt>
      <trkpt lat="42.72108" lon="1.76017">
        <ele>1667</ele>
        <time>2016-09-10T12:10:47Z</time>
      </trkpt>
      <trkpt lat="42.72107" lon="1.76019">
        <ele>1667</ele>
        <time>2016-09-10T12:10:48Z</time>
      </trkpt>
      <trkpt lat="42.72106" lon="1.7602">
        <ele>1667</ele>
        <time>2016-09-10T12:10:49Z</time>
      </trkpt>
      <trkpt lat="42.72105" lon="1.76021">
        <ele>1667</ele>
        <time>2016-09-10T12:10:50Z</time>
      </trkpt>
      <trkpt lat="42.72103" lon="1.76023">
        <ele>1668</ele>
        <time>2016-09-10T12:10:51Z</time>
      </trkpt>
      <trkpt lat="42.72103" lon="1.76023">
        <ele>1668</ele>
        <time>2016-09-10T12:10:52Z</time>
      </trkpt>
      <trkpt lat="42.72097" lon="1.7603">
        <ele>1669</ele>
        <time>2016-09-10T12:10:59Z</time>
      </trkpt>
      <trkpt lat="42.72094" lon="1.76035">
        <ele>1669</ele>
        <time>2016-09-10T12:11:06Z</time>
      </trkpt>
      <trkpt lat="42.72093" lon="1.76035">
        <ele>1669</ele>
        <time>2016-09-10T12:11:07Z</time>
      </trkpt>
      <trkpt lat="42.72092" lon="1.76036">
        <ele>1669</ele>
        <time>2016-09-10T12:11:08Z</time>
      </trkpt>
      <trkpt lat="42.72092" lon="1.76036">
        <ele>1670</ele>
        <time>2016-09-10T12:11:09Z</time>
      </trkpt>
      <trkpt lat="42.72089" lon="1.76039">
        <ele>1670</ele>
        <time>2016-09-10T12:11:10Z</time>
      </trkpt>
      <trkpt lat="42.72088" lon="1.76043">
        <ele>1670</ele>
        <time>2016-09-10T12:11:14Z</time>
      </trkpt>
      <trkpt lat="42.72083" lon="1.76047">
        <ele>1671</ele>
        <time>2016-09-10T12:11:20Z</time>
      </trkpt>
      <trkpt lat="42.7208" lon="1.76048">
        <ele>1671</ele>
        <time>2016-09-10T12:11:26Z</time>
      </trkpt>
      <trkpt lat="42.72074" lon="1.76053">
        <ele>1672</ele>
        <time>2016-09-10T12:11:33Z</time>
      </trkpt>
      <trkpt lat="42.72069" lon="1.76059">
        <ele>1673</ele>
        <time>2016-09-10T12:11:38Z</time>
      </trkpt>
      <trkpt lat="42.72065" lon="1.76062">
        <ele>1673</ele>
        <time>2016-09-10T12:11:41Z</time>
      </trkpt>
      <trkpt lat="42.72058" lon="1.76073">
        <ele>1674</ele>
        <time>2016-09-10T12:11:49Z</time>
      </trkpt>
      <trkpt lat="42.72054" lon="1.76079">
        <ele>1674</ele>
        <time>2016-09-10T12:11:56Z</time>
      </trkpt>
      <trkpt lat="42.72052" lon="1.76084">
        <ele>1674</ele>
        <time>2016-09-10T12:12:02Z</time>
      </trkpt>
      <trkpt lat="42.7205" lon="1.76088">
        <ele>1674</ele>
        <time>2016-09-10T12:12:05Z</time>
      </trkpt>
      <trkpt lat="42.72049" lon="1.76089">
        <ele>1674</ele>
        <time>2016-09-10T12:12:06Z</time>
      </trkpt>
      <trkpt lat="42.72049" lon="1.7609">
        <ele>1674</ele>
        <time>2016-09-10T12:12:07Z</time>
      </trkpt>
      <trkpt lat="42.72049" lon="1.7609">
        <ele>1674</ele>
        <time>2016-09-10T12:12:08Z</time>
      </trkpt>
      <trkpt lat="42.72048" lon="1.76091">
        <ele>1674</ele>
        <time>2016-09-10T12:12:09Z</time>
      </trkpt>
      <trkpt lat="42.72046" lon="1.76088">
        <ele>1675</ele>
        <time>2016-09-10T12:12:12Z</time>
      </trkpt>
      <trkpt lat="42.72046" lon="1.76087">
        <ele>1675</ele>
        <time>2016-09-10T12:12:13Z</time>
      </trkpt>
      <trkpt lat="42.72043" lon="1.76081">
        <ele>1676</ele>
        <time>2016-09-10T12:12:19Z</time>
      </trkpt>
      <trkpt lat="42.72042" lon="1.76075">
        <ele>1677</ele>
        <time>2016-09-10T12:12:24Z</time>
      </trkpt>
      <trkpt lat="42.72041" lon="1.76074">
        <ele>1678</ele>
        <time>2016-09-10T12:12:25Z</time>
      </trkpt>
      <trkpt lat="42.72041" lon="1.76073">
        <ele>1678</ele>
        <time>2016-09-10T12:12:26Z</time>
      </trkpt>
      <trkpt lat="42.72041" lon="1.76071">
        <ele>1678</ele>
        <time>2016-09-10T12:12:27Z</time>
      </trkpt>
      <trkpt lat="42.72041" lon="1.7607">
        <ele>1678</ele>
        <time>2016-09-10T12:12:28Z</time>
      </trkpt>
      <trkpt lat="42.72041" lon="1.76069">
        <ele>1678</ele>
        <time>2016-09-10T12:12:29Z</time>
      </trkpt>
      <trkpt lat="42.72042" lon="1.76067">
        <ele>1678</ele>
        <time>2016-09-10T12:12:31Z</time>
      </trkpt>
      <trkpt lat="42.72042" lon="1.76062">
        <ele>1679</ele>
        <time>2016-09-10T12:12:36Z</time>
      </trkpt>
      <trkpt lat="42.72043" lon="1.76054">
        <ele>1679</ele>
        <time>2016-09-10T12:12:41Z</time>
      </trkpt>
      <trkpt lat="42.72043" lon="1.76051">
        <ele>1679</ele>
        <time>2016-09-10T12:12:44Z</time>
      </trkpt>
      <trkpt lat="42.72043" lon="1.76049">
        <ele>1680</ele>
        <time>2016-09-10T12:12:45Z</time>
      </trkpt>
      <trkpt lat="42.72043" lon="1.76048">
        <ele>1680</ele>
        <time>2016-09-10T12:12:46Z</time>
      </trkpt>
      <trkpt lat="42.72043" lon="1.76048">
        <ele>1680</ele>
        <time>2016-09-10T12:12:47Z</time>
      </trkpt>
      <trkpt lat="42.72043" lon="1.76046">
        <ele>1680</ele>
        <time>2016-09-10T12:12:48Z</time>
      </trkpt>
      <trkpt lat="42.72043" lon="1.76043">
        <ele>1680</ele>
        <time>2016-09-10T12:12:51Z</time>
      </trkpt>
      <trkpt lat="42.72043" lon="1.76042">
        <ele>1680</ele>
        <time>2016-09-10T12:12:55Z</time>
      </trkpt>
      <trkpt lat="42.72043" lon="1.76042">
        <ele>1680</ele>
        <time>2016-09-10T12:12:56Z</time>
      </trkpt>
      <trkpt lat="42.72043" lon="1.76042">
        <ele>1680</ele>
        <time>2016-09-10T12:12:57Z</time>
      </trkpt>
      <trkpt lat="42.72043" lon="1.76042">
        <ele>1680</ele>
        <time>2016-09-10T12:12:58Z</time>
      </trkpt>
      <trkpt lat="42.72044" lon="1.76041">
        <ele>1680</ele>
        <time>2016-09-10T12:12:59Z</time>
      </trkpt>
      <trkpt lat="42.72044" lon="1.76039">
        <ele>1681</ele>
        <time>2016-09-10T12:13:01Z</time>
      </trkpt>
      <trkpt lat="42.72044" lon="1.76035">
        <ele>1681</ele>
        <time>2016-09-10T12:13:05Z</time>
      </trkpt>
      <trkpt lat="42.72043" lon="1.76034">
        <ele>1681</ele>
        <time>2016-09-10T12:13:06Z</time>
      </trkpt>
      <trkpt lat="42.72044" lon="1.76029">
        <ele>1682</ele>
        <time>2016-09-10T12:13:11Z</time>
      </trkpt>
      <trkpt lat="42.72045" lon="1.76024">
        <ele>1682</ele>
        <time>2016-09-10T12:13:14Z</time>
      </trkpt>
      <trkpt lat="42.72045" lon="1.76023">
        <ele>1682</ele>
        <time>2016-09-10T12:13:15Z</time>
      </trkpt>
      <trkpt lat="42.72045" lon="1.76021">
        <ele>1683</ele>
        <time>2016-09-10T12:13:16Z</time>
      </trkpt>
      <trkpt lat="42.72045" lon="1.7602">
        <ele>1683</ele>
        <time>2016-09-10T12:13:17Z</time>
      </trkpt>
      <trkpt lat="42.72045" lon="1.76019">
        <ele>1683</ele>
        <time>2016-09-10T12:13:18Z</time>
      </trkpt>
      <trkpt lat="42.72045" lon="1.76015">
        <ele>1684</ele>
        <time>2016-09-10T12:13:21Z</time>
      </trkpt>
      <trkpt lat="42.72046" lon="1.76006">
        <ele>1685</ele>
        <time>2016-09-10T12:13:27Z</time>
      </trkpt>
      <trkpt lat="42.72045" lon="1.76005">
        <ele>1685</ele>
        <time>2016-09-10T12:13:29Z</time>
      </trkpt>
      <trkpt lat="42.72044" lon="1.76005">
        <ele>1685</ele>
        <time>2016-09-10T12:13:30Z</time>
      </trkpt>
      <trkpt lat="42.72043" lon="1.76003">
        <ele>1686</ele>
        <time>2016-09-10T12:13:31Z</time>
      </trkpt>
      <trkpt lat="42.72042" lon="1.76002">
        <ele>1686</ele>
        <time>2016-09-10T12:13:32Z</time>
      </trkpt>
      <trkpt lat="42.72042" lon="1.76001">
        <ele>1686</ele>
        <time>2016-09-10T12:13:33Z</time>
      </trkpt>
      <trkpt lat="42.72041" lon="1.75998">
        <ele>1687</ele>
        <time>2016-09-10T12:13:35Z</time>
      </trkpt>
      <trkpt lat="42.72039" lon="1.75995">
        <ele>1687</ele>
        <time>2016-09-10T12:13:38Z</time>
      </trkpt>
      <trkpt lat="42.72038" lon="1.75994">
        <ele>1688</ele>
        <time>2016-09-10T12:13:39Z</time>
      </trkpt>
      <trkpt lat="42.72037" lon="1.75991">
        <ele>1688</ele>
        <time>2016-09-10T12:13:42Z</time>
      </trkpt>
      <trkpt lat="42.72037" lon="1.75991">
        <ele>1688</ele>
        <time>2016-09-10T12:13:43Z</time>
      </trkpt>
      <trkpt lat="42.72036" lon="1.7599">
        <ele>1689</ele>
        <time>2016-09-10T12:13:44Z</time>
      </trkpt>
      <trkpt lat="42.72035" lon="1.75989">
        <ele>1689</ele>
        <time>2016-09-10T12:13:45Z</time>
      </trkpt>
      <trkpt lat="42.72035" lon="1.75988">
        <ele>1689</ele>
        <time>2016-09-10T12:13:46Z</time>
      </trkpt>
      <trkpt lat="42.72035" lon="1.75984">
        <ele>1689</ele>
        <time>2016-09-10T12:13:50Z</time>
      </trkpt>
      <trkpt lat="42.72034" lon="1.7598">
        <ele>1690</ele>
        <time>2016-09-10T12:13:56Z</time>
      </trkpt>
      <trkpt lat="42.72034" lon="1.75976">
        <ele>1690</ele>
        <time>2016-09-10T12:13:59Z</time>
      </trkpt>
      <trkpt lat="42.72034" lon="1.75975">
        <ele>1690</ele>
        <time>2016-09-10T12:14:00Z</time>
      </trkpt>
      <trkpt lat="42.72034" lon="1.75973">
        <ele>1690</ele>
        <time>2016-09-10T12:14:02Z</time>
      </trkpt>
      <trkpt lat="42.72034" lon="1.75972">
        <ele>1690</ele>
        <time>2016-09-10T12:14:03Z</time>
      </trkpt>
      <trkpt lat="42.72033" lon="1.75971">
        <ele>1690</ele>
        <time>2016-09-10T12:14:04Z</time>
      </trkpt>
      <trkpt lat="42.72033" lon="1.7597">
        <ele>1690</ele>
        <time>2016-09-10T12:14:05Z</time>
      </trkpt>
      <trkpt lat="42.72033" lon="1.75969">
        <ele>1690</ele>
        <time>2016-09-10T12:14:06Z</time>
      </trkpt>
      <trkpt lat="42.72033" lon="1.75964">
        <ele>1691</ele>
        <time>2016-09-10T12:14:10Z</time>
      </trkpt>
      <trkpt lat="42.72033" lon="1.75963">
        <ele>1691</ele>
        <time>2016-09-10T12:14:16Z</time>
      </trkpt>
      <trkpt lat="42.72033" lon="1.75962">
        <ele>1691</ele>
        <time>2016-09-10T12:14:18Z</time>
      </trkpt>
      <trkpt lat="42.72032" lon="1.75959">
        <ele>1691</ele>
        <time>2016-09-10T12:14:20Z</time>
      </trkpt>
      <trkpt lat="42.72032" lon="1.75958">
        <ele>1691</ele>
        <time>2016-09-10T12:14:21Z</time>
      </trkpt>
      <trkpt lat="42.72031" lon="1.75956">
        <ele>1691</ele>
        <time>2016-09-10T12:14:22Z</time>
      </trkpt>
      <trkpt lat="42.72031" lon="1.75955">
        <ele>1692</ele>
        <time>2016-09-10T12:14:23Z</time>
      </trkpt>
      <trkpt lat="42.72031" lon="1.75954">
        <ele>1692</ele>
        <time>2016-09-10T12:14:24Z</time>
      </trkpt>
      <trkpt lat="42.7203" lon="1.75953">
        <ele>1692</ele>
        <time>2016-09-10T12:14:25Z</time>
      </trkpt>
      <trkpt lat="42.72027" lon="1.75948">
        <ele>1692</ele>
        <time>2016-09-10T12:14:31Z</time>
      </trkpt>
      <trkpt lat="42.72027" lon="1.75945">
        <ele>1693</ele>
        <time>2016-09-10T12:14:33Z</time>
      </trkpt>
      <trkpt lat="42.72025" lon="1.75943">
        <ele>1693</ele>
        <time>2016-09-10T12:14:36Z</time>
      </trkpt>
      <trkpt lat="42.72024" lon="1.7594">
        <ele>1693</ele>
        <time>2016-09-10T12:14:41Z</time>
      </trkpt>
      <trkpt lat="42.72024" lon="1.7594">
        <ele>1693</ele>
        <time>2016-09-10T12:14:43Z</time>
      </trkpt>
      <trkpt lat="42.72027" lon="1.75941">
        <ele>1693</ele>
        <time>2016-09-10T12:14:47Z</time>
      </trkpt>
      <trkpt lat="42.72027" lon="1.75942">
        <ele>1693</ele>
        <time>2016-09-10T12:14:48Z</time>
      </trkpt>
      <trkpt lat="42.72028" lon="1.75943">
        <ele>1693</ele>
        <time>2016-09-10T12:14:49Z</time>
      </trkpt>
      <trkpt lat="42.72028" lon="1.75943">
        <ele>1693</ele>
        <time>2016-09-10T12:14:50Z</time>
      </trkpt>
      <trkpt lat="42.72028" lon="1.75943">
        <ele>1693</ele>
        <time>2016-09-10T12:14:51Z</time>
      </trkpt>
      <trkpt lat="42.72028" lon="1.75943">
        <ele>1693</ele>
        <time>2016-09-10T12:14:52Z</time>
      </trkpt>
      <trkpt lat="42.72028" lon="1.75943">
        <ele>1693</ele>
        <time>2016-09-10T12:14:54Z</time>
      </trkpt>
      <trkpt lat="42.72029" lon="1.75942">
        <ele>1693</ele>
        <time>2016-09-10T12:15:04Z</time>
      </trkpt>
      <trkpt lat="42.7203" lon="1.75943">
        <ele>1692</ele>
        <time>2016-09-10T12:15:15Z</time>
      </trkpt>
      <trkpt lat="42.7203" lon="1.75944">
        <ele>1692</ele>
        <time>2016-09-10T12:15:26Z</time>
      </trkpt>
      <trkpt lat="42.7203" lon="1.75944">
        <ele>1692</ele>
        <time>2016-09-10T12:15:35Z</time>
      </trkpt>
      <trkpt lat="42.7203" lon="1.75944">
        <ele>1692</ele>
        <time>2016-09-10T12:15:48Z</time>
      </trkpt>
      <trkpt lat="42.72033" lon="1.75942">
        <ele>1692</ele>
        <time>2016-09-10T12:15:59Z</time>
      </trkpt>
      <trkpt lat="42.72034" lon="1.75942">
        <ele>1692</ele>
        <time>2016-09-10T12:16:08Z</time>
      </trkpt>
      <trkpt lat="42.72033" lon="1.75945">
        <ele>1692</ele>
        <time>2016-09-10T12:16:17Z</time>
      </trkpt>
      <trkpt lat="42.7203" lon="1.75948">
        <ele>1692</ele>
        <time>2016-09-10T12:16:29Z</time>
      </trkpt>
      <trkpt lat="42.72029" lon="1.75949">
        <ele>1692</ele>
        <time>2016-09-10T12:16:41Z</time>
      </trkpt>
      <trkpt lat="42.72029" lon="1.75943">
        <ele>1692</ele>
        <time>2016-09-10T12:16:48Z</time>
      </trkpt>
      <trkpt lat="42.72031" lon="1.75942">
        <ele>1692</ele>
        <time>2016-09-10T12:16:57Z</time>
      </trkpt>
      <trkpt lat="42.72031" lon="1.75941">
        <ele>1692</ele>
        <time>2016-09-10T12:17:11Z</time>
      </trkpt>
      <trkpt lat="42.72031" lon="1.75939">
        <ele>1693</ele>
        <time>2016-09-10T12:17:19Z</time>
      </trkpt>
      <trkpt lat="42.72032" lon="1.75939">
        <ele>1693</ele>
        <time>2016-09-10T12:17:28Z</time>
      </trkpt>
      <trkpt lat="42.72036" lon="1.7594">
        <ele>1692</ele>
        <time>2016-09-10T12:17:35Z</time>
      </trkpt>
      <trkpt lat="42.72036" lon="1.7594">
        <ele>1692</ele>
        <time>2016-09-10T12:17:42Z</time>
      </trkpt>
      <trkpt lat="42.72034" lon="1.75937">
        <ele>1692</ele>
        <time>2016-09-10T12:17:49Z</time>
      </trkpt>
      <trkpt lat="42.72032" lon="1.75935">
        <ele>1693</ele>
        <time>2016-09-10T12:17:53Z</time>
      </trkpt>
      <trkpt lat="42.72029" lon="1.75936">
        <ele>1693</ele>
        <time>2016-09-10T12:17:57Z</time>
      </trkpt>
      <trkpt lat="42.72028" lon="1.75936">
        <ele>1693</ele>
        <time>2016-09-10T12:18:00Z</time>
      </trkpt>
      <trkpt lat="42.72026" lon="1.75935">
        <ele>1693</ele>
        <time>2016-09-10T12:18:02Z</time>
      </trkpt>
      <trkpt lat="42.7202" lon="1.75935">
        <ele>1694</ele>
        <time>2016-09-10T12:18:07Z</time>
      </trkpt>
      <trkpt lat="42.72019" lon="1.75934">
        <ele>1694</ele>
        <time>2016-09-10T12:18:08Z</time>
      </trkpt>
      <trkpt lat="42.72016" lon="1.75933">
        <ele>1695</ele>
        <time>2016-09-10T12:18:12Z</time>
      </trkpt>
      <trkpt lat="42.7201" lon="1.7593">
        <ele>1696</ele>
        <time>2016-09-10T12:18:19Z</time>
      </trkpt>
      <trkpt lat="42.72009" lon="1.7593">
        <ele>1696</ele>
        <time>2016-09-10T12:18:20Z</time>
      </trkpt>
      <trkpt lat="42.72005" lon="1.75928">
        <ele>1696</ele>
        <time>2016-09-10T12:18:23Z</time>
      </trkpt>
      <trkpt lat="42.72005" lon="1.75928">
        <ele>1696</ele>
        <time>2016-09-10T12:18:24Z</time>
      </trkpt>
      <trkpt lat="42.72003" lon="1.75925">
        <ele>1697</ele>
        <time>2016-09-10T12:18:27Z</time>
      </trkpt>
      <trkpt lat="42.72002" lon="1.75924">
        <ele>1697</ele>
        <time>2016-09-10T12:18:28Z</time>
      </trkpt>
      <trkpt lat="42.72001" lon="1.75923">
        <ele>1697</ele>
        <time>2016-09-10T12:18:29Z</time>
      </trkpt>
      <trkpt lat="42.72001" lon="1.75921">
        <ele>1697</ele>
        <time>2016-09-10T12:18:30Z</time>
      </trkpt>
      <trkpt lat="42.72" lon="1.7592">
        <ele>1697</ele>
        <time>2016-09-10T12:18:31Z</time>
      </trkpt>
      <trkpt lat="42.72" lon="1.75912">
        <ele>1697</ele>
        <time>2016-09-10T12:18:37Z</time>
      </trkpt>
      <trkpt lat="42.72001" lon="1.7591">
        <ele>1697</ele>
        <time>2016-09-10T12:18:38Z</time>
      </trkpt>
      <trkpt lat="42.72001" lon="1.75907">
        <ele>1697</ele>
        <time>2016-09-10T12:18:41Z</time>
      </trkpt>
      <trkpt lat="42.72" lon="1.75906">
        <ele>1697</ele>
        <time>2016-09-10T12:18:45Z</time>
      </trkpt>
      <trkpt lat="42.71999" lon="1.75905">
        <ele>1697</ele>
        <time>2016-09-10T12:18:46Z</time>
      </trkpt>
      <trkpt lat="42.71998" lon="1.75903">
        <ele>1697</ele>
        <time>2016-09-10T12:18:47Z</time>
      </trkpt>
      <trkpt lat="42.71997" lon="1.75898">
        <ele>1697</ele>
        <time>2016-09-10T12:18:51Z</time>
      </trkpt>
      <trkpt lat="42.71996" lon="1.7589">
        <ele>1697</ele>
        <time>2016-09-10T12:18:57Z</time>
      </trkpt>
      <trkpt lat="42.71997" lon="1.75889">
        <ele>1697</ele>
        <time>2016-09-10T12:18:58Z</time>
      </trkpt>
      <trkpt lat="42.71997" lon="1.75885">
        <ele>1697</ele>
        <time>2016-09-10T12:19:01Z</time>
      </trkpt>
      <trkpt lat="42.71996" lon="1.75883">
        <ele>1697</ele>
        <time>2016-09-10T12:19:02Z</time>
      </trkpt>
      <trkpt lat="42.71996" lon="1.7588">
        <ele>1697</ele>
        <time>2016-09-10T12:19:04Z</time>
      </trkpt>
      <trkpt lat="42.71995" lon="1.75876">
        <ele>1698</ele>
        <time>2016-09-10T12:19:07Z</time>
      </trkpt>
      <trkpt lat="42.71994" lon="1.75875">
        <ele>1698</ele>
        <time>2016-09-10T12:19:08Z</time>
      </trkpt>
      <trkpt lat="42.71994" lon="1.75874">
        <ele>1698</ele>
        <time>2016-09-10T12:19:09Z</time>
      </trkpt>
      <trkpt lat="42.71992" lon="1.75873">
        <ele>1698</ele>
        <time>2016-09-10T12:19:10Z</time>
      </trkpt>
      <trkpt lat="42.71991" lon="1.75872">
        <ele>1698</ele>
        <time>2016-09-10T12:19:11Z</time>
      </trkpt>
      <trkpt lat="42.7199" lon="1.75872">
        <ele>1698</ele>
        <time>2016-09-10T12:19:12Z</time>
      </trkpt>
      <trkpt lat="42.71986" lon="1.7587">
        <ele>1699</ele>
        <time>2016-09-10T12:19:17Z</time>
      </trkpt>
      <trkpt lat="42.71983" lon="1.75867">
        <ele>1699</ele>
        <time>2016-09-10T12:19:22Z</time>
      </trkpt>
      <trkpt lat="42.71979" lon="1.75863">
        <ele>1699</ele>
        <time>2016-09-10T12:19:28Z</time>
      </trkpt>
      <trkpt lat="42.71974" lon="1.75861">
        <ele>1700</ele>
        <time>2016-09-10T12:19:33Z</time>
      </trkpt>
      <trkpt lat="42.71969" lon="1.75857">
        <ele>1700</ele>
        <time>2016-09-10T12:19:39Z</time>
      </trkpt>
      <trkpt lat="42.71969" lon="1.75856">
        <ele>1700</ele>
        <time>2016-09-10T12:19:45Z</time>
      </trkpt>
      <trkpt lat="42.71969" lon="1.75856">
        <ele>1700</ele>
        <time>2016-09-10T12:19:46Z</time>
      </trkpt>
      <trkpt lat="42.71969" lon="1.75856">
        <ele>1700</ele>
        <time>2016-09-10T12:19:47Z</time>
      </trkpt>
      <trkpt lat="42.71969" lon="1.75856">
        <ele>1700</ele>
        <time>2016-09-10T12:19:48Z</time>
      </trkpt>
      <trkpt lat="42.71969" lon="1.75856">
        <ele>1700</ele>
        <time>2016-09-10T12:19:49Z</time>
      </trkpt>
      <trkpt lat="42.71969" lon="1.75856">
        <ele>1700</ele>
        <time>2016-09-10T12:19:50Z</time>
      </trkpt>
      <trkpt lat="42.71969" lon="1.75856">
        <ele>1700</ele>
        <time>2016-09-10T12:20:00Z</time>
      </trkpt>
      <trkpt lat="42.71966" lon="1.75857">
        <ele>1700</ele>
        <time>2016-09-10T12:20:03Z</time>
      </trkpt>
      <trkpt lat="42.71963" lon="1.75856">
        <ele>1701</ele>
        <time>2016-09-10T12:20:05Z</time>
      </trkpt>
      <trkpt lat="42.71958" lon="1.75856">
        <ele>1701</ele>
        <time>2016-09-10T12:20:10Z</time>
      </trkpt>
      <trkpt lat="42.71956" lon="1.75855">
        <ele>1701</ele>
        <time>2016-09-10T12:20:11Z</time>
      </trkpt>
      <trkpt lat="42.71954" lon="1.75854">
        <ele>1702</ele>
        <time>2016-09-10T12:20:14Z</time>
      </trkpt>
      <trkpt lat="42.71953" lon="1.75854">
        <ele>1702</ele>
        <time>2016-09-10T12:20:15Z</time>
      </trkpt>
      <trkpt lat="42.71949" lon="1.75853">
        <ele>1702</ele>
        <time>2016-09-10T12:20:19Z</time>
      </trkpt>
      <trkpt lat="42.71945" lon="1.7585">
        <ele>1702</ele>
        <time>2016-09-10T12:20:24Z</time>
      </trkpt>
      <trkpt lat="42.71943" lon="1.75848">
        <ele>1702</ele>
        <time>2016-09-10T12:20:26Z</time>
      </trkpt>
      <trkpt lat="42.71942" lon="1.75846">
        <ele>1702</ele>
        <time>2016-09-10T12:20:28Z</time>
      </trkpt>
      <trkpt lat="42.71941" lon="1.75844">
        <ele>1702</ele>
        <time>2016-09-10T12:20:29Z</time>
      </trkpt>
      <trkpt lat="42.7194" lon="1.75843">
        <ele>1702</ele>
        <time>2016-09-10T12:20:30Z</time>
      </trkpt>
      <trkpt lat="42.7194" lon="1.75842">
        <ele>1703</ele>
        <time>2016-09-10T12:20:31Z</time>
      </trkpt>
      <trkpt lat="42.71939" lon="1.75841">
        <ele>1703</ele>
        <time>2016-09-10T12:20:32Z</time>
      </trkpt>
      <trkpt lat="42.71937" lon="1.75835">
        <ele>1702</ele>
        <time>2016-09-10T12:20:36Z</time>
      </trkpt>
      <trkpt lat="42.71934" lon="1.75827">
        <ele>1703</ele>
        <time>2016-09-10T12:20:41Z</time>
      </trkpt>
      <trkpt lat="42.71931" lon="1.7582">
        <ele>1703</ele>
        <time>2016-09-10T12:20:46Z</time>
      </trkpt>
      <trkpt lat="42.71929" lon="1.75814">
        <ele>1703</ele>
        <time>2016-09-10T12:20:51Z</time>
      </trkpt>
      <trkpt lat="42.7193" lon="1.75814">
        <ele>1703</ele>
        <time>2016-09-10T12:20:56Z</time>
      </trkpt>
      <trkpt lat="42.71928" lon="1.75811">
        <ele>1703</ele>
        <time>2016-09-10T12:21:02Z</time>
      </trkpt>
      <trkpt lat="42.71925" lon="1.75804">
        <ele>1703</ele>
        <time>2016-09-10T12:21:07Z</time>
      </trkpt>
      <trkpt lat="42.71922" lon="1.75799">
        <ele>1703</ele>
        <time>2016-09-10T12:21:11Z</time>
      </trkpt>
      <trkpt lat="42.71918" lon="1.75794">
        <ele>1703</ele>
        <time>2016-09-10T12:21:16Z</time>
      </trkpt>
      <trkpt lat="42.71913" lon="1.75788">
        <ele>1703</ele>
        <time>2016-09-10T12:21:21Z</time>
      </trkpt>
      <trkpt lat="42.71909" lon="1.75782">
        <ele>1703</ele>
        <time>2016-09-10T12:21:26Z</time>
      </trkpt>
      <trkpt lat="42.71902" lon="1.75774">
        <ele>1703</ele>
        <time>2016-09-10T12:21:33Z</time>
      </trkpt>
      <trkpt lat="42.71901" lon="1.75771">
        <ele>1703</ele>
        <time>2016-09-10T12:21:35Z</time>
      </trkpt>
      <trkpt lat="42.71898" lon="1.75767">
        <ele>1703</ele>
        <time>2016-09-10T12:21:38Z</time>
      </trkpt>
      <trkpt lat="42.71894" lon="1.75762">
        <ele>1703</ele>
        <time>2016-09-10T12:21:43Z</time>
      </trkpt>
      <trkpt lat="42.71889" lon="1.75754">
        <ele>1703</ele>
        <time>2016-09-10T12:21:49Z</time>
      </trkpt>
      <trkpt lat="42.71884" lon="1.75747">
        <ele>1703</ele>
        <time>2016-09-10T12:21:55Z</time>
      </trkpt>
      <trkpt lat="42.71882" lon="1.75742">
        <ele>1704</ele>
        <time>2016-09-10T12:21:59Z</time>
      </trkpt>
      <trkpt lat="42.71882" lon="1.7574">
        <ele>1704</ele>
        <time>2016-09-10T12:22:00Z</time>
      </trkpt>
      <trkpt lat="42.71877" lon="1.75732">
        <ele>1705</ele>
        <time>2016-09-10T12:22:06Z</time>
      </trkpt>
      <trkpt lat="42.71872" lon="1.75723">
        <ele>1707</ele>
        <time>2016-09-10T12:22:12Z</time>
      </trkpt>
      <trkpt lat="42.71869" lon="1.75718">
        <ele>1707</ele>
        <time>2016-09-10T12:22:16Z</time>
      </trkpt>
      <trkpt lat="42.71867" lon="1.75717">
        <ele>1708</ele>
        <time>2016-09-10T12:22:17Z</time>
      </trkpt>
      <trkpt lat="42.71864" lon="1.75713">
        <ele>1709</ele>
        <time>2016-09-10T12:22:22Z</time>
      </trkpt>
      <trkpt lat="42.71863" lon="1.75708">
        <ele>1709</ele>
        <time>2016-09-10T12:22:29Z</time>
      </trkpt>
      <trkpt lat="42.71863" lon="1.75699">
        <ele>1710</ele>
        <time>2016-09-10T12:22:37Z</time>
      </trkpt>
      <trkpt lat="42.71866" lon="1.75694">
        <ele>1710</ele>
        <time>2016-09-10T12:22:45Z</time>
      </trkpt>
      <trkpt lat="42.71868" lon="1.75689">
        <ele>1709</ele>
        <time>2016-09-10T12:22:49Z</time>
      </trkpt>
      <trkpt lat="42.71871" lon="1.75684">
        <ele>1709</ele>
        <time>2016-09-10T12:22:53Z</time>
      </trkpt>
      <trkpt lat="42.71873" lon="1.75681">
        <ele>1709</ele>
        <time>2016-09-10T12:22:57Z</time>
      </trkpt>
      <trkpt lat="42.71874" lon="1.7568">
        <ele>1709</ele>
        <time>2016-09-10T12:22:58Z</time>
      </trkpt>
      <trkpt lat="42.71875" lon="1.75679">
        <ele>1709</ele>
        <time>2016-09-10T12:22:59Z</time>
      </trkpt>
      <trkpt lat="42.71876" lon="1.75678">
        <ele>1709</ele>
        <time>2016-09-10T12:23:00Z</time>
      </trkpt>
      <trkpt lat="42.71877" lon="1.75677">
        <ele>1709</ele>
        <time>2016-09-10T12:23:01Z</time>
      </trkpt>
      <trkpt lat="42.71881" lon="1.75673">
        <ele>1710</ele>
        <time>2016-09-10T12:23:06Z</time>
      </trkpt>
      <trkpt lat="42.71883" lon="1.75671">
        <ele>1710</ele>
        <time>2016-09-10T12:23:12Z</time>
      </trkpt>
      <trkpt lat="42.71883" lon="1.7567">
        <ele>1710</ele>
        <time>2016-09-10T12:23:13Z</time>
      </trkpt>
      <trkpt lat="42.71884" lon="1.75669">
        <ele>1710</ele>
        <time>2016-09-10T12:23:14Z</time>
      </trkpt>
      <trkpt lat="42.71884" lon="1.75668">
        <ele>1710</ele>
        <time>2016-09-10T12:23:15Z</time>
      </trkpt>
      <trkpt lat="42.71885" lon="1.75667">
        <ele>1710</ele>
        <time>2016-09-10T12:23:16Z</time>
      </trkpt>
      <trkpt lat="42.71886" lon="1.75663">
        <ele>1711</ele>
        <time>2016-09-10T12:23:19Z</time>
      </trkpt>
      <trkpt lat="42.71889" lon="1.75661">
        <ele>1711</ele>
        <time>2016-09-10T12:23:23Z</time>
      </trkpt>
      <trkpt lat="42.7189" lon="1.7566">
        <ele>1711</ele>
        <time>2016-09-10T12:23:24Z</time>
      </trkpt>
      <trkpt lat="42.7189" lon="1.7566">
        <ele>1711</ele>
        <time>2016-09-10T12:23:25Z</time>
      </trkpt>
      <trkpt lat="42.71891" lon="1.75659">
        <ele>1712</ele>
        <time>2016-09-10T12:23:26Z</time>
      </trkpt>
      <trkpt lat="42.71891" lon="1.75658">
        <ele>1712</ele>
        <time>2016-09-10T12:23:27Z</time>
      </trkpt>
      <trkpt lat="42.71893" lon="1.75656">
        <ele>1712</ele>
        <time>2016-09-10T12:23:31Z</time>
      </trkpt>
      <trkpt lat="42.71896" lon="1.75652">
        <ele>1713</ele>
        <time>2016-09-10T12:23:37Z</time>
      </trkpt>
      <trkpt lat="42.71896" lon="1.75651">
        <ele>1713</ele>
        <time>2016-09-10T12:23:38Z</time>
      </trkpt>
      <trkpt lat="42.71896" lon="1.75651">
        <ele>1713</ele>
        <time>2016-09-10T12:23:39Z</time>
      </trkpt>
      <trkpt lat="42.71896" lon="1.7565">
        <ele>1713</ele>
        <time>2016-09-10T12:23:40Z</time>
      </trkpt>
      <trkpt lat="42.71897" lon="1.75649">
        <ele>1713</ele>
        <time>2016-09-10T12:23:41Z</time>
      </trkpt>
      <trkpt lat="42.719" lon="1.75645">
        <ele>1714</ele>
        <time>2016-09-10T12:23:47Z</time>
      </trkpt>
      <trkpt lat="42.71902" lon="1.75644">
        <ele>1714</ele>
        <time>2016-09-10T12:23:51Z</time>
      </trkpt>
      <trkpt lat="42.71902" lon="1.75643">
        <ele>1714</ele>
        <time>2016-09-10T12:23:52Z</time>
      </trkpt>
      <trkpt lat="42.71903" lon="1.75643">
        <ele>1714</ele>
        <time>2016-09-10T12:23:53Z</time>
      </trkpt>
      <trkpt lat="42.71903" lon="1.75643">
        <ele>1714</ele>
        <time>2016-09-10T12:23:54Z</time>
      </trkpt>
      <trkpt lat="42.71904" lon="1.75643">
        <ele>1714</ele>
        <time>2016-09-10T12:23:55Z</time>
      </trkpt>
      <trkpt lat="42.71906" lon="1.75641">
        <ele>1714</ele>
        <time>2016-09-10T12:24:01Z</time>
      </trkpt>
      <trkpt lat="42.71906" lon="1.7564">
        <ele>1714</ele>
        <time>2016-09-10T12:24:02Z</time>
      </trkpt>
      <trkpt lat="42.71907" lon="1.75639">
        <ele>1715</ele>
        <time>2016-09-10T12:24:03Z</time>
      </trkpt>
      <trkpt lat="42.71907" lon="1.75639">
        <ele>1715</ele>
        <time>2016-09-10T12:24:04Z</time>
      </trkpt>
      <trkpt lat="42.71908" lon="1.75638">
        <ele>1715</ele>
        <time>2016-09-10T12:24:05Z</time>
      </trkpt>
      <trkpt lat="42.71908" lon="1.75637">
        <ele>1715</ele>
        <time>2016-09-10T12:24:06Z</time>
      </trkpt>
      <trkpt lat="42.71908" lon="1.75636">
        <ele>1715</ele>
        <time>2016-09-10T12:24:07Z</time>
      </trkpt>
      <trkpt lat="42.71911" lon="1.75632">
        <ele>1716</ele>
        <time>2016-09-10T12:24:12Z</time>
      </trkpt>
      <trkpt lat="42.71912" lon="1.75632">
        <ele>1716</ele>
        <time>2016-09-10T12:24:13Z</time>
      </trkpt>
      <trkpt lat="42.71913" lon="1.75631">
        <ele>1716</ele>
        <time>2016-09-10T12:24:14Z</time>
      </trkpt>
      <trkpt lat="42.71914" lon="1.75631">
        <ele>1716</ele>
        <time>2016-09-10T12:24:15Z</time>
      </trkpt>
      <trkpt lat="42.71915" lon="1.7563">
        <ele>1716</ele>
        <time>2016-09-10T12:24:16Z</time>
      </trkpt>
      <trkpt lat="42.71916" lon="1.75629">
        <ele>1716</ele>
        <time>2016-09-10T12:24:19Z</time>
      </trkpt>
      <trkpt lat="42.71919" lon="1.75623">
        <ele>1717</ele>
        <time>2016-09-10T12:24:26Z</time>
      </trkpt>
      <trkpt lat="42.71919" lon="1.75622">
        <ele>1717</ele>
        <time>2016-09-10T12:24:28Z</time>
      </trkpt>
      <trkpt lat="42.7192" lon="1.7562">
        <ele>1717</ele>
        <time>2016-09-10T12:24:29Z</time>
      </trkpt>
      <trkpt lat="42.7192" lon="1.75619">
        <ele>1717</ele>
        <time>2016-09-10T12:24:30Z</time>
      </trkpt>
      <trkpt lat="42.7192" lon="1.75617">
        <ele>1718</ele>
        <time>2016-09-10T12:24:31Z</time>
      </trkpt>
      <trkpt lat="42.71921" lon="1.75616">
        <ele>1718</ele>
        <time>2016-09-10T12:24:32Z</time>
      </trkpt>
      <trkpt lat="42.71922" lon="1.75613">
        <ele>1718</ele>
        <time>2016-09-10T12:24:37Z</time>
      </trkpt>
      <trkpt lat="42.71923" lon="1.75606">
        <ele>1719</ele>
        <time>2016-09-10T12:24:42Z</time>
      </trkpt>
      <trkpt lat="42.71921" lon="1.756">
        <ele>1720</ele>
        <time>2016-09-10T12:24:48Z</time>
      </trkpt>
      <trkpt lat="42.71919" lon="1.75593">
        <ele>1722</ele>
        <time>2016-09-10T12:24:55Z</time>
      </trkpt>
      <trkpt lat="42.71918" lon="1.75592">
        <ele>1722</ele>
        <time>2016-09-10T12:24:56Z</time>
      </trkpt>
      <trkpt lat="42.71918" lon="1.75591">
        <ele>1722</ele>
        <time>2016-09-10T12:24:57Z</time>
      </trkpt>
      <trkpt lat="42.71917" lon="1.75591">
        <ele>1722</ele>
        <time>2016-09-10T12:24:58Z</time>
      </trkpt>
      <trkpt lat="42.71916" lon="1.7559">
        <ele>1723</ele>
        <time>2016-09-10T12:24:59Z</time>
      </trkpt>
      <trkpt lat="42.71915" lon="1.75589">
        <ele>1723</ele>
        <time>2016-09-10T12:25:01Z</time>
      </trkpt>
      <trkpt lat="42.71912" lon="1.75585">
        <ele>1724</ele>
        <time>2016-09-10T12:25:08Z</time>
      </trkpt>
      <trkpt lat="42.71912" lon="1.75585">
        <ele>1724</ele>
        <time>2016-09-10T12:25:09Z</time>
      </trkpt>
      <trkpt lat="42.71912" lon="1.75585">
        <ele>1724</ele>
        <time>2016-09-10T12:25:10Z</time>
      </trkpt>
      <trkpt lat="42.71912" lon="1.75585">
        <ele>1724</ele>
        <time>2016-09-10T12:25:11Z</time>
      </trkpt>
      <trkpt lat="42.71912" lon="1.75585">
        <ele>1724</ele>
        <time>2016-09-10T12:25:12Z</time>
      </trkpt>
      <trkpt lat="42.71911" lon="1.75583">
        <ele>1724</ele>
        <time>2016-09-10T12:25:13Z</time>
      </trkpt>
      <trkpt lat="42.71911" lon="1.75583">
        <ele>1724</ele>
        <time>2016-09-10T12:25:14Z</time>
      </trkpt>
      <trkpt lat="42.71912" lon="1.75579">
        <ele>1725</ele>
        <time>2016-09-10T12:25:16Z</time>
      </trkpt>
      <trkpt lat="42.71912" lon="1.75576">
        <ele>1725</ele>
        <time>2016-09-10T12:25:19Z</time>
      </trkpt>
      <trkpt lat="42.71913" lon="1.75574">
        <ele>1726</ele>
        <time>2016-09-10T12:25:20Z</time>
      </trkpt>
      <trkpt lat="42.71915" lon="1.75568">
        <ele>1726</ele>
        <time>2016-09-10T12:25:24Z</time>
      </trkpt>
      <trkpt lat="42.71916" lon="1.75563">
        <ele>1727</ele>
        <time>2016-09-10T12:25:28Z</time>
      </trkpt>
      <trkpt lat="42.71919" lon="1.75557">
        <ele>1728</ele>
        <time>2016-09-10T12:25:33Z</time>
      </trkpt>
      <trkpt lat="42.71919" lon="1.75555">
        <ele>1728</ele>
        <time>2016-09-10T12:25:34Z</time>
      </trkpt>
      <trkpt lat="42.71921" lon="1.7555">
        <ele>1729</ele>
        <time>2016-09-10T12:25:38Z</time>
      </trkpt>
      <trkpt lat="42.71922" lon="1.7555">
        <ele>1729</ele>
        <time>2016-09-10T12:25:39Z</time>
      </trkpt>
      <trkpt lat="42.71926" lon="1.75548">
        <ele>1729</ele>
        <time>2016-09-10T12:25:43Z</time>
      </trkpt>
      <trkpt lat="42.7193" lon="1.75547">
        <ele>1729</ele>
        <time>2016-09-10T12:25:47Z</time>
      </trkpt>
      <trkpt lat="42.71931" lon="1.75546">
        <ele>1729</ele>
        <time>2016-09-10T12:25:48Z</time>
      </trkpt>
      <trkpt lat="42.71931" lon="1.75546">
        <ele>1728</ele>
        <time>2016-09-10T12:25:49Z</time>
      </trkpt>
      <trkpt lat="42.71932" lon="1.75546">
        <ele>1728</ele>
        <time>2016-09-10T12:25:50Z</time>
      </trkpt>
      <trkpt lat="42.71933" lon="1.75546">
        <ele>1728</ele>
        <time>2016-09-10T12:25:51Z</time>
      </trkpt>
      <trkpt lat="42.71936" lon="1.75544">
        <ele>1729</ele>
        <time>2016-09-10T12:25:54Z</time>
      </trkpt>
      <trkpt lat="42.71938" lon="1.75542">
        <ele>1729</ele>
        <time>2016-09-10T12:25:57Z</time>
      </trkpt>
      <trkpt lat="42.71939" lon="1.75541">
        <ele>1729</ele>
        <time>2016-09-10T12:25:59Z</time>
      </trkpt>
      <trkpt lat="42.7194" lon="1.75539">
        <ele>1729</ele>
        <time>2016-09-10T12:26:01Z</time>
      </trkpt>
      <trkpt lat="42.71941" lon="1.75539">
        <ele>1729</ele>
        <time>2016-09-10T12:26:02Z</time>
      </trkpt>
      <trkpt lat="42.71942" lon="1.75539">
        <ele>1729</ele>
        <time>2016-09-10T12:26:03Z</time>
      </trkpt>
      <trkpt lat="42.71943" lon="1.75538">
        <ele>1729</ele>
        <time>2016-09-10T12:26:04Z</time>
      </trkpt>
      <trkpt lat="42.71943" lon="1.75538">
        <ele>1729</ele>
        <time>2016-09-10T12:26:05Z</time>
      </trkpt>
      <trkpt lat="42.71944" lon="1.75537">
        <ele>1730</ele>
        <time>2016-09-10T12:26:06Z</time>
      </trkpt>
      <trkpt lat="42.71945" lon="1.75535">
        <ele>1730</ele>
        <time>2016-09-10T12:26:07Z</time>
      </trkpt>
      <trkpt lat="42.71948" lon="1.75533">
        <ele>1730</ele>
        <time>2016-09-10T12:26:11Z</time>
      </trkpt>
      <trkpt lat="42.71951" lon="1.75533">
        <ele>1730</ele>
        <time>2016-09-10T12:26:14Z</time>
      </trkpt>
      <trkpt lat="42.71952" lon="1.75533">
        <ele>1730</ele>
        <time>2016-09-10T12:26:15Z</time>
      </trkpt>
      <trkpt lat="42.71952" lon="1.75533">
        <ele>1730</ele>
        <time>2016-09-10T12:26:16Z</time>
      </trkpt>
      <trkpt lat="42.71954" lon="1.75532">
        <ele>1731</ele>
        <time>2016-09-10T12:26:17Z</time>
      </trkpt>
      <trkpt lat="42.71954" lon="1.75532">
        <ele>1731</ele>
        <time>2016-09-10T12:26:18Z</time>
      </trkpt>
      <trkpt lat="42.7196" lon="1.75531">
        <ele>1731</ele>
        <time>2016-09-10T12:26:24Z</time>
      </trkpt>
      <trkpt lat="42.71961" lon="1.7553">
        <ele>1731</ele>
        <time>2016-09-10T12:26:30Z</time>
      </trkpt>
      <trkpt lat="42.71961" lon="1.7553">
        <ele>1731</ele>
        <time>2016-09-10T12:26:38Z</time>
      </trkpt>
      <trkpt lat="42.71962" lon="1.7553">
        <ele>1731</ele>
        <time>2016-09-10T12:26:39Z</time>
      </trkpt>
      <trkpt lat="42.71963" lon="1.75529">
        <ele>1731</ele>
        <time>2016-09-10T12:26:40Z</time>
      </trkpt>
      <trkpt lat="42.71964" lon="1.75528">
        <ele>1732</ele>
        <time>2016-09-10T12:26:41Z</time>
      </trkpt>
      <trkpt lat="42.71965" lon="1.75527">
        <ele>1732</ele>
        <time>2016-09-10T12:26:42Z</time>
      </trkpt>
      <trkpt lat="42.71968" lon="1.75525">
        <ele>1733</ele>
        <time>2016-09-10T12:26:45Z</time>
      </trkpt>
      <trkpt lat="42.71969" lon="1.75523">
        <ele>1733</ele>
        <time>2016-09-10T12:26:46Z</time>
      </trkpt>
      <trkpt lat="42.71972" lon="1.7552">
        <ele>1734</ele>
        <time>2016-09-10T12:26:49Z</time>
      </trkpt>
      <trkpt lat="42.71977" lon="1.75518">
        <ele>1735</ele>
        <time>2016-09-10T12:26:55Z</time>
      </trkpt>
      <trkpt lat="42.71978" lon="1.75517">
        <ele>1735</ele>
        <time>2016-09-10T12:26:56Z</time>
      </trkpt>
      <trkpt lat="42.71978" lon="1.75517">
        <ele>1735</ele>
        <time>2016-09-10T12:26:57Z</time>
      </trkpt>
      <trkpt lat="42.71979" lon="1.75517">
        <ele>1735</ele>
        <time>2016-09-10T12:26:58Z</time>
      </trkpt>
      <trkpt lat="42.7198" lon="1.75516">
        <ele>1735</ele>
        <time>2016-09-10T12:26:59Z</time>
      </trkpt>
      <trkpt lat="42.71981" lon="1.75515">
        <ele>1735</ele>
        <time>2016-09-10T12:27:01Z</time>
      </trkpt>
      <trkpt lat="42.71985" lon="1.75512">
        <ele>1736</ele>
        <time>2016-09-10T12:27:06Z</time>
      </trkpt>
      <trkpt lat="42.71986" lon="1.75511">
        <ele>1737</ele>
        <time>2016-09-10T12:27:07Z</time>
      </trkpt>
      <trkpt lat="42.71987" lon="1.75511">
        <ele>1737</ele>
        <time>2016-09-10T12:27:08Z</time>
      </trkpt>
      <trkpt lat="42.71988" lon="1.7551">
        <ele>1737</ele>
        <time>2016-09-10T12:27:09Z</time>
      </trkpt>
      <trkpt lat="42.71989" lon="1.7551">
        <ele>1737</ele>
        <time>2016-09-10T12:27:10Z</time>
      </trkpt>
      <trkpt lat="42.71991" lon="1.75508">
        <ele>1738</ele>
        <time>2016-09-10T12:27:14Z</time>
      </trkpt>
      <trkpt lat="42.71994" lon="1.75507">
        <ele>1738</ele>
        <time>2016-09-10T12:27:18Z</time>
      </trkpt>
      <trkpt lat="42.71995" lon="1.75507">
        <ele>1738</ele>
        <time>2016-09-10T12:27:19Z</time>
      </trkpt>
      <trkpt lat="42.71995" lon="1.75507">
        <ele>1738</ele>
        <time>2016-09-10T12:27:20Z</time>
      </trkpt>
      <trkpt lat="42.71996" lon="1.75507">
        <ele>1738</ele>
        <time>2016-09-10T12:27:21Z</time>
      </trkpt>
      <trkpt lat="42.71998" lon="1.75507">
        <ele>1738</ele>
        <time>2016-09-10T12:27:22Z</time>
      </trkpt>
      <trkpt lat="42.72004" lon="1.75506">
        <ele>1738</ele>
        <time>2016-09-10T12:27:28Z</time>
      </trkpt>
      <trkpt lat="42.7201" lon="1.75503">
        <ele>1738</ele>
        <time>2016-09-10T12:27:35Z</time>
      </trkpt>
      <trkpt lat="42.72014" lon="1.75502">
        <ele>1739</ele>
        <time>2016-09-10T12:27:39Z</time>
      </trkpt>
      <trkpt lat="42.72014" lon="1.75502">
        <ele>1739</ele>
        <time>2016-09-10T12:27:40Z</time>
      </trkpt>
      <trkpt lat="42.72015" lon="1.75501">
        <ele>1739</ele>
        <time>2016-09-10T12:27:41Z</time>
      </trkpt>
      <trkpt lat="42.72016" lon="1.75501">
        <ele>1739</ele>
        <time>2016-09-10T12:27:42Z</time>
      </trkpt>
      <trkpt lat="42.72016" lon="1.75501">
        <ele>1739</ele>
        <time>2016-09-10T12:27:43Z</time>
      </trkpt>
      <trkpt lat="42.72019" lon="1.75499">
        <ele>1739</ele>
        <time>2016-09-10T12:27:46Z</time>
      </trkpt>
      <trkpt lat="42.72023" lon="1.75496">
        <ele>1740</ele>
        <time>2016-09-10T12:27:51Z</time>
      </trkpt>
      <trkpt lat="42.72023" lon="1.75495">
        <ele>1740</ele>
        <time>2016-09-10T12:27:52Z</time>
      </trkpt>
      <trkpt lat="42.72024" lon="1.75494">
        <ele>1740</ele>
        <time>2016-09-10T12:27:53Z</time>
      </trkpt>
      <trkpt lat="42.72024" lon="1.75494">
        <ele>1740</ele>
        <time>2016-09-10T12:27:54Z</time>
      </trkpt>
      <trkpt lat="42.72025" lon="1.75493">
        <ele>1740</ele>
        <time>2016-09-10T12:27:55Z</time>
      </trkpt>
      <trkpt lat="42.72027" lon="1.75491">
        <ele>1741</ele>
        <time>2016-09-10T12:27:58Z</time>
      </trkpt>
      <trkpt lat="42.72028" lon="1.75489">
        <ele>1741</ele>
        <time>2016-09-10T12:28:03Z</time>
      </trkpt>
      <trkpt lat="42.7203" lon="1.75484">
        <ele>1742</ele>
        <time>2016-09-10T12:28:08Z</time>
      </trkpt>
      <trkpt lat="42.72032" lon="1.75479">
        <ele>1743</ele>
        <time>2016-09-10T12:28:12Z</time>
      </trkpt>
      <trkpt lat="42.72032" lon="1.75478">
        <ele>1743</ele>
        <time>2016-09-10T12:28:13Z</time>
      </trkpt>
      <trkpt lat="42.72033" lon="1.75478">
        <ele>1744</ele>
        <time>2016-09-10T12:28:14Z</time>
      </trkpt>
      <trkpt lat="42.72033" lon="1.75476">
        <ele>1744</ele>
        <time>2016-09-10T12:28:15Z</time>
      </trkpt>
      <trkpt lat="42.72033" lon="1.75474">
        <ele>1744</ele>
        <time>2016-09-10T12:28:16Z</time>
      </trkpt>
      <trkpt lat="42.72034" lon="1.75472">
        <ele>1745</ele>
        <time>2016-09-10T12:28:18Z</time>
      </trkpt>
      <trkpt lat="42.72037" lon="1.75467">
        <ele>1746</ele>
        <time>2016-09-10T12:28:23Z</time>
      </trkpt>
      <trkpt lat="42.7204" lon="1.75461">
        <ele>1747</ele>
        <time>2016-09-10T12:28:28Z</time>
      </trkpt>
      <trkpt lat="42.7204" lon="1.75461">
        <ele>1747</ele>
        <time>2016-09-10T12:28:29Z</time>
      </trkpt>
      <trkpt lat="42.7204" lon="1.7546">
        <ele>1747</ele>
        <time>2016-09-10T12:28:30Z</time>
      </trkpt>
      <trkpt lat="42.72041" lon="1.75458">
        <ele>1747</ele>
        <time>2016-09-10T12:28:31Z</time>
      </trkpt>
      <trkpt lat="42.72041" lon="1.75458">
        <ele>1747</ele>
        <time>2016-09-10T12:28:32Z</time>
      </trkpt>
      <trkpt lat="42.72042" lon="1.75457">
        <ele>1748</ele>
        <time>2016-09-10T12:28:33Z</time>
      </trkpt>
      <trkpt lat="42.72045" lon="1.75455">
        <ele>1748</ele>
        <time>2016-09-10T12:28:35Z</time>
      </trkpt>
      <trkpt lat="42.72047" lon="1.75452">
        <ele>1748</ele>
        <time>2016-09-10T12:28:38Z</time>
      </trkpt>
      <trkpt lat="42.7205" lon="1.75446">
        <ele>1750</ele>
        <time>2016-09-10T12:28:44Z</time>
      </trkpt>
      <trkpt lat="42.72052" lon="1.75444">
        <ele>1750</ele>
        <time>2016-09-10T12:28:50Z</time>
      </trkpt>
      <trkpt lat="42.72051" lon="1.75444">
        <ele>1750</ele>
        <time>2016-09-10T12:29:03Z</time>
      </trkpt>
      <trkpt lat="42.72046" lon="1.75443">
        <ele>1750</ele>
        <time>2016-09-10T12:29:08Z</time>
      </trkpt>
      <trkpt lat="42.72041" lon="1.75439">
        <ele>1752</ele>
        <time>2016-09-10T12:29:14Z</time>
      </trkpt>
      <trkpt lat="42.72037" lon="1.75436">
        <ele>1752</ele>
        <time>2016-09-10T12:29:17Z</time>
      </trkpt>
      <trkpt lat="42.72036" lon="1.75436">
        <ele>1752</ele>
        <time>2016-09-10T12:29:18Z</time>
      </trkpt>
      <trkpt lat="42.72035" lon="1.75435">
        <ele>1752</ele>
        <time>2016-09-10T12:29:19Z</time>
      </trkpt>
      <trkpt lat="42.72033" lon="1.75435">
        <ele>1752</ele>
        <time>2016-09-10T12:29:20Z</time>
      </trkpt>
      <trkpt lat="42.72032" lon="1.75435">
        <ele>1752</ele>
        <time>2016-09-10T12:29:21Z</time>
      </trkpt>
      <trkpt lat="42.72029" lon="1.75434">
        <ele>1752</ele>
        <time>2016-09-10T12:29:24Z</time>
      </trkpt>
      <trkpt lat="42.72028" lon="1.75435">
        <ele>1752</ele>
        <time>2016-09-10T12:29:25Z</time>
      </trkpt>
      <trkpt lat="42.72025" lon="1.75435">
        <ele>1752</ele>
        <time>2016-09-10T12:29:28Z</time>
      </trkpt>
      <trkpt lat="42.72019" lon="1.75436">
        <ele>1752</ele>
        <time>2016-09-10T12:29:33Z</time>
      </trkpt>
      <trkpt lat="42.72015" lon="1.75435">
        <ele>1752</ele>
        <time>2016-09-10T12:29:37Z</time>
      </trkpt>
      <trkpt lat="42.72014" lon="1.75434">
        <ele>1752</ele>
        <time>2016-09-10T12:29:39Z</time>
      </trkpt>
      <trkpt lat="42.72012" lon="1.75434">
        <ele>1752</ele>
        <time>2016-09-10T12:29:40Z</time>
      </trkpt>
      <trkpt lat="42.7201" lon="1.75433">
        <ele>1752</ele>
        <time>2016-09-10T12:29:43Z</time>
      </trkpt>
      <trkpt lat="42.72009" lon="1.75433">
        <ele>1752</ele>
        <time>2016-09-10T12:29:44Z</time>
      </trkpt>
      <trkpt lat="42.72008" lon="1.75432">
        <ele>1752</ele>
        <time>2016-09-10T12:29:45Z</time>
      </trkpt>
      <trkpt lat="42.72007" lon="1.75431">
        <ele>1752</ele>
        <time>2016-09-10T12:29:46Z</time>
      </trkpt>
      <trkpt lat="42.72006" lon="1.75431">
        <ele>1752</ele>
        <time>2016-09-10T12:29:47Z</time>
      </trkpt>
      <trkpt lat="42.72005" lon="1.7543">
        <ele>1752</ele>
        <time>2016-09-10T12:29:51Z</time>
      </trkpt>
      <trkpt lat="42.72001" lon="1.75428">
        <ele>1752</ele>
        <time>2016-09-10T12:29:55Z</time>
      </trkpt>
      <trkpt lat="42.71996" lon="1.75428">
        <ele>1752</ele>
        <time>2016-09-10T12:29:59Z</time>
      </trkpt>
      <trkpt lat="42.71991" lon="1.75423">
        <ele>1752</ele>
        <time>2016-09-10T12:30:05Z</time>
      </trkpt>
      <trkpt lat="42.71991" lon="1.75423">
        <ele>1752</ele>
        <time>2016-09-10T12:30:12Z</time>
      </trkpt>
      <trkpt lat="42.71987" lon="1.75421">
        <ele>1752</ele>
        <time>2016-09-10T12:30:14Z</time>
      </trkpt>
      <trkpt lat="42.71984" lon="1.75419">
        <ele>1752</ele>
        <time>2016-09-10T12:30:18Z</time>
      </trkpt>
      <trkpt lat="42.71979" lon="1.75417">
        <ele>1752</ele>
        <time>2016-09-10T12:30:24Z</time>
      </trkpt>
      <trkpt lat="42.71973" lon="1.75415">
        <ele>1752</ele>
        <time>2016-09-10T12:30:29Z</time>
      </trkpt>
      <trkpt lat="42.71968" lon="1.75412">
        <ele>1753</ele>
        <time>2016-09-10T12:30:34Z</time>
      </trkpt>
      <trkpt lat="42.71962" lon="1.75406">
        <ele>1753</ele>
        <time>2016-09-10T12:30:40Z</time>
      </trkpt>
      <trkpt lat="42.71961" lon="1.75405">
        <ele>1753</ele>
        <time>2016-09-10T12:30:41Z</time>
      </trkpt>
      <trkpt lat="42.7196" lon="1.75404">
        <ele>1753</ele>
        <time>2016-09-10T12:30:42Z</time>
      </trkpt>
      <trkpt lat="42.7196" lon="1.75404">
        <ele>1753</ele>
        <time>2016-09-10T12:30:43Z</time>
      </trkpt>
      <trkpt lat="42.71959" lon="1.75404">
        <ele>1753</ele>
        <time>2016-09-10T12:30:44Z</time>
      </trkpt>
      <trkpt lat="42.71957" lon="1.75403">
        <ele>1753</ele>
        <time>2016-09-10T12:30:45Z</time>
      </trkpt>
      <trkpt lat="42.71955" lon="1.75402">
        <ele>1753</ele>
        <time>2016-09-10T12:30:47Z</time>
      </trkpt>
      <trkpt lat="42.71952" lon="1.75402">
        <ele>1753</ele>
        <time>2016-09-10T12:30:50Z</time>
      </trkpt>
      <trkpt lat="42.71948" lon="1.75401">
        <ele>1753</ele>
        <time>2016-09-10T12:30:55Z</time>
      </trkpt>
      <trkpt lat="42.71942" lon="1.75399">
        <ele>1753</ele>
        <time>2016-09-10T12:31:01Z</time>
      </trkpt>
      <trkpt lat="42.71936" lon="1.75397">
        <ele>1754</ele>
        <time>2016-09-10T12:31:07Z</time>
      </trkpt>
      <trkpt lat="42.71932" lon="1.75398">
        <ele>1754</ele>
        <time>2016-09-10T12:31:10Z</time>
      </trkpt>
      <trkpt lat="42.7193" lon="1.75398">
        <ele>1754</ele>
        <time>2016-09-10T12:31:11Z</time>
      </trkpt>
      <trkpt lat="42.71929" lon="1.75398">
        <ele>1754</ele>
        <time>2016-09-10T12:31:12Z</time>
      </trkpt>
      <trkpt lat="42.71929" lon="1.75398">
        <ele>1754</ele>
        <time>2016-09-10T12:31:13Z</time>
      </trkpt>
      <trkpt lat="42.71927" lon="1.75398">
        <ele>1754</ele>
        <time>2016-09-10T12:31:14Z</time>
      </trkpt>
      <trkpt lat="42.71925" lon="1.75398">
        <ele>1754</ele>
        <time>2016-09-10T12:31:15Z</time>
      </trkpt>
      <trkpt lat="42.71921" lon="1.75398">
        <ele>1754</ele>
        <time>2016-09-10T12:31:19Z</time>
      </trkpt>
      <trkpt lat="42.71917" lon="1.75398">
        <ele>1754</ele>
        <time>2016-09-10T12:31:25Z</time>
      </trkpt>
      <trkpt lat="42.71914" lon="1.75398">
        <ele>1754</ele>
        <time>2016-09-10T12:31:29Z</time>
      </trkpt>
      <trkpt lat="42.71913" lon="1.75398">
        <ele>1755</ele>
        <time>2016-09-10T12:31:30Z</time>
      </trkpt>
      <trkpt lat="42.71913" lon="1.75398">
        <ele>1755</ele>
        <time>2016-09-10T12:31:31Z</time>
      </trkpt>
      <trkpt lat="42.71912" lon="1.75397">
        <ele>1755</ele>
        <time>2016-09-10T12:31:32Z</time>
      </trkpt>
      <trkpt lat="42.71911" lon="1.75397">
        <ele>1755</ele>
        <time>2016-09-10T12:31:33Z</time>
      </trkpt>
      <trkpt lat="42.71906" lon="1.75397">
        <ele>1755</ele>
        <time>2016-09-10T12:31:40Z</time>
      </trkpt>
      <trkpt lat="42.71903" lon="1.75398">
        <ele>1755</ele>
        <time>2016-09-10T12:31:47Z</time>
      </trkpt>
      <trkpt lat="42.719" lon="1.754">
        <ele>1755</ele>
        <time>2016-09-10T12:31:55Z</time>
      </trkpt>
      <trkpt lat="42.719" lon="1.75401">
        <ele>1755</ele>
        <time>2016-09-10T12:31:57Z</time>
      </trkpt>
      <trkpt lat="42.71899" lon="1.75402">
        <ele>1755</ele>
        <time>2016-09-10T12:31:58Z</time>
      </trkpt>
      <trkpt lat="42.71898" lon="1.75402">
        <ele>1755</ele>
        <time>2016-09-10T12:31:59Z</time>
      </trkpt>
      <trkpt lat="42.71898" lon="1.75402">
        <ele>1755</ele>
        <time>2016-09-10T12:32:00Z</time>
      </trkpt>
      <trkpt lat="42.71898" lon="1.75402">
        <ele>1755</ele>
        <time>2016-09-10T12:32:01Z</time>
      </trkpt>
      <trkpt lat="42.71898" lon="1.75402">
        <ele>1755</ele>
        <time>2016-09-10T12:32:16Z</time>
      </trkpt>
      <trkpt lat="42.71899" lon="1.75402">
        <ele>1755</ele>
        <time>2016-09-10T12:32:26Z</time>
      </trkpt>
      <trkpt lat="42.71899" lon="1.75403">
        <ele>1755</ele>
        <time>2016-09-10T12:32:32Z</time>
      </trkpt>
      <trkpt lat="42.71893" lon="1.75406">
        <ele>1755</ele>
        <time>2016-09-10T12:32:38Z</time>
      </trkpt>
      <trkpt lat="42.71889" lon="1.75406">
        <ele>1756</ele>
        <time>2016-09-10T12:32:43Z</time>
      </trkpt>
      <trkpt lat="42.71888" lon="1.75405">
        <ele>1756</ele>
        <time>2016-09-10T12:32:44Z</time>
      </trkpt>
      <trkpt lat="42.71884" lon="1.75405">
        <ele>1757</ele>
        <time>2016-09-10T12:32:48Z</time>
      </trkpt>
      <trkpt lat="42.71883" lon="1.75404">
        <ele>1757</ele>
        <time>2016-09-10T12:32:49Z</time>
      </trkpt>
      <trkpt lat="42.71883" lon="1.75404">
        <ele>1757</ele>
        <time>2016-09-10T12:32:50Z</time>
      </trkpt>
      <trkpt lat="42.71883" lon="1.75404">
        <ele>1757</ele>
        <time>2016-09-10T12:32:51Z</time>
      </trkpt>
      <trkpt lat="42.71881" lon="1.75405">
        <ele>1758</ele>
        <time>2016-09-10T12:32:52Z</time>
      </trkpt>
      <trkpt lat="42.71881" lon="1.75404">
        <ele>1758</ele>
        <time>2016-09-10T12:32:53Z</time>
      </trkpt>
      <trkpt lat="42.71879" lon="1.75405">
        <ele>1758</ele>
        <time>2016-09-10T12:32:54Z</time>
      </trkpt>
      <trkpt lat="42.71873" lon="1.75404">
        <ele>1759</ele>
        <time>2016-09-10T12:32:59Z</time>
      </trkpt>
      <trkpt lat="42.71869" lon="1.75404">
        <ele>1760</ele>
        <time>2016-09-10T12:33:03Z</time>
      </trkpt>
      <trkpt lat="42.71868" lon="1.75405">
        <ele>1760</ele>
        <time>2016-09-10T12:33:05Z</time>
      </trkpt>
      <trkpt lat="42.71865" lon="1.75405">
        <ele>1760</ele>
        <time>2016-09-10T12:33:07Z</time>
      </trkpt>
      <trkpt lat="42.71863" lon="1.75405">
        <ele>1761</ele>
        <time>2016-09-10T12:33:09Z</time>
      </trkpt>
      <trkpt lat="42.71861" lon="1.75405">
        <ele>1761</ele>
        <time>2016-09-10T12:33:10Z</time>
      </trkpt>
      <trkpt lat="42.71861" lon="1.75405">
        <ele>1761</ele>
        <time>2016-09-10T12:33:11Z</time>
      </trkpt>
      <trkpt lat="42.7186" lon="1.75405">
        <ele>1761</ele>
        <time>2016-09-10T12:33:12Z</time>
      </trkpt>
      <trkpt lat="42.71858" lon="1.75405">
        <ele>1761</ele>
        <time>2016-09-10T12:33:13Z</time>
      </trkpt>
      <trkpt lat="42.71858" lon="1.75404">
        <ele>1761</ele>
        <time>2016-09-10T12:33:18Z</time>
      </trkpt>
      <trkpt lat="42.71861" lon="1.75404">
        <ele>1761</ele>
        <time>2016-09-10T12:33:24Z</time>
      </trkpt>
      <trkpt lat="42.71857" lon="1.75402">
        <ele>1762</ele>
        <time>2016-09-10T12:33:29Z</time>
      </trkpt>
      <trkpt lat="42.71855" lon="1.75403">
        <ele>1762</ele>
        <time>2016-09-10T12:33:31Z</time>
      </trkpt>
      <trkpt lat="42.71852" lon="1.75404">
        <ele>1762</ele>
        <time>2016-09-10T12:33:34Z</time>
      </trkpt>
      <trkpt lat="42.71848" lon="1.75404">
        <ele>1763</ele>
        <time>2016-09-10T12:33:38Z</time>
      </trkpt>
      <trkpt lat="42.71848" lon="1.75403">
        <ele>1763</ele>
        <time>2016-09-10T12:33:39Z</time>
      </trkpt>
      <trkpt lat="42.71848" lon="1.75403">
        <ele>1763</ele>
        <time>2016-09-10T12:33:40Z</time>
      </trkpt>
      <trkpt lat="42.71847" lon="1.75403">
        <ele>1763</ele>
        <time>2016-09-10T12:33:41Z</time>
      </trkpt>
      <trkpt lat="42.71846" lon="1.75403">
        <ele>1764</ele>
        <time>2016-09-10T12:33:42Z</time>
      </trkpt>
      <trkpt lat="42.71844" lon="1.75404">
        <ele>1764</ele>
        <time>2016-09-10T12:33:43Z</time>
      </trkpt>
      <trkpt lat="42.71844" lon="1.75404">
        <ele>1764</ele>
        <time>2016-09-10T12:33:44Z</time>
      </trkpt>
      <trkpt lat="42.7184" lon="1.75403">
        <ele>1765</ele>
        <time>2016-09-10T12:33:49Z</time>
      </trkpt>
      <trkpt lat="42.71835" lon="1.75403">
        <ele>1766</ele>
        <time>2016-09-10T12:33:54Z</time>
      </trkpt>
      <trkpt lat="42.71834" lon="1.75404">
        <ele>1766</ele>
        <time>2016-09-10T12:33:55Z</time>
      </trkpt>
      <trkpt lat="42.71833" lon="1.75403">
        <ele>1766</ele>
        <time>2016-09-10T12:33:56Z</time>
      </trkpt>
      <trkpt lat="42.71832" lon="1.75404">
        <ele>1766</ele>
        <time>2016-09-10T12:33:57Z</time>
      </trkpt>
      <trkpt lat="42.71831" lon="1.75404">
        <ele>1766</ele>
        <time>2016-09-10T12:33:58Z</time>
      </trkpt>
      <trkpt lat="42.7183" lon="1.75404">
        <ele>1766</ele>
        <time>2016-09-10T12:33:59Z</time>
      </trkpt>
      <trkpt lat="42.71826" lon="1.75405">
        <ele>1767</ele>
        <time>2016-09-10T12:34:04Z</time>
      </trkpt>
      <trkpt lat="42.71821" lon="1.75405">
        <ele>1768</ele>
        <time>2016-09-10T12:34:10Z</time>
      </trkpt>
      <trkpt lat="42.7182" lon="1.75406">
        <ele>1768</ele>
        <time>2016-09-10T12:34:13Z</time>
      </trkpt>
      <trkpt lat="42.71818" lon="1.75405">
        <ele>1768</ele>
        <time>2016-09-10T12:34:15Z</time>
      </trkpt>
      <trkpt lat="42.71818" lon="1.75405">
        <ele>1768</ele>
        <time>2016-09-10T12:34:16Z</time>
      </trkpt>
      <trkpt lat="42.71816" lon="1.75405">
        <ele>1769</ele>
        <time>2016-09-10T12:34:17Z</time>
      </trkpt>
      <trkpt lat="42.71814" lon="1.75404">
        <ele>1769</ele>
        <time>2016-09-10T12:34:18Z</time>
      </trkpt>
      <trkpt lat="42.71812" lon="1.75405">
        <ele>1769</ele>
        <time>2016-09-10T12:34:21Z</time>
      </trkpt>
      <trkpt lat="42.71807" lon="1.75404">
        <ele>1770</ele>
        <time>2016-09-10T12:34:26Z</time>
      </trkpt>
      <trkpt lat="42.71804" lon="1.75403">
        <ele>1771</ele>
        <time>2016-09-10T12:34:31Z</time>
      </trkpt>
      <trkpt lat="42.71804" lon="1.75403">
        <ele>1771</ele>
        <time>2016-09-10T12:34:32Z</time>
      </trkpt>
      <trkpt lat="42.71804" lon="1.75403">
        <ele>1771</ele>
        <time>2016-09-10T12:34:33Z</time>
      </trkpt>
      <trkpt lat="42.71802" lon="1.75402">
        <ele>1771</ele>
        <time>2016-09-10T12:34:34Z</time>
      </trkpt>
      <trkpt lat="42.71802" lon="1.75402">
        <ele>1771</ele>
        <time>2016-09-10T12:34:35Z</time>
      </trkpt>
      <trkpt lat="42.71801" lon="1.75402">
        <ele>1771</ele>
        <time>2016-09-10T12:34:36Z</time>
      </trkpt>
      <trkpt lat="42.71795" lon="1.75402">
        <ele>1773</ele>
        <time>2016-09-10T12:34:42Z</time>
      </trkpt>
      <trkpt lat="42.71795" lon="1.75402">
        <ele>1773</ele>
        <time>2016-09-10T12:34:43Z</time>
      </trkpt>
      <trkpt lat="42.71793" lon="1.75402">
        <ele>1773</ele>
        <time>2016-09-10T12:34:44Z</time>
      </trkpt>
      <trkpt lat="42.71792" lon="1.75401">
        <ele>1773</ele>
        <time>2016-09-10T12:34:45Z</time>
      </trkpt>
      <trkpt lat="42.71791" lon="1.754">
        <ele>1773</ele>
        <time>2016-09-10T12:34:46Z</time>
      </trkpt>
      <trkpt lat="42.71789" lon="1.75402">
        <ele>1774</ele>
        <time>2016-09-10T12:34:48Z</time>
      </trkpt>
      <trkpt lat="42.71788" lon="1.75402">
        <ele>1774</ele>
        <time>2016-09-10T12:34:49Z</time>
      </trkpt>
      <trkpt lat="42.71784" lon="1.75404">
        <ele>1774</ele>
        <time>2016-09-10T12:34:53Z</time>
      </trkpt>
      <trkpt lat="42.7178" lon="1.75404">
        <ele>1775</ele>
        <time>2016-09-10T12:34:57Z</time>
      </trkpt>
      <trkpt lat="42.7178" lon="1.75404">
        <ele>1775</ele>
        <time>2016-09-10T12:34:59Z</time>
      </trkpt>
      <trkpt lat="42.71778" lon="1.75403">
        <ele>1775</ele>
        <time>2016-09-10T12:35:00Z</time>
      </trkpt>
      <trkpt lat="42.71777" lon="1.75403">
        <ele>1775</ele>
        <time>2016-09-10T12:35:01Z</time>
      </trkpt>
      <trkpt lat="42.71776" lon="1.75403">
        <ele>1776</ele>
        <time>2016-09-10T12:35:02Z</time>
      </trkpt>
      <trkpt lat="42.71775" lon="1.75404">
        <ele>1776</ele>
        <time>2016-09-10T12:35:03Z</time>
      </trkpt>
      <trkpt lat="42.71774" lon="1.75404">
        <ele>1776</ele>
        <time>2016-09-10T12:35:04Z</time>
      </trkpt>
      <trkpt lat="42.7177" lon="1.75406">
        <ele>1776</ele>
        <time>2016-09-10T12:35:10Z</time>
      </trkpt>
      <trkpt lat="42.71765" lon="1.75406">
        <ele>1777</ele>
        <time>2016-09-10T12:35:15Z</time>
      </trkpt>
      <trkpt lat="42.71763" lon="1.75406">
        <ele>1777</ele>
        <time>2016-09-10T12:35:16Z</time>
      </trkpt>
      <trkpt lat="42.71763" lon="1.75406">
        <ele>1777</ele>
        <time>2016-09-10T12:35:17Z</time>
      </trkpt>
      <trkpt lat="42.71763" lon="1.75406">
        <ele>1777</ele>
        <time>2016-09-10T12:35:18Z</time>
      </trkpt>
      <trkpt lat="42.71761" lon="1.75406">
        <ele>1777</ele>
        <time>2016-09-10T12:35:19Z</time>
      </trkpt>
      <trkpt lat="42.71761" lon="1.75407">
        <ele>1777</ele>
        <time>2016-09-10T12:35:20Z</time>
      </trkpt>
      <trkpt lat="42.7176" lon="1.75408">
        <ele>1777</ele>
        <time>2016-09-10T12:35:26Z</time>
      </trkpt>
      <trkpt lat="42.7176" lon="1.75408">
        <ele>1777</ele>
        <time>2016-09-10T12:35:37Z</time>
      </trkpt>
      <trkpt lat="42.71756" lon="1.75407">
        <ele>1778</ele>
        <time>2016-09-10T12:35:42Z</time>
      </trkpt>
      <trkpt lat="42.71753" lon="1.75407">
        <ele>1778</ele>
        <time>2016-09-10T12:35:45Z</time>
      </trkpt>
      <trkpt lat="42.71751" lon="1.75408">
        <ele>1778</ele>
        <time>2016-09-10T12:35:46Z</time>
      </trkpt>
      <trkpt lat="42.7175" lon="1.75407">
        <ele>1778</ele>
        <time>2016-09-10T12:35:47Z</time>
      </trkpt>
      <trkpt lat="42.71749" lon="1.75407">
        <ele>1778</ele>
        <time>2016-09-10T12:35:48Z</time>
      </trkpt>
      <trkpt lat="42.71749" lon="1.75407">
        <ele>1778</ele>
        <time>2016-09-10T12:35:49Z</time>
      </trkpt>
      <trkpt lat="42.71748" lon="1.75406">
        <ele>1778</ele>
        <time>2016-09-10T12:35:50Z</time>
      </trkpt>
      <trkpt lat="42.71746" lon="1.75405">
        <ele>1778</ele>
        <time>2016-09-10T12:35:51Z</time>
      </trkpt>
      <trkpt lat="42.71744" lon="1.75404">
        <ele>1779</ele>
        <time>2016-09-10T12:35:54Z</time>
      </trkpt>
      <trkpt lat="42.71738" lon="1.75402">
        <ele>1779</ele>
        <time>2016-09-10T12:36:00Z</time>
      </trkpt>
      <trkpt lat="42.71735" lon="1.75401">
        <ele>1780</ele>
        <time>2016-09-10T12:36:03Z</time>
      </trkpt>
      <trkpt lat="42.71734" lon="1.75401">
        <ele>1780</ele>
        <time>2016-09-10T12:36:04Z</time>
      </trkpt>
      <trkpt lat="42.71733" lon="1.754">
        <ele>1780</ele>
        <time>2016-09-10T12:36:05Z</time>
      </trkpt>
      <trkpt lat="42.71732" lon="1.754">
        <ele>1780</ele>
        <time>2016-09-10T12:36:06Z</time>
      </trkpt>
      <trkpt lat="42.71731" lon="1.754">
        <ele>1780</ele>
        <time>2016-09-10T12:36:07Z</time>
      </trkpt>
      <trkpt lat="42.71723" lon="1.75398">
        <ele>1781</ele>
        <time>2016-09-10T12:36:14Z</time>
      </trkpt>
      <trkpt lat="42.71722" lon="1.75398">
        <ele>1781</ele>
        <time>2016-09-10T12:36:15Z</time>
      </trkpt>
      <trkpt lat="42.71717" lon="1.75395">
        <ele>1781</ele>
        <time>2016-09-10T12:36:20Z</time>
      </trkpt>
      <trkpt lat="42.71716" lon="1.75395">
        <ele>1781</ele>
        <time>2016-09-10T12:36:22Z</time>
      </trkpt>
      <trkpt lat="42.71715" lon="1.75394">
        <ele>1781</ele>
        <time>2016-09-10T12:36:23Z</time>
      </trkpt>
      <trkpt lat="42.71713" lon="1.75394">
        <ele>1781</ele>
        <time>2016-09-10T12:36:24Z</time>
      </trkpt>
      <trkpt lat="42.71712" lon="1.75393">
        <ele>1782</ele>
        <time>2016-09-10T12:36:25Z</time>
      </trkpt>
      <trkpt lat="42.71711" lon="1.75393">
        <ele>1782</ele>
        <time>2016-09-10T12:36:26Z</time>
      </trkpt>
      <trkpt lat="42.71705" lon="1.7539">
        <ele>1782</ele>
        <time>2016-09-10T12:36:32Z</time>
      </trkpt>
      <trkpt lat="42.717" lon="1.75387">
        <ele>1782</ele>
        <time>2016-09-10T12:36:36Z</time>
      </trkpt>
      <trkpt lat="42.71698" lon="1.75385">
        <ele>1783</ele>
        <time>2016-09-10T12:36:38Z</time>
      </trkpt>
      <trkpt lat="42.71694" lon="1.75384">
        <ele>1783</ele>
        <time>2016-09-10T12:36:42Z</time>
      </trkpt>
      <trkpt lat="42.71691" lon="1.75381">
        <ele>1783</ele>
        <time>2016-09-10T12:36:45Z</time>
      </trkpt>
      <trkpt lat="42.7169" lon="1.7538">
        <ele>1784</ele>
        <time>2016-09-10T12:36:46Z</time>
      </trkpt>
      <trkpt lat="42.71688" lon="1.7538">
        <ele>1784</ele>
        <time>2016-09-10T12:36:47Z</time>
      </trkpt>
      <trkpt lat="42.71688" lon="1.7538">
        <ele>1784</ele>
        <time>2016-09-10T12:36:48Z</time>
      </trkpt>
      <trkpt lat="42.71686" lon="1.7538">
        <ele>1784</ele>
        <time>2016-09-10T12:36:49Z</time>
      </trkpt>
      <trkpt lat="42.71681" lon="1.75376">
        <ele>1784</ele>
        <time>2016-09-10T12:36:55Z</time>
      </trkpt>
      <trkpt lat="42.71676" lon="1.75373">
        <ele>1784</ele>
        <time>2016-09-10T12:36:59Z</time>
      </trkpt>
      <trkpt lat="42.7167" lon="1.75372">
        <ele>1784</ele>
        <time>2016-09-10T12:37:05Z</time>
      </trkpt>
      <trkpt lat="42.71662" lon="1.75367">
        <ele>1784</ele>
        <time>2016-09-10T12:37:12Z</time>
      </trkpt>
      <trkpt lat="42.71658" lon="1.75364">
        <ele>1784</ele>
        <time>2016-09-10T12:37:17Z</time>
      </trkpt>
      <trkpt lat="42.71656" lon="1.75363">
        <ele>1784</ele>
        <time>2016-09-10T12:37:18Z</time>
      </trkpt>
      <trkpt lat="42.71655" lon="1.75363">
        <ele>1784</ele>
        <time>2016-09-10T12:37:19Z</time>
      </trkpt>
      <trkpt lat="42.71654" lon="1.75362">
        <ele>1784</ele>
        <time>2016-09-10T12:37:20Z</time>
      </trkpt>
      <trkpt lat="42.71653" lon="1.75362">
        <ele>1784</ele>
        <time>2016-09-10T12:37:21Z</time>
      </trkpt>
      <trkpt lat="42.71651" lon="1.7536">
        <ele>1785</ele>
        <time>2016-09-10T12:37:23Z</time>
      </trkpt>
      <trkpt lat="42.71646" lon="1.75356">
        <ele>1785</ele>
        <time>2016-09-10T12:37:29Z</time>
      </trkpt>
      <trkpt lat="42.7164" lon="1.75354">
        <ele>1785</ele>
        <time>2016-09-10T12:37:35Z</time>
      </trkpt>
      <trkpt lat="42.71634" lon="1.75352">
        <ele>1785</ele>
        <time>2016-09-10T12:37:41Z</time>
      </trkpt>
      <trkpt lat="42.71628" lon="1.75351">
        <ele>1785</ele>
        <time>2016-09-10T12:37:47Z</time>
      </trkpt>
      <trkpt lat="42.71628" lon="1.75351">
        <ele>1786</ele>
        <time>2016-09-10T12:37:48Z</time>
      </trkpt>
      <trkpt lat="42.71627" lon="1.75351">
        <ele>1786</ele>
        <time>2016-09-10T12:37:49Z</time>
      </trkpt>
      <trkpt lat="42.71627" lon="1.75351">
        <ele>1786</ele>
        <time>2016-09-10T12:37:50Z</time>
      </trkpt>
      <trkpt lat="42.71626" lon="1.75351">
        <ele>1786</ele>
        <time>2016-09-10T12:37:51Z</time>
      </trkpt>
      <trkpt lat="42.7162" lon="1.75349">
        <ele>1786</ele>
        <time>2016-09-10T12:37:58Z</time>
      </trkpt>
      <trkpt lat="42.71615" lon="1.75349">
        <ele>1786</ele>
        <time>2016-09-10T12:38:04Z</time>
      </trkpt>
      <trkpt lat="42.71606" lon="1.75346">
        <ele>1787</ele>
        <time>2016-09-10T12:38:14Z</time>
      </trkpt>
      <trkpt lat="42.71603" lon="1.75345">
        <ele>1787</ele>
        <time>2016-09-10T12:38:20Z</time>
      </trkpt>
      <trkpt lat="42.71602" lon="1.75344">
        <ele>1787</ele>
        <time>2016-09-10T12:38:21Z</time>
      </trkpt>
      <trkpt lat="42.71601" lon="1.75344">
        <ele>1787</ele>
        <time>2016-09-10T12:38:22Z</time>
      </trkpt>
      <trkpt lat="42.716" lon="1.75344">
        <ele>1787</ele>
        <time>2016-09-10T12:38:23Z</time>
      </trkpt>
      <trkpt lat="42.71598" lon="1.75344">
        <ele>1787</ele>
        <time>2016-09-10T12:38:24Z</time>
      </trkpt>
      <trkpt lat="42.71594" lon="1.75341">
        <ele>1788</ele>
        <time>2016-09-10T12:38:28Z</time>
      </trkpt>
      <trkpt lat="42.71587" lon="1.75337">
        <ele>1789</ele>
        <time>2016-09-10T12:38:35Z</time>
      </trkpt>
      <trkpt lat="42.71585" lon="1.75336">
        <ele>1789</ele>
        <time>2016-09-10T12:38:39Z</time>
      </trkpt>
      <trkpt lat="42.71585" lon="1.75336">
        <ele>1789</ele>
        <time>2016-09-10T12:38:40Z</time>
      </trkpt>
      <trkpt lat="42.71584" lon="1.75336">
        <ele>1789</ele>
        <time>2016-09-10T12:38:41Z</time>
      </trkpt>
      <trkpt lat="42.71584" lon="1.75335">
        <ele>1789</ele>
        <time>2016-09-10T12:38:42Z</time>
      </trkpt>
      <trkpt lat="42.71583" lon="1.75335">
        <ele>1789</ele>
        <time>2016-09-10T12:38:43Z</time>
      </trkpt>
      <trkpt lat="42.71578" lon="1.75331">
        <ele>1790</ele>
        <time>2016-09-10T12:38:50Z</time>
      </trkpt>
      <trkpt lat="42.71572" lon="1.75327">
        <ele>1791</ele>
        <time>2016-09-10T12:38:56Z</time>
      </trkpt>
      <trkpt lat="42.71571" lon="1.75326">
        <ele>1792</ele>
        <time>2016-09-10T12:38:57Z</time>
      </trkpt>
      <trkpt lat="42.7157" lon="1.75326">
        <ele>1792</ele>
        <time>2016-09-10T12:38:58Z</time>
      </trkpt>
      <trkpt lat="42.71569" lon="1.75325">
        <ele>1792</ele>
        <time>2016-09-10T12:38:59Z</time>
      </trkpt>
      <trkpt lat="42.71568" lon="1.75324">
        <ele>1792</ele>
        <time>2016-09-10T12:39:00Z</time>
      </trkpt>
      <trkpt lat="42.71561" lon="1.75318">
        <ele>1794</ele>
        <time>2016-09-10T12:39:08Z</time>
      </trkpt>
      <trkpt lat="42.71559" lon="1.75316">
        <ele>1794</ele>
        <time>2016-09-10T12:39:17Z</time>
      </trkpt>
      <trkpt lat="42.7155" lon="1.75311">
        <ele>1795</ele>
        <time>2016-09-10T12:39:24Z</time>
      </trkpt>
      <trkpt lat="42.71546" lon="1.75306">
        <ele>1795</ele>
        <time>2016-09-10T12:39:29Z</time>
      </trkpt>
      <trkpt lat="42.71541" lon="1.753">
        <ele>1796</ele>
        <time>2016-09-10T12:39:35Z</time>
      </trkpt>
      <trkpt lat="42.71534" lon="1.75293">
        <ele>1796</ele>
        <time>2016-09-10T12:39:43Z</time>
      </trkpt>
      <trkpt lat="42.7153" lon="1.75285">
        <ele>1796</ele>
        <time>2016-09-10T12:39:51Z</time>
      </trkpt>
      <trkpt lat="42.71523" lon="1.75277">
        <ele>1797</ele>
        <time>2016-09-10T12:39:58Z</time>
      </trkpt>
      <trkpt lat="42.71517" lon="1.75271">
        <ele>1797</ele>
        <time>2016-09-10T12:40:06Z</time>
      </trkpt>
      <trkpt lat="42.71508" lon="1.75267">
        <ele>1798</ele>
        <time>2016-09-10T12:40:13Z</time>
      </trkpt>
      <trkpt lat="42.71501" lon="1.75264">
        <ele>1799</ele>
        <time>2016-09-10T12:40:21Z</time>
      </trkpt>
      <trkpt lat="42.71492" lon="1.75255">
        <ele>1798</ele>
        <time>2016-09-10T12:40:29Z</time>
      </trkpt>
      <trkpt lat="42.71487" lon="1.75246">
        <ele>1797</ele>
        <time>2016-09-10T12:40:36Z</time>
      </trkpt>
      <trkpt lat="42.7148" lon="1.75238">
        <ele>1796</ele>
        <time>2016-09-10T12:40:45Z</time>
      </trkpt>
      <trkpt lat="42.71471" lon="1.75238">
        <ele>1797</ele>
        <time>2016-09-10T12:40:54Z</time>
      </trkpt>
      <trkpt lat="42.7146" lon="1.75235">
        <ele>1797</ele>
        <time>2016-09-10T12:41:03Z</time>
      </trkpt>
      <trkpt lat="42.71454" lon="1.75231">
        <ele>1797</ele>
        <time>2016-09-10T12:41:10Z</time>
      </trkpt>
      <trkpt lat="42.71453" lon="1.7523">
        <ele>1797</ele>
        <time>2016-09-10T12:41:11Z</time>
      </trkpt>
      <trkpt lat="42.71451" lon="1.7523">
        <ele>1797</ele>
        <time>2016-09-10T12:41:12Z</time>
      </trkpt>
      <trkpt lat="42.7145" lon="1.7523">
        <ele>1797</ele>
        <time>2016-09-10T12:41:13Z</time>
      </trkpt>
      <trkpt lat="42.71448" lon="1.75229">
        <ele>1797</ele>
        <time>2016-09-10T12:41:14Z</time>
      </trkpt>
      <trkpt lat="42.71444" lon="1.75226">
        <ele>1797</ele>
        <time>2016-09-10T12:41:20Z</time>
      </trkpt>
      <trkpt lat="42.7144" lon="1.75223">
        <ele>1797</ele>
        <time>2016-09-10T12:41:29Z</time>
      </trkpt>
      <trkpt lat="42.71434" lon="1.75215">
        <ele>1796</ele>
        <time>2016-09-10T12:41:38Z</time>
      </trkpt>
      <trkpt lat="42.71428" lon="1.75209">
        <ele>1795</ele>
        <time>2016-09-10T12:41:46Z</time>
      </trkpt>
      <trkpt lat="42.71416" lon="1.75199">
        <ele>1795</ele>
        <time>2016-09-10T12:41:56Z</time>
      </trkpt>
      <trkpt lat="42.71414" lon="1.75196">
        <ele>1794</ele>
        <time>2016-09-10T12:41:59Z</time>
      </trkpt>
      <trkpt lat="42.71411" lon="1.75192">
        <ele>1794</ele>
        <time>2016-09-10T12:42:01Z</time>
      </trkpt>
      <trkpt lat="42.71409" lon="1.7519">
        <ele>1793</ele>
        <time>2016-09-10T12:42:03Z</time>
      </trkpt>
      <trkpt lat="42.71405" lon="1.75189">
        <ele>1794</ele>
        <time>2016-09-10T12:42:09Z</time>
      </trkpt>
      <trkpt lat="42.71404" lon="1.75187">
        <ele>1793</ele>
        <time>2016-09-10T12:42:10Z</time>
      </trkpt>
      <trkpt lat="42.71404" lon="1.75185">
        <ele>1793</ele>
        <time>2016-09-10T12:42:11Z</time>
      </trkpt>
      <trkpt lat="42.71404" lon="1.75184">
        <ele>1793</ele>
        <time>2016-09-10T12:42:12Z</time>
      </trkpt>
      <trkpt lat="42.71403" lon="1.75183">
        <ele>1793</ele>
        <time>2016-09-10T12:42:13Z</time>
      </trkpt>
      <trkpt lat="42.71403" lon="1.75182">
        <ele>1793</ele>
        <time>2016-09-10T12:42:14Z</time>
      </trkpt>
      <trkpt lat="42.71403" lon="1.75182">
        <ele>1793</ele>
        <time>2016-09-10T12:42:15Z</time>
      </trkpt>
      <trkpt lat="42.71403" lon="1.75182">
        <ele>1793</ele>
        <time>2016-09-10T12:42:24Z</time>
      </trkpt>
      <trkpt lat="42.71397" lon="1.75182">
        <ele>1793</ele>
        <time>2016-09-10T12:42:30Z</time>
      </trkpt>
      <trkpt lat="42.71396" lon="1.7518">
        <ele>1793</ele>
        <time>2016-09-10T12:42:31Z</time>
      </trkpt>
      <trkpt lat="42.71394" lon="1.75178">
        <ele>1792</ele>
        <time>2016-09-10T12:42:32Z</time>
      </trkpt>
      <trkpt lat="42.71392" lon="1.75176">
        <ele>1792</ele>
        <time>2016-09-10T12:42:33Z</time>
      </trkpt>
      <trkpt lat="42.71382" lon="1.75167">
        <ele>1791</ele>
        <time>2016-09-10T12:42:38Z</time>
      </trkpt>
      <trkpt lat="42.71375" lon="1.75161">
        <ele>1791</ele>
        <time>2016-09-10T12:42:44Z</time>
      </trkpt>
      <trkpt lat="42.71372" lon="1.75159">
        <ele>1791</ele>
        <time>2016-09-10T12:42:46Z</time>
      </trkpt>
      <trkpt lat="42.71365" lon="1.75156">
        <ele>1791</ele>
        <time>2016-09-10T12:42:50Z</time>
      </trkpt>
      <trkpt lat="42.71357" lon="1.75153">
        <ele>1791</ele>
        <time>2016-09-10T12:42:56Z</time>
      </trkpt>
      <trkpt lat="42.71351" lon="1.75152">
        <ele>1791</ele>
        <time>2016-09-10T12:43:01Z</time>
      </trkpt>
      <trkpt lat="42.71347" lon="1.75147">
        <ele>1791</ele>
        <time>2016-09-10T12:43:07Z</time>
      </trkpt>
      <trkpt lat="42.71339" lon="1.75139">
        <ele>1790</ele>
        <time>2016-09-10T12:43:14Z</time>
      </trkpt>
      <trkpt lat="42.71333" lon="1.75133">
        <ele>1790</ele>
        <time>2016-09-10T12:43:20Z</time>
      </trkpt>
      <trkpt lat="42.71327" lon="1.75128">
        <ele>1789</ele>
        <time>2016-09-10T12:43:27Z</time>
      </trkpt>
      <trkpt lat="42.71321" lon="1.75125">
        <ele>1789</ele>
        <time>2016-09-10T12:43:36Z</time>
      </trkpt>
      <trkpt lat="42.71314" lon="1.75122">
        <ele>1789</ele>
        <time>2016-09-10T12:43:42Z</time>
      </trkpt>
      <trkpt lat="42.71306" lon="1.75117">
        <ele>1789</ele>
        <time>2016-09-10T12:43:50Z</time>
      </trkpt>
      <trkpt lat="42.713" lon="1.75112">
        <ele>1788</ele>
        <time>2016-09-10T12:43:58Z</time>
      </trkpt>
      <trkpt lat="42.71289" lon="1.75109">
        <ele>1788</ele>
        <time>2016-09-10T12:44:05Z</time>
      </trkpt>
      <trkpt lat="42.71286" lon="1.75109">
        <ele>1789</ele>
        <time>2016-09-10T12:44:09Z</time>
      </trkpt>
      <trkpt lat="42.71284" lon="1.75108">
        <ele>1789</ele>
        <time>2016-09-10T12:44:10Z</time>
      </trkpt>
      <trkpt lat="42.71283" lon="1.75108">
        <ele>1789</ele>
        <time>2016-09-10T12:44:11Z</time>
      </trkpt>
      <trkpt lat="42.71282" lon="1.75108">
        <ele>1789</ele>
        <time>2016-09-10T12:44:12Z</time>
      </trkpt>
      <trkpt lat="42.71274" lon="1.75108">
        <ele>1789</ele>
        <time>2016-09-10T12:44:18Z</time>
      </trkpt>
      <trkpt lat="42.71267" lon="1.75106">
        <ele>1789</ele>
        <time>2016-09-10T12:44:25Z</time>
      </trkpt>
      <trkpt lat="42.71259" lon="1.75108">
        <ele>1790</ele>
        <time>2016-09-10T12:44:32Z</time>
      </trkpt>
      <trkpt lat="42.71252" lon="1.75108">
        <ele>1791</ele>
        <time>2016-09-10T12:44:39Z</time>
      </trkpt>
      <trkpt lat="42.71252" lon="1.75108">
        <ele>1791</ele>
        <time>2016-09-10T12:44:40Z</time>
      </trkpt>
      <trkpt lat="42.71252" lon="1.75108">
        <ele>1791</ele>
        <time>2016-09-10T12:44:41Z</time>
      </trkpt>
      <trkpt lat="42.71252" lon="1.75108">
        <ele>1791</ele>
        <time>2016-09-10T12:44:42Z</time>
      </trkpt>
      <trkpt lat="42.71252" lon="1.75108">
        <ele>1791</ele>
        <time>2016-09-10T12:44:43Z</time>
      </trkpt>
      <trkpt lat="42.71252" lon="1.75108">
        <ele>1791</ele>
        <time>2016-09-10T12:44:48Z</time>
      </trkpt>
      <trkpt lat="42.71252" lon="1.75108">
        <ele>1791</ele>
        <time>2016-09-10T12:44:57Z</time>
      </trkpt>
      <trkpt lat="42.71251" lon="1.75107">
        <ele>1791</ele>
        <time>2016-09-10T12:45:06Z</time>
      </trkpt>
      <trkpt lat="42.71246" lon="1.75106">
        <ele>1791</ele>
        <time>2016-09-10T12:45:13Z</time>
      </trkpt>
      <trkpt lat="42.71238" lon="1.7511">
        <ele>1792</ele>
        <time>2016-09-10T12:45:21Z</time>
      </trkpt>
      <trkpt lat="42.71234" lon="1.75111">
        <ele>1792</ele>
        <time>2016-09-10T12:45:28Z</time>
      </trkpt>
      <trkpt lat="42.71234" lon="1.75111">
        <ele>1792</ele>
        <time>2016-09-10T12:45:29Z</time>
      </trkpt>
      <trkpt lat="42.71233" lon="1.75109">
        <ele>1792</ele>
        <time>2016-09-10T12:45:34Z</time>
      </trkpt>
      <trkpt lat="42.71233" lon="1.75105">
        <ele>1792</ele>
        <time>2016-09-10T12:45:41Z</time>
      </trkpt>
      <trkpt lat="42.71231" lon="1.75102">
        <ele>1792</ele>
        <time>2016-09-10T12:45:46Z</time>
      </trkpt>
      <trkpt lat="42.71231" lon="1.75098">
        <ele>1792</ele>
        <time>2016-09-10T12:45:52Z</time>
      </trkpt>
      <trkpt lat="42.71231" lon="1.75096">
        <ele>1792</ele>
        <time>2016-09-10T12:45:53Z</time>
      </trkpt>
      <trkpt lat="42.71231" lon="1.75095">
        <ele>1792</ele>
        <time>2016-09-10T12:45:54Z</time>
      </trkpt>
      <trkpt lat="42.71231" lon="1.75094">
        <ele>1792</ele>
        <time>2016-09-10T12:45:55Z</time>
      </trkpt>
      <trkpt lat="42.71231" lon="1.75093">
        <ele>1792</ele>
        <time>2016-09-10T12:45:56Z</time>
      </trkpt>
      <trkpt lat="42.71231" lon="1.75092">
        <ele>1792</ele>
        <time>2016-09-10T12:45:57Z</time>
      </trkpt>
      <trkpt lat="42.7123" lon="1.75089">
        <ele>1792</ele>
        <time>2016-09-10T12:45:59Z</time>
      </trkpt>
      <trkpt lat="42.71228" lon="1.75085">
        <ele>1792</ele>
        <time>2016-09-10T12:46:01Z</time>
      </trkpt>
      <trkpt lat="42.71227" lon="1.7508">
        <ele>1792</ele>
        <time>2016-09-10T12:46:04Z</time>
      </trkpt>
      <trkpt lat="42.71227" lon="1.75071">
        <ele>1791</ele>
        <time>2016-09-10T12:46:10Z</time>
      </trkpt>
      <trkpt lat="42.71225" lon="1.75062">
        <ele>1791</ele>
        <time>2016-09-10T12:46:17Z</time>
      </trkpt>
      <trkpt lat="42.71224" lon="1.75061">
        <ele>1791</ele>
        <time>2016-09-10T12:46:18Z</time>
      </trkpt>
      <trkpt lat="42.71223" lon="1.7506">
        <ele>1791</ele>
        <time>2016-09-10T12:46:19Z</time>
      </trkpt>
      <trkpt lat="42.71222" lon="1.75059">
        <ele>1792</ele>
        <time>2016-09-10T12:46:20Z</time>
      </trkpt>
      <trkpt lat="42.71222" lon="1.75058">
        <ele>1792</ele>
        <time>2016-09-10T12:46:21Z</time>
      </trkpt>
      <trkpt lat="42.71219" lon="1.75053">
        <ele>1792</ele>
        <time>2016-09-10T12:46:25Z</time>
      </trkpt>
      <trkpt lat="42.71217" lon="1.75045">
        <ele>1792</ele>
        <time>2016-09-10T12:46:31Z</time>
      </trkpt>
      <trkpt lat="42.71214" lon="1.75038">
        <ele>1793</ele>
        <time>2016-09-10T12:46:37Z</time>
      </trkpt>
      <trkpt lat="42.71214" lon="1.75038">
        <ele>1793</ele>
        <time>2016-09-10T12:46:38Z</time>
      </trkpt>
      <trkpt lat="42.71213" lon="1.75036">
        <ele>1793</ele>
        <time>2016-09-10T12:46:39Z</time>
      </trkpt>
      <trkpt lat="42.71212" lon="1.75035">
        <ele>1793</ele>
        <time>2016-09-10T12:46:40Z</time>
      </trkpt>
      <trkpt lat="42.71206" lon="1.75027">
        <ele>1794</ele>
        <time>2016-09-10T12:46:48Z</time>
      </trkpt>
      <trkpt lat="42.71205" lon="1.75021">
        <ele>1795</ele>
        <time>2016-09-10T12:46:53Z</time>
      </trkpt>
      <trkpt lat="42.71204" lon="1.75019">
        <ele>1795</ele>
        <time>2016-09-10T12:46:54Z</time>
      </trkpt>
      <trkpt lat="42.71204" lon="1.75017">
        <ele>1795</ele>
        <time>2016-09-10T12:46:55Z</time>
      </trkpt>
      <trkpt lat="42.71204" lon="1.75016">
        <ele>1795</ele>
        <time>2016-09-10T12:46:56Z</time>
      </trkpt>
      <trkpt lat="42.71203" lon="1.75015">
        <ele>1795</ele>
        <time>2016-09-10T12:46:57Z</time>
      </trkpt>
      <trkpt lat="42.712" lon="1.75013">
        <ele>1795</ele>
        <time>2016-09-10T12:47:01Z</time>
      </trkpt>
      <trkpt lat="42.71195" lon="1.75009">
        <ele>1796</ele>
        <time>2016-09-10T12:47:08Z</time>
      </trkpt>
      <trkpt lat="42.71192" lon="1.75004">
        <ele>1796</ele>
        <time>2016-09-10T12:47:17Z</time>
      </trkpt>
      <trkpt lat="42.71186" lon="1.75">
        <ele>1797</ele>
        <time>2016-09-10T12:47:24Z</time>
      </trkpt>
      <trkpt lat="42.71185" lon="1.74997">
        <ele>1797</ele>
        <time>2016-09-10T12:47:26Z</time>
      </trkpt>
      <trkpt lat="42.71184" lon="1.74995">
        <ele>1798</ele>
        <time>2016-09-10T12:47:27Z</time>
      </trkpt>
      <trkpt lat="42.71183" lon="1.74994">
        <ele>1798</ele>
        <time>2016-09-10T12:47:28Z</time>
      </trkpt>
      <trkpt lat="42.71182" lon="1.74992">
        <ele>1798</ele>
        <time>2016-09-10T12:47:29Z</time>
      </trkpt>
      <trkpt lat="42.71181" lon="1.74987">
        <ele>1798</ele>
        <time>2016-09-10T12:47:33Z</time>
      </trkpt>
      <trkpt lat="42.71172" lon="1.74979">
        <ele>1799</ele>
        <time>2016-09-10T12:47:41Z</time>
      </trkpt>
      <trkpt lat="42.71172" lon="1.74976">
        <ele>1798</ele>
        <time>2016-09-10T12:47:49Z</time>
      </trkpt>
      <trkpt lat="42.71172" lon="1.74976">
        <ele>1798</ele>
        <time>2016-09-10T12:47:59Z</time>
      </trkpt>
      <trkpt lat="42.71169" lon="1.74972">
        <ele>1799</ele>
        <time>2016-09-10T12:48:06Z</time>
      </trkpt>
      <trkpt lat="42.71168" lon="1.74971">
        <ele>1799</ele>
        <time>2016-09-10T12:48:07Z</time>
      </trkpt>
      <trkpt lat="42.71168" lon="1.74971">
        <ele>1799</ele>
        <time>2016-09-10T12:48:08Z</time>
      </trkpt>
      <trkpt lat="42.71167" lon="1.7497">
        <ele>1799</ele>
        <time>2016-09-10T12:48:09Z</time>
      </trkpt>
      <trkpt lat="42.71167" lon="1.7497">
        <ele>1799</ele>
        <time>2016-09-10T12:48:10Z</time>
      </trkpt>
      <trkpt lat="42.71162" lon="1.74968">
        <ele>1800</ele>
        <time>2016-09-10T12:48:16Z</time>
      </trkpt>
      <trkpt lat="42.71159" lon="1.74962">
        <ele>1800</ele>
        <time>2016-09-10T12:48:22Z</time>
      </trkpt>
      <trkpt lat="42.71158" lon="1.74958">
        <ele>1800</ele>
        <time>2016-09-10T12:48:30Z</time>
      </trkpt>
      <trkpt lat="42.71154" lon="1.74956">
        <ele>1801</ele>
        <time>2016-09-10T12:48:37Z</time>
      </trkpt>
      <trkpt lat="42.71152" lon="1.74951">
        <ele>1801</ele>
        <time>2016-09-10T12:48:41Z</time>
      </trkpt>
      <trkpt lat="42.71153" lon="1.74945">
        <ele>1801</ele>
        <time>2016-09-10T12:48:46Z</time>
      </trkpt>
      <trkpt lat="42.71153" lon="1.74942">
        <ele>1801</ele>
        <time>2016-09-10T12:48:47Z</time>
      </trkpt>
      <trkpt lat="42.71153" lon="1.74938">
        <ele>1800</ele>
        <time>2016-09-10T12:48:50Z</time>
      </trkpt>
      <trkpt lat="42.71153" lon="1.74933">
        <ele>1800</ele>
        <time>2016-09-10T12:48:53Z</time>
      </trkpt>
      <trkpt lat="42.71154" lon="1.74932">
        <ele>1800</ele>
        <time>2016-09-10T12:48:54Z</time>
      </trkpt>
      <trkpt lat="42.71153" lon="1.7493">
        <ele>1800</ele>
        <time>2016-09-10T12:48:55Z</time>
      </trkpt>
      <trkpt lat="42.71153" lon="1.74929">
        <ele>1800</ele>
        <time>2016-09-10T12:48:56Z</time>
      </trkpt>
      <trkpt lat="42.71153" lon="1.74927">
        <ele>1800</ele>
        <time>2016-09-10T12:48:57Z</time>
      </trkpt>
      <trkpt lat="42.71154" lon="1.74924">
        <ele>1800</ele>
        <time>2016-09-10T12:49:00Z</time>
      </trkpt>
      <trkpt lat="42.71154" lon="1.7492">
        <ele>1799</ele>
        <time>2016-09-10T12:49:06Z</time>
      </trkpt>
      <trkpt lat="42.71154" lon="1.74916">
        <ele>1799</ele>
        <time>2016-09-10T12:49:15Z</time>
      </trkpt>
      <trkpt lat="42.71152" lon="1.74905">
        <ele>1799</ele>
        <time>2016-09-10T12:49:21Z</time>
      </trkpt>
      <trkpt lat="42.71151" lon="1.74894">
        <ele>1799</ele>
        <time>2016-09-10T12:49:27Z</time>
      </trkpt>
      <trkpt lat="42.71149" lon="1.74885">
        <ele>1800</ele>
        <time>2016-09-10T12:49:33Z</time>
      </trkpt>
      <trkpt lat="42.71147" lon="1.74876">
        <ele>1801</ele>
        <time>2016-09-10T12:49:38Z</time>
      </trkpt>
      <trkpt lat="42.71145" lon="1.74865">
        <ele>1801</ele>
        <time>2016-09-10T12:49:44Z</time>
      </trkpt>
      <trkpt lat="42.71143" lon="1.74855">
        <ele>1802</ele>
        <time>2016-09-10T12:49:50Z</time>
      </trkpt>
      <trkpt lat="42.71144" lon="1.74845">
        <ele>1802</ele>
        <time>2016-09-10T12:49:55Z</time>
      </trkpt>
      <trkpt lat="42.71145" lon="1.74843">
        <ele>1801</ele>
        <time>2016-09-10T12:49:56Z</time>
      </trkpt>
      <trkpt lat="42.71147" lon="1.74836">
        <ele>1801</ele>
        <time>2016-09-10T12:50:01Z</time>
      </trkpt>
      <trkpt lat="42.71149" lon="1.74831">
        <ele>1801</ele>
        <time>2016-09-10T12:50:07Z</time>
      </trkpt>
      <trkpt lat="42.71149" lon="1.74828">
        <ele>1801</ele>
        <time>2016-09-10T12:50:08Z</time>
      </trkpt>
      <trkpt lat="42.7115" lon="1.74822">
        <ele>1801</ele>
        <time>2016-09-10T12:50:12Z</time>
      </trkpt>
      <trkpt lat="42.71151" lon="1.74816">
        <ele>1801</ele>
        <time>2016-09-10T12:50:17Z</time>
      </trkpt>
      <trkpt lat="42.71152" lon="1.74814">
        <ele>1801</ele>
        <time>2016-09-10T12:50:18Z</time>
      </trkpt>
      <trkpt lat="42.71154" lon="1.7481">
        <ele>1801</ele>
        <time>2016-09-10T12:50:22Z</time>
      </trkpt>
      <trkpt lat="42.71155" lon="1.74801">
        <ele>1801</ele>
        <time>2016-09-10T12:50:28Z</time>
      </trkpt>
      <trkpt lat="42.71155" lon="1.74799">
        <ele>1801</ele>
        <time>2016-09-10T12:50:29Z</time>
      </trkpt>
      <trkpt lat="42.71154" lon="1.74792">
        <ele>1802</ele>
        <time>2016-09-10T12:50:33Z</time>
      </trkpt>
      <trkpt lat="42.71157" lon="1.74783">
        <ele>1802</ele>
        <time>2016-09-10T12:50:38Z</time>
      </trkpt>
      <trkpt lat="42.71159" lon="1.74781">
        <ele>1802</ele>
        <time>2016-09-10T12:50:40Z</time>
      </trkpt>
      <trkpt lat="42.71162" lon="1.74779">
        <ele>1802</ele>
        <time>2016-09-10T12:50:43Z</time>
      </trkpt>
      <trkpt lat="42.71168" lon="1.74775">
        <ele>1802</ele>
        <time>2016-09-10T12:50:49Z</time>
      </trkpt>
      <trkpt lat="42.7117" lon="1.74771">
        <ele>1802</ele>
        <time>2016-09-10T12:50:53Z</time>
      </trkpt>
      <trkpt lat="42.71171" lon="1.74769">
        <ele>1802</ele>
        <time>2016-09-10T12:50:54Z</time>
      </trkpt>
      <trkpt lat="42.71174" lon="1.74764">
        <ele>1802</ele>
        <time>2016-09-10T12:50:59Z</time>
      </trkpt>
      <trkpt lat="42.71175" lon="1.74764">
        <ele>1802</ele>
        <time>2016-09-10T12:51:00Z</time>
      </trkpt>
      <trkpt lat="42.71176" lon="1.74764">
        <ele>1802</ele>
        <time>2016-09-10T12:51:01Z</time>
      </trkpt>
      <trkpt lat="42.71177" lon="1.74764">
        <ele>1802</ele>
        <time>2016-09-10T12:51:02Z</time>
      </trkpt>
      <trkpt lat="42.71178" lon="1.74763">
        <ele>1802</ele>
        <time>2016-09-10T12:51:03Z</time>
      </trkpt>
      <trkpt lat="42.7118" lon="1.74762">
        <ele>1802</ele>
        <time>2016-09-10T12:51:05Z</time>
      </trkpt>
      <trkpt lat="42.71185" lon="1.7476">
        <ele>1801</ele>
        <time>2016-09-10T12:51:11Z</time>
      </trkpt>
      <trkpt lat="42.71188" lon="1.74759">
        <ele>1800</ele>
        <time>2016-09-10T12:51:14Z</time>
      </trkpt>
      <trkpt lat="42.71191" lon="1.74759">
        <ele>1800</ele>
        <time>2016-09-10T12:51:18Z</time>
      </trkpt>
      <trkpt lat="42.71197" lon="1.74757">
        <ele>1799</ele>
        <time>2016-09-10T12:51:25Z</time>
      </trkpt>
      <trkpt lat="42.71199" lon="1.74756">
        <ele>1799</ele>
        <time>2016-09-10T12:51:32Z</time>
      </trkpt>
      <trkpt lat="42.71199" lon="1.74755">
        <ele>1799</ele>
        <time>2016-09-10T12:51:39Z</time>
      </trkpt>
      <trkpt lat="42.71199" lon="1.74753">
        <ele>1799</ele>
        <time>2016-09-10T12:51:51Z</time>
      </trkpt>
      <trkpt lat="42.71198" lon="1.74748">
        <ele>1800</ele>
        <time>2016-09-10T12:51:58Z</time>
      </trkpt>
      <trkpt lat="42.71196" lon="1.74743">
        <ele>1800</ele>
        <time>2016-09-10T12:52:04Z</time>
      </trkpt>
      <trkpt lat="42.71196" lon="1.7474">
        <ele>1801</ele>
        <time>2016-09-10T12:52:16Z</time>
      </trkpt>
      <trkpt lat="42.71196" lon="1.74738">
        <ele>1801</ele>
        <time>2016-09-10T12:52:18Z</time>
      </trkpt>
      <trkpt lat="42.71195" lon="1.74735">
        <ele>1801</ele>
        <time>2016-09-10T12:52:21Z</time>
      </trkpt>
      <trkpt lat="42.7119" lon="1.74733">
        <ele>1802</ele>
        <time>2016-09-10T12:52:27Z</time>
      </trkpt>
      <trkpt lat="42.71186" lon="1.74734">
        <ele>1802</ele>
        <time>2016-09-10T12:52:30Z</time>
      </trkpt>
      <trkpt lat="42.71186" lon="1.74735">
        <ele>1803</ele>
        <time>2016-09-10T12:52:31Z</time>
      </trkpt>
      <trkpt lat="42.71184" lon="1.74735">
        <ele>1803</ele>
        <time>2016-09-10T12:52:37Z</time>
      </trkpt>
      <trkpt lat="42.71184" lon="1.74735">
        <ele>1803</ele>
        <time>2016-09-10T12:52:38Z</time>
      </trkpt>
      <trkpt lat="42.71184" lon="1.74735">
        <ele>1803</ele>
        <time>2016-09-10T12:52:39Z</time>
      </trkpt>
      <trkpt lat="42.71184" lon="1.74735">
        <ele>1803</ele>
        <time>2016-09-10T12:52:40Z</time>
      </trkpt>
      <trkpt lat="42.71184" lon="1.74735">
        <ele>1803</ele>
        <time>2016-09-10T12:52:41Z</time>
      </trkpt>
      <trkpt lat="42.71184" lon="1.74735">
        <ele>1803</ele>
        <time>2016-09-10T12:52:42Z</time>
      </trkpt>
      <trkpt lat="42.71184" lon="1.74735">
        <ele>1803</ele>
        <time>2016-09-10T12:52:49Z</time>
      </trkpt>
      <trkpt lat="42.71183" lon="1.74735">
        <ele>1803</ele>
        <time>2016-09-10T12:52:57Z</time>
      </trkpt>
      <trkpt lat="42.7118" lon="1.74734">
        <ele>1803</ele>
        <time>2016-09-10T12:53:02Z</time>
      </trkpt>
      <trkpt lat="42.71178" lon="1.74733">
        <ele>1804</ele>
        <time>2016-09-10T12:53:04Z</time>
      </trkpt>
      <trkpt lat="42.71175" lon="1.74732">
        <ele>1804</ele>
        <time>2016-09-10T12:53:08Z</time>
      </trkpt>
      <trkpt lat="42.71173" lon="1.74731">
        <ele>1804</ele>
        <time>2016-09-10T12:53:15Z</time>
      </trkpt>
      <trkpt lat="42.71168" lon="1.74729">
        <ele>1804</ele>
        <time>2016-09-10T12:53:20Z</time>
      </trkpt>
      <trkpt lat="42.7116" lon="1.74725">
        <ele>1805</ele>
        <time>2016-09-10T12:53:27Z</time>
      </trkpt>
      <trkpt lat="42.71158" lon="1.74724">
        <ele>1805</ele>
        <time>2016-09-10T12:53:29Z</time>
      </trkpt>
      <trkpt lat="42.71157" lon="1.74723">
        <ele>1805</ele>
        <time>2016-09-10T12:53:30Z</time>
      </trkpt>
      <trkpt lat="42.71156" lon="1.74722">
        <ele>1805</ele>
        <time>2016-09-10T12:53:31Z</time>
      </trkpt>
      <trkpt lat="42.71155" lon="1.74722">
        <ele>1805</ele>
        <time>2016-09-10T12:53:32Z</time>
      </trkpt>
      <trkpt lat="42.71153" lon="1.74721">
        <ele>1805</ele>
        <time>2016-09-10T12:53:33Z</time>
      </trkpt>
      <trkpt lat="42.71146" lon="1.74719">
        <ele>1806</ele>
        <time>2016-09-10T12:53:39Z</time>
      </trkpt>
      <trkpt lat="42.71141" lon="1.74716">
        <ele>1806</ele>
        <time>2016-09-10T12:53:44Z</time>
      </trkpt>
      <trkpt lat="42.71135" lon="1.74714">
        <ele>1806</ele>
        <time>2016-09-10T12:53:50Z</time>
      </trkpt>
      <trkpt lat="42.71128" lon="1.74712">
        <ele>1806</ele>
        <time>2016-09-10T12:53:56Z</time>
      </trkpt>
      <trkpt lat="42.71122" lon="1.74709">
        <ele>1806</ele>
        <time>2016-09-10T12:54:01Z</time>
      </trkpt>
      <trkpt lat="42.71115" lon="1.74708">
        <ele>1806</ele>
        <time>2016-09-10T12:54:07Z</time>
      </trkpt>
      <trkpt lat="42.71109" lon="1.74707">
        <ele>1805</ele>
        <time>2016-09-10T12:54:13Z</time>
      </trkpt>
      <trkpt lat="42.71108" lon="1.74706">
        <ele>1805</ele>
        <time>2016-09-10T12:54:14Z</time>
      </trkpt>
      <trkpt lat="42.71104" lon="1.74705">
        <ele>1805</ele>
        <time>2016-09-10T12:54:18Z</time>
      </trkpt>
      <trkpt lat="42.71102" lon="1.74705">
        <ele>1805</ele>
        <time>2016-09-10T12:54:19Z</time>
      </trkpt>
      <trkpt lat="42.71096" lon="1.74705">
        <ele>1805</ele>
        <time>2016-09-10T12:54:24Z</time>
      </trkpt>
      <trkpt lat="42.71091" lon="1.74702">
        <ele>1805</ele>
        <time>2016-09-10T12:54:29Z</time>
      </trkpt>
      <trkpt lat="42.71086" lon="1.74702">
        <ele>1805</ele>
        <time>2016-09-10T12:54:34Z</time>
      </trkpt>
      <trkpt lat="42.71079" lon="1.74699">
        <ele>1804</ele>
        <time>2016-09-10T12:54:39Z</time>
      </trkpt>
      <trkpt lat="42.71074" lon="1.74699">
        <ele>1804</ele>
        <time>2016-09-10T12:54:44Z</time>
      </trkpt>
      <trkpt lat="42.71073" lon="1.74699">
        <ele>1804</ele>
        <time>2016-09-10T12:54:45Z</time>
      </trkpt>
      <trkpt lat="42.71067" lon="1.74701">
        <ele>1804</ele>
        <time>2016-09-10T12:54:51Z</time>
      </trkpt>
      <trkpt lat="42.71065" lon="1.74701">
        <ele>1804</ele>
        <time>2016-09-10T12:54:52Z</time>
      </trkpt>
      <trkpt lat="42.71062" lon="1.74702">
        <ele>1804</ele>
        <time>2016-09-10T12:54:56Z</time>
      </trkpt>
      <trkpt lat="42.71058" lon="1.74702">
        <ele>1803</ele>
        <time>2016-09-10T12:55:02Z</time>
      </trkpt>
      <trkpt lat="42.71053" lon="1.74703">
        <ele>1803</ele>
        <time>2016-09-10T12:55:06Z</time>
      </trkpt>
      <trkpt lat="42.71051" lon="1.74703">
        <ele>1803</ele>
        <time>2016-09-10T12:55:08Z</time>
      </trkpt>
      <trkpt lat="42.7105" lon="1.74702">
        <ele>1803</ele>
        <time>2016-09-10T12:55:09Z</time>
      </trkpt>
      <trkpt lat="42.71047" lon="1.74701">
        <ele>1803</ele>
        <time>2016-09-10T12:55:11Z</time>
      </trkpt>
      <trkpt lat="42.71045" lon="1.74703">
        <ele>1803</ele>
        <time>2016-09-10T12:55:13Z</time>
      </trkpt>
      <trkpt lat="42.71043" lon="1.74702">
        <ele>1803</ele>
        <time>2016-09-10T12:55:15Z</time>
      </trkpt>
      <trkpt lat="42.71039" lon="1.74702">
        <ele>1802</ele>
        <time>2016-09-10T12:55:18Z</time>
      </trkpt>
      <trkpt lat="42.71039" lon="1.74702">
        <ele>1802</ele>
        <time>2016-09-10T12:55:19Z</time>
      </trkpt>
      <trkpt lat="42.71038" lon="1.74702">
        <ele>1802</ele>
        <time>2016-09-10T12:55:20Z</time>
      </trkpt>
      <trkpt lat="42.71037" lon="1.74701">
        <ele>1802</ele>
        <time>2016-09-10T12:55:21Z</time>
      </trkpt>
      <trkpt lat="42.71035" lon="1.747">
        <ele>1802</ele>
        <time>2016-09-10T12:55:25Z</time>
      </trkpt>
      <trkpt lat="42.71034" lon="1.74701">
        <ele>1802</ele>
        <time>2016-09-10T12:55:31Z</time>
      </trkpt>
      <trkpt lat="42.7103" lon="1.74701">
        <ele>1802</ele>
        <time>2016-09-10T12:55:36Z</time>
      </trkpt>
      <trkpt lat="42.71028" lon="1.74701">
        <ele>1801</ele>
        <time>2016-09-10T12:55:38Z</time>
      </trkpt>
      <trkpt lat="42.71026" lon="1.747">
        <ele>1801</ele>
        <time>2016-09-10T12:55:39Z</time>
      </trkpt>
      <trkpt lat="42.71025" lon="1.74699">
        <ele>1801</ele>
        <time>2016-09-10T12:55:40Z</time>
      </trkpt>
      <trkpt lat="42.71024" lon="1.74699">
        <ele>1801</ele>
        <time>2016-09-10T12:55:41Z</time>
      </trkpt>
      <trkpt lat="42.71024" lon="1.74699">
        <ele>1801</ele>
        <time>2016-09-10T12:55:42Z</time>
      </trkpt>
      <trkpt lat="42.71023" lon="1.74699">
        <ele>1801</ele>
        <time>2016-09-10T12:55:43Z</time>
      </trkpt>
      <trkpt lat="42.71022" lon="1.747">
        <ele>1801</ele>
        <time>2016-09-10T12:55:44Z</time>
      </trkpt>
      <trkpt lat="42.71018" lon="1.74702">
        <ele>1801</ele>
        <time>2016-09-10T12:55:47Z</time>
      </trkpt>
      <trkpt lat="42.71017" lon="1.74703">
        <ele>1801</ele>
        <time>2016-09-10T12:55:48Z</time>
      </trkpt>
      <trkpt lat="42.71017" lon="1.74703">
        <ele>1800</ele>
        <time>2016-09-10T12:55:49Z</time>
      </trkpt>
      <trkpt lat="42.71016" lon="1.74703">
        <ele>1800</ele>
        <time>2016-09-10T12:55:50Z</time>
      </trkpt>
      <trkpt lat="42.71014" lon="1.74703">
        <ele>1800</ele>
        <time>2016-09-10T12:55:51Z</time>
      </trkpt>
      <trkpt lat="42.71013" lon="1.74703">
        <ele>1800</ele>
        <time>2016-09-10T12:55:52Z</time>
      </trkpt>
      <trkpt lat="42.71012" lon="1.74703">
        <ele>1800</ele>
        <time>2016-09-10T12:55:53Z</time>
      </trkpt>
      <trkpt lat="42.71007" lon="1.74703">
        <ele>1800</ele>
        <time>2016-09-10T12:55:57Z</time>
      </trkpt>
      <trkpt lat="42.71006" lon="1.74703">
        <ele>1799</ele>
        <time>2016-09-10T12:55:58Z</time>
      </trkpt>
      <trkpt lat="42.71002" lon="1.74702">
        <ele>1799</ele>
        <time>2016-09-10T12:56:02Z</time>
      </trkpt>
      <trkpt lat="42.71001" lon="1.74702">
        <ele>1799</ele>
        <time>2016-09-10T12:56:03Z</time>
      </trkpt>
      <trkpt lat="42.71" lon="1.74702">
        <ele>1799</ele>
        <time>2016-09-10T12:56:04Z</time>
      </trkpt>
      <trkpt lat="42.70999" lon="1.74702">
        <ele>1799</ele>
        <time>2016-09-10T12:56:05Z</time>
      </trkpt>
      <trkpt lat="42.70997" lon="1.74701">
        <ele>1799</ele>
        <time>2016-09-10T12:56:06Z</time>
      </trkpt>
      <trkpt lat="42.70996" lon="1.747">
        <ele>1799</ele>
        <time>2016-09-10T12:56:07Z</time>
      </trkpt>
      <trkpt lat="42.70995" lon="1.747">
        <ele>1799</ele>
        <time>2016-09-10T12:56:08Z</time>
      </trkpt>
      <trkpt lat="42.70994" lon="1.74699">
        <ele>1799</ele>
        <time>2016-09-10T12:56:09Z</time>
      </trkpt>
      <trkpt lat="42.70991" lon="1.74695">
        <ele>1798</ele>
        <time>2016-09-10T12:56:13Z</time>
      </trkpt>
      <trkpt lat="42.7099" lon="1.74693">
        <ele>1798</ele>
        <time>2016-09-10T12:56:14Z</time>
      </trkpt>
      <trkpt lat="42.70989" lon="1.74691">
        <ele>1798</ele>
        <time>2016-09-10T12:56:18Z</time>
      </trkpt>
      <trkpt lat="42.70991" lon="1.74689">
        <ele>1798</ele>
        <time>2016-09-10T12:56:25Z</time>
      </trkpt>
      <trkpt lat="42.70991" lon="1.74689">
        <ele>1798</ele>
        <time>2016-09-10T12:56:26Z</time>
      </trkpt>
      <trkpt lat="42.70992" lon="1.74688">
        <ele>1798</ele>
        <time>2016-09-10T12:56:32Z</time>
      </trkpt>
      <trkpt lat="42.70991" lon="1.74688">
        <ele>1798</ele>
        <time>2016-09-10T12:56:38Z</time>
      </trkpt>
      <trkpt lat="42.70991" lon="1.74688">
        <ele>1798</ele>
        <time>2016-09-10T12:56:48Z</time>
      </trkpt>
      <trkpt lat="42.70992" lon="1.74685">
        <ele>1798</ele>
        <time>2016-09-10T12:56:57Z</time>
      </trkpt>
      <trkpt lat="42.70996" lon="1.74683">
        <ele>1798</ele>
        <time>2016-09-10T12:57:05Z</time>
      </trkpt>
      <trkpt lat="42.70997" lon="1.74678">
        <ele>1798</ele>
        <time>2016-09-10T12:57:15Z</time>
      </trkpt>
      <trkpt lat="42.7099" lon="1.74681">
        <ele>1798</ele>
        <time>2016-09-10T12:57:22Z</time>
      </trkpt>
      <trkpt lat="42.70988" lon="1.74682">
        <ele>1798</ele>
        <time>2016-09-10T12:57:30Z</time>
      </trkpt>
      <trkpt lat="42.70991" lon="1.74685">
        <ele>1798</ele>
        <time>2016-09-10T12:57:38Z</time>
      </trkpt>
      <trkpt lat="42.70991" lon="1.74685">
        <ele>1798</ele>
        <time>2016-09-10T12:57:48Z</time>
      </trkpt>
      <trkpt lat="42.70991" lon="1.74685">
        <ele>1798</ele>
        <time>2016-09-10T12:57:59Z</time>
      </trkpt>
      <trkpt lat="42.70996" lon="1.74686">
        <ele>1798</ele>
        <time>2016-09-10T12:58:10Z</time>
      </trkpt>
      <trkpt lat="42.70997" lon="1.7469">
        <ele>1799</ele>
        <time>2016-09-10T12:58:22Z</time>
      </trkpt>
      <trkpt lat="42.70998" lon="1.7469">
        <ele>1799</ele>
        <time>2016-09-10T12:58:32Z</time>
      </trkpt>
      <trkpt lat="42.70998" lon="1.7469">
        <ele>1799</ele>
        <time>2016-09-10T12:58:44Z</time>
      </trkpt>
      <trkpt lat="42.70997" lon="1.7469">
        <ele>1799</ele>
        <time>2016-09-10T12:58:53Z</time>
      </trkpt>
      <trkpt lat="42.70997" lon="1.7469">
        <ele>1799</ele>
        <time>2016-09-10T12:58:55Z</time>
      </trkpt>
      <trkpt lat="42.70997" lon="1.7469">
        <ele>1799</ele>
        <time>2016-09-10T12:59:04Z</time>
      </trkpt>
      <trkpt lat="42.70997" lon="1.7469">
        <ele>1799</ele>
        <time>2016-09-10T12:59:16Z</time>
      </trkpt>
      <trkpt lat="42.70993" lon="1.74688">
        <ele>1798</ele>
        <time>2016-09-10T12:59:22Z</time>
      </trkpt>
      <trkpt lat="42.70991" lon="1.74693">
        <ele>1798</ele>
        <time>2016-09-10T12:59:31Z</time>
      </trkpt>
      <trkpt lat="42.70991" lon="1.74695">
        <ele>1798</ele>
        <time>2016-09-10T12:59:32Z</time>
      </trkpt>
      <trkpt lat="42.7099" lon="1.74695">
        <ele>1798</ele>
        <time>2016-09-10T12:59:34Z</time>
      </trkpt>
      <trkpt lat="42.70992" lon="1.74697">
        <ele>1799</ele>
        <time>2016-09-10T12:59:39Z</time>
      </trkpt>
      <trkpt lat="42.70993" lon="1.74695">
        <ele>1798</ele>
        <time>2016-09-10T12:59:44Z</time>
      </trkpt>
      <trkpt lat="42.70993" lon="1.74695">
        <ele>1798</ele>
        <time>2016-09-10T12:59:52Z</time>
      </trkpt>
      <trkpt lat="42.70993" lon="1.74696">
        <ele>1799</ele>
        <time>2016-09-10T12:59:58Z</time>
      </trkpt>
      <trkpt lat="42.70994" lon="1.74698">
        <ele>1799</ele>
        <time>2016-09-10T13:00:03Z</time>
      </trkpt>
      <trkpt lat="42.70994" lon="1.74698">
        <ele>1799</ele>
        <time>2016-09-10T13:00:11Z</time>
      </trkpt>
      <trkpt lat="42.70996" lon="1.74697">
        <ele>1799</ele>
        <time>2016-09-10T13:00:18Z</time>
      </trkpt>
      <trkpt lat="42.70995" lon="1.747">
        <ele>1799</ele>
        <time>2016-09-10T13:00:25Z</time>
      </trkpt>
      <trkpt lat="42.70991" lon="1.74695">
        <ele>1798</ele>
        <time>2016-09-10T13:00:30Z</time>
      </trkpt>
      <trkpt lat="42.70989" lon="1.74688">
        <ele>1798</ele>
        <time>2016-09-10T13:00:36Z</time>
      </trkpt>
      <trkpt lat="42.70989" lon="1.74686">
        <ele>1798</ele>
        <time>2016-09-10T13:00:37Z</time>
      </trkpt>
      <trkpt lat="42.70989" lon="1.74681">
        <ele>1798</ele>
        <time>2016-09-10T13:00:41Z</time>
      </trkpt>
      <trkpt lat="42.70988" lon="1.74679">
        <ele>1798</ele>
        <time>2016-09-10T13:00:47Z</time>
      </trkpt>
      <trkpt lat="42.70988" lon="1.74679">
        <ele>1798</ele>
        <time>2016-09-10T13:01:00Z</time>
      </trkpt>
      <trkpt lat="42.70988" lon="1.74679">
        <ele>1798</ele>
        <time>2016-09-10T13:01:08Z</time>
      </trkpt>
      <trkpt lat="42.70989" lon="1.7468">
        <ele>1798</ele>
        <time>2016-09-10T13:01:16Z</time>
      </trkpt>
      <trkpt lat="42.70989" lon="1.74681">
        <ele>1798</ele>
        <time>2016-09-10T13:01:21Z</time>
      </trkpt>
      <trkpt lat="42.70987" lon="1.7468">
        <ele>1798</ele>
        <time>2016-09-10T13:01:28Z</time>
      </trkpt>
      <trkpt lat="42.70988" lon="1.74682">
        <ele>1798</ele>
        <time>2016-09-10T13:01:37Z</time>
      </trkpt>
      <trkpt lat="42.70989" lon="1.74683">
        <ele>1798</ele>
        <time>2016-09-10T13:01:38Z</time>
      </trkpt>
      <trkpt lat="42.70991" lon="1.74685">
        <ele>1798</ele>
        <time>2016-09-10T13:01:44Z</time>
      </trkpt>
      <trkpt lat="42.70991" lon="1.74685">
        <ele>1798</ele>
        <time>2016-09-10T13:01:55Z</time>
      </trkpt>
      <trkpt lat="42.70991" lon="1.74685">
        <ele>1798</ele>
        <time>2016-09-10T13:02:09Z</time>
      </trkpt>
      <trkpt lat="42.7099" lon="1.74685">
        <ele>1798</ele>
        <time>2016-09-10T13:02:23Z</time>
      </trkpt>
      <trkpt lat="42.7099" lon="1.74685">
        <ele>1798</ele>
        <time>2016-09-10T13:02:38Z</time>
      </trkpt>
      <trkpt lat="42.7099" lon="1.74685">
        <ele>1798</ele>
        <time>2016-09-10T13:02:54Z</time>
      </trkpt>
      <trkpt lat="42.7099" lon="1.74685">
        <ele>1798</ele>
        <time>2016-09-10T13:03:09Z</time>
      </trkpt>
      <trkpt lat="42.7099" lon="1.74685">
        <ele>1798</ele>
        <time>2016-09-10T13:03:23Z</time>
      </trkpt>
      <trkpt lat="42.7099" lon="1.74685">
        <ele>1798</ele>
        <time>2016-09-10T13:03:39Z</time>
      </trkpt>
      <trkpt lat="42.70989" lon="1.74686">
        <ele>1798</ele>
        <time>2016-09-10T13:03:53Z</time>
      </trkpt>
      <trkpt lat="42.70989" lon="1.74686">
        <ele>1798</ele>
        <time>2016-09-10T13:04:04Z</time>
      </trkpt>
      <trkpt lat="42.70989" lon="1.74686">
        <ele>1798</ele>
        <time>2016-09-10T13:04:07Z</time>
      </trkpt>
      <trkpt lat="42.70989" lon="1.74686">
        <ele>1798</ele>
        <time>2016-09-10T13:04:21Z</time>
      </trkpt>
      <trkpt lat="42.70989" lon="1.74686">
        <ele>1798</ele>
        <time>2016-09-10T13:04:36Z</time>
      </trkpt>
      <trkpt lat="42.70989" lon="1.74686">
        <ele>1798</ele>
        <time>2016-09-10T13:04:51Z</time>
      </trkpt>
      <trkpt lat="42.70988" lon="1.74687">
        <ele>1798</ele>
        <time>2016-09-10T13:05:06Z</time>
      </trkpt>
      <trkpt lat="42.70988" lon="1.74687">
        <ele>1798</ele>
        <time>2016-09-10T13:05:21Z</time>
      </trkpt>
      <trkpt lat="42.70988" lon="1.74687">
        <ele>1798</ele>
        <time>2016-09-10T13:05:35Z</time>
      </trkpt>
      <trkpt lat="42.70988" lon="1.74687">
        <ele>1798</ele>
        <time>2016-09-10T13:05:47Z</time>
      </trkpt>
      <trkpt lat="42.70988" lon="1.74687">
        <ele>1798</ele>
        <time>2016-09-10T13:05:48Z</time>
      </trkpt>
      <trkpt lat="42.70988" lon="1.74687">
        <ele>1798</ele>
        <time>2016-09-10T13:06:01Z</time>
      </trkpt>
      <trkpt lat="42.70988" lon="1.74687">
        <ele>1798</ele>
        <time>2016-09-10T13:06:14Z</time>
      </trkpt>
      <trkpt lat="42.70986" lon="1.74685">
        <ele>1798</ele>
        <time>2016-09-10T13:06:21Z</time>
      </trkpt>
      <trkpt lat="42.70986" lon="1.74685">
        <ele>1798</ele>
        <time>2016-09-10T13:06:32Z</time>
      </trkpt>
      <trkpt lat="42.70986" lon="1.74685">
        <ele>1798</ele>
        <time>2016-09-10T13:06:47Z</time>
      </trkpt>
      <trkpt lat="42.70986" lon="1.74687">
        <ele>1798</ele>
        <time>2016-09-10T13:06:52Z</time>
      </trkpt>
      <trkpt lat="42.70988" lon="1.74691">
        <ele>1798</ele>
        <time>2016-09-10T13:06:57Z</time>
      </trkpt>
      <trkpt lat="42.70991" lon="1.74688">
        <ele>1798</ele>
        <time>2016-09-10T13:07:03Z</time>
      </trkpt>
      <trkpt lat="42.70991" lon="1.7469">
        <ele>1798</ele>
        <time>2016-09-10T13:07:12Z</time>
      </trkpt>
      <trkpt lat="42.70991" lon="1.74693">
        <ele>1798</ele>
        <time>2016-09-10T13:07:18Z</time>
      </trkpt>
      <trkpt lat="42.7099" lon="1.74697">
        <ele>1799</ele>
        <time>2016-09-10T13:07:25Z</time>
      </trkpt>
      <trkpt lat="42.70993" lon="1.74704">
        <ele>1799</ele>
        <time>2016-09-10T13:07:31Z</time>
      </trkpt>
      <trkpt lat="42.70996" lon="1.7471">
        <ele>1799</ele>
        <time>2016-09-10T13:07:37Z</time>
      </trkpt>
      <trkpt lat="42.70999" lon="1.74716">
        <ele>1799</ele>
        <time>2016-09-10T13:07:44Z</time>
      </trkpt>
      <trkpt lat="42.71002" lon="1.74719">
        <ele>1799</ele>
        <time>2016-09-10T13:07:50Z</time>
      </trkpt>
      <trkpt lat="42.71002" lon="1.7472">
        <ele>1799</ele>
        <time>2016-09-10T13:07:56Z</time>
      </trkpt>
      <trkpt lat="42.71004" lon="1.74723">
        <ele>1800</ele>
        <time>2016-09-10T13:08:02Z</time>
      </trkpt>
      <trkpt lat="42.71006" lon="1.74729">
        <ele>1800</ele>
        <time>2016-09-10T13:08:09Z</time>
      </trkpt>
      <trkpt lat="42.71007" lon="1.74734">
        <ele>1800</ele>
        <time>2016-09-10T13:08:14Z</time>
      </trkpt>
      <trkpt lat="42.71007" lon="1.74736">
        <ele>1800</ele>
        <time>2016-09-10T13:08:16Z</time>
      </trkpt>
      <trkpt lat="42.71007" lon="1.74737">
        <ele>1800</ele>
        <time>2016-09-10T13:08:20Z</time>
      </trkpt>
      <trkpt lat="42.71007" lon="1.74737">
        <ele>1800</ele>
        <time>2016-09-10T13:08:32Z</time>
      </trkpt>
      <trkpt lat="42.71008" lon="1.74742">
        <ele>1800</ele>
        <time>2016-09-10T13:08:36Z</time>
      </trkpt>
      <trkpt lat="42.71008" lon="1.74744">
        <ele>1800</ele>
        <time>2016-09-10T13:08:38Z</time>
      </trkpt>
      <trkpt lat="42.71007" lon="1.74751">
        <ele>1799</ele>
        <time>2016-09-10T13:08:43Z</time>
      </trkpt>
      <trkpt lat="42.71005" lon="1.74757">
        <ele>1799</ele>
        <time>2016-09-10T13:08:49Z</time>
      </trkpt>
      <trkpt lat="42.71005" lon="1.74757">
        <ele>1799</ele>
        <time>2016-09-10T13:09:00Z</time>
      </trkpt>
      <trkpt lat="42.71005" lon="1.74757">
        <ele>1799</ele>
        <time>2016-09-10T13:09:12Z</time>
      </trkpt>
      <trkpt lat="42.71006" lon="1.74754">
        <ele>1799</ele>
        <time>2016-09-10T13:09:15Z</time>
      </trkpt>
      <trkpt lat="42.71008" lon="1.74751">
        <ele>1800</ele>
        <time>2016-09-10T13:09:17Z</time>
      </trkpt>
      <trkpt lat="42.71009" lon="1.74744">
        <ele>1800</ele>
        <time>2016-09-10T13:09:23Z</time>
      </trkpt>
      <trkpt lat="42.71009" lon="1.74737">
        <ele>1800</ele>
        <time>2016-09-10T13:09:29Z</time>
      </trkpt>
      <trkpt lat="42.71008" lon="1.74735">
        <ele>1800</ele>
        <time>2016-09-10T13:09:31Z</time>
      </trkpt>
      <trkpt lat="42.71007" lon="1.74733">
        <ele>1800</ele>
        <time>2016-09-10T13:09:33Z</time>
      </trkpt>
      <trkpt lat="42.71006" lon="1.74726">
        <ele>1800</ele>
        <time>2016-09-10T13:09:38Z</time>
      </trkpt>
      <trkpt lat="42.71005" lon="1.74721">
        <ele>1800</ele>
        <time>2016-09-10T13:09:42Z</time>
      </trkpt>
      <trkpt lat="42.71004" lon="1.74718">
        <ele>1800</ele>
        <time>2016-09-10T13:09:44Z</time>
      </trkpt>
      <trkpt lat="42.71003" lon="1.74717">
        <ele>1799</ele>
        <time>2016-09-10T13:09:46Z</time>
      </trkpt>
      <trkpt lat="42.71002" lon="1.74716">
        <ele>1799</ele>
        <time>2016-09-10T13:09:47Z</time>
      </trkpt>
      <trkpt lat="42.71002" lon="1.74715">
        <ele>1799</ele>
        <time>2016-09-10T13:09:48Z</time>
      </trkpt>
      <trkpt lat="42.71001" lon="1.74714">
        <ele>1799</ele>
        <time>2016-09-10T13:09:49Z</time>
      </trkpt>
      <trkpt lat="42.71" lon="1.74713">
        <ele>1799</ele>
        <time>2016-09-10T13:09:50Z</time>
      </trkpt>
      <trkpt lat="42.70998" lon="1.7471">
        <ele>1799</ele>
        <time>2016-09-10T13:09:53Z</time>
      </trkpt>
      <trkpt lat="42.70997" lon="1.74709">
        <ele>1799</ele>
        <time>2016-09-10T13:09:54Z</time>
      </trkpt>
      <trkpt lat="42.70995" lon="1.74703">
        <ele>1799</ele>
        <time>2016-09-10T13:09:59Z</time>
      </trkpt>
      <trkpt lat="42.70991" lon="1.74697">
        <ele>1799</ele>
        <time>2016-09-10T13:10:04Z</time>
      </trkpt>
      <trkpt lat="42.70991" lon="1.74693">
        <ele>1798</ele>
        <time>2016-09-10T13:10:07Z</time>
      </trkpt>
      <trkpt lat="42.70993" lon="1.74691">
        <ele>1798</ele>
        <time>2016-09-10T13:10:09Z</time>
      </trkpt>
      <trkpt lat="42.70997" lon="1.74688">
        <ele>1798</ele>
        <time>2016-09-10T13:10:17Z</time>
      </trkpt>
      <trkpt lat="42.70995" lon="1.74687">
        <ele>1798</ele>
        <time>2016-09-10T13:10:27Z</time>
      </trkpt>
      <trkpt lat="42.70995" lon="1.74687">
        <ele>1798</ele>
        <time>2016-09-10T13:10:35Z</time>
      </trkpt>
      <trkpt lat="42.70995" lon="1.74688">
        <ele>1798</ele>
        <time>2016-09-10T13:10:45Z</time>
      </trkpt>
      <trkpt lat="42.70994" lon="1.74692">
        <ele>1798</ele>
        <time>2016-09-10T13:10:55Z</time>
      </trkpt>
      <trkpt lat="42.7099" lon="1.74692">
        <ele>1798</ele>
        <time>2016-09-10T13:11:04Z</time>
      </trkpt>
      <trkpt lat="42.70991" lon="1.74691">
        <ele>1798</ele>
        <time>2016-09-10T13:11:09Z</time>
      </trkpt>
      <trkpt lat="42.70991" lon="1.74693">
        <ele>1798</ele>
        <time>2016-09-10T13:11:15Z</time>
      </trkpt>
      <trkpt lat="42.70989" lon="1.74692">
        <ele>1798</ele>
        <time>2016-09-10T13:11:24Z</time>
      </trkpt>
      <trkpt lat="42.70989" lon="1.74689">
        <ele>1798</ele>
        <time>2016-09-10T13:11:30Z</time>
      </trkpt>
      <trkpt lat="42.7099" lon="1.74688">
        <ele>1798</ele>
        <time>2016-09-10T13:11:38Z</time>
      </trkpt>
      <trkpt lat="42.70991" lon="1.74685">
        <ele>1798</ele>
        <time>2016-09-10T13:11:43Z</time>
      </trkpt>
      <trkpt lat="42.70991" lon="1.74685">
        <ele>1798</ele>
        <time>2016-09-10T13:11:57Z</time>
      </trkpt>
      <trkpt lat="42.70991" lon="1.74685">
        <ele>1798</ele>
        <time>2016-09-10T13:12:11Z</time>
      </trkpt>
      <trkpt lat="42.70991" lon="1.74685">
        <ele>1798</ele>
        <time>2016-09-10T13:12:27Z</time>
      </trkpt>
      <trkpt lat="42.70991" lon="1.74685">
        <ele>1798</ele>
        <time>2016-09-10T13:12:43Z</time>
      </trkpt>
      <trkpt lat="42.70991" lon="1.74685">
        <ele>1798</ele>
        <time>2016-09-10T13:12:59Z</time>
      </trkpt>
      <trkpt lat="42.70991" lon="1.74685">
        <ele>1798</ele>
        <time>2016-09-10T13:13:14Z</time>
      </trkpt>
      <trkpt lat="42.70991" lon="1.74685">
        <ele>1798</ele>
        <time>2016-09-10T13:13:30Z</time>
      </trkpt>
      <trkpt lat="42.7099" lon="1.74686">
        <ele>1798</ele>
        <time>2016-09-10T13:13:44Z</time>
      </trkpt>
      <trkpt lat="42.7099" lon="1.74686">
        <ele>1798</ele>
        <time>2016-09-10T13:13:58Z</time>
      </trkpt>
      <trkpt lat="42.7099" lon="1.74686">
        <ele>1798</ele>
        <time>2016-09-10T13:14:14Z</time>
      </trkpt>
      <trkpt lat="42.7099" lon="1.74686">
        <ele>1798</ele>
        <time>2016-09-10T13:14:27Z</time>
      </trkpt>
      <trkpt lat="42.7099" lon="1.74686">
        <ele>1798</ele>
        <time>2016-09-10T13:14:42Z</time>
      </trkpt>
      <trkpt lat="42.7099" lon="1.74686">
        <ele>1798</ele>
        <time>2016-09-10T13:14:56Z</time>
      </trkpt>
      <trkpt lat="42.7099" lon="1.74687">
        <ele>1798</ele>
        <time>2016-09-10T13:15:12Z</time>
      </trkpt>
      <trkpt lat="42.7099" lon="1.74687">
        <ele>1798</ele>
        <time>2016-09-10T13:15:29Z</time>
      </trkpt>
      <trkpt lat="42.70989" lon="1.74687">
        <ele>1798</ele>
        <time>2016-09-10T13:15:44Z</time>
      </trkpt>
      <trkpt lat="42.70989" lon="1.74687">
        <ele>1798</ele>
        <time>2016-09-10T13:16:00Z</time>
      </trkpt>
      <trkpt lat="42.70989" lon="1.74687">
        <ele>1798</ele>
        <time>2016-09-10T13:16:17Z</time>
      </trkpt>
      <trkpt lat="42.70989" lon="1.74686">
        <ele>1798</ele>
        <time>2016-09-10T13:16:24Z</time>
      </trkpt>
      <trkpt lat="42.70989" lon="1.74686">
        <ele>1798</ele>
        <time>2016-09-10T13:16:31Z</time>
      </trkpt>
      <trkpt lat="42.70989" lon="1.74686">
        <ele>1798</ele>
        <time>2016-09-10T13:16:48Z</time>
      </trkpt>
      <trkpt lat="42.70989" lon="1.74686">
        <ele>1798</ele>
        <time>2016-09-10T13:16:57Z</time>
      </trkpt>
      <trkpt lat="42.70988" lon="1.74685">
        <ele>1798</ele>
        <time>2016-09-10T13:17:12Z</time>
      </trkpt>
      <trkpt lat="42.70988" lon="1.74685">
        <ele>1798</ele>
        <time>2016-09-10T13:17:27Z</time>
      </trkpt>
      <trkpt lat="42.70988" lon="1.74685">
        <ele>1798</ele>
        <time>2016-09-10T13:17:33Z</time>
      </trkpt>
      <trkpt lat="42.70989" lon="1.74685">
        <ele>1798</ele>
        <time>2016-09-10T13:17:44Z</time>
      </trkpt>
      <trkpt lat="42.70989" lon="1.74685">
        <ele>1798</ele>
        <time>2016-09-10T13:17:55Z</time>
      </trkpt>
      <trkpt lat="42.70989" lon="1.74688">
        <ele>1798</ele>
        <time>2016-09-10T13:18:01Z</time>
      </trkpt>
      <trkpt lat="42.7099" lon="1.74693">
        <ele>1798</ele>
        <time>2016-09-10T13:18:06Z</time>
      </trkpt>
      <trkpt lat="42.70992" lon="1.74698">
        <ele>1799</ele>
        <time>2016-09-10T13:18:11Z</time>
      </trkpt>
      <trkpt lat="42.70993" lon="1.74703">
        <ele>1799</ele>
        <time>2016-09-10T13:18:15Z</time>
      </trkpt>
      <trkpt lat="42.70994" lon="1.74709">
        <ele>1799</ele>
        <time>2016-09-10T13:18:19Z</time>
      </trkpt>
      <trkpt lat="42.70993" lon="1.7471">
        <ele>1799</ele>
        <time>2016-09-10T13:18:20Z</time>
      </trkpt>
      <trkpt lat="42.70991" lon="1.74714">
        <ele>1799</ele>
        <time>2016-09-10T13:18:27Z</time>
      </trkpt>
      <trkpt lat="42.70991" lon="1.74718">
        <ele>1799</ele>
        <time>2016-09-10T13:18:35Z</time>
      </trkpt>
      <trkpt lat="42.7099" lon="1.74722">
        <ele>1799</ele>
        <time>2016-09-10T13:18:38Z</time>
      </trkpt>
      <trkpt lat="42.7099" lon="1.74722">
        <ele>1799</ele>
        <time>2016-09-10T13:18:39Z</time>
      </trkpt>
      <trkpt lat="42.70989" lon="1.74723">
        <ele>1799</ele>
        <time>2016-09-10T13:18:40Z</time>
      </trkpt>
      <trkpt lat="42.70988" lon="1.74724">
        <ele>1799</ele>
        <time>2016-09-10T13:18:41Z</time>
      </trkpt>
      <trkpt lat="42.70988" lon="1.74725">
        <ele>1799</ele>
        <time>2016-09-10T13:18:42Z</time>
      </trkpt>
      <trkpt lat="42.70989" lon="1.74729">
        <ele>1799</ele>
        <time>2016-09-10T13:18:45Z</time>
      </trkpt>
      <trkpt lat="42.7099" lon="1.7473">
        <ele>1799</ele>
        <time>2016-09-10T13:18:46Z</time>
      </trkpt>
      <trkpt lat="42.70991" lon="1.74739">
        <ele>1799</ele>
        <time>2016-09-10T13:18:53Z</time>
      </trkpt>
      <trkpt lat="42.70987" lon="1.74743">
        <ele>1799</ele>
        <time>2016-09-10T13:18:58Z</time>
      </trkpt>
      <trkpt lat="42.70985" lon="1.74744">
        <ele>1799</ele>
        <time>2016-09-10T13:19:01Z</time>
      </trkpt>
      <trkpt lat="42.70983" lon="1.74743">
        <ele>1799</ele>
        <time>2016-09-10T13:19:03Z</time>
      </trkpt>
      <trkpt lat="42.70978" lon="1.74742">
        <ele>1800</ele>
        <time>2016-09-10T13:19:09Z</time>
      </trkpt>
      <trkpt lat="42.70978" lon="1.74741">
        <ele>1800</ele>
        <time>2016-09-10T13:19:10Z</time>
      </trkpt>
      <trkpt lat="42.70977" lon="1.7474">
        <ele>1800</ele>
        <time>2016-09-10T13:19:11Z</time>
      </trkpt>
      <trkpt lat="42.70976" lon="1.74739">
        <ele>1800</ele>
        <time>2016-09-10T13:19:12Z</time>
      </trkpt>
      <trkpt lat="42.70976" lon="1.74739">
        <ele>1800</ele>
        <time>2016-09-10T13:19:13Z</time>
      </trkpt>
      <trkpt lat="42.70975" lon="1.74739">
        <ele>1800</ele>
        <time>2016-09-10T13:19:14Z</time>
      </trkpt>
      <trkpt lat="42.70971" lon="1.7474">
        <ele>1800</ele>
        <time>2016-09-10T13:19:19Z</time>
      </trkpt>
      <trkpt lat="42.7097" lon="1.7474">
        <ele>1800</ele>
        <time>2016-09-10T13:19:20Z</time>
      </trkpt>
      <trkpt lat="42.7097" lon="1.74741">
        <ele>1800</ele>
        <time>2016-09-10T13:19:21Z</time>
      </trkpt>
      <trkpt lat="42.70968" lon="1.74741">
        <ele>1800</ele>
        <time>2016-09-10T13:19:22Z</time>
      </trkpt>
      <trkpt lat="42.70967" lon="1.7474">
        <ele>1800</ele>
        <time>2016-09-10T13:19:23Z</time>
      </trkpt>
      <trkpt lat="42.70965" lon="1.7474">
        <ele>1800</ele>
        <time>2016-09-10T13:19:25Z</time>
      </trkpt>
      <trkpt lat="42.70961" lon="1.74738">
        <ele>1800</ele>
        <time>2016-09-10T13:19:30Z</time>
      </trkpt>
      <trkpt lat="42.7096" lon="1.74738">
        <ele>1800</ele>
        <time>2016-09-10T13:19:38Z</time>
      </trkpt>
      <trkpt lat="42.70957" lon="1.74736">
        <ele>1800</ele>
        <time>2016-09-10T13:19:43Z</time>
      </trkpt>
      <trkpt lat="42.70956" lon="1.74736">
        <ele>1800</ele>
        <time>2016-09-10T13:19:44Z</time>
      </trkpt>
      <trkpt lat="42.70954" lon="1.74737">
        <ele>1800</ele>
        <time>2016-09-10T13:19:45Z</time>
      </trkpt>
      <trkpt lat="42.70953" lon="1.74736">
        <ele>1800</ele>
        <time>2016-09-10T13:19:46Z</time>
      </trkpt>
      <trkpt lat="42.70953" lon="1.74736">
        <ele>1800</ele>
        <time>2016-09-10T13:19:47Z</time>
      </trkpt>
      <trkpt lat="42.70951" lon="1.74736">
        <ele>1800</ele>
        <time>2016-09-10T13:19:48Z</time>
      </trkpt>
      <trkpt lat="42.70946" lon="1.74735">
        <ele>1801</ele>
        <time>2016-09-10T13:19:53Z</time>
      </trkpt>
      <trkpt lat="42.70945" lon="1.74735">
        <ele>1801</ele>
        <time>2016-09-10T13:19:54Z</time>
      </trkpt>
      <trkpt lat="42.70939" lon="1.74733">
        <ele>1801</ele>
        <time>2016-09-10T13:20:00Z</time>
      </trkpt>
      <trkpt lat="42.70937" lon="1.74733">
        <ele>1801</ele>
        <time>2016-09-10T13:20:01Z</time>
      </trkpt>
      <trkpt lat="42.70935" lon="1.74733">
        <ele>1801</ele>
        <time>2016-09-10T13:20:04Z</time>
      </trkpt>
      <trkpt lat="42.70934" lon="1.74733">
        <ele>1801</ele>
        <time>2016-09-10T13:20:05Z</time>
      </trkpt>
      <trkpt lat="42.70933" lon="1.74733">
        <ele>1801</ele>
        <time>2016-09-10T13:20:06Z</time>
      </trkpt>
      <trkpt lat="42.70932" lon="1.74733">
        <ele>1802</ele>
        <time>2016-09-10T13:20:07Z</time>
      </trkpt>
      <trkpt lat="42.70931" lon="1.74732">
        <ele>1802</ele>
        <time>2016-09-10T13:20:08Z</time>
      </trkpt>
      <trkpt lat="42.70926" lon="1.74732">
        <ele>1802</ele>
        <time>2016-09-10T13:20:12Z</time>
      </trkpt>
      <trkpt lat="42.70921" lon="1.74731">
        <ele>1802</ele>
        <time>2016-09-10T13:20:17Z</time>
      </trkpt>
      <trkpt lat="42.70913" lon="1.7473">
        <ele>1802</ele>
        <time>2016-09-10T13:20:23Z</time>
      </trkpt>
      <trkpt lat="42.70908" lon="1.74729">
        <ele>1803</ele>
        <time>2016-09-10T13:20:28Z</time>
      </trkpt>
      <trkpt lat="42.70904" lon="1.74729">
        <ele>1803</ele>
        <time>2016-09-10T13:20:32Z</time>
      </trkpt>
      <trkpt lat="42.709" lon="1.74728">
        <ele>1803</ele>
        <time>2016-09-10T13:20:34Z</time>
      </trkpt>
      <trkpt lat="42.70895" lon="1.74728">
        <ele>1803</ele>
        <time>2016-09-10T13:20:39Z</time>
      </trkpt>
      <trkpt lat="42.70891" lon="1.74729">
        <ele>1804</ele>
        <time>2016-09-10T13:20:43Z</time>
      </trkpt>
      <trkpt lat="42.7089" lon="1.7473">
        <ele>1804</ele>
        <time>2016-09-10T13:20:44Z</time>
      </trkpt>
      <trkpt lat="42.70885" lon="1.74734">
        <ele>1804</ele>
        <time>2016-09-10T13:20:49Z</time>
      </trkpt>
      <trkpt lat="42.70884" lon="1.74734">
        <ele>1804</ele>
        <time>2016-09-10T13:20:50Z</time>
      </trkpt>
      <trkpt lat="42.70878" lon="1.74734">
        <ele>1805</ele>
        <time>2016-09-10T13:20:55Z</time>
      </trkpt>
      <trkpt lat="42.70872" lon="1.74733">
        <ele>1805</ele>
        <time>2016-09-10T13:21:01Z</time>
      </trkpt>
      <trkpt lat="42.70864" lon="1.74732">
        <ele>1805</ele>
        <time>2016-09-10T13:21:07Z</time>
      </trkpt>
      <trkpt lat="42.7086" lon="1.7473">
        <ele>1805</ele>
        <time>2016-09-10T13:21:13Z</time>
      </trkpt>
      <trkpt lat="42.70858" lon="1.74724">
        <ele>1805</ele>
        <time>2016-09-10T13:21:18Z</time>
      </trkpt>
      <trkpt lat="42.70855" lon="1.74723">
        <ele>1805</ele>
        <time>2016-09-10T13:21:22Z</time>
      </trkpt>
      <trkpt lat="42.7085" lon="1.74717">
        <ele>1805</ele>
        <time>2016-09-10T13:21:28Z</time>
      </trkpt>
      <trkpt lat="42.70848" lon="1.7471">
        <ele>1804</ele>
        <time>2016-09-10T13:21:33Z</time>
      </trkpt>
      <trkpt lat="42.70847" lon="1.7471">
        <ele>1804</ele>
        <time>2016-09-10T13:21:34Z</time>
      </trkpt>
      <trkpt lat="42.70843" lon="1.74706">
        <ele>1804</ele>
        <time>2016-09-10T13:21:38Z</time>
      </trkpt>
      <trkpt lat="42.70842" lon="1.74705">
        <ele>1804</ele>
        <time>2016-09-10T13:21:41Z</time>
      </trkpt>
      <trkpt lat="42.70842" lon="1.74704">
        <ele>1804</ele>
        <time>2016-09-10T13:21:42Z</time>
      </trkpt>
      <trkpt lat="42.70841" lon="1.74703">
        <ele>1804</ele>
        <time>2016-09-10T13:21:43Z</time>
      </trkpt>
      <trkpt lat="42.70841" lon="1.74703">
        <ele>1804</ele>
        <time>2016-09-10T13:21:44Z</time>
      </trkpt>
      <trkpt lat="42.70841" lon="1.74703">
        <ele>1804</ele>
        <time>2016-09-10T13:21:45Z</time>
      </trkpt>
      <trkpt lat="42.7084" lon="1.74701">
        <ele>1804</ele>
        <time>2016-09-10T13:21:46Z</time>
      </trkpt>
      <trkpt lat="42.70838" lon="1.747">
        <ele>1804</ele>
        <time>2016-09-10T13:21:48Z</time>
      </trkpt>
      <trkpt lat="42.70837" lon="1.747">
        <ele>1804</ele>
        <time>2016-09-10T13:21:49Z</time>
      </trkpt>
      <trkpt lat="42.70832" lon="1.747">
        <ele>1805</ele>
        <time>2016-09-10T13:21:55Z</time>
      </trkpt>
      <trkpt lat="42.7083" lon="1.74699">
        <ele>1805</ele>
        <time>2016-09-10T13:21:56Z</time>
      </trkpt>
      <trkpt lat="42.70827" lon="1.74697">
        <ele>1805</ele>
        <time>2016-09-10T13:22:00Z</time>
      </trkpt>
      <trkpt lat="42.70822" lon="1.74696">
        <ele>1805</ele>
        <time>2016-09-10T13:22:06Z</time>
      </trkpt>
      <trkpt lat="42.70816" lon="1.74699">
        <ele>1806</ele>
        <time>2016-09-10T13:22:11Z</time>
      </trkpt>
      <trkpt lat="42.70813" lon="1.747">
        <ele>1807</ele>
        <time>2016-09-10T13:22:14Z</time>
      </trkpt>
      <trkpt lat="42.70812" lon="1.747">
        <ele>1807</ele>
        <time>2016-09-10T13:22:15Z</time>
      </trkpt>
      <trkpt lat="42.70811" lon="1.747">
        <ele>1807</ele>
        <time>2016-09-10T13:22:16Z</time>
      </trkpt>
      <trkpt lat="42.7081" lon="1.74699">
        <ele>1807</ele>
        <time>2016-09-10T13:22:17Z</time>
      </trkpt>
      <trkpt lat="42.70809" lon="1.74699">
        <ele>1807</ele>
        <time>2016-09-10T13:22:18Z</time>
      </trkpt>
      <trkpt lat="42.70805" lon="1.74696">
        <ele>1807</ele>
        <time>2016-09-10T13:22:23Z</time>
      </trkpt>
      <trkpt lat="42.70802" lon="1.74691">
        <ele>1807</ele>
        <time>2016-09-10T13:22:28Z</time>
      </trkpt>
      <trkpt lat="42.70801" lon="1.74689">
        <ele>1807</ele>
        <time>2016-09-10T13:22:30Z</time>
      </trkpt>
      <trkpt lat="42.70799" lon="1.74686">
        <ele>1807</ele>
        <time>2016-09-10T13:22:33Z</time>
      </trkpt>
      <trkpt lat="42.70796" lon="1.74684">
        <ele>1807</ele>
        <time>2016-09-10T13:22:36Z</time>
      </trkpt>
      <trkpt lat="42.7079" lon="1.74681">
        <ele>1808</ele>
        <time>2016-09-10T13:22:41Z</time>
      </trkpt>
      <trkpt lat="42.70786" lon="1.74677">
        <ele>1808</ele>
        <time>2016-09-10T13:22:46Z</time>
      </trkpt>
      <trkpt lat="42.70785" lon="1.74677">
        <ele>1808</ele>
        <time>2016-09-10T13:22:47Z</time>
      </trkpt>
      <trkpt lat="42.70784" lon="1.74675">
        <ele>1808</ele>
        <time>2016-09-10T13:22:48Z</time>
      </trkpt>
      <trkpt lat="42.70783" lon="1.74674">
        <ele>1808</ele>
        <time>2016-09-10T13:22:49Z</time>
      </trkpt>
      <trkpt lat="42.70783" lon="1.74673">
        <ele>1808</ele>
        <time>2016-09-10T13:22:50Z</time>
      </trkpt>
      <trkpt lat="42.70782" lon="1.74672">
        <ele>1808</ele>
        <time>2016-09-10T13:22:51Z</time>
      </trkpt>
      <trkpt lat="42.70779" lon="1.74669">
        <ele>1808</ele>
        <time>2016-09-10T13:22:54Z</time>
      </trkpt>
      <trkpt lat="42.70776" lon="1.74664">
        <ele>1808</ele>
        <time>2016-09-10T13:22:58Z</time>
      </trkpt>
      <trkpt lat="42.70772" lon="1.7466">
        <ele>1808</ele>
        <time>2016-09-10T13:23:02Z</time>
      </trkpt>
      <trkpt lat="42.70769" lon="1.74658">
        <ele>1808</ele>
        <time>2016-09-10T13:23:05Z</time>
      </trkpt>
      <trkpt lat="42.70766" lon="1.74656">
        <ele>1808</ele>
        <time>2016-09-10T13:23:08Z</time>
      </trkpt>
      <trkpt lat="42.70763" lon="1.74655">
        <ele>1808</ele>
        <time>2016-09-10T13:23:11Z</time>
      </trkpt>
      <trkpt lat="42.70755" lon="1.74655">
        <ele>1809</ele>
        <time>2016-09-10T13:23:19Z</time>
      </trkpt>
      <trkpt lat="42.70755" lon="1.74655">
        <ele>1809</ele>
        <time>2016-09-10T13:23:20Z</time>
      </trkpt>
      <trkpt lat="42.70752" lon="1.74655">
        <ele>1809</ele>
        <time>2016-09-10T13:23:22Z</time>
      </trkpt>
      <trkpt lat="42.70748" lon="1.74655">
        <ele>1809</ele>
        <time>2016-09-10T13:23:26Z</time>
      </trkpt>
      <trkpt lat="42.70747" lon="1.74655">
        <ele>1809</ele>
        <time>2016-09-10T13:23:27Z</time>
      </trkpt>
      <trkpt lat="42.70746" lon="1.74656">
        <ele>1809</ele>
        <time>2016-09-10T13:23:28Z</time>
      </trkpt>
      <trkpt lat="42.70745" lon="1.74656">
        <ele>1809</ele>
        <time>2016-09-10T13:23:29Z</time>
      </trkpt>
      <trkpt lat="42.70744" lon="1.74656">
        <ele>1810</ele>
        <time>2016-09-10T13:23:30Z</time>
      </trkpt>
      <trkpt lat="42.70743" lon="1.74657">
        <ele>1810</ele>
        <time>2016-09-10T13:23:31Z</time>
      </trkpt>
      <trkpt lat="42.70742" lon="1.74658">
        <ele>1810</ele>
        <time>2016-09-10T13:23:32Z</time>
      </trkpt>
      <trkpt lat="42.70741" lon="1.74659">
        <ele>1810</ele>
        <time>2016-09-10T13:23:33Z</time>
      </trkpt>
      <trkpt lat="42.7074" lon="1.74659">
        <ele>1810</ele>
        <time>2016-09-10T13:23:34Z</time>
      </trkpt>
      <trkpt lat="42.70736" lon="1.74658">
        <ele>1810</ele>
        <time>2016-09-10T13:23:37Z</time>
      </trkpt>
      <trkpt lat="42.7073" lon="1.74661">
        <ele>1811</ele>
        <time>2016-09-10T13:23:43Z</time>
      </trkpt>
      <trkpt lat="42.7073" lon="1.7466">
        <ele>1811</ele>
        <time>2016-09-10T13:23:44Z</time>
      </trkpt>
      <trkpt lat="42.70726" lon="1.74658">
        <ele>1811</ele>
        <time>2016-09-10T13:23:48Z</time>
      </trkpt>
      <trkpt lat="42.70725" lon="1.74659">
        <ele>1811</ele>
        <time>2016-09-10T13:23:49Z</time>
      </trkpt>
      <trkpt lat="42.70724" lon="1.74659">
        <ele>1811</ele>
        <time>2016-09-10T13:23:50Z</time>
      </trkpt>
      <trkpt lat="42.70723" lon="1.74659">
        <ele>1811</ele>
        <time>2016-09-10T13:23:51Z</time>
      </trkpt>
      <trkpt lat="42.70722" lon="1.74659">
        <ele>1811</ele>
        <time>2016-09-10T13:23:52Z</time>
      </trkpt>
      <trkpt lat="42.70721" lon="1.74659">
        <ele>1811</ele>
        <time>2016-09-10T13:23:53Z</time>
      </trkpt>
      <trkpt lat="42.70713" lon="1.74658">
        <ele>1812</ele>
        <time>2016-09-10T13:24:00Z</time>
      </trkpt>
      <trkpt lat="42.70706" lon="1.74658">
        <ele>1812</ele>
        <time>2016-09-10T13:24:07Z</time>
      </trkpt>
      <trkpt lat="42.70701" lon="1.74656">
        <ele>1812</ele>
        <time>2016-09-10T13:24:12Z</time>
      </trkpt>
      <trkpt lat="42.70698" lon="1.74655">
        <ele>1812</ele>
        <time>2016-09-10T13:24:14Z</time>
      </trkpt>
      <trkpt lat="42.70697" lon="1.74655">
        <ele>1812</ele>
        <time>2016-09-10T13:24:15Z</time>
      </trkpt>
      <trkpt lat="42.70695" lon="1.74655">
        <ele>1812</ele>
        <time>2016-09-10T13:24:16Z</time>
      </trkpt>
      <trkpt lat="42.70695" lon="1.74655">
        <ele>1812</ele>
        <time>2016-09-10T13:24:17Z</time>
      </trkpt>
      <trkpt lat="42.70694" lon="1.74655">
        <ele>1813</ele>
        <time>2016-09-10T13:24:18Z</time>
      </trkpt>
      <trkpt lat="42.70692" lon="1.74654">
        <ele>1813</ele>
        <time>2016-09-10T13:24:21Z</time>
      </trkpt>
      <trkpt lat="42.70688" lon="1.74654">
        <ele>1813</ele>
        <time>2016-09-10T13:24:26Z</time>
      </trkpt>
      <trkpt lat="42.70687" lon="1.74653">
        <ele>1813</ele>
        <time>2016-09-10T13:24:27Z</time>
      </trkpt>
      <trkpt lat="42.70687" lon="1.74653">
        <ele>1813</ele>
        <time>2016-09-10T13:24:28Z</time>
      </trkpt>
      <trkpt lat="42.70686" lon="1.74652">
        <ele>1813</ele>
        <time>2016-09-10T13:24:29Z</time>
      </trkpt>
      <trkpt lat="42.70684" lon="1.74652">
        <ele>1813</ele>
        <time>2016-09-10T13:24:30Z</time>
      </trkpt>
      <trkpt lat="42.70683" lon="1.74649">
        <ele>1812</ele>
        <time>2016-09-10T13:24:32Z</time>
      </trkpt>
      <trkpt lat="42.70679" lon="1.74643">
        <ele>1812</ele>
        <time>2016-09-10T13:24:38Z</time>
      </trkpt>
      <trkpt lat="42.70674" lon="1.7464">
        <ele>1811</ele>
        <time>2016-09-10T13:24:43Z</time>
      </trkpt>
      <trkpt lat="42.70672" lon="1.74639">
        <ele>1811</ele>
        <time>2016-09-10T13:24:44Z</time>
      </trkpt>
      <trkpt lat="42.70668" lon="1.74637">
        <ele>1811</ele>
        <time>2016-09-10T13:24:47Z</time>
      </trkpt>
      <trkpt lat="42.70668" lon="1.74636">
        <ele>1811</ele>
        <time>2016-09-10T13:24:48Z</time>
      </trkpt>
      <trkpt lat="42.70666" lon="1.74636">
        <ele>1811</ele>
        <time>2016-09-10T13:24:49Z</time>
      </trkpt>
      <trkpt lat="42.70665" lon="1.74636">
        <ele>1811</ele>
        <time>2016-09-10T13:24:50Z</time>
      </trkpt>
      <trkpt lat="42.70664" lon="1.74635">
        <ele>1811</ele>
        <time>2016-09-10T13:24:51Z</time>
      </trkpt>
      <trkpt lat="42.7066" lon="1.74635">
        <ele>1811</ele>
        <time>2016-09-10T13:24:54Z</time>
      </trkpt>
      <trkpt lat="42.70653" lon="1.74635">
        <ele>1812</ele>
        <time>2016-09-10T13:25:00Z</time>
      </trkpt>
      <trkpt lat="42.70648" lon="1.74635">
        <ele>1812</ele>
        <time>2016-09-10T13:25:05Z</time>
      </trkpt>
      <trkpt lat="42.70641" lon="1.74633">
        <ele>1812</ele>
        <time>2016-09-10T13:25:10Z</time>
      </trkpt>
      <trkpt lat="42.70636" lon="1.74631">
        <ele>1812</ele>
        <time>2016-09-10T13:25:15Z</time>
      </trkpt>
      <trkpt lat="42.70634" lon="1.74631">
        <ele>1812</ele>
        <time>2016-09-10T13:25:16Z</time>
      </trkpt>
      <trkpt lat="42.70632" lon="1.74632">
        <ele>1812</ele>
        <time>2016-09-10T13:25:18Z</time>
      </trkpt>
      <trkpt lat="42.70631" lon="1.74632">
        <ele>1812</ele>
        <time>2016-09-10T13:25:19Z</time>
      </trkpt>
      <trkpt lat="42.70631" lon="1.74632">
        <ele>1812</ele>
        <time>2016-09-10T13:25:20Z</time>
      </trkpt>
      <trkpt lat="42.7063" lon="1.74632">
        <ele>1812</ele>
        <time>2016-09-10T13:25:21Z</time>
      </trkpt>
      <trkpt lat="42.70628" lon="1.74632">
        <ele>1812</ele>
        <time>2016-09-10T13:25:22Z</time>
      </trkpt>
      <trkpt lat="42.70626" lon="1.74631">
        <ele>1812</ele>
        <time>2016-09-10T13:25:24Z</time>
      </trkpt>
      <trkpt lat="42.70625" lon="1.74631">
        <ele>1812</ele>
        <time>2016-09-10T13:25:25Z</time>
      </trkpt>
      <trkpt lat="42.7062" lon="1.74631">
        <ele>1812</ele>
        <time>2016-09-10T13:25:28Z</time>
      </trkpt>
      <trkpt lat="42.70619" lon="1.74632">
        <ele>1813</ele>
        <time>2016-09-10T13:25:29Z</time>
      </trkpt>
      <trkpt lat="42.70612" lon="1.74632">
        <ele>1813</ele>
        <time>2016-09-10T13:25:34Z</time>
      </trkpt>
      <trkpt lat="42.70607" lon="1.74632">
        <ele>1813</ele>
        <time>2016-09-10T13:25:38Z</time>
      </trkpt>
      <trkpt lat="42.70603" lon="1.74632">
        <ele>1813</ele>
        <time>2016-09-10T13:25:42Z</time>
      </trkpt>
      <trkpt lat="42.70602" lon="1.74631">
        <ele>1813</ele>
        <time>2016-09-10T13:25:43Z</time>
      </trkpt>
      <trkpt lat="42.70597" lon="1.74629">
        <ele>1813</ele>
        <time>2016-09-10T13:25:47Z</time>
      </trkpt>
      <trkpt lat="42.70596" lon="1.74629">
        <ele>1813</ele>
        <time>2016-09-10T13:25:48Z</time>
      </trkpt>
      <trkpt lat="42.70587" lon="1.74628">
        <ele>1814</ele>
        <time>2016-09-10T13:25:55Z</time>
      </trkpt>
      <trkpt lat="42.70579" lon="1.74627">
        <ele>1814</ele>
        <time>2016-09-10T13:26:01Z</time>
      </trkpt>
      <trkpt lat="42.70578" lon="1.74626">
        <ele>1814</ele>
        <time>2016-09-10T13:26:02Z</time>
      </trkpt>
      <trkpt lat="42.70573" lon="1.74625">
        <ele>1814</ele>
        <time>2016-09-10T13:26:06Z</time>
      </trkpt>
      <trkpt lat="42.70566" lon="1.74624">
        <ele>1814</ele>
        <time>2016-09-10T13:26:12Z</time>
      </trkpt>
      <trkpt lat="42.70563" lon="1.74624">
        <ele>1814</ele>
        <time>2016-09-10T13:26:15Z</time>
      </trkpt>
      <trkpt lat="42.70562" lon="1.74624">
        <ele>1814</ele>
        <time>2016-09-10T13:26:16Z</time>
      </trkpt>
      <trkpt lat="42.70561" lon="1.74624">
        <ele>1814</ele>
        <time>2016-09-10T13:26:17Z</time>
      </trkpt>
      <trkpt lat="42.7056" lon="1.74624">
        <ele>1814</ele>
        <time>2016-09-10T13:26:18Z</time>
      </trkpt>
      <trkpt lat="42.70559" lon="1.74624">
        <ele>1814</ele>
        <time>2016-09-10T13:26:19Z</time>
      </trkpt>
      <trkpt lat="42.70556" lon="1.74624">
        <ele>1814</ele>
        <time>2016-09-10T13:26:22Z</time>
      </trkpt>
      <trkpt lat="42.70547" lon="1.74623">
        <ele>1815</ele>
        <time>2016-09-10T13:26:28Z</time>
      </trkpt>
      <trkpt lat="42.70542" lon="1.74623">
        <ele>1815</ele>
        <time>2016-09-10T13:26:33Z</time>
      </trkpt>
      <trkpt lat="42.70541" lon="1.74623">
        <ele>1815</ele>
        <time>2016-09-10T13:26:34Z</time>
      </trkpt>
      <trkpt lat="42.70536" lon="1.74623">
        <ele>1815</ele>
        <time>2016-09-10T13:26:38Z</time>
      </trkpt>
      <trkpt lat="42.70531" lon="1.74624">
        <ele>1815</ele>
        <time>2016-09-10T13:26:41Z</time>
      </trkpt>
      <trkpt lat="42.70528" lon="1.74624">
        <ele>1816</ele>
        <time>2016-09-10T13:26:44Z</time>
      </trkpt>
      <trkpt lat="42.70519" lon="1.74625">
        <ele>1816</ele>
        <time>2016-09-10T13:26:51Z</time>
      </trkpt>
      <trkpt lat="42.70511" lon="1.74623">
        <ele>1816</ele>
        <time>2016-09-10T13:26:56Z</time>
      </trkpt>
      <trkpt lat="42.7051" lon="1.74623">
        <ele>1816</ele>
        <time>2016-09-10T13:26:57Z</time>
      </trkpt>
      <trkpt lat="42.70504" lon="1.74625">
        <ele>1816</ele>
        <time>2016-09-10T13:27:01Z</time>
      </trkpt>
      <trkpt lat="42.705" lon="1.74624">
        <ele>1816</ele>
        <time>2016-09-10T13:27:06Z</time>
      </trkpt>
      <trkpt lat="42.70498" lon="1.74623">
        <ele>1816</ele>
        <time>2016-09-10T13:27:07Z</time>
      </trkpt>
      <trkpt lat="42.70497" lon="1.74622">
        <ele>1816</ele>
        <time>2016-09-10T13:27:09Z</time>
      </trkpt>
      <trkpt lat="42.70496" lon="1.74621">
        <ele>1815</ele>
        <time>2016-09-10T13:27:10Z</time>
      </trkpt>
      <trkpt lat="42.70495" lon="1.7462">
        <ele>1815</ele>
        <time>2016-09-10T13:27:11Z</time>
      </trkpt>
      <trkpt lat="42.70494" lon="1.7462">
        <ele>1815</ele>
        <time>2016-09-10T13:27:12Z</time>
      </trkpt>
      <trkpt lat="42.70493" lon="1.74619">
        <ele>1815</ele>
        <time>2016-09-10T13:27:13Z</time>
      </trkpt>
      <trkpt lat="42.70492" lon="1.74619">
        <ele>1815</ele>
        <time>2016-09-10T13:27:14Z</time>
      </trkpt>
      <trkpt lat="42.7049" lon="1.74618">
        <ele>1815</ele>
        <time>2016-09-10T13:27:16Z</time>
      </trkpt>
      <trkpt lat="42.70482" lon="1.74616">
        <ele>1814</ele>
        <time>2016-09-10T13:27:24Z</time>
      </trkpt>
      <trkpt lat="42.70475" lon="1.74616">
        <ele>1814</ele>
        <time>2016-09-10T13:27:30Z</time>
      </trkpt>
      <trkpt lat="42.70466" lon="1.74614">
        <ele>1813</ele>
        <time>2016-09-10T13:27:39Z</time>
      </trkpt>
      <trkpt lat="42.7046" lon="1.7461">
        <ele>1811</ele>
        <time>2016-09-10T13:27:45Z</time>
      </trkpt>
      <trkpt lat="42.70457" lon="1.74609">
        <ele>1811</ele>
        <time>2016-09-10T13:27:51Z</time>
      </trkpt>
      <trkpt lat="42.70454" lon="1.74608">
        <ele>1811</ele>
        <time>2016-09-10T13:28:00Z</time>
      </trkpt>
      <trkpt lat="42.70448" lon="1.74605">
        <ele>1810</ele>
        <time>2016-09-10T13:28:05Z</time>
      </trkpt>
      <trkpt lat="42.70447" lon="1.74605">
        <ele>1810</ele>
        <time>2016-09-10T13:28:06Z</time>
      </trkpt>
      <trkpt lat="42.70446" lon="1.74604">
        <ele>1810</ele>
        <time>2016-09-10T13:28:07Z</time>
      </trkpt>
      <trkpt lat="42.70444" lon="1.74604">
        <ele>1809</ele>
        <time>2016-09-10T13:28:08Z</time>
      </trkpt>
      <trkpt lat="42.70442" lon="1.74604">
        <ele>1809</ele>
        <time>2016-09-10T13:28:09Z</time>
      </trkpt>
      <trkpt lat="42.70441" lon="1.74604">
        <ele>1809</ele>
        <time>2016-09-10T13:28:10Z</time>
      </trkpt>
      <trkpt lat="42.70439" lon="1.74603">
        <ele>1809</ele>
        <time>2016-09-10T13:28:12Z</time>
      </trkpt>
      <trkpt lat="42.70435" lon="1.74604">
        <ele>1809</ele>
        <time>2016-09-10T13:28:18Z</time>
      </trkpt>
      <trkpt lat="42.70433" lon="1.74603">
        <ele>1809</ele>
        <time>2016-09-10T13:28:27Z</time>
      </trkpt>
      <trkpt lat="42.70425" lon="1.746">
        <ele>1808</ele>
        <time>2016-09-10T13:28:33Z</time>
      </trkpt>
      <trkpt lat="42.70416" lon="1.74597">
        <ele>1807</ele>
        <time>2016-09-10T13:28:39Z</time>
      </trkpt>
      <trkpt lat="42.7041" lon="1.74595">
        <ele>1806</ele>
        <time>2016-09-10T13:28:45Z</time>
      </trkpt>
      <trkpt lat="42.70406" lon="1.74591">
        <ele>1805</ele>
        <time>2016-09-10T13:28:48Z</time>
      </trkpt>
      <trkpt lat="42.70405" lon="1.74591">
        <ele>1805</ele>
        <time>2016-09-10T13:28:49Z</time>
      </trkpt>
      <trkpt lat="42.70402" lon="1.74592">
        <ele>1805</ele>
        <time>2016-09-10T13:28:52Z</time>
      </trkpt>
      <trkpt lat="42.70396" lon="1.74593">
        <ele>1806</ele>
        <time>2016-09-10T13:28:57Z</time>
      </trkpt>
      <trkpt lat="42.70392" lon="1.74591">
        <ele>1805</ele>
        <time>2016-09-10T13:29:01Z</time>
      </trkpt>
      <trkpt lat="42.70391" lon="1.74591">
        <ele>1805</ele>
        <time>2016-09-10T13:29:02Z</time>
      </trkpt>
      <trkpt lat="42.7039" lon="1.74591">
        <ele>1805</ele>
        <time>2016-09-10T13:29:03Z</time>
      </trkpt>
      <trkpt lat="42.70389" lon="1.74592">
        <ele>1805</ele>
        <time>2016-09-10T13:29:04Z</time>
      </trkpt>
      <trkpt lat="42.70388" lon="1.74592">
        <ele>1805</ele>
        <time>2016-09-10T13:29:05Z</time>
      </trkpt>
      <trkpt lat="42.70382" lon="1.74591">
        <ele>1805</ele>
        <time>2016-09-10T13:29:09Z</time>
      </trkpt>
      <trkpt lat="42.70379" lon="1.74591">
        <ele>1805</ele>
        <time>2016-09-10T13:29:12Z</time>
      </trkpt>
      <trkpt lat="42.70377" lon="1.74592">
        <ele>1806</ele>
        <time>2016-09-10T13:29:14Z</time>
      </trkpt>
      <trkpt lat="42.7037" lon="1.74595">
        <ele>1807</ele>
        <time>2016-09-10T13:29:20Z</time>
      </trkpt>
      <trkpt lat="42.70366" lon="1.74591">
        <ele>1805</ele>
        <time>2016-09-10T13:29:25Z</time>
      </trkpt>
      <trkpt lat="42.70365" lon="1.74591">
        <ele>1805</ele>
        <time>2016-09-10T13:29:26Z</time>
      </trkpt>
      <trkpt lat="42.70365" lon="1.74591">
        <ele>1805</ele>
        <time>2016-09-10T13:29:27Z</time>
      </trkpt>
      <trkpt lat="42.70365" lon="1.74591">
        <ele>1805</ele>
        <time>2016-09-10T13:29:28Z</time>
      </trkpt>
      <trkpt lat="42.70365" lon="1.74591">
        <ele>1805</ele>
        <time>2016-09-10T13:29:29Z</time>
      </trkpt>
      <trkpt lat="42.70364" lon="1.74591">
        <ele>1805</ele>
        <time>2016-09-10T13:29:30Z</time>
      </trkpt>
      <trkpt lat="42.70359" lon="1.74591">
        <ele>1805</ele>
        <time>2016-09-10T13:29:35Z</time>
      </trkpt>
      <trkpt lat="42.70353" lon="1.74593">
        <ele>1806</ele>
        <time>2016-09-10T13:29:42Z</time>
      </trkpt>
      <trkpt lat="42.7035" lon="1.74594">
        <ele>1806</ele>
        <time>2016-09-10T13:29:46Z</time>
      </trkpt>
      <trkpt lat="42.70347" lon="1.74595">
        <ele>1806</ele>
        <time>2016-09-10T13:29:50Z</time>
      </trkpt>
      <trkpt lat="42.70345" lon="1.74596">
        <ele>1807</ele>
        <time>2016-09-10T13:29:52Z</time>
      </trkpt>
      <trkpt lat="42.70342" lon="1.74598">
        <ele>1807</ele>
        <time>2016-09-10T13:29:58Z</time>
      </trkpt>
      <trkpt lat="42.70334" lon="1.74594">
        <ele>1806</ele>
        <time>2016-09-10T13:30:06Z</time>
      </trkpt>
      <trkpt lat="42.70328" lon="1.74592">
        <ele>1805</ele>
        <time>2016-09-10T13:30:12Z</time>
      </trkpt>
      <trkpt lat="42.70318" lon="1.74591">
        <ele>1804</ele>
        <time>2016-09-10T13:30:19Z</time>
      </trkpt>
      <trkpt lat="42.7031" lon="1.74592">
        <ele>1804</ele>
        <time>2016-09-10T13:30:27Z</time>
      </trkpt>
      <trkpt lat="42.70308" lon="1.74591">
        <ele>1804</ele>
        <time>2016-09-10T13:30:34Z</time>
      </trkpt>
      <trkpt lat="42.70301" lon="1.74593">
        <ele>1804</ele>
        <time>2016-09-10T13:30:40Z</time>
      </trkpt>
      <trkpt lat="42.703" lon="1.74593">
        <ele>1804</ele>
        <time>2016-09-10T13:30:42Z</time>
      </trkpt>
      <trkpt lat="42.70299" lon="1.74594">
        <ele>1804</ele>
        <time>2016-09-10T13:30:43Z</time>
      </trkpt>
      <trkpt lat="42.70298" lon="1.74595">
        <ele>1804</ele>
        <time>2016-09-10T13:30:44Z</time>
      </trkpt>
      <trkpt lat="42.70297" lon="1.74595">
        <ele>1804</ele>
        <time>2016-09-10T13:30:45Z</time>
      </trkpt>
      <trkpt lat="42.70296" lon="1.74596">
        <ele>1804</ele>
        <time>2016-09-10T13:30:46Z</time>
      </trkpt>
      <trkpt lat="42.70289" lon="1.74598">
        <ele>1804</ele>
        <time>2016-09-10T13:30:51Z</time>
      </trkpt>
      <trkpt lat="42.70288" lon="1.74598">
        <ele>1804</ele>
        <time>2016-09-10T13:30:53Z</time>
      </trkpt>
      <trkpt lat="42.70283" lon="1.74597">
        <ele>1803</ele>
        <time>2016-09-10T13:30:58Z</time>
      </trkpt>
      <trkpt lat="42.70281" lon="1.74597">
        <ele>1803</ele>
        <time>2016-09-10T13:30:59Z</time>
      </trkpt>
      <trkpt lat="42.70279" lon="1.74597">
        <ele>1803</ele>
        <time>2016-09-10T13:31:00Z</time>
      </trkpt>
      <trkpt lat="42.70278" lon="1.74597">
        <ele>1803</ele>
        <time>2016-09-10T13:31:01Z</time>
      </trkpt>
      <trkpt lat="42.70277" lon="1.74597">
        <ele>1802</ele>
        <time>2016-09-10T13:31:02Z</time>
      </trkpt>
      <trkpt lat="42.70274" lon="1.74596">
        <ele>1801</ele>
        <time>2016-09-10T13:31:05Z</time>
      </trkpt>
      <trkpt lat="42.70271" lon="1.74596">
        <ele>1801</ele>
        <time>2016-09-10T13:31:08Z</time>
      </trkpt>
      <trkpt lat="42.70268" lon="1.74595">
        <ele>1800</ele>
        <time>2016-09-10T13:31:10Z</time>
      </trkpt>
      <trkpt lat="42.70267" lon="1.74595">
        <ele>1799</ele>
        <time>2016-09-10T13:31:11Z</time>
      </trkpt>
      <trkpt lat="42.70267" lon="1.74595">
        <ele>1799</ele>
        <time>2016-09-10T13:31:12Z</time>
      </trkpt>
      <trkpt lat="42.70266" lon="1.74596">
        <ele>1799</ele>
        <time>2016-09-10T13:31:13Z</time>
      </trkpt>
      <trkpt lat="42.70265" lon="1.74596">
        <ele>1799</ele>
        <time>2016-09-10T13:31:14Z</time>
      </trkpt>
      <trkpt lat="42.70264" lon="1.74596">
        <ele>1799</ele>
        <time>2016-09-10T13:31:15Z</time>
      </trkpt>
      <trkpt lat="42.70256" lon="1.74596">
        <ele>1797</ele>
        <time>2016-09-10T13:31:23Z</time>
      </trkpt>
      <trkpt lat="42.70255" lon="1.74595">
        <ele>1797</ele>
        <time>2016-09-10T13:31:24Z</time>
      </trkpt>
      <trkpt lat="42.70253" lon="1.74595">
        <ele>1796</ele>
        <time>2016-09-10T13:31:25Z</time>
      </trkpt>
      <trkpt lat="42.70252" lon="1.74595">
        <ele>1796</ele>
        <time>2016-09-10T13:31:26Z</time>
      </trkpt>
      <trkpt lat="42.70251" lon="1.74595">
        <ele>1796</ele>
        <time>2016-09-10T13:31:27Z</time>
      </trkpt>
      <trkpt lat="42.70249" lon="1.74595">
        <ele>1795</ele>
        <time>2016-09-10T13:31:29Z</time>
      </trkpt>
      <trkpt lat="42.70247" lon="1.74596">
        <ele>1795</ele>
        <time>2016-09-10T13:31:30Z</time>
      </trkpt>
      <trkpt lat="42.70242" lon="1.74599">
        <ele>1794</ele>
        <time>2016-09-10T13:31:34Z</time>
      </trkpt>
      <trkpt lat="42.70241" lon="1.74599">
        <ele>1794</ele>
        <time>2016-09-10T13:31:35Z</time>
      </trkpt>
      <trkpt lat="42.7024" lon="1.746">
        <ele>1795</ele>
        <time>2016-09-10T13:31:36Z</time>
      </trkpt>
      <trkpt lat="42.7024" lon="1.74601">
        <ele>1795</ele>
        <time>2016-09-10T13:31:37Z</time>
      </trkpt>
      <trkpt lat="42.70238" lon="1.74602">
        <ele>1795</ele>
        <time>2016-09-10T13:31:39Z</time>
      </trkpt>
      <trkpt lat="42.70233" lon="1.74603">
        <ele>1794</ele>
        <time>2016-09-10T13:31:44Z</time>
      </trkpt>
      <trkpt lat="42.70231" lon="1.74603">
        <ele>1793</ele>
        <time>2016-09-10T13:31:45Z</time>
      </trkpt>
      <trkpt lat="42.70227" lon="1.74604">
        <ele>1792</ele>
        <time>2016-09-10T13:31:48Z</time>
      </trkpt>
      <trkpt lat="42.70225" lon="1.74604">
        <ele>1792</ele>
        <time>2016-09-10T13:31:50Z</time>
      </trkpt>
      <trkpt lat="42.70221" lon="1.74606">
        <ele>1791</ele>
        <time>2016-09-10T13:31:54Z</time>
      </trkpt>
      <trkpt lat="42.70221" lon="1.74607">
        <ele>1791</ele>
        <time>2016-09-10T13:31:55Z</time>
      </trkpt>
      <trkpt lat="42.70219" lon="1.7461">
        <ele>1791</ele>
        <time>2016-09-10T13:31:57Z</time>
      </trkpt>
      <trkpt lat="42.70217" lon="1.7461">
        <ele>1791</ele>
        <time>2016-09-10T13:31:58Z</time>
      </trkpt>
      <trkpt lat="42.70216" lon="1.74611">
        <ele>1791</ele>
        <time>2016-09-10T13:31:59Z</time>
      </trkpt>
      <trkpt lat="42.70215" lon="1.74612">
        <ele>1791</ele>
        <time>2016-09-10T13:32:00Z</time>
      </trkpt>
      <trkpt lat="42.70215" lon="1.74612">
        <ele>1791</ele>
        <time>2016-09-10T13:32:01Z</time>
      </trkpt>
      <trkpt lat="42.70211" lon="1.74614">
        <ele>1790</ele>
        <time>2016-09-10T13:32:05Z</time>
      </trkpt>
      <trkpt lat="42.70207" lon="1.74612">
        <ele>1789</ele>
        <time>2016-09-10T13:32:09Z</time>
      </trkpt>
      <trkpt lat="42.70206" lon="1.74612">
        <ele>1789</ele>
        <time>2016-09-10T13:32:10Z</time>
      </trkpt>
      <trkpt lat="42.70205" lon="1.74612">
        <ele>1788</ele>
        <time>2016-09-10T13:32:11Z</time>
      </trkpt>
      <trkpt lat="42.70203" lon="1.74612">
        <ele>1788</ele>
        <time>2016-09-10T13:32:12Z</time>
      </trkpt>
      <trkpt lat="42.70202" lon="1.74611">
        <ele>1788</ele>
        <time>2016-09-10T13:32:13Z</time>
      </trkpt>
      <trkpt lat="42.70201" lon="1.74611">
        <ele>1787</ele>
        <time>2016-09-10T13:32:15Z</time>
      </trkpt>
      <trkpt lat="42.70199" lon="1.74611">
        <ele>1787</ele>
        <time>2016-09-10T13:32:17Z</time>
      </trkpt>
      <trkpt lat="42.70198" lon="1.74612">
        <ele>1787</ele>
        <time>2016-09-10T13:32:18Z</time>
      </trkpt>
      <trkpt lat="42.70197" lon="1.74613">
        <ele>1786</ele>
        <time>2016-09-10T13:32:19Z</time>
      </trkpt>
      <trkpt lat="42.70196" lon="1.74613">
        <ele>1787</ele>
        <time>2016-09-10T13:32:20Z</time>
      </trkpt>
      <trkpt lat="42.70196" lon="1.74613">
        <ele>1786</ele>
        <time>2016-09-10T13:32:21Z</time>
      </trkpt>
      <trkpt lat="42.70192" lon="1.74612">
        <ele>1785</ele>
        <time>2016-09-10T13:32:26Z</time>
      </trkpt>
      <trkpt lat="42.70188" lon="1.74615">
        <ele>1785</ele>
        <time>2016-09-10T13:32:30Z</time>
      </trkpt>
      <trkpt lat="42.70187" lon="1.74615">
        <ele>1785</ele>
        <time>2016-09-10T13:32:32Z</time>
      </trkpt>
      <trkpt lat="42.70183" lon="1.74616">
        <ele>1784</ele>
        <time>2016-09-10T13:32:37Z</time>
      </trkpt>
      <trkpt lat="42.70182" lon="1.74616">
        <ele>1784</ele>
        <time>2016-09-10T13:32:38Z</time>
      </trkpt>
      <trkpt lat="42.70181" lon="1.74616">
        <ele>1784</ele>
        <time>2016-09-10T13:32:39Z</time>
      </trkpt>
      <trkpt lat="42.70179" lon="1.74616">
        <ele>1783</ele>
        <time>2016-09-10T13:32:40Z</time>
      </trkpt>
      <trkpt lat="42.70179" lon="1.74616">
        <ele>1783</ele>
        <time>2016-09-10T13:32:41Z</time>
      </trkpt>
      <trkpt lat="42.70176" lon="1.74615">
        <ele>1783</ele>
        <time>2016-09-10T13:32:43Z</time>
      </trkpt>
      <trkpt lat="42.70175" lon="1.74613">
        <ele>1782</ele>
        <time>2016-09-10T13:32:45Z</time>
      </trkpt>
      <trkpt lat="42.70171" lon="1.74612">
        <ele>1781</ele>
        <time>2016-09-10T13:32:50Z</time>
      </trkpt>
      <trkpt lat="42.70168" lon="1.74611">
        <ele>1780</ele>
        <time>2016-09-10T13:32:57Z</time>
      </trkpt>
      <trkpt lat="42.70165" lon="1.74613">
        <ele>1780</ele>
        <time>2016-09-10T13:33:07Z</time>
      </trkpt>
      <trkpt lat="42.70162" lon="1.74615">
        <ele>1780</ele>
        <time>2016-09-10T13:33:10Z</time>
      </trkpt>
      <trkpt lat="42.70159" lon="1.74615">
        <ele>1779</ele>
        <time>2016-09-10T13:33:13Z</time>
      </trkpt>
      <trkpt lat="42.70154" lon="1.74617">
        <ele>1778</ele>
        <time>2016-09-10T13:33:17Z</time>
      </trkpt>
      <trkpt lat="42.70154" lon="1.74617">
        <ele>1778</ele>
        <time>2016-09-10T13:33:18Z</time>
      </trkpt>
      <trkpt lat="42.70152" lon="1.74617">
        <ele>1778</ele>
        <time>2016-09-10T13:33:19Z</time>
      </trkpt>
      <trkpt lat="42.70151" lon="1.74616">
        <ele>1778</ele>
        <time>2016-09-10T13:33:20Z</time>
      </trkpt>
      <trkpt lat="42.7015" lon="1.74615">
        <ele>1777</ele>
        <time>2016-09-10T13:33:21Z</time>
      </trkpt>
      <trkpt lat="42.70148" lon="1.74614">
        <ele>1777</ele>
        <time>2016-09-10T13:33:23Z</time>
      </trkpt>
      <trkpt lat="42.70147" lon="1.74612">
        <ele>1776</ele>
        <time>2016-09-10T13:33:25Z</time>
      </trkpt>
      <trkpt lat="42.70146" lon="1.74611">
        <ele>1775</ele>
        <time>2016-09-10T13:33:27Z</time>
      </trkpt>
      <trkpt lat="42.70145" lon="1.74611">
        <ele>1775</ele>
        <time>2016-09-10T13:33:28Z</time>
      </trkpt>
      <trkpt lat="42.70145" lon="1.7461">
        <ele>1775</ele>
        <time>2016-09-10T13:33:29Z</time>
      </trkpt>
      <trkpt lat="42.70144" lon="1.7461">
        <ele>1775</ele>
        <time>2016-09-10T13:33:30Z</time>
      </trkpt>
      <trkpt lat="42.70143" lon="1.74609">
        <ele>1774</ele>
        <time>2016-09-10T13:33:31Z</time>
      </trkpt>
      <trkpt lat="42.70144" lon="1.74607">
        <ele>1774</ele>
        <time>2016-09-10T13:33:33Z</time>
      </trkpt>
      <trkpt lat="42.70144" lon="1.74606">
        <ele>1773</ele>
        <time>2016-09-10T13:33:34Z</time>
      </trkpt>
      <trkpt lat="42.70144" lon="1.74606">
        <ele>1773</ele>
        <time>2016-09-10T13:33:35Z</time>
      </trkpt>
      <trkpt lat="42.70144" lon="1.74605">
        <ele>1773</ele>
        <time>2016-09-10T13:33:36Z</time>
      </trkpt>
      <trkpt lat="42.70144" lon="1.74605">
        <ele>1773</ele>
        <time>2016-09-10T13:33:37Z</time>
      </trkpt>
      <trkpt lat="42.70144" lon="1.74605">
        <ele>1773</ele>
        <time>2016-09-10T13:33:38Z</time>
      </trkpt>
      <trkpt lat="42.70144" lon="1.74605">
        <ele>1773</ele>
        <time>2016-09-10T13:33:39Z</time>
      </trkpt>
      <trkpt lat="42.70144" lon="1.74605">
        <ele>1773</ele>
        <time>2016-09-10T13:33:40Z</time>
      </trkpt>
      <trkpt lat="42.70143" lon="1.74605">
        <ele>1773</ele>
        <time>2016-09-10T13:33:50Z</time>
      </trkpt>
      <trkpt lat="42.70141" lon="1.74602">
        <ele>1772</ele>
        <time>2016-09-10T13:33:52Z</time>
      </trkpt>
      <trkpt lat="42.70139" lon="1.74601">
        <ele>1771</ele>
        <time>2016-09-10T13:33:56Z</time>
      </trkpt>
      <trkpt lat="42.70139" lon="1.74601">
        <ele>1771</ele>
        <time>2016-09-10T13:33:57Z</time>
      </trkpt>
      <trkpt lat="42.70139" lon="1.74601">
        <ele>1771</ele>
        <time>2016-09-10T13:33:58Z</time>
      </trkpt>
      <trkpt lat="42.70139" lon="1.74601">
        <ele>1771</ele>
        <time>2016-09-10T13:33:59Z</time>
      </trkpt>
      <trkpt lat="42.70139" lon="1.74601">
        <ele>1771</ele>
        <time>2016-09-10T13:34:00Z</time>
      </trkpt>
      <trkpt lat="42.70137" lon="1.74603">
        <ele>1771</ele>
        <time>2016-09-10T13:34:04Z</time>
      </trkpt>
      <trkpt lat="42.70136" lon="1.74604">
        <ele>1771</ele>
        <time>2016-09-10T13:34:05Z</time>
      </trkpt>
      <trkpt lat="42.70129" lon="1.74607">
        <ele>1771</ele>
        <time>2016-09-10T13:34:11Z</time>
      </trkpt>
      <trkpt lat="42.70129" lon="1.74608">
        <ele>1771</ele>
        <time>2016-09-10T13:34:12Z</time>
      </trkpt>
      <trkpt lat="42.70129" lon="1.74608">
        <ele>1771</ele>
        <time>2016-09-10T13:34:13Z</time>
      </trkpt>
      <trkpt lat="42.70129" lon="1.74608">
        <ele>1771</ele>
        <time>2016-09-10T13:34:14Z</time>
      </trkpt>
      <trkpt lat="42.70129" lon="1.74608">
        <ele>1771</ele>
        <time>2016-09-10T13:34:15Z</time>
      </trkpt>
      <trkpt lat="42.70129" lon="1.74608">
        <ele>1771</ele>
        <time>2016-09-10T13:34:21Z</time>
      </trkpt>
      <trkpt lat="42.70129" lon="1.74608">
        <ele>1771</ele>
        <time>2016-09-10T13:34:29Z</time>
      </trkpt>
      <trkpt lat="42.70127" lon="1.7461">
        <ele>1771</ele>
        <time>2016-09-10T13:34:31Z</time>
      </trkpt>
      <trkpt lat="42.70123" lon="1.7461">
        <ele>1771</ele>
        <time>2016-09-10T13:34:34Z</time>
      </trkpt>
      <trkpt lat="42.70122" lon="1.74611">
        <ele>1771</ele>
        <time>2016-09-10T13:34:35Z</time>
      </trkpt>
      <trkpt lat="42.70119" lon="1.74613">
        <ele>1771</ele>
        <time>2016-09-10T13:34:39Z</time>
      </trkpt>
      <trkpt lat="42.70116" lon="1.74613">
        <ele>1770</ele>
        <time>2016-09-10T13:34:41Z</time>
      </trkpt>
      <trkpt lat="42.70112" lon="1.74612">
        <ele>1769</ele>
        <time>2016-09-10T13:34:44Z</time>
      </trkpt>
      <trkpt lat="42.70111" lon="1.74613">
        <ele>1769</ele>
        <time>2016-09-10T13:34:45Z</time>
      </trkpt>
      <trkpt lat="42.7011" lon="1.74613">
        <ele>1769</ele>
        <time>2016-09-10T13:34:46Z</time>
      </trkpt>
      <trkpt lat="42.70109" lon="1.74613">
        <ele>1769</ele>
        <time>2016-09-10T13:34:47Z</time>
      </trkpt>
      <trkpt lat="42.70108" lon="1.74613">
        <ele>1769</ele>
        <time>2016-09-10T13:34:48Z</time>
      </trkpt>
      <trkpt lat="42.70108" lon="1.74614">
        <ele>1769</ele>
        <time>2016-09-10T13:34:49Z</time>
      </trkpt>
      <trkpt lat="42.70108" lon="1.74614">
        <ele>1769</ele>
        <time>2016-09-10T13:34:50Z</time>
      </trkpt>
      <trkpt lat="42.70108" lon="1.74614">
        <ele>1769</ele>
        <time>2016-09-10T13:35:02Z</time>
      </trkpt>
      <trkpt lat="42.70107" lon="1.74615">
        <ele>1769</ele>
        <time>2016-09-10T13:35:05Z</time>
      </trkpt>
      <trkpt lat="42.70106" lon="1.74616">
        <ele>1769</ele>
        <time>2016-09-10T13:35:07Z</time>
      </trkpt>
      <trkpt lat="42.70103" lon="1.74617">
        <ele>1769</ele>
        <time>2016-09-10T13:35:10Z</time>
      </trkpt>
      <trkpt lat="42.70102" lon="1.74618">
        <ele>1769</ele>
        <time>2016-09-10T13:35:11Z</time>
      </trkpt>
      <trkpt lat="42.70102" lon="1.74619">
        <ele>1769</ele>
        <time>2016-09-10T13:35:12Z</time>
      </trkpt>
      <trkpt lat="42.70101" lon="1.74619">
        <ele>1769</ele>
        <time>2016-09-10T13:35:13Z</time>
      </trkpt>
      <trkpt lat="42.70101" lon="1.74619">
        <ele>1769</ele>
        <time>2016-09-10T13:35:14Z</time>
      </trkpt>
      <trkpt lat="42.70095" lon="1.74618">
        <ele>1768</ele>
        <time>2016-09-10T13:35:20Z</time>
      </trkpt>
      <trkpt lat="42.70094" lon="1.74618">
        <ele>1768</ele>
        <time>2016-09-10T13:35:22Z</time>
      </trkpt>
      <trkpt lat="42.70092" lon="1.74618">
        <ele>1768</ele>
        <time>2016-09-10T13:35:23Z</time>
      </trkpt>
      <trkpt lat="42.70091" lon="1.74619">
        <ele>1768</ele>
        <time>2016-09-10T13:35:24Z</time>
      </trkpt>
      <trkpt lat="42.7009" lon="1.74619">
        <ele>1767</ele>
        <time>2016-09-10T13:35:25Z</time>
      </trkpt>
      <trkpt lat="42.70089" lon="1.74619">
        <ele>1767</ele>
        <time>2016-09-10T13:35:26Z</time>
      </trkpt>
      <trkpt lat="42.70088" lon="1.74618">
        <ele>1767</ele>
        <time>2016-09-10T13:35:27Z</time>
      </trkpt>
      <trkpt lat="42.70083" lon="1.74619">
        <ele>1766</ele>
        <time>2016-09-10T13:35:32Z</time>
      </trkpt>
      <trkpt lat="42.70082" lon="1.74619">
        <ele>1766</ele>
        <time>2016-09-10T13:35:33Z</time>
      </trkpt>
      <trkpt lat="42.70082" lon="1.74619">
        <ele>1766</ele>
        <time>2016-09-10T13:35:34Z</time>
      </trkpt>
      <trkpt lat="42.70081" lon="1.7462">
        <ele>1766</ele>
        <time>2016-09-10T13:35:35Z</time>
      </trkpt>
      <trkpt lat="42.70079" lon="1.7462">
        <ele>1766</ele>
        <time>2016-09-10T13:35:36Z</time>
      </trkpt>
      <trkpt lat="42.70079" lon="1.7462">
        <ele>1766</ele>
        <time>2016-09-10T13:35:37Z</time>
      </trkpt>
      <trkpt lat="42.70078" lon="1.74619">
        <ele>1765</ele>
        <time>2016-09-10T13:35:38Z</time>
      </trkpt>
      <trkpt lat="42.70069" lon="1.7462">
        <ele>1764</ele>
        <time>2016-09-10T13:35:46Z</time>
      </trkpt>
      <trkpt lat="42.70068" lon="1.7462">
        <ele>1764</ele>
        <time>2016-09-10T13:35:47Z</time>
      </trkpt>
      <trkpt lat="42.70068" lon="1.74619">
        <ele>1764</ele>
        <time>2016-09-10T13:35:48Z</time>
      </trkpt>
      <trkpt lat="42.70067" lon="1.7462">
        <ele>1764</ele>
        <time>2016-09-10T13:35:49Z</time>
      </trkpt>
      <trkpt lat="42.70066" lon="1.7462">
        <ele>1764</ele>
        <time>2016-09-10T13:35:50Z</time>
      </trkpt>
      <trkpt lat="42.70065" lon="1.7462">
        <ele>1763</ele>
        <time>2016-09-10T13:35:51Z</time>
      </trkpt>
      <trkpt lat="42.70058" lon="1.74622">
        <ele>1763</ele>
        <time>2016-09-10T13:35:57Z</time>
      </trkpt>
      <trkpt lat="42.70056" lon="1.74623">
        <ele>1763</ele>
        <time>2016-09-10T13:36:00Z</time>
      </trkpt>
      <trkpt lat="42.70054" lon="1.74624">
        <ele>1763</ele>
        <time>2016-09-10T13:36:01Z</time>
      </trkpt>
      <trkpt lat="42.70053" lon="1.74624">
        <ele>1762</ele>
        <time>2016-09-10T13:36:02Z</time>
      </trkpt>
      <trkpt lat="42.70052" lon="1.74624">
        <ele>1762</ele>
        <time>2016-09-10T13:36:03Z</time>
      </trkpt>
      <trkpt lat="42.70051" lon="1.74625">
        <ele>1762</ele>
        <time>2016-09-10T13:36:04Z</time>
      </trkpt>
      <trkpt lat="42.70046" lon="1.74626">
        <ele>1762</ele>
        <time>2016-09-10T13:36:09Z</time>
      </trkpt>
      <trkpt lat="42.70043" lon="1.74626">
        <ele>1761</ele>
        <time>2016-09-10T13:36:13Z</time>
      </trkpt>
      <trkpt lat="42.70042" lon="1.74627">
        <ele>1761</ele>
        <time>2016-09-10T13:36:14Z</time>
      </trkpt>
      <trkpt lat="42.70041" lon="1.74627">
        <ele>1761</ele>
        <time>2016-09-10T13:36:15Z</time>
      </trkpt>
      <trkpt lat="42.7004" lon="1.74627">
        <ele>1761</ele>
        <time>2016-09-10T13:36:16Z</time>
      </trkpt>
      <trkpt lat="42.70039" lon="1.74627">
        <ele>1760</ele>
        <time>2016-09-10T13:36:17Z</time>
      </trkpt>
      <trkpt lat="42.70034" lon="1.74625">
        <ele>1759</ele>
        <time>2016-09-10T13:36:22Z</time>
      </trkpt>
      <trkpt lat="42.7003" lon="1.74625">
        <ele>1758</ele>
        <time>2016-09-10T13:36:27Z</time>
      </trkpt>
      <trkpt lat="42.7003" lon="1.74625">
        <ele>1758</ele>
        <time>2016-09-10T13:36:28Z</time>
      </trkpt>
      <trkpt lat="42.7003" lon="1.74625">
        <ele>1758</ele>
        <time>2016-09-10T13:36:29Z</time>
      </trkpt>
      <trkpt lat="42.7003" lon="1.74625">
        <ele>1758</ele>
        <time>2016-09-10T13:36:30Z</time>
      </trkpt>
      <trkpt lat="42.7003" lon="1.74625">
        <ele>1758</ele>
        <time>2016-09-10T13:36:31Z</time>
      </trkpt>
      <trkpt lat="42.70028" lon="1.74626">
        <ele>1758</ele>
        <time>2016-09-10T13:36:37Z</time>
      </trkpt>
      <trkpt lat="42.70027" lon="1.74628">
        <ele>1758</ele>
        <time>2016-09-10T13:36:39Z</time>
      </trkpt>
      <trkpt lat="42.70023" lon="1.74634">
        <ele>1759</ele>
        <time>2016-09-10T13:36:44Z</time>
      </trkpt>
      <trkpt lat="42.7002" lon="1.74636">
        <ele>1759</ele>
        <time>2016-09-10T13:36:47Z</time>
      </trkpt>
      <trkpt lat="42.7002" lon="1.74636">
        <ele>1759</ele>
        <time>2016-09-10T13:36:48Z</time>
      </trkpt>
      <trkpt lat="42.70018" lon="1.74636">
        <ele>1758</ele>
        <time>2016-09-10T13:36:49Z</time>
      </trkpt>
      <trkpt lat="42.70017" lon="1.74636">
        <ele>1758</ele>
        <time>2016-09-10T13:36:50Z</time>
      </trkpt>
      <trkpt lat="42.70016" lon="1.74635">
        <ele>1758</ele>
        <time>2016-09-10T13:36:51Z</time>
      </trkpt>
      <trkpt lat="42.70011" lon="1.74627">
        <ele>1755</ele>
        <time>2016-09-10T13:36:58Z</time>
      </trkpt>
      <trkpt lat="42.70009" lon="1.74625">
        <ele>1754</ele>
        <time>2016-09-10T13:37:01Z</time>
      </trkpt>
      <trkpt lat="42.70009" lon="1.74625">
        <ele>1754</ele>
        <time>2016-09-10T13:37:02Z</time>
      </trkpt>
      <trkpt lat="42.70007" lon="1.74625">
        <ele>1754</ele>
        <time>2016-09-10T13:37:03Z</time>
      </trkpt>
      <trkpt lat="42.70005" lon="1.74625">
        <ele>1753</ele>
        <time>2016-09-10T13:37:04Z</time>
      </trkpt>
      <trkpt lat="42.70004" lon="1.74625">
        <ele>1753</ele>
        <time>2016-09-10T13:37:05Z</time>
      </trkpt>
      <trkpt lat="42.70001" lon="1.74622">
        <ele>1752</ele>
        <time>2016-09-10T13:37:10Z</time>
      </trkpt>
      <trkpt lat="42.7" lon="1.74621">
        <ele>1751</ele>
        <time>2016-09-10T13:37:11Z</time>
      </trkpt>
      <trkpt lat="42.7" lon="1.7462">
        <ele>1751</ele>
        <time>2016-09-10T13:37:12Z</time>
      </trkpt>
      <trkpt lat="42.69999" lon="1.7462">
        <ele>1751</ele>
        <time>2016-09-10T13:37:13Z</time>
      </trkpt>
      <trkpt lat="42.69998" lon="1.74619">
        <ele>1750</ele>
        <time>2016-09-10T13:37:14Z</time>
      </trkpt>
      <trkpt lat="42.69996" lon="1.74617">
        <ele>1750</ele>
        <time>2016-09-10T13:37:16Z</time>
      </trkpt>
      <trkpt lat="42.69996" lon="1.74616">
        <ele>1750</ele>
        <time>2016-09-10T13:37:17Z</time>
      </trkpt>
      <trkpt lat="42.69995" lon="1.74616">
        <ele>1749</ele>
        <time>2016-09-10T13:37:18Z</time>
      </trkpt>
      <trkpt lat="42.69994" lon="1.74616">
        <ele>1749</ele>
        <time>2016-09-10T13:37:19Z</time>
      </trkpt>
      <trkpt lat="42.69993" lon="1.74615">
        <ele>1749</ele>
        <time>2016-09-10T13:37:20Z</time>
      </trkpt>
      <trkpt lat="42.69992" lon="1.74614">
        <ele>1748</ele>
        <time>2016-09-10T13:37:21Z</time>
      </trkpt>
      <trkpt lat="42.69992" lon="1.74613">
        <ele>1748</ele>
        <time>2016-09-10T13:37:22Z</time>
      </trkpt>
      <trkpt lat="42.6999" lon="1.74611">
        <ele>1747</ele>
        <time>2016-09-10T13:37:24Z</time>
      </trkpt>
      <trkpt lat="42.69989" lon="1.7461">
        <ele>1747</ele>
        <time>2016-09-10T13:37:25Z</time>
      </trkpt>
      <trkpt lat="42.69989" lon="1.7461">
        <ele>1747</ele>
        <time>2016-09-10T13:37:26Z</time>
      </trkpt>
      <trkpt lat="42.69988" lon="1.7461">
        <ele>1747</ele>
        <time>2016-09-10T13:37:27Z</time>
      </trkpt>
      <trkpt lat="42.69987" lon="1.74609">
        <ele>1746</ele>
        <time>2016-09-10T13:37:28Z</time>
      </trkpt>
      <trkpt lat="42.69985" lon="1.74609">
        <ele>1746</ele>
        <time>2016-09-10T13:37:29Z</time>
      </trkpt>
      <trkpt lat="42.69983" lon="1.74607">
        <ele>1745</ele>
        <time>2016-09-10T13:37:32Z</time>
      </trkpt>
      <trkpt lat="42.69981" lon="1.74606">
        <ele>1744</ele>
        <time>2016-09-10T13:37:33Z</time>
      </trkpt>
      <trkpt lat="42.69981" lon="1.74605">
        <ele>1744</ele>
        <time>2016-09-10T13:37:34Z</time>
      </trkpt>
      <trkpt lat="42.6998" lon="1.74604">
        <ele>1744</ele>
        <time>2016-09-10T13:37:35Z</time>
      </trkpt>
      <trkpt lat="42.69979" lon="1.74603">
        <ele>1743</ele>
        <time>2016-09-10T13:37:36Z</time>
      </trkpt>
      <trkpt lat="42.69976" lon="1.74599">
        <ele>1742</ele>
        <time>2016-09-10T13:37:41Z</time>
      </trkpt>
      <trkpt lat="42.69976" lon="1.74598">
        <ele>1742</ele>
        <time>2016-09-10T13:37:42Z</time>
      </trkpt>
      <trkpt lat="42.69976" lon="1.74597">
        <ele>1742</ele>
        <time>2016-09-10T13:37:43Z</time>
      </trkpt>
      <trkpt lat="42.69976" lon="1.74595">
        <ele>1741</ele>
        <time>2016-09-10T13:37:44Z</time>
      </trkpt>
      <trkpt lat="42.69975" lon="1.74593">
        <ele>1741</ele>
        <time>2016-09-10T13:37:45Z</time>
      </trkpt>
      <trkpt lat="42.69973" lon="1.74591">
        <ele>1740</ele>
        <time>2016-09-10T13:37:48Z</time>
      </trkpt>
      <trkpt lat="42.69972" lon="1.7459">
        <ele>1740</ele>
        <time>2016-09-10T13:37:49Z</time>
      </trkpt>
      <trkpt lat="42.69971" lon="1.7459">
        <ele>1739</ele>
        <time>2016-09-10T13:37:50Z</time>
      </trkpt>
      <trkpt lat="42.69971" lon="1.74589">
        <ele>1739</ele>
        <time>2016-09-10T13:37:51Z</time>
      </trkpt>
      <trkpt lat="42.69969" lon="1.74589">
        <ele>1739</ele>
        <time>2016-09-10T13:37:52Z</time>
      </trkpt>
      <trkpt lat="42.69969" lon="1.74588">
        <ele>1739</ele>
        <time>2016-09-10T13:37:53Z</time>
      </trkpt>
      <trkpt lat="42.69968" lon="1.74587">
        <ele>1738</ele>
        <time>2016-09-10T13:37:54Z</time>
      </trkpt>
      <trkpt lat="42.69966" lon="1.74587">
        <ele>1738</ele>
        <time>2016-09-10T13:37:56Z</time>
      </trkpt>
      <trkpt lat="42.69965" lon="1.74587">
        <ele>1738</ele>
        <time>2016-09-10T13:37:57Z</time>
      </trkpt>
      <trkpt lat="42.69964" lon="1.74587">
        <ele>1737</ele>
        <time>2016-09-10T13:37:58Z</time>
      </trkpt>
      <trkpt lat="42.69963" lon="1.74585">
        <ele>1737</ele>
        <time>2016-09-10T13:37:59Z</time>
      </trkpt>
      <trkpt lat="42.69963" lon="1.74584">
        <ele>1737</ele>
        <time>2016-09-10T13:38:00Z</time>
      </trkpt>
      <trkpt lat="42.69961" lon="1.74581">
        <ele>1736</ele>
        <time>2016-09-10T13:38:03Z</time>
      </trkpt>
      <trkpt lat="42.69961" lon="1.74579">
        <ele>1735</ele>
        <time>2016-09-10T13:38:04Z</time>
      </trkpt>
      <trkpt lat="42.6996" lon="1.74578">
        <ele>1735</ele>
        <time>2016-09-10T13:38:05Z</time>
      </trkpt>
      <trkpt lat="42.69961" lon="1.74577">
        <ele>1735</ele>
        <time>2016-09-10T13:38:06Z</time>
      </trkpt>
      <trkpt lat="42.69961" lon="1.74576">
        <ele>1735</ele>
        <time>2016-09-10T13:38:07Z</time>
      </trkpt>
      <trkpt lat="42.69961" lon="1.74574">
        <ele>1735</ele>
        <time>2016-09-10T13:38:08Z</time>
      </trkpt>
      <trkpt lat="42.69958" lon="1.74572">
        <ele>1734</ele>
        <time>2016-09-10T13:38:11Z</time>
      </trkpt>
      <trkpt lat="42.69957" lon="1.74571">
        <ele>1733</ele>
        <time>2016-09-10T13:38:12Z</time>
      </trkpt>
      <trkpt lat="42.69956" lon="1.7457">
        <ele>1733</ele>
        <time>2016-09-10T13:38:13Z</time>
      </trkpt>
      <trkpt lat="42.69955" lon="1.7457">
        <ele>1733</ele>
        <time>2016-09-10T13:38:14Z</time>
      </trkpt>
      <trkpt lat="42.69955" lon="1.7457">
        <ele>1733</ele>
        <time>2016-09-10T13:38:15Z</time>
      </trkpt>
      <trkpt lat="42.69951" lon="1.7457">
        <ele>1732</ele>
        <time>2016-09-10T13:38:18Z</time>
      </trkpt>
      <trkpt lat="42.6995" lon="1.74569">
        <ele>1731</ele>
        <time>2016-09-10T13:38:19Z</time>
      </trkpt>
      <trkpt lat="42.69949" lon="1.74568">
        <ele>1731</ele>
        <time>2016-09-10T13:38:20Z</time>
      </trkpt>
      <trkpt lat="42.69949" lon="1.74567">
        <ele>1731</ele>
        <time>2016-09-10T13:38:21Z</time>
      </trkpt>
      <trkpt lat="42.69948" lon="1.74566">
        <ele>1730</ele>
        <time>2016-09-10T13:38:22Z</time>
      </trkpt>
      <trkpt lat="42.69947" lon="1.74565">
        <ele>1730</ele>
        <time>2016-09-10T13:38:23Z</time>
      </trkpt>
      <trkpt lat="42.69945" lon="1.74564">
        <ele>1729</ele>
        <time>2016-09-10T13:38:25Z</time>
      </trkpt>
      <trkpt lat="42.69939" lon="1.74558">
        <ele>1727</ele>
        <time>2016-09-10T13:38:31Z</time>
      </trkpt>
      <trkpt lat="42.69938" lon="1.74556">
        <ele>1726</ele>
        <time>2016-09-10T13:38:32Z</time>
      </trkpt>
      <trkpt lat="42.69938" lon="1.74555">
        <ele>1726</ele>
        <time>2016-09-10T13:38:33Z</time>
      </trkpt>
      <trkpt lat="42.69937" lon="1.74553">
        <ele>1726</ele>
        <time>2016-09-10T13:38:34Z</time>
      </trkpt>
      <trkpt lat="42.69936" lon="1.74553">
        <ele>1725</ele>
        <time>2016-09-10T13:38:35Z</time>
      </trkpt>
      <trkpt lat="42.69936" lon="1.74554">
        <ele>1725</ele>
        <time>2016-09-10T13:38:37Z</time>
      </trkpt>
      <trkpt lat="42.69934" lon="1.74554">
        <ele>1725</ele>
        <time>2016-09-10T13:38:39Z</time>
      </trkpt>
      <trkpt lat="42.69932" lon="1.74554">
        <ele>1725</ele>
        <time>2016-09-10T13:38:40Z</time>
      </trkpt>
      <trkpt lat="42.69931" lon="1.74554">
        <ele>1724</ele>
        <time>2016-09-10T13:38:41Z</time>
      </trkpt>
      <trkpt lat="42.6993" lon="1.74553">
        <ele>1724</ele>
        <time>2016-09-10T13:38:42Z</time>
      </trkpt>
      <trkpt lat="42.69929" lon="1.74552">
        <ele>1724</ele>
        <time>2016-09-10T13:38:43Z</time>
      </trkpt>
      <trkpt lat="42.69928" lon="1.74552">
        <ele>1723</ele>
        <time>2016-09-10T13:38:44Z</time>
      </trkpt>
      <trkpt lat="42.69928" lon="1.74552">
        <ele>1723</ele>
        <time>2016-09-10T13:38:47Z</time>
      </trkpt>
      <trkpt lat="42.69929" lon="1.74552">
        <ele>1723</ele>
        <time>2016-09-10T13:38:51Z</time>
      </trkpt>
      <trkpt lat="42.69929" lon="1.74552">
        <ele>1723</ele>
        <time>2016-09-10T13:39:02Z</time>
      </trkpt>
      <trkpt lat="42.69924" lon="1.74544">
        <ele>1721</ele>
        <time>2016-09-10T13:39:09Z</time>
      </trkpt>
      <trkpt lat="42.69924" lon="1.74544">
        <ele>1721</ele>
        <time>2016-09-10T13:39:10Z</time>
      </trkpt>
      <trkpt lat="42.69922" lon="1.74543">
        <ele>1720</ele>
        <time>2016-09-10T13:39:11Z</time>
      </trkpt>
      <trkpt lat="42.69922" lon="1.74542">
        <ele>1720</ele>
        <time>2016-09-10T13:39:12Z</time>
      </trkpt>
      <trkpt lat="42.69922" lon="1.74541">
        <ele>1720</ele>
        <time>2016-09-10T13:39:13Z</time>
      </trkpt>
      <trkpt lat="42.69921" lon="1.74539">
        <ele>1719</ele>
        <time>2016-09-10T13:39:14Z</time>
      </trkpt>
      <trkpt lat="42.6992" lon="1.74538">
        <ele>1719</ele>
        <time>2016-09-10T13:39:15Z</time>
      </trkpt>
      <trkpt lat="42.69917" lon="1.74534">
        <ele>1718</ele>
        <time>2016-09-10T13:39:19Z</time>
      </trkpt>
      <trkpt lat="42.69915" lon="1.74532">
        <ele>1717</ele>
        <time>2016-09-10T13:39:20Z</time>
      </trkpt>
      <trkpt lat="42.69915" lon="1.74532">
        <ele>1717</ele>
        <time>2016-09-10T13:39:21Z</time>
      </trkpt>
      <trkpt lat="42.69915" lon="1.7453">
        <ele>1717</ele>
        <time>2016-09-10T13:39:22Z</time>
      </trkpt>
      <trkpt lat="42.69915" lon="1.74529">
        <ele>1717</ele>
        <time>2016-09-10T13:39:23Z</time>
      </trkpt>
      <trkpt lat="42.69914" lon="1.74527">
        <ele>1716</ele>
        <time>2016-09-10T13:39:26Z</time>
      </trkpt>
      <trkpt lat="42.69913" lon="1.74526">
        <ele>1716</ele>
        <time>2016-09-10T13:39:28Z</time>
      </trkpt>
      <trkpt lat="42.69912" lon="1.74525">
        <ele>1715</ele>
        <time>2016-09-10T13:39:29Z</time>
      </trkpt>
      <trkpt lat="42.69912" lon="1.74525">
        <ele>1715</ele>
        <time>2016-09-10T13:39:30Z</time>
      </trkpt>
      <trkpt lat="42.69911" lon="1.74523">
        <ele>1715</ele>
        <time>2016-09-10T13:39:31Z</time>
      </trkpt>
      <trkpt lat="42.69911" lon="1.74524">
        <ele>1715</ele>
        <time>2016-09-10T13:39:32Z</time>
      </trkpt>
      <trkpt lat="42.69906" lon="1.74522">
        <ele>1714</ele>
        <time>2016-09-10T13:39:37Z</time>
      </trkpt>
      <trkpt lat="42.69905" lon="1.74522">
        <ele>1714</ele>
        <time>2016-09-10T13:39:38Z</time>
      </trkpt>
      <trkpt lat="42.69904" lon="1.74522">
        <ele>1714</ele>
        <time>2016-09-10T13:39:39Z</time>
      </trkpt>
      <trkpt lat="42.69903" lon="1.74521">
        <ele>1713</ele>
        <time>2016-09-10T13:39:40Z</time>
      </trkpt>
      <trkpt lat="42.69902" lon="1.74521">
        <ele>1713</ele>
        <time>2016-09-10T13:39:41Z</time>
      </trkpt>
      <trkpt lat="42.69898" lon="1.74522">
        <ele>1713</ele>
        <time>2016-09-10T13:39:45Z</time>
      </trkpt>
      <trkpt lat="42.69898" lon="1.74522">
        <ele>1713</ele>
        <time>2016-09-10T13:39:46Z</time>
      </trkpt>
      <trkpt lat="42.69898" lon="1.74522">
        <ele>1713</ele>
        <time>2016-09-10T13:39:47Z</time>
      </trkpt>
      <trkpt lat="42.69898" lon="1.74522">
        <ele>1713</ele>
        <time>2016-09-10T13:39:48Z</time>
      </trkpt>
      <trkpt lat="42.69898" lon="1.74522">
        <ele>1713</ele>
        <time>2016-09-10T13:39:49Z</time>
      </trkpt>
      <trkpt lat="42.69897" lon="1.74522">
        <ele>1712</ele>
        <time>2016-09-10T13:39:50Z</time>
      </trkpt>
      <trkpt lat="42.6989" lon="1.74522">
        <ele>1711</ele>
        <time>2016-09-10T13:39:56Z</time>
      </trkpt>
      <trkpt lat="42.69885" lon="1.74518">
        <ele>1710</ele>
        <time>2016-09-10T13:40:00Z</time>
      </trkpt>
      <trkpt lat="42.69884" lon="1.74517">
        <ele>1709</ele>
        <time>2016-09-10T13:40:01Z</time>
      </trkpt>
      <trkpt lat="42.69884" lon="1.74518">
        <ele>1709</ele>
        <time>2016-09-10T13:40:02Z</time>
      </trkpt>
      <trkpt lat="42.69883" lon="1.74517">
        <ele>1709</ele>
        <time>2016-09-10T13:40:03Z</time>
      </trkpt>
      <trkpt lat="42.69882" lon="1.74516">
        <ele>1709</ele>
        <time>2016-09-10T13:40:04Z</time>
      </trkpt>
      <trkpt lat="42.6988" lon="1.74514">
        <ele>1708</ele>
        <time>2016-09-10T13:40:06Z</time>
      </trkpt>
      <trkpt lat="42.6988" lon="1.7451">
        <ele>1708</ele>
        <time>2016-09-10T13:40:08Z</time>
      </trkpt>
      <trkpt lat="42.69879" lon="1.74509">
        <ele>1707</ele>
        <time>2016-09-10T13:40:09Z</time>
      </trkpt>
      <trkpt lat="42.69877" lon="1.74507">
        <ele>1707</ele>
        <time>2016-09-10T13:40:10Z</time>
      </trkpt>
      <trkpt lat="42.69876" lon="1.74508">
        <ele>1707</ele>
        <time>2016-09-10T13:40:11Z</time>
      </trkpt>
      <trkpt lat="42.69875" lon="1.74508">
        <ele>1706</ele>
        <time>2016-09-10T13:40:12Z</time>
      </trkpt>
      <trkpt lat="42.69875" lon="1.74508">
        <ele>1706</ele>
        <time>2016-09-10T13:40:13Z</time>
      </trkpt>
      <trkpt lat="42.69874" lon="1.74506">
        <ele>1706</ele>
        <time>2016-09-10T13:40:18Z</time>
      </trkpt>
      <trkpt lat="42.69873" lon="1.74503">
        <ele>1706</ele>
        <time>2016-09-10T13:40:20Z</time>
      </trkpt>
      <trkpt lat="42.69873" lon="1.74503">
        <ele>1706</ele>
        <time>2016-09-10T13:40:22Z</time>
      </trkpt>
      <trkpt lat="42.69872" lon="1.74502">
        <ele>1705</ele>
        <time>2016-09-10T13:40:23Z</time>
      </trkpt>
      <trkpt lat="42.69871" lon="1.74501">
        <ele>1705</ele>
        <time>2016-09-10T13:40:24Z</time>
      </trkpt>
      <trkpt lat="42.69871" lon="1.745">
        <ele>1705</ele>
        <time>2016-09-10T13:40:25Z</time>
      </trkpt>
      <trkpt lat="42.6987" lon="1.74499">
        <ele>1705</ele>
        <time>2016-09-10T13:40:26Z</time>
      </trkpt>
      <trkpt lat="42.69867" lon="1.74496">
        <ele>1704</ele>
        <time>2016-09-10T13:40:29Z</time>
      </trkpt>
      <trkpt lat="42.69866" lon="1.74495">
        <ele>1704</ele>
        <time>2016-09-10T13:40:30Z</time>
      </trkpt>
      <trkpt lat="42.69866" lon="1.74494">
        <ele>1704</ele>
        <time>2016-09-10T13:40:31Z</time>
      </trkpt>
      <trkpt lat="42.69866" lon="1.74494">
        <ele>1704</ele>
        <time>2016-09-10T13:40:32Z</time>
      </trkpt>
      <trkpt lat="42.69864" lon="1.74494">
        <ele>1703</ele>
        <time>2016-09-10T13:40:33Z</time>
      </trkpt>
      <trkpt lat="42.69864" lon="1.74491">
        <ele>1703</ele>
        <time>2016-09-10T13:40:35Z</time>
      </trkpt>
      <trkpt lat="42.69864" lon="1.7449">
        <ele>1703</ele>
        <time>2016-09-10T13:40:36Z</time>
      </trkpt>
      <trkpt lat="42.69864" lon="1.74488">
        <ele>1702</ele>
        <time>2016-09-10T13:40:39Z</time>
      </trkpt>
      <trkpt lat="42.69862" lon="1.74488">
        <ele>1702</ele>
        <time>2016-09-10T13:40:40Z</time>
      </trkpt>
      <trkpt lat="42.6986" lon="1.74488">
        <ele>1702</ele>
        <time>2016-09-10T13:40:41Z</time>
      </trkpt>
      <trkpt lat="42.6986" lon="1.74489">
        <ele>1702</ele>
        <time>2016-09-10T13:40:42Z</time>
      </trkpt>
      <trkpt lat="42.69855" lon="1.74489">
        <ele>1702</ele>
        <time>2016-09-10T13:40:47Z</time>
      </trkpt>
      <trkpt lat="42.69854" lon="1.74489">
        <ele>1702</ele>
        <time>2016-09-10T13:40:48Z</time>
      </trkpt>
      <trkpt lat="42.69853" lon="1.74489">
        <ele>1702</ele>
        <time>2016-09-10T13:40:49Z</time>
      </trkpt>
      <trkpt lat="42.69852" lon="1.7449">
        <ele>1702</ele>
        <time>2016-09-10T13:40:50Z</time>
      </trkpt>
      <trkpt lat="42.69851" lon="1.7449">
        <ele>1702</ele>
        <time>2016-09-10T13:40:51Z</time>
      </trkpt>
      <trkpt lat="42.69851" lon="1.74491">
        <ele>1702</ele>
        <time>2016-09-10T13:40:56Z</time>
      </trkpt>
      <trkpt lat="42.69849" lon="1.74489">
        <ele>1701</ele>
        <time>2016-09-10T13:41:04Z</time>
      </trkpt>
      <trkpt lat="42.69848" lon="1.74489">
        <ele>1701</ele>
        <time>2016-09-10T13:41:05Z</time>
      </trkpt>
      <trkpt lat="42.69848" lon="1.74488">
        <ele>1701</ele>
        <time>2016-09-10T13:41:06Z</time>
      </trkpt>
      <trkpt lat="42.69848" lon="1.74487">
        <ele>1701</ele>
        <time>2016-09-10T13:41:07Z</time>
      </trkpt>
      <trkpt lat="42.69847" lon="1.74486">
        <ele>1701</ele>
        <time>2016-09-10T13:41:08Z</time>
      </trkpt>
      <trkpt lat="42.69845" lon="1.74484">
        <ele>1700</ele>
        <time>2016-09-10T13:41:10Z</time>
      </trkpt>
      <trkpt lat="42.69841" lon="1.74482">
        <ele>1699</ele>
        <time>2016-09-10T13:41:13Z</time>
      </trkpt>
      <trkpt lat="42.6984" lon="1.74481">
        <ele>1699</ele>
        <time>2016-09-10T13:41:14Z</time>
      </trkpt>
      <trkpt lat="42.69838" lon="1.74481">
        <ele>1699</ele>
        <time>2016-09-10T13:41:15Z</time>
      </trkpt>
      <trkpt lat="42.69836" lon="1.74479">
        <ele>1699</ele>
        <time>2016-09-10T13:41:16Z</time>
      </trkpt>
      <trkpt lat="42.69836" lon="1.74478">
        <ele>1698</ele>
        <time>2016-09-10T13:41:17Z</time>
      </trkpt>
      <trkpt lat="42.69835" lon="1.74476">
        <ele>1698</ele>
        <time>2016-09-10T13:41:20Z</time>
      </trkpt>
      <trkpt lat="42.69834" lon="1.74476">
        <ele>1698</ele>
        <time>2016-09-10T13:41:22Z</time>
      </trkpt>
      <trkpt lat="42.69833" lon="1.74475">
        <ele>1697</ele>
        <time>2016-09-10T13:41:23Z</time>
      </trkpt>
      <trkpt lat="42.69831" lon="1.74475">
        <ele>1697</ele>
        <time>2016-09-10T13:41:24Z</time>
      </trkpt>
      <trkpt lat="42.69829" lon="1.74474">
        <ele>1697</ele>
        <time>2016-09-10T13:41:25Z</time>
      </trkpt>
      <trkpt lat="42.69828" lon="1.74473">
        <ele>1697</ele>
        <time>2016-09-10T13:41:26Z</time>
      </trkpt>
      <trkpt lat="42.69827" lon="1.7447">
        <ele>1696</ele>
        <time>2016-09-10T13:41:28Z</time>
      </trkpt>
      <trkpt lat="42.69826" lon="1.74467">
        <ele>1696</ele>
        <time>2016-09-10T13:41:30Z</time>
      </trkpt>
      <trkpt lat="42.69824" lon="1.74461">
        <ele>1695</ele>
        <time>2016-09-10T13:41:33Z</time>
      </trkpt>
      <trkpt lat="42.69824" lon="1.74459">
        <ele>1694</ele>
        <time>2016-09-10T13:41:34Z</time>
      </trkpt>
      <trkpt lat="42.69823" lon="1.74458">
        <ele>1694</ele>
        <time>2016-09-10T13:41:35Z</time>
      </trkpt>
      <trkpt lat="42.69822" lon="1.74457">
        <ele>1694</ele>
        <time>2016-09-10T13:41:36Z</time>
      </trkpt>
      <trkpt lat="42.69821" lon="1.74457">
        <ele>1694</ele>
        <time>2016-09-10T13:41:37Z</time>
      </trkpt>
      <trkpt lat="42.6982" lon="1.74454">
        <ele>1693</ele>
        <time>2016-09-10T13:41:39Z</time>
      </trkpt>
      <trkpt lat="42.69818" lon="1.74449">
        <ele>1692</ele>
        <time>2016-09-10T13:41:41Z</time>
      </trkpt>
      <trkpt lat="42.69817" lon="1.74444">
        <ele>1692</ele>
        <time>2016-09-10T13:41:45Z</time>
      </trkpt>
      <trkpt lat="42.69812" lon="1.74436">
        <ele>1690</ele>
        <time>2016-09-10T13:41:51Z</time>
      </trkpt>
      <trkpt lat="42.69811" lon="1.74435">
        <ele>1690</ele>
        <time>2016-09-10T13:41:52Z</time>
      </trkpt>
      <trkpt lat="42.69808" lon="1.74428">
        <ele>1689</ele>
        <time>2016-09-10T13:41:57Z</time>
      </trkpt>
      <trkpt lat="42.69808" lon="1.74427">
        <ele>1688</ele>
        <time>2016-09-10T13:41:58Z</time>
      </trkpt>
      <trkpt lat="42.69808" lon="1.74425">
        <ele>1688</ele>
        <time>2016-09-10T13:41:59Z</time>
      </trkpt>
      <trkpt lat="42.69809" lon="1.74423">
        <ele>1688</ele>
        <time>2016-09-10T13:42:00Z</time>
      </trkpt>
      <trkpt lat="42.69809" lon="1.74422">
        <ele>1688</ele>
        <time>2016-09-10T13:42:01Z</time>
      </trkpt>
      <trkpt lat="42.69811" lon="1.7442">
        <ele>1687</ele>
        <time>2016-09-10T13:42:03Z</time>
      </trkpt>
      <trkpt lat="42.69818" lon="1.74413">
        <ele>1686</ele>
        <time>2016-09-10T13:42:10Z</time>
      </trkpt>
      <trkpt lat="42.69819" lon="1.74412">
        <ele>1686</ele>
        <time>2016-09-10T13:42:11Z</time>
      </trkpt>
      <trkpt lat="42.69824" lon="1.74409">
        <ele>1685</ele>
        <time>2016-09-10T13:42:15Z</time>
      </trkpt>
      <trkpt lat="42.69829" lon="1.74402">
        <ele>1684</ele>
        <time>2016-09-10T13:42:21Z</time>
      </trkpt>
      <trkpt lat="42.6983" lon="1.74401">
        <ele>1684</ele>
        <time>2016-09-10T13:42:22Z</time>
      </trkpt>
      <trkpt lat="42.69831" lon="1.744">
        <ele>1684</ele>
        <time>2016-09-10T13:42:23Z</time>
      </trkpt>
      <trkpt lat="42.69832" lon="1.74399">
        <ele>1684</ele>
        <time>2016-09-10T13:42:24Z</time>
      </trkpt>
      <trkpt lat="42.69833" lon="1.74398">
        <ele>1683</ele>
        <time>2016-09-10T13:42:25Z</time>
      </trkpt>
      <trkpt lat="42.69835" lon="1.74393">
        <ele>1683</ele>
        <time>2016-09-10T13:42:28Z</time>
      </trkpt>
      <trkpt lat="42.69837" lon="1.7439">
        <ele>1682</ele>
        <time>2016-09-10T13:42:33Z</time>
      </trkpt>
      <trkpt lat="42.69837" lon="1.7439">
        <ele>1682</ele>
        <time>2016-09-10T13:42:48Z</time>
      </trkpt>
      <trkpt lat="42.69837" lon="1.7439">
        <ele>1682</ele>
        <time>2016-09-10T13:43:00Z</time>
      </trkpt>
      <trkpt lat="42.69842" lon="1.74387">
        <ele>1682</ele>
        <time>2016-09-10T13:43:07Z</time>
      </trkpt>
      <trkpt lat="42.69843" lon="1.74386">
        <ele>1682</ele>
        <time>2016-09-10T13:43:08Z</time>
      </trkpt>
      <trkpt lat="42.69845" lon="1.74385">
        <ele>1682</ele>
        <time>2016-09-10T13:43:09Z</time>
      </trkpt>
      <trkpt lat="42.69845" lon="1.74385">
        <ele>1682</ele>
        <time>2016-09-10T13:43:10Z</time>
      </trkpt>
      <trkpt lat="42.69848" lon="1.74382">
        <ele>1681</ele>
        <time>2016-09-10T13:43:13Z</time>
      </trkpt>
      <trkpt lat="42.69857" lon="1.74378">
        <ele>1681</ele>
        <time>2016-09-10T13:43:20Z</time>
      </trkpt>
      <trkpt lat="42.69863" lon="1.74381">
        <ele>1682</ele>
        <time>2016-09-10T13:43:25Z</time>
      </trkpt>
      <trkpt lat="42.69864" lon="1.74382">
        <ele>1682</ele>
        <time>2016-09-10T13:43:27Z</time>
      </trkpt>
      <trkpt lat="42.69865" lon="1.74382">
        <ele>1682</ele>
        <time>2016-09-10T13:43:28Z</time>
      </trkpt>
      <trkpt lat="42.69866" lon="1.74383">
        <ele>1683</ele>
        <time>2016-09-10T13:43:29Z</time>
      </trkpt>
      <trkpt lat="42.69867" lon="1.74384">
        <ele>1683</ele>
        <time>2016-09-10T13:43:30Z</time>
      </trkpt>
      <trkpt lat="42.69869" lon="1.74384">
        <ele>1683</ele>
        <time>2016-09-10T13:43:31Z</time>
      </trkpt>
      <trkpt lat="42.6987" lon="1.74384">
        <ele>1683</ele>
        <time>2016-09-10T13:43:32Z</time>
      </trkpt>
      <trkpt lat="42.69873" lon="1.74383">
        <ele>1683</ele>
        <time>2016-09-10T13:43:35Z</time>
      </trkpt>
      <trkpt lat="42.69873" lon="1.74382">
        <ele>1683</ele>
        <time>2016-09-10T13:43:36Z</time>
      </trkpt>
      <trkpt lat="42.69874" lon="1.74381">
        <ele>1683</ele>
        <time>2016-09-10T13:43:37Z</time>
      </trkpt>
      <trkpt lat="42.69875" lon="1.7438">
        <ele>1683</ele>
        <time>2016-09-10T13:43:38Z</time>
      </trkpt>
      <trkpt lat="42.69876" lon="1.74378">
        <ele>1682</ele>
        <time>2016-09-10T13:43:39Z</time>
      </trkpt>
      <trkpt lat="42.69877" lon="1.74372">
        <ele>1681</ele>
        <time>2016-09-10T13:43:43Z</time>
      </trkpt>
      <trkpt lat="42.69877" lon="1.74371">
        <ele>1681</ele>
        <time>2016-09-10T13:43:44Z</time>
      </trkpt>
      <trkpt lat="42.69878" lon="1.7437">
        <ele>1681</ele>
        <time>2016-09-10T13:43:45Z</time>
      </trkpt>
      <trkpt lat="42.69878" lon="1.74369">
        <ele>1680</ele>
        <time>2016-09-10T13:43:46Z</time>
      </trkpt>
      <trkpt lat="42.69878" lon="1.74368">
        <ele>1680</ele>
        <time>2016-09-10T13:43:47Z</time>
      </trkpt>
      <trkpt lat="42.69879" lon="1.74367">
        <ele>1680</ele>
        <time>2016-09-10T13:43:48Z</time>
      </trkpt>
      <trkpt lat="42.6988" lon="1.74366">
        <ele>1680</ele>
        <time>2016-09-10T13:43:49Z</time>
      </trkpt>
      <trkpt lat="42.6988" lon="1.74365">
        <ele>1680</ele>
        <time>2016-09-10T13:43:50Z</time>
      </trkpt>
      <trkpt lat="42.69881" lon="1.74364">
        <ele>1679</ele>
        <time>2016-09-10T13:43:51Z</time>
      </trkpt>
      <trkpt lat="42.69881" lon="1.74362">
        <ele>1679</ele>
        <time>2016-09-10T13:43:52Z</time>
      </trkpt>
      <trkpt lat="42.69881" lon="1.74361">
        <ele>1679</ele>
        <time>2016-09-10T13:43:53Z</time>
      </trkpt>
      <trkpt lat="42.69881" lon="1.74359">
        <ele>1678</ele>
        <time>2016-09-10T13:43:55Z</time>
      </trkpt>
      <trkpt lat="42.69881" lon="1.74355">
        <ele>1677</ele>
        <time>2016-09-10T13:43:59Z</time>
      </trkpt>
      <trkpt lat="42.69882" lon="1.74352">
        <ele>1676</ele>
        <time>2016-09-10T13:44:02Z</time>
      </trkpt>
      <trkpt lat="42.69881" lon="1.74351">
        <ele>1676</ele>
        <time>2016-09-10T13:44:03Z</time>
      </trkpt>
      <trkpt lat="42.69881" lon="1.7435">
        <ele>1676</ele>
        <time>2016-09-10T13:44:04Z</time>
      </trkpt>
      <trkpt lat="42.69881" lon="1.74349">
        <ele>1676</ele>
        <time>2016-09-10T13:44:05Z</time>
      </trkpt>
      <trkpt lat="42.69882" lon="1.74348">
        <ele>1675</ele>
        <time>2016-09-10T13:44:06Z</time>
      </trkpt>
      <trkpt lat="42.69883" lon="1.74346">
        <ele>1675</ele>
        <time>2016-09-10T13:44:08Z</time>
      </trkpt>
      <trkpt lat="42.69883" lon="1.74345">
        <ele>1675</ele>
        <time>2016-09-10T13:44:09Z</time>
      </trkpt>
      <trkpt lat="42.69884" lon="1.74344">
        <ele>1674</ele>
        <time>2016-09-10T13:44:10Z</time>
      </trkpt>
      <trkpt lat="42.69885" lon="1.74343">
        <ele>1674</ele>
        <time>2016-09-10T13:44:11Z</time>
      </trkpt>
      <trkpt lat="42.69886" lon="1.74342">
        <ele>1674</ele>
        <time>2016-09-10T13:44:12Z</time>
      </trkpt>
      <trkpt lat="42.69887" lon="1.74337">
        <ele>1673</ele>
        <time>2016-09-10T13:44:18Z</time>
      </trkpt>
      <trkpt lat="42.69887" lon="1.74336">
        <ele>1673</ele>
        <time>2016-09-10T13:44:19Z</time>
      </trkpt>
      <trkpt lat="42.69888" lon="1.74335">
        <ele>1672</ele>
        <time>2016-09-10T13:44:20Z</time>
      </trkpt>
      <trkpt lat="42.69889" lon="1.74334">
        <ele>1672</ele>
        <time>2016-09-10T13:44:21Z</time>
      </trkpt>
      <trkpt lat="42.69889" lon="1.74333">
        <ele>1672</ele>
        <time>2016-09-10T13:44:22Z</time>
      </trkpt>
      <trkpt lat="42.6989" lon="1.74331">
        <ele>1671</ele>
        <time>2016-09-10T13:44:24Z</time>
      </trkpt>
      <trkpt lat="42.69891" lon="1.7433">
        <ele>1671</ele>
        <time>2016-09-10T13:44:25Z</time>
      </trkpt>
      <trkpt lat="42.69892" lon="1.74329">
        <ele>1671</ele>
        <time>2016-09-10T13:44:26Z</time>
      </trkpt>
      <trkpt lat="42.69892" lon="1.74328">
        <ele>1671</ele>
        <time>2016-09-10T13:44:27Z</time>
      </trkpt>
      <trkpt lat="42.69892" lon="1.74327">
        <ele>1670</ele>
        <time>2016-09-10T13:44:28Z</time>
      </trkpt>
      <trkpt lat="42.69892" lon="1.74326">
        <ele>1670</ele>
        <time>2016-09-10T13:44:29Z</time>
      </trkpt>
      <trkpt lat="42.69892" lon="1.7432">
        <ele>1669</ele>
        <time>2016-09-10T13:44:35Z</time>
      </trkpt>
      <trkpt lat="42.69893" lon="1.7432">
        <ele>1668</ele>
        <time>2016-09-10T13:44:36Z</time>
      </trkpt>
      <trkpt lat="42.69893" lon="1.74319">
        <ele>1668</ele>
        <time>2016-09-10T13:44:37Z</time>
      </trkpt>
      <trkpt lat="42.69894" lon="1.74319">
        <ele>1668</ele>
        <time>2016-09-10T13:44:38Z</time>
      </trkpt>
      <trkpt lat="42.69895" lon="1.74318">
        <ele>1668</ele>
        <time>2016-09-10T13:44:39Z</time>
      </trkpt>
      <trkpt lat="42.69895" lon="1.74314">
        <ele>1667</ele>
        <time>2016-09-10T13:44:42Z</time>
      </trkpt>
      <trkpt lat="42.69896" lon="1.74313">
        <ele>1667</ele>
        <time>2016-09-10T13:44:47Z</time>
      </trkpt>
      <trkpt lat="42.69895" lon="1.74311">
        <ele>1666</ele>
        <time>2016-09-10T13:44:50Z</time>
      </trkpt>
      <trkpt lat="42.69895" lon="1.74311">
        <ele>1666</ele>
        <time>2016-09-10T13:44:51Z</time>
      </trkpt>
      <trkpt lat="42.69895" lon="1.7431">
        <ele>1666</ele>
        <time>2016-09-10T13:44:52Z</time>
      </trkpt>
      <trkpt lat="42.69895" lon="1.74308">
        <ele>1666</ele>
        <time>2016-09-10T13:44:53Z</time>
      </trkpt>
      <trkpt lat="42.69895" lon="1.74307">
        <ele>1665</ele>
        <time>2016-09-10T13:44:54Z</time>
      </trkpt>
      <trkpt lat="42.69895" lon="1.74305">
        <ele>1665</ele>
        <time>2016-09-10T13:44:56Z</time>
      </trkpt>
      <trkpt lat="42.69896" lon="1.74304">
        <ele>1664</ele>
        <time>2016-09-10T13:44:57Z</time>
      </trkpt>
      <trkpt lat="42.69896" lon="1.74304">
        <ele>1664</ele>
        <time>2016-09-10T13:44:58Z</time>
      </trkpt>
      <trkpt lat="42.69897" lon="1.74303">
        <ele>1664</ele>
        <time>2016-09-10T13:44:59Z</time>
      </trkpt>
      <trkpt lat="42.69898" lon="1.74302">
        <ele>1664</ele>
        <time>2016-09-10T13:45:00Z</time>
      </trkpt>
      <trkpt lat="42.69898" lon="1.74301">
        <ele>1664</ele>
        <time>2016-09-10T13:45:02Z</time>
      </trkpt>
      <trkpt lat="42.69899" lon="1.74296">
        <ele>1662</ele>
        <time>2016-09-10T13:45:05Z</time>
      </trkpt>
      <trkpt lat="42.69899" lon="1.74295">
        <ele>1662</ele>
        <time>2016-09-10T13:45:06Z</time>
      </trkpt>
      <trkpt lat="42.69898" lon="1.74294">
        <ele>1662</ele>
        <time>2016-09-10T13:45:07Z</time>
      </trkpt>
      <trkpt lat="42.69898" lon="1.74293">
        <ele>1661</ele>
        <time>2016-09-10T13:45:08Z</time>
      </trkpt>
      <trkpt lat="42.69898" lon="1.74292">
        <ele>1661</ele>
        <time>2016-09-10T13:45:09Z</time>
      </trkpt>
      <trkpt lat="42.69898" lon="1.74291">
        <ele>1661</ele>
        <time>2016-09-10T13:45:10Z</time>
      </trkpt>
      <trkpt lat="42.69901" lon="1.74284">
        <ele>1659</ele>
        <time>2016-09-10T13:45:15Z</time>
      </trkpt>
      <trkpt lat="42.69901" lon="1.74283">
        <ele>1659</ele>
        <time>2016-09-10T13:45:16Z</time>
      </trkpt>
      <trkpt lat="42.69901" lon="1.74282">
        <ele>1658</ele>
        <time>2016-09-10T13:45:17Z</time>
      </trkpt>
      <trkpt lat="42.69901" lon="1.7428">
        <ele>1658</ele>
        <time>2016-09-10T13:45:18Z</time>
      </trkpt>
      <trkpt lat="42.69901" lon="1.74278">
        <ele>1657</ele>
        <time>2016-09-10T13:45:19Z</time>
      </trkpt>
      <trkpt lat="42.69901" lon="1.74273">
        <ele>1656</ele>
        <time>2016-09-10T13:45:22Z</time>
      </trkpt>
      <trkpt lat="42.69901" lon="1.74271">
        <ele>1656</ele>
        <time>2016-09-10T13:45:23Z</time>
      </trkpt>
      <trkpt lat="42.69901" lon="1.7427">
        <ele>1655</ele>
        <time>2016-09-10T13:45:24Z</time>
      </trkpt>
      <trkpt lat="42.69902" lon="1.74269">
        <ele>1655</ele>
        <time>2016-09-10T13:45:25Z</time>
      </trkpt>
      <trkpt lat="42.69903" lon="1.74268">
        <ele>1655</ele>
        <time>2016-09-10T13:45:26Z</time>
      </trkpt>
      <trkpt lat="42.69903" lon="1.74267">
        <ele>1654</ele>
        <time>2016-09-10T13:45:27Z</time>
      </trkpt>
      <trkpt lat="42.69903" lon="1.74266">
        <ele>1654</ele>
        <time>2016-09-10T13:45:28Z</time>
      </trkpt>
      <trkpt lat="42.69903" lon="1.74262">
        <ele>1653</ele>
        <time>2016-09-10T13:45:30Z</time>
      </trkpt>
      <trkpt lat="42.69903" lon="1.74261">
        <ele>1653</ele>
        <time>2016-09-10T13:45:31Z</time>
      </trkpt>
      <trkpt lat="42.69903" lon="1.7426">
        <ele>1652</ele>
        <time>2016-09-10T13:45:32Z</time>
      </trkpt>
      <trkpt lat="42.69903" lon="1.74259">
        <ele>1652</ele>
        <time>2016-09-10T13:45:33Z</time>
      </trkpt>
      <trkpt lat="42.69903" lon="1.74257">
        <ele>1652</ele>
        <time>2016-09-10T13:45:34Z</time>
      </trkpt>
      <trkpt lat="42.69903" lon="1.74253">
        <ele>1650</ele>
        <time>2016-09-10T13:45:37Z</time>
      </trkpt>
      <trkpt lat="42.69903" lon="1.74252">
        <ele>1650</ele>
        <time>2016-09-10T13:45:38Z</time>
      </trkpt>
      <trkpt lat="42.69903" lon="1.7425">
        <ele>1650</ele>
        <time>2016-09-10T13:45:39Z</time>
      </trkpt>
      <trkpt lat="42.69903" lon="1.74249">
        <ele>1649</ele>
        <time>2016-09-10T13:45:40Z</time>
      </trkpt>
      <trkpt lat="42.69903" lon="1.74247">
        <ele>1649</ele>
        <time>2016-09-10T13:45:41Z</time>
      </trkpt>
      <trkpt lat="42.69903" lon="1.74247">
        <ele>1649</ele>
        <time>2016-09-10T13:45:42Z</time>
      </trkpt>
      <trkpt lat="42.69903" lon="1.74245">
        <ele>1648</ele>
        <time>2016-09-10T13:45:43Z</time>
      </trkpt>
      <trkpt lat="42.69903" lon="1.74241">
        <ele>1647</ele>
        <time>2016-09-10T13:45:46Z</time>
      </trkpt>
      <trkpt lat="42.69903" lon="1.74239">
        <ele>1647</ele>
        <time>2016-09-10T13:45:47Z</time>
      </trkpt>
      <trkpt lat="42.69902" lon="1.74236">
        <ele>1646</ele>
        <time>2016-09-10T13:45:50Z</time>
      </trkpt>
      <trkpt lat="42.69902" lon="1.74235">
        <ele>1646</ele>
        <time>2016-09-10T13:45:51Z</time>
      </trkpt>
      <trkpt lat="42.69901" lon="1.74234">
        <ele>1645</ele>
        <time>2016-09-10T13:45:52Z</time>
      </trkpt>
      <trkpt lat="42.699" lon="1.74233">
        <ele>1645</ele>
        <time>2016-09-10T13:45:53Z</time>
      </trkpt>
      <trkpt lat="42.699" lon="1.74231">
        <ele>1645</ele>
        <time>2016-09-10T13:45:54Z</time>
      </trkpt>
      <trkpt lat="42.69899" lon="1.74228">
        <ele>1644</ele>
        <time>2016-09-10T13:45:57Z</time>
      </trkpt>
      <trkpt lat="42.69899" lon="1.74228">
        <ele>1644</ele>
        <time>2016-09-10T13:45:58Z</time>
      </trkpt>
      <trkpt lat="42.69898" lon="1.74227">
        <ele>1644</ele>
        <time>2016-09-10T13:45:59Z</time>
      </trkpt>
      <trkpt lat="42.69897" lon="1.74226">
        <ele>1644</ele>
        <time>2016-09-10T13:46:00Z</time>
      </trkpt>
      <trkpt lat="42.69897" lon="1.74225">
        <ele>1643</ele>
        <time>2016-09-10T13:46:01Z</time>
      </trkpt>
      <trkpt lat="42.69897" lon="1.74225">
        <ele>1643</ele>
        <time>2016-09-10T13:46:03Z</time>
      </trkpt>
      <trkpt lat="42.69897" lon="1.74223">
        <ele>1643</ele>
        <time>2016-09-10T13:46:05Z</time>
      </trkpt>
      <trkpt lat="42.69898" lon="1.74222">
        <ele>1643</ele>
        <time>2016-09-10T13:46:06Z</time>
      </trkpt>
      <trkpt lat="42.69898" lon="1.74221">
        <ele>1642</ele>
        <time>2016-09-10T13:46:07Z</time>
      </trkpt>
      <trkpt lat="42.69898" lon="1.74221">
        <ele>1642</ele>
        <time>2016-09-10T13:46:08Z</time>
      </trkpt>
      <trkpt lat="42.69898" lon="1.7422">
        <ele>1642</ele>
        <time>2016-09-10T13:46:09Z</time>
      </trkpt>
      <trkpt lat="42.69898" lon="1.74219">
        <ele>1642</ele>
        <time>2016-09-10T13:46:10Z</time>
      </trkpt>
      <trkpt lat="42.69899" lon="1.74216">
        <ele>1641</ele>
        <time>2016-09-10T13:46:13Z</time>
      </trkpt>
      <trkpt lat="42.69901" lon="1.74216">
        <ele>1640</ele>
        <time>2016-09-10T13:46:15Z</time>
      </trkpt>
      <trkpt lat="42.69901" lon="1.74216">
        <ele>1640</ele>
        <time>2016-09-10T13:46:16Z</time>
      </trkpt>
      <trkpt lat="42.69902" lon="1.74215">
        <ele>1640</ele>
        <time>2016-09-10T13:46:17Z</time>
      </trkpt>
      <trkpt lat="42.69903" lon="1.74215">
        <ele>1640</ele>
        <time>2016-09-10T13:46:18Z</time>
      </trkpt>
      <trkpt lat="42.69904" lon="1.74214">
        <ele>1640</ele>
        <time>2016-09-10T13:46:19Z</time>
      </trkpt>
      <trkpt lat="42.69905" lon="1.74215">
        <ele>1640</ele>
        <time>2016-09-10T13:46:20Z</time>
      </trkpt>
      <trkpt lat="42.69909" lon="1.74217">
        <ele>1640</ele>
        <time>2016-09-10T13:46:25Z</time>
      </trkpt>
      <trkpt lat="42.6991" lon="1.74218">
        <ele>1640</ele>
        <time>2016-09-10T13:46:26Z</time>
      </trkpt>
      <trkpt lat="42.69911" lon="1.74218">
        <ele>1640</ele>
        <time>2016-09-10T13:46:27Z</time>
      </trkpt>
      <trkpt lat="42.69911" lon="1.74217">
        <ele>1640</ele>
        <time>2016-09-10T13:46:28Z</time>
      </trkpt>
      <trkpt lat="42.69914" lon="1.74214">
        <ele>1638</ele>
        <time>2016-09-10T13:46:31Z</time>
      </trkpt>
      <trkpt lat="42.69914" lon="1.74213">
        <ele>1638</ele>
        <time>2016-09-10T13:46:32Z</time>
      </trkpt>
      <trkpt lat="42.69915" lon="1.74212">
        <ele>1638</ele>
        <time>2016-09-10T13:46:33Z</time>
      </trkpt>
      <trkpt lat="42.69915" lon="1.74211">
        <ele>1637</ele>
        <time>2016-09-10T13:46:34Z</time>
      </trkpt>
      <trkpt lat="42.69915" lon="1.7421">
        <ele>1637</ele>
        <time>2016-09-10T13:46:35Z</time>
      </trkpt>
      <trkpt lat="42.69915" lon="1.74209">
        <ele>1637</ele>
        <time>2016-09-10T13:46:36Z</time>
      </trkpt>
      <trkpt lat="42.69916" lon="1.74207">
        <ele>1636</ele>
        <time>2016-09-10T13:46:37Z</time>
      </trkpt>
      <trkpt lat="42.69919" lon="1.74206">
        <ele>1635</ele>
        <time>2016-09-10T13:46:41Z</time>
      </trkpt>
      <trkpt lat="42.69919" lon="1.74206">
        <ele>1635</ele>
        <time>2016-09-10T13:46:42Z</time>
      </trkpt>
      <trkpt lat="42.69919" lon="1.74205">
        <ele>1635</ele>
        <time>2016-09-10T13:46:43Z</time>
      </trkpt>
      <trkpt lat="42.69919" lon="1.74203">
        <ele>1634</ele>
        <time>2016-09-10T13:46:44Z</time>
      </trkpt>
      <trkpt lat="42.6992" lon="1.74202">
        <ele>1634</ele>
        <time>2016-09-10T13:46:45Z</time>
      </trkpt>
      <trkpt lat="42.69921" lon="1.74201">
        <ele>1633</ele>
        <time>2016-09-10T13:46:46Z</time>
      </trkpt>
      <trkpt lat="42.69924" lon="1.74197">
        <ele>1632</ele>
        <time>2016-09-10T13:46:51Z</time>
      </trkpt>
      <trkpt lat="42.69925" lon="1.74197">
        <ele>1632</ele>
        <time>2016-09-10T13:46:52Z</time>
      </trkpt>
      <trkpt lat="42.69925" lon="1.74196">
        <ele>1631</ele>
        <time>2016-09-10T13:46:53Z</time>
      </trkpt>
      <trkpt lat="42.69925" lon="1.74195">
        <ele>1631</ele>
        <time>2016-09-10T13:46:54Z</time>
      </trkpt>
      <trkpt lat="42.69926" lon="1.74196">
        <ele>1631</ele>
        <time>2016-09-10T13:46:55Z</time>
      </trkpt>
      <trkpt lat="42.69928" lon="1.74196">
        <ele>1631</ele>
        <time>2016-09-10T13:46:57Z</time>
      </trkpt>
      <trkpt lat="42.6993" lon="1.74193">
        <ele>1630</ele>
        <time>2016-09-10T13:47:01Z</time>
      </trkpt>
      <trkpt lat="42.69931" lon="1.74193">
        <ele>1629</ele>
        <time>2016-09-10T13:47:02Z</time>
      </trkpt>
      <trkpt lat="42.69931" lon="1.74192">
        <ele>1629</ele>
        <time>2016-09-10T13:47:03Z</time>
      </trkpt>
      <trkpt lat="42.69932" lon="1.74192">
        <ele>1629</ele>
        <time>2016-09-10T13:47:04Z</time>
      </trkpt>
      <trkpt lat="42.69932" lon="1.74192">
        <ele>1629</ele>
        <time>2016-09-10T13:47:05Z</time>
      </trkpt>
      <trkpt lat="42.69932" lon="1.74188">
        <ele>1627</ele>
        <time>2016-09-10T13:47:08Z</time>
      </trkpt>
      <trkpt lat="42.69932" lon="1.74188">
        <ele>1627</ele>
        <time>2016-09-10T13:47:09Z</time>
      </trkpt>
      <trkpt lat="42.69932" lon="1.74188">
        <ele>1627</ele>
        <time>2016-09-10T13:47:10Z</time>
      </trkpt>
      <trkpt lat="42.69933" lon="1.74187">
        <ele>1627</ele>
        <time>2016-09-10T13:47:11Z</time>
      </trkpt>
      <trkpt lat="42.69933" lon="1.74187">
        <ele>1627</ele>
        <time>2016-09-10T13:47:12Z</time>
      </trkpt>
      <trkpt lat="42.69934" lon="1.74185">
        <ele>1626</ele>
        <time>2016-09-10T13:47:15Z</time>
      </trkpt>
      <trkpt lat="42.69932" lon="1.74181">
        <ele>1625</ele>
        <time>2016-09-10T13:47:19Z</time>
      </trkpt>
      <trkpt lat="42.6993" lon="1.74176">
        <ele>1624</ele>
        <time>2016-09-10T13:47:22Z</time>
      </trkpt>
      <trkpt lat="42.69931" lon="1.74174">
        <ele>1623</ele>
        <time>2016-09-10T13:47:23Z</time>
      </trkpt>
      <trkpt lat="42.69931" lon="1.74173">
        <ele>1623</ele>
        <time>2016-09-10T13:47:24Z</time>
      </trkpt>
      <trkpt lat="42.69931" lon="1.74172">
        <ele>1622</ele>
        <time>2016-09-10T13:47:25Z</time>
      </trkpt>
      <trkpt lat="42.6993" lon="1.7417">
        <ele>1622</ele>
        <time>2016-09-10T13:47:26Z</time>
      </trkpt>
      <trkpt lat="42.6993" lon="1.74169">
        <ele>1621</ele>
        <time>2016-09-10T13:47:27Z</time>
      </trkpt>
      <trkpt lat="42.6993" lon="1.74167">
        <ele>1620</ele>
        <time>2016-09-10T13:47:28Z</time>
      </trkpt>
      <trkpt lat="42.6993" lon="1.74165">
        <ele>1620</ele>
        <time>2016-09-10T13:47:30Z</time>
      </trkpt>
      <trkpt lat="42.69929" lon="1.74163">
        <ele>1619</ele>
        <time>2016-09-10T13:47:33Z</time>
      </trkpt>
      <trkpt lat="42.69928" lon="1.74161">
        <ele>1619</ele>
        <time>2016-09-10T13:47:34Z</time>
      </trkpt>
      <trkpt lat="42.69928" lon="1.74161">
        <ele>1618</ele>
        <time>2016-09-10T13:47:35Z</time>
      </trkpt>
      <trkpt lat="42.69928" lon="1.7416">
        <ele>1618</ele>
        <time>2016-09-10T13:47:36Z</time>
      </trkpt>
      <trkpt lat="42.69928" lon="1.74159">
        <ele>1618</ele>
        <time>2016-09-10T13:47:37Z</time>
      </trkpt>
      <trkpt lat="42.69928" lon="1.74158">
        <ele>1618</ele>
        <time>2016-09-10T13:47:38Z</time>
      </trkpt>
      <trkpt lat="42.69929" lon="1.74155">
        <ele>1616</ele>
        <time>2016-09-10T13:47:44Z</time>
      </trkpt>
      <trkpt lat="42.69928" lon="1.74154">
        <ele>1616</ele>
        <time>2016-09-10T13:47:46Z</time>
      </trkpt>
      <trkpt lat="42.69928" lon="1.74154">
        <ele>1616</ele>
        <time>2016-09-10T13:47:47Z</time>
      </trkpt>
      <trkpt lat="42.69928" lon="1.74153">
        <ele>1616</ele>
        <time>2016-09-10T13:47:48Z</time>
      </trkpt>
      <trkpt lat="42.69928" lon="1.74152">
        <ele>1616</ele>
        <time>2016-09-10T13:47:49Z</time>
      </trkpt>
      <trkpt lat="42.69928" lon="1.74151">
        <ele>1615</ele>
        <time>2016-09-10T13:47:50Z</time>
      </trkpt>
      <trkpt lat="42.69929" lon="1.74151">
        <ele>1615</ele>
        <time>2016-09-10T13:47:55Z</time>
      </trkpt>
      <trkpt lat="42.6993" lon="1.74152">
        <ele>1615</ele>
        <time>2016-09-10T13:47:56Z</time>
      </trkpt>
      <trkpt lat="42.6993" lon="1.74152">
        <ele>1615</ele>
        <time>2016-09-10T13:47:57Z</time>
      </trkpt>
      <trkpt lat="42.69931" lon="1.74151">
        <ele>1615</ele>
        <time>2016-09-10T13:47:58Z</time>
      </trkpt>
      <trkpt lat="42.69932" lon="1.74151">
        <ele>1614</ele>
        <time>2016-09-10T13:47:59Z</time>
      </trkpt>
      <trkpt lat="42.69933" lon="1.74151">
        <ele>1614</ele>
        <time>2016-09-10T13:48:00Z</time>
      </trkpt>
      <trkpt lat="42.69933" lon="1.7415">
        <ele>1614</ele>
        <time>2016-09-10T13:48:01Z</time>
      </trkpt>
      <trkpt lat="42.69935" lon="1.74148">
        <ele>1613</ele>
        <time>2016-09-10T13:48:02Z</time>
      </trkpt>
      <trkpt lat="42.69936" lon="1.74148">
        <ele>1612</ele>
        <time>2016-09-10T13:48:03Z</time>
      </trkpt>
      <trkpt lat="42.69936" lon="1.74148">
        <ele>1612</ele>
        <time>2016-09-10T13:48:04Z</time>
      </trkpt>
      <trkpt lat="42.69936" lon="1.74148">
        <ele>1612</ele>
        <time>2016-09-10T13:48:05Z</time>
      </trkpt>
      <trkpt lat="42.69935" lon="1.74149">
        <ele>1613</ele>
        <time>2016-09-10T13:48:14Z</time>
      </trkpt>
      <trkpt lat="42.69934" lon="1.74148">
        <ele>1613</ele>
        <time>2016-09-10T13:48:15Z</time>
      </trkpt>
      <trkpt lat="42.69934" lon="1.74147">
        <ele>1612</ele>
        <time>2016-09-10T13:48:16Z</time>
      </trkpt>
      <trkpt lat="42.69934" lon="1.74146">
        <ele>1612</ele>
        <time>2016-09-10T13:48:17Z</time>
      </trkpt>
      <trkpt lat="42.69934" lon="1.74144">
        <ele>1611</ele>
        <time>2016-09-10T13:48:18Z</time>
      </trkpt>
      <trkpt lat="42.69933" lon="1.74143">
        <ele>1611</ele>
        <time>2016-09-10T13:48:19Z</time>
      </trkpt>
      <trkpt lat="42.69931" lon="1.74143">
        <ele>1612</ele>
        <time>2016-09-10T13:48:23Z</time>
      </trkpt>
      <trkpt lat="42.69931" lon="1.74142">
        <ele>1611</ele>
        <time>2016-09-10T13:48:24Z</time>
      </trkpt>
      <trkpt lat="42.6993" lon="1.74142">
        <ele>1611</ele>
        <time>2016-09-10T13:48:25Z</time>
      </trkpt>
      <trkpt lat="42.69929" lon="1.74141">
        <ele>1611</ele>
        <time>2016-09-10T13:48:26Z</time>
      </trkpt>
      <trkpt lat="42.69929" lon="1.7414">
        <ele>1611</ele>
        <time>2016-09-10T13:48:27Z</time>
      </trkpt>
      <trkpt lat="42.69929" lon="1.74139">
        <ele>1610</ele>
        <time>2016-09-10T13:48:28Z</time>
      </trkpt>
      <trkpt lat="42.69929" lon="1.74138">
        <ele>1610</ele>
        <time>2016-09-10T13:48:29Z</time>
      </trkpt>
      <trkpt lat="42.69929" lon="1.74137">
        <ele>1610</ele>
        <time>2016-09-10T13:48:30Z</time>
      </trkpt>
      <trkpt lat="42.6993" lon="1.74136">
        <ele>1609</ele>
        <time>2016-09-10T13:48:31Z</time>
      </trkpt>
      <trkpt lat="42.69931" lon="1.74135">
        <ele>1609</ele>
        <time>2016-09-10T13:48:32Z</time>
      </trkpt>
      <trkpt lat="42.69932" lon="1.74135">
        <ele>1608</ele>
        <time>2016-09-10T13:48:33Z</time>
      </trkpt>
      <trkpt lat="42.69936" lon="1.74134">
        <ele>1607</ele>
        <time>2016-09-10T13:48:37Z</time>
      </trkpt>
      <trkpt lat="42.69937" lon="1.74134">
        <ele>1607</ele>
        <time>2016-09-10T13:48:38Z</time>
      </trkpt>
      <trkpt lat="42.69937" lon="1.74134">
        <ele>1607</ele>
        <time>2016-09-10T13:48:39Z</time>
      </trkpt>
      <trkpt lat="42.69937" lon="1.74133">
        <ele>1607</ele>
        <time>2016-09-10T13:48:40Z</time>
      </trkpt>
      <trkpt lat="42.69937" lon="1.74131">
        <ele>1606</ele>
        <time>2016-09-10T13:48:41Z</time>
      </trkpt>
      <trkpt lat="42.69936" lon="1.7413">
        <ele>1606</ele>
        <time>2016-09-10T13:48:43Z</time>
      </trkpt>
      <trkpt lat="42.69934" lon="1.74128">
        <ele>1605</ele>
        <time>2016-09-10T13:48:46Z</time>
      </trkpt>
      <trkpt lat="42.69934" lon="1.74127">
        <ele>1605</ele>
        <time>2016-09-10T13:48:47Z</time>
      </trkpt>
      <trkpt lat="42.69933" lon="1.74126">
        <ele>1605</ele>
        <time>2016-09-10T13:48:48Z</time>
      </trkpt>
      <trkpt lat="42.69932" lon="1.74125">
        <ele>1605</ele>
        <time>2016-09-10T13:48:49Z</time>
      </trkpt>
      <trkpt lat="42.69931" lon="1.74125">
        <ele>1605</ele>
        <time>2016-09-10T13:48:50Z</time>
      </trkpt>
      <trkpt lat="42.69926" lon="1.74122">
        <ele>1605</ele>
        <time>2016-09-10T13:48:54Z</time>
      </trkpt>
      <trkpt lat="42.69924" lon="1.74122">
        <ele>1605</ele>
        <time>2016-09-10T13:48:55Z</time>
      </trkpt>
      <trkpt lat="42.69922" lon="1.7412">
        <ele>1605</ele>
        <time>2016-09-10T13:48:57Z</time>
      </trkpt>
      <trkpt lat="42.69921" lon="1.74119">
        <ele>1605</ele>
        <time>2016-09-10T13:48:58Z</time>
      </trkpt>
      <trkpt lat="42.69921" lon="1.74118">
        <ele>1605</ele>
        <time>2016-09-10T13:48:59Z</time>
      </trkpt>
      <trkpt lat="42.6992" lon="1.74117">
        <ele>1604</ele>
        <time>2016-09-10T13:49:00Z</time>
      </trkpt>
      <trkpt lat="42.6992" lon="1.74115">
        <ele>1604</ele>
        <time>2016-09-10T13:49:01Z</time>
      </trkpt>
      <trkpt lat="42.6992" lon="1.74113">
        <ele>1604</ele>
        <time>2016-09-10T13:49:02Z</time>
      </trkpt>
      <trkpt lat="42.69919" lon="1.74111">
        <ele>1603</ele>
        <time>2016-09-10T13:49:04Z</time>
      </trkpt>
      <trkpt lat="42.69919" lon="1.7411">
        <ele>1603</ele>
        <time>2016-09-10T13:49:05Z</time>
      </trkpt>
      <trkpt lat="42.69919" lon="1.74109">
        <ele>1603</ele>
        <time>2016-09-10T13:49:06Z</time>
      </trkpt>
      <trkpt lat="42.6992" lon="1.74108">
        <ele>1602</ele>
        <time>2016-09-10T13:49:07Z</time>
      </trkpt>
      <trkpt lat="42.6992" lon="1.74107">
        <ele>1602</ele>
        <time>2016-09-10T13:49:08Z</time>
      </trkpt>
      <trkpt lat="42.6992" lon="1.74106">
        <ele>1602</ele>
        <time>2016-09-10T13:49:09Z</time>
      </trkpt>
      <trkpt lat="42.69919" lon="1.74106">
        <ele>1602</ele>
        <time>2016-09-10T13:49:11Z</time>
      </trkpt>
      <trkpt lat="42.69919" lon="1.74106">
        <ele>1602</ele>
        <time>2016-09-10T13:49:12Z</time>
      </trkpt>
      <trkpt lat="42.69919" lon="1.74106">
        <ele>1602</ele>
        <time>2016-09-10T13:49:13Z</time>
      </trkpt>
      <trkpt lat="42.69919" lon="1.74105">
        <ele>1602</ele>
        <time>2016-09-10T13:49:14Z</time>
      </trkpt>
      <trkpt lat="42.69918" lon="1.74105">
        <ele>1602</ele>
        <time>2016-09-10T13:49:15Z</time>
      </trkpt>
      <trkpt lat="42.69919" lon="1.74102">
        <ele>1600</ele>
        <time>2016-09-10T13:49:18Z</time>
      </trkpt>
      <trkpt lat="42.6992" lon="1.741">
        <ele>1600</ele>
        <time>2016-09-10T13:49:21Z</time>
      </trkpt>
      <trkpt lat="42.6992" lon="1.74099">
        <ele>1600</ele>
        <time>2016-09-10T13:49:22Z</time>
      </trkpt>
      <trkpt lat="42.6992" lon="1.74098">
        <ele>1600</ele>
        <time>2016-09-10T13:49:23Z</time>
      </trkpt>
      <trkpt lat="42.69919" lon="1.74098">
        <ele>1599</ele>
        <time>2016-09-10T13:49:24Z</time>
      </trkpt>
      <trkpt lat="42.69919" lon="1.74097">
        <ele>1599</ele>
        <time>2016-09-10T13:49:25Z</time>
      </trkpt>
      <trkpt lat="42.69919" lon="1.74095">
        <ele>1599</ele>
        <time>2016-09-10T13:49:26Z</time>
      </trkpt>
      <trkpt lat="42.69917" lon="1.74092">
        <ele>1598</ele>
        <time>2016-09-10T13:49:30Z</time>
      </trkpt>
      <trkpt lat="42.69917" lon="1.74091">
        <ele>1598</ele>
        <time>2016-09-10T13:49:31Z</time>
      </trkpt>
      <trkpt lat="42.69917" lon="1.7409">
        <ele>1598</ele>
        <time>2016-09-10T13:49:32Z</time>
      </trkpt>
      <trkpt lat="42.69917" lon="1.7409">
        <ele>1598</ele>
        <time>2016-09-10T13:49:33Z</time>
      </trkpt>
      <trkpt lat="42.69917" lon="1.7409">
        <ele>1598</ele>
        <time>2016-09-10T13:49:34Z</time>
      </trkpt>
      <trkpt lat="42.69918" lon="1.74085">
        <ele>1596</ele>
        <time>2016-09-10T13:49:39Z</time>
      </trkpt>
      <trkpt lat="42.69918" lon="1.74083">
        <ele>1596</ele>
        <time>2016-09-10T13:49:40Z</time>
      </trkpt>
      <trkpt lat="42.69917" lon="1.7408">
        <ele>1595</ele>
        <time>2016-09-10T13:49:43Z</time>
      </trkpt>
      <trkpt lat="42.69916" lon="1.7408">
        <ele>1595</ele>
        <time>2016-09-10T13:49:44Z</time>
      </trkpt>
      <trkpt lat="42.69916" lon="1.7408">
        <ele>1595</ele>
        <time>2016-09-10T13:49:45Z</time>
      </trkpt>
      <trkpt lat="42.69915" lon="1.7408">
        <ele>1595</ele>
        <time>2016-09-10T13:49:46Z</time>
      </trkpt>
      <trkpt lat="42.69915" lon="1.7408">
        <ele>1595</ele>
        <time>2016-09-10T13:49:47Z</time>
      </trkpt>
      <trkpt lat="42.69915" lon="1.7408">
        <ele>1595</ele>
        <time>2016-09-10T13:49:48Z</time>
      </trkpt>
      <trkpt lat="42.69915" lon="1.7408">
        <ele>1595</ele>
        <time>2016-09-10T13:49:50Z</time>
      </trkpt>
      <trkpt lat="42.69918" lon="1.74078">
        <ele>1594</ele>
        <time>2016-09-10T13:49:56Z</time>
      </trkpt>
      <trkpt lat="42.69919" lon="1.74078">
        <ele>1594</ele>
        <time>2016-09-10T13:49:57Z</time>
      </trkpt>
      <trkpt lat="42.69925" lon="1.74075">
        <ele>1593</ele>
        <time>2016-09-10T13:50:01Z</time>
      </trkpt>
      <trkpt lat="42.69932" lon="1.74073">
        <ele>1591</ele>
        <time>2016-09-10T13:50:08Z</time>
      </trkpt>
      <trkpt lat="42.69932" lon="1.74073">
        <ele>1591</ele>
        <time>2016-09-10T13:50:11Z</time>
      </trkpt>
      <trkpt lat="42.69932" lon="1.74073">
        <ele>1591</ele>
        <time>2016-09-10T13:50:12Z</time>
      </trkpt>
      <trkpt lat="42.69932" lon="1.74073">
        <ele>1591</ele>
        <time>2016-09-10T13:50:13Z</time>
      </trkpt>
      <trkpt lat="42.69932" lon="1.74074">
        <ele>1591</ele>
        <time>2016-09-10T13:50:14Z</time>
      </trkpt>
      <trkpt lat="42.69933" lon="1.74074">
        <ele>1591</ele>
        <time>2016-09-10T13:50:15Z</time>
      </trkpt>
      <trkpt lat="42.69934" lon="1.74068">
        <ele>1590</ele>
        <time>2016-09-10T13:50:21Z</time>
      </trkpt>
      <trkpt lat="42.69932" lon="1.74063">
        <ele>1589</ele>
        <time>2016-09-10T13:50:26Z</time>
      </trkpt>
      <trkpt lat="42.69932" lon="1.74062">
        <ele>1588</ele>
        <time>2016-09-10T13:50:33Z</time>
      </trkpt>
      <trkpt lat="42.69933" lon="1.74068">
        <ele>1590</ele>
        <time>2016-09-10T13:50:41Z</time>
      </trkpt>
      <trkpt lat="42.69931" lon="1.74076">
        <ele>1592</ele>
        <time>2016-09-10T13:50:50Z</time>
      </trkpt>
      <trkpt lat="42.6993" lon="1.74076">
        <ele>1592</ele>
        <time>2016-09-10T13:50:59Z</time>
      </trkpt>
      <trkpt lat="42.6993" lon="1.74071">
        <ele>1591</ele>
        <time>2016-09-10T13:51:08Z</time>
      </trkpt>
      <trkpt lat="42.69929" lon="1.74058">
        <ele>1588</ele>
        <time>2016-09-10T13:51:17Z</time>
      </trkpt>
      <trkpt lat="42.6993" lon="1.74055">
        <ele>1587</ele>
        <time>2016-09-10T13:51:28Z</time>
      </trkpt>
      <trkpt lat="42.6993" lon="1.74057">
        <ele>1587</ele>
        <time>2016-09-10T13:51:33Z</time>
      </trkpt>
      <trkpt lat="42.69927" lon="1.74058">
        <ele>1588</ele>
        <time>2016-09-10T13:51:38Z</time>
      </trkpt>
      <trkpt lat="42.69927" lon="1.74059">
        <ele>1588</ele>
        <time>2016-09-10T13:51:43Z</time>
      </trkpt>
      <trkpt lat="42.69927" lon="1.74061">
        <ele>1588</ele>
        <time>2016-09-10T13:51:44Z</time>
      </trkpt>
      <trkpt lat="42.69928" lon="1.74062">
        <ele>1589</ele>
        <time>2016-09-10T13:51:45Z</time>
      </trkpt>
      <trkpt lat="42.69928" lon="1.74064">
        <ele>1589</ele>
        <time>2016-09-10T13:51:46Z</time>
      </trkpt>
      <trkpt lat="42.69928" lon="1.74065">
        <ele>1589</ele>
        <time>2016-09-10T13:51:47Z</time>
      </trkpt>
      <trkpt lat="42.69928" lon="1.74065">
        <ele>1589</ele>
        <time>2016-09-10T13:51:48Z</time>
      </trkpt>
      <trkpt lat="42.69928" lon="1.74065">
        <ele>1589</ele>
        <time>2016-09-10T13:51:49Z</time>
      </trkpt>
      <trkpt lat="42.69928" lon="1.74065">
        <ele>1589</ele>
        <time>2016-09-10T13:51:51Z</time>
      </trkpt>
      <trkpt lat="42.69928" lon="1.74065">
        <ele>1589</ele>
        <time>2016-09-10T13:52:04Z</time>
      </trkpt>
      <trkpt lat="42.69928" lon="1.74065">
        <ele>1589</ele>
        <time>2016-09-10T13:52:15Z</time>
      </trkpt>
      <trkpt lat="42.69928" lon="1.74065">
        <ele>1589</ele>
        <time>2016-09-10T13:52:25Z</time>
      </trkpt>
      <trkpt lat="42.69926" lon="1.74068">
        <ele>1591</ele>
        <time>2016-09-10T13:52:31Z</time>
      </trkpt>
      <trkpt lat="42.69921" lon="1.74072">
        <ele>1592</ele>
        <time>2016-09-10T13:52:36Z</time>
      </trkpt>
      <trkpt lat="42.69919" lon="1.74074">
        <ele>1593</ele>
        <time>2016-09-10T13:52:39Z</time>
      </trkpt>
      <trkpt lat="42.69919" lon="1.74074">
        <ele>1593</ele>
        <time>2016-09-10T13:52:40Z</time>
      </trkpt>
      <trkpt lat="42.69919" lon="1.74074">
        <ele>1593</ele>
        <time>2016-09-10T13:52:41Z</time>
      </trkpt>
      <trkpt lat="42.69919" lon="1.74074">
        <ele>1593</ele>
        <time>2016-09-10T13:52:42Z</time>
      </trkpt>
      <trkpt lat="42.69919" lon="1.74074">
        <ele>1593</ele>
        <time>2016-09-10T13:52:43Z</time>
      </trkpt>
      <trkpt lat="42.69919" lon="1.74074">
        <ele>1593</ele>
        <time>2016-09-10T13:52:44Z</time>
      </trkpt>
      <trkpt lat="42.69919" lon="1.74074">
        <ele>1593</ele>
        <time>2016-09-10T13:52:45Z</time>
      </trkpt>
      <trkpt lat="42.69919" lon="1.74074">
        <ele>1593</ele>
        <time>2016-09-10T13:52:46Z</time>
      </trkpt>
      <trkpt lat="42.69919" lon="1.74074">
        <ele>1593</ele>
        <time>2016-09-10T13:52:47Z</time>
      </trkpt>
      <trkpt lat="42.69919" lon="1.74074">
        <ele>1593</ele>
        <time>2016-09-10T13:52:51Z</time>
      </trkpt>
      <trkpt lat="42.69919" lon="1.74074">
        <ele>1593</ele>
        <time>2016-09-10T13:52:52Z</time>
      </trkpt>
      <trkpt lat="42.69919" lon="1.74074">
        <ele>1593</ele>
        <time>2016-09-10T13:52:53Z</time>
      </trkpt>
      <trkpt lat="42.69919" lon="1.74074">
        <ele>1593</ele>
        <time>2016-09-10T13:52:54Z</time>
      </trkpt>
      <trkpt lat="42.69919" lon="1.74074">
        <ele>1593</ele>
        <time>2016-09-10T13:52:55Z</time>
      </trkpt>
      <trkpt lat="42.69919" lon="1.74074">
        <ele>1593</ele>
        <time>2016-09-10T13:52:56Z</time>
      </trkpt>
      <trkpt lat="42.69919" lon="1.74074">
        <ele>1593</ele>
        <time>2016-09-10T13:52:57Z</time>
      </trkpt>
      <trkpt lat="42.69919" lon="1.74074">
        <ele>1593</ele>
        <time>2016-09-10T13:52:58Z</time>
      </trkpt>
      <trkpt lat="42.69919" lon="1.74074">
        <ele>1593</ele>
        <time>2016-09-10T13:53:01Z</time>
      </trkpt>
      <trkpt lat="42.69919" lon="1.74074">
        <ele>1593</ele>
        <time>2016-09-10T13:53:02Z</time>
      </trkpt>
      <trkpt lat="42.69919" lon="1.74074">
        <ele>1593</ele>
        <time>2016-09-10T13:53:03Z</time>
      </trkpt>
      <trkpt lat="42.69919" lon="1.74074">
        <ele>1593</ele>
        <time>2016-09-10T13:53:04Z</time>
      </trkpt>
      <trkpt lat="42.69919" lon="1.74074">
        <ele>1593</ele>
        <time>2016-09-10T13:53:05Z</time>
      </trkpt>
      <trkpt lat="42.69919" lon="1.74074">
        <ele>1593</ele>
        <time>2016-09-10T13:53:06Z</time>
      </trkpt>
      <trkpt lat="42.69919" lon="1.74074">
        <ele>1593</ele>
        <time>2016-09-10T13:53:07Z</time>
      </trkpt>
      <trkpt lat="42.69919" lon="1.74074">
        <ele>1593</ele>
        <time>2016-09-10T13:53:08Z</time>
      </trkpt>
      <trkpt lat="42.69919" lon="1.74074">
        <ele>1593</ele>
        <time>2016-09-10T13:53:21Z</time>
      </trkpt>
      <trkpt lat="42.69919" lon="1.74074">
        <ele>1593</ele>
        <time>2016-09-10T13:53:22Z</time>
      </trkpt>
      <trkpt lat="42.69919" lon="1.74074">
        <ele>1593</ele>
        <time>2016-09-10T13:53:23Z</time>
      </trkpt>
      <trkpt lat="42.69919" lon="1.74074">
        <ele>1593</ele>
        <time>2016-09-10T13:53:24Z</time>
      </trkpt>
      <trkpt lat="42.69919" lon="1.74074">
        <ele>1593</ele>
        <time>2016-09-10T13:53:25Z</time>
      </trkpt>
      <trkpt lat="42.69919" lon="1.74074">
        <ele>1593</ele>
        <time>2016-09-10T13:53:26Z</time>
      </trkpt>
      <trkpt lat="42.69919" lon="1.74074">
        <ele>1593</ele>
        <time>2016-09-10T13:53:27Z</time>
      </trkpt>
      <trkpt lat="42.69919" lon="1.74073">
        <ele>1593</ele>
        <time>2016-09-10T13:53:33Z</time>
      </trkpt>
      <trkpt lat="42.69921" lon="1.74072">
        <ele>1592</ele>
        <time>2016-09-10T13:53:34Z</time>
      </trkpt>
      <trkpt lat="42.69923" lon="1.74071">
        <ele>1592</ele>
        <time>2016-09-10T13:53:37Z</time>
      </trkpt>
      <trkpt lat="42.69924" lon="1.74069">
        <ele>1591</ele>
        <time>2016-09-10T13:53:39Z</time>
      </trkpt>
      <trkpt lat="42.69927" lon="1.74066">
        <ele>1590</ele>
        <time>2016-09-10T13:53:42Z</time>
      </trkpt>
      <trkpt lat="42.69927" lon="1.74066">
        <ele>1590</ele>
        <time>2016-09-10T13:53:49Z</time>
      </trkpt>
      <trkpt lat="42.69927" lon="1.74066">
        <ele>1590</ele>
        <time>2016-09-10T13:53:58Z</time>
      </trkpt>
      <trkpt lat="42.69927" lon="1.74066">
        <ele>1590</ele>
        <time>2016-09-10T13:54:11Z</time>
      </trkpt>
      <trkpt lat="42.69927" lon="1.74066">
        <ele>1590</ele>
        <time>2016-09-10T13:54:24Z</time>
      </trkpt>
      <trkpt lat="42.69927" lon="1.74066">
        <ele>1590</ele>
        <time>2016-09-10T13:54:39Z</time>
      </trkpt>
      <trkpt lat="42.69927" lon="1.74066">
        <ele>1590</ele>
        <time>2016-09-10T13:54:54Z</time>
      </trkpt>
      <trkpt lat="42.69927" lon="1.74066">
        <ele>1590</ele>
        <time>2016-09-10T13:55:06Z</time>
      </trkpt>
      <trkpt lat="42.69927" lon="1.74066">
        <ele>1590</ele>
        <time>2016-09-10T13:55:23Z</time>
      </trkpt>
      <trkpt lat="42.69927" lon="1.74066">
        <ele>1590</ele>
        <time>2016-09-10T13:55:34Z</time>
      </trkpt>
      <trkpt lat="42.69927" lon="1.74065">
        <ele>1590</ele>
        <time>2016-09-10T13:55:46Z</time>
      </trkpt>
      <trkpt lat="42.69927" lon="1.74065">
        <ele>1590</ele>
        <time>2016-09-10T13:55:58Z</time>
      </trkpt>
      <trkpt lat="42.69927" lon="1.74065">
        <ele>1590</ele>
        <time>2016-09-10T13:56:10Z</time>
      </trkpt>
      <trkpt lat="42.69927" lon="1.74065">
        <ele>1590</ele>
        <time>2016-09-10T13:56:15Z</time>
      </trkpt>
      <trkpt lat="42.69927" lon="1.74065">
        <ele>1590</ele>
        <time>2016-09-10T13:56:16Z</time>
      </trkpt>
      <trkpt lat="42.69927" lon="1.74065">
        <ele>1590</ele>
        <time>2016-09-10T13:56:17Z</time>
      </trkpt>
      <trkpt lat="42.69927" lon="1.74065">
        <ele>1590</ele>
        <time>2016-09-10T13:56:18Z</time>
      </trkpt>
      <trkpt lat="42.69927" lon="1.74065">
        <ele>1590</ele>
        <time>2016-09-10T13:56:19Z</time>
      </trkpt>
      <trkpt lat="42.69927" lon="1.74065">
        <ele>1590</ele>
        <time>2016-09-10T13:56:25Z</time>
      </trkpt>
      <trkpt lat="42.69927" lon="1.74065">
        <ele>1590</ele>
        <time>2016-09-10T13:56:26Z</time>
      </trkpt>
      <trkpt lat="42.69927" lon="1.74065">
        <ele>1590</ele>
        <time>2016-09-10T13:56:27Z</time>
      </trkpt>
      <trkpt lat="42.69927" lon="1.74065">
        <ele>1590</ele>
        <time>2016-09-10T13:56:28Z</time>
      </trkpt>
      <trkpt lat="42.69927" lon="1.74065">
        <ele>1590</ele>
        <time>2016-09-10T13:56:29Z</time>
      </trkpt>
      <trkpt lat="42.69927" lon="1.74065">
        <ele>1590</ele>
        <time>2016-09-10T13:56:30Z</time>
      </trkpt>
      <trkpt lat="42.69927" lon="1.74065">
        <ele>1590</ele>
        <time>2016-09-10T13:56:31Z</time>
      </trkpt>
      <trkpt lat="42.69927" lon="1.74065">
        <ele>1590</ele>
        <time>2016-09-10T13:56:32Z</time>
      </trkpt>
      <trkpt lat="42.69927" lon="1.74065">
        <ele>1590</ele>
        <time>2016-09-10T13:56:44Z</time>
      </trkpt>
      <trkpt lat="42.69927" lon="1.74065">
        <ele>1590</ele>
        <time>2016-09-10T13:57:00Z</time>
      </trkpt>
      <trkpt lat="42.69927" lon="1.74065">
        <ele>1590</ele>
        <time>2016-09-10T13:57:10Z</time>
      </trkpt>
      <trkpt lat="42.69927" lon="1.74065">
        <ele>1590</ele>
        <time>2016-09-10T13:57:16Z</time>
      </trkpt>
      <trkpt lat="42.69927" lon="1.74065">
        <ele>1590</ele>
        <time>2016-09-10T13:57:17Z</time>
      </trkpt>
      <trkpt lat="42.69927" lon="1.74065">
        <ele>1590</ele>
        <time>2016-09-10T13:57:18Z</time>
      </trkpt>
      <trkpt lat="42.69927" lon="1.74065">
        <ele>1590</ele>
        <time>2016-09-10T13:57:19Z</time>
      </trkpt>
      <trkpt lat="42.69927" lon="1.74065">
        <ele>1590</ele>
        <time>2016-09-10T13:57:20Z</time>
      </trkpt>
      <trkpt lat="42.69927" lon="1.74065">
        <ele>1590</ele>
        <time>2016-09-10T13:57:21Z</time>
      </trkpt>
      <trkpt lat="42.69927" lon="1.74065">
        <ele>1590</ele>
        <time>2016-09-10T13:57:22Z</time>
      </trkpt>
      <trkpt lat="42.69927" lon="1.74065">
        <ele>1590</ele>
        <time>2016-09-10T13:57:23Z</time>
      </trkpt>
      <trkpt lat="42.69927" lon="1.74065">
        <ele>1590</ele>
        <time>2016-09-10T13:57:24Z</time>
      </trkpt>
      <trkpt lat="42.69927" lon="1.74065">
        <ele>1590</ele>
        <time>2016-09-10T13:57:25Z</time>
      </trkpt>
      <trkpt lat="42.69927" lon="1.74065">
        <ele>1590</ele>
        <time>2016-09-10T13:57:26Z</time>
      </trkpt>
      <trkpt lat="42.69927" lon="1.74065">
        <ele>1590</ele>
        <time>2016-09-10T13:57:27Z</time>
      </trkpt>
      <trkpt lat="42.69927" lon="1.74065">
        <ele>1590</ele>
        <time>2016-09-10T13:57:31Z</time>
      </trkpt>
      <trkpt lat="42.69927" lon="1.74065">
        <ele>1590</ele>
        <time>2016-09-10T13:57:32Z</time>
      </trkpt>
      <trkpt lat="42.69927" lon="1.74066">
        <ele>1590</ele>
        <time>2016-09-10T13:57:33Z</time>
      </trkpt>
      <trkpt lat="42.69927" lon="1.74066">
        <ele>1590</ele>
        <time>2016-09-10T13:57:34Z</time>
      </trkpt>
      <trkpt lat="42.69927" lon="1.74066">
        <ele>1590</ele>
        <time>2016-09-10T13:57:35Z</time>
      </trkpt>
      <trkpt lat="42.69927" lon="1.74066">
        <ele>1590</ele>
        <time>2016-09-10T13:57:36Z</time>
      </trkpt>
      <trkpt lat="42.69927" lon="1.74066">
        <ele>1590</ele>
        <time>2016-09-10T13:57:37Z</time>
      </trkpt>
      <trkpt lat="42.69927" lon="1.74066">
        <ele>1590</ele>
        <time>2016-09-10T13:57:38Z</time>
      </trkpt>
      <trkpt lat="42.69927" lon="1.74066">
        <ele>1590</ele>
        <time>2016-09-10T13:57:39Z</time>
      </trkpt>
      <trkpt lat="42.69927" lon="1.74066">
        <ele>1590</ele>
        <time>2016-09-10T13:57:41Z</time>
      </trkpt>
      <trkpt lat="42.69927" lon="1.74066">
        <ele>1590</ele>
        <time>2016-09-10T13:57:48Z</time>
      </trkpt>
      <trkpt lat="42.69927" lon="1.74068">
        <ele>1590</ele>
        <time>2016-09-10T13:57:55Z</time>
      </trkpt>
      <trkpt lat="42.69929" lon="1.74071">
        <ele>1591</ele>
        <time>2016-09-10T13:58:03Z</time>
      </trkpt>
      <trkpt lat="42.69929" lon="1.74071">
        <ele>1591</ele>
        <time>2016-09-10T13:58:14Z</time>
      </trkpt>
      <trkpt lat="42.69929" lon="1.74072">
        <ele>1591</ele>
        <time>2016-09-10T13:58:22Z</time>
      </trkpt>
      <trkpt lat="42.69929" lon="1.74072">
        <ele>1591</ele>
        <time>2016-09-10T13:58:30Z</time>
      </trkpt>
      <trkpt lat="42.69929" lon="1.74073">
        <ele>1591</ele>
        <time>2016-09-10T13:58:40Z</time>
      </trkpt>
      <trkpt lat="42.6993" lon="1.74073">
        <ele>1591</ele>
        <time>2016-09-10T13:58:49Z</time>
      </trkpt>
      <trkpt lat="42.69934" lon="1.74067">
        <ele>1589</ele>
        <time>2016-09-10T13:58:56Z</time>
      </trkpt>
      <trkpt lat="42.69935" lon="1.74065">
        <ele>1589</ele>
        <time>2016-09-10T13:59:00Z</time>
      </trkpt>
      <trkpt lat="42.69935" lon="1.74064">
        <ele>1589</ele>
        <time>2016-09-10T13:59:01Z</time>
      </trkpt>
      <trkpt lat="42.69936" lon="1.74063">
        <ele>1588</ele>
        <time>2016-09-10T13:59:02Z</time>
      </trkpt>
      <trkpt lat="42.69936" lon="1.74061">
        <ele>1588</ele>
        <time>2016-09-10T13:59:03Z</time>
      </trkpt>
      <trkpt lat="42.69937" lon="1.7406">
        <ele>1587</ele>
        <time>2016-09-10T13:59:04Z</time>
      </trkpt>
      <trkpt lat="42.69938" lon="1.74057">
        <ele>1587</ele>
        <time>2016-09-10T13:59:07Z</time>
      </trkpt>
      <trkpt lat="42.6994" lon="1.74056">
        <ele>1586</ele>
        <time>2016-09-10T13:59:08Z</time>
      </trkpt>
      <trkpt lat="42.69941" lon="1.74056">
        <ele>1586</ele>
        <time>2016-09-10T13:59:12Z</time>
      </trkpt>
      <trkpt lat="42.69941" lon="1.74056">
        <ele>1586</ele>
        <time>2016-09-10T13:59:13Z</time>
      </trkpt>
      <trkpt lat="42.69942" lon="1.74056">
        <ele>1586</ele>
        <time>2016-09-10T13:59:14Z</time>
      </trkpt>
      <trkpt lat="42.69942" lon="1.74056">
        <ele>1586</ele>
        <time>2016-09-10T13:59:15Z</time>
      </trkpt>
      <trkpt lat="42.69942" lon="1.74056">
        <ele>1586</ele>
        <time>2016-09-10T13:59:16Z</time>
      </trkpt>
      <trkpt lat="42.69942" lon="1.74056">
        <ele>1586</ele>
        <time>2016-09-10T13:59:17Z</time>
      </trkpt>
      <trkpt lat="42.69942" lon="1.74056">
        <ele>1586</ele>
        <time>2016-09-10T13:59:18Z</time>
      </trkpt>
      <trkpt lat="42.69942" lon="1.74056">
        <ele>1586</ele>
        <time>2016-09-10T13:59:30Z</time>
      </trkpt>
      <trkpt lat="42.69942" lon="1.74056">
        <ele>1586</ele>
        <time>2016-09-10T13:59:42Z</time>
      </trkpt>
      <trkpt lat="42.69942" lon="1.74056">
        <ele>1586</ele>
        <time>2016-09-10T13:59:44Z</time>
      </trkpt>
      <trkpt lat="42.69942" lon="1.74056">
        <ele>1586</ele>
        <time>2016-09-10T13:59:45Z</time>
      </trkpt>
      <trkpt lat="42.69941" lon="1.74056">
        <ele>1586</ele>
        <time>2016-09-10T13:59:46Z</time>
      </trkpt>
      <trkpt lat="42.69941" lon="1.74056">
        <ele>1586</ele>
        <time>2016-09-10T13:59:47Z</time>
      </trkpt>
      <trkpt lat="42.69941" lon="1.74056">
        <ele>1586</ele>
        <time>2016-09-10T13:59:48Z</time>
      </trkpt>
      <trkpt lat="42.69941" lon="1.74056">
        <ele>1586</ele>
        <time>2016-09-10T13:59:49Z</time>
      </trkpt>
      <trkpt lat="42.69941" lon="1.74056">
        <ele>1586</ele>
        <time>2016-09-10T13:59:50Z</time>
      </trkpt>
      <trkpt lat="42.69941" lon="1.74056">
        <ele>1586</ele>
        <time>2016-09-10T13:59:51Z</time>
      </trkpt>
      <trkpt lat="42.69941" lon="1.74056">
        <ele>1586</ele>
        <time>2016-09-10T13:59:52Z</time>
      </trkpt>
      <trkpt lat="42.69941" lon="1.74057">
        <ele>1586</ele>
        <time>2016-09-10T13:59:53Z</time>
      </trkpt>
      <trkpt lat="42.69941" lon="1.74058">
        <ele>1587</ele>
        <time>2016-09-10T13:59:54Z</time>
      </trkpt>
      <trkpt lat="42.69941" lon="1.74059">
        <ele>1587</ele>
        <time>2016-09-10T13:59:55Z</time>
      </trkpt>
      <trkpt lat="42.69941" lon="1.74061">
        <ele>1587</ele>
        <time>2016-09-10T13:59:56Z</time>
      </trkpt>
      <trkpt lat="42.69941" lon="1.74062">
        <ele>1588</ele>
        <time>2016-09-10T13:59:57Z</time>
      </trkpt>
      <trkpt lat="42.69941" lon="1.74064">
        <ele>1588</ele>
        <time>2016-09-10T13:59:58Z</time>
      </trkpt>
      <trkpt lat="42.69943" lon="1.74066">
        <ele>1588</ele>
        <time>2016-09-10T14:00:03Z</time>
      </trkpt>
      <trkpt lat="42.69947" lon="1.74065">
        <ele>1588</ele>
        <time>2016-09-10T14:00:10Z</time>
      </trkpt>
      <trkpt lat="42.69946" lon="1.7406">
        <ele>1587</ele>
        <time>2016-09-10T14:00:16Z</time>
      </trkpt>
      <trkpt lat="42.69947" lon="1.74058">
        <ele>1586</ele>
        <time>2016-09-10T14:00:22Z</time>
      </trkpt>
      <trkpt lat="42.69947" lon="1.74058">
        <ele>1586</ele>
        <time>2016-09-10T14:00:25Z</time>
      </trkpt>
      <trkpt lat="42.69947" lon="1.74058">
        <ele>1586</ele>
        <time>2016-09-10T14:00:26Z</time>
      </trkpt>
      <trkpt lat="42.69947" lon="1.74058">
        <ele>1586</ele>
        <time>2016-09-10T14:00:27Z</time>
      </trkpt>
      <trkpt lat="42.69947" lon="1.74058">
        <ele>1586</ele>
        <time>2016-09-10T14:00:28Z</time>
      </trkpt>
      <trkpt lat="42.69947" lon="1.74057">
        <ele>1586</ele>
        <time>2016-09-10T14:00:29Z</time>
      </trkpt>
      <trkpt lat="42.69947" lon="1.74053">
        <ele>1585</ele>
        <time>2016-09-10T14:00:35Z</time>
      </trkpt>
      <trkpt lat="42.69946" lon="1.74051">
        <ele>1585</ele>
        <time>2016-09-10T14:00:36Z</time>
      </trkpt>
      <trkpt lat="42.69941" lon="1.74044">
        <ele>1584</ele>
        <time>2016-09-10T14:00:42Z</time>
      </trkpt>
      <trkpt lat="42.69941" lon="1.74037">
        <ele>1582</ele>
        <time>2016-09-10T14:00:48Z</time>
      </trkpt>
      <trkpt lat="42.69941" lon="1.74035">
        <ele>1582</ele>
        <time>2016-09-10T14:00:49Z</time>
      </trkpt>
      <trkpt lat="42.69941" lon="1.74034">
        <ele>1581</ele>
        <time>2016-09-10T14:00:50Z</time>
      </trkpt>
      <trkpt lat="42.69942" lon="1.74032">
        <ele>1581</ele>
        <time>2016-09-10T14:00:51Z</time>
      </trkpt>
      <trkpt lat="42.69941" lon="1.7403">
        <ele>1581</ele>
        <time>2016-09-10T14:00:52Z</time>
      </trkpt>
      <trkpt lat="42.69941" lon="1.74029">
        <ele>1581</ele>
        <time>2016-09-10T14:00:54Z</time>
      </trkpt>
      <trkpt lat="42.69942" lon="1.74024">
        <ele>1579</ele>
        <time>2016-09-10T14:00:59Z</time>
      </trkpt>
      <trkpt lat="42.69943" lon="1.74023">
        <ele>1579</ele>
        <time>2016-09-10T14:01:00Z</time>
      </trkpt>
      <trkpt lat="42.69944" lon="1.74021">
        <ele>1579</ele>
        <time>2016-09-10T14:01:04Z</time>
      </trkpt>
      <trkpt lat="42.69944" lon="1.7402">
        <ele>1578</ele>
        <time>2016-09-10T14:01:10Z</time>
      </trkpt>
      <trkpt lat="42.69944" lon="1.7402">
        <ele>1578</ele>
        <time>2016-09-10T14:01:11Z</time>
      </trkpt>
      <trkpt lat="42.69944" lon="1.7402">
        <ele>1578</ele>
        <time>2016-09-10T14:01:12Z</time>
      </trkpt>
      <trkpt lat="42.69944" lon="1.7402">
        <ele>1578</ele>
        <time>2016-09-10T14:01:13Z</time>
      </trkpt>
      <trkpt lat="42.69944" lon="1.7402">
        <ele>1578</ele>
        <time>2016-09-10T14:01:14Z</time>
      </trkpt>
      <trkpt lat="42.69944" lon="1.7402">
        <ele>1578</ele>
        <time>2016-09-10T14:01:23Z</time>
      </trkpt>
      <trkpt lat="42.69944" lon="1.7402">
        <ele>1578</ele>
        <time>2016-09-10T14:01:35Z</time>
      </trkpt>
      <trkpt lat="42.69944" lon="1.7402">
        <ele>1578</ele>
        <time>2016-09-10T14:01:47Z</time>
      </trkpt>
      <trkpt lat="42.69944" lon="1.7402">
        <ele>1578</ele>
        <time>2016-09-10T14:01:57Z</time>
      </trkpt>
      <trkpt lat="42.69944" lon="1.7402">
        <ele>1578</ele>
        <time>2016-09-10T14:02:08Z</time>
      </trkpt>
      <trkpt lat="42.69944" lon="1.7402">
        <ele>1578</ele>
        <time>2016-09-10T14:02:21Z</time>
      </trkpt>
      <trkpt lat="42.69944" lon="1.7402">
        <ele>1578</ele>
        <time>2016-09-10T14:02:33Z</time>
      </trkpt>
      <trkpt lat="42.69944" lon="1.7402">
        <ele>1578</ele>
        <time>2016-09-10T14:02:45Z</time>
      </trkpt>
      <trkpt lat="42.69944" lon="1.7402">
        <ele>1578</ele>
        <time>2016-09-10T14:02:59Z</time>
      </trkpt>
      <trkpt lat="42.69944" lon="1.7402">
        <ele>1578</ele>
        <time>2016-09-10T14:03:13Z</time>
      </trkpt>
      <trkpt lat="42.69945" lon="1.74021">
        <ele>1578</ele>
        <time>2016-09-10T14:03:24Z</time>
      </trkpt>
      <trkpt lat="42.6995" lon="1.74026">
        <ele>1579</ele>
        <time>2016-09-10T14:03:30Z</time>
      </trkpt>
      <trkpt lat="42.69953" lon="1.74028">
        <ele>1579</ele>
        <time>2016-09-10T14:03:32Z</time>
      </trkpt>
      <trkpt lat="42.69964" lon="1.7403">
        <ele>1579</ele>
        <time>2016-09-10T14:03:44Z</time>
      </trkpt>
      <trkpt lat="42.69975" lon="1.74034">
        <ele>1579</ele>
        <time>2016-09-10T14:03:53Z</time>
      </trkpt>
      <trkpt lat="42.69976" lon="1.74035">
        <ele>1579</ele>
        <time>2016-09-10T14:03:54Z</time>
      </trkpt>
      <trkpt lat="42.69977" lon="1.74035">
        <ele>1579</ele>
        <time>2016-09-10T14:03:55Z</time>
      </trkpt>
      <trkpt lat="42.69978" lon="1.74034">
        <ele>1579</ele>
        <time>2016-09-10T14:03:56Z</time>
      </trkpt>
      <trkpt lat="42.69976" lon="1.74034">
        <ele>1579</ele>
        <time>2016-09-10T14:03:57Z</time>
      </trkpt>
      <trkpt lat="42.69975" lon="1.74034">
        <ele>1579</ele>
        <time>2016-09-10T14:03:58Z</time>
      </trkpt>
      <trkpt lat="42.69973" lon="1.74034">
        <ele>1579</ele>
        <time>2016-09-10T14:03:59Z</time>
      </trkpt>
      <trkpt lat="42.69972" lon="1.74033">
        <ele>1579</ele>
        <time>2016-09-10T14:04:06Z</time>
      </trkpt>
      <trkpt lat="42.69972" lon="1.74033">
        <ele>1579</ele>
        <time>2016-09-10T14:04:14Z</time>
      </trkpt>
      <trkpt lat="42.69972" lon="1.74033">
        <ele>1579</ele>
        <time>2016-09-10T14:04:15Z</time>
      </trkpt>
      <trkpt lat="42.69961" lon="1.74027">
        <ele>1579</ele>
        <time>2016-09-10T14:04:16Z</time>
      </trkpt>
      <trkpt lat="42.69961" lon="1.74027">
        <ele>1579</ele>
        <time>2016-09-10T14:04:17Z</time>
      </trkpt>
      <trkpt lat="42.69961" lon="1.74027">
        <ele>1579</ele>
        <time>2016-09-10T14:04:18Z</time>
      </trkpt>
      <trkpt lat="42.69961" lon="1.74027">
        <ele>1579</ele>
        <time>2016-09-10T14:04:20Z</time>
      </trkpt>
      <trkpt lat="42.69961" lon="1.74027">
        <ele>1579</ele>
        <time>2016-09-10T14:04:21Z</time>
      </trkpt>
      <trkpt lat="42.69961" lon="1.74027">
        <ele>1579</ele>
        <time>2016-09-10T14:04:22Z</time>
      </trkpt>
      <trkpt lat="42.69961" lon="1.74028">
        <ele>1579</ele>
        <time>2016-09-10T14:04:23Z</time>
      </trkpt>
      <trkpt lat="42.69956" lon="1.74029">
        <ele>1580</ele>
        <time>2016-09-10T14:04:24Z</time>
      </trkpt>
      <trkpt lat="42.69951" lon="1.74031">
        <ele>1580</ele>
        <time>2016-09-10T14:04:25Z</time>
      </trkpt>
      <trkpt lat="42.6995" lon="1.74031">
        <ele>1580</ele>
        <time>2016-09-10T14:04:26Z</time>
      </trkpt>
      <trkpt lat="42.69948" lon="1.74034">
        <ele>1581</ele>
        <time>2016-09-10T14:04:29Z</time>
      </trkpt>
      <trkpt lat="42.69947" lon="1.74036">
        <ele>1582</ele>
        <time>2016-09-10T14:04:32Z</time>
      </trkpt>
      <trkpt lat="42.69945" lon="1.74039">
        <ele>1582</ele>
        <time>2016-09-10T14:04:34Z</time>
      </trkpt>
      <trkpt lat="42.69944" lon="1.74042">
        <ele>1583</ele>
        <time>2016-09-10T14:04:37Z</time>
      </trkpt>
      <trkpt lat="42.69943" lon="1.74045">
        <ele>1584</ele>
        <time>2016-09-10T14:04:40Z</time>
      </trkpt>
      <trkpt lat="42.69941" lon="1.74046">
        <ele>1584</ele>
        <time>2016-09-10T14:04:41Z</time>
      </trkpt>
      <trkpt lat="42.6994" lon="1.74046">
        <ele>1584</ele>
        <time>2016-09-10T14:04:42Z</time>
      </trkpt>
      <trkpt lat="42.6994" lon="1.74047">
        <ele>1584</ele>
        <time>2016-09-10T14:04:43Z</time>
      </trkpt>
      <trkpt lat="42.69938" lon="1.74051">
        <ele>1585</ele>
        <time>2016-09-10T14:04:49Z</time>
      </trkpt>
      <trkpt lat="42.69938" lon="1.74053">
        <ele>1586</ele>
        <time>2016-09-10T14:04:51Z</time>
      </trkpt>
      <trkpt lat="42.69937" lon="1.74054">
        <ele>1586</ele>
        <time>2016-09-10T14:04:52Z</time>
      </trkpt>
      <trkpt lat="42.69937" lon="1.74055">
        <ele>1586</ele>
        <time>2016-09-10T14:04:53Z</time>
      </trkpt>
      <trkpt lat="42.69937" lon="1.74056">
        <ele>1587</ele>
        <time>2016-09-10T14:04:54Z</time>
      </trkpt>
      <trkpt lat="42.69936" lon="1.74056">
        <ele>1587</ele>
        <time>2016-09-10T14:04:55Z</time>
      </trkpt>
      <trkpt lat="42.69936" lon="1.74058">
        <ele>1587</ele>
        <time>2016-09-10T14:04:57Z</time>
      </trkpt>
      <trkpt lat="42.69936" lon="1.74059">
        <ele>1587</ele>
        <time>2016-09-10T14:05:05Z</time>
      </trkpt>
      <trkpt lat="42.69935" lon="1.74062">
        <ele>1588</ele>
        <time>2016-09-10T14:05:12Z</time>
      </trkpt>
      <trkpt lat="42.69932" lon="1.74064">
        <ele>1589</ele>
        <time>2016-09-10T14:05:17Z</time>
      </trkpt>
      <trkpt lat="42.69932" lon="1.74065">
        <ele>1589</ele>
        <time>2016-09-10T14:05:18Z</time>
      </trkpt>
      <trkpt lat="42.69932" lon="1.74065">
        <ele>1589</ele>
        <time>2016-09-10T14:05:19Z</time>
      </trkpt>
      <trkpt lat="42.69932" lon="1.74065">
        <ele>1589</ele>
        <time>2016-09-10T14:05:20Z</time>
      </trkpt>
      <trkpt lat="42.69932" lon="1.74065">
        <ele>1589</ele>
        <time>2016-09-10T14:05:21Z</time>
      </trkpt>
      <trkpt lat="42.69931" lon="1.74062">
        <ele>1589</ele>
        <time>2016-09-10T14:05:26Z</time>
      </trkpt>
      <trkpt lat="42.69931" lon="1.7406">
        <ele>1588</ele>
        <time>2016-09-10T14:05:27Z</time>
      </trkpt>
      <trkpt lat="42.69927" lon="1.74043">
        <ele>1584</ele>
        <time>2016-09-10T14:05:35Z</time>
      </trkpt>
      <trkpt lat="42.69929" lon="1.7404">
        <ele>1584</ele>
        <time>2016-09-10T14:05:45Z</time>
      </trkpt>
      <trkpt lat="42.6993" lon="1.74049">
        <ele>1586</ele>
        <time>2016-09-10T14:05:50Z</time>
      </trkpt>
      <trkpt lat="42.69928" lon="1.74054">
        <ele>1587</ele>
        <time>2016-09-10T14:05:56Z</time>
      </trkpt>
      <trkpt lat="42.69927" lon="1.74059">
        <ele>1588</ele>
        <time>2016-09-10T14:06:03Z</time>
      </trkpt>
      <trkpt lat="42.69927" lon="1.74059">
        <ele>1588</ele>
        <time>2016-09-10T14:06:17Z</time>
      </trkpt>
      <trkpt lat="42.69927" lon="1.74059">
        <ele>1588</ele>
        <time>2016-09-10T14:06:27Z</time>
      </trkpt>
      <trkpt lat="42.69927" lon="1.74059">
        <ele>1588</ele>
        <time>2016-09-10T14:06:41Z</time>
      </trkpt>
      <trkpt lat="42.69927" lon="1.74059">
        <ele>1588</ele>
        <time>2016-09-10T14:06:59Z</time>
      </trkpt>
      <trkpt lat="42.69927" lon="1.74059">
        <ele>1588</ele>
        <time>2016-09-10T14:07:13Z</time>
      </trkpt>
      <trkpt lat="42.69927" lon="1.7406">
        <ele>1588</ele>
        <time>2016-09-10T14:07:31Z</time>
      </trkpt>
      <trkpt lat="42.69927" lon="1.7406">
        <ele>1588</ele>
        <time>2016-09-10T14:07:40Z</time>
      </trkpt>
      <trkpt lat="42.69927" lon="1.7406">
        <ele>1588</ele>
        <time>2016-09-10T14:07:50Z</time>
      </trkpt>
      <trkpt lat="42.69927" lon="1.74061">
        <ele>1589</ele>
        <time>2016-09-10T14:08:01Z</time>
      </trkpt>
      <trkpt lat="42.69927" lon="1.74061">
        <ele>1589</ele>
        <time>2016-09-10T14:08:10Z</time>
      </trkpt>
      <trkpt lat="42.69929" lon="1.74059">
        <ele>1588</ele>
        <time>2016-09-10T14:08:12Z</time>
      </trkpt>
      <trkpt lat="42.69934" lon="1.74057">
        <ele>1587</ele>
        <time>2016-09-10T14:08:16Z</time>
      </trkpt>
      <trkpt lat="42.69935" lon="1.74056">
        <ele>1587</ele>
        <time>2016-09-10T14:08:23Z</time>
      </trkpt>
      <trkpt lat="42.69941" lon="1.74056">
        <ele>1586</ele>
        <time>2016-09-10T14:08:30Z</time>
      </trkpt>
      <trkpt lat="42.69942" lon="1.74056">
        <ele>1586</ele>
        <time>2016-09-10T14:08:31Z</time>
      </trkpt>
      <trkpt lat="42.69942" lon="1.74056">
        <ele>1586</ele>
        <time>2016-09-10T14:08:32Z</time>
      </trkpt>
      <trkpt lat="42.69943" lon="1.74053">
        <ele>1585</ele>
        <time>2016-09-10T14:08:33Z</time>
      </trkpt>
      <trkpt lat="42.69943" lon="1.74052">
        <ele>1585</ele>
        <time>2016-09-10T14:08:34Z</time>
      </trkpt>
      <trkpt lat="42.69943" lon="1.7405">
        <ele>1585</ele>
        <time>2016-09-10T14:08:35Z</time>
      </trkpt>
      <trkpt lat="42.69944" lon="1.74049">
        <ele>1585</ele>
        <time>2016-09-10T14:08:36Z</time>
      </trkpt>
      <trkpt lat="42.69946" lon="1.74046">
        <ele>1584</ele>
        <time>2016-09-10T14:08:39Z</time>
      </trkpt>
      <trkpt lat="42.69947" lon="1.74046">
        <ele>1584</ele>
        <time>2016-09-10T14:08:40Z</time>
      </trkpt>
      <trkpt lat="42.69948" lon="1.74045">
        <ele>1583</ele>
        <time>2016-09-10T14:08:41Z</time>
      </trkpt>
      <trkpt lat="42.69949" lon="1.74044">
        <ele>1583</ele>
        <time>2016-09-10T14:08:42Z</time>
      </trkpt>
      <trkpt lat="42.6995" lon="1.74043">
        <ele>1583</ele>
        <time>2016-09-10T14:08:43Z</time>
      </trkpt>
      <trkpt lat="42.69956" lon="1.74043">
        <ele>1582</ele>
        <time>2016-09-10T14:08:49Z</time>
      </trkpt>
      <trkpt lat="42.69961" lon="1.74042">
        <ele>1582</ele>
        <time>2016-09-10T14:08:55Z</time>
      </trkpt>
      <trkpt lat="42.69963" lon="1.74041">
        <ele>1581</ele>
        <time>2016-09-10T14:08:56Z</time>
      </trkpt>
      <trkpt lat="42.69963" lon="1.74041">
        <ele>1581</ele>
        <time>2016-09-10T14:08:57Z</time>
      </trkpt>
      <trkpt lat="42.69965" lon="1.74041">
        <ele>1581</ele>
        <time>2016-09-10T14:08:58Z</time>
      </trkpt>
      <trkpt lat="42.69966" lon="1.74041">
        <ele>1581</ele>
        <time>2016-09-10T14:08:59Z</time>
      </trkpt>
      <trkpt lat="42.69968" lon="1.74039">
        <ele>1581</ele>
        <time>2016-09-10T14:09:03Z</time>
      </trkpt>
      <trkpt lat="42.69972" lon="1.74036">
        <ele>1580</ele>
        <time>2016-09-10T14:09:08Z</time>
      </trkpt>
      <trkpt lat="42.69974" lon="1.74036">
        <ele>1579</ele>
        <time>2016-09-10T14:09:09Z</time>
      </trkpt>
      <trkpt lat="42.69975" lon="1.74036">
        <ele>1579</ele>
        <time>2016-09-10T14:09:10Z</time>
      </trkpt>
      <trkpt lat="42.69975" lon="1.74036">
        <ele>1579</ele>
        <time>2016-09-10T14:09:11Z</time>
      </trkpt>
      <trkpt lat="42.69976" lon="1.74036">
        <ele>1579</ele>
        <time>2016-09-10T14:09:12Z</time>
      </trkpt>
      <trkpt lat="42.69979" lon="1.74036">
        <ele>1579</ele>
        <time>2016-09-10T14:09:15Z</time>
      </trkpt>
      <trkpt lat="42.69979" lon="1.74035">
        <ele>1579</ele>
        <time>2016-09-10T14:09:16Z</time>
      </trkpt>
      <trkpt lat="42.69981" lon="1.74035">
        <ele>1579</ele>
        <time>2016-09-10T14:09:17Z</time>
      </trkpt>
      <trkpt lat="42.69982" lon="1.74036">
        <ele>1579</ele>
        <time>2016-09-10T14:09:18Z</time>
      </trkpt>
      <trkpt lat="42.69983" lon="1.74037">
        <ele>1579</ele>
        <time>2016-09-10T14:09:19Z</time>
      </trkpt>
      <trkpt lat="42.69985" lon="1.74039">
        <ele>1579</ele>
        <time>2016-09-10T14:09:21Z</time>
      </trkpt>
      <trkpt lat="42.69986" lon="1.7404">
        <ele>1579</ele>
        <time>2016-09-10T14:09:24Z</time>
      </trkpt>
      <trkpt lat="42.69988" lon="1.7404">
        <ele>1579</ele>
        <time>2016-09-10T14:09:25Z</time>
      </trkpt>
      <trkpt lat="42.69989" lon="1.74039">
        <ele>1579</ele>
        <time>2016-09-10T14:09:26Z</time>
      </trkpt>
      <trkpt lat="42.6999" lon="1.74038">
        <ele>1579</ele>
        <time>2016-09-10T14:09:27Z</time>
      </trkpt>
      <trkpt lat="42.6999" lon="1.74038">
        <ele>1578</ele>
        <time>2016-09-10T14:09:28Z</time>
      </trkpt>
      <trkpt lat="42.69992" lon="1.74035">
        <ele>1578</ele>
        <time>2016-09-10T14:09:35Z</time>
      </trkpt>
      <trkpt lat="42.69992" lon="1.74034">
        <ele>1578</ele>
        <time>2016-09-10T14:09:36Z</time>
      </trkpt>
      <trkpt lat="42.69994" lon="1.74033">
        <ele>1577</ele>
        <time>2016-09-10T14:09:37Z</time>
      </trkpt>
      <trkpt lat="42.69995" lon="1.74033">
        <ele>1577</ele>
        <time>2016-09-10T14:09:38Z</time>
      </trkpt>
      <trkpt lat="42.69996" lon="1.74032">
        <ele>1577</ele>
        <time>2016-09-10T14:09:39Z</time>
      </trkpt>
      <trkpt lat="42.69999" lon="1.74031">
        <ele>1577</ele>
        <time>2016-09-10T14:09:42Z</time>
      </trkpt>
      <trkpt lat="42.7" lon="1.7403">
        <ele>1576</ele>
        <time>2016-09-10T14:09:43Z</time>
      </trkpt>
      <trkpt lat="42.70001" lon="1.7403">
        <ele>1576</ele>
        <time>2016-09-10T14:09:44Z</time>
      </trkpt>
      <trkpt lat="42.70002" lon="1.7403">
        <ele>1576</ele>
        <time>2016-09-10T14:09:45Z</time>
      </trkpt>
      <trkpt lat="42.70003" lon="1.7403">
        <ele>1576</ele>
        <time>2016-09-10T14:09:46Z</time>
      </trkpt>
      <trkpt lat="42.70004" lon="1.74031">
        <ele>1576</ele>
        <time>2016-09-10T14:09:49Z</time>
      </trkpt>
      <trkpt lat="42.70004" lon="1.74031">
        <ele>1576</ele>
        <time>2016-09-10T14:10:05Z</time>
      </trkpt>
      <trkpt lat="42.70004" lon="1.74031">
        <ele>1576</ele>
        <time>2016-09-10T14:10:22Z</time>
      </trkpt>
      <trkpt lat="42.70004" lon="1.74031">
        <ele>1576</ele>
        <time>2016-09-10T14:10:39Z</time>
      </trkpt>
      <trkpt lat="42.70004" lon="1.74031">
        <ele>1576</ele>
        <time>2016-09-10T14:10:55Z</time>
      </trkpt>
      <trkpt lat="42.70004" lon="1.74031">
        <ele>1576</ele>
        <time>2016-09-10T14:11:12Z</time>
      </trkpt>
      <trkpt lat="42.70004" lon="1.74031">
        <ele>1576</ele>
        <time>2016-09-10T14:11:16Z</time>
      </trkpt>
      <trkpt lat="42.70004" lon="1.74031">
        <ele>1576</ele>
        <time>2016-09-10T14:11:17Z</time>
      </trkpt>
      <trkpt lat="42.70004" lon="1.74031">
        <ele>1576</ele>
        <time>2016-09-10T14:11:18Z</time>
      </trkpt>
      <trkpt lat="42.70004" lon="1.74031">
        <ele>1576</ele>
        <time>2016-09-10T14:11:19Z</time>
      </trkpt>
      <trkpt lat="42.70004" lon="1.74031">
        <ele>1576</ele>
        <time>2016-09-10T14:11:20Z</time>
      </trkpt>
      <trkpt lat="42.70004" lon="1.74031">
        <ele>1576</ele>
        <time>2016-09-10T14:11:21Z</time>
      </trkpt>
      <trkpt lat="42.70004" lon="1.74031">
        <ele>1576</ele>
        <time>2016-09-10T14:11:22Z</time>
      </trkpt>
      <trkpt lat="42.70004" lon="1.74031">
        <ele>1576</ele>
        <time>2016-09-10T14:11:23Z</time>
      </trkpt>
      <trkpt lat="42.70004" lon="1.74031">
        <ele>1576</ele>
        <time>2016-09-10T14:11:29Z</time>
      </trkpt>
      <trkpt lat="42.70004" lon="1.74031">
        <ele>1576</ele>
        <time>2016-09-10T14:11:44Z</time>
      </trkpt>
      <trkpt lat="42.70004" lon="1.74031">
        <ele>1576</ele>
        <time>2016-09-10T14:12:00Z</time>
      </trkpt>
      <trkpt lat="42.70007" lon="1.7403">
        <ele>1576</ele>
        <time>2016-09-10T14:12:14Z</time>
      </trkpt>
      <trkpt lat="42.70009" lon="1.74027">
        <ele>1575</ele>
        <time>2016-09-10T14:12:17Z</time>
      </trkpt>
      <trkpt lat="42.7001" lon="1.74026">
        <ele>1575</ele>
        <time>2016-09-10T14:12:18Z</time>
      </trkpt>
      <trkpt lat="42.70011" lon="1.74025">
        <ele>1574</ele>
        <time>2016-09-10T14:12:19Z</time>
      </trkpt>
      <trkpt lat="42.70012" lon="1.74024">
        <ele>1574</ele>
        <time>2016-09-10T14:12:20Z</time>
      </trkpt>
      <trkpt lat="42.70012" lon="1.74022">
        <ele>1574</ele>
        <time>2016-09-10T14:12:21Z</time>
      </trkpt>
      <trkpt lat="42.7002" lon="1.74018">
        <ele>1572</ele>
        <time>2016-09-10T14:12:25Z</time>
      </trkpt>
      <trkpt lat="42.70021" lon="1.74018">
        <ele>1572</ele>
        <time>2016-09-10T14:12:26Z</time>
      </trkpt>
      <trkpt lat="42.70021" lon="1.74018">
        <ele>1572</ele>
        <time>2016-09-10T14:12:27Z</time>
      </trkpt>
      <trkpt lat="42.70021" lon="1.74015">
        <ele>1571</ele>
        <time>2016-09-10T14:12:28Z</time>
      </trkpt>
      <trkpt lat="42.70022" lon="1.74013">
        <ele>1571</ele>
        <time>2016-09-10T14:12:29Z</time>
      </trkpt>
      <trkpt lat="42.70027" lon="1.74009">
        <ele>1570</ele>
        <time>2016-09-10T14:12:35Z</time>
      </trkpt>
      <trkpt lat="42.70028" lon="1.74008">
        <ele>1569</ele>
        <time>2016-09-10T14:12:36Z</time>
      </trkpt>
      <trkpt lat="42.70029" lon="1.74007">
        <ele>1569</ele>
        <time>2016-09-10T14:12:37Z</time>
      </trkpt>
      <trkpt lat="42.7003" lon="1.74007">
        <ele>1569</ele>
        <time>2016-09-10T14:12:38Z</time>
      </trkpt>
      <trkpt lat="42.70031" lon="1.74006">
        <ele>1568</ele>
        <time>2016-09-10T14:12:39Z</time>
      </trkpt>
      <trkpt lat="42.70034" lon="1.74005">
        <ele>1568</ele>
        <time>2016-09-10T14:12:41Z</time>
      </trkpt>
      <trkpt lat="42.70035" lon="1.74004">
        <ele>1568</ele>
        <time>2016-09-10T14:12:42Z</time>
      </trkpt>
      <trkpt lat="42.70036" lon="1.74003">
        <ele>1567</ele>
        <time>2016-09-10T14:12:43Z</time>
      </trkpt>
      <trkpt lat="42.70037" lon="1.74002">
        <ele>1567</ele>
        <time>2016-09-10T14:12:44Z</time>
      </trkpt>
      <trkpt lat="42.70036" lon="1.74002">
        <ele>1567</ele>
        <time>2016-09-10T14:12:45Z</time>
      </trkpt>
      <trkpt lat="42.70036" lon="1.74002">
        <ele>1567</ele>
        <time>2016-09-10T14:12:46Z</time>
      </trkpt>
      <trkpt lat="42.70036" lon="1.74002">
        <ele>1567</ele>
        <time>2016-09-10T14:12:49Z</time>
      </trkpt>
      <trkpt lat="42.70041" lon="1.74">
        <ele>1566</ele>
        <time>2016-09-10T14:12:59Z</time>
      </trkpt>
      <trkpt lat="42.70052" lon="1.73995">
        <ele>1563</ele>
        <time>2016-09-10T14:13:07Z</time>
      </trkpt>
      <trkpt lat="42.70054" lon="1.73993">
        <ele>1563</ele>
        <time>2016-09-10T14:13:09Z</time>
      </trkpt>
      <trkpt lat="42.70055" lon="1.73993">
        <ele>1562</ele>
        <time>2016-09-10T14:13:10Z</time>
      </trkpt>
      <trkpt lat="42.70056" lon="1.73992">
        <ele>1562</ele>
        <time>2016-09-10T14:13:11Z</time>
      </trkpt>
      <trkpt lat="42.70057" lon="1.73991">
        <ele>1562</ele>
        <time>2016-09-10T14:13:12Z</time>
      </trkpt>
      <trkpt lat="42.70058" lon="1.73991">
        <ele>1561</ele>
        <time>2016-09-10T14:13:13Z</time>
      </trkpt>
      <trkpt lat="42.7006" lon="1.73992">
        <ele>1561</ele>
        <time>2016-09-10T14:13:14Z</time>
      </trkpt>
      <trkpt lat="42.70063" lon="1.73992">
        <ele>1560</ele>
        <time>2016-09-10T14:13:17Z</time>
      </trkpt>
      <trkpt lat="42.70064" lon="1.73992">
        <ele>1560</ele>
        <time>2016-09-10T14:13:18Z</time>
      </trkpt>
      <trkpt lat="42.70065" lon="1.73991">
        <ele>1560</ele>
        <time>2016-09-10T14:13:19Z</time>
      </trkpt>
      <trkpt lat="42.70066" lon="1.73991">
        <ele>1560</ele>
        <time>2016-09-10T14:13:20Z</time>
      </trkpt>
      <trkpt lat="42.70067" lon="1.7399">
        <ele>1559</ele>
        <time>2016-09-10T14:13:21Z</time>
      </trkpt>
      <trkpt lat="42.70069" lon="1.73989">
        <ele>1559</ele>
        <time>2016-09-10T14:13:23Z</time>
      </trkpt>
      <trkpt lat="42.7007" lon="1.73988">
        <ele>1558</ele>
        <time>2016-09-10T14:13:24Z</time>
      </trkpt>
      <trkpt lat="42.70071" lon="1.73988">
        <ele>1558</ele>
        <time>2016-09-10T14:13:25Z</time>
      </trkpt>
      <trkpt lat="42.70071" lon="1.73988">
        <ele>1558</ele>
        <time>2016-09-10T14:13:26Z</time>
      </trkpt>
      <trkpt lat="42.70071" lon="1.73987">
        <ele>1558</ele>
        <time>2016-09-10T14:13:27Z</time>
      </trkpt>
      <trkpt lat="42.70071" lon="1.73987">
        <ele>1558</ele>
        <time>2016-09-10T14:13:43Z</time>
      </trkpt>
      <trkpt lat="42.70074" lon="1.73984">
        <ele>1557</ele>
        <time>2016-09-10T14:13:46Z</time>
      </trkpt>
      <trkpt lat="42.70076" lon="1.73982">
        <ele>1555</ele>
        <time>2016-09-10T14:13:48Z</time>
      </trkpt>
      <trkpt lat="42.70079" lon="1.73979">
        <ele>1554</ele>
        <time>2016-09-10T14:13:51Z</time>
      </trkpt>
      <trkpt lat="42.7008" lon="1.73977">
        <ele>1554</ele>
        <time>2016-09-10T14:13:52Z</time>
      </trkpt>
      <trkpt lat="42.70081" lon="1.73977">
        <ele>1553</ele>
        <time>2016-09-10T14:13:53Z</time>
      </trkpt>
      <trkpt lat="42.70082" lon="1.73977">
        <ele>1553</ele>
        <time>2016-09-10T14:13:54Z</time>
      </trkpt>
      <trkpt lat="42.70083" lon="1.73977">
        <ele>1553</ele>
        <time>2016-09-10T14:13:55Z</time>
      </trkpt>
      <trkpt lat="42.70084" lon="1.73977">
        <ele>1553</ele>
        <time>2016-09-10T14:13:56Z</time>
      </trkpt>
      <trkpt lat="42.70085" lon="1.73976">
        <ele>1552</ele>
        <time>2016-09-10T14:13:57Z</time>
      </trkpt>
      <trkpt lat="42.70088" lon="1.73976">
        <ele>1552</ele>
        <time>2016-09-10T14:14:00Z</time>
      </trkpt>
      <trkpt lat="42.70089" lon="1.73976">
        <ele>1552</ele>
        <time>2016-09-10T14:14:01Z</time>
      </trkpt>
      <trkpt lat="42.7009" lon="1.73976">
        <ele>1551</ele>
        <time>2016-09-10T14:14:02Z</time>
      </trkpt>
      <trkpt lat="42.70091" lon="1.73976">
        <ele>1551</ele>
        <time>2016-09-10T14:14:03Z</time>
      </trkpt>
      <trkpt lat="42.70091" lon="1.73976">
        <ele>1551</ele>
        <time>2016-09-10T14:14:04Z</time>
      </trkpt>
      <trkpt lat="42.70096" lon="1.73976">
        <ele>1550</ele>
        <time>2016-09-10T14:14:09Z</time>
      </trkpt>
      <trkpt lat="42.70101" lon="1.73975">
        <ele>1550</ele>
        <time>2016-09-10T14:14:13Z</time>
      </trkpt>
      <trkpt lat="42.70102" lon="1.73976">
        <ele>1550</ele>
        <time>2016-09-10T14:14:15Z</time>
      </trkpt>
      <trkpt lat="42.70104" lon="1.73976">
        <ele>1549</ele>
        <time>2016-09-10T14:14:20Z</time>
      </trkpt>
      <trkpt lat="42.70105" lon="1.73977">
        <ele>1549</ele>
        <time>2016-09-10T14:14:21Z</time>
      </trkpt>
      <trkpt lat="42.70106" lon="1.73977">
        <ele>1549</ele>
        <time>2016-09-10T14:14:22Z</time>
      </trkpt>
      <trkpt lat="42.70106" lon="1.73977">
        <ele>1549</ele>
        <time>2016-09-10T14:14:23Z</time>
      </trkpt>
      <trkpt lat="42.70108" lon="1.73976">
        <ele>1549</ele>
        <time>2016-09-10T14:14:24Z</time>
      </trkpt>
      <trkpt lat="42.70108" lon="1.73976">
        <ele>1549</ele>
        <time>2016-09-10T14:14:25Z</time>
      </trkpt>
      <trkpt lat="42.70108" lon="1.73976">
        <ele>1549</ele>
        <time>2016-09-10T14:14:27Z</time>
      </trkpt>
      <trkpt lat="42.70109" lon="1.73975">
        <ele>1548</ele>
        <time>2016-09-10T14:14:34Z</time>
      </trkpt>
      <trkpt lat="42.70111" lon="1.73973">
        <ele>1548</ele>
        <time>2016-09-10T14:14:39Z</time>
      </trkpt>
      <trkpt lat="42.70113" lon="1.73972">
        <ele>1547</ele>
        <time>2016-09-10T14:14:41Z</time>
      </trkpt>
      <trkpt lat="42.70114" lon="1.73971">
        <ele>1547</ele>
        <time>2016-09-10T14:14:42Z</time>
      </trkpt>
      <trkpt lat="42.70115" lon="1.7397">
        <ele>1547</ele>
        <time>2016-09-10T14:14:43Z</time>
      </trkpt>
      <trkpt lat="42.70116" lon="1.73969">
        <ele>1546</ele>
        <time>2016-09-10T14:14:44Z</time>
      </trkpt>
      <trkpt lat="42.70117" lon="1.73968">
        <ele>1546</ele>
        <time>2016-09-10T14:14:45Z</time>
      </trkpt>
      <trkpt lat="42.70117" lon="1.73968">
        <ele>1546</ele>
        <time>2016-09-10T14:14:46Z</time>
      </trkpt>
      <trkpt lat="42.70122" lon="1.73968">
        <ele>1545</ele>
        <time>2016-09-10T14:14:51Z</time>
      </trkpt>
      <trkpt lat="42.70126" lon="1.73971">
        <ele>1546</ele>
        <time>2016-09-10T14:14:54Z</time>
      </trkpt>
      <trkpt lat="42.70128" lon="1.73971">
        <ele>1545</ele>
        <time>2016-09-10T14:14:57Z</time>
      </trkpt>
      <trkpt lat="42.70129" lon="1.7397">
        <ele>1545</ele>
        <time>2016-09-10T14:14:59Z</time>
      </trkpt>
      <trkpt lat="42.7013" lon="1.7397">
        <ele>1545</ele>
        <time>2016-09-10T14:15:01Z</time>
      </trkpt>
      <trkpt lat="42.70132" lon="1.73971">
        <ele>1545</ele>
        <time>2016-09-10T14:15:02Z</time>
      </trkpt>
      <trkpt lat="42.70138" lon="1.73972">
        <ele>1544</ele>
        <time>2016-09-10T14:15:08Z</time>
      </trkpt>
      <trkpt lat="42.70139" lon="1.73972">
        <ele>1544</ele>
        <time>2016-09-10T14:15:09Z</time>
      </trkpt>
      <trkpt lat="42.70139" lon="1.73972">
        <ele>1544</ele>
        <time>2016-09-10T14:15:10Z</time>
      </trkpt>
      <trkpt lat="42.70139" lon="1.73972">
        <ele>1544</ele>
        <time>2016-09-10T14:15:11Z</time>
      </trkpt>
      <trkpt lat="42.70141" lon="1.73971">
        <ele>1544</ele>
        <time>2016-09-10T14:15:12Z</time>
      </trkpt>
      <trkpt lat="42.70145" lon="1.73973">
        <ele>1544</ele>
        <time>2016-09-10T14:15:15Z</time>
      </trkpt>
      <trkpt lat="42.70151" lon="1.73974">
        <ele>1544</ele>
        <time>2016-09-10T14:15:22Z</time>
      </trkpt>
      <trkpt lat="42.70158" lon="1.73976">
        <ele>1544</ele>
        <time>2016-09-10T14:15:29Z</time>
      </trkpt>
      <trkpt lat="42.70165" lon="1.73973">
        <ele>1543</ele>
        <time>2016-09-10T14:15:33Z</time>
      </trkpt>
      <trkpt lat="42.70166" lon="1.73973">
        <ele>1543</ele>
        <time>2016-09-10T14:15:34Z</time>
      </trkpt>
      <trkpt lat="42.70167" lon="1.73974">
        <ele>1543</ele>
        <time>2016-09-10T14:15:35Z</time>
      </trkpt>
      <trkpt lat="42.70168" lon="1.73975">
        <ele>1543</ele>
        <time>2016-09-10T14:15:36Z</time>
      </trkpt>
      <trkpt lat="42.7017" lon="1.73974">
        <ele>1543</ele>
        <time>2016-09-10T14:15:37Z</time>
      </trkpt>
      <trkpt lat="42.70171" lon="1.73974">
        <ele>1543</ele>
        <time>2016-09-10T14:15:38Z</time>
      </trkpt>
      <trkpt lat="42.70172" lon="1.73971">
        <ele>1542</ele>
        <time>2016-09-10T14:15:40Z</time>
      </trkpt>
      <trkpt lat="42.70175" lon="1.73964">
        <ele>1540</ele>
        <time>2016-09-10T14:15:45Z</time>
      </trkpt>
      <trkpt lat="42.70176" lon="1.73963">
        <ele>1540</ele>
        <time>2016-09-10T14:15:46Z</time>
      </trkpt>
      <trkpt lat="42.70176" lon="1.73963">
        <ele>1540</ele>
        <time>2016-09-10T14:15:47Z</time>
      </trkpt>
      <trkpt lat="42.70177" lon="1.73962">
        <ele>1540</ele>
        <time>2016-09-10T14:15:48Z</time>
      </trkpt>
      <trkpt lat="42.70178" lon="1.73962">
        <ele>1540</ele>
        <time>2016-09-10T14:15:49Z</time>
      </trkpt>
      <trkpt lat="42.7018" lon="1.73961">
        <ele>1539</ele>
        <time>2016-09-10T14:15:51Z</time>
      </trkpt>
      <trkpt lat="42.70181" lon="1.7396">
        <ele>1539</ele>
        <time>2016-09-10T14:15:52Z</time>
      </trkpt>
      <trkpt lat="42.70188" lon="1.73953">
        <ele>1538</ele>
        <time>2016-09-10T14:15:58Z</time>
      </trkpt>
      <trkpt lat="42.70189" lon="1.73953">
        <ele>1537</ele>
        <time>2016-09-10T14:15:59Z</time>
      </trkpt>
      <trkpt lat="42.70189" lon="1.73953">
        <ele>1537</ele>
        <time>2016-09-10T14:16:00Z</time>
      </trkpt>
      <trkpt lat="42.7019" lon="1.73953">
        <ele>1537</ele>
        <time>2016-09-10T14:16:01Z</time>
      </trkpt>
      <trkpt lat="42.70191" lon="1.73953">
        <ele>1537</ele>
        <time>2016-09-10T14:16:02Z</time>
      </trkpt>
      <trkpt lat="42.70192" lon="1.73953">
        <ele>1537</ele>
        <time>2016-09-10T14:16:03Z</time>
      </trkpt>
      <trkpt lat="42.70194" lon="1.73953">
        <ele>1537</ele>
        <time>2016-09-10T14:16:05Z</time>
      </trkpt>
      <trkpt lat="42.70195" lon="1.73953">
        <ele>1537</ele>
        <time>2016-09-10T14:16:06Z</time>
      </trkpt>
      <trkpt lat="42.70195" lon="1.73953">
        <ele>1537</ele>
        <time>2016-09-10T14:16:07Z</time>
      </trkpt>
      <trkpt lat="42.70197" lon="1.73952">
        <ele>1537</ele>
        <time>2016-09-10T14:16:08Z</time>
      </trkpt>
      <trkpt lat="42.70197" lon="1.7395">
        <ele>1537</ele>
        <time>2016-09-10T14:16:09Z</time>
      </trkpt>
      <trkpt lat="42.702" lon="1.73947">
        <ele>1536</ele>
        <time>2016-09-10T14:16:13Z</time>
      </trkpt>
      <trkpt lat="42.70204" lon="1.73942">
        <ele>1534</ele>
        <time>2016-09-10T14:16:19Z</time>
      </trkpt>
      <trkpt lat="42.70207" lon="1.73941">
        <ele>1534</ele>
        <time>2016-09-10T14:16:23Z</time>
      </trkpt>
      <trkpt lat="42.70209" lon="1.73941">
        <ele>1534</ele>
        <time>2016-09-10T14:16:24Z</time>
      </trkpt>
      <trkpt lat="42.70209" lon="1.7394">
        <ele>1534</ele>
        <time>2016-09-10T14:16:25Z</time>
      </trkpt>
      <trkpt lat="42.7021" lon="1.7394">
        <ele>1534</ele>
        <time>2016-09-10T14:16:26Z</time>
      </trkpt>
      <trkpt lat="42.70211" lon="1.7394">
        <ele>1534</ele>
        <time>2016-09-10T14:16:27Z</time>
      </trkpt>
      <trkpt lat="42.70216" lon="1.73941">
        <ele>1533</ele>
        <time>2016-09-10T14:16:33Z</time>
      </trkpt>
      <trkpt lat="42.70218" lon="1.7394">
        <ele>1533</ele>
        <time>2016-09-10T14:16:35Z</time>
      </trkpt>
      <trkpt lat="42.70219" lon="1.7394">
        <ele>1533</ele>
        <time>2016-09-10T14:16:36Z</time>
      </trkpt>
      <trkpt lat="42.7022" lon="1.7394">
        <ele>1533</ele>
        <time>2016-09-10T14:16:37Z</time>
      </trkpt>
      <trkpt lat="42.70221" lon="1.7394">
        <ele>1533</ele>
        <time>2016-09-10T14:16:38Z</time>
      </trkpt>
      <trkpt lat="42.70222" lon="1.7394">
        <ele>1533</ele>
        <time>2016-09-10T14:16:39Z</time>
      </trkpt>
      <trkpt lat="42.70227" lon="1.73939">
        <ele>1532</ele>
        <time>2016-09-10T14:16:44Z</time>
      </trkpt>
      <trkpt lat="42.7023" lon="1.73936">
        <ele>1532</ele>
        <time>2016-09-10T14:16:47Z</time>
      </trkpt>
      <trkpt lat="42.70234" lon="1.73932">
        <ele>1530</ele>
        <time>2016-09-10T14:16:50Z</time>
      </trkpt>
      <trkpt lat="42.70235" lon="1.73931">
        <ele>1530</ele>
        <time>2016-09-10T14:16:51Z</time>
      </trkpt>
      <trkpt lat="42.70236" lon="1.7393">
        <ele>1530</ele>
        <time>2016-09-10T14:16:52Z</time>
      </trkpt>
      <trkpt lat="42.70238" lon="1.7393">
        <ele>1530</ele>
        <time>2016-09-10T14:16:53Z</time>
      </trkpt>
      <trkpt lat="42.70238" lon="1.7393">
        <ele>1530</ele>
        <time>2016-09-10T14:16:54Z</time>
      </trkpt>
      <trkpt lat="42.70238" lon="1.73929">
        <ele>1530</ele>
        <time>2016-09-10T14:16:55Z</time>
      </trkpt>
      <trkpt lat="42.70241" lon="1.73926">
        <ele>1529</ele>
        <time>2016-09-10T14:17:02Z</time>
      </trkpt>
      <trkpt lat="42.70241" lon="1.73925">
        <ele>1529</ele>
        <time>2016-09-10T14:17:03Z</time>
      </trkpt>
      <trkpt lat="42.70244" lon="1.73922">
        <ele>1528</ele>
        <time>2016-09-10T14:17:07Z</time>
      </trkpt>
      <trkpt lat="42.70246" lon="1.73923">
        <ele>1528</ele>
        <time>2016-09-10T14:17:08Z</time>
      </trkpt>
      <trkpt lat="42.70247" lon="1.73924">
        <ele>1528</ele>
        <time>2016-09-10T14:17:09Z</time>
      </trkpt>
      <trkpt lat="42.70248" lon="1.73925">
        <ele>1528</ele>
        <time>2016-09-10T14:17:10Z</time>
      </trkpt>
      <trkpt lat="42.70249" lon="1.73927">
        <ele>1528</ele>
        <time>2016-09-10T14:17:11Z</time>
      </trkpt>
      <trkpt lat="42.70249" lon="1.73927">
        <ele>1528</ele>
        <time>2016-09-10T14:17:12Z</time>
      </trkpt>
      <trkpt lat="42.70252" lon="1.73929">
        <ele>1529</ele>
        <time>2016-09-10T14:17:15Z</time>
      </trkpt>
      <trkpt lat="42.70253" lon="1.73929">
        <ele>1529</ele>
        <time>2016-09-10T14:17:16Z</time>
      </trkpt>
      <trkpt lat="42.70254" lon="1.7393">
        <ele>1529</ele>
        <time>2016-09-10T14:17:17Z</time>
      </trkpt>
      <trkpt lat="42.70256" lon="1.7393">
        <ele>1529</ele>
        <time>2016-09-10T14:17:18Z</time>
      </trkpt>
      <trkpt lat="42.70257" lon="1.7393">
        <ele>1528</ele>
        <time>2016-09-10T14:17:19Z</time>
      </trkpt>
      <trkpt lat="42.70264" lon="1.73929">
        <ele>1528</ele>
        <time>2016-09-10T14:17:25Z</time>
      </trkpt>
      <trkpt lat="42.70267" lon="1.73928">
        <ele>1528</ele>
        <time>2016-09-10T14:17:29Z</time>
      </trkpt>
      <trkpt lat="42.70267" lon="1.73928">
        <ele>1528</ele>
        <time>2016-09-10T14:17:31Z</time>
      </trkpt>
      <trkpt lat="42.70267" lon="1.73928">
        <ele>1528</ele>
        <time>2016-09-10T14:17:32Z</time>
      </trkpt>
      <trkpt lat="42.70268" lon="1.73928">
        <ele>1528</ele>
        <time>2016-09-10T14:17:33Z</time>
      </trkpt>
      <trkpt lat="42.7027" lon="1.73928">
        <ele>1527</ele>
        <time>2016-09-10T14:17:34Z</time>
      </trkpt>
      <trkpt lat="42.70271" lon="1.73928">
        <ele>1527</ele>
        <time>2016-09-10T14:17:35Z</time>
      </trkpt>
      <trkpt lat="42.70275" lon="1.73925">
        <ele>1527</ele>
        <time>2016-09-10T14:17:39Z</time>
      </trkpt>
      <trkpt lat="42.7028" lon="1.7392">
        <ele>1526</ele>
        <time>2016-09-10T14:17:44Z</time>
      </trkpt>
      <trkpt lat="42.70283" lon="1.73915">
        <ele>1525</ele>
        <time>2016-09-10T14:17:48Z</time>
      </trkpt>
      <trkpt lat="42.70284" lon="1.73915">
        <ele>1525</ele>
        <time>2016-09-10T14:17:49Z</time>
      </trkpt>
      <trkpt lat="42.70285" lon="1.73914">
        <ele>1525</ele>
        <time>2016-09-10T14:17:50Z</time>
      </trkpt>
      <trkpt lat="42.70286" lon="1.73915">
        <ele>1525</ele>
        <time>2016-09-10T14:17:51Z</time>
      </trkpt>
      <trkpt lat="42.70286" lon="1.73914">
        <ele>1525</ele>
        <time>2016-09-10T14:17:52Z</time>
      </trkpt>
      <trkpt lat="42.70291" lon="1.73915">
        <ele>1525</ele>
        <time>2016-09-10T14:17:58Z</time>
      </trkpt>
      <trkpt lat="42.70299" lon="1.73914">
        <ele>1524</ele>
        <time>2016-09-10T14:18:05Z</time>
      </trkpt>
      <trkpt lat="42.70304" lon="1.73914">
        <ele>1524</ele>
        <time>2016-09-10T14:18:09Z</time>
      </trkpt>
      <trkpt lat="42.70307" lon="1.73914">
        <ele>1524</ele>
        <time>2016-09-10T14:18:12Z</time>
      </trkpt>
      <trkpt lat="42.70308" lon="1.73914">
        <ele>1524</ele>
        <time>2016-09-10T14:18:13Z</time>
      </trkpt>
      <trkpt lat="42.70309" lon="1.73914">
        <ele>1524</ele>
        <time>2016-09-10T14:18:14Z</time>
      </trkpt>
      <trkpt lat="42.7031" lon="1.73913">
        <ele>1524</ele>
        <time>2016-09-10T14:18:15Z</time>
      </trkpt>
      <trkpt lat="42.70311" lon="1.73913">
        <ele>1524</ele>
        <time>2016-09-10T14:18:16Z</time>
      </trkpt>
      <trkpt lat="42.70313" lon="1.73913">
        <ele>1524</ele>
        <time>2016-09-10T14:18:18Z</time>
      </trkpt>
      <trkpt lat="42.70319" lon="1.73911">
        <ele>1523</ele>
        <time>2016-09-10T14:18:25Z</time>
      </trkpt>
      <trkpt lat="42.70324" lon="1.73909">
        <ele>1523</ele>
        <time>2016-09-10T14:18:30Z</time>
      </trkpt>
      <trkpt lat="42.70324" lon="1.7391">
        <ele>1523</ele>
        <time>2016-09-10T14:18:42Z</time>
      </trkpt>
      <trkpt lat="42.70327" lon="1.73908">
        <ele>1523</ele>
        <time>2016-09-10T14:18:48Z</time>
      </trkpt>
      <trkpt lat="42.70329" lon="1.73907">
        <ele>1522</ele>
        <time>2016-09-10T14:18:49Z</time>
      </trkpt>
      <trkpt lat="42.7033" lon="1.73906">
        <ele>1522</ele>
        <time>2016-09-10T14:18:50Z</time>
      </trkpt>
      <trkpt lat="42.70331" lon="1.73905">
        <ele>1522</ele>
        <time>2016-09-10T14:18:51Z</time>
      </trkpt>
      <trkpt lat="42.70332" lon="1.73904">
        <ele>1522</ele>
        <time>2016-09-10T14:18:52Z</time>
      </trkpt>
      <trkpt lat="42.70334" lon="1.73904">
        <ele>1522</ele>
        <time>2016-09-10T14:18:54Z</time>
      </trkpt>
      <trkpt lat="42.7034" lon="1.73903">
        <ele>1522</ele>
        <time>2016-09-10T14:19:00Z</time>
      </trkpt>
      <trkpt lat="42.70346" lon="1.739">
        <ele>1521</ele>
        <time>2016-09-10T14:19:06Z</time>
      </trkpt>
      <trkpt lat="42.70346" lon="1.73899">
        <ele>1521</ele>
        <time>2016-09-10T14:19:07Z</time>
      </trkpt>
      <trkpt lat="42.70347" lon="1.73898">
        <ele>1521</ele>
        <time>2016-09-10T14:19:08Z</time>
      </trkpt>
      <trkpt lat="42.70348" lon="1.73897">
        <ele>1521</ele>
        <time>2016-09-10T14:19:09Z</time>
      </trkpt>
      <trkpt lat="42.7035" lon="1.73897">
        <ele>1521</ele>
        <time>2016-09-10T14:19:10Z</time>
      </trkpt>
      <trkpt lat="42.70351" lon="1.73897">
        <ele>1521</ele>
        <time>2016-09-10T14:19:11Z</time>
      </trkpt>
      <trkpt lat="42.70351" lon="1.73898">
        <ele>1521</ele>
        <time>2016-09-10T14:19:19Z</time>
      </trkpt>
      <trkpt lat="42.70354" lon="1.73894">
        <ele>1520</ele>
        <time>2016-09-10T14:19:27Z</time>
      </trkpt>
      <trkpt lat="42.70358" lon="1.73888">
        <ele>1519</ele>
        <time>2016-09-10T14:19:32Z</time>
      </trkpt>
      <trkpt lat="42.70359" lon="1.73887">
        <ele>1519</ele>
        <time>2016-09-10T14:19:33Z</time>
      </trkpt>
      <trkpt lat="42.7036" lon="1.73885">
        <ele>1518</ele>
        <time>2016-09-10T14:19:34Z</time>
      </trkpt>
      <trkpt lat="42.70361" lon="1.73885">
        <ele>1518</ele>
        <time>2016-09-10T14:19:35Z</time>
      </trkpt>
      <trkpt lat="42.70361" lon="1.73884">
        <ele>1518</ele>
        <time>2016-09-10T14:19:36Z</time>
      </trkpt>
      <trkpt lat="42.70363" lon="1.73883">
        <ele>1518</ele>
        <time>2016-09-10T14:19:38Z</time>
      </trkpt>
      <trkpt lat="42.70366" lon="1.73879">
        <ele>1517</ele>
        <time>2016-09-10T14:19:44Z</time>
      </trkpt>
      <trkpt lat="42.70371" lon="1.73875">
        <ele>1517</ele>
        <time>2016-09-10T14:19:49Z</time>
      </trkpt>
      <trkpt lat="42.70375" lon="1.73871">
        <ele>1517</ele>
        <time>2016-09-10T14:19:56Z</time>
      </trkpt>
      <trkpt lat="42.70376" lon="1.7387">
        <ele>1517</ele>
        <time>2016-09-10T14:20:02Z</time>
      </trkpt>
      <trkpt lat="42.70376" lon="1.7387">
        <ele>1517</ele>
        <time>2016-09-10T14:20:13Z</time>
      </trkpt>
      <trkpt lat="42.70381" lon="1.73862">
        <ele>1516</ele>
        <time>2016-09-10T14:20:20Z</time>
      </trkpt>
      <trkpt lat="42.70386" lon="1.7386">
        <ele>1516</ele>
        <time>2016-09-10T14:20:25Z</time>
      </trkpt>
      <trkpt lat="42.70393" lon="1.73852">
        <ele>1515</ele>
        <time>2016-09-10T14:20:32Z</time>
      </trkpt>
      <trkpt lat="42.70396" lon="1.73846">
        <ele>1514</ele>
        <time>2016-09-10T14:20:37Z</time>
      </trkpt>
      <trkpt lat="42.70396" lon="1.73844">
        <ele>1513</ele>
        <time>2016-09-10T14:20:38Z</time>
      </trkpt>
      <trkpt lat="42.70399" lon="1.73837">
        <ele>1512</ele>
        <time>2016-09-10T14:20:44Z</time>
      </trkpt>
      <trkpt lat="42.704" lon="1.73835">
        <ele>1511</ele>
        <time>2016-09-10T14:20:46Z</time>
      </trkpt>
      <trkpt lat="42.704" lon="1.73835">
        <ele>1511</ele>
        <time>2016-09-10T14:20:47Z</time>
      </trkpt>
      <trkpt lat="42.704" lon="1.73834">
        <ele>1511</ele>
        <time>2016-09-10T14:20:48Z</time>
      </trkpt>
      <trkpt lat="42.704" lon="1.73833">
        <ele>1511</ele>
        <time>2016-09-10T14:20:49Z</time>
      </trkpt>
      <trkpt lat="42.70401" lon="1.73831">
        <ele>1511</ele>
        <time>2016-09-10T14:20:50Z</time>
      </trkpt>
      <trkpt lat="42.70401" lon="1.73824">
        <ele>1509</ele>
        <time>2016-09-10T14:20:54Z</time>
      </trkpt>
      <trkpt lat="42.70401" lon="1.73823">
        <ele>1509</ele>
        <time>2016-09-10T14:20:55Z</time>
      </trkpt>
      <trkpt lat="42.70402" lon="1.73821">
        <ele>1509</ele>
        <time>2016-09-10T14:20:56Z</time>
      </trkpt>
      <trkpt lat="42.70402" lon="1.7382">
        <ele>1508</ele>
        <time>2016-09-10T14:20:57Z</time>
      </trkpt>
      <trkpt lat="42.70403" lon="1.73819">
        <ele>1508</ele>
        <time>2016-09-10T14:20:58Z</time>
      </trkpt>
      <trkpt lat="42.70404" lon="1.73817">
        <ele>1508</ele>
        <time>2016-09-10T14:20:59Z</time>
      </trkpt>
      <trkpt lat="42.70405" lon="1.73815">
        <ele>1507</ele>
        <time>2016-09-10T14:21:01Z</time>
      </trkpt>
      <trkpt lat="42.70408" lon="1.7381">
        <ele>1506</ele>
        <time>2016-09-10T14:21:05Z</time>
      </trkpt>
      <trkpt lat="42.70409" lon="1.73809">
        <ele>1506</ele>
        <time>2016-09-10T14:21:06Z</time>
      </trkpt>
      <trkpt lat="42.70409" lon="1.73808">
        <ele>1506</ele>
        <time>2016-09-10T14:21:07Z</time>
      </trkpt>
      <trkpt lat="42.7041" lon="1.73806">
        <ele>1507</ele>
        <time>2016-09-10T14:21:08Z</time>
      </trkpt>
      <trkpt lat="42.70411" lon="1.73805">
        <ele>1507</ele>
        <time>2016-09-10T14:21:09Z</time>
      </trkpt>
      <trkpt lat="42.70413" lon="1.73802">
        <ele>1508</ele>
        <time>2016-09-10T14:21:11Z</time>
      </trkpt>
      <trkpt lat="42.7042" lon="1.73795">
        <ele>1509</ele>
        <time>2016-09-10T14:21:18Z</time>
      </trkpt>
      <trkpt lat="42.70426" lon="1.7379">
        <ele>1510</ele>
        <time>2016-09-10T14:21:23Z</time>
      </trkpt>
      <trkpt lat="42.70427" lon="1.7379">
        <ele>1510</ele>
        <time>2016-09-10T14:21:24Z</time>
      </trkpt>
      <trkpt lat="42.70429" lon="1.7379">
        <ele>1510</ele>
        <time>2016-09-10T14:21:25Z</time>
      </trkpt>
      <trkpt lat="42.7043" lon="1.7379">
        <ele>1510</ele>
        <time>2016-09-10T14:21:26Z</time>
      </trkpt>
      <trkpt lat="42.70431" lon="1.73791">
        <ele>1510</ele>
        <time>2016-09-10T14:21:27Z</time>
      </trkpt>
      <trkpt lat="42.70433" lon="1.73792">
        <ele>1510</ele>
        <time>2016-09-10T14:21:28Z</time>
      </trkpt>
      <trkpt lat="42.70434" lon="1.73795">
        <ele>1511</ele>
        <time>2016-09-10T14:21:30Z</time>
      </trkpt>
      <trkpt lat="42.70442" lon="1.73801">
        <ele>1513</ele>
        <time>2016-09-10T14:21:37Z</time>
      </trkpt>
      <trkpt lat="42.70443" lon="1.73802">
        <ele>1513</ele>
        <time>2016-09-10T14:21:38Z</time>
      </trkpt>
      <trkpt lat="42.70445" lon="1.73802">
        <ele>1513</ele>
        <time>2016-09-10T14:21:45Z</time>
      </trkpt>
      <trkpt lat="42.70449" lon="1.73801">
        <ele>1514</ele>
        <time>2016-09-10T14:21:53Z</time>
      </trkpt>
      <trkpt lat="42.70455" lon="1.73799">
        <ele>1514</ele>
        <time>2016-09-10T14:21:59Z</time>
      </trkpt>
      <trkpt lat="42.70455" lon="1.73799">
        <ele>1514</ele>
        <time>2016-09-10T14:22:00Z</time>
      </trkpt>
      <trkpt lat="42.70456" lon="1.738">
        <ele>1514</ele>
        <time>2016-09-10T14:22:01Z</time>
      </trkpt>
      <trkpt lat="42.70456" lon="1.738">
        <ele>1514</ele>
        <time>2016-09-10T14:22:02Z</time>
      </trkpt>
      <trkpt lat="42.70456" lon="1.738">
        <ele>1514</ele>
        <time>2016-09-10T14:22:03Z</time>
      </trkpt>
      <trkpt lat="42.70456" lon="1.738">
        <ele>1514</ele>
        <time>2016-09-10T14:22:06Z</time>
      </trkpt>
      <trkpt lat="42.70458" lon="1.738">
        <ele>1514</ele>
        <time>2016-09-10T14:22:14Z</time>
      </trkpt>
      <trkpt lat="42.70467" lon="1.73797">
        <ele>1513</ele>
        <time>2016-09-10T14:22:22Z</time>
      </trkpt>
      <trkpt lat="42.70475" lon="1.7379">
        <ele>1511</ele>
        <time>2016-09-10T14:22:29Z</time>
      </trkpt>
      <trkpt lat="42.70487" lon="1.73792">
        <ele>1511</ele>
        <time>2016-09-10T14:22:37Z</time>
      </trkpt>
      <trkpt lat="42.70495" lon="1.73794">
        <ele>1511</ele>
        <time>2016-09-10T14:22:42Z</time>
      </trkpt>
      <trkpt lat="42.70496" lon="1.73794">
        <ele>1512</ele>
        <time>2016-09-10T14:22:43Z</time>
      </trkpt>
      <trkpt lat="42.70499" lon="1.73794">
        <ele>1511</ele>
        <time>2016-09-10T14:22:46Z</time>
      </trkpt>
      <trkpt lat="42.70502" lon="1.73793">
        <ele>1511</ele>
        <time>2016-09-10T14:22:48Z</time>
      </trkpt>
      <trkpt lat="42.70507" lon="1.73795">
        <ele>1511</ele>
        <time>2016-09-10T14:22:53Z</time>
      </trkpt>
      <trkpt lat="42.70508" lon="1.73785">
        <ele>1507</ele>
        <time>2016-09-10T14:22:55Z</time>
      </trkpt>
      <trkpt lat="42.70513" lon="1.73786">
        <ele>1506</ele>
        <time>2016-09-10T14:23:00Z</time>
      </trkpt>
      <trkpt lat="42.70513" lon="1.73786">
        <ele>1507</ele>
        <time>2016-09-10T14:23:01Z</time>
      </trkpt>
      <trkpt lat="42.70514" lon="1.73787">
        <ele>1507</ele>
        <time>2016-09-10T14:23:02Z</time>
      </trkpt>
      <trkpt lat="42.70515" lon="1.73787">
        <ele>1507</ele>
        <time>2016-09-10T14:23:03Z</time>
      </trkpt>
      <trkpt lat="42.70516" lon="1.73787">
        <ele>1506</ele>
        <time>2016-09-10T14:23:04Z</time>
      </trkpt>
      <trkpt lat="42.7052" lon="1.73787">
        <ele>1506</ele>
        <time>2016-09-10T14:23:09Z</time>
      </trkpt>
      <trkpt lat="42.70521" lon="1.73788">
        <ele>1506</ele>
        <time>2016-09-10T14:23:10Z</time>
      </trkpt>
      <trkpt lat="42.70522" lon="1.73788">
        <ele>1506</ele>
        <time>2016-09-10T14:23:11Z</time>
      </trkpt>
      <trkpt lat="42.70523" lon="1.73788">
        <ele>1506</ele>
        <time>2016-09-10T14:23:12Z</time>
      </trkpt>
      <trkpt lat="42.70524" lon="1.73789">
        <ele>1506</ele>
        <time>2016-09-10T14:23:13Z</time>
      </trkpt>
      <trkpt lat="42.70524" lon="1.73788">
        <ele>1506</ele>
        <time>2016-09-10T14:23:16Z</time>
      </trkpt>
      <trkpt lat="42.70526" lon="1.73787">
        <ele>1505</ele>
        <time>2016-09-10T14:23:17Z</time>
      </trkpt>
      <trkpt lat="42.70529" lon="1.73786">
        <ele>1504</ele>
        <time>2016-09-10T14:23:20Z</time>
      </trkpt>
      <trkpt lat="42.7053" lon="1.73787">
        <ele>1504</ele>
        <time>2016-09-10T14:23:21Z</time>
      </trkpt>
      <trkpt lat="42.70531" lon="1.73787">
        <ele>1504</ele>
        <time>2016-09-10T14:23:22Z</time>
      </trkpt>
      <trkpt lat="42.70533" lon="1.73788">
        <ele>1504</ele>
        <time>2016-09-10T14:23:23Z</time>
      </trkpt>
      <trkpt lat="42.70535" lon="1.73789">
        <ele>1504</ele>
        <time>2016-09-10T14:23:24Z</time>
      </trkpt>
      <trkpt lat="42.70538" lon="1.73788">
        <ele>1504</ele>
        <time>2016-09-10T14:23:26Z</time>
      </trkpt>
      <trkpt lat="42.70542" lon="1.73786">
        <ele>1502</ele>
        <time>2016-09-10T14:23:31Z</time>
      </trkpt>
      <trkpt lat="42.70547" lon="1.73785">
        <ele>1501</ele>
        <time>2016-09-10T14:23:38Z</time>
      </trkpt>
      <trkpt lat="42.70555" lon="1.73786">
        <ele>1501</ele>
        <time>2016-09-10T14:23:45Z</time>
      </trkpt>
      <trkpt lat="42.70556" lon="1.73787">
        <ele>1501</ele>
        <time>2016-09-10T14:23:46Z</time>
      </trkpt>
      <trkpt lat="42.70562" lon="1.73788">
        <ele>1501</ele>
        <time>2016-09-10T14:23:50Z</time>
      </trkpt>
      <trkpt lat="42.70568" lon="1.73787">
        <ele>1500</ele>
        <time>2016-09-10T14:23:56Z</time>
      </trkpt>
      <trkpt lat="42.70576" lon="1.73786">
        <ele>1498</ele>
        <time>2016-09-10T14:24:04Z</time>
      </trkpt>
      <trkpt lat="42.70586" lon="1.73783">
        <ele>1496</ele>
        <time>2016-09-10T14:24:12Z</time>
      </trkpt>
      <trkpt lat="42.70593" lon="1.73783">
        <ele>1496</ele>
        <time>2016-09-10T14:24:19Z</time>
      </trkpt>
      <trkpt lat="42.70598" lon="1.73785">
        <ele>1496</ele>
        <time>2016-09-10T14:24:25Z</time>
      </trkpt>
      <trkpt lat="42.70606" lon="1.73784">
        <ele>1495</ele>
        <time>2016-09-10T14:24:32Z</time>
      </trkpt>
      <trkpt lat="42.70612" lon="1.73781">
        <ele>1494</ele>
        <time>2016-09-10T14:24:38Z</time>
      </trkpt>
      <trkpt lat="42.70621" lon="1.7378">
        <ele>1493</ele>
        <time>2016-09-10T14:24:46Z</time>
      </trkpt>
      <trkpt lat="42.70622" lon="1.73779">
        <ele>1492</ele>
        <time>2016-09-10T14:24:48Z</time>
      </trkpt>
      <trkpt lat="42.70622" lon="1.73779">
        <ele>1492</ele>
        <time>2016-09-10T14:24:49Z</time>
      </trkpt>
      <trkpt lat="42.70622" lon="1.73779">
        <ele>1492</ele>
        <time>2016-09-10T14:24:50Z</time>
      </trkpt>
      <trkpt lat="42.70623" lon="1.73778">
        <ele>1492</ele>
        <time>2016-09-10T14:24:51Z</time>
      </trkpt>
      <trkpt lat="42.70623" lon="1.73778">
        <ele>1492</ele>
        <time>2016-09-10T14:24:52Z</time>
      </trkpt>
      <trkpt lat="42.70623" lon="1.73778">
        <ele>1492</ele>
        <time>2016-09-10T14:24:53Z</time>
      </trkpt>
      <trkpt lat="42.70623" lon="1.73778">
        <ele>1492</ele>
        <time>2016-09-10T14:25:07Z</time>
      </trkpt>
      <trkpt lat="42.70623" lon="1.73778">
        <ele>1492</ele>
        <time>2016-09-10T14:25:13Z</time>
      </trkpt>
      <trkpt lat="42.70623" lon="1.73778">
        <ele>1492</ele>
        <time>2016-09-10T14:25:14Z</time>
      </trkpt>
      <trkpt lat="42.70623" lon="1.73778">
        <ele>1492</ele>
        <time>2016-09-10T14:25:15Z</time>
      </trkpt>
      <trkpt lat="42.70623" lon="1.73778">
        <ele>1492</ele>
        <time>2016-09-10T14:25:16Z</time>
      </trkpt>
      <trkpt lat="42.70625" lon="1.7378">
        <ele>1492</ele>
        <time>2016-09-10T14:25:17Z</time>
      </trkpt>
      <trkpt lat="42.70627" lon="1.73781">
        <ele>1492</ele>
        <time>2016-09-10T14:25:19Z</time>
      </trkpt>
      <trkpt lat="42.70636" lon="1.73779">
        <ele>1491</ele>
        <time>2016-09-10T14:25:26Z</time>
      </trkpt>
      <trkpt lat="42.70637" lon="1.73779">
        <ele>1491</ele>
        <time>2016-09-10T14:25:27Z</time>
      </trkpt>
      <trkpt lat="42.70637" lon="1.73779">
        <ele>1491</ele>
        <time>2016-09-10T14:25:28Z</time>
      </trkpt>
      <trkpt lat="42.70639" lon="1.73779">
        <ele>1491</ele>
        <time>2016-09-10T14:25:29Z</time>
      </trkpt>
      <trkpt lat="42.70641" lon="1.73779">
        <ele>1491</ele>
        <time>2016-09-10T14:25:30Z</time>
      </trkpt>
      <trkpt lat="42.70645" lon="1.73778">
        <ele>1490</ele>
        <time>2016-09-10T14:25:32Z</time>
      </trkpt>
      <trkpt lat="42.70648" lon="1.73773">
        <ele>1489</ele>
        <time>2016-09-10T14:25:35Z</time>
      </trkpt>
      <trkpt lat="42.70649" lon="1.73772">
        <ele>1488</ele>
        <time>2016-09-10T14:25:36Z</time>
      </trkpt>
      <trkpt lat="42.7065" lon="1.73771">
        <ele>1488</ele>
        <time>2016-09-10T14:25:37Z</time>
      </trkpt>
      <trkpt lat="42.70651" lon="1.7377">
        <ele>1488</ele>
        <time>2016-09-10T14:25:38Z</time>
      </trkpt>
      <trkpt lat="42.70652" lon="1.7377">
        <ele>1487</ele>
        <time>2016-09-10T14:25:39Z</time>
      </trkpt>
      <trkpt lat="42.70653" lon="1.73769">
        <ele>1487</ele>
        <time>2016-09-10T14:25:40Z</time>
      </trkpt>
      <trkpt lat="42.70657" lon="1.73767">
        <ele>1486</ele>
        <time>2016-09-10T14:25:43Z</time>
      </trkpt>
      <trkpt lat="42.70661" lon="1.73767">
        <ele>1486</ele>
        <time>2016-09-10T14:25:45Z</time>
      </trkpt>
      <trkpt lat="42.70663" lon="1.73769">
        <ele>1486</ele>
        <time>2016-09-10T14:25:49Z</time>
      </trkpt>
      <trkpt lat="42.70664" lon="1.73769">
        <ele>1486</ele>
        <time>2016-09-10T14:25:50Z</time>
      </trkpt>
      <trkpt lat="42.70665" lon="1.73769">
        <ele>1486</ele>
        <time>2016-09-10T14:25:51Z</time>
      </trkpt>
      <trkpt lat="42.70666" lon="1.7377">
        <ele>1486</ele>
        <time>2016-09-10T14:25:52Z</time>
      </trkpt>
      <trkpt lat="42.70666" lon="1.7377">
        <ele>1486</ele>
        <time>2016-09-10T14:25:53Z</time>
      </trkpt>
      <trkpt lat="42.7067" lon="1.73769">
        <ele>1485</ele>
        <time>2016-09-10T14:25:58Z</time>
      </trkpt>
      <trkpt lat="42.70674" lon="1.73767">
        <ele>1484</ele>
        <time>2016-09-10T14:26:02Z</time>
      </trkpt>
      <trkpt lat="42.70675" lon="1.73766">
        <ele>1484</ele>
        <time>2016-09-10T14:26:03Z</time>
      </trkpt>
      <trkpt lat="42.70676" lon="1.73765">
        <ele>1484</ele>
        <time>2016-09-10T14:26:04Z</time>
      </trkpt>
      <trkpt lat="42.70679" lon="1.73764">
        <ele>1483</ele>
        <time>2016-09-10T14:26:05Z</time>
      </trkpt>
      <trkpt lat="42.7068" lon="1.73763">
        <ele>1483</ele>
        <time>2016-09-10T14:26:06Z</time>
      </trkpt>
      <trkpt lat="42.70689" lon="1.73756">
        <ele>1481</ele>
        <time>2016-09-10T14:26:13Z</time>
      </trkpt>
      <trkpt lat="42.70694" lon="1.73753">
        <ele>1480</ele>
        <time>2016-09-10T14:26:19Z</time>
      </trkpt>
      <trkpt lat="42.70695" lon="1.73753">
        <ele>1480</ele>
        <time>2016-09-10T14:26:20Z</time>
      </trkpt>
      <trkpt lat="42.70696" lon="1.73753">
        <ele>1479</ele>
        <time>2016-09-10T14:26:21Z</time>
      </trkpt>
      <trkpt lat="42.70697" lon="1.73752">
        <ele>1479</ele>
        <time>2016-09-10T14:26:22Z</time>
      </trkpt>
      <trkpt lat="42.70699" lon="1.73752">
        <ele>1479</ele>
        <time>2016-09-10T14:26:23Z</time>
      </trkpt>
      <trkpt lat="42.70703" lon="1.73751">
        <ele>1479</ele>
        <time>2016-09-10T14:26:27Z</time>
      </trkpt>
      <trkpt lat="42.70709" lon="1.73748">
        <ele>1478</ele>
        <time>2016-09-10T14:26:34Z</time>
      </trkpt>
      <trkpt lat="42.7071" lon="1.73748">
        <ele>1478</ele>
        <time>2016-09-10T14:26:35Z</time>
      </trkpt>
      <trkpt lat="42.70711" lon="1.73747">
        <ele>1478</ele>
        <time>2016-09-10T14:26:36Z</time>
      </trkpt>
      <trkpt lat="42.70712" lon="1.73747">
        <ele>1477</ele>
        <time>2016-09-10T14:26:37Z</time>
      </trkpt>
      <trkpt lat="42.70713" lon="1.73747">
        <ele>1477</ele>
        <time>2016-09-10T14:26:38Z</time>
      </trkpt>
      <trkpt lat="42.70714" lon="1.73747">
        <ele>1477</ele>
        <time>2016-09-10T14:26:39Z</time>
      </trkpt>
      <trkpt lat="42.70719" lon="1.73747">
        <ele>1477</ele>
        <time>2016-09-10T14:26:44Z</time>
      </trkpt>
      <trkpt lat="42.7072" lon="1.73747">
        <ele>1477</ele>
        <time>2016-09-10T14:26:45Z</time>
      </trkpt>
      <trkpt lat="42.7072" lon="1.73747">
        <ele>1477</ele>
        <time>2016-09-10T14:26:46Z</time>
      </trkpt>
      <trkpt lat="42.70721" lon="1.73748">
        <ele>1478</ele>
        <time>2016-09-10T14:26:47Z</time>
      </trkpt>
      <trkpt lat="42.70722" lon="1.73749">
        <ele>1478</ele>
        <time>2016-09-10T14:26:48Z</time>
      </trkpt>
      <trkpt lat="42.70727" lon="1.7375">
        <ele>1478</ele>
        <time>2016-09-10T14:26:54Z</time>
      </trkpt>
      <trkpt lat="42.70733" lon="1.73743">
        <ele>1476</ele>
        <time>2016-09-10T14:26:59Z</time>
      </trkpt>
      <trkpt lat="42.70738" lon="1.73729">
        <ele>1474</ele>
        <time>2016-09-10T14:27:05Z</time>
      </trkpt>
      <trkpt lat="42.70742" lon="1.73721">
        <ele>1472</ele>
        <time>2016-09-10T14:27:11Z</time>
      </trkpt>
      <trkpt lat="42.70743" lon="1.7372">
        <ele>1472</ele>
        <time>2016-09-10T14:27:12Z</time>
      </trkpt>
      <trkpt lat="42.70743" lon="1.7372">
        <ele>1472</ele>
        <time>2016-09-10T14:27:13Z</time>
      </trkpt>
      <trkpt lat="42.70744" lon="1.73719">
        <ele>1472</ele>
        <time>2016-09-10T14:27:14Z</time>
      </trkpt>
      <trkpt lat="42.70747" lon="1.73718">
        <ele>1471</ele>
        <time>2016-09-10T14:27:18Z</time>
      </trkpt>
      <trkpt lat="42.70751" lon="1.73713">
        <ele>1470</ele>
        <time>2016-09-10T14:27:22Z</time>
      </trkpt>
      <trkpt lat="42.70751" lon="1.73712">
        <ele>1469</ele>
        <time>2016-09-10T14:27:23Z</time>
      </trkpt>
      <trkpt lat="42.70752" lon="1.73711">
        <ele>1469</ele>
        <time>2016-09-10T14:27:24Z</time>
      </trkpt>
      <trkpt lat="42.70753" lon="1.7371">
        <ele>1469</ele>
        <time>2016-09-10T14:27:25Z</time>
      </trkpt>
      <trkpt lat="42.70753" lon="1.73709">
        <ele>1469</ele>
        <time>2016-09-10T14:27:26Z</time>
      </trkpt>
      <trkpt lat="42.70759" lon="1.73707">
        <ele>1467</ele>
        <time>2016-09-10T14:27:32Z</time>
      </trkpt>
      <trkpt lat="42.7076" lon="1.73706">
        <ele>1467</ele>
        <time>2016-09-10T14:27:33Z</time>
      </trkpt>
      <trkpt lat="42.7076" lon="1.73705">
        <ele>1467</ele>
        <time>2016-09-10T14:27:34Z</time>
      </trkpt>
      <trkpt lat="42.7076" lon="1.73704">
        <ele>1466</ele>
        <time>2016-09-10T14:27:35Z</time>
      </trkpt>
      <trkpt lat="42.7076" lon="1.73704">
        <ele>1466</ele>
        <time>2016-09-10T14:27:36Z</time>
      </trkpt>
      <trkpt lat="42.7076" lon="1.73703">
        <ele>1466</ele>
        <time>2016-09-10T14:27:38Z</time>
      </trkpt>
      <trkpt lat="42.70762" lon="1.73702">
        <ele>1466</ele>
        <time>2016-09-10T14:27:41Z</time>
      </trkpt>
      <trkpt lat="42.70763" lon="1.73701">
        <ele>1465</ele>
        <time>2016-09-10T14:27:42Z</time>
      </trkpt>
      <trkpt lat="42.70764" lon="1.737">
        <ele>1465</ele>
        <time>2016-09-10T14:27:43Z</time>
      </trkpt>
      <trkpt lat="42.70764" lon="1.73699">
        <ele>1465</ele>
        <time>2016-09-10T14:27:44Z</time>
      </trkpt>
      <trkpt lat="42.70765" lon="1.73697">
        <ele>1464</ele>
        <time>2016-09-10T14:27:45Z</time>
      </trkpt>
      <trkpt lat="42.70766" lon="1.73696">
        <ele>1464</ele>
        <time>2016-09-10T14:27:46Z</time>
      </trkpt>
      <trkpt lat="42.70768" lon="1.73694">
        <ele>1463</ele>
        <time>2016-09-10T14:27:49Z</time>
      </trkpt>
      <trkpt lat="42.70769" lon="1.73694">
        <ele>1463</ele>
        <time>2016-09-10T14:27:50Z</time>
      </trkpt>
      <trkpt lat="42.7077" lon="1.73693">
        <ele>1463</ele>
        <time>2016-09-10T14:27:51Z</time>
      </trkpt>
      <trkpt lat="42.7077" lon="1.73693">
        <ele>1463</ele>
        <time>2016-09-10T14:27:52Z</time>
      </trkpt>
      <trkpt lat="42.7077" lon="1.73691">
        <ele>1462</ele>
        <time>2016-09-10T14:27:53Z</time>
      </trkpt>
      <trkpt lat="42.70772" lon="1.7369">
        <ele>1461</ele>
        <time>2016-09-10T14:27:54Z</time>
      </trkpt>
      <trkpt lat="42.70777" lon="1.73681">
        <ele>1460</ele>
        <time>2016-09-10T14:28:00Z</time>
      </trkpt>
      <trkpt lat="42.70781" lon="1.73677">
        <ele>1460</ele>
        <time>2016-09-10T14:28:06Z</time>
      </trkpt>
      <trkpt lat="42.70782" lon="1.73677">
        <ele>1459</ele>
        <time>2016-09-10T14:28:07Z</time>
      </trkpt>
      <trkpt lat="42.70783" lon="1.73676">
        <ele>1459</ele>
        <time>2016-09-10T14:28:08Z</time>
      </trkpt>
      <trkpt lat="42.70784" lon="1.73675">
        <ele>1459</ele>
        <time>2016-09-10T14:28:09Z</time>
      </trkpt>
      <trkpt lat="42.70785" lon="1.73675">
        <ele>1459</ele>
        <time>2016-09-10T14:28:10Z</time>
      </trkpt>
      <trkpt lat="42.70788" lon="1.73673">
        <ele>1459</ele>
        <time>2016-09-10T14:28:12Z</time>
      </trkpt>
      <trkpt lat="42.70789" lon="1.73672">
        <ele>1459</ele>
        <time>2016-09-10T14:28:13Z</time>
      </trkpt>
      <trkpt lat="42.70792" lon="1.73671">
        <ele>1458</ele>
        <time>2016-09-10T14:28:15Z</time>
      </trkpt>
      <trkpt lat="42.70793" lon="1.7367">
        <ele>1458</ele>
        <time>2016-09-10T14:28:16Z</time>
      </trkpt>
      <trkpt lat="42.70794" lon="1.73669">
        <ele>1458</ele>
        <time>2016-09-10T14:28:17Z</time>
      </trkpt>
      <trkpt lat="42.70795" lon="1.73668">
        <ele>1458</ele>
        <time>2016-09-10T14:28:18Z</time>
      </trkpt>
      <trkpt lat="42.70797" lon="1.73667">
        <ele>1458</ele>
        <time>2016-09-10T14:28:19Z</time>
      </trkpt>
      <trkpt lat="42.708" lon="1.73662">
        <ele>1458</ele>
        <time>2016-09-10T14:28:23Z</time>
      </trkpt>
      <trkpt lat="42.70801" lon="1.73662">
        <ele>1457</ele>
        <time>2016-09-10T14:28:24Z</time>
      </trkpt>
      <trkpt lat="42.70802" lon="1.73661">
        <ele>1457</ele>
        <time>2016-09-10T14:28:25Z</time>
      </trkpt>
      <trkpt lat="42.70803" lon="1.7366">
        <ele>1457</ele>
        <time>2016-09-10T14:28:26Z</time>
      </trkpt>
      <trkpt lat="42.70804" lon="1.73658">
        <ele>1457</ele>
        <time>2016-09-10T14:28:27Z</time>
      </trkpt>
      <trkpt lat="42.70807" lon="1.73655">
        <ele>1457</ele>
        <time>2016-09-10T14:28:31Z</time>
      </trkpt>
      <trkpt lat="42.70809" lon="1.73653">
        <ele>1457</ele>
        <time>2016-09-10T14:28:32Z</time>
      </trkpt>
      <trkpt lat="42.7081" lon="1.73652">
        <ele>1457</ele>
        <time>2016-09-10T14:28:33Z</time>
      </trkpt>
      <trkpt lat="42.70811" lon="1.73651">
        <ele>1456</ele>
        <time>2016-09-10T14:28:34Z</time>
      </trkpt>
      <trkpt lat="42.70813" lon="1.73651">
        <ele>1456</ele>
        <time>2016-09-10T14:28:35Z</time>
      </trkpt>
      <trkpt lat="42.70814" lon="1.73651">
        <ele>1456</ele>
        <time>2016-09-10T14:28:36Z</time>
      </trkpt>
      <trkpt lat="42.70822" lon="1.73651">
        <ele>1455</ele>
        <time>2016-09-10T14:28:43Z</time>
      </trkpt>
      <trkpt lat="42.70829" lon="1.7365">
        <ele>1454</ele>
        <time>2016-09-10T14:28:49Z</time>
      </trkpt>
      <trkpt lat="42.70834" lon="1.73651">
        <ele>1453</ele>
        <time>2016-09-10T14:28:52Z</time>
      </trkpt>
      <trkpt lat="42.70835" lon="1.73651">
        <ele>1453</ele>
        <time>2016-09-10T14:28:53Z</time>
      </trkpt>
      <trkpt lat="42.70837" lon="1.73651">
        <ele>1453</ele>
        <time>2016-09-10T14:28:54Z</time>
      </trkpt>
      <trkpt lat="42.70838" lon="1.7365">
        <ele>1452</ele>
        <time>2016-09-10T14:28:55Z</time>
      </trkpt>
      <trkpt lat="42.7084" lon="1.7365">
        <ele>1452</ele>
        <time>2016-09-10T14:28:57Z</time>
      </trkpt>
      <trkpt lat="42.70847" lon="1.73649">
        <ele>1451</ele>
        <time>2016-09-10T14:29:02Z</time>
      </trkpt>
      <trkpt lat="42.70849" lon="1.73649">
        <ele>1451</ele>
        <time>2016-09-10T14:29:04Z</time>
      </trkpt>
      <trkpt lat="42.70856" lon="1.73648">
        <ele>1450</ele>
        <time>2016-09-10T14:29:10Z</time>
      </trkpt>
      <trkpt lat="42.70857" lon="1.73648">
        <ele>1450</ele>
        <time>2016-09-10T14:29:11Z</time>
      </trkpt>
      <trkpt lat="42.70859" lon="1.73648">
        <ele>1450</ele>
        <time>2016-09-10T14:29:12Z</time>
      </trkpt>
      <trkpt lat="42.7086" lon="1.73648">
        <ele>1449</ele>
        <time>2016-09-10T14:29:13Z</time>
      </trkpt>
      <trkpt lat="42.70861" lon="1.73648">
        <ele>1449</ele>
        <time>2016-09-10T14:29:14Z</time>
      </trkpt>
      <trkpt lat="42.70862" lon="1.73648">
        <ele>1449</ele>
        <time>2016-09-10T14:29:15Z</time>
      </trkpt>
      <trkpt lat="42.70863" lon="1.73649">
        <ele>1449</ele>
        <time>2016-09-10T14:29:16Z</time>
      </trkpt>
      <trkpt lat="42.70868" lon="1.73648">
        <ele>1449</ele>
        <time>2016-09-10T14:29:22Z</time>
      </trkpt>
      <trkpt lat="42.7087" lon="1.73648">
        <ele>1449</ele>
        <time>2016-09-10T14:29:23Z</time>
      </trkpt>
      <trkpt lat="42.70871" lon="1.73647">
        <ele>1448</ele>
        <time>2016-09-10T14:29:24Z</time>
      </trkpt>
      <trkpt lat="42.70871" lon="1.73647">
        <ele>1448</ele>
        <time>2016-09-10T14:29:25Z</time>
      </trkpt>
      <trkpt lat="42.70872" lon="1.73646">
        <ele>1448</ele>
        <time>2016-09-10T14:29:26Z</time>
      </trkpt>
      <trkpt lat="42.70873" lon="1.73646">
        <ele>1448</ele>
        <time>2016-09-10T14:29:27Z</time>
      </trkpt>
      <trkpt lat="42.70875" lon="1.73646">
        <ele>1448</ele>
        <time>2016-09-10T14:29:29Z</time>
      </trkpt>
      <trkpt lat="42.70878" lon="1.73647">
        <ele>1448</ele>
        <time>2016-09-10T14:29:33Z</time>
      </trkpt>
      <trkpt lat="42.7088" lon="1.73648">
        <ele>1448</ele>
        <time>2016-09-10T14:29:35Z</time>
      </trkpt>
      <trkpt lat="42.70882" lon="1.73648">
        <ele>1448</ele>
        <time>2016-09-10T14:29:36Z</time>
      </trkpt>
      <trkpt lat="42.70883" lon="1.73647">
        <ele>1448</ele>
        <time>2016-09-10T14:29:37Z</time>
      </trkpt>
      <trkpt lat="42.70884" lon="1.73646">
        <ele>1447</ele>
        <time>2016-09-10T14:29:38Z</time>
      </trkpt>
      <trkpt lat="42.70885" lon="1.73646">
        <ele>1447</ele>
        <time>2016-09-10T14:29:39Z</time>
      </trkpt>
      <trkpt lat="42.70889" lon="1.73644">
        <ele>1447</ele>
        <time>2016-09-10T14:29:43Z</time>
      </trkpt>
      <trkpt lat="42.7089" lon="1.73644">
        <ele>1446</ele>
        <time>2016-09-10T14:29:46Z</time>
      </trkpt>
      <trkpt lat="42.70891" lon="1.73643">
        <ele>1446</ele>
        <time>2016-09-10T14:29:47Z</time>
      </trkpt>
      <trkpt lat="42.70891" lon="1.73642">
        <ele>1446</ele>
        <time>2016-09-10T14:29:48Z</time>
      </trkpt>
      <trkpt lat="42.70892" lon="1.73642">
        <ele>1446</ele>
        <time>2016-09-10T14:29:49Z</time>
      </trkpt>
      <trkpt lat="42.70892" lon="1.73642">
        <ele>1446</ele>
        <time>2016-09-10T14:29:50Z</time>
      </trkpt>
      <trkpt lat="42.70893" lon="1.73643">
        <ele>1446</ele>
        <time>2016-09-10T14:29:52Z</time>
      </trkpt>
      <trkpt lat="42.70896" lon="1.73645">
        <ele>1446</ele>
        <time>2016-09-10T14:29:56Z</time>
      </trkpt>
      <trkpt lat="42.70897" lon="1.73646">
        <ele>1446</ele>
        <time>2016-09-10T14:29:57Z</time>
      </trkpt>
      <trkpt lat="42.70897" lon="1.73646">
        <ele>1446</ele>
        <time>2016-09-10T14:29:58Z</time>
      </trkpt>
      <trkpt lat="42.70898" lon="1.73646">
        <ele>1446</ele>
        <time>2016-09-10T14:29:59Z</time>
      </trkpt>
      <trkpt lat="42.70899" lon="1.73646">
        <ele>1446</ele>
        <time>2016-09-10T14:30:00Z</time>
      </trkpt>
      <trkpt lat="42.70901" lon="1.73644">
        <ele>1446</ele>
        <time>2016-09-10T14:30:03Z</time>
      </trkpt>
      <trkpt lat="42.70906" lon="1.73642">
        <ele>1445</ele>
        <time>2016-09-10T14:30:08Z</time>
      </trkpt>
      <trkpt lat="42.70912" lon="1.7364">
        <ele>1444</ele>
        <time>2016-09-10T14:30:12Z</time>
      </trkpt>
      <trkpt lat="42.70913" lon="1.7364">
        <ele>1444</ele>
        <time>2016-09-10T14:30:13Z</time>
      </trkpt>
      <trkpt lat="42.70915" lon="1.7364">
        <ele>1444</ele>
        <time>2016-09-10T14:30:14Z</time>
      </trkpt>
      <trkpt lat="42.70917" lon="1.7364">
        <ele>1444</ele>
        <time>2016-09-10T14:30:15Z</time>
      </trkpt>
      <trkpt lat="42.70918" lon="1.73641">
        <ele>1444</ele>
        <time>2016-09-10T14:30:16Z</time>
      </trkpt>
      <trkpt lat="42.7092" lon="1.73641">
        <ele>1444</ele>
        <time>2016-09-10T14:30:19Z</time>
      </trkpt>
      <trkpt lat="42.70922" lon="1.7364">
        <ele>1443</ele>
        <time>2016-09-10T14:30:21Z</time>
      </trkpt>
      <trkpt lat="42.70926" lon="1.7364">
        <ele>1443</ele>
        <time>2016-09-10T14:30:24Z</time>
      </trkpt>
      <trkpt lat="42.70927" lon="1.7364">
        <ele>1443</ele>
        <time>2016-09-10T14:30:25Z</time>
      </trkpt>
      <trkpt lat="42.70928" lon="1.73641">
        <ele>1443</ele>
        <time>2016-09-10T14:30:26Z</time>
      </trkpt>
      <trkpt lat="42.70929" lon="1.73641">
        <ele>1443</ele>
        <time>2016-09-10T14:30:27Z</time>
      </trkpt>
      <trkpt lat="42.7093" lon="1.73643">
        <ele>1443</ele>
        <time>2016-09-10T14:30:28Z</time>
      </trkpt>
      <trkpt lat="42.70934" lon="1.73645">
        <ele>1444</ele>
        <time>2016-09-10T14:30:31Z</time>
      </trkpt>
      <trkpt lat="42.70937" lon="1.73646">
        <ele>1444</ele>
        <time>2016-09-10T14:30:34Z</time>
      </trkpt>
      <trkpt lat="42.70939" lon="1.73646">
        <ele>1444</ele>
        <time>2016-09-10T14:30:37Z</time>
      </trkpt>
      <trkpt lat="42.7094" lon="1.73647">
        <ele>1444</ele>
        <time>2016-09-10T14:30:38Z</time>
      </trkpt>
      <trkpt lat="42.70941" lon="1.73647">
        <ele>1444</ele>
        <time>2016-09-10T14:30:39Z</time>
      </trkpt>
      <trkpt lat="42.70942" lon="1.73648">
        <ele>1444</ele>
        <time>2016-09-10T14:30:40Z</time>
      </trkpt>
      <trkpt lat="42.70943" lon="1.73649">
        <ele>1444</ele>
        <time>2016-09-10T14:30:41Z</time>
      </trkpt>
      <trkpt lat="42.70944" lon="1.7365">
        <ele>1444</ele>
        <time>2016-09-10T14:30:42Z</time>
      </trkpt>
      <trkpt lat="42.70948" lon="1.73647">
        <ele>1443</ele>
        <time>2016-09-10T14:30:47Z</time>
      </trkpt>
      <trkpt lat="42.70952" lon="1.73643">
        <ele>1442</ele>
        <time>2016-09-10T14:30:52Z</time>
      </trkpt>
      <trkpt lat="42.7096" lon="1.73644">
        <ele>1442</ele>
        <time>2016-09-10T14:30:58Z</time>
      </trkpt>
      <trkpt lat="42.70964" lon="1.73644">
        <ele>1442</ele>
        <time>2016-09-10T14:31:03Z</time>
      </trkpt>
      <trkpt lat="42.70967" lon="1.73642">
        <ele>1441</ele>
        <time>2016-09-10T14:31:07Z</time>
      </trkpt>
      <trkpt lat="42.70969" lon="1.73642">
        <ele>1441</ele>
        <time>2016-09-10T14:31:09Z</time>
      </trkpt>
      <trkpt lat="42.70974" lon="1.7364">
        <ele>1440</ele>
        <time>2016-09-10T14:31:15Z</time>
      </trkpt>
      <trkpt lat="42.70975" lon="1.73637">
        <ele>1440</ele>
        <time>2016-09-10T14:31:17Z</time>
      </trkpt>
      <trkpt lat="42.70976" lon="1.73636">
        <ele>1439</ele>
        <time>2016-09-10T14:31:18Z</time>
      </trkpt>
      <trkpt lat="42.70976" lon="1.73635">
        <ele>1439</ele>
        <time>2016-09-10T14:31:19Z</time>
      </trkpt>
      <trkpt lat="42.70976" lon="1.73634">
        <ele>1438</ele>
        <time>2016-09-10T14:31:20Z</time>
      </trkpt>
      <trkpt lat="42.70976" lon="1.73632">
        <ele>1438</ele>
        <time>2016-09-10T14:31:21Z</time>
      </trkpt>
      <trkpt lat="42.70979" lon="1.7363">
        <ele>1437</ele>
        <time>2016-09-10T14:31:24Z</time>
      </trkpt>
      <trkpt lat="42.70981" lon="1.73627">
        <ele>1436</ele>
        <time>2016-09-10T14:31:27Z</time>
      </trkpt>
      <trkpt lat="42.70983" lon="1.73626">
        <ele>1436</ele>
        <time>2016-09-10T14:31:29Z</time>
      </trkpt>
      <trkpt lat="42.70985" lon="1.73626">
        <ele>1436</ele>
        <time>2016-09-10T14:31:30Z</time>
      </trkpt>
      <trkpt lat="42.70986" lon="1.73625">
        <ele>1435</ele>
        <time>2016-09-10T14:31:31Z</time>
      </trkpt>
      <trkpt lat="42.70987" lon="1.73625">
        <ele>1435</ele>
        <time>2016-09-10T14:31:32Z</time>
      </trkpt>
      <trkpt lat="42.70988" lon="1.73625">
        <ele>1435</ele>
        <time>2016-09-10T14:31:33Z</time>
      </trkpt>
      <trkpt lat="42.70995" lon="1.73624">
        <ele>1435</ele>
        <time>2016-09-10T14:31:38Z</time>
      </trkpt>
      <trkpt lat="42.71001" lon="1.73623">
        <ele>1434</ele>
        <time>2016-09-10T14:31:43Z</time>
      </trkpt>
      <trkpt lat="42.71006" lon="1.73621">
        <ele>1434</ele>
        <time>2016-09-10T14:31:47Z</time>
      </trkpt>
      <trkpt lat="42.71009" lon="1.7362">
        <ele>1434</ele>
        <time>2016-09-10T14:31:50Z</time>
      </trkpt>
      <trkpt lat="42.7101" lon="1.73619">
        <ele>1434</ele>
        <time>2016-09-10T14:31:51Z</time>
      </trkpt>
      <trkpt lat="42.71011" lon="1.73619">
        <ele>1434</ele>
        <time>2016-09-10T14:31:52Z</time>
      </trkpt>
      <trkpt lat="42.71012" lon="1.73619">
        <ele>1434</ele>
        <time>2016-09-10T14:31:53Z</time>
      </trkpt>
      <trkpt lat="42.71014" lon="1.73619">
        <ele>1434</ele>
        <time>2016-09-10T14:31:54Z</time>
      </trkpt>
      <trkpt lat="42.71014" lon="1.73619">
        <ele>1434</ele>
        <time>2016-09-10T14:31:55Z</time>
      </trkpt>
      <trkpt lat="42.71017" lon="1.73616">
        <ele>1434</ele>
        <time>2016-09-10T14:31:58Z</time>
      </trkpt>
      <trkpt lat="42.71025" lon="1.73615">
        <ele>1433</ele>
        <time>2016-09-10T14:32:05Z</time>
      </trkpt>
      <trkpt lat="42.71031" lon="1.73615">
        <ele>1433</ele>
        <time>2016-09-10T14:32:12Z</time>
      </trkpt>
      <trkpt lat="42.71037" lon="1.73615">
        <ele>1433</ele>
        <time>2016-09-10T14:32:17Z</time>
      </trkpt>
      <trkpt lat="42.71038" lon="1.73615">
        <ele>1433</ele>
        <time>2016-09-10T14:32:18Z</time>
      </trkpt>
      <trkpt lat="42.71039" lon="1.73615">
        <ele>1433</ele>
        <time>2016-09-10T14:32:19Z</time>
      </trkpt>
      <trkpt lat="42.7104" lon="1.73615">
        <ele>1433</ele>
        <time>2016-09-10T14:32:20Z</time>
      </trkpt>
      <trkpt lat="42.71041" lon="1.73615">
        <ele>1433</ele>
        <time>2016-09-10T14:32:21Z</time>
      </trkpt>
      <trkpt lat="42.71045" lon="1.73614">
        <ele>1433</ele>
        <time>2016-09-10T14:32:25Z</time>
      </trkpt>
      <trkpt lat="42.71049" lon="1.73612">
        <ele>1432</ele>
        <time>2016-09-10T14:32:32Z</time>
      </trkpt>
      <trkpt lat="42.71052" lon="1.73611">
        <ele>1432</ele>
        <time>2016-09-10T14:32:34Z</time>
      </trkpt>
      <trkpt lat="42.71053" lon="1.73609">
        <ele>1432</ele>
        <time>2016-09-10T14:32:37Z</time>
      </trkpt>
      <trkpt lat="42.71055" lon="1.73606">
        <ele>1432</ele>
        <time>2016-09-10T14:32:39Z</time>
      </trkpt>
      <trkpt lat="42.71057" lon="1.73602">
        <ele>1431</ele>
        <time>2016-09-10T14:32:42Z</time>
      </trkpt>
      <trkpt lat="42.71063" lon="1.73597">
        <ele>1430</ele>
        <time>2016-09-10T14:32:47Z</time>
      </trkpt>
      <trkpt lat="42.71064" lon="1.73597">
        <ele>1430</ele>
        <time>2016-09-10T14:32:48Z</time>
      </trkpt>
      <trkpt lat="42.71065" lon="1.73598">
        <ele>1430</ele>
        <time>2016-09-10T14:32:49Z</time>
      </trkpt>
      <trkpt lat="42.71066" lon="1.73598">
        <ele>1430</ele>
        <time>2016-09-10T14:32:50Z</time>
      </trkpt>
      <trkpt lat="42.71067" lon="1.73599">
        <ele>1430</ele>
        <time>2016-09-10T14:32:51Z</time>
      </trkpt>
      <trkpt lat="42.71073" lon="1.73599">
        <ele>1430</ele>
        <time>2016-09-10T14:32:55Z</time>
      </trkpt>
      <trkpt lat="42.7108" lon="1.73597">
        <ele>1429</ele>
        <time>2016-09-10T14:33:01Z</time>
      </trkpt>
      <trkpt lat="42.71085" lon="1.73596">
        <ele>1428</ele>
        <time>2016-09-10T14:33:06Z</time>
      </trkpt>
      <trkpt lat="42.71087" lon="1.73596">
        <ele>1428</ele>
        <time>2016-09-10T14:33:07Z</time>
      </trkpt>
      <trkpt lat="42.71093" lon="1.73593">
        <ele>1427</ele>
        <time>2016-09-10T14:33:13Z</time>
      </trkpt>
      <trkpt lat="42.71097" lon="1.73589">
        <ele>1426</ele>
        <time>2016-09-10T14:33:18Z</time>
      </trkpt>
      <trkpt lat="42.71098" lon="1.73588">
        <ele>1426</ele>
        <time>2016-09-10T14:33:19Z</time>
      </trkpt>
      <trkpt lat="42.71099" lon="1.73588">
        <ele>1426</ele>
        <time>2016-09-10T14:33:20Z</time>
      </trkpt>
      <trkpt lat="42.711" lon="1.73587">
        <ele>1426</ele>
        <time>2016-09-10T14:33:21Z</time>
      </trkpt>
      <trkpt lat="42.71102" lon="1.73586">
        <ele>1425</ele>
        <time>2016-09-10T14:33:22Z</time>
      </trkpt>
      <trkpt lat="42.71105" lon="1.73587">
        <ele>1425</ele>
        <time>2016-09-10T14:33:27Z</time>
      </trkpt>
      <trkpt lat="42.71108" lon="1.73586">
        <ele>1425</ele>
        <time>2016-09-10T14:33:30Z</time>
      </trkpt>
      <trkpt lat="42.71109" lon="1.73586">
        <ele>1425</ele>
        <time>2016-09-10T14:33:31Z</time>
      </trkpt>
      <trkpt lat="42.71111" lon="1.73585">
        <ele>1425</ele>
        <time>2016-09-10T14:33:32Z</time>
      </trkpt>
      <trkpt lat="42.71111" lon="1.73585">
        <ele>1424</ele>
        <time>2016-09-10T14:33:33Z</time>
      </trkpt>
      <trkpt lat="42.71113" lon="1.73584">
        <ele>1424</ele>
        <time>2016-09-10T14:33:34Z</time>
      </trkpt>
      <trkpt lat="42.71119" lon="1.73582">
        <ele>1423</ele>
        <time>2016-09-10T14:33:40Z</time>
      </trkpt>
      <trkpt lat="42.71126" lon="1.73577">
        <ele>1422</ele>
        <time>2016-09-10T14:33:48Z</time>
      </trkpt>
      <trkpt lat="42.71133" lon="1.73569">
        <ele>1420</ele>
        <time>2016-09-10T14:33:56Z</time>
      </trkpt>
      <trkpt lat="42.71141" lon="1.73565">
        <ele>1419</ele>
        <time>2016-09-10T14:34:02Z</time>
      </trkpt>
      <trkpt lat="42.71141" lon="1.73564">
        <ele>1418</ele>
        <time>2016-09-10T14:34:03Z</time>
      </trkpt>
      <trkpt lat="42.71142" lon="1.73564">
        <ele>1418</ele>
        <time>2016-09-10T14:34:04Z</time>
      </trkpt>
      <trkpt lat="42.71143" lon="1.73563">
        <ele>1418</ele>
        <time>2016-09-10T14:34:05Z</time>
      </trkpt>
      <trkpt lat="42.71144" lon="1.73562">
        <ele>1418</ele>
        <time>2016-09-10T14:34:06Z</time>
      </trkpt>
      <trkpt lat="42.71145" lon="1.73562">
        <ele>1418</ele>
        <time>2016-09-10T14:34:07Z</time>
      </trkpt>
      <trkpt lat="42.71151" lon="1.73561">
        <ele>1417</ele>
        <time>2016-09-10T14:34:13Z</time>
      </trkpt>
      <trkpt lat="42.71155" lon="1.73561">
        <ele>1417</ele>
        <time>2016-09-10T14:34:16Z</time>
      </trkpt>
      <trkpt lat="42.71156" lon="1.73561">
        <ele>1417</ele>
        <time>2016-09-10T14:34:17Z</time>
      </trkpt>
      <trkpt lat="42.71157" lon="1.73561">
        <ele>1417</ele>
        <time>2016-09-10T14:34:18Z</time>
      </trkpt>
      <trkpt lat="42.71158" lon="1.73562">
        <ele>1417</ele>
        <time>2016-09-10T14:34:19Z</time>
      </trkpt>
      <trkpt lat="42.71159" lon="1.73562">
        <ele>1417</ele>
        <time>2016-09-10T14:34:20Z</time>
      </trkpt>
      <trkpt lat="42.71167" lon="1.73562">
        <ele>1417</ele>
        <time>2016-09-10T14:34:27Z</time>
      </trkpt>
      <trkpt lat="42.71169" lon="1.73561">
        <ele>1417</ele>
        <time>2016-09-10T14:34:29Z</time>
      </trkpt>
      <trkpt lat="42.71169" lon="1.73561">
        <ele>1417</ele>
        <time>2016-09-10T14:34:30Z</time>
      </trkpt>
      <trkpt lat="42.71169" lon="1.73561">
        <ele>1417</ele>
        <time>2016-09-10T14:34:31Z</time>
      </trkpt>
      <trkpt lat="42.71169" lon="1.73561">
        <ele>1417</ele>
        <time>2016-09-10T14:34:32Z</time>
      </trkpt>
      <trkpt lat="42.71169" lon="1.73561">
        <ele>1417</ele>
        <time>2016-09-10T14:34:33Z</time>
      </trkpt>
      <trkpt lat="42.71169" lon="1.73561">
        <ele>1417</ele>
        <time>2016-09-10T14:34:34Z</time>
      </trkpt>
      <trkpt lat="42.71169" lon="1.73561">
        <ele>1417</ele>
        <time>2016-09-10T14:34:35Z</time>
      </trkpt>
      <trkpt lat="42.71169" lon="1.73561">
        <ele>1417</ele>
        <time>2016-09-10T14:34:36Z</time>
      </trkpt>
      <trkpt lat="42.71169" lon="1.73561">
        <ele>1417</ele>
        <time>2016-09-10T14:34:37Z</time>
      </trkpt>
      <trkpt lat="42.71169" lon="1.73561">
        <ele>1417</ele>
        <time>2016-09-10T14:34:38Z</time>
      </trkpt>
      <trkpt lat="42.71169" lon="1.73561">
        <ele>1416</ele>
        <time>2016-09-10T14:34:43Z</time>
      </trkpt>
      <trkpt lat="42.71169" lon="1.73561">
        <ele>1416</ele>
        <time>2016-09-10T14:34:44Z</time>
      </trkpt>
      <trkpt lat="42.71169" lon="1.73561">
        <ele>1416</ele>
        <time>2016-09-10T14:34:45Z</time>
      </trkpt>
      <trkpt lat="42.71169" lon="1.73561">
        <ele>1416</ele>
        <time>2016-09-10T14:34:46Z</time>
      </trkpt>
      <trkpt lat="42.71169" lon="1.73561">
        <ele>1416</ele>
        <time>2016-09-10T14:34:47Z</time>
      </trkpt>
      <trkpt lat="42.71169" lon="1.73561">
        <ele>1416</ele>
        <time>2016-09-10T14:34:48Z</time>
      </trkpt>
      <trkpt lat="42.71169" lon="1.73561">
        <ele>1416</ele>
        <time>2016-09-10T14:34:49Z</time>
      </trkpt>
      <trkpt lat="42.71169" lon="1.73561">
        <ele>1416</ele>
        <time>2016-09-10T14:34:50Z</time>
      </trkpt>
      <trkpt lat="42.71169" lon="1.73561">
        <ele>1416</ele>
        <time>2016-09-10T14:34:54Z</time>
      </trkpt>
      <trkpt lat="42.71169" lon="1.73561">
        <ele>1416</ele>
        <time>2016-09-10T14:35:02Z</time>
      </trkpt>
      <trkpt lat="42.71169" lon="1.73561">
        <ele>1416</ele>
        <time>2016-09-10T14:35:12Z</time>
      </trkpt>
      <trkpt lat="42.71169" lon="1.73561">
        <ele>1417</ele>
        <time>2016-09-10T14:35:24Z</time>
      </trkpt>
      <trkpt lat="42.7117" lon="1.73561">
        <ele>1416</ele>
        <time>2016-09-10T14:35:34Z</time>
      </trkpt>
      <trkpt lat="42.7117" lon="1.73561">
        <ele>1416</ele>
        <time>2016-09-10T14:35:44Z</time>
      </trkpt>
      <trkpt lat="42.7117" lon="1.73561">
        <ele>1416</ele>
        <time>2016-09-10T14:35:57Z</time>
      </trkpt>
      <trkpt lat="42.7117" lon="1.73561">
        <ele>1416</ele>
        <time>2016-09-10T14:36:08Z</time>
      </trkpt>
      <trkpt lat="42.7117" lon="1.73561">
        <ele>1416</ele>
        <time>2016-09-10T14:36:17Z</time>
      </trkpt>
      <trkpt lat="42.7117" lon="1.73561">
        <ele>1416</ele>
        <time>2016-09-10T14:36:18Z</time>
      </trkpt>
      <trkpt lat="42.7117" lon="1.73561">
        <ele>1416</ele>
        <time>2016-09-10T14:36:19Z</time>
      </trkpt>
      <trkpt lat="42.7117" lon="1.73561">
        <ele>1416</ele>
        <time>2016-09-10T14:36:20Z</time>
      </trkpt>
      <trkpt lat="42.7117" lon="1.73561">
        <ele>1416</ele>
        <time>2016-09-10T14:36:21Z</time>
      </trkpt>
      <trkpt lat="42.7117" lon="1.73561">
        <ele>1416</ele>
        <time>2016-09-10T14:36:22Z</time>
      </trkpt>
      <trkpt lat="42.71173" lon="1.73562">
        <ele>1417</ele>
        <time>2016-09-10T14:36:28Z</time>
      </trkpt>
      <trkpt lat="42.71178" lon="1.73561">
        <ele>1416</ele>
        <time>2016-09-10T14:36:37Z</time>
      </trkpt>
      <trkpt lat="42.7118" lon="1.7356">
        <ele>1416</ele>
        <time>2016-09-10T14:36:38Z</time>
      </trkpt>
      <trkpt lat="42.71184" lon="1.73559">
        <ele>1415</ele>
        <time>2016-09-10T14:36:42Z</time>
      </trkpt>
      <trkpt lat="42.71188" lon="1.73561">
        <ele>1416</ele>
        <time>2016-09-10T14:36:48Z</time>
      </trkpt>
      <trkpt lat="42.71194" lon="1.73558">
        <ele>1415</ele>
        <time>2016-09-10T14:36:55Z</time>
      </trkpt>
      <trkpt lat="42.71198" lon="1.73556">
        <ele>1414</ele>
        <time>2016-09-10T14:37:00Z</time>
      </trkpt>
      <trkpt lat="42.712" lon="1.73557">
        <ele>1414</ele>
        <time>2016-09-10T14:37:03Z</time>
      </trkpt>
      <trkpt lat="42.71202" lon="1.73556">
        <ele>1414</ele>
        <time>2016-09-10T14:37:04Z</time>
      </trkpt>
      <trkpt lat="42.71202" lon="1.73556">
        <ele>1414</ele>
        <time>2016-09-10T14:37:05Z</time>
      </trkpt>
      <trkpt lat="42.71203" lon="1.73556">
        <ele>1414</ele>
        <time>2016-09-10T14:37:06Z</time>
      </trkpt>
      <trkpt lat="42.71204" lon="1.73555">
        <ele>1414</ele>
        <time>2016-09-10T14:37:07Z</time>
      </trkpt>
      <trkpt lat="42.7121" lon="1.73552">
        <ele>1413</ele>
        <time>2016-09-10T14:37:14Z</time>
      </trkpt>
      <trkpt lat="42.71214" lon="1.73551">
        <ele>1413</ele>
        <time>2016-09-10T14:37:20Z</time>
      </trkpt>
      <trkpt lat="42.71217" lon="1.73548">
        <ele>1412</ele>
        <time>2016-09-10T14:37:27Z</time>
      </trkpt>
      <trkpt lat="42.71218" lon="1.73547">
        <ele>1412</ele>
        <time>2016-09-10T14:37:28Z</time>
      </trkpt>
      <trkpt lat="42.71219" lon="1.73547">
        <ele>1412</ele>
        <time>2016-09-10T14:37:29Z</time>
      </trkpt>
      <trkpt lat="42.71219" lon="1.73547">
        <ele>1412</ele>
        <time>2016-09-10T14:37:30Z</time>
      </trkpt>
      <trkpt lat="42.71221" lon="1.73545">
        <ele>1412</ele>
        <time>2016-09-10T14:37:31Z</time>
      </trkpt>
      <trkpt lat="42.71222" lon="1.73542">
        <ele>1411</ele>
        <time>2016-09-10T14:37:33Z</time>
      </trkpt>
      <trkpt lat="42.71224" lon="1.73539">
        <ele>1411</ele>
        <time>2016-09-10T14:37:36Z</time>
      </trkpt>
      <trkpt lat="42.71224" lon="1.73538">
        <ele>1411</ele>
        <time>2016-09-10T14:37:37Z</time>
      </trkpt>
      <trkpt lat="42.71224" lon="1.73538">
        <ele>1411</ele>
        <time>2016-09-10T14:37:38Z</time>
      </trkpt>
      <trkpt lat="42.71224" lon="1.73538">
        <ele>1411</ele>
        <time>2016-09-10T14:37:39Z</time>
      </trkpt>
      <trkpt lat="42.71224" lon="1.73537">
        <ele>1410</ele>
        <time>2016-09-10T14:37:40Z</time>
      </trkpt>
      <trkpt lat="42.71225" lon="1.73533">
        <ele>1410</ele>
        <time>2016-09-10T14:37:43Z</time>
      </trkpt>
      <trkpt lat="42.71226" lon="1.7353">
        <ele>1409</ele>
        <time>2016-09-10T14:37:45Z</time>
      </trkpt>
      <trkpt lat="42.71227" lon="1.73524">
        <ele>1408</ele>
        <time>2016-09-10T14:37:50Z</time>
      </trkpt>
      <trkpt lat="42.71226" lon="1.73523">
        <ele>1408</ele>
        <time>2016-09-10T14:37:51Z</time>
      </trkpt>
      <trkpt lat="42.71226" lon="1.73523">
        <ele>1408</ele>
        <time>2016-09-10T14:37:52Z</time>
      </trkpt>
      <trkpt lat="42.71225" lon="1.73521">
        <ele>1408</ele>
        <time>2016-09-10T14:37:53Z</time>
      </trkpt>
      <trkpt lat="42.71224" lon="1.7352">
        <ele>1408</ele>
        <time>2016-09-10T14:37:54Z</time>
      </trkpt>
      <trkpt lat="42.71224" lon="1.73518">
        <ele>1408</ele>
        <time>2016-09-10T14:37:57Z</time>
      </trkpt>
      <trkpt lat="42.71229" lon="1.73513">
        <ele>1407</ele>
        <time>2016-09-10T14:38:04Z</time>
      </trkpt>
      <trkpt lat="42.7123" lon="1.73511">
        <ele>1406</ele>
        <time>2016-09-10T14:38:06Z</time>
      </trkpt>
      <trkpt lat="42.71231" lon="1.7351">
        <ele>1406</ele>
        <time>2016-09-10T14:38:07Z</time>
      </trkpt>
      <trkpt lat="42.71232" lon="1.73508">
        <ele>1406</ele>
        <time>2016-09-10T14:38:08Z</time>
      </trkpt>
      <trkpt lat="42.71232" lon="1.73506">
        <ele>1405</ele>
        <time>2016-09-10T14:38:09Z</time>
      </trkpt>
      <trkpt lat="42.71233" lon="1.73504">
        <ele>1405</ele>
        <time>2016-09-10T14:38:10Z</time>
      </trkpt>
      <trkpt lat="42.71234" lon="1.73502">
        <ele>1405</ele>
        <time>2016-09-10T14:38:12Z</time>
      </trkpt>
      <trkpt lat="42.71236" lon="1.73497">
        <ele>1404</ele>
        <time>2016-09-10T14:38:16Z</time>
      </trkpt>
      <trkpt lat="42.71237" lon="1.73495">
        <ele>1404</ele>
        <time>2016-09-10T14:38:17Z</time>
      </trkpt>
      <trkpt lat="42.71238" lon="1.73495">
        <ele>1404</ele>
        <time>2016-09-10T14:38:18Z</time>
      </trkpt>
      <trkpt lat="42.71239" lon="1.73495">
        <ele>1403</ele>
        <time>2016-09-10T14:38:19Z</time>
      </trkpt>
      <trkpt lat="42.7124" lon="1.73495">
        <ele>1403</ele>
        <time>2016-09-10T14:38:20Z</time>
      </trkpt>
      <trkpt lat="42.71244" lon="1.73495">
        <ele>1403</ele>
        <time>2016-09-10T14:38:22Z</time>
      </trkpt>
      <trkpt lat="42.71247" lon="1.73496">
        <ele>1402</ele>
        <time>2016-09-10T14:38:24Z</time>
      </trkpt>
      <trkpt lat="42.71254" lon="1.73493">
        <ele>1402</ele>
        <time>2016-09-10T14:38:29Z</time>
      </trkpt>
      <trkpt lat="42.71255" lon="1.73492">
        <ele>1402</ele>
        <time>2016-09-10T14:38:30Z</time>
      </trkpt>
      <trkpt lat="42.71256" lon="1.73492">
        <ele>1401</ele>
        <time>2016-09-10T14:38:31Z</time>
      </trkpt>
      <trkpt lat="42.71257" lon="1.73491">
        <ele>1401</ele>
        <time>2016-09-10T14:38:32Z</time>
      </trkpt>
      <trkpt lat="42.71258" lon="1.73491">
        <ele>1401</ele>
        <time>2016-09-10T14:38:33Z</time>
      </trkpt>
      <trkpt lat="42.71259" lon="1.7349">
        <ele>1401</ele>
        <time>2016-09-10T14:38:34Z</time>
      </trkpt>
      <trkpt lat="42.71264" lon="1.73488">
        <ele>1401</ele>
        <time>2016-09-10T14:38:38Z</time>
      </trkpt>
      <trkpt lat="42.71268" lon="1.73487">
        <ele>1401</ele>
        <time>2016-09-10T14:38:42Z</time>
      </trkpt>
      <trkpt lat="42.7127" lon="1.73487">
        <ele>1401</ele>
        <time>2016-09-10T14:38:43Z</time>
      </trkpt>
      <trkpt lat="42.71271" lon="1.73486">
        <ele>1400</ele>
        <time>2016-09-10T14:38:44Z</time>
      </trkpt>
      <trkpt lat="42.71272" lon="1.73486">
        <ele>1400</ele>
        <time>2016-09-10T14:38:45Z</time>
      </trkpt>
      <trkpt lat="42.71274" lon="1.73487">
        <ele>1400</ele>
        <time>2016-09-10T14:38:46Z</time>
      </trkpt>
      <trkpt lat="42.71279" lon="1.73487">
        <ele>1400</ele>
        <time>2016-09-10T14:38:50Z</time>
      </trkpt>
      <trkpt lat="42.7128" lon="1.73488">
        <ele>1400</ele>
        <time>2016-09-10T14:38:51Z</time>
      </trkpt>
      <trkpt lat="42.71287" lon="1.73487">
        <ele>1400</ele>
        <time>2016-09-10T14:38:56Z</time>
      </trkpt>
      <trkpt lat="42.7129" lon="1.73486">
        <ele>1400</ele>
        <time>2016-09-10T14:38:58Z</time>
      </trkpt>
      <trkpt lat="42.71296" lon="1.73486">
        <ele>1399</ele>
        <time>2016-09-10T14:39:02Z</time>
      </trkpt>
      <trkpt lat="42.71298" lon="1.73485">
        <ele>1399</ele>
        <time>2016-09-10T14:39:04Z</time>
      </trkpt>
      <trkpt lat="42.71304" lon="1.73487">
        <ele>1399</ele>
        <time>2016-09-10T14:39:09Z</time>
      </trkpt>
      <trkpt lat="42.71304" lon="1.73487">
        <ele>1399</ele>
        <time>2016-09-10T14:39:10Z</time>
      </trkpt>
      <trkpt lat="42.71305" lon="1.73487">
        <ele>1399</ele>
        <time>2016-09-10T14:39:11Z</time>
      </trkpt>
      <trkpt lat="42.71306" lon="1.73485">
        <ele>1399</ele>
        <time>2016-09-10T14:39:12Z</time>
      </trkpt>
      <trkpt lat="42.71307" lon="1.73481">
        <ele>1399</ele>
        <time>2016-09-10T14:39:15Z</time>
      </trkpt>
      <trkpt lat="42.71307" lon="1.73478">
        <ele>1399</ele>
        <time>2016-09-10T14:39:17Z</time>
      </trkpt>
      <trkpt lat="42.71307" lon="1.73477">
        <ele>1399</ele>
        <time>2016-09-10T14:39:18Z</time>
      </trkpt>
      <trkpt lat="42.71308" lon="1.73475">
        <ele>1398</ele>
        <time>2016-09-10T14:39:19Z</time>
      </trkpt>
      <trkpt lat="42.71308" lon="1.73474">
        <ele>1398</ele>
        <time>2016-09-10T14:39:20Z</time>
      </trkpt>
      <trkpt lat="42.7131" lon="1.73473">
        <ele>1398</ele>
        <time>2016-09-10T14:39:21Z</time>
      </trkpt>
      <trkpt lat="42.71315" lon="1.73466">
        <ele>1398</ele>
        <time>2016-09-10T14:39:27Z</time>
      </trkpt>
      <trkpt lat="42.71316" lon="1.73463">
        <ele>1398</ele>
        <time>2016-09-10T14:39:33Z</time>
      </trkpt>
      <trkpt lat="42.71318" lon="1.73459">
        <ele>1397</ele>
        <time>2016-09-10T14:39:41Z</time>
      </trkpt>
      <trkpt lat="42.7132" lon="1.73458">
        <ele>1397</ele>
        <time>2016-09-10T14:39:43Z</time>
      </trkpt>
      <trkpt lat="42.71326" lon="1.73458">
        <ele>1397</ele>
        <time>2016-09-10T14:39:47Z</time>
      </trkpt>
      <trkpt lat="42.71329" lon="1.73456">
        <ele>1397</ele>
        <time>2016-09-10T14:39:49Z</time>
      </trkpt>
      <trkpt lat="42.71334" lon="1.73454">
        <ele>1396</ele>
        <time>2016-09-10T14:39:53Z</time>
      </trkpt>
      <trkpt lat="42.71337" lon="1.73451">
        <ele>1396</ele>
        <time>2016-09-10T14:39:56Z</time>
      </trkpt>
      <trkpt lat="42.71343" lon="1.73449">
        <ele>1396</ele>
        <time>2016-09-10T14:39:58Z</time>
      </trkpt>
      <trkpt lat="42.71351" lon="1.73444">
        <ele>1395</ele>
        <time>2016-09-10T14:40:04Z</time>
      </trkpt>
      <trkpt lat="42.71359" lon="1.73442">
        <ele>1395</ele>
        <time>2016-09-10T14:40:09Z</time>
      </trkpt>
      <trkpt lat="42.71366" lon="1.73439">
        <ele>1394</ele>
        <time>2016-09-10T14:40:15Z</time>
      </trkpt>
      <trkpt lat="42.71368" lon="1.73439">
        <ele>1394</ele>
        <time>2016-09-10T14:40:16Z</time>
      </trkpt>
      <trkpt lat="42.7137" lon="1.73438">
        <ele>1394</ele>
        <time>2016-09-10T14:40:18Z</time>
      </trkpt>
      <trkpt lat="42.71374" lon="1.73437">
        <ele>1394</ele>
        <time>2016-09-10T14:40:21Z</time>
      </trkpt>
      <trkpt lat="42.71375" lon="1.73437">
        <ele>1394</ele>
        <time>2016-09-10T14:40:22Z</time>
      </trkpt>
      <trkpt lat="42.71375" lon="1.73437">
        <ele>1394</ele>
        <time>2016-09-10T14:40:23Z</time>
      </trkpt>
      <trkpt lat="42.71377" lon="1.73436">
        <ele>1394</ele>
        <time>2016-09-10T14:40:24Z</time>
      </trkpt>
      <trkpt lat="42.71377" lon="1.73435">
        <ele>1394</ele>
        <time>2016-09-10T14:40:25Z</time>
      </trkpt>
      <trkpt lat="42.71378" lon="1.73434">
        <ele>1394</ele>
        <time>2016-09-10T14:40:26Z</time>
      </trkpt>
      <trkpt lat="42.71379" lon="1.73433">
        <ele>1394</ele>
        <time>2016-09-10T14:40:27Z</time>
      </trkpt>
      <trkpt lat="42.71385" lon="1.73428">
        <ele>1393</ele>
        <time>2016-09-10T14:40:33Z</time>
      </trkpt>
      <trkpt lat="42.71391" lon="1.73424">
        <ele>1393</ele>
        <time>2016-09-10T14:40:39Z</time>
      </trkpt>
      <trkpt lat="42.71399" lon="1.73421">
        <ele>1393</ele>
        <time>2016-09-10T14:40:45Z</time>
      </trkpt>
      <trkpt lat="42.71404" lon="1.73419">
        <ele>1392</ele>
        <time>2016-09-10T14:40:50Z</time>
      </trkpt>
      <trkpt lat="42.71406" lon="1.73418">
        <ele>1392</ele>
        <time>2016-09-10T14:40:51Z</time>
      </trkpt>
      <trkpt lat="42.71407" lon="1.73417">
        <ele>1392</ele>
        <time>2016-09-10T14:40:52Z</time>
      </trkpt>
      <trkpt lat="42.71409" lon="1.73416">
        <ele>1392</ele>
        <time>2016-09-10T14:40:53Z</time>
      </trkpt>
      <trkpt lat="42.7141" lon="1.73416">
        <ele>1392</ele>
        <time>2016-09-10T14:40:54Z</time>
      </trkpt>
      <trkpt lat="42.71417" lon="1.73418">
        <ele>1392</ele>
        <time>2016-09-10T14:40:59Z</time>
      </trkpt>
      <trkpt lat="42.71425" lon="1.73416">
        <ele>1391</ele>
        <time>2016-09-10T14:41:05Z</time>
      </trkpt>
      <trkpt lat="42.71433" lon="1.73419">
        <ele>1391</ele>
        <time>2016-09-10T14:41:11Z</time>
      </trkpt>
      <trkpt lat="42.71441" lon="1.73422">
        <ele>1391</ele>
        <time>2016-09-10T14:41:17Z</time>
      </trkpt>
      <trkpt lat="42.71447" lon="1.73423">
        <ele>1390</ele>
        <time>2016-09-10T14:41:22Z</time>
      </trkpt>
      <trkpt lat="42.71449" lon="1.73422">
        <ele>1390</ele>
        <time>2016-09-10T14:41:24Z</time>
      </trkpt>
      <trkpt lat="42.71453" lon="1.7342">
        <ele>1390</ele>
        <time>2016-09-10T14:41:27Z</time>
      </trkpt>
      <trkpt lat="42.71461" lon="1.73414">
        <ele>1390</ele>
        <time>2016-09-10T14:41:34Z</time>
      </trkpt>
      <trkpt lat="42.71462" lon="1.73413">
        <ele>1389</ele>
        <time>2016-09-10T14:41:35Z</time>
      </trkpt>
      <trkpt lat="42.71462" lon="1.73412">
        <ele>1389</ele>
        <time>2016-09-10T14:41:36Z</time>
      </trkpt>
      <trkpt lat="42.71463" lon="1.73411">
        <ele>1389</ele>
        <time>2016-09-10T14:41:37Z</time>
      </trkpt>
      <trkpt lat="42.71464" lon="1.7341">
        <ele>1389</ele>
        <time>2016-09-10T14:41:38Z</time>
      </trkpt>
      <trkpt lat="42.71465" lon="1.73409">
        <ele>1389</ele>
        <time>2016-09-10T14:41:39Z</time>
      </trkpt>
      <trkpt lat="42.71468" lon="1.73409">
        <ele>1389</ele>
        <time>2016-09-10T14:41:41Z</time>
      </trkpt>
      <trkpt lat="42.7147" lon="1.73414">
        <ele>1389</ele>
        <time>2016-09-10T14:41:46Z</time>
      </trkpt>
      <trkpt lat="42.71473" lon="1.73418">
        <ele>1389</ele>
        <time>2016-09-10T14:41:52Z</time>
      </trkpt>
      <trkpt lat="42.71475" lon="1.7342">
        <ele>1389</ele>
        <time>2016-09-10T14:41:54Z</time>
      </trkpt>
      <trkpt lat="42.71477" lon="1.73423">
        <ele>1389</ele>
        <time>2016-09-10T14:41:58Z</time>
      </trkpt>
      <trkpt lat="42.71482" lon="1.73428">
        <ele>1388</ele>
        <time>2016-09-10T14:42:03Z</time>
      </trkpt>
      <trkpt lat="42.71485" lon="1.73429">
        <ele>1388</ele>
        <time>2016-09-10T14:42:07Z</time>
      </trkpt>
      <trkpt lat="42.71487" lon="1.73429">
        <ele>1388</ele>
        <time>2016-09-10T14:42:08Z</time>
      </trkpt>
      <trkpt lat="42.71491" lon="1.73427">
        <ele>1388</ele>
        <time>2016-09-10T14:42:14Z</time>
      </trkpt>
      <trkpt lat="42.71497" lon="1.73427">
        <ele>1387</ele>
        <time>2016-09-10T14:42:20Z</time>
      </trkpt>
      <trkpt lat="42.71497" lon="1.73427">
        <ele>1387</ele>
        <time>2016-09-10T14:42:21Z</time>
      </trkpt>
      <trkpt lat="42.71499" lon="1.73427">
        <ele>1387</ele>
        <time>2016-09-10T14:42:22Z</time>
      </trkpt>
      <trkpt lat="42.71501" lon="1.73427">
        <ele>1387</ele>
        <time>2016-09-10T14:42:23Z</time>
      </trkpt>
      <trkpt lat="42.71502" lon="1.73427">
        <ele>1387</ele>
        <time>2016-09-10T14:42:24Z</time>
      </trkpt>
      <trkpt lat="42.71505" lon="1.73426">
        <ele>1387</ele>
        <time>2016-09-10T14:42:27Z</time>
      </trkpt>
      <trkpt lat="42.71513" lon="1.73425">
        <ele>1387</ele>
        <time>2016-09-10T14:42:33Z</time>
      </trkpt>
      <trkpt lat="42.71519" lon="1.73425">
        <ele>1386</ele>
        <time>2016-09-10T14:42:38Z</time>
      </trkpt>
      <trkpt lat="42.71523" lon="1.73426">
        <ele>1386</ele>
        <time>2016-09-10T14:42:43Z</time>
      </trkpt>
      <trkpt lat="42.71526" lon="1.7343">
        <ele>1385</ele>
        <time>2016-09-10T14:42:48Z</time>
      </trkpt>
      <trkpt lat="42.71527" lon="1.7343">
        <ele>1385</ele>
        <time>2016-09-10T14:42:49Z</time>
      </trkpt>
      <trkpt lat="42.7153" lon="1.73435">
        <ele>1385</ele>
        <time>2016-09-10T14:42:55Z</time>
      </trkpt>
      <trkpt lat="42.71529" lon="1.73432">
        <ele>1385</ele>
        <time>2016-09-10T14:43:02Z</time>
      </trkpt>
      <trkpt lat="42.7153" lon="1.73429">
        <ele>1385</ele>
        <time>2016-09-10T14:43:07Z</time>
      </trkpt>
      <trkpt lat="42.7153" lon="1.73429">
        <ele>1385</ele>
        <time>2016-09-10T14:43:17Z</time>
      </trkpt>
      <trkpt lat="42.7153" lon="1.73429">
        <ele>1385</ele>
        <time>2016-09-10T14:43:27Z</time>
      </trkpt>
      <trkpt lat="42.7153" lon="1.73429">
        <ele>1385</ele>
        <time>2016-09-10T14:43:40Z</time>
      </trkpt>
      <trkpt lat="42.7153" lon="1.73429">
        <ele>1385</ele>
        <time>2016-09-10T14:43:47Z</time>
      </trkpt>
      <trkpt lat="42.71533" lon="1.73426">
        <ele>1386</ele>
        <time>2016-09-10T14:43:55Z</time>
      </trkpt>
      <trkpt lat="42.71538" lon="1.73429">
        <ele>1386</ele>
        <time>2016-09-10T14:44:01Z</time>
      </trkpt>
      <trkpt lat="42.71548" lon="1.73432">
        <ele>1386</ele>
        <time>2016-09-10T14:44:10Z</time>
      </trkpt>
      <trkpt lat="42.71554" lon="1.73433">
        <ele>1386</ele>
        <time>2016-09-10T14:44:17Z</time>
      </trkpt>
      <trkpt lat="42.7155" lon="1.73427">
        <ele>1386</ele>
        <time>2016-09-10T14:44:24Z</time>
      </trkpt>
      <trkpt lat="42.71547" lon="1.73421">
        <ele>1386</ele>
        <time>2016-09-10T14:44:27Z</time>
      </trkpt>
      <trkpt lat="42.71544" lon="1.73417">
        <ele>1387</ele>
        <time>2016-09-10T14:44:30Z</time>
      </trkpt>
      <trkpt lat="42.71543" lon="1.73416">
        <ele>1387</ele>
        <time>2016-09-10T14:44:31Z</time>
      </trkpt>
      <trkpt lat="42.71542" lon="1.73415">
        <ele>1387</ele>
        <time>2016-09-10T14:44:32Z</time>
      </trkpt>
      <trkpt lat="42.71541" lon="1.73414">
        <ele>1387</ele>
        <time>2016-09-10T14:44:33Z</time>
      </trkpt>
      <trkpt lat="42.7154" lon="1.73412">
        <ele>1387</ele>
        <time>2016-09-10T14:44:35Z</time>
      </trkpt>
      <trkpt lat="42.71539" lon="1.73406">
        <ele>1387</ele>
        <time>2016-09-10T14:44:38Z</time>
      </trkpt>
      <trkpt lat="42.71539" lon="1.73405">
        <ele>1387</ele>
        <time>2016-09-10T14:44:39Z</time>
      </trkpt>
      <trkpt lat="42.71539" lon="1.73405">
        <ele>1387</ele>
        <time>2016-09-10T14:44:40Z</time>
      </trkpt>
      <trkpt lat="42.7154" lon="1.73403">
        <ele>1387</ele>
        <time>2016-09-10T14:44:41Z</time>
      </trkpt>
      <trkpt lat="42.71541" lon="1.73403">
        <ele>1387</ele>
        <time>2016-09-10T14:44:42Z</time>
      </trkpt>
      <trkpt lat="42.71545" lon="1.73404">
        <ele>1387</ele>
        <time>2016-09-10T14:44:44Z</time>
      </trkpt>
      <trkpt lat="42.71558" lon="1.73406">
        <ele>1388</ele>
        <time>2016-09-10T14:44:53Z</time>
      </trkpt>
      <trkpt lat="42.71568" lon="1.73406">
        <ele>1388</ele>
        <time>2016-09-10T14:45:00Z</time>
      </trkpt>
      <trkpt lat="42.71578" lon="1.73403">
        <ele>1389</ele>
        <time>2016-09-10T14:45:07Z</time>
      </trkpt>
      <trkpt lat="42.71585" lon="1.734">
        <ele>1389</ele>
        <time>2016-09-10T14:45:11Z</time>
      </trkpt>
      <trkpt lat="42.71585" lon="1.734">
        <ele>1389</ele>
        <time>2016-09-10T14:45:12Z</time>
      </trkpt>
      <trkpt lat="42.71587" lon="1.73399">
        <ele>1389</ele>
        <time>2016-09-10T14:45:13Z</time>
      </trkpt>
      <trkpt lat="42.71588" lon="1.73398">
        <ele>1389</ele>
        <time>2016-09-10T14:45:14Z</time>
      </trkpt>
      <trkpt lat="42.7159" lon="1.73398">
        <ele>1389</ele>
        <time>2016-09-10T14:45:15Z</time>
      </trkpt>
      <trkpt lat="42.71595" lon="1.73398">
        <ele>1389</ele>
        <time>2016-09-10T14:45:19Z</time>
      </trkpt>
      <trkpt lat="42.71603" lon="1.73395">
        <ele>1389</ele>
        <time>2016-09-10T14:45:26Z</time>
      </trkpt>
      <trkpt lat="42.71608" lon="1.73393">
        <ele>1389</ele>
        <time>2016-09-10T14:45:32Z</time>
      </trkpt>
      <trkpt lat="42.71609" lon="1.73396">
        <ele>1389</ele>
        <time>2016-09-10T14:45:39Z</time>
      </trkpt>
      <trkpt lat="42.71612" lon="1.73399">
        <ele>1389</ele>
        <time>2016-09-10T14:45:48Z</time>
      </trkpt>
      <trkpt lat="42.71617" lon="1.73398">
        <ele>1389</ele>
        <time>2016-09-10T14:45:56Z</time>
      </trkpt>
      <trkpt lat="42.7162" lon="1.73395">
        <ele>1389</ele>
        <time>2016-09-10T14:46:00Z</time>
      </trkpt>
      <trkpt lat="42.7162" lon="1.73395">
        <ele>1389</ele>
        <time>2016-09-10T14:46:01Z</time>
      </trkpt>
      <trkpt lat="42.71622" lon="1.73393">
        <ele>1389</ele>
        <time>2016-09-10T14:46:02Z</time>
      </trkpt>
      <trkpt lat="42.71624" lon="1.73392">
        <ele>1389</ele>
        <time>2016-09-10T14:46:03Z</time>
      </trkpt>
      <trkpt lat="42.71625" lon="1.73392">
        <ele>1389</ele>
        <time>2016-09-10T14:46:04Z</time>
      </trkpt>
      <trkpt lat="42.71632" lon="1.73392">
        <ele>1388</ele>
        <time>2016-09-10T14:46:10Z</time>
      </trkpt>
      <trkpt lat="42.71639" lon="1.7339">
        <ele>1388</ele>
        <time>2016-09-10T14:46:16Z</time>
      </trkpt>
      <trkpt lat="42.7164" lon="1.73391">
        <ele>1388</ele>
        <time>2016-09-10T14:46:17Z</time>
      </trkpt>
      <trkpt lat="42.71641" lon="1.73392">
        <ele>1388</ele>
        <time>2016-09-10T14:46:18Z</time>
      </trkpt>
      <trkpt lat="42.71642" lon="1.73393">
        <ele>1388</ele>
        <time>2016-09-10T14:46:19Z</time>
      </trkpt>
      <trkpt lat="42.71643" lon="1.73393">
        <ele>1387</ele>
        <time>2016-09-10T14:46:20Z</time>
      </trkpt>
      <trkpt lat="42.71647" lon="1.73396">
        <ele>1387</ele>
        <time>2016-09-10T14:46:24Z</time>
      </trkpt>
      <trkpt lat="42.71652" lon="1.73397">
        <ele>1387</ele>
        <time>2016-09-10T14:46:32Z</time>
      </trkpt>
      <trkpt lat="42.7166" lon="1.73398">
        <ele>1387</ele>
        <time>2016-09-10T14:46:38Z</time>
      </trkpt>
      <trkpt lat="42.71661" lon="1.73399">
        <ele>1387</ele>
        <time>2016-09-10T14:46:39Z</time>
      </trkpt>
      <trkpt lat="42.71662" lon="1.73399">
        <ele>1387</ele>
        <time>2016-09-10T14:46:40Z</time>
      </trkpt>
      <trkpt lat="42.71662" lon="1.73399">
        <ele>1387</ele>
        <time>2016-09-10T14:46:41Z</time>
      </trkpt>
      <trkpt lat="42.71662" lon="1.73399">
        <ele>1386</ele>
        <time>2016-09-10T14:46:42Z</time>
      </trkpt>
      <trkpt lat="42.71664" lon="1.73399">
        <ele>1386</ele>
        <time>2016-09-10T14:46:45Z</time>
      </trkpt>
      <trkpt lat="42.71672" lon="1.734">
        <ele>1386</ele>
        <time>2016-09-10T14:46:52Z</time>
      </trkpt>
      <trkpt lat="42.71685" lon="1.73405">
        <ele>1384</ele>
        <time>2016-09-10T14:47:00Z</time>
      </trkpt>
      <trkpt lat="42.71693" lon="1.73409">
        <ele>1383</ele>
        <time>2016-09-10T14:47:08Z</time>
      </trkpt>
      <trkpt lat="42.71694" lon="1.7341">
        <ele>1383</ele>
        <time>2016-09-10T14:47:09Z</time>
      </trkpt>
      <trkpt lat="42.71694" lon="1.73411">
        <ele>1383</ele>
        <time>2016-09-10T14:47:10Z</time>
      </trkpt>
      <trkpt lat="42.71695" lon="1.73412">
        <ele>1383</ele>
        <time>2016-09-10T14:47:11Z</time>
      </trkpt>
      <trkpt lat="42.71696" lon="1.73412">
        <ele>1383</ele>
        <time>2016-09-10T14:47:12Z</time>
      </trkpt>
      <trkpt lat="42.71701" lon="1.73413">
        <ele>1382</ele>
        <time>2016-09-10T14:47:15Z</time>
      </trkpt>
      <trkpt lat="42.71706" lon="1.73414">
        <ele>1381</ele>
        <time>2016-09-10T14:47:22Z</time>
      </trkpt>
      <trkpt lat="42.71715" lon="1.7342">
        <ele>1380</ele>
        <time>2016-09-10T14:47:30Z</time>
      </trkpt>
      <trkpt lat="42.71723" lon="1.73424">
        <ele>1379</ele>
        <time>2016-09-10T14:47:37Z</time>
      </trkpt>
      <trkpt lat="42.71733" lon="1.73422">
        <ele>1378</ele>
        <time>2016-09-10T14:47:43Z</time>
      </trkpt>
      <trkpt lat="42.71739" lon="1.73417">
        <ele>1377</ele>
        <time>2016-09-10T14:47:51Z</time>
      </trkpt>
      <trkpt lat="42.71744" lon="1.73416">
        <ele>1377</ele>
        <time>2016-09-10T14:47:58Z</time>
      </trkpt>
      <trkpt lat="42.7175" lon="1.73412">
        <ele>1377</ele>
        <time>2016-09-10T14:48:07Z</time>
      </trkpt>
      <trkpt lat="42.71759" lon="1.73396">
        <ele>1379</ele>
        <time>2016-09-10T14:48:16Z</time>
      </trkpt>
      <trkpt lat="42.7176" lon="1.73394">
        <ele>1379</ele>
        <time>2016-09-10T14:48:18Z</time>
      </trkpt>
      <trkpt lat="42.71762" lon="1.73393">
        <ele>1379</ele>
        <time>2016-09-10T14:48:19Z</time>
      </trkpt>
      <trkpt lat="42.71763" lon="1.73393">
        <ele>1379</ele>
        <time>2016-09-10T14:48:20Z</time>
      </trkpt>
      <trkpt lat="42.71764" lon="1.73392">
        <ele>1379</ele>
        <time>2016-09-10T14:48:21Z</time>
      </trkpt>
      <trkpt lat="42.71766" lon="1.73392">
        <ele>1379</ele>
        <time>2016-09-10T14:48:22Z</time>
      </trkpt>
      <trkpt lat="42.71768" lon="1.73392">
        <ele>1379</ele>
        <time>2016-09-10T14:48:24Z</time>
      </trkpt>
      <trkpt lat="42.71775" lon="1.73392">
        <ele>1379</ele>
        <time>2016-09-10T14:48:32Z</time>
      </trkpt>
      <trkpt lat="42.71785" lon="1.73397">
        <ele>1378</ele>
        <time>2016-09-10T14:48:43Z</time>
      </trkpt>
      <trkpt lat="42.71787" lon="1.73397">
        <ele>1378</ele>
        <time>2016-09-10T14:48:54Z</time>
      </trkpt>
      <trkpt lat="42.71797" lon="1.73401">
        <ele>1377</ele>
        <time>2016-09-10T14:49:01Z</time>
      </trkpt>
      <trkpt lat="42.71806" lon="1.73408">
        <ele>1375</ele>
        <time>2016-09-10T14:49:08Z</time>
      </trkpt>
      <trkpt lat="42.71808" lon="1.73413">
        <ele>1374</ele>
        <time>2016-09-10T14:49:15Z</time>
      </trkpt>
      <trkpt lat="42.7181" lon="1.73415">
        <ele>1374</ele>
        <time>2016-09-10T14:49:17Z</time>
      </trkpt>
      <trkpt lat="42.71811" lon="1.73417">
        <ele>1373</ele>
        <time>2016-09-10T14:49:19Z</time>
      </trkpt>
      <trkpt lat="42.71811" lon="1.73417">
        <ele>1373</ele>
        <time>2016-09-10T14:49:20Z</time>
      </trkpt>
      <trkpt lat="42.71812" lon="1.73419">
        <ele>1373</ele>
        <time>2016-09-10T14:49:21Z</time>
      </trkpt>
      <trkpt lat="42.71813" lon="1.7342">
        <ele>1372</ele>
        <time>2016-09-10T14:49:22Z</time>
      </trkpt>
      <trkpt lat="42.71814" lon="1.73421">
        <ele>1372</ele>
        <time>2016-09-10T14:49:23Z</time>
      </trkpt>
      <trkpt lat="42.71819" lon="1.73422">
        <ele>1372</ele>
        <time>2016-09-10T14:49:29Z</time>
      </trkpt>
      <trkpt lat="42.71819" lon="1.73422">
        <ele>1372</ele>
        <time>2016-09-10T14:49:30Z</time>
      </trkpt>
      <trkpt lat="42.7182" lon="1.73422">
        <ele>1372</ele>
        <time>2016-09-10T14:49:31Z</time>
      </trkpt>
      <trkpt lat="42.71821" lon="1.73421">
        <ele>1372</ele>
        <time>2016-09-10T14:49:32Z</time>
      </trkpt>
      <trkpt lat="42.71822" lon="1.73422">
        <ele>1372</ele>
        <time>2016-09-10T14:49:33Z</time>
      </trkpt>
      <trkpt lat="42.71826" lon="1.73424">
        <ele>1371</ele>
        <time>2016-09-10T14:49:37Z</time>
      </trkpt>
      <trkpt lat="42.71832" lon="1.73426">
        <ele>1371</ele>
        <time>2016-09-10T14:49:44Z</time>
      </trkpt>
      <trkpt lat="42.71838" lon="1.7342">
        <ele>1371</ele>
        <time>2016-09-10T14:49:48Z</time>
      </trkpt>
      <trkpt lat="42.7184" lon="1.73419">
        <ele>1372</ele>
        <time>2016-09-10T14:49:49Z</time>
      </trkpt>
      <trkpt lat="42.71847" lon="1.73415">
        <ele>1372</ele>
        <time>2016-09-10T14:49:55Z</time>
      </trkpt>
      <trkpt lat="42.71847" lon="1.73415">
        <ele>1372</ele>
        <time>2016-09-10T14:49:56Z</time>
      </trkpt>
      <trkpt lat="42.71847" lon="1.73415">
        <ele>1372</ele>
        <time>2016-09-10T14:49:57Z</time>
      </trkpt>
      <trkpt lat="42.71847" lon="1.73415">
        <ele>1372</ele>
        <time>2016-09-10T14:49:58Z</time>
      </trkpt>
      <trkpt lat="42.71847" lon="1.73415">
        <ele>1372</ele>
        <time>2016-09-10T14:50:05Z</time>
      </trkpt>
      <trkpt lat="42.71847" lon="1.73415">
        <ele>1372</ele>
        <time>2016-09-10T14:50:15Z</time>
      </trkpt>
      <trkpt lat="42.71847" lon="1.73415">
        <ele>1372</ele>
        <time>2016-09-10T14:50:17Z</time>
      </trkpt>
      <trkpt lat="42.71847" lon="1.73415">
        <ele>1372</ele>
        <time>2016-09-10T14:50:18Z</time>
      </trkpt>
      <trkpt lat="42.71848" lon="1.73414">
        <ele>1372</ele>
        <time>2016-09-10T14:50:19Z</time>
      </trkpt>
      <trkpt lat="42.71848" lon="1.73414">
        <ele>1372</ele>
        <time>2016-09-10T14:50:20Z</time>
      </trkpt>
      <trkpt lat="42.7185" lon="1.73413">
        <ele>1373</ele>
        <time>2016-09-10T14:50:22Z</time>
      </trkpt>
      <trkpt lat="42.71853" lon="1.73411">
        <ele>1373</ele>
        <time>2016-09-10T14:50:29Z</time>
      </trkpt>
      <trkpt lat="42.71865" lon="1.73413">
        <ele>1372</ele>
        <time>2016-09-10T14:50:39Z</time>
      </trkpt>
      <trkpt lat="42.71868" lon="1.73412">
        <ele>1372</ele>
        <time>2016-09-10T14:50:46Z</time>
      </trkpt>
      <trkpt lat="42.71868" lon="1.73412">
        <ele>1372</ele>
        <time>2016-09-10T14:50:47Z</time>
      </trkpt>
      <trkpt lat="42.71868" lon="1.73412">
        <ele>1372</ele>
        <time>2016-09-10T14:50:48Z</time>
      </trkpt>
      <trkpt lat="42.71868" lon="1.73412">
        <ele>1372</ele>
        <time>2016-09-10T14:50:49Z</time>
      </trkpt>
      <trkpt lat="42.7187" lon="1.73412">
        <ele>1372</ele>
        <time>2016-09-10T14:50:50Z</time>
      </trkpt>
      <trkpt lat="42.71878" lon="1.73411">
        <ele>1372</ele>
        <time>2016-09-10T14:50:56Z</time>
      </trkpt>
      <trkpt lat="42.71887" lon="1.73414">
        <ele>1371</ele>
        <time>2016-09-10T14:51:03Z</time>
      </trkpt>
      <trkpt lat="42.71887" lon="1.73414">
        <ele>1371</ele>
        <time>2016-09-10T14:51:04Z</time>
      </trkpt>
      <trkpt lat="42.71887" lon="1.73414">
        <ele>1371</ele>
        <time>2016-09-10T14:51:05Z</time>
      </trkpt>
      <trkpt lat="42.71887" lon="1.73414">
        <ele>1371</ele>
        <time>2016-09-10T14:51:06Z</time>
      </trkpt>
      <trkpt lat="42.71887" lon="1.73414">
        <ele>1371</ele>
        <time>2016-09-10T14:51:07Z</time>
      </trkpt>
      <trkpt lat="42.71891" lon="1.73415">
        <ele>1370</ele>
        <time>2016-09-10T14:51:10Z</time>
      </trkpt>
      <trkpt lat="42.71891" lon="1.73414">
        <ele>1370</ele>
        <time>2016-09-10T14:51:11Z</time>
      </trkpt>
      <trkpt lat="42.71892" lon="1.73415">
        <ele>1370</ele>
        <time>2016-09-10T14:51:12Z</time>
      </trkpt>
      <trkpt lat="42.71892" lon="1.73415">
        <ele>1370</ele>
        <time>2016-09-10T14:51:13Z</time>
      </trkpt>
      <trkpt lat="42.71892" lon="1.73416">
        <ele>1370</ele>
        <time>2016-09-10T14:51:14Z</time>
      </trkpt>
      <trkpt lat="42.71893" lon="1.73416">
        <ele>1370</ele>
        <time>2016-09-10T14:51:18Z</time>
      </trkpt>
      <trkpt lat="42.71893" lon="1.73416">
        <ele>1370</ele>
        <time>2016-09-10T14:51:26Z</time>
      </trkpt>
      <trkpt lat="42.71895" lon="1.73414">
        <ele>1370</ele>
        <time>2016-09-10T14:51:30Z</time>
      </trkpt>
      <trkpt lat="42.71896" lon="1.73414">
        <ele>1370</ele>
        <time>2016-09-10T14:51:31Z</time>
      </trkpt>
      <trkpt lat="42.71898" lon="1.73413">
        <ele>1370</ele>
        <time>2016-09-10T14:51:32Z</time>
      </trkpt>
      <trkpt lat="42.71898" lon="1.73413">
        <ele>1370</ele>
        <time>2016-09-10T14:51:33Z</time>
      </trkpt>
      <trkpt lat="42.71899" lon="1.73413">
        <ele>1370</ele>
        <time>2016-09-10T14:51:34Z</time>
      </trkpt>
      <trkpt lat="42.71904" lon="1.73408">
        <ele>1371</ele>
        <time>2016-09-10T14:51:38Z</time>
      </trkpt>
      <trkpt lat="42.71905" lon="1.73407">
        <ele>1371</ele>
        <time>2016-09-10T14:51:39Z</time>
      </trkpt>
      <trkpt lat="42.71906" lon="1.73406">
        <ele>1371</ele>
        <time>2016-09-10T14:51:40Z</time>
      </trkpt>
      <trkpt lat="42.71907" lon="1.73405">
        <ele>1371</ele>
        <time>2016-09-10T14:51:41Z</time>
      </trkpt>
      <trkpt lat="42.71909" lon="1.73404">
        <ele>1372</ele>
        <time>2016-09-10T14:51:42Z</time>
      </trkpt>
      <trkpt lat="42.7191" lon="1.73404">
        <ele>1371</ele>
        <time>2016-09-10T14:51:43Z</time>
      </trkpt>
      <trkpt lat="42.71911" lon="1.73404">
        <ele>1371</ele>
        <time>2016-09-10T14:51:44Z</time>
      </trkpt>
      <trkpt lat="42.7192" lon="1.73404">
        <ele>1371</ele>
        <time>2016-09-10T14:51:53Z</time>
      </trkpt>
      <trkpt lat="42.71929" lon="1.73407">
        <ele>1370</ele>
        <time>2016-09-10T14:52:01Z</time>
      </trkpt>
      <trkpt lat="42.71938" lon="1.73407">
        <ele>1369</ele>
        <time>2016-09-10T14:52:08Z</time>
      </trkpt>
      <trkpt lat="42.71947" lon="1.73406">
        <ele>1368</ele>
        <time>2016-09-10T14:52:15Z</time>
      </trkpt>
      <trkpt lat="42.71957" lon="1.73408">
        <ele>1367</ele>
        <time>2016-09-10T14:52:21Z</time>
      </trkpt>
      <trkpt lat="42.71959" lon="1.73408">
        <ele>1367</ele>
        <time>2016-09-10T14:52:22Z</time>
      </trkpt>
      <trkpt lat="42.7196" lon="1.73409">
        <ele>1367</ele>
        <time>2016-09-10T14:52:23Z</time>
      </trkpt>
      <trkpt lat="42.71962" lon="1.73409">
        <ele>1367</ele>
        <time>2016-09-10T14:52:24Z</time>
      </trkpt>
      <trkpt lat="42.71969" lon="1.73411">
        <ele>1366</ele>
        <time>2016-09-10T14:52:29Z</time>
      </trkpt>
      <trkpt lat="42.71977" lon="1.73409">
        <ele>1365</ele>
        <time>2016-09-10T14:52:36Z</time>
      </trkpt>
      <trkpt lat="42.71986" lon="1.73416">
        <ele>1365</ele>
        <time>2016-09-10T14:52:44Z</time>
      </trkpt>
      <trkpt lat="42.71991" lon="1.73416">
        <ele>1365</ele>
        <time>2016-09-10T14:52:50Z</time>
      </trkpt>
      <trkpt lat="42.71998" lon="1.73412">
        <ele>1364</ele>
        <time>2016-09-10T14:52:58Z</time>
      </trkpt>
      <trkpt lat="42.72003" lon="1.73408">
        <ele>1364</ele>
        <time>2016-09-10T14:53:07Z</time>
      </trkpt>
      <trkpt lat="42.7201" lon="1.73405">
        <ele>1363</ele>
        <time>2016-09-10T14:53:15Z</time>
      </trkpt>
      <trkpt lat="42.72017" lon="1.73403">
        <ele>1362</ele>
        <time>2016-09-10T14:53:23Z</time>
      </trkpt>
      <trkpt lat="42.72025" lon="1.73401">
        <ele>1362</ele>
        <time>2016-09-10T14:53:30Z</time>
      </trkpt>
      <trkpt lat="42.72026" lon="1.73401">
        <ele>1362</ele>
        <time>2016-09-10T14:53:31Z</time>
      </trkpt>
      <trkpt lat="42.72027" lon="1.73401">
        <ele>1362</ele>
        <time>2016-09-10T14:53:32Z</time>
      </trkpt>
      <trkpt lat="42.72028" lon="1.734">
        <ele>1362</ele>
        <time>2016-09-10T14:53:33Z</time>
      </trkpt>
      <trkpt lat="42.72029" lon="1.73398">
        <ele>1361</ele>
        <time>2016-09-10T14:53:34Z</time>
      </trkpt>
      <trkpt lat="42.72031" lon="1.73397">
        <ele>1361</ele>
        <time>2016-09-10T14:53:35Z</time>
      </trkpt>
      <trkpt lat="42.72036" lon="1.73393">
        <ele>1361</ele>
        <time>2016-09-10T14:53:38Z</time>
      </trkpt>
      <trkpt lat="42.72041" lon="1.73392">
        <ele>1361</ele>
        <time>2016-09-10T14:53:43Z</time>
      </trkpt>
      <trkpt lat="42.72042" lon="1.73392">
        <ele>1361</ele>
        <time>2016-09-10T14:53:44Z</time>
      </trkpt>
      <trkpt lat="42.72043" lon="1.73392">
        <ele>1361</ele>
        <time>2016-09-10T14:53:45Z</time>
      </trkpt>
      <trkpt lat="42.72044" lon="1.73393">
        <ele>1361</ele>
        <time>2016-09-10T14:53:46Z</time>
      </trkpt>
      <trkpt lat="42.72045" lon="1.73393">
        <ele>1361</ele>
        <time>2016-09-10T14:53:47Z</time>
      </trkpt>
      <trkpt lat="42.72052" lon="1.73395">
        <ele>1361</ele>
        <time>2016-09-10T14:53:52Z</time>
      </trkpt>
      <trkpt lat="42.72059" lon="1.73398">
        <ele>1361</ele>
        <time>2016-09-10T14:53:59Z</time>
      </trkpt>
      <trkpt lat="42.72063" lon="1.73399">
        <ele>1361</ele>
        <time>2016-09-10T14:54:08Z</time>
      </trkpt>
      <trkpt lat="42.72065" lon="1.734">
        <ele>1361</ele>
        <time>2016-09-10T14:54:19Z</time>
      </trkpt>
      <trkpt lat="42.72066" lon="1.73401">
        <ele>1362</ele>
        <time>2016-09-10T14:54:27Z</time>
      </trkpt>
      <trkpt lat="42.7207" lon="1.734">
        <ele>1361</ele>
        <time>2016-09-10T14:54:35Z</time>
      </trkpt>
      <trkpt lat="42.72072" lon="1.73397">
        <ele>1361</ele>
        <time>2016-09-10T14:54:39Z</time>
      </trkpt>
      <trkpt lat="42.72072" lon="1.73396">
        <ele>1361</ele>
        <time>2016-09-10T14:54:40Z</time>
      </trkpt>
      <trkpt lat="42.72073" lon="1.73395">
        <ele>1361</ele>
        <time>2016-09-10T14:54:41Z</time>
      </trkpt>
      <trkpt lat="42.72073" lon="1.73394">
        <ele>1360</ele>
        <time>2016-09-10T14:54:42Z</time>
      </trkpt>
      <trkpt lat="42.72074" lon="1.73393">
        <ele>1360</ele>
        <time>2016-09-10T14:54:43Z</time>
      </trkpt>
      <trkpt lat="42.72077" lon="1.73393">
        <ele>1360</ele>
        <time>2016-09-10T14:54:48Z</time>
      </trkpt>
      <trkpt lat="42.72084" lon="1.73387">
        <ele>1359</ele>
        <time>2016-09-10T14:54:52Z</time>
      </trkpt>
      <trkpt lat="42.72086" lon="1.73387">
        <ele>1359</ele>
        <time>2016-09-10T14:54:53Z</time>
      </trkpt>
      <trkpt lat="42.72087" lon="1.73386">
        <ele>1359</ele>
        <time>2016-09-10T14:54:54Z</time>
      </trkpt>
      <trkpt lat="42.72089" lon="1.73386">
        <ele>1359</ele>
        <time>2016-09-10T14:54:55Z</time>
      </trkpt>
      <trkpt lat="42.7209" lon="1.73386">
        <ele>1359</ele>
        <time>2016-09-10T14:54:56Z</time>
      </trkpt>
      <trkpt lat="42.72096" lon="1.73388">
        <ele>1359</ele>
        <time>2016-09-10T14:55:03Z</time>
      </trkpt>
      <trkpt lat="42.72098" lon="1.73387">
        <ele>1359</ele>
        <time>2016-09-10T14:55:09Z</time>
      </trkpt>
      <trkpt lat="42.72099" lon="1.73387">
        <ele>1359</ele>
        <time>2016-09-10T14:55:16Z</time>
      </trkpt>
      <trkpt lat="42.72106" lon="1.73381">
        <ele>1358</ele>
        <time>2016-09-10T14:55:19Z</time>
      </trkpt>
      <trkpt lat="42.72108" lon="1.73378">
        <ele>1357</ele>
        <time>2016-09-10T14:55:20Z</time>
      </trkpt>
      <trkpt lat="42.7211" lon="1.73377">
        <ele>1357</ele>
        <time>2016-09-10T14:55:21Z</time>
      </trkpt>
      <trkpt lat="42.72112" lon="1.73376">
        <ele>1357</ele>
        <time>2016-09-10T14:55:22Z</time>
      </trkpt>
      <trkpt lat="42.72114" lon="1.73376">
        <ele>1357</ele>
        <time>2016-09-10T14:55:23Z</time>
      </trkpt>
      <trkpt lat="42.72122" lon="1.73374">
        <ele>1356</ele>
        <time>2016-09-10T14:55:27Z</time>
      </trkpt>
      <trkpt lat="42.72132" lon="1.73378">
        <ele>1357</ele>
        <time>2016-09-10T14:55:33Z</time>
      </trkpt>
      <trkpt lat="42.72139" lon="1.73377">
        <ele>1356</ele>
        <time>2016-09-10T14:55:41Z</time>
      </trkpt>
      <trkpt lat="42.72147" lon="1.7338">
        <ele>1357</ele>
        <time>2016-09-10T14:55:48Z</time>
      </trkpt>
      <trkpt lat="42.72153" lon="1.73381">
        <ele>1357</ele>
        <time>2016-09-10T14:55:55Z</time>
      </trkpt>
      <trkpt lat="42.72161" lon="1.73381">
        <ele>1357</ele>
        <time>2016-09-10T14:56:01Z</time>
      </trkpt>
      <trkpt lat="42.7217" lon="1.7337">
        <ele>1355</ele>
        <time>2016-09-10T14:56:08Z</time>
      </trkpt>
      <trkpt lat="42.72179" lon="1.73362">
        <ele>1355</ele>
        <time>2016-09-10T14:56:15Z</time>
      </trkpt>
      <trkpt lat="42.72181" lon="1.73362">
        <ele>1356</ele>
        <time>2016-09-10T14:56:17Z</time>
      </trkpt>
      <trkpt lat="42.72181" lon="1.73362">
        <ele>1356</ele>
        <time>2016-09-10T14:56:18Z</time>
      </trkpt>
      <trkpt lat="42.72182" lon="1.73362">
        <ele>1356</ele>
        <time>2016-09-10T14:56:19Z</time>
      </trkpt>
      <trkpt lat="42.72183" lon="1.73362">
        <ele>1355</ele>
        <time>2016-09-10T14:56:20Z</time>
      </trkpt>
      <trkpt lat="42.72183" lon="1.73362">
        <ele>1355</ele>
        <time>2016-09-10T14:56:21Z</time>
      </trkpt>
      <trkpt lat="42.72189" lon="1.73368">
        <ele>1354</ele>
        <time>2016-09-10T14:56:27Z</time>
      </trkpt>
      <trkpt lat="42.72197" lon="1.73373">
        <ele>1355</ele>
        <time>2016-09-10T14:56:34Z</time>
      </trkpt>
      <trkpt lat="42.72204" lon="1.73376">
        <ele>1355</ele>
        <time>2016-09-10T14:56:40Z</time>
      </trkpt>
      <trkpt lat="42.7221" lon="1.73374">
        <ele>1355</ele>
        <time>2016-09-10T14:56:47Z</time>
      </trkpt>
      <trkpt lat="42.72216" lon="1.73373">
        <ele>1354</ele>
        <time>2016-09-10T14:56:54Z</time>
      </trkpt>
      <trkpt lat="42.72222" lon="1.7337">
        <ele>1353</ele>
        <time>2016-09-10T14:57:01Z</time>
      </trkpt>
      <trkpt lat="42.72229" lon="1.73367">
        <ele>1352</ele>
        <time>2016-09-10T14:57:09Z</time>
      </trkpt>
      <trkpt lat="42.72235" lon="1.73361">
        <ele>1353</ele>
        <time>2016-09-10T14:57:15Z</time>
      </trkpt>
      <trkpt lat="42.72242" lon="1.73367">
        <ele>1351</ele>
        <time>2016-09-10T14:57:22Z</time>
      </trkpt>
      <trkpt lat="42.72251" lon="1.73371">
        <ele>1351</ele>
        <time>2016-09-10T14:57:28Z</time>
      </trkpt>
      <trkpt lat="42.72259" lon="1.73374">
        <ele>1351</ele>
        <time>2016-09-10T14:57:35Z</time>
      </trkpt>
      <trkpt lat="42.72266" lon="1.73374">
        <ele>1351</ele>
        <time>2016-09-10T14:57:41Z</time>
      </trkpt>
      <trkpt lat="42.72279" lon="1.73377">
        <ele>1351</ele>
        <time>2016-09-10T14:57:50Z</time>
      </trkpt>
      <trkpt lat="42.72286" lon="1.73377">
        <ele>1350</ele>
        <time>2016-09-10T14:57:57Z</time>
      </trkpt>
      <trkpt lat="42.72288" lon="1.73379">
        <ele>1351</ele>
        <time>2016-09-10T14:58:02Z</time>
      </trkpt>
      <trkpt lat="42.72294" lon="1.73379">
        <ele>1350</ele>
        <time>2016-09-10T14:58:07Z</time>
      </trkpt>
      <trkpt lat="42.72301" lon="1.7338">
        <ele>1350</ele>
        <time>2016-09-10T14:58:13Z</time>
      </trkpt>
      <trkpt lat="42.72309" lon="1.73377">
        <ele>1349</ele>
        <time>2016-09-10T14:58:21Z</time>
      </trkpt>
      <trkpt lat="42.72313" lon="1.73374">
        <ele>1348</ele>
        <time>2016-09-10T14:58:27Z</time>
      </trkpt>
      <trkpt lat="42.72317" lon="1.73369">
        <ele>1346</ele>
        <time>2016-09-10T14:58:33Z</time>
      </trkpt>
      <trkpt lat="42.72318" lon="1.73367">
        <ele>1345</ele>
        <time>2016-09-10T14:58:36Z</time>
      </trkpt>
      <trkpt lat="42.72318" lon="1.73366">
        <ele>1345</ele>
        <time>2016-09-10T14:58:37Z</time>
      </trkpt>
      <trkpt lat="42.72318" lon="1.73366">
        <ele>1345</ele>
        <time>2016-09-10T14:58:38Z</time>
      </trkpt>
      <trkpt lat="42.72318" lon="1.73366">
        <ele>1345</ele>
        <time>2016-09-10T14:58:39Z</time>
      </trkpt>
      <trkpt lat="42.72318" lon="1.73366">
        <ele>1345</ele>
        <time>2016-09-10T14:58:40Z</time>
      </trkpt>
      <trkpt lat="42.72319" lon="1.73366">
        <ele>1345</ele>
        <time>2016-09-10T14:58:41Z</time>
      </trkpt>
      <trkpt lat="42.72321" lon="1.73364">
        <ele>1344</ele>
        <time>2016-09-10T14:58:44Z</time>
      </trkpt>
      <trkpt lat="42.72323" lon="1.73361">
        <ele>1345</ele>
        <time>2016-09-10T14:58:47Z</time>
      </trkpt>
      <trkpt lat="42.72324" lon="1.7336">
        <ele>1345</ele>
        <time>2016-09-10T14:58:48Z</time>
      </trkpt>
      <trkpt lat="42.72325" lon="1.73359">
        <ele>1345</ele>
        <time>2016-09-10T14:58:49Z</time>
      </trkpt>
      <trkpt lat="42.72325" lon="1.73358">
        <ele>1346</ele>
        <time>2016-09-10T14:58:50Z</time>
      </trkpt>
      <trkpt lat="42.72326" lon="1.73358">
        <ele>1346</ele>
        <time>2016-09-10T14:58:51Z</time>
      </trkpt>
      <trkpt lat="42.72327" lon="1.73357">
        <ele>1346</ele>
        <time>2016-09-10T14:58:52Z</time>
      </trkpt>
      <trkpt lat="42.72328" lon="1.73356">
        <ele>1346</ele>
        <time>2016-09-10T14:58:54Z</time>
      </trkpt>
      <trkpt lat="42.72331" lon="1.73356">
        <ele>1346</ele>
        <time>2016-09-10T14:59:01Z</time>
      </trkpt>
      <trkpt lat="42.72331" lon="1.73356">
        <ele>1346</ele>
        <time>2016-09-10T14:59:09Z</time>
      </trkpt>
      <trkpt lat="42.72337" lon="1.73359">
        <ele>1344</ele>
        <time>2016-09-10T14:59:17Z</time>
      </trkpt>
      <trkpt lat="42.72352" lon="1.7337">
        <ele>1344</ele>
        <time>2016-09-10T14:59:26Z</time>
      </trkpt>
      <trkpt lat="42.72371" lon="1.73369">
        <ele>1343</ele>
        <time>2016-09-10T14:59:34Z</time>
      </trkpt>
      <trkpt lat="42.72379" lon="1.73372">
        <ele>1344</ele>
        <time>2016-09-10T14:59:39Z</time>
      </trkpt>
      <trkpt lat="42.72386" lon="1.73376">
        <ele>1344</ele>
        <time>2016-09-10T14:59:45Z</time>
      </trkpt>
      <trkpt lat="42.72393" lon="1.73383">
        <ele>1345</ele>
        <time>2016-09-10T14:59:52Z</time>
      </trkpt>
      <trkpt lat="42.72395" lon="1.73382">
        <ele>1345</ele>
        <time>2016-09-10T14:59:59Z</time>
      </trkpt>
      <trkpt lat="42.72399" lon="1.73381">
        <ele>1344</ele>
        <time>2016-09-10T15:00:07Z</time>
      </trkpt>
      <trkpt lat="42.72407" lon="1.73381">
        <ele>1343</ele>
        <time>2016-09-10T15:00:13Z</time>
      </trkpt>
      <trkpt lat="42.72406" lon="1.73382">
        <ele>1344</ele>
        <time>2016-09-10T15:00:14Z</time>
      </trkpt>
      <trkpt lat="42.72406" lon="1.73382">
        <ele>1344</ele>
        <time>2016-09-10T15:00:15Z</time>
      </trkpt>
      <trkpt lat="42.72406" lon="1.73383">
        <ele>1344</ele>
        <time>2016-09-10T15:00:16Z</time>
      </trkpt>
      <trkpt lat="42.72407" lon="1.73383">
        <ele>1344</ele>
        <time>2016-09-10T15:00:17Z</time>
      </trkpt>
      <trkpt lat="42.72411" lon="1.73382">
        <ele>1343</ele>
        <time>2016-09-10T15:00:20Z</time>
      </trkpt>
      <trkpt lat="42.7242" lon="1.73383">
        <ele>1342</ele>
        <time>2016-09-10T15:00:28Z</time>
      </trkpt>
      <trkpt lat="42.72422" lon="1.73382">
        <ele>1342</ele>
        <time>2016-09-10T15:00:29Z</time>
      </trkpt>
      <trkpt lat="42.7243" lon="1.7338">
        <ele>1341</ele>
        <time>2016-09-10T15:00:35Z</time>
      </trkpt>
      <trkpt lat="42.72432" lon="1.73382">
        <ele>1341</ele>
        <time>2016-09-10T15:00:36Z</time>
      </trkpt>
      <trkpt lat="42.72435" lon="1.73384">
        <ele>1341</ele>
        <time>2016-09-10T15:00:39Z</time>
      </trkpt>
      <trkpt lat="42.72437" lon="1.73385">
        <ele>1341</ele>
        <time>2016-09-10T15:00:40Z</time>
      </trkpt>
      <trkpt lat="42.72441" lon="1.73386">
        <ele>1341</ele>
        <time>2016-09-10T15:00:45Z</time>
      </trkpt>
      <trkpt lat="42.72444" lon="1.73387">
        <ele>1341</ele>
        <time>2016-09-10T15:00:51Z</time>
      </trkpt>
      <trkpt lat="42.72449" lon="1.7339">
        <ele>1341</ele>
        <time>2016-09-10T15:00:58Z</time>
      </trkpt>
      <trkpt lat="42.72455" lon="1.73387">
        <ele>1340</ele>
        <time>2016-09-10T15:01:03Z</time>
      </trkpt>
      <trkpt lat="42.72457" lon="1.73386">
        <ele>1340</ele>
        <time>2016-09-10T15:01:05Z</time>
      </trkpt>
      <trkpt lat="42.72463" lon="1.73384">
        <ele>1339</ele>
        <time>2016-09-10T15:01:09Z</time>
      </trkpt>
      <trkpt lat="42.72471" lon="1.73386">
        <ele>1339</ele>
        <time>2016-09-10T15:01:15Z</time>
      </trkpt>
      <trkpt lat="42.72477" lon="1.73393">
        <ele>1340</ele>
        <time>2016-09-10T15:01:21Z</time>
      </trkpt>
      <trkpt lat="42.72482" lon="1.73399">
        <ele>1341</ele>
        <time>2016-09-10T15:01:27Z</time>
      </trkpt>
      <trkpt lat="42.72483" lon="1.734">
        <ele>1341</ele>
        <time>2016-09-10T15:01:28Z</time>
      </trkpt>
      <trkpt lat="42.72487" lon="1.73402">
        <ele>1341</ele>
        <time>2016-09-10T15:01:34Z</time>
      </trkpt>
      <trkpt lat="42.72492" lon="1.73405">
        <ele>1342</ele>
        <time>2016-09-10T15:01:41Z</time>
      </trkpt>
      <trkpt lat="42.72493" lon="1.73404">
        <ele>1342</ele>
        <time>2016-09-10T15:01:42Z</time>
      </trkpt>
      <trkpt lat="42.72494" lon="1.73404">
        <ele>1342</ele>
        <time>2016-09-10T15:01:43Z</time>
      </trkpt>
      <trkpt lat="42.72495" lon="1.73404">
        <ele>1342</ele>
        <time>2016-09-10T15:01:44Z</time>
      </trkpt>
      <trkpt lat="42.72496" lon="1.73404">
        <ele>1342</ele>
        <time>2016-09-10T15:01:45Z</time>
      </trkpt>
      <trkpt lat="42.72499" lon="1.73403">
        <ele>1341</ele>
        <time>2016-09-10T15:01:48Z</time>
      </trkpt>
      <trkpt lat="42.72505" lon="1.73404">
        <ele>1341</ele>
        <time>2016-09-10T15:01:54Z</time>
      </trkpt>
      <trkpt lat="42.72513" lon="1.73404">
        <ele>1341</ele>
        <time>2016-09-10T15:02:01Z</time>
      </trkpt>
      <trkpt lat="42.72518" lon="1.73405">
        <ele>1341</ele>
        <time>2016-09-10T15:02:07Z</time>
      </trkpt>
      <trkpt lat="42.72521" lon="1.73406">
        <ele>1341</ele>
        <time>2016-09-10T15:02:13Z</time>
      </trkpt>
      <trkpt lat="42.72521" lon="1.73406">
        <ele>1341</ele>
        <time>2016-09-10T15:02:23Z</time>
      </trkpt>
      <trkpt lat="42.72525" lon="1.73409">
        <ele>1342</ele>
        <time>2016-09-10T15:02:29Z</time>
      </trkpt>
      <trkpt lat="42.72533" lon="1.73416">
        <ele>1342</ele>
        <time>2016-09-10T15:02:36Z</time>
      </trkpt>
      <trkpt lat="42.72534" lon="1.7342">
        <ele>1343</ele>
        <time>2016-09-10T15:02:38Z</time>
      </trkpt>
      <trkpt lat="42.72533" lon="1.73424">
        <ele>1344</ele>
        <time>2016-09-10T15:02:41Z</time>
      </trkpt>
      <trkpt lat="42.7254" lon="1.7343">
        <ele>1346</ele>
        <time>2016-09-10T15:02:48Z</time>
      </trkpt>
      <trkpt lat="42.72547" lon="1.73431">
        <ele>1345</ele>
        <time>2016-09-10T15:02:54Z</time>
      </trkpt>
      <trkpt lat="42.72554" lon="1.7343">
        <ele>1344</ele>
        <time>2016-09-10T15:03:01Z</time>
      </trkpt>
      <trkpt lat="42.72559" lon="1.73428">
        <ele>1344</ele>
        <time>2016-09-10T15:03:07Z</time>
      </trkpt>
      <trkpt lat="42.72567" lon="1.7343">
        <ele>1342</ele>
        <time>2016-09-10T15:03:14Z</time>
      </trkpt>
      <trkpt lat="42.72567" lon="1.7343">
        <ele>1342</ele>
        <time>2016-09-10T15:03:26Z</time>
      </trkpt>
      <trkpt lat="42.72567" lon="1.7343">
        <ele>1342</ele>
        <time>2016-09-10T15:03:36Z</time>
      </trkpt>
      <trkpt lat="42.72567" lon="1.7343">
        <ele>1342</ele>
        <time>2016-09-10T15:03:44Z</time>
      </trkpt>
      <trkpt lat="42.72567" lon="1.7343">
        <ele>1342</ele>
        <time>2016-09-10T15:03:51Z</time>
      </trkpt>
      <trkpt lat="42.72568" lon="1.7343">
        <ele>1342</ele>
        <time>2016-09-10T15:04:04Z</time>
      </trkpt>
      <trkpt lat="42.72568" lon="1.7343">
        <ele>1342</ele>
        <time>2016-09-10T15:04:16Z</time>
      </trkpt>
      <trkpt lat="42.72568" lon="1.7343">
        <ele>1342</ele>
        <time>2016-09-10T15:04:28Z</time>
      </trkpt>
      <trkpt lat="42.72568" lon="1.7343">
        <ele>1342</ele>
        <time>2016-09-10T15:04:42Z</time>
      </trkpt>
      <trkpt lat="42.72568" lon="1.7343">
        <ele>1342</ele>
        <time>2016-09-10T15:04:48Z</time>
      </trkpt>
      <trkpt lat="42.72568" lon="1.7343">
        <ele>1342</ele>
        <time>2016-09-10T15:04:53Z</time>
      </trkpt>
      <trkpt lat="42.72568" lon="1.7343">
        <ele>1342</ele>
        <time>2016-09-10T15:05:06Z</time>
      </trkpt>
      <trkpt lat="42.72568" lon="1.7343">
        <ele>1342</ele>
        <time>2016-09-10T15:05:18Z</time>
      </trkpt>
      <trkpt lat="42.72568" lon="1.7343">
        <ele>1342</ele>
        <time>2016-09-10T15:05:32Z</time>
      </trkpt>
      <trkpt lat="42.72568" lon="1.7343">
        <ele>1342</ele>
        <time>2016-09-10T15:05:46Z</time>
      </trkpt>
      <trkpt lat="42.72568" lon="1.7343">
        <ele>1342</ele>
        <time>2016-09-10T15:06:01Z</time>
      </trkpt>
      <trkpt lat="42.72568" lon="1.7343">
        <ele>1342</ele>
        <time>2016-09-10T15:06:16Z</time>
      </trkpt>
      <trkpt lat="42.7257" lon="1.73431">
        <ele>1342</ele>
        <time>2016-09-10T15:06:22Z</time>
      </trkpt>
      <trkpt lat="42.72572" lon="1.73433">
        <ele>1342</ele>
        <time>2016-09-10T15:06:31Z</time>
      </trkpt>
      <trkpt lat="42.72573" lon="1.73433">
        <ele>1342</ele>
        <time>2016-09-10T15:06:32Z</time>
      </trkpt>
      <trkpt lat="42.72574" lon="1.73433">
        <ele>1342</ele>
        <time>2016-09-10T15:06:33Z</time>
      </trkpt>
      <trkpt lat="42.72574" lon="1.73433">
        <ele>1342</ele>
        <time>2016-09-10T15:06:34Z</time>
      </trkpt>
      <trkpt lat="42.72576" lon="1.73434">
        <ele>1342</ele>
        <time>2016-09-10T15:06:35Z</time>
      </trkpt>
      <trkpt lat="42.72578" lon="1.73435">
        <ele>1341</ele>
        <time>2016-09-10T15:06:36Z</time>
      </trkpt>
      <trkpt lat="42.72579" lon="1.73435">
        <ele>1341</ele>
        <time>2016-09-10T15:06:37Z</time>
      </trkpt>
      <trkpt lat="42.72586" lon="1.73435">
        <ele>1339</ele>
        <time>2016-09-10T15:06:43Z</time>
      </trkpt>
      <trkpt lat="42.72589" lon="1.73433">
        <ele>1337</ele>
        <time>2016-09-10T15:06:45Z</time>
      </trkpt>
      <trkpt lat="42.72593" lon="1.73432">
        <ele>1336</ele>
        <time>2016-09-10T15:06:48Z</time>
      </trkpt>
      <trkpt lat="42.72601" lon="1.73433">
        <ele>1334</ele>
        <time>2016-09-10T15:06:54Z</time>
      </trkpt>
      <trkpt lat="42.72609" lon="1.73438">
        <ele>1334</ele>
        <time>2016-09-10T15:07:01Z</time>
      </trkpt>
      <trkpt lat="42.72617" lon="1.7344">
        <ele>1335</ele>
        <time>2016-09-10T15:07:07Z</time>
      </trkpt>
      <trkpt lat="42.72623" lon="1.73443">
        <ele>1336</ele>
        <time>2016-09-10T15:07:12Z</time>
      </trkpt>
      <trkpt lat="42.72626" lon="1.73446">
        <ele>1336</ele>
        <time>2016-09-10T15:07:15Z</time>
      </trkpt>
      <trkpt lat="42.7263" lon="1.7345">
        <ele>1336</ele>
        <time>2016-09-10T15:07:18Z</time>
      </trkpt>
      <trkpt lat="42.72637" lon="1.73456">
        <ele>1336</ele>
        <time>2016-09-10T15:07:25Z</time>
      </trkpt>
      <trkpt lat="42.72643" lon="1.73461">
        <ele>1334</ele>
        <time>2016-09-10T15:07:30Z</time>
      </trkpt>
      <trkpt lat="42.72647" lon="1.73468">
        <ele>1333</ele>
        <time>2016-09-10T15:07:37Z</time>
      </trkpt>
      <trkpt lat="42.72652" lon="1.73471">
        <ele>1331</ele>
        <time>2016-09-10T15:07:44Z</time>
      </trkpt>
      <trkpt lat="42.7266" lon="1.73475">
        <ele>1332</ele>
        <time>2016-09-10T15:07:52Z</time>
      </trkpt>
      <trkpt lat="42.72667" lon="1.73476">
        <ele>1333</ele>
        <time>2016-09-10T15:07:58Z</time>
      </trkpt>
      <trkpt lat="42.72671" lon="1.73477">
        <ele>1334</ele>
        <time>2016-09-10T15:08:02Z</time>
      </trkpt>
      <trkpt lat="42.72671" lon="1.73477">
        <ele>1334</ele>
        <time>2016-09-10T15:08:03Z</time>
      </trkpt>
      <trkpt lat="42.72672" lon="1.73477">
        <ele>1334</ele>
        <time>2016-09-10T15:08:04Z</time>
      </trkpt>
      <trkpt lat="42.72672" lon="1.73479">
        <ele>1333</ele>
        <time>2016-09-10T15:08:05Z</time>
      </trkpt>
      <trkpt lat="42.72673" lon="1.73479">
        <ele>1333</ele>
        <time>2016-09-10T15:08:06Z</time>
      </trkpt>
      <trkpt lat="42.72679" lon="1.73482">
        <ele>1332</ele>
        <time>2016-09-10T15:08:11Z</time>
      </trkpt>
      <trkpt lat="42.72687" lon="1.73493">
        <ele>1333</ele>
        <time>2016-09-10T15:08:19Z</time>
      </trkpt>
      <trkpt lat="42.72689" lon="1.73497">
        <ele>1333</ele>
        <time>2016-09-10T15:08:23Z</time>
      </trkpt>
      <trkpt lat="42.7269" lon="1.73498">
        <ele>1333</ele>
        <time>2016-09-10T15:08:24Z</time>
      </trkpt>
      <trkpt lat="42.72691" lon="1.73498">
        <ele>1333</ele>
        <time>2016-09-10T15:08:25Z</time>
      </trkpt>
      <trkpt lat="42.72693" lon="1.735">
        <ele>1332</ele>
        <time>2016-09-10T15:08:26Z</time>
      </trkpt>
      <trkpt lat="42.72694" lon="1.73501">
        <ele>1332</ele>
        <time>2016-09-10T15:08:27Z</time>
      </trkpt>
      <trkpt lat="42.72698" lon="1.73503">
        <ele>1331</ele>
        <time>2016-09-10T15:08:31Z</time>
      </trkpt>
      <trkpt lat="42.72703" lon="1.73511">
        <ele>1333</ele>
        <time>2016-09-10T15:08:38Z</time>
      </trkpt>
      <trkpt lat="42.72704" lon="1.73512">
        <ele>1333</ele>
        <time>2016-09-10T15:08:43Z</time>
      </trkpt>
      <trkpt lat="42.72704" lon="1.73512">
        <ele>1333</ele>
        <time>2016-09-10T15:08:44Z</time>
      </trkpt>
      <trkpt lat="42.72706" lon="1.73512">
        <ele>1334</ele>
        <time>2016-09-10T15:08:45Z</time>
      </trkpt>
      <trkpt lat="42.72707" lon="1.73513">
        <ele>1334</ele>
        <time>2016-09-10T15:08:46Z</time>
      </trkpt>
      <trkpt lat="42.72709" lon="1.73515">
        <ele>1334</ele>
        <time>2016-09-10T15:08:47Z</time>
      </trkpt>
      <trkpt lat="42.72717" lon="1.73524">
        <ele>1333</ele>
        <time>2016-09-10T15:08:55Z</time>
      </trkpt>
      <trkpt lat="42.72721" lon="1.73529">
        <ele>1332</ele>
        <time>2016-09-10T15:08:59Z</time>
      </trkpt>
      <trkpt lat="42.72721" lon="1.7353">
        <ele>1331</ele>
        <time>2016-09-10T15:09:00Z</time>
      </trkpt>
      <trkpt lat="42.72721" lon="1.7353">
        <ele>1331</ele>
        <time>2016-09-10T15:09:01Z</time>
      </trkpt>
      <trkpt lat="42.72721" lon="1.7353">
        <ele>1331</ele>
        <time>2016-09-10T15:09:02Z</time>
      </trkpt>
      <trkpt lat="42.72721" lon="1.7353">
        <ele>1331</ele>
        <time>2016-09-10T15:09:03Z</time>
      </trkpt>
      <trkpt lat="42.72734" lon="1.73531">
        <ele>1333</ele>
        <time>2016-09-10T15:09:11Z</time>
      </trkpt>
      <trkpt lat="42.72737" lon="1.73532">
        <ele>1332</ele>
        <time>2016-09-10T15:09:16Z</time>
      </trkpt>
      <trkpt lat="42.72738" lon="1.73532">
        <ele>1333</ele>
        <time>2016-09-10T15:09:17Z</time>
      </trkpt>
      <trkpt lat="42.72739" lon="1.73533">
        <ele>1332</ele>
        <time>2016-09-10T15:09:18Z</time>
      </trkpt>
      <trkpt lat="42.72739" lon="1.73533">
        <ele>1332</ele>
        <time>2016-09-10T15:09:19Z</time>
      </trkpt>
      <trkpt lat="42.72739" lon="1.73533">
        <ele>1332</ele>
        <time>2016-09-10T15:09:20Z</time>
      </trkpt>
      <trkpt lat="42.72747" lon="1.73542">
        <ele>1327</ele>
        <time>2016-09-10T15:09:27Z</time>
      </trkpt>
      <trkpt lat="42.7275" lon="1.73547">
        <ele>1328</ele>
        <time>2016-09-10T15:09:31Z</time>
      </trkpt>
      <trkpt lat="42.7275" lon="1.73548">
        <ele>1328</ele>
        <time>2016-09-10T15:09:32Z</time>
      </trkpt>
      <trkpt lat="42.7275" lon="1.73548">
        <ele>1328</ele>
        <time>2016-09-10T15:09:33Z</time>
      </trkpt>
      <trkpt lat="42.7275" lon="1.73548">
        <ele>1328</ele>
        <time>2016-09-10T15:09:34Z</time>
      </trkpt>
      <trkpt lat="42.72751" lon="1.7355">
        <ele>1328</ele>
        <time>2016-09-10T15:09:35Z</time>
      </trkpt>
      <trkpt lat="42.7276" lon="1.73553">
        <ele>1330</ele>
        <time>2016-09-10T15:09:44Z</time>
      </trkpt>
      <trkpt lat="42.7276" lon="1.73553">
        <ele>1330</ele>
        <time>2016-09-10T15:09:45Z</time>
      </trkpt>
      <trkpt lat="42.7276" lon="1.73553">
        <ele>1330</ele>
        <time>2016-09-10T15:09:46Z</time>
      </trkpt>
      <trkpt lat="42.72761" lon="1.73553">
        <ele>1330</ele>
        <time>2016-09-10T15:09:47Z</time>
      </trkpt>
      <trkpt lat="42.72763" lon="1.73553">
        <ele>1331</ele>
        <time>2016-09-10T15:09:48Z</time>
      </trkpt>
      <trkpt lat="42.72766" lon="1.73553">
        <ele>1332</ele>
        <time>2016-09-10T15:09:50Z</time>
      </trkpt>
      <trkpt lat="42.72779" lon="1.7356">
        <ele>1334</ele>
        <time>2016-09-10T15:09:59Z</time>
      </trkpt>
      <trkpt lat="42.72781" lon="1.73558">
        <ele>1335</ele>
        <time>2016-09-10T15:10:06Z</time>
      </trkpt>
      <trkpt lat="42.72788" lon="1.73566">
        <ele>1333</ele>
        <time>2016-09-10T15:10:14Z</time>
      </trkpt>
      <trkpt lat="42.72789" lon="1.73568">
        <ele>1333</ele>
        <time>2016-09-10T15:10:16Z</time>
      </trkpt>
      <trkpt lat="42.7279" lon="1.7357">
        <ele>1332</ele>
        <time>2016-09-10T15:10:17Z</time>
      </trkpt>
      <trkpt lat="42.72791" lon="1.73571">
        <ele>1332</ele>
        <time>2016-09-10T15:10:18Z</time>
      </trkpt>
      <trkpt lat="42.72791" lon="1.73573">
        <ele>1331</ele>
        <time>2016-09-10T15:10:19Z</time>
      </trkpt>
      <trkpt lat="42.7279" lon="1.73575">
        <ele>1330</ele>
        <time>2016-09-10T15:10:20Z</time>
      </trkpt>
      <trkpt lat="42.72795" lon="1.73586">
        <ele>1326</ele>
        <time>2016-09-10T15:10:27Z</time>
      </trkpt>
      <trkpt lat="42.72803" lon="1.73591">
        <ele>1323</ele>
        <time>2016-09-10T15:10:36Z</time>
      </trkpt>
      <trkpt lat="42.72807" lon="1.73592">
        <ele>1322</ele>
        <time>2016-09-10T15:10:43Z</time>
      </trkpt>
      <trkpt lat="42.72808" lon="1.73594">
        <ele>1321</ele>
        <time>2016-09-10T15:10:44Z</time>
      </trkpt>
      <trkpt lat="42.7281" lon="1.73596">
        <ele>1320</ele>
        <time>2016-09-10T15:10:45Z</time>
      </trkpt>
      <trkpt lat="42.72812" lon="1.73597">
        <ele>1319</ele>
        <time>2016-09-10T15:10:46Z</time>
      </trkpt>
      <trkpt lat="42.72814" lon="1.73598">
        <ele>1319</ele>
        <time>2016-09-10T15:10:47Z</time>
      </trkpt>
      <trkpt lat="42.72818" lon="1.736">
        <ele>1317</ele>
        <time>2016-09-10T15:10:51Z</time>
      </trkpt>
      <trkpt lat="42.7282" lon="1.736">
        <ele>1317</ele>
        <time>2016-09-10T15:10:52Z</time>
      </trkpt>
      <trkpt lat="42.72821" lon="1.73601">
        <ele>1316</ele>
        <time>2016-09-10T15:10:53Z</time>
      </trkpt>
      <trkpt lat="42.72823" lon="1.73601">
        <ele>1316</ele>
        <time>2016-09-10T15:10:54Z</time>
      </trkpt>
      <trkpt lat="42.72824" lon="1.73601">
        <ele>1316</ele>
        <time>2016-09-10T15:10:55Z</time>
      </trkpt>
      <trkpt lat="42.72825" lon="1.73601">
        <ele>1316</ele>
        <time>2016-09-10T15:10:56Z</time>
      </trkpt>
      <trkpt lat="42.72829" lon="1.73601">
        <ele>1315</ele>
        <time>2016-09-10T15:10:59Z</time>
      </trkpt>
      <trkpt lat="42.72829" lon="1.73601">
        <ele>1315</ele>
        <time>2016-09-10T15:11:00Z</time>
      </trkpt>
      <trkpt lat="42.72829" lon="1.73601">
        <ele>1315</ele>
        <time>2016-09-10T15:11:01Z</time>
      </trkpt>
      <trkpt lat="42.72829" lon="1.73601">
        <ele>1315</ele>
        <time>2016-09-10T15:11:02Z</time>
      </trkpt>
      <trkpt lat="42.72829" lon="1.73601">
        <ele>1315</ele>
        <time>2016-09-10T15:11:03Z</time>
      </trkpt>
      <trkpt lat="42.72832" lon="1.73604">
        <ele>1314</ele>
        <time>2016-09-10T15:11:08Z</time>
      </trkpt>
      <trkpt lat="42.72832" lon="1.73606">
        <ele>1314</ele>
        <time>2016-09-10T15:11:09Z</time>
      </trkpt>
      <trkpt lat="42.72833" lon="1.73607">
        <ele>1315</ele>
        <time>2016-09-10T15:11:10Z</time>
      </trkpt>
      <trkpt lat="42.72833" lon="1.73609">
        <ele>1315</ele>
        <time>2016-09-10T15:11:11Z</time>
      </trkpt>
      <trkpt lat="42.72834" lon="1.73611">
        <ele>1315</ele>
        <time>2016-09-10T15:11:12Z</time>
      </trkpt>
      <trkpt lat="42.72835" lon="1.73615">
        <ele>1315</ele>
        <time>2016-09-10T15:11:14Z</time>
      </trkpt>
      <trkpt lat="42.72844" lon="1.73617">
        <ele>1316</ele>
        <time>2016-09-10T15:11:19Z</time>
      </trkpt>
      <trkpt lat="42.72846" lon="1.73618">
        <ele>1316</ele>
        <time>2016-09-10T15:11:20Z</time>
      </trkpt>
      <trkpt lat="42.72847" lon="1.73619">
        <ele>1316</ele>
        <time>2016-09-10T15:11:21Z</time>
      </trkpt>
      <trkpt lat="42.72848" lon="1.7362">
        <ele>1316</ele>
        <time>2016-09-10T15:11:22Z</time>
      </trkpt>
      <trkpt lat="42.72849" lon="1.7362">
        <ele>1316</ele>
        <time>2016-09-10T15:11:23Z</time>
      </trkpt>
      <trkpt lat="42.72851" lon="1.73618">
        <ele>1316</ele>
        <time>2016-09-10T15:11:29Z</time>
      </trkpt>
      <trkpt lat="42.72854" lon="1.73618">
        <ele>1316</ele>
        <time>2016-09-10T15:11:31Z</time>
      </trkpt>
      <trkpt lat="42.72855" lon="1.73619">
        <ele>1316</ele>
        <time>2016-09-10T15:11:32Z</time>
      </trkpt>
      <trkpt lat="42.72857" lon="1.73621">
        <ele>1315</ele>
        <time>2016-09-10T15:11:33Z</time>
      </trkpt>
      <trkpt lat="42.72859" lon="1.73621">
        <ele>1315</ele>
        <time>2016-09-10T15:11:34Z</time>
      </trkpt>
      <trkpt lat="42.7286" lon="1.73623">
        <ele>1315</ele>
        <time>2016-09-10T15:11:35Z</time>
      </trkpt>
      <trkpt lat="42.72863" lon="1.73626">
        <ele>1314</ele>
        <time>2016-09-10T15:11:37Z</time>
      </trkpt>
      <trkpt lat="42.72863" lon="1.73632">
        <ele>1313</ele>
        <time>2016-09-10T15:11:41Z</time>
      </trkpt>
      <trkpt lat="42.72864" lon="1.73632">
        <ele>1312</ele>
        <time>2016-09-10T15:11:42Z</time>
      </trkpt>
      <trkpt lat="42.72865" lon="1.73633">
        <ele>1312</ele>
        <time>2016-09-10T15:11:43Z</time>
      </trkpt>
      <trkpt lat="42.72866" lon="1.73634">
        <ele>1312</ele>
        <time>2016-09-10T15:11:44Z</time>
      </trkpt>
      <trkpt lat="42.72866" lon="1.73635">
        <ele>1311</ele>
        <time>2016-09-10T15:11:45Z</time>
      </trkpt>
      <trkpt lat="42.72868" lon="1.73638">
        <ele>1310</ele>
        <time>2016-09-10T15:11:49Z</time>
      </trkpt>
      <trkpt lat="42.72872" lon="1.73639">
        <ele>1309</ele>
        <time>2016-09-10T15:11:52Z</time>
      </trkpt>
      <trkpt lat="42.72875" lon="1.73639">
        <ele>1308</ele>
        <time>2016-09-10T15:11:53Z</time>
      </trkpt>
      <trkpt lat="42.72876" lon="1.7364">
        <ele>1307</ele>
        <time>2016-09-10T15:11:54Z</time>
      </trkpt>
      <trkpt lat="42.72878" lon="1.7364">
        <ele>1307</ele>
        <time>2016-09-10T15:11:55Z</time>
      </trkpt>
      <trkpt lat="42.72883" lon="1.73648">
        <ele>1305</ele>
        <time>2016-09-10T15:12:00Z</time>
      </trkpt>
      <trkpt lat="42.72884" lon="1.73649">
        <ele>1304</ele>
        <time>2016-09-10T15:12:01Z</time>
      </trkpt>
      <trkpt lat="42.72885" lon="1.73649">
        <ele>1304</ele>
        <time>2016-09-10T15:12:02Z</time>
      </trkpt>
      <trkpt lat="42.72885" lon="1.73649">
        <ele>1304</ele>
        <time>2016-09-10T15:12:03Z</time>
      </trkpt>
      <trkpt lat="42.72885" lon="1.73649">
        <ele>1304</ele>
        <time>2016-09-10T15:12:04Z</time>
      </trkpt>
      <trkpt lat="42.72885" lon="1.73649">
        <ele>1304</ele>
        <time>2016-09-10T15:12:09Z</time>
      </trkpt>
      <trkpt lat="42.72885" lon="1.73649">
        <ele>1304</ele>
        <time>2016-09-10T15:12:10Z</time>
      </trkpt>
      <trkpt lat="42.72886" lon="1.7365">
        <ele>1304</ele>
        <time>2016-09-10T15:12:11Z</time>
      </trkpt>
      <trkpt lat="42.72886" lon="1.73651">
        <ele>1304</ele>
        <time>2016-09-10T15:12:12Z</time>
      </trkpt>
      <trkpt lat="42.72886" lon="1.73651">
        <ele>1304</ele>
        <time>2016-09-10T15:12:13Z</time>
      </trkpt>
      <trkpt lat="42.72886" lon="1.73651">
        <ele>1304</ele>
        <time>2016-09-10T15:12:17Z</time>
      </trkpt>
      <trkpt lat="42.72894" lon="1.73652">
        <ele>1304</ele>
        <time>2016-09-10T15:12:21Z</time>
      </trkpt>
      <trkpt lat="42.72896" lon="1.73653">
        <ele>1304</ele>
        <time>2016-09-10T15:12:22Z</time>
      </trkpt>
      <trkpt lat="42.72899" lon="1.73655">
        <ele>1303</ele>
        <time>2016-09-10T15:12:23Z</time>
      </trkpt>
      <trkpt lat="42.72902" lon="1.73656">
        <ele>1303</ele>
        <time>2016-09-10T15:12:24Z</time>
      </trkpt>
      <trkpt lat="42.72902" lon="1.73656">
        <ele>1302</ele>
        <time>2016-09-10T15:12:25Z</time>
      </trkpt>
      <trkpt lat="42.72905" lon="1.73659">
        <ele>1301</ele>
        <time>2016-09-10T15:12:27Z</time>
      </trkpt>
      <trkpt lat="42.72908" lon="1.73669">
        <ele>1299</ele>
        <time>2016-09-10T15:12:32Z</time>
      </trkpt>
      <trkpt lat="42.72908" lon="1.73675">
        <ele>1298</ele>
        <time>2016-09-10T15:12:35Z</time>
      </trkpt>
      <trkpt lat="42.72907" lon="1.73676">
        <ele>1298</ele>
        <time>2016-09-10T15:12:36Z</time>
      </trkpt>
      <trkpt lat="42.72907" lon="1.73678">
        <ele>1298</ele>
        <time>2016-09-10T15:12:37Z</time>
      </trkpt>
      <trkpt lat="42.72907" lon="1.73679">
        <ele>1298</ele>
        <time>2016-09-10T15:12:38Z</time>
      </trkpt>
      <trkpt lat="42.72908" lon="1.7368">
        <ele>1297</ele>
        <time>2016-09-10T15:12:39Z</time>
      </trkpt>
      <trkpt lat="42.72909" lon="1.73682">
        <ele>1297</ele>
        <time>2016-09-10T15:12:42Z</time>
      </trkpt>
      <trkpt lat="42.72909" lon="1.73682">
        <ele>1297</ele>
        <time>2016-09-10T15:12:43Z</time>
      </trkpt>
      <trkpt lat="42.72909" lon="1.73683">
        <ele>1297</ele>
        <time>2016-09-10T15:12:44Z</time>
      </trkpt>
      <trkpt lat="42.72909" lon="1.73684">
        <ele>1297</ele>
        <time>2016-09-10T15:12:45Z</time>
      </trkpt>
      <trkpt lat="42.72909" lon="1.73686">
        <ele>1296</ele>
        <time>2016-09-10T15:12:46Z</time>
      </trkpt>
      <trkpt lat="42.7291" lon="1.73693">
        <ele>1295</ele>
        <time>2016-09-10T15:12:52Z</time>
      </trkpt>
      <trkpt lat="42.72911" lon="1.73695">
        <ele>1295</ele>
        <time>2016-09-10T15:12:53Z</time>
      </trkpt>
      <trkpt lat="42.72911" lon="1.73696">
        <ele>1295</ele>
        <time>2016-09-10T15:12:54Z</time>
      </trkpt>
      <trkpt lat="42.72911" lon="1.73698">
        <ele>1294</ele>
        <time>2016-09-10T15:12:55Z</time>
      </trkpt>
      <trkpt lat="42.72911" lon="1.73699">
        <ele>1294</ele>
        <time>2016-09-10T15:12:56Z</time>
      </trkpt>
      <trkpt lat="42.72911" lon="1.73703">
        <ele>1294</ele>
        <time>2016-09-10T15:13:00Z</time>
      </trkpt>
      <trkpt lat="42.72912" lon="1.73704">
        <ele>1293</ele>
        <time>2016-09-10T15:13:01Z</time>
      </trkpt>
      <trkpt lat="42.72912" lon="1.73706">
        <ele>1293</ele>
        <time>2016-09-10T15:13:02Z</time>
      </trkpt>
      <trkpt lat="42.72913" lon="1.73707">
        <ele>1292</ele>
        <time>2016-09-10T15:13:03Z</time>
      </trkpt>
      <trkpt lat="42.72914" lon="1.73709">
        <ele>1292</ele>
        <time>2016-09-10T15:13:04Z</time>
      </trkpt>
      <trkpt lat="42.72915" lon="1.7371">
        <ele>1291</ele>
        <time>2016-09-10T15:13:07Z</time>
      </trkpt>
      <trkpt lat="42.72916" lon="1.73711">
        <ele>1290</ele>
        <time>2016-09-10T15:13:08Z</time>
      </trkpt>
      <trkpt lat="42.72917" lon="1.73712">
        <ele>1289</ele>
        <time>2016-09-10T15:13:09Z</time>
      </trkpt>
      <trkpt lat="42.72918" lon="1.73714">
        <ele>1289</ele>
        <time>2016-09-10T15:13:10Z</time>
      </trkpt>
      <trkpt lat="42.72918" lon="1.73715">
        <ele>1288</ele>
        <time>2016-09-10T15:13:11Z</time>
      </trkpt>
      <trkpt lat="42.72919" lon="1.7372">
        <ele>1287</ele>
        <time>2016-09-10T15:13:16Z</time>
      </trkpt>
      <trkpt lat="42.72921" lon="1.73726">
        <ele>1285</ele>
        <time>2016-09-10T15:13:21Z</time>
      </trkpt>
      <trkpt lat="42.72922" lon="1.73727">
        <ele>1286</ele>
        <time>2016-09-10T15:13:22Z</time>
      </trkpt>
      <trkpt lat="42.72923" lon="1.73728">
        <ele>1285</ele>
        <time>2016-09-10T15:13:23Z</time>
      </trkpt>
      <trkpt lat="42.72923" lon="1.73728">
        <ele>1285</ele>
        <time>2016-09-10T15:13:24Z</time>
      </trkpt>
      <trkpt lat="42.72924" lon="1.73728">
        <ele>1285</ele>
        <time>2016-09-10T15:13:25Z</time>
      </trkpt>
      <trkpt lat="42.72924" lon="1.73731">
        <ele>1285</ele>
        <time>2016-09-10T15:13:30Z</time>
      </trkpt>
      <trkpt lat="42.72925" lon="1.73733">
        <ele>1285</ele>
        <time>2016-09-10T15:13:33Z</time>
      </trkpt>
      <trkpt lat="42.72925" lon="1.73733">
        <ele>1285</ele>
        <time>2016-09-10T15:13:34Z</time>
      </trkpt>
      <trkpt lat="42.72925" lon="1.73733">
        <ele>1285</ele>
        <time>2016-09-10T15:13:35Z</time>
      </trkpt>
      <trkpt lat="42.72925" lon="1.73733">
        <ele>1285</ele>
        <time>2016-09-10T15:13:36Z</time>
      </trkpt>
      <trkpt lat="42.72927" lon="1.73734">
        <ele>1285</ele>
        <time>2016-09-10T15:13:37Z</time>
      </trkpt>
      <trkpt lat="42.72928" lon="1.73735">
        <ele>1285</ele>
        <time>2016-09-10T15:13:45Z</time>
      </trkpt>
      <trkpt lat="42.72928" lon="1.73735">
        <ele>1285</ele>
        <time>2016-09-10T15:13:46Z</time>
      </trkpt>
      <trkpt lat="42.72931" lon="1.73735">
        <ele>1285</ele>
        <time>2016-09-10T15:13:47Z</time>
      </trkpt>
      <trkpt lat="42.72933" lon="1.73736">
        <ele>1284</ele>
        <time>2016-09-10T15:13:48Z</time>
      </trkpt>
      <trkpt lat="42.72933" lon="1.73736">
        <ele>1284</ele>
        <time>2016-09-10T15:13:49Z</time>
      </trkpt>
      <trkpt lat="42.72933" lon="1.73736">
        <ele>1284</ele>
        <time>2016-09-10T15:13:52Z</time>
      </trkpt>
      <trkpt lat="42.72937" lon="1.73737">
        <ele>1283</ele>
        <time>2016-09-10T15:13:57Z</time>
      </trkpt>
      <trkpt lat="42.72937" lon="1.73737">
        <ele>1283</ele>
        <time>2016-09-10T15:13:58Z</time>
      </trkpt>
      <trkpt lat="42.72938" lon="1.73739">
        <ele>1283</ele>
        <time>2016-09-10T15:13:59Z</time>
      </trkpt>
      <trkpt lat="42.72938" lon="1.73739">
        <ele>1283</ele>
        <time>2016-09-10T15:14:00Z</time>
      </trkpt>
      <trkpt lat="42.72938" lon="1.73739">
        <ele>1283</ele>
        <time>2016-09-10T15:14:01Z</time>
      </trkpt>
      <trkpt lat="42.72946" lon="1.73739">
        <ele>1281</ele>
        <time>2016-09-10T15:14:09Z</time>
      </trkpt>
      <trkpt lat="42.72948" lon="1.7374">
        <ele>1281</ele>
        <time>2016-09-10T15:14:12Z</time>
      </trkpt>
      <trkpt lat="42.72949" lon="1.73741">
        <ele>1281</ele>
        <time>2016-09-10T15:14:13Z</time>
      </trkpt>
      <trkpt lat="42.7295" lon="1.73743">
        <ele>1281</ele>
        <time>2016-09-10T15:14:14Z</time>
      </trkpt>
      <trkpt lat="42.72951" lon="1.73744">
        <ele>1281</ele>
        <time>2016-09-10T15:14:15Z</time>
      </trkpt>
      <trkpt lat="42.72953" lon="1.73745">
        <ele>1280</ele>
        <time>2016-09-10T15:14:16Z</time>
      </trkpt>
      <trkpt lat="42.72964" lon="1.73752">
        <ele>1277</ele>
        <time>2016-09-10T15:14:24Z</time>
      </trkpt>
      <trkpt lat="42.72965" lon="1.73753">
        <ele>1277</ele>
        <time>2016-09-10T15:14:25Z</time>
      </trkpt>
      <trkpt lat="42.72965" lon="1.73753">
        <ele>1277</ele>
        <time>2016-09-10T15:14:26Z</time>
      </trkpt>
      <trkpt lat="42.72966" lon="1.73754">
        <ele>1277</ele>
        <time>2016-09-10T15:14:27Z</time>
      </trkpt>
      <trkpt lat="42.72967" lon="1.73754">
        <ele>1276</ele>
        <time>2016-09-10T15:14:28Z</time>
      </trkpt>
      <trkpt lat="42.72966" lon="1.73755">
        <ele>1277</ele>
        <time>2016-09-10T15:14:33Z</time>
      </trkpt>
      <trkpt lat="42.72971" lon="1.73757">
        <ele>1275</ele>
        <time>2016-09-10T15:14:40Z</time>
      </trkpt>
      <trkpt lat="42.72979" lon="1.73761">
        <ele>1273</ele>
        <time>2016-09-10T15:14:47Z</time>
      </trkpt>
      <trkpt lat="42.72987" lon="1.73764">
        <ele>1271</ele>
        <time>2016-09-10T15:14:55Z</time>
      </trkpt>
      <trkpt lat="42.72998" lon="1.73769">
        <ele>1267</ele>
        <time>2016-09-10T15:15:03Z</time>
      </trkpt>
      <trkpt lat="42.72999" lon="1.73774">
        <ele>1266</ele>
        <time>2016-09-10T15:15:07Z</time>
      </trkpt>
      <trkpt lat="42.73" lon="1.73774">
        <ele>1266</ele>
        <time>2016-09-10T15:15:08Z</time>
      </trkpt>
      <trkpt lat="42.73" lon="1.73775">
        <ele>1266</ele>
        <time>2016-09-10T15:15:09Z</time>
      </trkpt>
      <trkpt lat="42.73001" lon="1.73775">
        <ele>1265</ele>
        <time>2016-09-10T15:15:10Z</time>
      </trkpt>
      <trkpt lat="42.73007" lon="1.73777">
        <ele>1263</ele>
        <time>2016-09-10T15:15:15Z</time>
      </trkpt>
      <trkpt lat="42.73007" lon="1.73778">
        <ele>1263</ele>
        <time>2016-09-10T15:15:16Z</time>
      </trkpt>
      <trkpt lat="42.73007" lon="1.73778">
        <ele>1263</ele>
        <time>2016-09-10T15:15:17Z</time>
      </trkpt>
      <trkpt lat="42.73006" lon="1.73779">
        <ele>1263</ele>
        <time>2016-09-10T15:15:18Z</time>
      </trkpt>
      <trkpt lat="42.73005" lon="1.73779">
        <ele>1264</ele>
        <time>2016-09-10T15:15:19Z</time>
      </trkpt>
      <trkpt lat="42.73006" lon="1.7378">
        <ele>1263</ele>
        <time>2016-09-10T15:15:25Z</time>
      </trkpt>
      <trkpt lat="42.73013" lon="1.7379">
        <ele>1261</ele>
        <time>2016-09-10T15:15:35Z</time>
      </trkpt>
      <trkpt lat="42.73013" lon="1.73791">
        <ele>1261</ele>
        <time>2016-09-10T15:15:36Z</time>
      </trkpt>
      <trkpt lat="42.73014" lon="1.73792">
        <ele>1261</ele>
        <time>2016-09-10T15:15:37Z</time>
      </trkpt>
      <trkpt lat="42.73014" lon="1.73793">
        <ele>1262</ele>
        <time>2016-09-10T15:15:38Z</time>
      </trkpt>
      <trkpt lat="42.73015" lon="1.73794">
        <ele>1261</ele>
        <time>2016-09-10T15:15:39Z</time>
      </trkpt>
      <trkpt lat="42.73017" lon="1.73798">
        <ele>1261</ele>
        <time>2016-09-10T15:15:43Z</time>
      </trkpt>
      <trkpt lat="42.73019" lon="1.73802">
        <ele>1261</ele>
        <time>2016-09-10T15:15:47Z</time>
      </trkpt>
      <trkpt lat="42.7302" lon="1.73803">
        <ele>1262</ele>
        <time>2016-09-10T15:15:48Z</time>
      </trkpt>
      <trkpt lat="42.7302" lon="1.73804">
        <ele>1262</ele>
        <time>2016-09-10T15:15:49Z</time>
      </trkpt>
      <trkpt lat="42.7302" lon="1.73805">
        <ele>1262</ele>
        <time>2016-09-10T15:15:50Z</time>
      </trkpt>
      <trkpt lat="42.73021" lon="1.73806">
        <ele>1262</ele>
        <time>2016-09-10T15:15:51Z</time>
      </trkpt>
      <trkpt lat="42.73024" lon="1.73814">
        <ele>1262</ele>
        <time>2016-09-10T15:15:58Z</time>
      </trkpt>
      <trkpt lat="42.73024" lon="1.73814">
        <ele>1262</ele>
        <time>2016-09-10T15:15:59Z</time>
      </trkpt>
      <trkpt lat="42.73025" lon="1.73815">
        <ele>1262</ele>
        <time>2016-09-10T15:16:00Z</time>
      </trkpt>
      <trkpt lat="42.73025" lon="1.73817">
        <ele>1262</ele>
        <time>2016-09-10T15:16:01Z</time>
      </trkpt>
      <trkpt lat="42.73025" lon="1.73817">
        <ele>1262</ele>
        <time>2016-09-10T15:16:02Z</time>
      </trkpt>
      <trkpt lat="42.73026" lon="1.7382">
        <ele>1262</ele>
        <time>2016-09-10T15:16:04Z</time>
      </trkpt>
      <trkpt lat="42.73026" lon="1.73824">
        <ele>1262</ele>
        <time>2016-09-10T15:16:10Z</time>
      </trkpt>
      <trkpt lat="42.73026" lon="1.73824">
        <ele>1262</ele>
        <time>2016-09-10T15:16:12Z</time>
      </trkpt>
      <trkpt lat="42.73026" lon="1.73824">
        <ele>1262</ele>
        <time>2016-09-10T15:16:13Z</time>
      </trkpt>
      <trkpt lat="42.73026" lon="1.73824">
        <ele>1262</ele>
        <time>2016-09-10T15:16:14Z</time>
      </trkpt>
      <trkpt lat="42.73026" lon="1.73824">
        <ele>1262</ele>
        <time>2016-09-10T15:16:15Z</time>
      </trkpt>
      <trkpt lat="42.73027" lon="1.73825">
        <ele>1262</ele>
        <time>2016-09-10T15:16:16Z</time>
      </trkpt>
      <trkpt lat="42.73029" lon="1.73828">
        <ele>1262</ele>
        <time>2016-09-10T15:16:18Z</time>
      </trkpt>
      <trkpt lat="42.73033" lon="1.73832">
        <ele>1261</ele>
        <time>2016-09-10T15:16:21Z</time>
      </trkpt>
      <trkpt lat="42.73034" lon="1.73834">
        <ele>1261</ele>
        <time>2016-09-10T15:16:22Z</time>
      </trkpt>
      <trkpt lat="42.73035" lon="1.73835">
        <ele>1260</ele>
        <time>2016-09-10T15:16:23Z</time>
      </trkpt>
      <trkpt lat="42.73036" lon="1.73836">
        <ele>1260</ele>
        <time>2016-09-10T15:16:24Z</time>
      </trkpt>
      <trkpt lat="42.73037" lon="1.73837">
        <ele>1260</ele>
        <time>2016-09-10T15:16:26Z</time>
      </trkpt>
      <trkpt lat="42.7304" lon="1.73843">
        <ele>1259</ele>
        <time>2016-09-10T15:16:32Z</time>
      </trkpt>
      <trkpt lat="42.7304" lon="1.73843">
        <ele>1259</ele>
        <time>2016-09-10T15:16:33Z</time>
      </trkpt>
      <trkpt lat="42.73041" lon="1.73844">
        <ele>1259</ele>
        <time>2016-09-10T15:16:34Z</time>
      </trkpt>
      <trkpt lat="42.73042" lon="1.73845">
        <ele>1259</ele>
        <time>2016-09-10T15:16:35Z</time>
      </trkpt>
      <trkpt lat="42.73043" lon="1.73846">
        <ele>1258</ele>
        <time>2016-09-10T15:16:36Z</time>
      </trkpt>
      <trkpt lat="42.73044" lon="1.73846">
        <ele>1258</ele>
        <time>2016-09-10T15:16:39Z</time>
      </trkpt>
      <trkpt lat="42.73047" lon="1.73847">
        <ele>1257</ele>
        <time>2016-09-10T15:16:42Z</time>
      </trkpt>
      <trkpt lat="42.73049" lon="1.73846">
        <ele>1256</ele>
        <time>2016-09-10T15:16:43Z</time>
      </trkpt>
      <trkpt lat="42.7305" lon="1.73847">
        <ele>1256</ele>
        <time>2016-09-10T15:16:44Z</time>
      </trkpt>
      <trkpt lat="42.73051" lon="1.73848">
        <ele>1255</ele>
        <time>2016-09-10T15:16:45Z</time>
      </trkpt>
      <trkpt lat="42.73053" lon="1.73848">
        <ele>1254</ele>
        <time>2016-09-10T15:16:46Z</time>
      </trkpt>
      <trkpt lat="42.73056" lon="1.73854">
        <ele>1253</ele>
        <time>2016-09-10T15:16:53Z</time>
      </trkpt>
      <trkpt lat="42.73055" lon="1.73855">
        <ele>1254</ele>
        <time>2016-09-10T15:16:54Z</time>
      </trkpt>
      <trkpt lat="42.73054" lon="1.73856">
        <ele>1254</ele>
        <time>2016-09-10T15:16:55Z</time>
      </trkpt>
      <trkpt lat="42.73053" lon="1.73857">
        <ele>1254</ele>
        <time>2016-09-10T15:16:56Z</time>
      </trkpt>
      <trkpt lat="42.73053" lon="1.73861">
        <ele>1255</ele>
        <time>2016-09-10T15:16:57Z</time>
      </trkpt>
      <trkpt lat="42.73053" lon="1.73862">
        <ele>1255</ele>
        <time>2016-09-10T15:16:58Z</time>
      </trkpt>
      <trkpt lat="42.73052" lon="1.73865">
        <ele>1255</ele>
        <time>2016-09-10T15:16:59Z</time>
      </trkpt>
      <trkpt lat="42.73054" lon="1.73875">
        <ele>1255</ele>
        <time>2016-09-10T15:17:06Z</time>
      </trkpt>
      <trkpt lat="42.73055" lon="1.73876">
        <ele>1254</ele>
        <time>2016-09-10T15:17:07Z</time>
      </trkpt>
      <trkpt lat="42.73055" lon="1.73877">
        <ele>1254</ele>
        <time>2016-09-10T15:17:08Z</time>
      </trkpt>
      <trkpt lat="42.73056" lon="1.73877">
        <ele>1254</ele>
        <time>2016-09-10T15:17:09Z</time>
      </trkpt>
      <trkpt lat="42.73056" lon="1.73878">
        <ele>1254</ele>
        <time>2016-09-10T15:17:10Z</time>
      </trkpt>
      <trkpt lat="42.73057" lon="1.73878">
        <ele>1253</ele>
        <time>2016-09-10T15:17:11Z</time>
      </trkpt>
      <trkpt lat="42.73061" lon="1.73882">
        <ele>1252</ele>
        <time>2016-09-10T15:17:15Z</time>
      </trkpt>
      <trkpt lat="42.73062" lon="1.73883">
        <ele>1252</ele>
        <time>2016-09-10T15:17:16Z</time>
      </trkpt>
      <trkpt lat="42.73063" lon="1.73885">
        <ele>1251</ele>
        <time>2016-09-10T15:17:17Z</time>
      </trkpt>
      <trkpt lat="42.73063" lon="1.73885">
        <ele>1251</ele>
        <time>2016-09-10T15:17:18Z</time>
      </trkpt>
      <trkpt lat="42.73063" lon="1.73886">
        <ele>1251</ele>
        <time>2016-09-10T15:17:19Z</time>
      </trkpt>
      <trkpt lat="42.73065" lon="1.73888">
        <ele>1250</ele>
        <time>2016-09-10T15:17:24Z</time>
      </trkpt>
      <trkpt lat="42.73065" lon="1.73888">
        <ele>1250</ele>
        <time>2016-09-10T15:17:26Z</time>
      </trkpt>
      <trkpt lat="42.73066" lon="1.73888">
        <ele>1250</ele>
        <time>2016-09-10T15:17:27Z</time>
      </trkpt>
      <trkpt lat="42.73066" lon="1.73889">
        <ele>1250</ele>
        <time>2016-09-10T15:17:28Z</time>
      </trkpt>
      <trkpt lat="42.73067" lon="1.73889">
        <ele>1250</ele>
        <time>2016-09-10T15:17:29Z</time>
      </trkpt>
      <trkpt lat="42.73067" lon="1.73889">
        <ele>1250</ele>
        <time>2016-09-10T15:17:30Z</time>
      </trkpt>
      <trkpt lat="42.73067" lon="1.73891">
        <ele>1250</ele>
        <time>2016-09-10T15:17:32Z</time>
      </trkpt>
      <trkpt lat="42.73066" lon="1.73897">
        <ele>1250</ele>
        <time>2016-09-10T15:17:36Z</time>
      </trkpt>
      <trkpt lat="42.73066" lon="1.73898">
        <ele>1250</ele>
        <time>2016-09-10T15:17:37Z</time>
      </trkpt>
      <trkpt lat="42.73066" lon="1.73898">
        <ele>1250</ele>
        <time>2016-09-10T15:17:38Z</time>
      </trkpt>
      <trkpt lat="42.73067" lon="1.73898">
        <ele>1250</ele>
        <time>2016-09-10T15:17:39Z</time>
      </trkpt>
      <trkpt lat="42.73072" lon="1.73903">
        <ele>1248</ele>
        <time>2016-09-10T15:17:44Z</time>
      </trkpt>
      <trkpt lat="42.73072" lon="1.73903">
        <ele>1248</ele>
        <time>2016-09-10T15:17:45Z</time>
      </trkpt>
      <trkpt lat="42.73073" lon="1.73902">
        <ele>1248</ele>
        <time>2016-09-10T15:17:46Z</time>
      </trkpt>
      <trkpt lat="42.73074" lon="1.73902">
        <ele>1247</ele>
        <time>2016-09-10T15:17:47Z</time>
      </trkpt>
      <trkpt lat="42.73074" lon="1.73901">
        <ele>1247</ele>
        <time>2016-09-10T15:17:48Z</time>
      </trkpt>
      <trkpt lat="42.73075" lon="1.739">
        <ele>1247</ele>
        <time>2016-09-10T15:17:49Z</time>
      </trkpt>
      <trkpt lat="42.73075" lon="1.73899">
        <ele>1247</ele>
        <time>2016-09-10T15:17:54Z</time>
      </trkpt>
      <trkpt lat="42.73075" lon="1.73899">
        <ele>1247</ele>
        <time>2016-09-10T15:17:55Z</time>
      </trkpt>
      <trkpt lat="42.73075" lon="1.73899">
        <ele>1247</ele>
        <time>2016-09-10T15:17:56Z</time>
      </trkpt>
      <trkpt lat="42.73075" lon="1.73899">
        <ele>1247</ele>
        <time>2016-09-10T15:17:57Z</time>
      </trkpt>
      <trkpt lat="42.73077" lon="1.73899">
        <ele>1246</ele>
        <time>2016-09-10T15:17:58Z</time>
      </trkpt>
      <trkpt lat="42.73078" lon="1.73899">
        <ele>1246</ele>
        <time>2016-09-10T15:17:59Z</time>
      </trkpt>
      <trkpt lat="42.73081" lon="1.73898">
        <ele>1245</ele>
        <time>2016-09-10T15:18:01Z</time>
      </trkpt>
      <trkpt lat="42.73083" lon="1.73899">
        <ele>1244</ele>
        <time>2016-09-10T15:18:05Z</time>
      </trkpt>
      <trkpt lat="42.73084" lon="1.739">
        <ele>1243</ele>
        <time>2016-09-10T15:18:06Z</time>
      </trkpt>
      <trkpt lat="42.73086" lon="1.73901">
        <ele>1243</ele>
        <time>2016-09-10T15:18:07Z</time>
      </trkpt>
      <trkpt lat="42.73088" lon="1.73901">
        <ele>1242</ele>
        <time>2016-09-10T15:18:08Z</time>
      </trkpt>
      <trkpt lat="42.73089" lon="1.73901">
        <ele>1242</ele>
        <time>2016-09-10T15:18:09Z</time>
      </trkpt>
      <trkpt lat="42.73091" lon="1.73901">
        <ele>1241</ele>
        <time>2016-09-10T15:18:10Z</time>
      </trkpt>
      <trkpt lat="42.731" lon="1.739">
        <ele>1237</ele>
        <time>2016-09-10T15:18:16Z</time>
      </trkpt>
      <trkpt lat="42.73109" lon="1.73897">
        <ele>1234</ele>
        <time>2016-09-10T15:18:24Z</time>
      </trkpt>
      <trkpt lat="42.7311" lon="1.73896">
        <ele>1234</ele>
        <time>2016-09-10T15:18:25Z</time>
      </trkpt>
      <trkpt lat="42.73111" lon="1.73895">
        <ele>1234</ele>
        <time>2016-09-10T15:18:26Z</time>
      </trkpt>
      <trkpt lat="42.73111" lon="1.73895">
        <ele>1234</ele>
        <time>2016-09-10T15:18:27Z</time>
      </trkpt>
      <trkpt lat="42.73112" lon="1.73895">
        <ele>1234</ele>
        <time>2016-09-10T15:18:28Z</time>
      </trkpt>
      <trkpt lat="42.73114" lon="1.73894">
        <ele>1233</ele>
        <time>2016-09-10T15:18:32Z</time>
      </trkpt>
      <trkpt lat="42.73115" lon="1.73894">
        <ele>1233</ele>
        <time>2016-09-10T15:18:33Z</time>
      </trkpt>
      <trkpt lat="42.73116" lon="1.73893">
        <ele>1232</ele>
        <time>2016-09-10T15:18:34Z</time>
      </trkpt>
      <trkpt lat="42.73117" lon="1.73893">
        <ele>1232</ele>
        <time>2016-09-10T15:18:35Z</time>
      </trkpt>
      <trkpt lat="42.73118" lon="1.73892">
        <ele>1232</ele>
        <time>2016-09-10T15:18:36Z</time>
      </trkpt>
      <trkpt lat="42.7312" lon="1.73891">
        <ele>1231</ele>
        <time>2016-09-10T15:18:37Z</time>
      </trkpt>
      <trkpt lat="42.73125" lon="1.73885">
        <ele>1230</ele>
        <time>2016-09-10T15:18:42Z</time>
      </trkpt>
      <trkpt lat="42.73125" lon="1.73884">
        <ele>1231</ele>
        <time>2016-09-10T15:18:45Z</time>
      </trkpt>
      <trkpt lat="42.73125" lon="1.73884">
        <ele>1231</ele>
        <time>2016-09-10T15:18:46Z</time>
      </trkpt>
      <trkpt lat="42.73125" lon="1.73884">
        <ele>1231</ele>
        <time>2016-09-10T15:18:47Z</time>
      </trkpt>
      <trkpt lat="42.73125" lon="1.73884">
        <ele>1231</ele>
        <time>2016-09-10T15:18:48Z</time>
      </trkpt>
      <trkpt lat="42.73125" lon="1.73882">
        <ele>1231</ele>
        <time>2016-09-10T15:18:49Z</time>
      </trkpt>
      <trkpt lat="42.73125" lon="1.73877">
        <ele>1231</ele>
        <time>2016-09-10T15:18:51Z</time>
      </trkpt>
      <trkpt lat="42.73123" lon="1.73874">
        <ele>1232</ele>
        <time>2016-09-10T15:18:58Z</time>
      </trkpt>
      <trkpt lat="42.73123" lon="1.73868">
        <ele>1232</ele>
        <time>2016-09-10T15:19:04Z</time>
      </trkpt>
      <trkpt lat="42.73123" lon="1.73868">
        <ele>1232</ele>
        <time>2016-09-10T15:19:05Z</time>
      </trkpt>
      <trkpt lat="42.73123" lon="1.73868">
        <ele>1232</ele>
        <time>2016-09-10T15:19:06Z</time>
      </trkpt>
      <trkpt lat="42.73123" lon="1.73868">
        <ele>1232</ele>
        <time>2016-09-10T15:19:07Z</time>
      </trkpt>
      <trkpt lat="42.73123" lon="1.73868">
        <ele>1232</ele>
        <time>2016-09-10T15:19:08Z</time>
      </trkpt>
      <trkpt lat="42.73123" lon="1.73868">
        <ele>1232</ele>
        <time>2016-09-10T15:19:16Z</time>
      </trkpt>
      <trkpt lat="42.73121" lon="1.73867">
        <ele>1233</ele>
        <time>2016-09-10T15:19:22Z</time>
      </trkpt>
      <trkpt lat="42.73126" lon="1.73866">
        <ele>1232</ele>
        <time>2016-09-10T15:19:32Z</time>
      </trkpt>
      <trkpt lat="42.73129" lon="1.73872">
        <ele>1231</ele>
        <time>2016-09-10T15:19:40Z</time>
      </trkpt>
      <trkpt lat="42.73132" lon="1.73876">
        <ele>1229</ele>
        <time>2016-09-10T15:19:43Z</time>
      </trkpt>
      <trkpt lat="42.73133" lon="1.73878">
        <ele>1229</ele>
        <time>2016-09-10T15:19:44Z</time>
      </trkpt>
      <trkpt lat="42.73133" lon="1.73878">
        <ele>1229</ele>
        <time>2016-09-10T15:19:45Z</time>
      </trkpt>
      <trkpt lat="42.73136" lon="1.73879">
        <ele>1228</ele>
        <time>2016-09-10T15:19:46Z</time>
      </trkpt>
      <trkpt lat="42.73137" lon="1.7388">
        <ele>1227</ele>
        <time>2016-09-10T15:19:47Z</time>
      </trkpt>
      <trkpt lat="42.73141" lon="1.73883">
        <ele>1226</ele>
        <time>2016-09-10T15:19:51Z</time>
      </trkpt>
      <trkpt lat="42.73143" lon="1.73885">
        <ele>1225</ele>
        <time>2016-09-10T15:19:52Z</time>
      </trkpt>
      <trkpt lat="42.73145" lon="1.73887">
        <ele>1224</ele>
        <time>2016-09-10T15:19:53Z</time>
      </trkpt>
      <trkpt lat="42.73145" lon="1.73888">
        <ele>1224</ele>
        <time>2016-09-10T15:19:54Z</time>
      </trkpt>
      <trkpt lat="42.73145" lon="1.73888">
        <ele>1224</ele>
        <time>2016-09-10T15:19:55Z</time>
      </trkpt>
      <trkpt lat="42.73149" lon="1.73893">
        <ele>1222</ele>
        <time>2016-09-10T15:19:59Z</time>
      </trkpt>
      <trkpt lat="42.73151" lon="1.73897">
        <ele>1221</ele>
        <time>2016-09-10T15:20:04Z</time>
      </trkpt>
      <trkpt lat="42.73153" lon="1.73899">
        <ele>1220</ele>
        <time>2016-09-10T15:20:05Z</time>
      </trkpt>
      <trkpt lat="42.73154" lon="1.739">
        <ele>1219</ele>
        <time>2016-09-10T15:20:06Z</time>
      </trkpt>
      <trkpt lat="42.73155" lon="1.73901">
        <ele>1219</ele>
        <time>2016-09-10T15:20:07Z</time>
      </trkpt>
      <trkpt lat="42.73158" lon="1.73907">
        <ele>1217</ele>
        <time>2016-09-10T15:20:10Z</time>
      </trkpt>
      <trkpt lat="42.73162" lon="1.73912">
        <ele>1216</ele>
        <time>2016-09-10T15:20:16Z</time>
      </trkpt>
      <trkpt lat="42.73165" lon="1.73915">
        <ele>1215</ele>
        <time>2016-09-10T15:20:20Z</time>
      </trkpt>
      <trkpt lat="42.73165" lon="1.73915">
        <ele>1215</ele>
        <time>2016-09-10T15:20:21Z</time>
      </trkpt>
      <trkpt lat="42.73166" lon="1.73915">
        <ele>1215</ele>
        <time>2016-09-10T15:20:22Z</time>
      </trkpt>
      <trkpt lat="42.73166" lon="1.73916">
        <ele>1215</ele>
        <time>2016-09-10T15:20:23Z</time>
      </trkpt>
      <trkpt lat="42.73167" lon="1.73918">
        <ele>1214</ele>
        <time>2016-09-10T15:20:24Z</time>
      </trkpt>
      <trkpt lat="42.73168" lon="1.7392">
        <ele>1214</ele>
        <time>2016-09-10T15:20:29Z</time>
      </trkpt>
      <trkpt lat="42.73168" lon="1.73921">
        <ele>1214</ele>
        <time>2016-09-10T15:20:30Z</time>
      </trkpt>
      <trkpt lat="42.73169" lon="1.73922">
        <ele>1213</ele>
        <time>2016-09-10T15:20:31Z</time>
      </trkpt>
      <trkpt lat="42.73169" lon="1.73922">
        <ele>1213</ele>
        <time>2016-09-10T15:20:32Z</time>
      </trkpt>
      <trkpt lat="42.73169" lon="1.73922">
        <ele>1213</ele>
        <time>2016-09-10T15:20:35Z</time>
      </trkpt>
      <trkpt lat="42.73172" lon="1.73921">
        <ele>1213</ele>
        <time>2016-09-10T15:20:39Z</time>
      </trkpt>
      <trkpt lat="42.73171" lon="1.73922">
        <ele>1213</ele>
        <time>2016-09-10T15:20:40Z</time>
      </trkpt>
      <trkpt lat="42.73171" lon="1.73923">
        <ele>1213</ele>
        <time>2016-09-10T15:20:41Z</time>
      </trkpt>
      <trkpt lat="42.73172" lon="1.73924">
        <ele>1212</ele>
        <time>2016-09-10T15:20:42Z</time>
      </trkpt>
      <trkpt lat="42.73173" lon="1.73925">
        <ele>1212</ele>
        <time>2016-09-10T15:20:43Z</time>
      </trkpt>
      <trkpt lat="42.73176" lon="1.73925">
        <ele>1211</ele>
        <time>2016-09-10T15:20:46Z</time>
      </trkpt>
      <trkpt lat="42.73177" lon="1.73925">
        <ele>1211</ele>
        <time>2016-09-10T15:20:48Z</time>
      </trkpt>
      <trkpt lat="42.73178" lon="1.73926">
        <ele>1211</ele>
        <time>2016-09-10T15:20:49Z</time>
      </trkpt>
      <trkpt lat="42.73178" lon="1.73927">
        <ele>1211</ele>
        <time>2016-09-10T15:20:50Z</time>
      </trkpt>
      <trkpt lat="42.73178" lon="1.73928">
        <ele>1211</ele>
        <time>2016-09-10T15:20:51Z</time>
      </trkpt>
      <trkpt lat="42.73178" lon="1.73928">
        <ele>1211</ele>
        <time>2016-09-10T15:20:52Z</time>
      </trkpt>
      <trkpt lat="42.7318" lon="1.73933">
        <ele>1210</ele>
        <time>2016-09-10T15:20:56Z</time>
      </trkpt>
      <trkpt lat="42.7318" lon="1.73933">
        <ele>1210</ele>
        <time>2016-09-10T15:20:57Z</time>
      </trkpt>
      <trkpt lat="42.7318" lon="1.73934">
        <ele>1210</ele>
        <time>2016-09-10T15:20:58Z</time>
      </trkpt>
      <trkpt lat="42.7318" lon="1.73934">
        <ele>1210</ele>
        <time>2016-09-10T15:20:59Z</time>
      </trkpt>
      <trkpt lat="42.7318" lon="1.73934">
        <ele>1210</ele>
        <time>2016-09-10T15:21:00Z</time>
      </trkpt>
      <trkpt lat="42.7318" lon="1.73934">
        <ele>1210</ele>
        <time>2016-09-10T15:21:01Z</time>
      </trkpt>
      <trkpt lat="42.7318" lon="1.73934">
        <ele>1210</ele>
        <time>2016-09-10T15:21:05Z</time>
      </trkpt>
      <trkpt lat="42.7318" lon="1.73934">
        <ele>1210</ele>
        <time>2016-09-10T15:21:06Z</time>
      </trkpt>
      <trkpt lat="42.7318" lon="1.73934">
        <ele>1210</ele>
        <time>2016-09-10T15:21:07Z</time>
      </trkpt>
      <trkpt lat="42.73181" lon="1.73934">
        <ele>1209</ele>
        <time>2016-09-10T15:21:08Z</time>
      </trkpt>
      <trkpt lat="42.73181" lon="1.73934">
        <ele>1209</ele>
        <time>2016-09-10T15:21:09Z</time>
      </trkpt>
      <trkpt lat="42.73181" lon="1.73934">
        <ele>1209</ele>
        <time>2016-09-10T15:21:14Z</time>
      </trkpt>
      <trkpt lat="42.73181" lon="1.73934">
        <ele>1209</ele>
        <time>2016-09-10T15:21:15Z</time>
      </trkpt>
      <trkpt lat="42.73181" lon="1.73934">
        <ele>1209</ele>
        <time>2016-09-10T15:21:16Z</time>
      </trkpt>
      <trkpt lat="42.73181" lon="1.73934">
        <ele>1209</ele>
        <time>2016-09-10T15:21:17Z</time>
      </trkpt>
      <trkpt lat="42.73181" lon="1.73934">
        <ele>1209</ele>
        <time>2016-09-10T15:21:18Z</time>
      </trkpt>
      <trkpt lat="42.73181" lon="1.73934">
        <ele>1209</ele>
        <time>2016-09-10T15:21:19Z</time>
      </trkpt>
      <trkpt lat="42.73186" lon="1.73929">
        <ele>1209</ele>
        <time>2016-09-10T15:21:22Z</time>
      </trkpt>
      <trkpt lat="42.73189" lon="1.73929">
        <ele>1208</ele>
        <time>2016-09-10T15:21:23Z</time>
      </trkpt>
      <trkpt lat="42.73192" lon="1.7393">
        <ele>1207</ele>
        <time>2016-09-10T15:21:24Z</time>
      </trkpt>
      <trkpt lat="42.73194" lon="1.73931">
        <ele>1207</ele>
        <time>2016-09-10T15:21:25Z</time>
      </trkpt>
      <trkpt lat="42.73196" lon="1.73933">
        <ele>1206</ele>
        <time>2016-09-10T15:21:26Z</time>
      </trkpt>
      <trkpt lat="42.73197" lon="1.73936">
        <ele>1206</ele>
        <time>2016-09-10T15:21:29Z</time>
      </trkpt>
      <trkpt lat="42.73198" lon="1.73939">
        <ele>1205</ele>
        <time>2016-09-10T15:21:33Z</time>
      </trkpt>
      <trkpt lat="42.73198" lon="1.73939">
        <ele>1205</ele>
        <time>2016-09-10T15:21:34Z</time>
      </trkpt>
      <trkpt lat="42.73198" lon="1.7394">
        <ele>1205</ele>
        <time>2016-09-10T15:21:35Z</time>
      </trkpt>
      <trkpt lat="42.73199" lon="1.73941">
        <ele>1204</ele>
        <time>2016-09-10T15:21:36Z</time>
      </trkpt>
      <trkpt lat="42.732" lon="1.73942">
        <ele>1204</ele>
        <time>2016-09-10T15:21:37Z</time>
      </trkpt>
      <trkpt lat="42.73203" lon="1.73944">
        <ele>1203</ele>
        <time>2016-09-10T15:21:43Z</time>
      </trkpt>
      <trkpt lat="42.73204" lon="1.73943">
        <ele>1203</ele>
        <time>2016-09-10T15:21:44Z</time>
      </trkpt>
      <trkpt lat="42.73205" lon="1.73942">
        <ele>1203</ele>
        <time>2016-09-10T15:21:45Z</time>
      </trkpt>
      <trkpt lat="42.73206" lon="1.73942">
        <ele>1202</ele>
        <time>2016-09-10T15:21:46Z</time>
      </trkpt>
      <trkpt lat="42.73207" lon="1.73942">
        <ele>1202</ele>
        <time>2016-09-10T15:21:47Z</time>
      </trkpt>
      <trkpt lat="42.73209" lon="1.73942">
        <ele>1202</ele>
        <time>2016-09-10T15:21:48Z</time>
      </trkpt>
      <trkpt lat="42.73215" lon="1.73941">
        <ele>1200</ele>
        <time>2016-09-10T15:21:52Z</time>
      </trkpt>
      <trkpt lat="42.73216" lon="1.73941">
        <ele>1200</ele>
        <time>2016-09-10T15:21:53Z</time>
      </trkpt>
      <trkpt lat="42.73216" lon="1.73942">
        <ele>1199</ele>
        <time>2016-09-10T15:21:54Z</time>
      </trkpt>
      <trkpt lat="42.73216" lon="1.73943">
        <ele>1199</ele>
        <time>2016-09-10T15:21:55Z</time>
      </trkpt>
      <trkpt lat="42.73216" lon="1.73944">
        <ele>1199</ele>
        <time>2016-09-10T15:21:56Z</time>
      </trkpt>
      <trkpt lat="42.73216" lon="1.73944">
        <ele>1199</ele>
        <time>2016-09-10T15:21:57Z</time>
      </trkpt>
      <trkpt lat="42.73217" lon="1.73947">
        <ele>1198</ele>
        <time>2016-09-10T15:22:00Z</time>
      </trkpt>
      <trkpt lat="42.73218" lon="1.7395">
        <ele>1197</ele>
        <time>2016-09-10T15:22:03Z</time>
      </trkpt>
      <trkpt lat="42.73219" lon="1.73951">
        <ele>1197</ele>
        <time>2016-09-10T15:22:04Z</time>
      </trkpt>
      <trkpt lat="42.73219" lon="1.73952">
        <ele>1196</ele>
        <time>2016-09-10T15:22:05Z</time>
      </trkpt>
      <trkpt lat="42.73218" lon="1.73954">
        <ele>1196</ele>
        <time>2016-09-10T15:22:06Z</time>
      </trkpt>
      <trkpt lat="42.73218" lon="1.73956">
        <ele>1196</ele>
        <time>2016-09-10T15:22:07Z</time>
      </trkpt>
      <trkpt lat="42.7322" lon="1.73956">
        <ele>1196</ele>
        <time>2016-09-10T15:22:13Z</time>
      </trkpt>
      <trkpt lat="42.7322" lon="1.73955">
        <ele>1196</ele>
        <time>2016-09-10T15:22:14Z</time>
      </trkpt>
      <trkpt lat="42.7322" lon="1.73955">
        <ele>1196</ele>
        <time>2016-09-10T15:22:15Z</time>
      </trkpt>
      <trkpt lat="42.73221" lon="1.73953">
        <ele>1196</ele>
        <time>2016-09-10T15:22:16Z</time>
      </trkpt>
      <trkpt lat="42.73221" lon="1.73953">
        <ele>1196</ele>
        <time>2016-09-10T15:22:17Z</time>
      </trkpt>
      <trkpt lat="42.73225" lon="1.73954">
        <ele>1194</ele>
        <time>2016-09-10T15:22:23Z</time>
      </trkpt>
      <trkpt lat="42.73226" lon="1.73954">
        <ele>1194</ele>
        <time>2016-09-10T15:22:24Z</time>
      </trkpt>
      <trkpt lat="42.73227" lon="1.73954">
        <ele>1194</ele>
        <time>2016-09-10T15:22:25Z</time>
      </trkpt>
      <trkpt lat="42.73227" lon="1.73954">
        <ele>1193</ele>
        <time>2016-09-10T15:22:26Z</time>
      </trkpt>
      <trkpt lat="42.73228" lon="1.73955">
        <ele>1193</ele>
        <time>2016-09-10T15:22:27Z</time>
      </trkpt>
      <trkpt lat="42.73233" lon="1.73954">
        <ele>1191</ele>
        <time>2016-09-10T15:22:33Z</time>
      </trkpt>
      <trkpt lat="42.73235" lon="1.73953">
        <ele>1191</ele>
        <time>2016-09-10T15:22:34Z</time>
      </trkpt>
      <trkpt lat="42.73236" lon="1.73952">
        <ele>1191</ele>
        <time>2016-09-10T15:22:35Z</time>
      </trkpt>
      <trkpt lat="42.73237" lon="1.73951">
        <ele>1191</ele>
        <time>2016-09-10T15:22:36Z</time>
      </trkpt>
      <trkpt lat="42.73238" lon="1.7395">
        <ele>1191</ele>
        <time>2016-09-10T15:22:37Z</time>
      </trkpt>
      <trkpt lat="42.73241" lon="1.7395">
        <ele>1190</ele>
        <time>2016-09-10T15:22:40Z</time>
      </trkpt>
      <trkpt lat="42.73243" lon="1.73953">
        <ele>1188</ele>
        <time>2016-09-10T15:22:46Z</time>
      </trkpt>
      <trkpt lat="42.73242" lon="1.73954">
        <ele>1188</ele>
        <time>2016-09-10T15:22:47Z</time>
      </trkpt>
      <trkpt lat="42.73242" lon="1.73954">
        <ele>1189</ele>
        <time>2016-09-10T15:22:48Z</time>
      </trkpt>
      <trkpt lat="42.73241" lon="1.73955">
        <ele>1189</ele>
        <time>2016-09-10T15:22:49Z</time>
      </trkpt>
      <trkpt lat="42.73241" lon="1.73956">
        <ele>1188</ele>
        <time>2016-09-10T15:22:50Z</time>
      </trkpt>
      <trkpt lat="42.73239" lon="1.73962">
        <ele>1187</ele>
        <time>2016-09-10T15:22:54Z</time>
      </trkpt>
      <trkpt lat="42.73238" lon="1.73963">
        <ele>1187</ele>
        <time>2016-09-10T15:22:56Z</time>
      </trkpt>
      <trkpt lat="42.73237" lon="1.73963">
        <ele>1188</ele>
        <time>2016-09-10T15:22:57Z</time>
      </trkpt>
      <trkpt lat="42.73237" lon="1.73963">
        <ele>1188</ele>
        <time>2016-09-10T15:22:58Z</time>
      </trkpt>
      <trkpt lat="42.73236" lon="1.73963">
        <ele>1188</ele>
        <time>2016-09-10T15:22:59Z</time>
      </trkpt>
      <trkpt lat="42.73234" lon="1.73965">
        <ele>1188</ele>
        <time>2016-09-10T15:23:03Z</time>
      </trkpt>
      <trkpt lat="42.73234" lon="1.73966">
        <ele>1188</ele>
        <time>2016-09-10T15:23:08Z</time>
      </trkpt>
      <trkpt lat="42.73234" lon="1.73966">
        <ele>1188</ele>
        <time>2016-09-10T15:23:09Z</time>
      </trkpt>
      <trkpt lat="42.73234" lon="1.73968">
        <ele>1188</ele>
        <time>2016-09-10T15:23:10Z</time>
      </trkpt>
      <trkpt lat="42.73234" lon="1.73969">
        <ele>1188</ele>
        <time>2016-09-10T15:23:11Z</time>
      </trkpt>
      <trkpt lat="42.73234" lon="1.7397">
        <ele>1187</ele>
        <time>2016-09-10T15:23:12Z</time>
      </trkpt>
      <trkpt lat="42.73234" lon="1.73972">
        <ele>1187</ele>
        <time>2016-09-10T15:23:17Z</time>
      </trkpt>
      <trkpt lat="42.73234" lon="1.73973">
        <ele>1186</ele>
        <time>2016-09-10T15:23:18Z</time>
      </trkpt>
      <trkpt lat="42.73234" lon="1.73973">
        <ele>1186</ele>
        <time>2016-09-10T15:23:19Z</time>
      </trkpt>
      <trkpt lat="42.73234" lon="1.73973">
        <ele>1186</ele>
        <time>2016-09-10T15:23:20Z</time>
      </trkpt>
      <trkpt lat="42.73234" lon="1.73975">
        <ele>1186</ele>
        <time>2016-09-10T15:23:21Z</time>
      </trkpt>
      <trkpt lat="42.73232" lon="1.73981">
        <ele>1185</ele>
        <time>2016-09-10T15:23:24Z</time>
      </trkpt>
      <trkpt lat="42.73233" lon="1.73984">
        <ele>1185</ele>
        <time>2016-09-10T15:23:26Z</time>
      </trkpt>
      <trkpt lat="42.73233" lon="1.73984">
        <ele>1184</ele>
        <time>2016-09-10T15:23:27Z</time>
      </trkpt>
      <trkpt lat="42.73233" lon="1.73985">
        <ele>1184</ele>
        <time>2016-09-10T15:23:28Z</time>
      </trkpt>
      <trkpt lat="42.73233" lon="1.73986">
        <ele>1184</ele>
        <time>2016-09-10T15:23:29Z</time>
      </trkpt>
      <trkpt lat="42.73233" lon="1.73987">
        <ele>1184</ele>
        <time>2016-09-10T15:23:30Z</time>
      </trkpt>
      <trkpt lat="42.73232" lon="1.73988">
        <ele>1183</ele>
        <time>2016-09-10T15:23:31Z</time>
      </trkpt>
      <trkpt lat="42.73233" lon="1.73991">
        <ele>1183</ele>
        <time>2016-09-10T15:23:35Z</time>
      </trkpt>
      <trkpt lat="42.73233" lon="1.73993">
        <ele>1182</ele>
        <time>2016-09-10T15:23:36Z</time>
      </trkpt>
      <trkpt lat="42.73233" lon="1.73994">
        <ele>1182</ele>
        <time>2016-09-10T15:23:37Z</time>
      </trkpt>
      <trkpt lat="42.73233" lon="1.73996">
        <ele>1182</ele>
        <time>2016-09-10T15:23:38Z</time>
      </trkpt>
      <trkpt lat="42.73232" lon="1.73997">
        <ele>1182</ele>
        <time>2016-09-10T15:23:39Z</time>
      </trkpt>
      <trkpt lat="42.73231" lon="1.74002">
        <ele>1181</ele>
        <time>2016-09-10T15:23:44Z</time>
      </trkpt>
      <trkpt lat="42.73231" lon="1.74003">
        <ele>1181</ele>
        <time>2016-09-10T15:23:45Z</time>
      </trkpt>
      <trkpt lat="42.73231" lon="1.74003">
        <ele>1181</ele>
        <time>2016-09-10T15:23:46Z</time>
      </trkpt>
      <trkpt lat="42.73231" lon="1.74004">
        <ele>1180</ele>
        <time>2016-09-10T15:23:47Z</time>
      </trkpt>
      <trkpt lat="42.73231" lon="1.74004">
        <ele>1180</ele>
        <time>2016-09-10T15:23:54Z</time>
      </trkpt>
      <trkpt lat="42.73231" lon="1.74004">
        <ele>1180</ele>
        <time>2016-09-10T15:23:55Z</time>
      </trkpt>
      <trkpt lat="42.73231" lon="1.74004">
        <ele>1180</ele>
        <time>2016-09-10T15:23:56Z</time>
      </trkpt>
      <trkpt lat="42.73231" lon="1.74004">
        <ele>1180</ele>
        <time>2016-09-10T15:23:57Z</time>
      </trkpt>
      <trkpt lat="42.73231" lon="1.74004">
        <ele>1180</ele>
        <time>2016-09-10T15:23:58Z</time>
      </trkpt>
      <trkpt lat="42.73232" lon="1.74005">
        <ele>1180</ele>
        <time>2016-09-10T15:24:04Z</time>
      </trkpt>
      <trkpt lat="42.73232" lon="1.74007">
        <ele>1179</ele>
        <time>2016-09-10T15:24:05Z</time>
      </trkpt>
      <trkpt lat="42.73233" lon="1.7401">
        <ele>1178</ele>
        <time>2016-09-10T15:24:06Z</time>
      </trkpt>
      <trkpt lat="42.73233" lon="1.74013">
        <ele>1177</ele>
        <time>2016-09-10T15:24:07Z</time>
      </trkpt>
      <trkpt lat="42.73232" lon="1.74015">
        <ele>1177</ele>
        <time>2016-09-10T15:24:08Z</time>
      </trkpt>
      <trkpt lat="42.73232" lon="1.74018">
        <ele>1177</ele>
        <time>2016-09-10T15:24:09Z</time>
      </trkpt>
      <trkpt lat="42.73233" lon="1.74024">
        <ele>1175</ele>
        <time>2016-09-10T15:24:12Z</time>
      </trkpt>
      <trkpt lat="42.73235" lon="1.74026">
        <ele>1174</ele>
        <time>2016-09-10T15:24:14Z</time>
      </trkpt>
      <trkpt lat="42.73236" lon="1.74027">
        <ele>1174</ele>
        <time>2016-09-10T15:24:15Z</time>
      </trkpt>
      <trkpt lat="42.73236" lon="1.74027">
        <ele>1173</ele>
        <time>2016-09-10T15:24:16Z</time>
      </trkpt>
      <trkpt lat="42.73237" lon="1.74028">
        <ele>1173</ele>
        <time>2016-09-10T15:24:17Z</time>
      </trkpt>
      <trkpt lat="42.73237" lon="1.74028">
        <ele>1173</ele>
        <time>2016-09-10T15:24:18Z</time>
      </trkpt>
      <trkpt lat="42.73237" lon="1.74028">
        <ele>1173</ele>
        <time>2016-09-10T15:24:19Z</time>
      </trkpt>
      <trkpt lat="42.7324" lon="1.7403">
        <ele>1172</ele>
        <time>2016-09-10T15:24:25Z</time>
      </trkpt>
      <trkpt lat="42.73242" lon="1.74032">
        <ele>1172</ele>
        <time>2016-09-10T15:24:26Z</time>
      </trkpt>
      <trkpt lat="42.73243" lon="1.74033">
        <ele>1171</ele>
        <time>2016-09-10T15:24:27Z</time>
      </trkpt>
      <trkpt lat="42.73243" lon="1.74034">
        <ele>1171</ele>
        <time>2016-09-10T15:24:28Z</time>
      </trkpt>
      <trkpt lat="42.73244" lon="1.74035">
        <ele>1171</ele>
        <time>2016-09-10T15:24:29Z</time>
      </trkpt>
      <trkpt lat="42.73246" lon="1.74036">
        <ele>1171</ele>
        <time>2016-09-10T15:24:33Z</time>
      </trkpt>
      <trkpt lat="42.73249" lon="1.74037">
        <ele>1170</ele>
        <time>2016-09-10T15:24:36Z</time>
      </trkpt>
      <trkpt lat="42.7325" lon="1.74037">
        <ele>1170</ele>
        <time>2016-09-10T15:24:37Z</time>
      </trkpt>
      <trkpt lat="42.73251" lon="1.74038">
        <ele>1169</ele>
        <time>2016-09-10T15:24:38Z</time>
      </trkpt>
      <trkpt lat="42.73252" lon="1.74038">
        <ele>1169</ele>
        <time>2016-09-10T15:24:39Z</time>
      </trkpt>
      <trkpt lat="42.73252" lon="1.74039">
        <ele>1169</ele>
        <time>2016-09-10T15:24:44Z</time>
      </trkpt>
      <trkpt lat="42.73252" lon="1.74039">
        <ele>1169</ele>
        <time>2016-09-10T15:24:45Z</time>
      </trkpt>
      <trkpt lat="42.73252" lon="1.74039">
        <ele>1169</ele>
        <time>2016-09-10T15:24:46Z</time>
      </trkpt>
      <trkpt lat="42.73252" lon="1.74039">
        <ele>1169</ele>
        <time>2016-09-10T15:24:47Z</time>
      </trkpt>
      <trkpt lat="42.73252" lon="1.74039">
        <ele>1169</ele>
        <time>2016-09-10T15:24:48Z</time>
      </trkpt>
      <trkpt lat="42.73253" lon="1.74046">
        <ele>1169</ele>
        <time>2016-09-10T15:24:53Z</time>
      </trkpt>
      <trkpt lat="42.73255" lon="1.74057">
        <ele>1169</ele>
        <time>2016-09-10T15:25:00Z</time>
      </trkpt>
      <trkpt lat="42.73258" lon="1.74064">
        <ele>1169</ele>
        <time>2016-09-10T15:25:06Z</time>
      </trkpt>
      <trkpt lat="42.73262" lon="1.74068">
        <ele>1167</ele>
        <time>2016-09-10T15:25:13Z</time>
      </trkpt>
      <trkpt lat="42.73265" lon="1.7407">
        <ele>1167</ele>
        <time>2016-09-10T15:25:18Z</time>
      </trkpt>
      <trkpt lat="42.73267" lon="1.7407">
        <ele>1166</ele>
        <time>2016-09-10T15:25:19Z</time>
      </trkpt>
      <trkpt lat="42.73269" lon="1.7407">
        <ele>1165</ele>
        <time>2016-09-10T15:25:20Z</time>
      </trkpt>
      <trkpt lat="42.7327" lon="1.7407">
        <ele>1165</ele>
        <time>2016-09-10T15:25:21Z</time>
      </trkpt>
      <trkpt lat="42.73278" lon="1.74077">
        <ele>1163</ele>
        <time>2016-09-10T15:25:27Z</time>
      </trkpt>
      <trkpt lat="42.73281" lon="1.7408">
        <ele>1162</ele>
        <time>2016-09-10T15:25:31Z</time>
      </trkpt>
      <trkpt lat="42.73282" lon="1.7408">
        <ele>1162</ele>
        <time>2016-09-10T15:25:32Z</time>
      </trkpt>
      <trkpt lat="42.73283" lon="1.7408">
        <ele>1161</ele>
        <time>2016-09-10T15:25:33Z</time>
      </trkpt>
      <trkpt lat="42.73284" lon="1.74081">
        <ele>1161</ele>
        <time>2016-09-10T15:25:34Z</time>
      </trkpt>
      <trkpt lat="42.73285" lon="1.74081">
        <ele>1161</ele>
        <time>2016-09-10T15:25:35Z</time>
      </trkpt>
      <trkpt lat="42.73286" lon="1.74082">
        <ele>1160</ele>
        <time>2016-09-10T15:25:36Z</time>
      </trkpt>
      <trkpt lat="42.73288" lon="1.74082">
        <ele>1160</ele>
        <time>2016-09-10T15:25:44Z</time>
      </trkpt>
      <trkpt lat="42.73289" lon="1.74083">
        <ele>1160</ele>
        <time>2016-09-10T15:25:54Z</time>
      </trkpt>
      <trkpt lat="42.73296" lon="1.74089">
        <ele>1159</ele>
        <time>2016-09-10T15:26:02Z</time>
      </trkpt>
      <trkpt lat="42.73299" lon="1.74091">
        <ele>1158</ele>
        <time>2016-09-10T15:26:03Z</time>
      </trkpt>
      <trkpt lat="42.73301" lon="1.74093">
        <ele>1158</ele>
        <time>2016-09-10T15:26:04Z</time>
      </trkpt>
      <trkpt lat="42.73303" lon="1.74095">
        <ele>1158</ele>
        <time>2016-09-10T15:26:05Z</time>
      </trkpt>
      <trkpt lat="42.73303" lon="1.74096">
        <ele>1158</ele>
        <time>2016-09-10T15:26:06Z</time>
      </trkpt>
      <trkpt lat="42.73304" lon="1.74096">
        <ele>1158</ele>
        <time>2016-09-10T15:26:07Z</time>
      </trkpt>
      <trkpt lat="42.7331" lon="1.74104">
        <ele>1157</ele>
        <time>2016-09-10T15:26:14Z</time>
      </trkpt>
      <trkpt lat="42.73316" lon="1.74108">
        <ele>1156</ele>
        <time>2016-09-10T15:26:20Z</time>
      </trkpt>
      <trkpt lat="42.73318" lon="1.74109">
        <ele>1155</ele>
        <time>2016-09-10T15:26:21Z</time>
      </trkpt>
      <trkpt lat="42.7332" lon="1.7411">
        <ele>1155</ele>
        <time>2016-09-10T15:26:22Z</time>
      </trkpt>
      <trkpt lat="42.73321" lon="1.74112">
        <ele>1155</ele>
        <time>2016-09-10T15:26:23Z</time>
      </trkpt>
      <trkpt lat="42.73322" lon="1.74113">
        <ele>1155</ele>
        <time>2016-09-10T15:26:24Z</time>
      </trkpt>
      <trkpt lat="42.73325" lon="1.74115">
        <ele>1154</ele>
        <time>2016-09-10T15:26:28Z</time>
      </trkpt>
      <trkpt lat="42.7333" lon="1.74121">
        <ele>1153</ele>
        <time>2016-09-10T15:26:35Z</time>
      </trkpt>
      <trkpt lat="42.73337" lon="1.74127">
        <ele>1152</ele>
        <time>2016-09-10T15:26:42Z</time>
      </trkpt>
      <trkpt lat="42.73338" lon="1.74127">
        <ele>1152</ele>
        <time>2016-09-10T15:26:43Z</time>
      </trkpt>
      <trkpt lat="42.73339" lon="1.74127">
        <ele>1151</ele>
        <time>2016-09-10T15:26:44Z</time>
      </trkpt>
      <trkpt lat="42.7334" lon="1.74129">
        <ele>1151</ele>
        <time>2016-09-10T15:26:45Z</time>
      </trkpt>
      <trkpt lat="42.7334" lon="1.7413">
        <ele>1151</ele>
        <time>2016-09-10T15:26:46Z</time>
      </trkpt>
      <trkpt lat="42.73342" lon="1.74132">
        <ele>1151</ele>
        <time>2016-09-10T15:26:49Z</time>
      </trkpt>
      <trkpt lat="42.73344" lon="1.74133">
        <ele>1150</ele>
        <time>2016-09-10T15:26:52Z</time>
      </trkpt>
      <trkpt lat="42.73344" lon="1.74133">
        <ele>1150</ele>
        <time>2016-09-10T15:26:53Z</time>
      </trkpt>
      <trkpt lat="42.73345" lon="1.74134">
        <ele>1150</ele>
        <time>2016-09-10T15:26:54Z</time>
      </trkpt>
      <trkpt lat="42.73345" lon="1.74135">
        <ele>1150</ele>
        <time>2016-09-10T15:26:55Z</time>
      </trkpt>
      <trkpt lat="42.73345" lon="1.74135">
        <ele>1150</ele>
        <time>2016-09-10T15:26:56Z</time>
      </trkpt>
      <trkpt lat="42.73346" lon="1.74136">
        <ele>1150</ele>
        <time>2016-09-10T15:26:58Z</time>
      </trkpt>
      <trkpt lat="42.73349" lon="1.74139">
        <ele>1149</ele>
        <time>2016-09-10T15:27:01Z</time>
      </trkpt>
      <trkpt lat="42.7335" lon="1.74141">
        <ele>1149</ele>
        <time>2016-09-10T15:27:02Z</time>
      </trkpt>
      <trkpt lat="42.73351" lon="1.74142">
        <ele>1148</ele>
        <time>2016-09-10T15:27:03Z</time>
      </trkpt>
      <trkpt lat="42.73353" lon="1.74143">
        <ele>1148</ele>
        <time>2016-09-10T15:27:04Z</time>
      </trkpt>
      <trkpt lat="42.73355" lon="1.74144">
        <ele>1147</ele>
        <time>2016-09-10T15:27:05Z</time>
      </trkpt>
      <trkpt lat="42.73356" lon="1.74144">
        <ele>1147</ele>
        <time>2016-09-10T15:27:06Z</time>
      </trkpt>
      <trkpt lat="42.73356" lon="1.74145">
        <ele>1146</ele>
        <time>2016-09-10T15:27:10Z</time>
      </trkpt>
      <trkpt lat="42.73357" lon="1.74147">
        <ele>1146</ele>
        <time>2016-09-10T15:27:11Z</time>
      </trkpt>
      <trkpt lat="42.73358" lon="1.74148">
        <ele>1146</ele>
        <time>2016-09-10T15:27:12Z</time>
      </trkpt>
      <trkpt lat="42.73358" lon="1.7415">
        <ele>1146</ele>
        <time>2016-09-10T15:27:13Z</time>
      </trkpt>
      <trkpt lat="42.73359" lon="1.74151">
        <ele>1146</ele>
        <time>2016-09-10T15:27:14Z</time>
      </trkpt>
      <trkpt lat="42.73362" lon="1.74159">
        <ele>1146</ele>
        <time>2016-09-10T15:27:19Z</time>
      </trkpt>
      <trkpt lat="42.73364" lon="1.74171">
        <ele>1145</ele>
        <time>2016-09-10T15:27:29Z</time>
      </trkpt>
      <trkpt lat="42.7336" lon="1.74173">
        <ele>1148</ele>
        <time>2016-09-10T15:27:36Z</time>
      </trkpt>
      <trkpt lat="42.73357" lon="1.74175">
        <ele>1149</ele>
        <time>2016-09-10T15:27:51Z</time>
      </trkpt>
      <trkpt lat="42.73357" lon="1.74175">
        <ele>1149</ele>
        <time>2016-09-10T15:28:07Z</time>
      </trkpt>
      <trkpt lat="42.73357" lon="1.74176">
        <ele>1149</ele>
        <time>2016-09-10T15:28:25Z</time>
      </trkpt>
      <trkpt lat="42.73357" lon="1.74176">
        <ele>1149</ele>
        <time>2016-09-10T15:28:27Z</time>
      </trkpt>
      <trkpt lat="42.73357" lon="1.74176">
        <ele>1149</ele>
        <time>2016-09-10T15:28:28Z</time>
      </trkpt>
      <trkpt lat="42.73357" lon="1.74176">
        <ele>1149</ele>
        <time>2016-09-10T15:28:29Z</time>
      </trkpt>
      <trkpt lat="42.73357" lon="1.74176">
        <ele>1149</ele>
        <time>2016-09-10T15:28:30Z</time>
      </trkpt>
      <trkpt lat="42.73357" lon="1.74176">
        <ele>1149</ele>
        <time>2016-09-10T15:28:31Z</time>
      </trkpt>
      <trkpt lat="42.73357" lon="1.7418">
        <ele>1149</ele>
        <time>2016-09-10T15:28:34Z</time>
      </trkpt>
      <trkpt lat="42.73364" lon="1.7419">
        <ele>1147</ele>
        <time>2016-09-10T15:28:42Z</time>
      </trkpt>
      <trkpt lat="42.73368" lon="1.74192">
        <ele>1145</ele>
        <time>2016-09-10T15:28:50Z</time>
      </trkpt>
      <trkpt lat="42.73369" lon="1.74198">
        <ele>1145</ele>
        <time>2016-09-10T15:28:57Z</time>
      </trkpt>
      <trkpt lat="42.73372" lon="1.74201">
        <ele>1143</ele>
        <time>2016-09-10T15:29:02Z</time>
      </trkpt>
      <trkpt lat="42.73374" lon="1.74201">
        <ele>1142</ele>
        <time>2016-09-10T15:29:03Z</time>
      </trkpt>
      <trkpt lat="42.73375" lon="1.74201">
        <ele>1142</ele>
        <time>2016-09-10T15:29:04Z</time>
      </trkpt>
      <trkpt lat="42.73376" lon="1.74201">
        <ele>1141</ele>
        <time>2016-09-10T15:29:05Z</time>
      </trkpt>
      <trkpt lat="42.73377" lon="1.74201">
        <ele>1141</ele>
        <time>2016-09-10T15:29:06Z</time>
      </trkpt>
      <trkpt lat="42.73382" lon="1.74204">
        <ele>1140</ele>
        <time>2016-09-10T15:29:11Z</time>
      </trkpt>
      <trkpt lat="42.73383" lon="1.74204">
        <ele>1140</ele>
        <time>2016-09-10T15:29:12Z</time>
      </trkpt>
      <trkpt lat="42.73384" lon="1.74205">
        <ele>1140</ele>
        <time>2016-09-10T15:29:13Z</time>
      </trkpt>
      <trkpt lat="42.73385" lon="1.74205">
        <ele>1139</ele>
        <time>2016-09-10T15:29:14Z</time>
      </trkpt>
      <trkpt lat="42.73387" lon="1.74206">
        <ele>1139</ele>
        <time>2016-09-10T15:29:15Z</time>
      </trkpt>
      <trkpt lat="42.73389" lon="1.74209">
        <ele>1139</ele>
        <time>2016-09-10T15:29:20Z</time>
      </trkpt>
      <trkpt lat="42.73389" lon="1.7421">
        <ele>1139</ele>
        <time>2016-09-10T15:29:21Z</time>
      </trkpt>
      <trkpt lat="42.7339" lon="1.74212">
        <ele>1139</ele>
        <time>2016-09-10T15:29:22Z</time>
      </trkpt>
      <trkpt lat="42.7339" lon="1.74214">
        <ele>1139</ele>
        <time>2016-09-10T15:29:23Z</time>
      </trkpt>
      <trkpt lat="42.7339" lon="1.74215">
        <ele>1139</ele>
        <time>2016-09-10T15:29:24Z</time>
      </trkpt>
      <trkpt lat="42.73391" lon="1.74218">
        <ele>1140</ele>
        <time>2016-09-10T15:29:26Z</time>
      </trkpt>
      <trkpt lat="42.73391" lon="1.74219">
        <ele>1140</ele>
        <time>2016-09-10T15:29:27Z</time>
      </trkpt>
      <trkpt lat="42.73392" lon="1.7422">
        <ele>1139</ele>
        <time>2016-09-10T15:29:28Z</time>
      </trkpt>
      <trkpt lat="42.73393" lon="1.74222">
        <ele>1139</ele>
        <time>2016-09-10T15:29:29Z</time>
      </trkpt>
      <trkpt lat="42.73393" lon="1.74223">
        <ele>1139</ele>
        <time>2016-09-10T15:29:30Z</time>
      </trkpt>
      <trkpt lat="42.73394" lon="1.74225">
        <ele>1140</ele>
        <time>2016-09-10T15:29:31Z</time>
      </trkpt>
      <trkpt lat="42.73396" lon="1.74228">
        <ele>1139</ele>
        <time>2016-09-10T15:29:34Z</time>
      </trkpt>
      <trkpt lat="42.73396" lon="1.74228">
        <ele>1139</ele>
        <time>2016-09-10T15:29:35Z</time>
      </trkpt>
      <trkpt lat="42.73396" lon="1.74228">
        <ele>1139</ele>
        <time>2016-09-10T15:29:36Z</time>
      </trkpt>
      <trkpt lat="42.73397" lon="1.7423">
        <ele>1139</ele>
        <time>2016-09-10T15:29:37Z</time>
      </trkpt>
      <trkpt lat="42.73397" lon="1.7423">
        <ele>1139</ele>
        <time>2016-09-10T15:29:38Z</time>
      </trkpt>
      <trkpt lat="42.73398" lon="1.74231">
        <ele>1138</ele>
        <time>2016-09-10T15:29:39Z</time>
      </trkpt>
      <trkpt lat="42.734" lon="1.74228">
        <ele>1137</ele>
        <time>2016-09-10T15:29:46Z</time>
      </trkpt>
      <trkpt lat="42.734" lon="1.74228">
        <ele>1137</ele>
        <time>2016-09-10T15:29:47Z</time>
      </trkpt>
      <trkpt lat="42.734" lon="1.74229">
        <ele>1137</ele>
        <time>2016-09-10T15:29:48Z</time>
      </trkpt>
      <trkpt lat="42.734" lon="1.74229">
        <ele>1137</ele>
        <time>2016-09-10T15:29:49Z</time>
      </trkpt>
      <trkpt lat="42.734" lon="1.7423">
        <ele>1137</ele>
        <time>2016-09-10T15:29:50Z</time>
      </trkpt>
      <trkpt lat="42.73399" lon="1.74235">
        <ele>1138</ele>
        <time>2016-09-10T15:29:59Z</time>
      </trkpt>
      <trkpt lat="42.73402" lon="1.74244">
        <ele>1138</ele>
        <time>2016-09-10T15:30:07Z</time>
      </trkpt>
      <trkpt lat="42.73403" lon="1.74245">
        <ele>1137</ele>
        <time>2016-09-10T15:30:08Z</time>
      </trkpt>
      <trkpt lat="42.73404" lon="1.74247">
        <ele>1137</ele>
        <time>2016-09-10T15:30:09Z</time>
      </trkpt>
      <trkpt lat="42.73405" lon="1.74247">
        <ele>1136</ele>
        <time>2016-09-10T15:30:10Z</time>
      </trkpt>
      <trkpt lat="42.73405" lon="1.74249">
        <ele>1136</ele>
        <time>2016-09-10T15:30:11Z</time>
      </trkpt>
      <trkpt lat="42.73407" lon="1.74249">
        <ele>1135</ele>
        <time>2016-09-10T15:30:12Z</time>
      </trkpt>
      <trkpt lat="42.73409" lon="1.74249">
        <ele>1134</ele>
        <time>2016-09-10T15:30:14Z</time>
      </trkpt>
      <trkpt lat="42.73414" lon="1.74252">
        <ele>1131</ele>
        <time>2016-09-10T15:30:20Z</time>
      </trkpt>
      <trkpt lat="42.73415" lon="1.74252">
        <ele>1130</ele>
        <time>2016-09-10T15:30:21Z</time>
      </trkpt>
      <trkpt lat="42.73415" lon="1.74252">
        <ele>1130</ele>
        <time>2016-09-10T15:30:22Z</time>
      </trkpt>
      <trkpt lat="42.73417" lon="1.74253">
        <ele>1129</ele>
        <time>2016-09-10T15:30:23Z</time>
      </trkpt>
      <trkpt lat="42.73419" lon="1.74254">
        <ele>1128</ele>
        <time>2016-09-10T15:30:24Z</time>
      </trkpt>
      <trkpt lat="42.7342" lon="1.74256">
        <ele>1128</ele>
        <time>2016-09-10T15:30:26Z</time>
      </trkpt>
      <trkpt lat="42.73422" lon="1.74262">
        <ele>1127</ele>
        <time>2016-09-10T15:30:34Z</time>
      </trkpt>
      <trkpt lat="42.73425" lon="1.74273">
        <ele>1128</ele>
        <time>2016-09-10T15:30:39Z</time>
      </trkpt>
      <trkpt lat="42.73425" lon="1.74273">
        <ele>1128</ele>
        <time>2016-09-10T15:30:40Z</time>
      </trkpt>
      <trkpt lat="42.73425" lon="1.74273">
        <ele>1128</ele>
        <time>2016-09-10T15:30:41Z</time>
      </trkpt>
      <trkpt lat="42.73425" lon="1.74273">
        <ele>1128</ele>
        <time>2016-09-10T15:30:42Z</time>
      </trkpt>
      <trkpt lat="42.73429" lon="1.74281">
        <ele>1130</ele>
        <time>2016-09-10T15:30:49Z</time>
      </trkpt>
      <trkpt lat="42.73429" lon="1.74281">
        <ele>1130</ele>
        <time>2016-09-10T15:30:50Z</time>
      </trkpt>
      <trkpt lat="42.7343" lon="1.74283">
        <ele>1130</ele>
        <time>2016-09-10T15:30:51Z</time>
      </trkpt>
      <trkpt lat="42.73431" lon="1.74285">
        <ele>1130</ele>
        <time>2016-09-10T15:30:52Z</time>
      </trkpt>
      <trkpt lat="42.73431" lon="1.74287">
        <ele>1131</ele>
        <time>2016-09-10T15:30:53Z</time>
      </trkpt>
      <trkpt lat="42.73432" lon="1.74289">
        <ele>1131</ele>
        <time>2016-09-10T15:30:54Z</time>
      </trkpt>
      <trkpt lat="42.73432" lon="1.7429">
        <ele>1131</ele>
        <time>2016-09-10T15:30:56Z</time>
      </trkpt>
      <trkpt lat="42.73432" lon="1.7429">
        <ele>1131</ele>
        <time>2016-09-10T15:31:01Z</time>
      </trkpt>
      <trkpt lat="42.73432" lon="1.7429">
        <ele>1131</ele>
        <time>2016-09-10T15:31:02Z</time>
      </trkpt>
      <trkpt lat="42.73432" lon="1.7429">
        <ele>1131</ele>
        <time>2016-09-10T15:31:03Z</time>
      </trkpt>
      <trkpt lat="42.73432" lon="1.7429">
        <ele>1131</ele>
        <time>2016-09-10T15:31:04Z</time>
      </trkpt>
      <trkpt lat="42.73432" lon="1.7429">
        <ele>1131</ele>
        <time>2016-09-10T15:31:05Z</time>
      </trkpt>
      <trkpt lat="42.73432" lon="1.7429">
        <ele>1131</ele>
        <time>2016-09-10T15:31:06Z</time>
      </trkpt>
      <trkpt lat="42.73432" lon="1.7429">
        <ele>1131</ele>
        <time>2016-09-10T15:31:10Z</time>
      </trkpt>
      <trkpt lat="42.73432" lon="1.7429">
        <ele>1131</ele>
        <time>2016-09-10T15:31:11Z</time>
      </trkpt>
      <trkpt lat="42.73432" lon="1.74291">
        <ele>1131</ele>
        <time>2016-09-10T15:31:12Z</time>
      </trkpt>
      <trkpt lat="42.73432" lon="1.74291">
        <ele>1131</ele>
        <time>2016-09-10T15:31:13Z</time>
      </trkpt>
      <trkpt lat="42.73432" lon="1.74291">
        <ele>1131</ele>
        <time>2016-09-10T15:31:14Z</time>
      </trkpt>
      <trkpt lat="42.73432" lon="1.74291">
        <ele>1131</ele>
        <time>2016-09-10T15:31:20Z</time>
      </trkpt>
      <trkpt lat="42.73434" lon="1.74291">
        <ele>1131</ele>
        <time>2016-09-10T15:31:21Z</time>
      </trkpt>
      <trkpt lat="42.73436" lon="1.74292">
        <ele>1131</ele>
        <time>2016-09-10T15:31:22Z</time>
      </trkpt>
      <trkpt lat="42.73436" lon="1.74292">
        <ele>1131</ele>
        <time>2016-09-10T15:31:23Z</time>
      </trkpt>
      <trkpt lat="42.73439" lon="1.74293">
        <ele>1130</ele>
        <time>2016-09-10T15:31:24Z</time>
      </trkpt>
      <trkpt lat="42.73448" lon="1.74303">
        <ele>1128</ele>
        <time>2016-09-10T15:31:28Z</time>
      </trkpt>
      <trkpt lat="42.7345" lon="1.74308">
        <ele>1128</ele>
        <time>2016-09-10T15:31:32Z</time>
      </trkpt>
      <trkpt lat="42.73451" lon="1.7431">
        <ele>1127</ele>
        <time>2016-09-10T15:31:33Z</time>
      </trkpt>
      <trkpt lat="42.73452" lon="1.74311">
        <ele>1127</ele>
        <time>2016-09-10T15:31:34Z</time>
      </trkpt>
      <trkpt lat="42.73454" lon="1.74311">
        <ele>1126</ele>
        <time>2016-09-10T15:31:35Z</time>
      </trkpt>
      <trkpt lat="42.73455" lon="1.74312">
        <ele>1125</ele>
        <time>2016-09-10T15:31:36Z</time>
      </trkpt>
      <trkpt lat="42.73457" lon="1.74313">
        <ele>1125</ele>
        <time>2016-09-10T15:31:37Z</time>
      </trkpt>
      <trkpt lat="42.73471" lon="1.74318">
        <ele>1119</ele>
        <time>2016-09-10T15:31:45Z</time>
      </trkpt>
      <trkpt lat="42.73471" lon="1.74319">
        <ele>1119</ele>
        <time>2016-09-10T15:31:46Z</time>
      </trkpt>
      <trkpt lat="42.73472" lon="1.74321">
        <ele>1119</ele>
        <time>2016-09-10T15:31:47Z</time>
      </trkpt>
      <trkpt lat="42.73473" lon="1.74322">
        <ele>1118</ele>
        <time>2016-09-10T15:31:48Z</time>
      </trkpt>
      <trkpt lat="42.73474" lon="1.74323">
        <ele>1118</ele>
        <time>2016-09-10T15:31:49Z</time>
      </trkpt>
      <trkpt lat="42.73474" lon="1.74324">
        <ele>1118</ele>
        <time>2016-09-10T15:31:50Z</time>
      </trkpt>
      <trkpt lat="42.73475" lon="1.74325">
        <ele>1117</ele>
        <time>2016-09-10T15:31:51Z</time>
      </trkpt>
      <trkpt lat="42.73477" lon="1.74328">
        <ele>1117</ele>
        <time>2016-09-10T15:31:57Z</time>
      </trkpt>
      <trkpt lat="42.73478" lon="1.74329">
        <ele>1117</ele>
        <time>2016-09-10T15:32:00Z</time>
      </trkpt>
      <trkpt lat="42.73478" lon="1.74329">
        <ele>1117</ele>
        <time>2016-09-10T15:32:01Z</time>
      </trkpt>
      <trkpt lat="42.73478" lon="1.74329">
        <ele>1117</ele>
        <time>2016-09-10T15:32:02Z</time>
      </trkpt>
      <trkpt lat="42.7348" lon="1.74329">
        <ele>1116</ele>
        <time>2016-09-10T15:32:03Z</time>
      </trkpt>
      <trkpt lat="42.73481" lon="1.74329">
        <ele>1116</ele>
        <time>2016-09-10T15:32:04Z</time>
      </trkpt>
      <trkpt lat="42.73481" lon="1.74329">
        <ele>1116</ele>
        <time>2016-09-10T15:32:06Z</time>
      </trkpt>
      <trkpt lat="42.73484" lon="1.74331">
        <ele>1115</ele>
        <time>2016-09-10T15:32:09Z</time>
      </trkpt>
      <trkpt lat="42.73484" lon="1.74331">
        <ele>1115</ele>
        <time>2016-09-10T15:32:10Z</time>
      </trkpt>
      <trkpt lat="42.73484" lon="1.74331">
        <ele>1115</ele>
        <time>2016-09-10T15:32:11Z</time>
      </trkpt>
      <trkpt lat="42.73486" lon="1.74332">
        <ele>1115</ele>
        <time>2016-09-10T15:32:12Z</time>
      </trkpt>
      <trkpt lat="42.73486" lon="1.74332">
        <ele>1115</ele>
        <time>2016-09-10T15:32:13Z</time>
      </trkpt>
      <trkpt lat="42.73486" lon="1.74332">
        <ele>1115</ele>
        <time>2016-09-10T15:32:15Z</time>
      </trkpt>
      <trkpt lat="42.73495" lon="1.74339">
        <ele>1114</ele>
        <time>2016-09-10T15:32:21Z</time>
      </trkpt>
      <trkpt lat="42.73496" lon="1.74341">
        <ele>1115</ele>
        <time>2016-09-10T15:32:22Z</time>
      </trkpt>
      <trkpt lat="42.73496" lon="1.74341">
        <ele>1115</ele>
        <time>2016-09-10T15:32:23Z</time>
      </trkpt>
      <trkpt lat="42.73496" lon="1.74341">
        <ele>1115</ele>
        <time>2016-09-10T15:32:24Z</time>
      </trkpt>
      <trkpt lat="42.73498" lon="1.74343">
        <ele>1115</ele>
        <time>2016-09-10T15:32:25Z</time>
      </trkpt>
      <trkpt lat="42.73504" lon="1.74348">
        <ele>1114</ele>
        <time>2016-09-10T15:32:27Z</time>
      </trkpt>
      <trkpt lat="42.73506" lon="1.7435">
        <ele>1114</ele>
        <time>2016-09-10T15:32:28Z</time>
      </trkpt>
      <trkpt lat="42.73512" lon="1.7436">
        <ele>1114</ele>
        <time>2016-09-10T15:32:34Z</time>
      </trkpt>
      <trkpt lat="42.73513" lon="1.74362">
        <ele>1114</ele>
        <time>2016-09-10T15:32:36Z</time>
      </trkpt>
      <trkpt lat="42.73514" lon="1.74363">
        <ele>1114</ele>
        <time>2016-09-10T15:32:37Z</time>
      </trkpt>
      <trkpt lat="42.73516" lon="1.74364">
        <ele>1114</ele>
        <time>2016-09-10T15:32:38Z</time>
      </trkpt>
      <trkpt lat="42.73517" lon="1.74364">
        <ele>1114</ele>
        <time>2016-09-10T15:32:39Z</time>
      </trkpt>
      <trkpt lat="42.73518" lon="1.74365">
        <ele>1114</ele>
        <time>2016-09-10T15:32:40Z</time>
      </trkpt>
      <trkpt lat="42.73521" lon="1.74367">
        <ele>1113</ele>
        <time>2016-09-10T15:32:42Z</time>
      </trkpt>
      <trkpt lat="42.73529" lon="1.74374">
        <ele>1111</ele>
        <time>2016-09-10T15:32:50Z</time>
      </trkpt>
      <trkpt lat="42.73529" lon="1.74375">
        <ele>1111</ele>
        <time>2016-09-10T15:32:51Z</time>
      </trkpt>
      <trkpt lat="42.7353" lon="1.74377">
        <ele>1111</ele>
        <time>2016-09-10T15:32:52Z</time>
      </trkpt>
      <trkpt lat="42.7353" lon="1.74378">
        <ele>1111</ele>
        <time>2016-09-10T15:32:53Z</time>
      </trkpt>
      <trkpt lat="42.73531" lon="1.74381">
        <ele>1110</ele>
        <time>2016-09-10T15:32:54Z</time>
      </trkpt>
      <trkpt lat="42.73533" lon="1.74387">
        <ele>1109</ele>
        <time>2016-09-10T15:32:58Z</time>
      </trkpt>
      <trkpt lat="42.73537" lon="1.74389">
        <ele>1108</ele>
        <time>2016-09-10T15:33:02Z</time>
      </trkpt>
      <trkpt lat="42.73537" lon="1.7439">
        <ele>1108</ele>
        <time>2016-09-10T15:33:03Z</time>
      </trkpt>
      <trkpt lat="42.73538" lon="1.74392">
        <ele>1108</ele>
        <time>2016-09-10T15:33:04Z</time>
      </trkpt>
      <trkpt lat="42.7354" lon="1.74392">
        <ele>1107</ele>
        <time>2016-09-10T15:33:05Z</time>
      </trkpt>
      <trkpt lat="42.73541" lon="1.74393">
        <ele>1107</ele>
        <time>2016-09-10T15:33:06Z</time>
      </trkpt>
      <trkpt lat="42.73549" lon="1.74402">
        <ele>1105</ele>
        <time>2016-09-10T15:33:14Z</time>
      </trkpt>
      <trkpt lat="42.73551" lon="1.74406">
        <ele>1105</ele>
        <time>2016-09-10T15:33:17Z</time>
      </trkpt>
      <trkpt lat="42.73551" lon="1.74406">
        <ele>1105</ele>
        <time>2016-09-10T15:33:18Z</time>
      </trkpt>
      <trkpt lat="42.73551" lon="1.74406">
        <ele>1105</ele>
        <time>2016-09-10T15:33:19Z</time>
      </trkpt>
      <trkpt lat="42.73551" lon="1.74408">
        <ele>1106</ele>
        <time>2016-09-10T15:33:20Z</time>
      </trkpt>
      <trkpt lat="42.73552" lon="1.74409">
        <ele>1106</ele>
        <time>2016-09-10T15:33:21Z</time>
      </trkpt>
      <trkpt lat="42.73553" lon="1.7441">
        <ele>1106</ele>
        <time>2016-09-10T15:33:22Z</time>
      </trkpt>
      <trkpt lat="42.73559" lon="1.74413">
        <ele>1104</ele>
        <time>2016-09-10T15:33:29Z</time>
      </trkpt>
      <trkpt lat="42.73559" lon="1.74413">
        <ele>1104</ele>
        <time>2016-09-10T15:33:30Z</time>
      </trkpt>
      <trkpt lat="42.73561" lon="1.74414">
        <ele>1104</ele>
        <time>2016-09-10T15:33:31Z</time>
      </trkpt>
      <trkpt lat="42.73561" lon="1.74414">
        <ele>1104</ele>
        <time>2016-09-10T15:33:32Z</time>
      </trkpt>
      <trkpt lat="42.73563" lon="1.74415">
        <ele>1103</ele>
        <time>2016-09-10T15:33:33Z</time>
      </trkpt>
      <trkpt lat="42.73567" lon="1.74417">
        <ele>1102</ele>
        <time>2016-09-10T15:33:39Z</time>
      </trkpt>
      <trkpt lat="42.73567" lon="1.74417">
        <ele>1102</ele>
        <time>2016-09-10T15:33:40Z</time>
      </trkpt>
      <trkpt lat="42.73568" lon="1.74418">
        <ele>1102</ele>
        <time>2016-09-10T15:33:41Z</time>
      </trkpt>
      <trkpt lat="42.73569" lon="1.74419">
        <ele>1102</ele>
        <time>2016-09-10T15:33:42Z</time>
      </trkpt>
      <trkpt lat="42.73569" lon="1.7442">
        <ele>1102</ele>
        <time>2016-09-10T15:33:43Z</time>
      </trkpt>
      <trkpt lat="42.7357" lon="1.74421">
        <ele>1102</ele>
        <time>2016-09-10T15:33:44Z</time>
      </trkpt>
      <trkpt lat="42.73571" lon="1.74423">
        <ele>1102</ele>
        <time>2016-09-10T15:33:46Z</time>
      </trkpt>
      <trkpt lat="42.73572" lon="1.74425">
        <ele>1102</ele>
        <time>2016-09-10T15:33:50Z</time>
      </trkpt>
      <trkpt lat="42.73573" lon="1.74426">
        <ele>1102</ele>
        <time>2016-09-10T15:33:51Z</time>
      </trkpt>
      <trkpt lat="42.73574" lon="1.74426">
        <ele>1102</ele>
        <time>2016-09-10T15:33:52Z</time>
      </trkpt>
      <trkpt lat="42.73574" lon="1.74426">
        <ele>1102</ele>
        <time>2016-09-10T15:33:53Z</time>
      </trkpt>
      <trkpt lat="42.73574" lon="1.74426">
        <ele>1102</ele>
        <time>2016-09-10T15:33:54Z</time>
      </trkpt>
      <trkpt lat="42.73574" lon="1.74426">
        <ele>1102</ele>
        <time>2016-09-10T15:33:55Z</time>
      </trkpt>
      <trkpt lat="42.73574" lon="1.74433">
        <ele>1103</ele>
        <time>2016-09-10T15:34:01Z</time>
      </trkpt>
      <trkpt lat="42.73575" lon="1.74438">
        <ele>1104</ele>
        <time>2016-09-10T15:34:05Z</time>
      </trkpt>
      <trkpt lat="42.73581" lon="1.74446">
        <ele>1102</ele>
        <time>2016-09-10T15:34:13Z</time>
      </trkpt>
      <trkpt lat="42.73582" lon="1.74446">
        <ele>1102</ele>
        <time>2016-09-10T15:34:14Z</time>
      </trkpt>
      <trkpt lat="42.73582" lon="1.74447">
        <ele>1102</ele>
        <time>2016-09-10T15:34:15Z</time>
      </trkpt>
      <trkpt lat="42.73583" lon="1.74448">
        <ele>1102</ele>
        <time>2016-09-10T15:34:16Z</time>
      </trkpt>
      <trkpt lat="42.73584" lon="1.74448">
        <ele>1101</ele>
        <time>2016-09-10T15:34:17Z</time>
      </trkpt>
      <trkpt lat="42.73591" lon="1.74449">
        <ele>1097</ele>
        <time>2016-09-10T15:34:24Z</time>
      </trkpt>
      <trkpt lat="42.73592" lon="1.7445">
        <ele>1097</ele>
        <time>2016-09-10T15:34:25Z</time>
      </trkpt>
      <trkpt lat="42.73595" lon="1.7445">
        <ele>1096</ele>
        <time>2016-09-10T15:34:26Z</time>
      </trkpt>
      <trkpt lat="42.73596" lon="1.74451">
        <ele>1095</ele>
        <time>2016-09-10T15:34:27Z</time>
      </trkpt>
      <trkpt lat="42.73598" lon="1.74452">
        <ele>1095</ele>
        <time>2016-09-10T15:34:28Z</time>
      </trkpt>
      <trkpt lat="42.73602" lon="1.74456">
        <ele>1094</ele>
        <time>2016-09-10T15:34:34Z</time>
      </trkpt>
      <trkpt lat="42.73604" lon="1.74457">
        <ele>1093</ele>
        <time>2016-09-10T15:34:39Z</time>
      </trkpt>
      <trkpt lat="42.73608" lon="1.74449">
        <ele>1090</ele>
        <time>2016-09-10T15:34:45Z</time>
      </trkpt>
      <trkpt lat="42.7361" lon="1.74447">
        <ele>1089</ele>
        <time>2016-09-10T15:34:46Z</time>
      </trkpt>
      <trkpt lat="42.7361" lon="1.74445">
        <ele>1089</ele>
        <time>2016-09-10T15:34:47Z</time>
      </trkpt>
      <trkpt lat="42.73611" lon="1.74444">
        <ele>1089</ele>
        <time>2016-09-10T15:34:48Z</time>
      </trkpt>
      <trkpt lat="42.73612" lon="1.74443">
        <ele>1089</ele>
        <time>2016-09-10T15:34:49Z</time>
      </trkpt>
      <trkpt lat="42.73615" lon="1.74441">
        <ele>1088</ele>
        <time>2016-09-10T15:34:51Z</time>
      </trkpt>
      <trkpt lat="42.73624" lon="1.74433">
        <ele>1086</ele>
        <time>2016-09-10T15:34:59Z</time>
      </trkpt>
      <trkpt lat="42.73635" lon="1.74433">
        <ele>1084</ele>
        <time>2016-09-10T15:35:07Z</time>
      </trkpt>
      <trkpt lat="42.73637" lon="1.74433">
        <ele>1084</ele>
        <time>2016-09-10T15:35:09Z</time>
      </trkpt>
      <trkpt lat="42.73638" lon="1.74434">
        <ele>1083</ele>
        <time>2016-09-10T15:35:10Z</time>
      </trkpt>
      <trkpt lat="42.73639" lon="1.74435">
        <ele>1083</ele>
        <time>2016-09-10T15:35:11Z</time>
      </trkpt>
      <trkpt lat="42.73641" lon="1.74434">
        <ele>1083</ele>
        <time>2016-09-10T15:35:12Z</time>
      </trkpt>
      <trkpt lat="42.73644" lon="1.74435">
        <ele>1082</ele>
        <time>2016-09-10T15:35:13Z</time>
      </trkpt>
      <trkpt lat="42.73648" lon="1.74433">
        <ele>1082</ele>
        <time>2016-09-10T15:35:15Z</time>
      </trkpt>
      <trkpt lat="42.73653" lon="1.74433">
        <ele>1081</ele>
        <time>2016-09-10T15:35:19Z</time>
      </trkpt>
      <trkpt lat="42.73657" lon="1.74434">
        <ele>1080</ele>
        <time>2016-09-10T15:35:23Z</time>
      </trkpt>
      <trkpt lat="42.73658" lon="1.74435">
        <ele>1080</ele>
        <time>2016-09-10T15:35:24Z</time>
      </trkpt>
      <trkpt lat="42.73659" lon="1.74436">
        <ele>1080</ele>
        <time>2016-09-10T15:35:25Z</time>
      </trkpt>
      <trkpt lat="42.7366" lon="1.74437">
        <ele>1079</ele>
        <time>2016-09-10T15:35:26Z</time>
      </trkpt>
      <trkpt lat="42.73661" lon="1.74438">
        <ele>1079</ele>
        <time>2016-09-10T15:35:27Z</time>
      </trkpt>
      <trkpt lat="42.73662" lon="1.74438">
        <ele>1079</ele>
        <time>2016-09-10T15:35:28Z</time>
      </trkpt>
      <trkpt lat="42.73666" lon="1.74441">
        <ele>1077</ele>
        <time>2016-09-10T15:35:33Z</time>
      </trkpt>
      <trkpt lat="42.73675" lon="1.74449">
        <ele>1074</ele>
        <time>2016-09-10T15:35:40Z</time>
      </trkpt>
      <trkpt lat="42.73682" lon="1.7445">
        <ele>1073</ele>
        <time>2016-09-10T15:35:47Z</time>
      </trkpt>
      <trkpt lat="42.73685" lon="1.74451">
        <ele>1073</ele>
        <time>2016-09-10T15:35:49Z</time>
      </trkpt>
      <trkpt lat="42.73686" lon="1.74452">
        <ele>1072</ele>
        <time>2016-09-10T15:35:50Z</time>
      </trkpt>
      <trkpt lat="42.73688" lon="1.74452">
        <ele>1072</ele>
        <time>2016-09-10T15:35:51Z</time>
      </trkpt>
      <trkpt lat="42.7369" lon="1.74453">
        <ele>1072</ele>
        <time>2016-09-10T15:35:52Z</time>
      </trkpt>
      <trkpt lat="42.73691" lon="1.74453">
        <ele>1071</ele>
        <time>2016-09-10T15:35:53Z</time>
      </trkpt>
      <trkpt lat="42.73694" lon="1.74453">
        <ele>1070</ele>
        <time>2016-09-10T15:35:55Z</time>
      </trkpt>
      <trkpt lat="42.73697" lon="1.74455">
        <ele>1070</ele>
        <time>2016-09-10T15:35:58Z</time>
      </trkpt>
      <trkpt lat="42.73697" lon="1.74455">
        <ele>1070</ele>
        <time>2016-09-10T15:35:59Z</time>
      </trkpt>
      <trkpt lat="42.73698" lon="1.74455">
        <ele>1070</ele>
        <time>2016-09-10T15:36:00Z</time>
      </trkpt>
      <trkpt lat="42.73699" lon="1.74455">
        <ele>1069</ele>
        <time>2016-09-10T15:36:01Z</time>
      </trkpt>
      <trkpt lat="42.737" lon="1.74455">
        <ele>1069</ele>
        <time>2016-09-10T15:36:03Z</time>
      </trkpt>
      <trkpt lat="42.73702" lon="1.74453">
        <ele>1069</ele>
        <time>2016-09-10T15:36:05Z</time>
      </trkpt>
      <trkpt lat="42.73701" lon="1.74453">
        <ele>1069</ele>
        <time>2016-09-10T15:36:06Z</time>
      </trkpt>
      <trkpt lat="42.73702" lon="1.74452">
        <ele>1069</ele>
        <time>2016-09-10T15:36:07Z</time>
      </trkpt>
      <trkpt lat="42.73703" lon="1.74451">
        <ele>1069</ele>
        <time>2016-09-10T15:36:08Z</time>
      </trkpt>
      <trkpt lat="42.73705" lon="1.7445">
        <ele>1069</ele>
        <time>2016-09-10T15:36:09Z</time>
      </trkpt>
      <trkpt lat="42.7371" lon="1.74454">
        <ele>1067</ele>
        <time>2016-09-10T15:36:15Z</time>
      </trkpt>
      <trkpt lat="42.73711" lon="1.74454">
        <ele>1067</ele>
        <time>2016-09-10T15:36:16Z</time>
      </trkpt>
      <trkpt lat="42.73712" lon="1.74456">
        <ele>1066</ele>
        <time>2016-09-10T15:36:17Z</time>
      </trkpt>
      <trkpt lat="42.73713" lon="1.74457">
        <ele>1066</ele>
        <time>2016-09-10T15:36:18Z</time>
      </trkpt>
      <trkpt lat="42.73713" lon="1.7446">
        <ele>1065</ele>
        <time>2016-09-10T15:36:19Z</time>
      </trkpt>
      <trkpt lat="42.73714" lon="1.74462">
        <ele>1065</ele>
        <time>2016-09-10T15:36:22Z</time>
      </trkpt>
      <trkpt lat="42.73715" lon="1.74464">
        <ele>1064</ele>
        <time>2016-09-10T15:36:23Z</time>
      </trkpt>
      <trkpt lat="42.73716" lon="1.74463">
        <ele>1064</ele>
        <time>2016-09-10T15:36:24Z</time>
      </trkpt>
      <trkpt lat="42.73716" lon="1.74466">
        <ele>1063</ele>
        <time>2016-09-10T15:36:25Z</time>
      </trkpt>
      <trkpt lat="42.73717" lon="1.74468">
        <ele>1063</ele>
        <time>2016-09-10T15:36:26Z</time>
      </trkpt>
      <trkpt lat="42.73718" lon="1.74474">
        <ele>1062</ele>
        <time>2016-09-10T15:36:29Z</time>
      </trkpt>
      <trkpt lat="42.73718" lon="1.74475">
        <ele>1061</ele>
        <time>2016-09-10T15:36:30Z</time>
      </trkpt>
      <trkpt lat="42.73719" lon="1.74476">
        <ele>1061</ele>
        <time>2016-09-10T15:36:31Z</time>
      </trkpt>
      <trkpt lat="42.73719" lon="1.74477">
        <ele>1060</ele>
        <time>2016-09-10T15:36:32Z</time>
      </trkpt>
      <trkpt lat="42.73719" lon="1.74477">
        <ele>1061</ele>
        <time>2016-09-10T15:36:33Z</time>
      </trkpt>
      <trkpt lat="42.73721" lon="1.74483">
        <ele>1059</ele>
        <time>2016-09-10T15:36:38Z</time>
      </trkpt>
      <trkpt lat="42.7372" lon="1.7449">
        <ele>1058</ele>
        <time>2016-09-10T15:36:41Z</time>
      </trkpt>
      <trkpt lat="42.7372" lon="1.74491">
        <ele>1057</ele>
        <time>2016-09-10T15:36:42Z</time>
      </trkpt>
      <trkpt lat="42.7372" lon="1.74493">
        <ele>1057</ele>
        <time>2016-09-10T15:36:43Z</time>
      </trkpt>
      <trkpt lat="42.7372" lon="1.74494">
        <ele>1057</ele>
        <time>2016-09-10T15:36:44Z</time>
      </trkpt>
      <trkpt lat="42.73719" lon="1.74495">
        <ele>1057</ele>
        <time>2016-09-10T15:36:45Z</time>
      </trkpt>
      <trkpt lat="42.7372" lon="1.74496">
        <ele>1057</ele>
        <time>2016-09-10T15:36:46Z</time>
      </trkpt>
      <trkpt lat="42.73723" lon="1.74499">
        <ele>1055</ele>
        <time>2016-09-10T15:36:50Z</time>
      </trkpt>
      <trkpt lat="42.73723" lon="1.745">
        <ele>1055</ele>
        <time>2016-09-10T15:36:51Z</time>
      </trkpt>
      <trkpt lat="42.73724" lon="1.74501">
        <ele>1054</ele>
        <time>2016-09-10T15:36:52Z</time>
      </trkpt>
      <trkpt lat="42.73724" lon="1.74502">
        <ele>1054</ele>
        <time>2016-09-10T15:36:53Z</time>
      </trkpt>
      <trkpt lat="42.73721" lon="1.74511">
        <ele>1055</ele>
        <time>2016-09-10T15:36:59Z</time>
      </trkpt>
      <trkpt lat="42.7372" lon="1.74513">
        <ele>1055</ele>
        <time>2016-09-10T15:37:00Z</time>
      </trkpt>
      <trkpt lat="42.73721" lon="1.74515">
        <ele>1055</ele>
        <time>2016-09-10T15:37:01Z</time>
      </trkpt>
      <trkpt lat="42.7372" lon="1.74516">
        <ele>1055</ele>
        <time>2016-09-10T15:37:02Z</time>
      </trkpt>
      <trkpt lat="42.7372" lon="1.74517">
        <ele>1055</ele>
        <time>2016-09-10T15:37:03Z</time>
      </trkpt>
      <trkpt lat="42.7372" lon="1.74519">
        <ele>1055</ele>
        <time>2016-09-10T15:37:04Z</time>
      </trkpt>
      <trkpt lat="42.73719" lon="1.74522">
        <ele>1056</ele>
        <time>2016-09-10T15:37:06Z</time>
      </trkpt>
      <trkpt lat="42.73719" lon="1.74526">
        <ele>1056</ele>
        <time>2016-09-10T15:37:08Z</time>
      </trkpt>
      <trkpt lat="42.7372" lon="1.74526">
        <ele>1056</ele>
        <time>2016-09-10T15:37:09Z</time>
      </trkpt>
      <trkpt lat="42.73721" lon="1.74528">
        <ele>1055</ele>
        <time>2016-09-10T15:37:10Z</time>
      </trkpt>
      <trkpt lat="42.73721" lon="1.74528">
        <ele>1055</ele>
        <time>2016-09-10T15:37:11Z</time>
      </trkpt>
      <trkpt lat="42.73722" lon="1.7453">
        <ele>1055</ele>
        <time>2016-09-10T15:37:12Z</time>
      </trkpt>
      <trkpt lat="42.73723" lon="1.74532">
        <ele>1054</ele>
        <time>2016-09-10T15:37:18Z</time>
      </trkpt>
      <trkpt lat="42.73723" lon="1.74532">
        <ele>1054</ele>
        <time>2016-09-10T15:37:19Z</time>
      </trkpt>
      <trkpt lat="42.73723" lon="1.74531">
        <ele>1054</ele>
        <time>2016-09-10T15:37:20Z</time>
      </trkpt>
      <trkpt lat="42.73723" lon="1.7453">
        <ele>1054</ele>
        <time>2016-09-10T15:37:21Z</time>
      </trkpt>
      <trkpt lat="42.73723" lon="1.74529">
        <ele>1055</ele>
        <time>2016-09-10T15:37:22Z</time>
      </trkpt>
      <trkpt lat="42.73721" lon="1.74527">
        <ele>1055</ele>
        <time>2016-09-10T15:37:25Z</time>
      </trkpt>
      <trkpt lat="42.73723" lon="1.74524">
        <ele>1054</ele>
        <time>2016-09-10T15:37:29Z</time>
      </trkpt>
      <trkpt lat="42.73723" lon="1.74522">
        <ele>1054</ele>
        <time>2016-09-10T15:37:30Z</time>
      </trkpt>
      <trkpt lat="42.73724" lon="1.74521">
        <ele>1053</ele>
        <time>2016-09-10T15:37:31Z</time>
      </trkpt>
      <trkpt lat="42.73725" lon="1.74521">
        <ele>1053</ele>
        <time>2016-09-10T15:37:32Z</time>
      </trkpt>
      <trkpt lat="42.73726" lon="1.74519">
        <ele>1053</ele>
        <time>2016-09-10T15:37:33Z</time>
      </trkpt>
      <trkpt lat="42.73731" lon="1.74513">
        <ele>1050</ele>
        <time>2016-09-10T15:37:39Z</time>
      </trkpt>
      <trkpt lat="42.73732" lon="1.74512">
        <ele>1050</ele>
        <time>2016-09-10T15:37:40Z</time>
      </trkpt>
      <trkpt lat="42.73733" lon="1.74511">
        <ele>1049</ele>
        <time>2016-09-10T15:37:41Z</time>
      </trkpt>
      <trkpt lat="42.73733" lon="1.7451">
        <ele>1049</ele>
        <time>2016-09-10T15:37:42Z</time>
      </trkpt>
      <trkpt lat="42.73734" lon="1.74508">
        <ele>1049</ele>
        <time>2016-09-10T15:37:43Z</time>
      </trkpt>
      <trkpt lat="42.73735" lon="1.74507">
        <ele>1048</ele>
        <time>2016-09-10T15:37:44Z</time>
      </trkpt>
      <trkpt lat="42.73737" lon="1.74503">
        <ele>1049</ele>
        <time>2016-09-10T15:37:47Z</time>
      </trkpt>
      <trkpt lat="42.73738" lon="1.74501">
        <ele>1049</ele>
        <time>2016-09-10T15:37:50Z</time>
      </trkpt>
      <trkpt lat="42.73738" lon="1.745">
        <ele>1049</ele>
        <time>2016-09-10T15:37:51Z</time>
      </trkpt>
      <trkpt lat="42.73739" lon="1.74499">
        <ele>1049</ele>
        <time>2016-09-10T15:37:52Z</time>
      </trkpt>
      <trkpt lat="42.73739" lon="1.74499">
        <ele>1049</ele>
        <time>2016-09-10T15:37:53Z</time>
      </trkpt>
      <trkpt lat="42.73739" lon="1.74498">
        <ele>1049</ele>
        <time>2016-09-10T15:37:54Z</time>
      </trkpt>
      <trkpt lat="42.73739" lon="1.74498">
        <ele>1049</ele>
        <time>2016-09-10T15:37:55Z</time>
      </trkpt>
      <trkpt lat="42.73741" lon="1.74497">
        <ele>1049</ele>
        <time>2016-09-10T15:37:59Z</time>
      </trkpt>
      <trkpt lat="42.73743" lon="1.74497">
        <ele>1049</ele>
        <time>2016-09-10T15:38:00Z</time>
      </trkpt>
      <trkpt lat="42.73744" lon="1.74497">
        <ele>1049</ele>
        <time>2016-09-10T15:38:01Z</time>
      </trkpt>
      <trkpt lat="42.73745" lon="1.74497">
        <ele>1049</ele>
        <time>2016-09-10T15:38:02Z</time>
      </trkpt>
      <trkpt lat="42.73746" lon="1.74497">
        <ele>1048</ele>
        <time>2016-09-10T15:38:03Z</time>
      </trkpt>
      <trkpt lat="42.73755" lon="1.74503">
        <ele>1045</ele>
        <time>2016-09-10T15:38:09Z</time>
      </trkpt>
      <trkpt lat="42.73756" lon="1.74504">
        <ele>1044</ele>
        <time>2016-09-10T15:38:10Z</time>
      </trkpt>
      <trkpt lat="42.73757" lon="1.74505">
        <ele>1044</ele>
        <time>2016-09-10T15:38:11Z</time>
      </trkpt>
      <trkpt lat="42.73759" lon="1.74506">
        <ele>1043</ele>
        <time>2016-09-10T15:38:12Z</time>
      </trkpt>
      <trkpt lat="42.73761" lon="1.74506">
        <ele>1043</ele>
        <time>2016-09-10T15:38:13Z</time>
      </trkpt>
      <trkpt lat="42.73763" lon="1.74514">
        <ele>1042</ele>
        <time>2016-09-10T15:38:18Z</time>
      </trkpt>
      <trkpt lat="42.73764" lon="1.74518">
        <ele>1041</ele>
        <time>2016-09-10T15:38:21Z</time>
      </trkpt>
      <trkpt lat="42.73764" lon="1.74519">
        <ele>1041</ele>
        <time>2016-09-10T15:38:22Z</time>
      </trkpt>
      <trkpt lat="42.73764" lon="1.7452">
        <ele>1041</ele>
        <time>2016-09-10T15:38:23Z</time>
      </trkpt>
      <trkpt lat="42.73765" lon="1.74522">
        <ele>1041</ele>
        <time>2016-09-10T15:38:24Z</time>
      </trkpt>
      <trkpt lat="42.73765" lon="1.74523">
        <ele>1041</ele>
        <time>2016-09-10T15:38:25Z</time>
      </trkpt>
      <trkpt lat="42.73764" lon="1.74526">
        <ele>1041</ele>
        <time>2016-09-10T15:38:27Z</time>
      </trkpt>
      <trkpt lat="42.73764" lon="1.74528">
        <ele>1041</ele>
        <time>2016-09-10T15:38:29Z</time>
      </trkpt>
      <trkpt lat="42.73764" lon="1.7453">
        <ele>1040</ele>
        <time>2016-09-10T15:38:30Z</time>
      </trkpt>
      <trkpt lat="42.73765" lon="1.74531">
        <ele>1040</ele>
        <time>2016-09-10T15:38:31Z</time>
      </trkpt>
      <trkpt lat="42.73765" lon="1.74532">
        <ele>1040</ele>
        <time>2016-09-10T15:38:32Z</time>
      </trkpt>
      <trkpt lat="42.73767" lon="1.74535">
        <ele>1039</ele>
        <time>2016-09-10T15:38:36Z</time>
      </trkpt>
      <trkpt lat="42.73767" lon="1.74536">
        <ele>1039</ele>
        <time>2016-09-10T15:38:37Z</time>
      </trkpt>
      <trkpt lat="42.73768" lon="1.74538">
        <ele>1039</ele>
        <time>2016-09-10T15:38:38Z</time>
      </trkpt>
      <trkpt lat="42.73768" lon="1.74539">
        <ele>1039</ele>
        <time>2016-09-10T15:38:39Z</time>
      </trkpt>
      <trkpt lat="42.73768" lon="1.74541">
        <ele>1039</ele>
        <time>2016-09-10T15:38:40Z</time>
      </trkpt>
      <trkpt lat="42.73771" lon="1.74546">
        <ele>1038</ele>
        <time>2016-09-10T15:38:44Z</time>
      </trkpt>
      <trkpt lat="42.73772" lon="1.74548">
        <ele>1037</ele>
        <time>2016-09-10T15:38:45Z</time>
      </trkpt>
      <trkpt lat="42.73772" lon="1.7455">
        <ele>1037</ele>
        <time>2016-09-10T15:38:46Z</time>
      </trkpt>
      <trkpt lat="42.73773" lon="1.74551">
        <ele>1036</ele>
        <time>2016-09-10T15:38:47Z</time>
      </trkpt>
      <trkpt lat="42.73774" lon="1.74551">
        <ele>1036</ele>
        <time>2016-09-10T15:38:48Z</time>
      </trkpt>
      <trkpt lat="42.73775" lon="1.74553">
        <ele>1036</ele>
        <time>2016-09-10T15:38:51Z</time>
      </trkpt>
      <trkpt lat="42.73775" lon="1.74555">
        <ele>1035</ele>
        <time>2016-09-10T15:38:53Z</time>
      </trkpt>
      <trkpt lat="42.73775" lon="1.74555">
        <ele>1035</ele>
        <time>2016-09-10T15:38:54Z</time>
      </trkpt>
      <trkpt lat="42.73775" lon="1.74556">
        <ele>1035</ele>
        <time>2016-09-10T15:38:55Z</time>
      </trkpt>
      <trkpt lat="42.73775" lon="1.74556">
        <ele>1035</ele>
        <time>2016-09-10T15:38:56Z</time>
      </trkpt>
      <trkpt lat="42.73775" lon="1.74556">
        <ele>1035</ele>
        <time>2016-09-10T15:38:58Z</time>
      </trkpt>
      <trkpt lat="42.73777" lon="1.74556">
        <ele>1034</ele>
        <time>2016-09-10T15:39:04Z</time>
      </trkpt>
      <trkpt lat="42.73778" lon="1.74555">
        <ele>1034</ele>
        <time>2016-09-10T15:39:05Z</time>
      </trkpt>
      <trkpt lat="42.7378" lon="1.74552">
        <ele>1034</ele>
        <time>2016-09-10T15:39:06Z</time>
      </trkpt>
      <trkpt lat="42.73781" lon="1.74551">
        <ele>1034</ele>
        <time>2016-09-10T15:39:07Z</time>
      </trkpt>
      <trkpt lat="42.73781" lon="1.7455">
        <ele>1034</ele>
        <time>2016-09-10T15:39:08Z</time>
      </trkpt>
      <trkpt lat="42.73785" lon="1.74542">
        <ele>1034</ele>
        <time>2016-09-10T15:39:14Z</time>
      </trkpt>
      <trkpt lat="42.73789" lon="1.74536">
        <ele>1034</ele>
        <time>2016-09-10T15:39:19Z</time>
      </trkpt>
      <trkpt lat="42.73789" lon="1.74536">
        <ele>1034</ele>
        <time>2016-09-10T15:39:20Z</time>
      </trkpt>
      <trkpt lat="42.73788" lon="1.74534">
        <ele>1034</ele>
        <time>2016-09-10T15:39:21Z</time>
      </trkpt>
      <trkpt lat="42.73789" lon="1.74533">
        <ele>1034</ele>
        <time>2016-09-10T15:39:22Z</time>
      </trkpt>
      <trkpt lat="42.73789" lon="1.74532">
        <ele>1035</ele>
        <time>2016-09-10T15:39:23Z</time>
      </trkpt>
      <trkpt lat="42.73796" lon="1.74525">
        <ele>1035</ele>
        <time>2016-09-10T15:39:30Z</time>
      </trkpt>
      <trkpt lat="42.738" lon="1.74524">
        <ele>1035</ele>
        <time>2016-09-10T15:39:33Z</time>
      </trkpt>
      <trkpt lat="42.73801" lon="1.74524">
        <ele>1035</ele>
        <time>2016-09-10T15:39:34Z</time>
      </trkpt>
      <trkpt lat="42.73801" lon="1.74524">
        <ele>1035</ele>
        <time>2016-09-10T15:39:35Z</time>
      </trkpt>
      <trkpt lat="42.73801" lon="1.74524">
        <ele>1035</ele>
        <time>2016-09-10T15:39:36Z</time>
      </trkpt>
      <trkpt lat="42.73801" lon="1.74524">
        <ele>1035</ele>
        <time>2016-09-10T15:39:37Z</time>
      </trkpt>
      <trkpt lat="42.73801" lon="1.74524">
        <ele>1035</ele>
        <time>2016-09-10T15:39:38Z</time>
      </trkpt>
      <trkpt lat="42.73803" lon="1.74525">
        <ele>1034</ele>
        <time>2016-09-10T15:39:50Z</time>
      </trkpt>
      <trkpt lat="42.73812" lon="1.74527">
        <ele>1033</ele>
        <time>2016-09-10T15:39:58Z</time>
      </trkpt>
      <trkpt lat="42.73815" lon="1.74528">
        <ele>1033</ele>
        <time>2016-09-10T15:40:01Z</time>
      </trkpt>
      <trkpt lat="42.73816" lon="1.74527">
        <ele>1033</ele>
        <time>2016-09-10T15:40:02Z</time>
      </trkpt>
      <trkpt lat="42.73817" lon="1.74528">
        <ele>1032</ele>
        <time>2016-09-10T15:40:03Z</time>
      </trkpt>
      <trkpt lat="42.73819" lon="1.7453">
        <ele>1032</ele>
        <time>2016-09-10T15:40:04Z</time>
      </trkpt>
      <trkpt lat="42.7382" lon="1.7453">
        <ele>1032</ele>
        <time>2016-09-10T15:40:05Z</time>
      </trkpt>
      <trkpt lat="42.73822" lon="1.74531">
        <ele>1031</ele>
        <time>2016-09-10T15:40:12Z</time>
      </trkpt>
      <trkpt lat="42.73827" lon="1.74533">
        <ele>1030</ele>
        <time>2016-09-10T15:40:15Z</time>
      </trkpt>
      <trkpt lat="42.73831" lon="1.74534">
        <ele>1030</ele>
        <time>2016-09-10T15:40:17Z</time>
      </trkpt>
      <trkpt lat="42.73832" lon="1.74534">
        <ele>1030</ele>
        <time>2016-09-10T15:40:18Z</time>
      </trkpt>
      <trkpt lat="42.73833" lon="1.74534">
        <ele>1031</ele>
        <time>2016-09-10T15:40:19Z</time>
      </trkpt>
      <trkpt lat="42.73835" lon="1.74534">
        <ele>1031</ele>
        <time>2016-09-10T15:40:20Z</time>
      </trkpt>
      <trkpt lat="42.73837" lon="1.74534">
        <ele>1031</ele>
        <time>2016-09-10T15:40:21Z</time>
      </trkpt>
      <trkpt lat="42.73844" lon="1.74535">
        <ele>1031</ele>
        <time>2016-09-10T15:40:25Z</time>
      </trkpt>
      <trkpt lat="42.73845" lon="1.74536">
        <ele>1031</ele>
        <time>2016-09-10T15:40:26Z</time>
      </trkpt>
      <trkpt lat="42.73846" lon="1.74537">
        <ele>1031</ele>
        <time>2016-09-10T15:40:27Z</time>
      </trkpt>
      <trkpt lat="42.73847" lon="1.74538">
        <ele>1030</ele>
        <time>2016-09-10T15:40:28Z</time>
      </trkpt>
      <trkpt lat="42.73847" lon="1.74539">
        <ele>1030</ele>
        <time>2016-09-10T15:40:29Z</time>
      </trkpt>
      <trkpt lat="42.73848" lon="1.74543">
        <ele>1029</ele>
        <time>2016-09-10T15:40:32Z</time>
      </trkpt>
      <trkpt lat="42.73849" lon="1.74545">
        <ele>1028</ele>
        <time>2016-09-10T15:40:34Z</time>
      </trkpt>
      <trkpt lat="42.73851" lon="1.74546">
        <ele>1027</ele>
        <time>2016-09-10T15:40:35Z</time>
      </trkpt>
      <trkpt lat="42.73852" lon="1.74548">
        <ele>1027</ele>
        <time>2016-09-10T15:40:36Z</time>
      </trkpt>
      <trkpt lat="42.73853" lon="1.74549">
        <ele>1027</ele>
        <time>2016-09-10T15:40:37Z</time>
      </trkpt>
      <trkpt lat="42.73856" lon="1.74552">
        <ele>1026</ele>
        <time>2016-09-10T15:40:40Z</time>
      </trkpt>
      <trkpt lat="42.7386" lon="1.74557">
        <ele>1023</ele>
        <time>2016-09-10T15:40:43Z</time>
      </trkpt>
      <trkpt lat="42.73859" lon="1.74558">
        <ele>1023</ele>
        <time>2016-09-10T15:40:44Z</time>
      </trkpt>
      <trkpt lat="42.7386" lon="1.74559">
        <ele>1023</ele>
        <time>2016-09-10T15:40:45Z</time>
      </trkpt>
      <trkpt lat="42.73861" lon="1.74559">
        <ele>1022</ele>
        <time>2016-09-10T15:40:46Z</time>
      </trkpt>
      <trkpt lat="42.73863" lon="1.74559">
        <ele>1022</ele>
        <time>2016-09-10T15:40:47Z</time>
      </trkpt>
      <trkpt lat="42.73869" lon="1.74564">
        <ele>1020</ele>
        <time>2016-09-10T15:40:53Z</time>
      </trkpt>
      <trkpt lat="42.73871" lon="1.74568">
        <ele>1019</ele>
        <time>2016-09-10T15:40:56Z</time>
      </trkpt>
      <trkpt lat="42.73872" lon="1.7457">
        <ele>1018</ele>
        <time>2016-09-10T15:40:57Z</time>
      </trkpt>
      <trkpt lat="42.73873" lon="1.7457">
        <ele>1018</ele>
        <time>2016-09-10T15:40:58Z</time>
      </trkpt>
      <trkpt lat="42.73873" lon="1.74571">
        <ele>1018</ele>
        <time>2016-09-10T15:40:59Z</time>
      </trkpt>
      <trkpt lat="42.73874" lon="1.74572">
        <ele>1018</ele>
        <time>2016-09-10T15:41:00Z</time>
      </trkpt>
      <trkpt lat="42.73877" lon="1.74576">
        <ele>1017</ele>
        <time>2016-09-10T15:41:04Z</time>
      </trkpt>
      <trkpt lat="42.73878" lon="1.74577">
        <ele>1017</ele>
        <time>2016-09-10T15:41:05Z</time>
      </trkpt>
      <trkpt lat="42.73879" lon="1.74578">
        <ele>1017</ele>
        <time>2016-09-10T15:41:06Z</time>
      </trkpt>
      <trkpt lat="42.7388" lon="1.74579">
        <ele>1017</ele>
        <time>2016-09-10T15:41:07Z</time>
      </trkpt>
      <trkpt lat="42.73882" lon="1.74579">
        <ele>1017</ele>
        <time>2016-09-10T15:41:08Z</time>
      </trkpt>
      <trkpt lat="42.73893" lon="1.74584">
        <ele>1017</ele>
        <time>2016-09-10T15:41:14Z</time>
      </trkpt>
      <trkpt lat="42.739" lon="1.7459">
        <ele>1016</ele>
        <time>2016-09-10T15:41:19Z</time>
      </trkpt>
      <trkpt lat="42.73901" lon="1.7459">
        <ele>1015</ele>
        <time>2016-09-10T15:41:20Z</time>
      </trkpt>
      <trkpt lat="42.73902" lon="1.74592">
        <ele>1015</ele>
        <time>2016-09-10T15:41:21Z</time>
      </trkpt>
      <trkpt lat="42.73903" lon="1.74593">
        <ele>1015</ele>
        <time>2016-09-10T15:41:22Z</time>
      </trkpt>
      <trkpt lat="42.73904" lon="1.74595">
        <ele>1014</ele>
        <time>2016-09-10T15:41:23Z</time>
      </trkpt>
      <trkpt lat="42.73905" lon="1.74596">
        <ele>1014</ele>
        <time>2016-09-10T15:41:24Z</time>
      </trkpt>
      <trkpt lat="42.73904" lon="1.74598">
        <ele>1014</ele>
        <time>2016-09-10T15:41:26Z</time>
      </trkpt>
      <trkpt lat="42.73908" lon="1.74605">
        <ele>1011</ele>
        <time>2016-09-10T15:41:32Z</time>
      </trkpt>
      <trkpt lat="42.73908" lon="1.74608">
        <ele>1011</ele>
        <time>2016-09-10T15:41:34Z</time>
      </trkpt>
      <trkpt lat="42.73909" lon="1.74609">
        <ele>1010</ele>
        <time>2016-09-10T15:41:35Z</time>
      </trkpt>
      <trkpt lat="42.73911" lon="1.7461">
        <ele>1010</ele>
        <time>2016-09-10T15:41:36Z</time>
      </trkpt>
      <trkpt lat="42.73912" lon="1.7461">
        <ele>1010</ele>
        <time>2016-09-10T15:41:37Z</time>
      </trkpt>
      <trkpt lat="42.73913" lon="1.74611">
        <ele>1010</ele>
        <time>2016-09-10T15:41:38Z</time>
      </trkpt>
      <trkpt lat="42.73924" lon="1.74615">
        <ele>1010</ele>
        <time>2016-09-10T15:41:47Z</time>
      </trkpt>
      <trkpt lat="42.73925" lon="1.74615">
        <ele>1010</ele>
        <time>2016-09-10T15:41:48Z</time>
      </trkpt>
      <trkpt lat="42.73927" lon="1.74616">
        <ele>1010</ele>
        <time>2016-09-10T15:41:49Z</time>
      </trkpt>
      <trkpt lat="42.73928" lon="1.74616">
        <ele>1010</ele>
        <time>2016-09-10T15:41:50Z</time>
      </trkpt>
      <trkpt lat="42.73929" lon="1.74617">
        <ele>1010</ele>
        <time>2016-09-10T15:41:51Z</time>
      </trkpt>
      <trkpt lat="42.73936" lon="1.74621">
        <ele>1009</ele>
        <time>2016-09-10T15:41:56Z</time>
      </trkpt>
      <trkpt lat="42.73939" lon="1.74623">
        <ele>1009</ele>
        <time>2016-09-10T15:42:00Z</time>
      </trkpt>
      <trkpt lat="42.7394" lon="1.74623">
        <ele>1009</ele>
        <time>2016-09-10T15:42:01Z</time>
      </trkpt>
      <trkpt lat="42.73942" lon="1.74625">
        <ele>1008</ele>
        <time>2016-09-10T15:42:02Z</time>
      </trkpt>
      <trkpt lat="42.73943" lon="1.74625">
        <ele>1009</ele>
        <time>2016-09-10T15:42:03Z</time>
      </trkpt>
      <trkpt lat="42.73945" lon="1.74626">
        <ele>1008</ele>
        <time>2016-09-10T15:42:04Z</time>
      </trkpt>
      <trkpt lat="42.73946" lon="1.74627">
        <ele>1008</ele>
        <time>2016-09-10T15:42:09Z</time>
      </trkpt>
      <trkpt lat="42.73946" lon="1.74627">
        <ele>1008</ele>
        <time>2016-09-10T15:42:18Z</time>
      </trkpt>
      <trkpt lat="42.73948" lon="1.7463">
        <ele>1008</ele>
        <time>2016-09-10T15:42:25Z</time>
      </trkpt>
      <trkpt lat="42.73951" lon="1.74634">
        <ele>1007</ele>
        <time>2016-09-10T15:42:28Z</time>
      </trkpt>
      <trkpt lat="42.73951" lon="1.74636">
        <ele>1007</ele>
        <time>2016-09-10T15:42:29Z</time>
      </trkpt>
      <trkpt lat="42.73958" lon="1.74646">
        <ele>1005</ele>
        <time>2016-09-10T15:42:35Z</time>
      </trkpt>
      <trkpt lat="42.73959" lon="1.74648">
        <ele>1005</ele>
        <time>2016-09-10T15:42:36Z</time>
      </trkpt>
      <trkpt lat="42.73964" lon="1.74655">
        <ele>1003</ele>
        <time>2016-09-10T15:42:42Z</time>
      </trkpt>
      <trkpt lat="42.73968" lon="1.74657">
        <ele>1003</ele>
        <time>2016-09-10T15:42:45Z</time>
      </trkpt>
      <trkpt lat="42.73969" lon="1.74657">
        <ele>1002</ele>
        <time>2016-09-10T15:42:46Z</time>
      </trkpt>
      <trkpt lat="42.73978" lon="1.7466">
        <ele>1002</ele>
        <time>2016-09-10T15:42:53Z</time>
      </trkpt>
      <trkpt lat="42.73984" lon="1.74661">
        <ele>1001</ele>
        <time>2016-09-10T15:42:58Z</time>
      </trkpt>
      <trkpt lat="42.73985" lon="1.74662">
        <ele>1001</ele>
        <time>2016-09-10T15:42:59Z</time>
      </trkpt>
      <trkpt lat="42.73986" lon="1.74663">
        <ele>1000</ele>
        <time>2016-09-10T15:43:00Z</time>
      </trkpt>
      <trkpt lat="42.73988" lon="1.74665">
        <ele>1000</ele>
        <time>2016-09-10T15:43:01Z</time>
      </trkpt>
      <trkpt lat="42.73989" lon="1.74666">
        <ele>999</ele>
        <time>2016-09-10T15:43:02Z</time>
      </trkpt>
      <trkpt lat="42.7399" lon="1.74668">
        <ele>999</ele>
        <time>2016-09-10T15:43:03Z</time>
      </trkpt>
      <trkpt lat="42.73995" lon="1.74672">
        <ele>997</ele>
        <time>2016-09-10T15:43:09Z</time>
      </trkpt>
      <trkpt lat="42.73999" lon="1.74674">
        <ele>996</ele>
        <time>2016-09-10T15:43:13Z</time>
      </trkpt>
      <trkpt lat="42.73999" lon="1.74674">
        <ele>996</ele>
        <time>2016-09-10T15:43:14Z</time>
      </trkpt>
      <trkpt lat="42.74" lon="1.74674">
        <ele>996</ele>
        <time>2016-09-10T15:43:15Z</time>
      </trkpt>
      <trkpt lat="42.74001" lon="1.74675">
        <ele>996</ele>
        <time>2016-09-10T15:43:16Z</time>
      </trkpt>
      <trkpt lat="42.74002" lon="1.74675">
        <ele>996</ele>
        <time>2016-09-10T15:43:17Z</time>
      </trkpt>
      <trkpt lat="42.74008" lon="1.74677">
        <ele>995</ele>
        <time>2016-09-10T15:43:23Z</time>
      </trkpt>
      <trkpt lat="42.74013" lon="1.7468">
        <ele>994</ele>
        <time>2016-09-10T15:43:29Z</time>
      </trkpt>
      <trkpt lat="42.74014" lon="1.7468">
        <ele>993</ele>
        <time>2016-09-10T15:43:30Z</time>
      </trkpt>
      <trkpt lat="42.74015" lon="1.7468">
        <ele>993</ele>
        <time>2016-09-10T15:43:31Z</time>
      </trkpt>
      <trkpt lat="42.74016" lon="1.7468">
        <ele>993</ele>
        <time>2016-09-10T15:43:32Z</time>
      </trkpt>
      <trkpt lat="42.74016" lon="1.7468">
        <ele>993</ele>
        <time>2016-09-10T15:43:33Z</time>
      </trkpt>
      <trkpt lat="42.74022" lon="1.74678">
        <ele>994</ele>
        <time>2016-09-10T15:43:38Z</time>
      </trkpt>
      <trkpt lat="42.74023" lon="1.74678">
        <ele>994</ele>
        <time>2016-09-10T15:43:40Z</time>
      </trkpt>
      <trkpt lat="42.74023" lon="1.74678">
        <ele>994</ele>
        <time>2016-09-10T15:43:41Z</time>
      </trkpt>
      <trkpt lat="42.74023" lon="1.74678">
        <ele>994</ele>
        <time>2016-09-10T15:43:42Z</time>
      </trkpt>
      <trkpt lat="42.74023" lon="1.74678">
        <ele>994</ele>
        <time>2016-09-10T15:43:43Z</time>
      </trkpt>
      <trkpt lat="42.74026" lon="1.74678">
        <ele>994</ele>
        <time>2016-09-10T15:43:44Z</time>
      </trkpt>
      <trkpt lat="42.74029" lon="1.74678">
        <ele>994</ele>
        <time>2016-09-10T15:43:45Z</time>
      </trkpt>
      <trkpt lat="42.74038" lon="1.74677">
        <ele>994</ele>
        <time>2016-09-10T15:43:49Z</time>
      </trkpt>
      <trkpt lat="42.7404" lon="1.74677">
        <ele>994</ele>
        <time>2016-09-10T15:43:50Z</time>
      </trkpt>
      <trkpt lat="42.74043" lon="1.74677">
        <ele>994</ele>
        <time>2016-09-10T15:43:51Z</time>
      </trkpt>
      <trkpt lat="42.74045" lon="1.74676">
        <ele>994</ele>
        <time>2016-09-10T15:43:52Z</time>
      </trkpt>
      <trkpt lat="42.74047" lon="1.74676">
        <ele>994</ele>
        <time>2016-09-10T15:43:53Z</time>
      </trkpt>
      <trkpt lat="42.74056" lon="1.7468">
        <ele>992</ele>
        <time>2016-09-10T15:44:00Z</time>
      </trkpt>
      <trkpt lat="42.74065" lon="1.74682">
        <ele>991</ele>
        <time>2016-09-10T15:44:06Z</time>
      </trkpt>
      <trkpt lat="42.7407" lon="1.74683">
        <ele>991</ele>
        <time>2016-09-10T15:44:08Z</time>
      </trkpt>
      <trkpt lat="42.7408" lon="1.74687">
        <ele>989</ele>
        <time>2016-09-10T15:44:15Z</time>
      </trkpt>
      <trkpt lat="42.74081" lon="1.74688">
        <ele>989</ele>
        <time>2016-09-10T15:44:16Z</time>
      </trkpt>
      <trkpt lat="42.74082" lon="1.74688">
        <ele>989</ele>
        <time>2016-09-10T15:44:17Z</time>
      </trkpt>
      <trkpt lat="42.74084" lon="1.74689">
        <ele>989</ele>
        <time>2016-09-10T15:44:18Z</time>
      </trkpt>
      <trkpt lat="42.74085" lon="1.74689">
        <ele>989</ele>
        <time>2016-09-10T15:44:19Z</time>
      </trkpt>
      <trkpt lat="42.74086" lon="1.74691">
        <ele>989</ele>
        <time>2016-09-10T15:44:20Z</time>
      </trkpt>
      <trkpt lat="42.74088" lon="1.74693">
        <ele>988</ele>
        <time>2016-09-10T15:44:23Z</time>
      </trkpt>
      <trkpt lat="42.74094" lon="1.74696">
        <ele>988</ele>
        <time>2016-09-10T15:44:30Z</time>
      </trkpt>
      <trkpt lat="42.74104" lon="1.74698">
        <ele>988</ele>
        <time>2016-09-10T15:44:38Z</time>
      </trkpt>
      <trkpt lat="42.74114" lon="1.74703">
        <ele>987</ele>
        <time>2016-09-10T15:44:46Z</time>
      </trkpt>
      <trkpt lat="42.74123" lon="1.74708">
        <ele>986</ele>
        <time>2016-09-10T15:44:54Z</time>
      </trkpt>
      <trkpt lat="42.7413" lon="1.74714">
        <ele>985</ele>
        <time>2016-09-10T15:45:03Z</time>
      </trkpt>
      <trkpt lat="42.7414" lon="1.74718">
        <ele>983</ele>
        <time>2016-09-10T15:45:11Z</time>
      </trkpt>
      <trkpt lat="42.74142" lon="1.74718">
        <ele>983</ele>
        <time>2016-09-10T15:45:12Z</time>
      </trkpt>
      <trkpt lat="42.74144" lon="1.74718">
        <ele>983</ele>
        <time>2016-09-10T15:45:13Z</time>
      </trkpt>
      <trkpt lat="42.74145" lon="1.74718">
        <ele>983</ele>
        <time>2016-09-10T15:45:14Z</time>
      </trkpt>
      <trkpt lat="42.74147" lon="1.74718">
        <ele>984</ele>
        <time>2016-09-10T15:45:15Z</time>
      </trkpt>
      <trkpt lat="42.7415" lon="1.74719">
        <ele>984</ele>
        <time>2016-09-10T15:45:17Z</time>
      </trkpt>
      <trkpt lat="42.74154" lon="1.74723">
        <ele>983</ele>
        <time>2016-09-10T15:45:20Z</time>
      </trkpt>
      <trkpt lat="42.74155" lon="1.74723">
        <ele>982</ele>
        <time>2016-09-10T15:45:21Z</time>
      </trkpt>
      <trkpt lat="42.74156" lon="1.74723">
        <ele>983</ele>
        <time>2016-09-10T15:45:22Z</time>
      </trkpt>
      <trkpt lat="42.74157" lon="1.74723">
        <ele>983</ele>
        <time>2016-09-10T15:45:23Z</time>
      </trkpt>
      <trkpt lat="42.74159" lon="1.74723">
        <ele>983</ele>
        <time>2016-09-10T15:45:24Z</time>
      </trkpt>
      <trkpt lat="42.74159" lon="1.74723">
        <ele>983</ele>
        <time>2016-09-10T15:45:25Z</time>
      </trkpt>
      <trkpt lat="42.74162" lon="1.74728">
        <ele>981</ele>
        <time>2016-09-10T15:45:28Z</time>
      </trkpt>
      <trkpt lat="42.74168" lon="1.74736">
        <ele>978</ele>
        <time>2016-09-10T15:45:34Z</time>
      </trkpt>
      <trkpt lat="42.74169" lon="1.74738">
        <ele>977</ele>
        <time>2016-09-10T15:45:35Z</time>
      </trkpt>
      <trkpt lat="42.7417" lon="1.74739">
        <ele>976</ele>
        <time>2016-09-10T15:45:36Z</time>
      </trkpt>
      <trkpt lat="42.7417" lon="1.74741">
        <ele>975</ele>
        <time>2016-09-10T15:45:37Z</time>
      </trkpt>
      <trkpt lat="42.74171" lon="1.74744">
        <ele>974</ele>
        <time>2016-09-10T15:45:40Z</time>
      </trkpt>
      <trkpt lat="42.74176" lon="1.74748">
        <ele>973</ele>
        <time>2016-09-10T15:45:48Z</time>
      </trkpt>
      <trkpt lat="42.74178" lon="1.74749">
        <ele>973</ele>
        <time>2016-09-10T15:45:49Z</time>
      </trkpt>
      <trkpt lat="42.74179" lon="1.74749">
        <ele>973</ele>
        <time>2016-09-10T15:45:50Z</time>
      </trkpt>
      <trkpt lat="42.7418" lon="1.74749">
        <ele>973</ele>
        <time>2016-09-10T15:45:51Z</time>
      </trkpt>
      <trkpt lat="42.74181" lon="1.74749">
        <ele>973</ele>
        <time>2016-09-10T15:45:52Z</time>
      </trkpt>
      <trkpt lat="42.74184" lon="1.74747">
        <ele>972</ele>
        <time>2016-09-10T15:45:55Z</time>
      </trkpt>
      <trkpt lat="42.74191" lon="1.7475">
        <ele>973</ele>
        <time>2016-09-10T15:46:01Z</time>
      </trkpt>
      <trkpt lat="42.74196" lon="1.7476">
        <ele>975</ele>
        <time>2016-09-10T15:46:08Z</time>
      </trkpt>
      <trkpt lat="42.74201" lon="1.7477">
        <ele>975</ele>
        <time>2016-09-10T15:46:15Z</time>
      </trkpt>
      <trkpt lat="42.74206" lon="1.74778">
        <ele>975</ele>
        <time>2016-09-10T15:46:21Z</time>
      </trkpt>
      <trkpt lat="42.74208" lon="1.74781">
        <ele>974</ele>
        <time>2016-09-10T15:46:27Z</time>
      </trkpt>
      <trkpt lat="42.74208" lon="1.74781">
        <ele>974</ele>
        <time>2016-09-10T15:46:28Z</time>
      </trkpt>
      <trkpt lat="42.74208" lon="1.74781">
        <ele>974</ele>
        <time>2016-09-10T15:46:29Z</time>
      </trkpt>
      <trkpt lat="42.74208" lon="1.74781">
        <ele>974</ele>
        <time>2016-09-10T15:46:30Z</time>
      </trkpt>
      <trkpt lat="42.74208" lon="1.74781">
        <ele>974</ele>
        <time>2016-09-10T15:46:31Z</time>
      </trkpt>
      <trkpt lat="42.74209" lon="1.74784">
        <ele>974</ele>
        <time>2016-09-10T15:46:41Z</time>
      </trkpt>
      <trkpt lat="42.74214" lon="1.74792">
        <ele>972</ele>
        <time>2016-09-10T15:46:49Z</time>
      </trkpt>
      <trkpt lat="42.74219" lon="1.74796">
        <ele>971</ele>
        <time>2016-09-10T15:46:54Z</time>
      </trkpt>
      <trkpt lat="42.7422" lon="1.74797">
        <ele>971</ele>
        <time>2016-09-10T15:46:55Z</time>
      </trkpt>
      <trkpt lat="42.74221" lon="1.74798">
        <ele>970</ele>
        <time>2016-09-10T15:46:56Z</time>
      </trkpt>
      <trkpt lat="42.74222" lon="1.74799">
        <ele>970</ele>
        <time>2016-09-10T15:46:57Z</time>
      </trkpt>
      <trkpt lat="42.74224" lon="1.74799">
        <ele>970</ele>
        <time>2016-09-10T15:46:58Z</time>
      </trkpt>
      <trkpt lat="42.74229" lon="1.748">
        <ele>968</ele>
        <time>2016-09-10T15:47:04Z</time>
      </trkpt>
      <trkpt lat="42.74231" lon="1.74799">
        <ele>968</ele>
        <time>2016-09-10T15:47:05Z</time>
      </trkpt>
      <trkpt lat="42.74232" lon="1.74799">
        <ele>968</ele>
        <time>2016-09-10T15:47:06Z</time>
      </trkpt>
      <trkpt lat="42.74233" lon="1.74798">
        <ele>969</ele>
        <time>2016-09-10T15:47:07Z</time>
      </trkpt>
      <trkpt lat="42.74233" lon="1.74798">
        <ele>969</ele>
        <time>2016-09-10T15:47:08Z</time>
      </trkpt>
      <trkpt lat="42.74237" lon="1.74796">
        <ele>970</ele>
        <time>2016-09-10T15:47:12Z</time>
      </trkpt>
      <trkpt lat="42.74237" lon="1.74795">
        <ele>970</ele>
        <time>2016-09-10T15:47:14Z</time>
      </trkpt>
      <trkpt lat="42.74237" lon="1.74795">
        <ele>970</ele>
        <time>2016-09-10T15:47:15Z</time>
      </trkpt>
      <trkpt lat="42.74238" lon="1.74795">
        <ele>970</ele>
        <time>2016-09-10T15:47:16Z</time>
      </trkpt>
      <trkpt lat="42.7424" lon="1.74795">
        <ele>971</ele>
        <time>2016-09-10T15:47:17Z</time>
      </trkpt>
      <trkpt lat="42.74247" lon="1.74793">
        <ele>972</ele>
        <time>2016-09-10T15:47:22Z</time>
      </trkpt>
      <trkpt lat="42.74249" lon="1.74792">
        <ele>972</ele>
        <time>2016-09-10T15:47:31Z</time>
      </trkpt>
      <trkpt lat="42.74249" lon="1.74792">
        <ele>972</ele>
        <time>2016-09-10T15:47:32Z</time>
      </trkpt>
      <trkpt lat="42.74249" lon="1.74792">
        <ele>972</ele>
        <time>2016-09-10T15:47:33Z</time>
      </trkpt>
      <trkpt lat="42.74249" lon="1.74792">
        <ele>972</ele>
        <time>2016-09-10T15:47:34Z</time>
      </trkpt>
      <trkpt lat="42.74249" lon="1.74792">
        <ele>972</ele>
        <time>2016-09-10T15:47:35Z</time>
      </trkpt>
      <trkpt lat="42.74251" lon="1.74791">
        <ele>973</ele>
        <time>2016-09-10T15:47:36Z</time>
      </trkpt>
      <trkpt lat="42.74259" lon="1.7479">
        <ele>974</ele>
        <time>2016-09-10T15:47:39Z</time>
      </trkpt>
      <trkpt lat="42.74268" lon="1.74788">
        <ele>976</ele>
        <time>2016-09-10T15:47:43Z</time>
      </trkpt>
      <trkpt lat="42.7427" lon="1.74788">
        <ele>976</ele>
        <time>2016-09-10T15:47:44Z</time>
      </trkpt>
      <trkpt lat="42.74272" lon="1.74789">
        <ele>976</ele>
        <time>2016-09-10T15:47:45Z</time>
      </trkpt>
      <trkpt lat="42.74274" lon="1.7479">
        <ele>976</ele>
        <time>2016-09-10T15:47:46Z</time>
      </trkpt>
      <trkpt lat="42.74275" lon="1.7479">
        <ele>976</ele>
        <time>2016-09-10T15:47:47Z</time>
      </trkpt>
      <trkpt lat="42.74285" lon="1.7479">
        <ele>976</ele>
        <time>2016-09-10T15:47:53Z</time>
      </trkpt>
      <trkpt lat="42.74285" lon="1.7479">
        <ele>976</ele>
        <time>2016-09-10T15:47:54Z</time>
      </trkpt>
      <trkpt lat="42.74286" lon="1.74792">
        <ele>976</ele>
        <time>2016-09-10T15:47:55Z</time>
      </trkpt>
      <trkpt lat="42.74286" lon="1.74794">
        <ele>975</ele>
        <time>2016-09-10T15:47:56Z</time>
      </trkpt>
      <trkpt lat="42.74287" lon="1.74796">
        <ele>974</ele>
        <time>2016-09-10T15:47:57Z</time>
      </trkpt>
      <trkpt lat="42.74288" lon="1.74797">
        <ele>974</ele>
        <time>2016-09-10T15:47:58Z</time>
      </trkpt>
      <trkpt lat="42.74294" lon="1.74801">
        <ele>973</ele>
        <time>2016-09-10T15:48:05Z</time>
      </trkpt>
      <trkpt lat="42.74296" lon="1.74802">
        <ele>972</ele>
        <time>2016-09-10T15:48:06Z</time>
      </trkpt>
      <trkpt lat="42.74299" lon="1.74804">
        <ele>972</ele>
        <time>2016-09-10T15:48:08Z</time>
      </trkpt>
      <trkpt lat="42.74301" lon="1.74805">
        <ele>971</ele>
        <time>2016-09-10T15:48:09Z</time>
      </trkpt>
      <trkpt lat="42.74301" lon="1.74805">
        <ele>971</ele>
        <time>2016-09-10T15:48:10Z</time>
      </trkpt>
      <trkpt lat="42.74301" lon="1.74805">
        <ele>971</ele>
        <time>2016-09-10T15:48:11Z</time>
      </trkpt>
      <trkpt lat="42.74301" lon="1.74805">
        <ele>971</ele>
        <time>2016-09-10T15:48:12Z</time>
      </trkpt>
      <trkpt lat="42.74306" lon="1.74807">
        <ele>971</ele>
        <time>2016-09-10T15:48:16Z</time>
      </trkpt>
      <trkpt lat="42.74307" lon="1.74808">
        <ele>971</ele>
        <time>2016-09-10T15:48:17Z</time>
      </trkpt>
      <trkpt lat="42.74309" lon="1.74808">
        <ele>970</ele>
        <time>2016-09-10T15:48:18Z</time>
      </trkpt>
      <trkpt lat="42.74311" lon="1.74809">
        <ele>970</ele>
        <time>2016-09-10T15:48:19Z</time>
      </trkpt>
      <trkpt lat="42.74312" lon="1.74809">
        <ele>970</ele>
        <time>2016-09-10T15:48:20Z</time>
      </trkpt>
      <trkpt lat="42.74314" lon="1.74808">
        <ele>970</ele>
        <time>2016-09-10T15:48:22Z</time>
      </trkpt>
      <trkpt lat="42.74317" lon="1.74806">
        <ele>971</ele>
        <time>2016-09-10T15:48:27Z</time>
      </trkpt>
      <trkpt lat="42.74319" lon="1.74805">
        <ele>971</ele>
        <time>2016-09-10T15:48:28Z</time>
      </trkpt>
      <trkpt lat="42.74321" lon="1.74805">
        <ele>971</ele>
        <time>2016-09-10T15:48:29Z</time>
      </trkpt>
      <trkpt lat="42.74322" lon="1.74806">
        <ele>971</ele>
        <time>2016-09-10T15:48:30Z</time>
      </trkpt>
      <trkpt lat="42.74323" lon="1.74806">
        <ele>971</ele>
        <time>2016-09-10T15:48:31Z</time>
      </trkpt>
      <trkpt lat="42.74329" lon="1.74809">
        <ele>970</ele>
        <time>2016-09-10T15:48:37Z</time>
      </trkpt>
      <trkpt lat="42.74331" lon="1.74808">
        <ele>971</ele>
        <time>2016-09-10T15:48:48Z</time>
      </trkpt>
      <trkpt lat="42.74331" lon="1.74808">
        <ele>971</ele>
        <time>2016-09-10T15:49:01Z</time>
      </trkpt>
      <trkpt lat="42.74329" lon="1.74807">
        <ele>971</ele>
        <time>2016-09-10T15:49:14Z</time>
      </trkpt>
      <trkpt lat="42.74329" lon="1.74807">
        <ele>971</ele>
        <time>2016-09-10T15:49:15Z</time>
      </trkpt>
      <trkpt lat="42.74329" lon="1.74807">
        <ele>971</ele>
        <time>2016-09-10T15:49:16Z</time>
      </trkpt>
      <trkpt lat="42.74329" lon="1.74807">
        <ele>971</ele>
        <time>2016-09-10T15:49:17Z</time>
      </trkpt>
      <trkpt lat="42.74329" lon="1.74807">
        <ele>971</ele>
        <time>2016-09-10T15:49:18Z</time>
      </trkpt>
      <trkpt lat="42.74337" lon="1.7481">
        <ele>971</ele>
        <time>2016-09-10T15:49:23Z</time>
      </trkpt>
      <trkpt lat="42.74347" lon="1.74817">
        <ele>968</ele>
        <time>2016-09-10T15:49:29Z</time>
      </trkpt>
      <trkpt lat="42.74359" lon="1.74823">
        <ele>966</ele>
        <time>2016-09-10T15:49:35Z</time>
      </trkpt>
      <trkpt lat="42.74365" lon="1.74828">
        <ele>964</ele>
        <time>2016-09-10T15:49:40Z</time>
      </trkpt>
      <trkpt lat="42.74368" lon="1.7484">
        <ele>959</ele>
        <time>2016-09-10T15:49:46Z</time>
      </trkpt>
      <trkpt lat="42.74368" lon="1.74842">
        <ele>958</ele>
        <time>2016-09-10T15:49:47Z</time>
      </trkpt>
      <trkpt lat="42.74368" lon="1.74844">
        <ele>958</ele>
        <time>2016-09-10T15:49:48Z</time>
      </trkpt>
      <trkpt lat="42.74367" lon="1.74845">
        <ele>957</ele>
        <time>2016-09-10T15:49:49Z</time>
      </trkpt>
      <trkpt lat="42.74367" lon="1.74847">
        <ele>956</ele>
        <time>2016-09-10T15:49:50Z</time>
      </trkpt>
      <trkpt lat="42.74369" lon="1.74852">
        <ele>954</ele>
        <time>2016-09-10T15:49:54Z</time>
      </trkpt>
      <trkpt lat="42.74371" lon="1.74853">
        <ele>954</ele>
        <time>2016-09-10T15:49:55Z</time>
      </trkpt>
      <trkpt lat="42.74372" lon="1.74854">
        <ele>954</ele>
        <time>2016-09-10T15:49:56Z</time>
      </trkpt>
      <trkpt lat="42.74373" lon="1.74855">
        <ele>953</ele>
        <time>2016-09-10T15:49:57Z</time>
      </trkpt>
      <trkpt lat="42.74374" lon="1.74856">
        <ele>953</ele>
        <time>2016-09-10T15:49:58Z</time>
      </trkpt>
      <trkpt lat="42.74378" lon="1.7486">
        <ele>952</ele>
        <time>2016-09-10T15:50:01Z</time>
      </trkpt>
      <trkpt lat="42.74379" lon="1.74862">
        <ele>951</ele>
        <time>2016-09-10T15:50:02Z</time>
      </trkpt>
      <trkpt lat="42.7438" lon="1.74864">
        <ele>950</ele>
        <time>2016-09-10T15:50:03Z</time>
      </trkpt>
      <trkpt lat="42.74381" lon="1.74865">
        <ele>950</ele>
        <time>2016-09-10T15:50:04Z</time>
      </trkpt>
      <trkpt lat="42.74382" lon="1.74866">
        <ele>949</ele>
        <time>2016-09-10T15:50:05Z</time>
      </trkpt>
      <trkpt lat="42.74385" lon="1.7487">
        <ele>950</ele>
        <time>2016-09-10T15:50:08Z</time>
      </trkpt>
      <trkpt lat="42.74386" lon="1.7487">
        <ele>950</ele>
        <time>2016-09-10T15:50:09Z</time>
      </trkpt>
      <trkpt lat="42.74386" lon="1.7487">
        <ele>950</ele>
        <time>2016-09-10T15:50:10Z</time>
      </trkpt>
      <trkpt lat="42.74387" lon="1.74871">
        <ele>950</ele>
        <time>2016-09-10T15:50:11Z</time>
      </trkpt>
      <trkpt lat="42.74388" lon="1.74871">
        <ele>950</ele>
        <time>2016-09-10T15:50:12Z</time>
      </trkpt>
      <trkpt lat="42.74391" lon="1.74878">
        <ele>950</ele>
        <time>2016-09-10T15:50:19Z</time>
      </trkpt>
      <trkpt lat="42.74391" lon="1.74879">
        <ele>950</ele>
        <time>2016-09-10T15:50:20Z</time>
      </trkpt>
      <trkpt lat="42.74392" lon="1.74881">
        <ele>950</ele>
        <time>2016-09-10T15:50:21Z</time>
      </trkpt>
      <trkpt lat="42.74393" lon="1.74882">
        <ele>950</ele>
        <time>2016-09-10T15:50:22Z</time>
      </trkpt>
      <trkpt lat="42.74394" lon="1.74883">
        <ele>949</ele>
        <time>2016-09-10T15:50:23Z</time>
      </trkpt>
      <trkpt lat="42.744" lon="1.7489">
        <ele>948</ele>
        <time>2016-09-10T15:50:27Z</time>
      </trkpt>
      <trkpt lat="42.74403" lon="1.74893">
        <ele>948</ele>
        <time>2016-09-10T15:50:29Z</time>
      </trkpt>
      <trkpt lat="42.74404" lon="1.74894">
        <ele>947</ele>
        <time>2016-09-10T15:50:30Z</time>
      </trkpt>
      <trkpt lat="42.74405" lon="1.74895">
        <ele>947</ele>
        <time>2016-09-10T15:50:31Z</time>
      </trkpt>
      <trkpt lat="42.74407" lon="1.74897">
        <ele>947</ele>
        <time>2016-09-10T15:50:32Z</time>
      </trkpt>
      <trkpt lat="42.74409" lon="1.749">
        <ele>946</ele>
        <time>2016-09-10T15:50:35Z</time>
      </trkpt>
      <trkpt lat="42.7441" lon="1.74901">
        <ele>945</ele>
        <time>2016-09-10T15:50:36Z</time>
      </trkpt>
      <trkpt lat="42.74411" lon="1.74902">
        <ele>945</ele>
        <time>2016-09-10T15:50:37Z</time>
      </trkpt>
      <trkpt lat="42.74411" lon="1.74902">
        <ele>945</ele>
        <time>2016-09-10T15:50:38Z</time>
      </trkpt>
      <trkpt lat="42.74412" lon="1.74903">
        <ele>944</ele>
        <time>2016-09-10T15:50:39Z</time>
      </trkpt>
      <trkpt lat="42.74413" lon="1.74905">
        <ele>944</ele>
        <time>2016-09-10T15:50:40Z</time>
      </trkpt>
      <trkpt lat="42.74415" lon="1.74909">
        <ele>943</ele>
        <time>2016-09-10T15:50:43Z</time>
      </trkpt>
      <trkpt lat="42.74418" lon="1.74912">
        <ele>942</ele>
        <time>2016-09-10T15:50:46Z</time>
      </trkpt>
      <trkpt lat="42.74419" lon="1.74912">
        <ele>941</ele>
        <time>2016-09-10T15:50:47Z</time>
      </trkpt>
      <trkpt lat="42.74421" lon="1.74913">
        <ele>941</ele>
        <time>2016-09-10T15:50:48Z</time>
      </trkpt>
      <trkpt lat="42.74423" lon="1.74913">
        <ele>941</ele>
        <time>2016-09-10T15:50:49Z</time>
      </trkpt>
      <trkpt lat="42.74424" lon="1.74914">
        <ele>940</ele>
        <time>2016-09-10T15:50:50Z</time>
      </trkpt>
      <trkpt lat="42.74426" lon="1.74914">
        <ele>940</ele>
        <time>2016-09-10T15:50:51Z</time>
      </trkpt>
      <trkpt lat="42.7443" lon="1.74915">
        <ele>939</ele>
        <time>2016-09-10T15:50:55Z</time>
      </trkpt>
      <trkpt lat="42.74431" lon="1.74915">
        <ele>939</ele>
        <time>2016-09-10T15:50:56Z</time>
      </trkpt>
      <trkpt lat="42.74432" lon="1.74916">
        <ele>938</ele>
        <time>2016-09-10T15:50:57Z</time>
      </trkpt>
      <trkpt lat="42.74433" lon="1.74916">
        <ele>938</ele>
        <time>2016-09-10T15:50:58Z</time>
      </trkpt>
      <trkpt lat="42.74433" lon="1.74916">
        <ele>938</ele>
        <time>2016-09-10T15:50:59Z</time>
      </trkpt>
      <trkpt lat="42.74436" lon="1.74918">
        <ele>937</ele>
        <time>2016-09-10T15:51:03Z</time>
      </trkpt>
      <trkpt lat="42.74436" lon="1.74918">
        <ele>937</ele>
        <time>2016-09-10T15:51:04Z</time>
      </trkpt>
      <trkpt lat="42.74437" lon="1.74918">
        <ele>937</ele>
        <time>2016-09-10T15:51:05Z</time>
      </trkpt>
      <trkpt lat="42.74437" lon="1.74918">
        <ele>937</ele>
        <time>2016-09-10T15:51:06Z</time>
      </trkpt>
      <trkpt lat="42.74437" lon="1.74919">
        <ele>937</ele>
        <time>2016-09-10T15:51:07Z</time>
      </trkpt>
      <trkpt lat="42.74438" lon="1.74918">
        <ele>936</ele>
        <time>2016-09-10T15:51:10Z</time>
      </trkpt>
      <trkpt lat="42.74439" lon="1.74918">
        <ele>936</ele>
        <time>2016-09-10T15:51:11Z</time>
      </trkpt>
      <trkpt lat="42.74441" lon="1.74918">
        <ele>936</ele>
        <time>2016-09-10T15:51:12Z</time>
      </trkpt>
      <trkpt lat="42.74442" lon="1.74918">
        <ele>936</ele>
        <time>2016-09-10T15:51:13Z</time>
      </trkpt>
      <trkpt lat="42.74444" lon="1.74918">
        <ele>935</ele>
        <time>2016-09-10T15:51:14Z</time>
      </trkpt>
      <trkpt lat="42.74445" lon="1.74919">
        <ele>935</ele>
        <time>2016-09-10T15:51:15Z</time>
      </trkpt>
      <trkpt lat="42.74449" lon="1.74922">
        <ele>933</ele>
        <time>2016-09-10T15:51:18Z</time>
      </trkpt>
      <trkpt lat="42.7445" lon="1.74922">
        <ele>933</ele>
        <time>2016-09-10T15:51:19Z</time>
      </trkpt>
      <trkpt lat="42.7445" lon="1.74923">
        <ele>932</ele>
        <time>2016-09-10T15:51:20Z</time>
      </trkpt>
      <trkpt lat="42.74451" lon="1.74924">
        <ele>932</ele>
        <time>2016-09-10T15:51:21Z</time>
      </trkpt>
      <trkpt lat="42.74454" lon="1.74925">
        <ele>931</ele>
        <time>2016-09-10T15:51:24Z</time>
      </trkpt>
      <trkpt lat="42.74455" lon="1.74927">
        <ele>930</ele>
        <time>2016-09-10T15:51:25Z</time>
      </trkpt>
      <trkpt lat="42.74456" lon="1.74928">
        <ele>930</ele>
        <time>2016-09-10T15:51:26Z</time>
      </trkpt>
      <trkpt lat="42.74457" lon="1.74928">
        <ele>930</ele>
        <time>2016-09-10T15:51:27Z</time>
      </trkpt>
      <trkpt lat="42.74458" lon="1.74929">
        <ele>930</ele>
        <time>2016-09-10T15:51:28Z</time>
      </trkpt>
      <trkpt lat="42.74459" lon="1.7493">
        <ele>931</ele>
        <time>2016-09-10T15:51:29Z</time>
      </trkpt>
      <trkpt lat="42.74459" lon="1.7493">
        <ele>931</ele>
        <time>2016-09-10T15:51:30Z</time>
      </trkpt>
      <trkpt lat="42.74463" lon="1.74929">
        <ele>931</ele>
        <time>2016-09-10T15:51:34Z</time>
      </trkpt>
      <trkpt lat="42.74464" lon="1.74928">
        <ele>931</ele>
        <time>2016-09-10T15:51:35Z</time>
      </trkpt>
      <trkpt lat="42.74466" lon="1.74928">
        <ele>931</ele>
        <time>2016-09-10T15:51:36Z</time>
      </trkpt>
      <trkpt lat="42.74467" lon="1.74928">
        <ele>931</ele>
        <time>2016-09-10T15:51:37Z</time>
      </trkpt>
      <trkpt lat="42.74469" lon="1.74929">
        <ele>931</ele>
        <time>2016-09-10T15:51:38Z</time>
      </trkpt>
      <trkpt lat="42.74471" lon="1.74929">
        <ele>931</ele>
        <time>2016-09-10T15:51:39Z</time>
      </trkpt>
      <trkpt lat="42.74473" lon="1.7493">
        <ele>931</ele>
        <time>2016-09-10T15:51:40Z</time>
      </trkpt>
      <trkpt lat="42.7448" lon="1.74932">
        <ele>931</ele>
        <time>2016-09-10T15:51:45Z</time>
      </trkpt>
      <trkpt lat="42.74483" lon="1.74933">
        <ele>931</ele>
        <time>2016-09-10T15:51:47Z</time>
      </trkpt>
      <trkpt lat="42.74484" lon="1.74934">
        <ele>931</ele>
        <time>2016-09-10T15:51:48Z</time>
      </trkpt>
      <trkpt lat="42.74486" lon="1.74935">
        <ele>931</ele>
        <time>2016-09-10T15:51:49Z</time>
      </trkpt>
      <trkpt lat="42.74487" lon="1.74935">
        <ele>931</ele>
        <time>2016-09-10T15:51:50Z</time>
      </trkpt>
      <trkpt lat="42.74488" lon="1.74935">
        <ele>931</ele>
        <time>2016-09-10T15:51:51Z</time>
      </trkpt>
      <trkpt lat="42.7449" lon="1.74936">
        <ele>931</ele>
        <time>2016-09-10T15:51:53Z</time>
      </trkpt>
      <trkpt lat="42.74499" lon="1.74942">
        <ele>930</ele>
        <time>2016-09-10T15:52:01Z</time>
      </trkpt>
      <trkpt lat="42.74502" lon="1.74944">
        <ele>930</ele>
        <time>2016-09-10T15:52:03Z</time>
      </trkpt>
      <trkpt lat="42.74503" lon="1.74944">
        <ele>930</ele>
        <time>2016-09-10T15:52:04Z</time>
      </trkpt>
      <trkpt lat="42.74505" lon="1.74945">
        <ele>929</ele>
        <time>2016-09-10T15:52:05Z</time>
      </trkpt>
      <trkpt lat="42.74506" lon="1.74945">
        <ele>929</ele>
        <time>2016-09-10T15:52:06Z</time>
      </trkpt>
      <trkpt lat="42.74508" lon="1.74946">
        <ele>929</ele>
        <time>2016-09-10T15:52:07Z</time>
      </trkpt>
      <trkpt lat="42.74511" lon="1.74948">
        <ele>928</ele>
        <time>2016-09-10T15:52:09Z</time>
      </trkpt>
      <trkpt lat="42.74516" lon="1.74951">
        <ele>927</ele>
        <time>2016-09-10T15:52:14Z</time>
      </trkpt>
      <trkpt lat="42.74517" lon="1.74952">
        <ele>927</ele>
        <time>2016-09-10T15:52:15Z</time>
      </trkpt>
      <trkpt lat="42.74518" lon="1.74952">
        <ele>927</ele>
        <time>2016-09-10T15:52:16Z</time>
      </trkpt>
      <trkpt lat="42.74519" lon="1.74953">
        <ele>927</ele>
        <time>2016-09-10T15:52:17Z</time>
      </trkpt>
      <trkpt lat="42.74521" lon="1.74954">
        <ele>926</ele>
        <time>2016-09-10T15:52:18Z</time>
      </trkpt>
      <trkpt lat="42.74522" lon="1.74954">
        <ele>926</ele>
        <time>2016-09-10T15:52:19Z</time>
      </trkpt>
      <trkpt lat="42.74529" lon="1.74955">
        <ele>925</ele>
        <time>2016-09-10T15:52:24Z</time>
      </trkpt>
      <trkpt lat="42.74529" lon="1.74954">
        <ele>925</ele>
        <time>2016-09-10T15:52:25Z</time>
      </trkpt>
      <trkpt lat="42.7453" lon="1.74954">
        <ele>925</ele>
        <time>2016-09-10T15:52:26Z</time>
      </trkpt>
      <trkpt lat="42.74531" lon="1.74954">
        <ele>925</ele>
        <time>2016-09-10T15:52:27Z</time>
      </trkpt>
      <trkpt lat="42.74533" lon="1.74953">
        <ele>925</ele>
        <time>2016-09-10T15:52:28Z</time>
      </trkpt>
      <trkpt lat="42.74535" lon="1.74952">
        <ele>924</ele>
        <time>2016-09-10T15:52:30Z</time>
      </trkpt>
      <trkpt lat="42.7454" lon="1.74951">
        <ele>924</ele>
        <time>2016-09-10T15:52:34Z</time>
      </trkpt>
      <trkpt lat="42.74541" lon="1.74951">
        <ele>924</ele>
        <time>2016-09-10T15:52:35Z</time>
      </trkpt>
      <trkpt lat="42.74542" lon="1.74952">
        <ele>924</ele>
        <time>2016-09-10T15:52:36Z</time>
      </trkpt>
      <trkpt lat="42.74543" lon="1.74952">
        <ele>923</ele>
        <time>2016-09-10T15:52:37Z</time>
      </trkpt>
      <trkpt lat="42.74544" lon="1.74952">
        <ele>923</ele>
        <time>2016-09-10T15:52:38Z</time>
      </trkpt>
      <trkpt lat="42.74556" lon="1.74949">
        <ele>923</ele>
        <time>2016-09-10T15:52:44Z</time>
      </trkpt>
      <trkpt lat="42.74558" lon="1.74948">
        <ele>924</ele>
        <time>2016-09-10T15:52:45Z</time>
      </trkpt>
      <trkpt lat="42.74559" lon="1.74948">
        <ele>924</ele>
        <time>2016-09-10T15:52:46Z</time>
      </trkpt>
      <trkpt lat="42.74561" lon="1.74948">
        <ele>923</ele>
        <time>2016-09-10T15:52:47Z</time>
      </trkpt>
      <trkpt lat="42.74562" lon="1.74948">
        <ele>924</ele>
        <time>2016-09-10T15:52:48Z</time>
      </trkpt>
      <trkpt lat="42.74564" lon="1.74948">
        <ele>924</ele>
        <time>2016-09-10T15:52:49Z</time>
      </trkpt>
      <trkpt lat="42.74569" lon="1.74951">
        <ele>923</ele>
        <time>2016-09-10T15:52:54Z</time>
      </trkpt>
      <trkpt lat="42.74572" lon="1.74954">
        <ele>922</ele>
        <time>2016-09-10T15:52:57Z</time>
      </trkpt>
      <trkpt lat="42.74576" lon="1.74959">
        <ele>921</ele>
        <time>2016-09-10T15:53:01Z</time>
      </trkpt>
      <trkpt lat="42.74588" lon="1.7497">
        <ele>918</ele>
        <time>2016-09-10T15:53:11Z</time>
      </trkpt>
      <trkpt lat="42.74594" lon="1.74972">
        <ele>917</ele>
        <time>2016-09-10T15:53:15Z</time>
      </trkpt>
      <trkpt lat="42.74596" lon="1.74973">
        <ele>917</ele>
        <time>2016-09-10T15:53:16Z</time>
      </trkpt>
      <trkpt lat="42.74597" lon="1.74973">
        <ele>917</ele>
        <time>2016-09-10T15:53:17Z</time>
      </trkpt>
      <trkpt lat="42.74599" lon="1.74974">
        <ele>917</ele>
        <time>2016-09-10T15:53:18Z</time>
      </trkpt>
      <trkpt lat="42.746" lon="1.74975">
        <ele>916</ele>
        <time>2016-09-10T15:53:19Z</time>
      </trkpt>
      <trkpt lat="42.74601" lon="1.74975">
        <ele>916</ele>
        <time>2016-09-10T15:53:20Z</time>
      </trkpt>
      <trkpt lat="42.74613" lon="1.74981">
        <ele>915</ele>
        <time>2016-09-10T15:53:27Z</time>
      </trkpt>
      <trkpt lat="42.74626" lon="1.74987">
        <ele>913</ele>
        <time>2016-09-10T15:53:35Z</time>
      </trkpt>
      <trkpt lat="42.74627" lon="1.74988">
        <ele>913</ele>
        <time>2016-09-10T15:53:37Z</time>
      </trkpt>
      <trkpt lat="42.74628" lon="1.74988">
        <ele>913</ele>
        <time>2016-09-10T15:53:38Z</time>
      </trkpt>
      <trkpt lat="42.74629" lon="1.74988">
        <ele>913</ele>
        <time>2016-09-10T15:53:39Z</time>
      </trkpt>
      <trkpt lat="42.74629" lon="1.74988">
        <ele>913</ele>
        <time>2016-09-10T15:53:40Z</time>
      </trkpt>
      <trkpt lat="42.7463" lon="1.74988">
        <ele>913</ele>
        <time>2016-09-10T15:53:41Z</time>
      </trkpt>
      <trkpt lat="42.7463" lon="1.74987">
        <ele>913</ele>
        <time>2016-09-10T15:53:43Z</time>
      </trkpt>
      <trkpt lat="42.74638" lon="1.74989">
        <ele>912</ele>
        <time>2016-09-10T15:53:48Z</time>
      </trkpt>
      <trkpt lat="42.74639" lon="1.7499">
        <ele>912</ele>
        <time>2016-09-10T15:53:49Z</time>
      </trkpt>
      <trkpt lat="42.7464" lon="1.7499">
        <ele>912</ele>
        <time>2016-09-10T15:53:50Z</time>
      </trkpt>
      <trkpt lat="42.74641" lon="1.74991">
        <ele>912</ele>
        <time>2016-09-10T15:53:51Z</time>
      </trkpt>
      <trkpt lat="42.74643" lon="1.74992">
        <ele>912</ele>
        <time>2016-09-10T15:53:52Z</time>
      </trkpt>
      <trkpt lat="42.74651" lon="1.74994">
        <ele>911</ele>
        <time>2016-09-10T15:53:58Z</time>
      </trkpt>
      <trkpt lat="42.74652" lon="1.74994">
        <ele>911</ele>
        <time>2016-09-10T15:53:59Z</time>
      </trkpt>
      <trkpt lat="42.74654" lon="1.74994">
        <ele>911</ele>
        <time>2016-09-10T15:54:00Z</time>
      </trkpt>
      <trkpt lat="42.74655" lon="1.74993">
        <ele>911</ele>
        <time>2016-09-10T15:54:01Z</time>
      </trkpt>
      <trkpt lat="42.74656" lon="1.74993">
        <ele>911</ele>
        <time>2016-09-10T15:54:02Z</time>
      </trkpt>
      <trkpt lat="42.74658" lon="1.74993">
        <ele>911</ele>
        <time>2016-09-10T15:54:03Z</time>
      </trkpt>
      <trkpt lat="42.7466" lon="1.74994">
        <ele>911</ele>
        <time>2016-09-10T15:54:05Z</time>
      </trkpt>
      <trkpt lat="42.74668" lon="1.74999">
        <ele>909</ele>
        <time>2016-09-10T15:54:12Z</time>
      </trkpt>
      <trkpt lat="42.74669" lon="1.75">
        <ele>909</ele>
        <time>2016-09-10T15:54:13Z</time>
      </trkpt>
      <trkpt lat="42.7467" lon="1.75001">
        <ele>909</ele>
        <time>2016-09-10T15:54:14Z</time>
      </trkpt>
      <trkpt lat="42.7467" lon="1.75001">
        <ele>909</ele>
        <time>2016-09-10T15:54:15Z</time>
      </trkpt>
      <trkpt lat="42.74671" lon="1.75002">
        <ele>909</ele>
        <time>2016-09-10T15:54:16Z</time>
      </trkpt>
      <trkpt lat="42.74676" lon="1.75005">
        <ele>908</ele>
        <time>2016-09-10T15:54:22Z</time>
      </trkpt>
      <trkpt lat="42.74677" lon="1.75006">
        <ele>907</ele>
        <time>2016-09-10T15:54:23Z</time>
      </trkpt>
      <trkpt lat="42.74678" lon="1.75006">
        <ele>907</ele>
        <time>2016-09-10T15:54:24Z</time>
      </trkpt>
      <trkpt lat="42.74679" lon="1.75007">
        <ele>907</ele>
        <time>2016-09-10T15:54:25Z</time>
      </trkpt>
      <trkpt lat="42.74681" lon="1.75007">
        <ele>907</ele>
        <time>2016-09-10T15:54:26Z</time>
      </trkpt>
      <trkpt lat="42.74686" lon="1.75007">
        <ele>906</ele>
        <time>2016-09-10T15:54:29Z</time>
      </trkpt>
      <trkpt lat="42.7469" lon="1.75008">
        <ele>906</ele>
        <time>2016-09-10T15:54:32Z</time>
      </trkpt>
      <trkpt lat="42.74691" lon="1.75009">
        <ele>906</ele>
        <time>2016-09-10T15:54:33Z</time>
      </trkpt>
      <trkpt lat="42.74692" lon="1.75009">
        <ele>906</ele>
        <time>2016-09-10T15:54:34Z</time>
      </trkpt>
      <trkpt lat="42.74693" lon="1.75009">
        <ele>906</ele>
        <time>2016-09-10T15:54:35Z</time>
      </trkpt>
      <trkpt lat="42.74693" lon="1.75008">
        <ele>906</ele>
        <time>2016-09-10T15:54:36Z</time>
      </trkpt>
      <trkpt lat="42.74695" lon="1.75008">
        <ele>905</ele>
        <time>2016-09-10T15:54:37Z</time>
      </trkpt>
      <trkpt lat="42.74702" lon="1.75006">
        <ele>905</ele>
        <time>2016-09-10T15:54:42Z</time>
      </trkpt>
      <trkpt lat="42.74703" lon="1.75006">
        <ele>905</ele>
        <time>2016-09-10T15:54:43Z</time>
      </trkpt>
      <trkpt lat="42.74703" lon="1.75005">
        <ele>905</ele>
        <time>2016-09-10T15:54:44Z</time>
      </trkpt>
      <trkpt lat="42.74704" lon="1.75005">
        <ele>905</ele>
        <time>2016-09-10T15:54:45Z</time>
      </trkpt>
      <trkpt lat="42.74711" lon="1.75001">
        <ele>906</ele>
        <time>2016-09-10T15:54:51Z</time>
      </trkpt>
      <trkpt lat="42.74712" lon="1.75001">
        <ele>906</ele>
        <time>2016-09-10T15:54:52Z</time>
      </trkpt>
      <trkpt lat="42.74713" lon="1.75001">
        <ele>906</ele>
        <time>2016-09-10T15:54:53Z</time>
      </trkpt>
      <trkpt lat="42.74714" lon="1.75002">
        <ele>905</ele>
        <time>2016-09-10T15:54:54Z</time>
      </trkpt>
      <trkpt lat="42.74716" lon="1.75002">
        <ele>905</ele>
        <time>2016-09-10T15:54:55Z</time>
      </trkpt>
      <trkpt lat="42.74721" lon="1.75003">
        <ele>905</ele>
        <time>2016-09-10T15:54:59Z</time>
      </trkpt>
      <trkpt lat="42.74722" lon="1.75004">
        <ele>904</ele>
        <time>2016-09-10T15:55:00Z</time>
      </trkpt>
      <trkpt lat="42.74724" lon="1.75004">
        <ele>904</ele>
        <time>2016-09-10T15:55:01Z</time>
      </trkpt>
      <trkpt lat="42.74726" lon="1.75005">
        <ele>904</ele>
        <time>2016-09-10T15:55:02Z</time>
      </trkpt>
      <trkpt lat="42.74727" lon="1.75006">
        <ele>903</ele>
        <time>2016-09-10T15:55:03Z</time>
      </trkpt>
      <trkpt lat="42.74729" lon="1.75006">
        <ele>903</ele>
        <time>2016-09-10T15:55:04Z</time>
      </trkpt>
      <trkpt lat="42.74735" lon="1.75008">
        <ele>902</ele>
        <time>2016-09-10T15:55:09Z</time>
      </trkpt>
      <trkpt lat="42.74736" lon="1.75008">
        <ele>902</ele>
        <time>2016-09-10T15:55:10Z</time>
      </trkpt>
      <trkpt lat="42.74738" lon="1.75008">
        <ele>901</ele>
        <time>2016-09-10T15:55:11Z</time>
      </trkpt>
      <trkpt lat="42.74739" lon="1.75009">
        <ele>901</ele>
        <time>2016-09-10T15:55:12Z</time>
      </trkpt>
      <trkpt lat="42.7474" lon="1.75009">
        <ele>901</ele>
        <time>2016-09-10T15:55:13Z</time>
      </trkpt>
      <trkpt lat="42.74745" lon="1.75011">
        <ele>900</ele>
        <time>2016-09-10T15:55:17Z</time>
      </trkpt>
      <trkpt lat="42.74749" lon="1.75014">
        <ele>898</ele>
        <time>2016-09-10T15:55:20Z</time>
      </trkpt>
      <trkpt lat="42.7475" lon="1.75014">
        <ele>898</ele>
        <time>2016-09-10T15:55:21Z</time>
      </trkpt>
      <trkpt lat="42.7475" lon="1.75014">
        <ele>898</ele>
        <time>2016-09-10T15:55:22Z</time>
      </trkpt>
      <trkpt lat="42.74751" lon="1.75014">
        <ele>898</ele>
        <time>2016-09-10T15:55:23Z</time>
      </trkpt>
      <trkpt lat="42.74751" lon="1.75015">
        <ele>898</ele>
        <time>2016-09-10T15:55:24Z</time>
      </trkpt>
      <trkpt lat="42.74756" lon="1.75019">
        <ele>896</ele>
        <time>2016-09-10T15:55:29Z</time>
      </trkpt>
      <trkpt lat="42.74758" lon="1.75019">
        <ele>896</ele>
        <time>2016-09-10T15:55:30Z</time>
      </trkpt>
      <trkpt lat="42.7476" lon="1.75019">
        <ele>896</ele>
        <time>2016-09-10T15:55:31Z</time>
      </trkpt>
      <trkpt lat="42.74761" lon="1.7502">
        <ele>895</ele>
        <time>2016-09-10T15:55:32Z</time>
      </trkpt>
      <trkpt lat="42.74762" lon="1.75019">
        <ele>895</ele>
        <time>2016-09-10T15:55:33Z</time>
      </trkpt>
      <trkpt lat="42.74767" lon="1.75019">
        <ele>895</ele>
        <time>2016-09-10T15:55:36Z</time>
      </trkpt>
      <trkpt lat="42.74777" lon="1.75023">
        <ele>892</ele>
        <time>2016-09-10T15:55:42Z</time>
      </trkpt>
      <trkpt lat="42.74778" lon="1.75024">
        <ele>892</ele>
        <time>2016-09-10T15:55:43Z</time>
      </trkpt>
      <trkpt lat="42.74779" lon="1.75024">
        <ele>892</ele>
        <time>2016-09-10T15:55:44Z</time>
      </trkpt>
      <trkpt lat="42.74779" lon="1.75024">
        <ele>892</ele>
        <time>2016-09-10T15:55:45Z</time>
      </trkpt>
      <trkpt lat="42.7478" lon="1.75024">
        <ele>892</ele>
        <time>2016-09-10T15:55:46Z</time>
      </trkpt>
      <trkpt lat="42.74781" lon="1.75023">
        <ele>892</ele>
        <time>2016-09-10T15:55:47Z</time>
      </trkpt>
      <trkpt lat="42.74781" lon="1.75022">
        <ele>892</ele>
        <time>2016-09-10T15:55:48Z</time>
      </trkpt>
      <trkpt lat="42.74789" lon="1.75025">
        <ele>890</ele>
        <time>2016-09-10T15:55:55Z</time>
      </trkpt>
      <trkpt lat="42.7479" lon="1.75025">
        <ele>890</ele>
        <time>2016-09-10T15:55:56Z</time>
      </trkpt>
      <trkpt lat="42.74792" lon="1.75026">
        <ele>890</ele>
        <time>2016-09-10T15:55:57Z</time>
      </trkpt>
      <trkpt lat="42.74792" lon="1.75026">
        <ele>889</ele>
        <time>2016-09-10T15:55:58Z</time>
      </trkpt>
      <trkpt lat="42.74796" lon="1.7503">
        <ele>888</ele>
        <time>2016-09-10T15:56:02Z</time>
      </trkpt>
      <trkpt lat="42.74791" lon="1.75033">
        <ele>888</ele>
        <time>2016-09-10T15:56:07Z</time>
      </trkpt>
      <trkpt lat="42.74786" lon="1.75031">
        <ele>889</ele>
        <time>2016-09-10T15:56:14Z</time>
      </trkpt>
      <trkpt lat="42.74796" lon="1.75032">
        <ele>887</ele>
        <time>2016-09-10T15:56:21Z</time>
      </trkpt>
      <trkpt lat="42.74799" lon="1.75034">
        <ele>886</ele>
        <time>2016-09-10T15:56:23Z</time>
      </trkpt>
      <trkpt lat="42.748" lon="1.75035">
        <ele>886</ele>
        <time>2016-09-10T15:56:24Z</time>
      </trkpt>
      <trkpt lat="42.74802" lon="1.75035">
        <ele>886</ele>
        <time>2016-09-10T15:56:25Z</time>
      </trkpt>
      <trkpt lat="42.74803" lon="1.75035">
        <ele>886</ele>
        <time>2016-09-10T15:56:26Z</time>
      </trkpt>
      <trkpt lat="42.74804" lon="1.75035">
        <ele>885</ele>
        <time>2016-09-10T15:56:27Z</time>
      </trkpt>
      <trkpt lat="42.74808" lon="1.75034">
        <ele>885</ele>
        <time>2016-09-10T15:56:30Z</time>
      </trkpt>
      <trkpt lat="42.74819" lon="1.75033">
        <ele>884</ele>
        <time>2016-09-10T15:56:37Z</time>
      </trkpt>
      <trkpt lat="42.74822" lon="1.75032">
        <ele>884</ele>
        <time>2016-09-10T15:56:39Z</time>
      </trkpt>
      <trkpt lat="42.74824" lon="1.75032">
        <ele>884</ele>
        <time>2016-09-10T15:56:40Z</time>
      </trkpt>
      <trkpt lat="42.74825" lon="1.75031">
        <ele>884</ele>
        <time>2016-09-10T15:56:41Z</time>
      </trkpt>
      <trkpt lat="42.74827" lon="1.75031">
        <ele>884</ele>
        <time>2016-09-10T15:56:42Z</time>
      </trkpt>
      <trkpt lat="42.74828" lon="1.75031">
        <ele>884</ele>
        <time>2016-09-10T15:56:43Z</time>
      </trkpt>
      <trkpt lat="42.7483" lon="1.75031">
        <ele>884</ele>
        <time>2016-09-10T15:56:44Z</time>
      </trkpt>
      <trkpt lat="42.74834" lon="1.75033">
        <ele>883</ele>
        <time>2016-09-10T15:56:47Z</time>
      </trkpt>
      <trkpt lat="42.74836" lon="1.75032">
        <ele>883</ele>
        <time>2016-09-10T15:56:49Z</time>
      </trkpt>
      <trkpt lat="42.74838" lon="1.75032">
        <ele>883</ele>
        <time>2016-09-10T15:56:50Z</time>
      </trkpt>
      <trkpt lat="42.74844" lon="1.75034">
        <ele>882</ele>
        <time>2016-09-10T15:56:54Z</time>
      </trkpt>
      <trkpt lat="42.7485" lon="1.75034">
        <ele>882</ele>
        <time>2016-09-10T15:56:58Z</time>
      </trkpt>
      <trkpt lat="42.74852" lon="1.75035">
        <ele>882</ele>
        <time>2016-09-10T15:56:59Z</time>
      </trkpt>
      <trkpt lat="42.74853" lon="1.75035">
        <ele>881</ele>
        <time>2016-09-10T15:57:00Z</time>
      </trkpt>
      <trkpt lat="42.74855" lon="1.75035">
        <ele>881</ele>
        <time>2016-09-10T15:57:01Z</time>
      </trkpt>
      <trkpt lat="42.74856" lon="1.75035">
        <ele>881</ele>
        <time>2016-09-10T15:57:02Z</time>
      </trkpt>
      <trkpt lat="42.7486" lon="1.75038">
        <ele>880</ele>
        <time>2016-09-10T15:57:05Z</time>
      </trkpt>
      <trkpt lat="42.74864" lon="1.7504">
        <ele>879</ele>
        <time>2016-09-10T15:57:07Z</time>
      </trkpt>
      <trkpt lat="42.74869" lon="1.75043">
        <ele>879</ele>
        <time>2016-09-10T15:57:11Z</time>
      </trkpt>
      <trkpt lat="42.7487" lon="1.75044">
        <ele>878</ele>
        <time>2016-09-10T15:57:12Z</time>
      </trkpt>
      <trkpt lat="42.74872" lon="1.75045">
        <ele>878</ele>
        <time>2016-09-10T15:57:13Z</time>
      </trkpt>
      <trkpt lat="42.74873" lon="1.75046">
        <ele>878</ele>
        <time>2016-09-10T15:57:14Z</time>
      </trkpt>
      <trkpt lat="42.7488" lon="1.75055">
        <ele>878</ele>
        <time>2016-09-10T15:57:21Z</time>
      </trkpt>
      <trkpt lat="42.74881" lon="1.75056">
        <ele>878</ele>
        <time>2016-09-10T15:57:22Z</time>
      </trkpt>
      <trkpt lat="42.74886" lon="1.75062">
        <ele>877</ele>
        <time>2016-09-10T15:57:26Z</time>
      </trkpt>
      <trkpt lat="42.74893" lon="1.75067">
        <ele>876</ele>
        <time>2016-09-10T15:57:32Z</time>
      </trkpt>
      <trkpt lat="42.74894" lon="1.75067">
        <ele>876</ele>
        <time>2016-09-10T15:57:33Z</time>
      </trkpt>
      <trkpt lat="42.74896" lon="1.75067">
        <ele>876</ele>
        <time>2016-09-10T15:57:34Z</time>
      </trkpt>
      <trkpt lat="42.74897" lon="1.75067">
        <ele>876</ele>
        <time>2016-09-10T15:57:35Z</time>
      </trkpt>
      <trkpt lat="42.74898" lon="1.75067">
        <ele>876</ele>
        <time>2016-09-10T15:57:36Z</time>
      </trkpt>
      <trkpt lat="42.749" lon="1.75069">
        <ele>876</ele>
        <time>2016-09-10T15:57:38Z</time>
      </trkpt>
      <trkpt lat="42.74897" lon="1.75076">
        <ele>875</ele>
        <time>2016-09-10T15:57:44Z</time>
      </trkpt>
      <trkpt lat="42.74897" lon="1.75076">
        <ele>875</ele>
        <time>2016-09-10T15:57:53Z</time>
      </trkpt>
      <trkpt lat="42.74898" lon="1.75078">
        <ele>875</ele>
        <time>2016-09-10T15:58:01Z</time>
      </trkpt>
      <trkpt lat="42.74899" lon="1.75079">
        <ele>875</ele>
        <time>2016-09-10T15:58:02Z</time>
      </trkpt>
      <trkpt lat="42.749" lon="1.75079">
        <ele>875</ele>
        <time>2016-09-10T15:58:03Z</time>
      </trkpt>
      <trkpt lat="42.74901" lon="1.75079">
        <ele>874</ele>
        <time>2016-09-10T15:58:04Z</time>
      </trkpt>
      <trkpt lat="42.7491" lon="1.75082">
        <ele>874</ele>
        <time>2016-09-10T15:58:11Z</time>
      </trkpt>
      <trkpt lat="42.74921" lon="1.75087">
        <ele>872</ele>
        <time>2016-09-10T15:58:19Z</time>
      </trkpt>
      <trkpt lat="42.74925" lon="1.75089">
        <ele>872</ele>
        <time>2016-09-10T15:58:21Z</time>
      </trkpt>
      <trkpt lat="42.74927" lon="1.7509">
        <ele>872</ele>
        <time>2016-09-10T15:58:22Z</time>
      </trkpt>
      <trkpt lat="42.74929" lon="1.75092">
        <ele>871</ele>
        <time>2016-09-10T15:58:23Z</time>
      </trkpt>
      <trkpt lat="42.7493" lon="1.75093">
        <ele>871</ele>
        <time>2016-09-10T15:58:24Z</time>
      </trkpt>
      <trkpt lat="42.74931" lon="1.75096">
        <ele>870</ele>
        <time>2016-09-10T15:58:25Z</time>
      </trkpt>
      <trkpt lat="42.74932" lon="1.75099">
        <ele>869</ele>
        <time>2016-09-10T15:58:27Z</time>
      </trkpt>
      <trkpt lat="42.74935" lon="1.75107">
        <ele>868</ele>
        <time>2016-09-10T15:58:34Z</time>
      </trkpt>
      <trkpt lat="42.74939" lon="1.75118">
        <ele>869</ele>
        <time>2016-09-10T15:58:40Z</time>
      </trkpt>
      <trkpt lat="42.7494" lon="1.75119">
        <ele>869</ele>
        <time>2016-09-10T15:58:41Z</time>
      </trkpt>
      <trkpt lat="42.74941" lon="1.75121">
        <ele>868</ele>
        <time>2016-09-10T15:58:42Z</time>
      </trkpt>
      <trkpt lat="42.74942" lon="1.75122">
        <ele>868</ele>
        <time>2016-09-10T15:58:43Z</time>
      </trkpt>
      <trkpt lat="42.74943" lon="1.75123">
        <ele>868</ele>
        <time>2016-09-10T15:58:44Z</time>
      </trkpt>
      <trkpt lat="42.7495" lon="1.75128">
        <ele>867</ele>
        <time>2016-09-10T15:58:50Z</time>
      </trkpt>
      <trkpt lat="42.74951" lon="1.7513">
        <ele>867</ele>
        <time>2016-09-10T15:58:51Z</time>
      </trkpt>
      <trkpt lat="42.74952" lon="1.75131">
        <ele>867</ele>
        <time>2016-09-10T15:58:52Z</time>
      </trkpt>
      <trkpt lat="42.74953" lon="1.75131">
        <ele>867</ele>
        <time>2016-09-10T15:58:53Z</time>
      </trkpt>
      <trkpt lat="42.74955" lon="1.75132">
        <ele>867</ele>
        <time>2016-09-10T15:58:54Z</time>
      </trkpt>
      <trkpt lat="42.74958" lon="1.75135">
        <ele>866</ele>
        <time>2016-09-10T15:58:57Z</time>
      </trkpt>
      <trkpt lat="42.74965" lon="1.75138">
        <ele>865</ele>
        <time>2016-09-10T15:59:04Z</time>
      </trkpt>
      <trkpt lat="42.74965" lon="1.75138">
        <ele>865</ele>
        <time>2016-09-10T15:59:05Z</time>
      </trkpt>
      <trkpt lat="42.74965" lon="1.75138">
        <ele>865</ele>
        <time>2016-09-10T15:59:06Z</time>
      </trkpt>
      <trkpt lat="42.74965" lon="1.75138">
        <ele>865</ele>
        <time>2016-09-10T15:59:07Z</time>
      </trkpt>
      <trkpt lat="42.74966" lon="1.75139">
        <ele>865</ele>
        <time>2016-09-10T15:59:08Z</time>
      </trkpt>
      <trkpt lat="42.74967" lon="1.7514">
        <ele>865</ele>
        <time>2016-09-10T15:59:10Z</time>
      </trkpt>
      <trkpt lat="42.74968" lon="1.75139">
        <ele>865</ele>
        <time>2016-09-10T15:59:17Z</time>
      </trkpt>
      <trkpt lat="42.7497" lon="1.75149">
        <ele>863</ele>
        <time>2016-09-10T15:59:24Z</time>
      </trkpt>
      <trkpt lat="42.74973" lon="1.75158">
        <ele>862</ele>
        <time>2016-09-10T15:59:31Z</time>
      </trkpt>
      <trkpt lat="42.74977" lon="1.75167">
        <ele>862</ele>
        <time>2016-09-10T15:59:39Z</time>
      </trkpt>
      <trkpt lat="42.7498" lon="1.7517">
        <ele>863</ele>
        <time>2016-09-10T15:59:46Z</time>
      </trkpt>
      <trkpt lat="42.74982" lon="1.75173">
        <ele>863</ele>
        <time>2016-09-10T15:59:52Z</time>
      </trkpt>
      <trkpt lat="42.74983" lon="1.75176">
        <ele>865</ele>
        <time>2016-09-10T15:59:56Z</time>
      </trkpt>
      <trkpt lat="42.74984" lon="1.75177">
        <ele>865</ele>
        <time>2016-09-10T15:59:57Z</time>
      </trkpt>
      <trkpt lat="42.74984" lon="1.75177">
        <ele>865</ele>
        <time>2016-09-10T15:59:58Z</time>
      </trkpt>
      <trkpt lat="42.74984" lon="1.75178">
        <ele>865</ele>
        <time>2016-09-10T15:59:59Z</time>
      </trkpt>
      <trkpt lat="42.74985" lon="1.7518">
        <ele>866</ele>
        <time>2016-09-10T16:00:00Z</time>
      </trkpt>
      <trkpt lat="42.74985" lon="1.75183">
        <ele>867</ele>
        <time>2016-09-10T16:00:04Z</time>
      </trkpt>
      <trkpt lat="42.74986" lon="1.75183">
        <ele>867</ele>
        <time>2016-09-10T16:00:05Z</time>
      </trkpt>
      <trkpt lat="42.74987" lon="1.75184">
        <ele>867</ele>
        <time>2016-09-10T16:00:06Z</time>
      </trkpt>
      <trkpt lat="42.74987" lon="1.75184">
        <ele>867</ele>
        <time>2016-09-10T16:00:07Z</time>
      </trkpt>
      <trkpt lat="42.74987" lon="1.75184">
        <ele>867</ele>
        <time>2016-09-10T16:00:08Z</time>
      </trkpt>
      <trkpt lat="42.74987" lon="1.75184">
        <ele>867</ele>
        <time>2016-09-10T16:00:09Z</time>
      </trkpt>
      <trkpt lat="42.74987" lon="1.75184">
        <ele>867</ele>
        <time>2016-09-10T16:00:13Z</time>
      </trkpt>
      <trkpt lat="42.74986" lon="1.75181">
        <ele>866</ele>
        <time>2016-09-10T16:00:22Z</time>
      </trkpt>
      <trkpt lat="42.7499" lon="1.75184">
        <ele>866</ele>
        <time>2016-09-10T16:00:28Z</time>
      </trkpt>
      <trkpt lat="42.74997" lon="1.75191">
        <ele>868</ele>
        <time>2016-09-10T16:00:38Z</time>
      </trkpt>
      <trkpt lat="42.75002" lon="1.75196">
        <ele>869</ele>
        <time>2016-09-10T16:00:47Z</time>
      </trkpt>
      <trkpt lat="42.75005" lon="1.75197">
        <ele>870</ele>
        <time>2016-09-10T16:00:57Z</time>
      </trkpt>
      <trkpt lat="42.75008" lon="1.75199">
        <ele>870</ele>
        <time>2016-09-10T16:01:05Z</time>
      </trkpt>
      <trkpt lat="42.75016" lon="1.75203">
        <ele>870</ele>
        <time>2016-09-10T16:01:14Z</time>
      </trkpt>
      <trkpt lat="42.75017" lon="1.75204">
        <ele>871</ele>
        <time>2016-09-10T16:01:18Z</time>
      </trkpt>
      <trkpt lat="42.75018" lon="1.75204">
        <ele>871</ele>
        <time>2016-09-10T16:01:19Z</time>
      </trkpt>
      <trkpt lat="42.7502" lon="1.75205">
        <ele>871</ele>
        <time>2016-09-10T16:01:20Z</time>
      </trkpt>
      <trkpt lat="42.75021" lon="1.75206">
        <ele>871</ele>
        <time>2016-09-10T16:01:21Z</time>
      </trkpt>
      <trkpt lat="42.75022" lon="1.75206">
        <ele>871</ele>
        <time>2016-09-10T16:01:22Z</time>
      </trkpt>
      <trkpt lat="42.75024" lon="1.75207">
        <ele>871</ele>
        <time>2016-09-10T16:01:32Z</time>
      </trkpt>
      <trkpt lat="42.75025" lon="1.75208">
        <ele>871</ele>
        <time>2016-09-10T16:01:33Z</time>
      </trkpt>
      <trkpt lat="42.75027" lon="1.75209">
        <ele>871</ele>
        <time>2016-09-10T16:01:34Z</time>
      </trkpt>
      <trkpt lat="42.75028" lon="1.7521">
        <ele>871</ele>
        <time>2016-09-10T16:01:35Z</time>
      </trkpt>
      <trkpt lat="42.75029" lon="1.75211">
        <ele>872</ele>
        <time>2016-09-10T16:01:36Z</time>
      </trkpt>
      <trkpt lat="42.75033" lon="1.75214">
        <ele>873</ele>
        <time>2016-09-10T16:01:40Z</time>
      </trkpt>
      <trkpt lat="42.75032" lon="1.75217">
        <ele>874</ele>
        <time>2016-09-10T16:01:47Z</time>
      </trkpt>
      <trkpt lat="42.75035" lon="1.75216">
        <ele>873</ele>
        <time>2016-09-10T16:01:55Z</time>
      </trkpt>
      <trkpt lat="42.75041" lon="1.7522">
        <ele>873</ele>
        <time>2016-09-10T16:02:03Z</time>
      </trkpt>
      <trkpt lat="42.75042" lon="1.7522">
        <ele>873</ele>
        <time>2016-09-10T16:02:04Z</time>
      </trkpt>
      <trkpt lat="42.75043" lon="1.75221">
        <ele>874</ele>
        <time>2016-09-10T16:02:05Z</time>
      </trkpt>
      <trkpt lat="42.75044" lon="1.75222">
        <ele>873</ele>
        <time>2016-09-10T16:02:06Z</time>
      </trkpt>
      <trkpt lat="42.75044" lon="1.75222">
        <ele>873</ele>
        <time>2016-09-10T16:02:07Z</time>
      </trkpt>
      <trkpt lat="42.75044" lon="1.75222">
        <ele>873</ele>
        <time>2016-09-10T16:02:11Z</time>
      </trkpt>
      <trkpt lat="42.75058" lon="1.75226">
        <ele>871</ele>
        <time>2016-09-10T16:02:20Z</time>
      </trkpt>
      <trkpt lat="42.75073" lon="1.75233">
        <ele>871</ele>
        <time>2016-09-10T16:02:29Z</time>
      </trkpt>
      <trkpt lat="42.75088" lon="1.75236">
        <ele>868</ele>
        <time>2016-09-10T16:02:36Z</time>
      </trkpt>
      <trkpt lat="42.75105" lon="1.75244">
        <ele>868</ele>
        <time>2016-09-10T16:02:40Z</time>
      </trkpt>
      <trkpt lat="42.75112" lon="1.75246">
        <ele>867</ele>
        <time>2016-09-10T16:02:43Z</time>
      </trkpt>
      <trkpt lat="42.75122" lon="1.75243">
        <ele>862</ele>
        <time>2016-09-10T16:02:46Z</time>
      </trkpt>
      <trkpt lat="42.75122" lon="1.75244">
        <ele>863</ele>
        <time>2016-09-10T16:02:47Z</time>
      </trkpt>
      <trkpt lat="42.75124" lon="1.75244">
        <ele>862</ele>
        <time>2016-09-10T16:02:48Z</time>
      </trkpt>
      <trkpt lat="42.75124" lon="1.75245">
        <ele>863</ele>
        <time>2016-09-10T16:02:49Z</time>
      </trkpt>
      <trkpt lat="42.75127" lon="1.75244">
        <ele>862</ele>
        <time>2016-09-10T16:02:50Z</time>
      </trkpt>
      <trkpt lat="42.75129" lon="1.75244">
        <ele>861</ele>
        <time>2016-09-10T16:02:51Z</time>
      </trkpt>
      <trkpt lat="42.7515" lon="1.75256">
        <ele>858</ele>
        <time>2016-09-10T16:02:59Z</time>
      </trkpt>
      <trkpt lat="42.75152" lon="1.75257">
        <ele>858</ele>
        <time>2016-09-10T16:03:00Z</time>
      </trkpt>
      <trkpt lat="42.75154" lon="1.75257">
        <ele>857</ele>
        <time>2016-09-10T16:03:01Z</time>
      </trkpt>
      <trkpt lat="42.75155" lon="1.75258">
        <ele>857</ele>
        <time>2016-09-10T16:03:02Z</time>
      </trkpt>
      <trkpt lat="42.75157" lon="1.75259">
        <ele>856</ele>
        <time>2016-09-10T16:03:03Z</time>
      </trkpt>
      <trkpt lat="42.75158" lon="1.7526">
        <ele>856</ele>
        <time>2016-09-10T16:03:04Z</time>
      </trkpt>
      <trkpt lat="42.75159" lon="1.75263">
        <ele>857</ele>
        <time>2016-09-10T16:03:06Z</time>
      </trkpt>
      <trkpt lat="42.75167" lon="1.75269">
        <ele>855</ele>
        <time>2016-09-10T16:03:14Z</time>
      </trkpt>
      <trkpt lat="42.75181" lon="1.75277">
        <ele>851</ele>
        <time>2016-09-10T16:03:23Z</time>
      </trkpt>
      <trkpt lat="42.75185" lon="1.75286">
        <ele>852</ele>
        <time>2016-09-10T16:03:30Z</time>
      </trkpt>
      <trkpt lat="42.75187" lon="1.75288">
        <ele>852</ele>
        <time>2016-09-10T16:03:31Z</time>
      </trkpt>
      <trkpt lat="42.75188" lon="1.75288">
        <ele>851</ele>
        <time>2016-09-10T16:03:32Z</time>
      </trkpt>
      <trkpt lat="42.75189" lon="1.75288">
        <ele>851</ele>
        <time>2016-09-10T16:03:33Z</time>
      </trkpt>
      <trkpt lat="42.75189" lon="1.75289">
        <ele>851</ele>
        <time>2016-09-10T16:03:34Z</time>
      </trkpt>
      <trkpt lat="42.75193" lon="1.75291">
        <ele>850</ele>
        <time>2016-09-10T16:03:39Z</time>
      </trkpt>
      <trkpt lat="42.75199" lon="1.75306">
        <ele>852</ele>
        <time>2016-09-10T16:03:47Z</time>
      </trkpt>
      <trkpt lat="42.75202" lon="1.75317">
        <ele>854</ele>
        <time>2016-09-10T16:03:54Z</time>
      </trkpt>
      <trkpt lat="42.75205" lon="1.7532">
        <ele>854</ele>
        <time>2016-09-10T16:04:01Z</time>
      </trkpt>
      <trkpt lat="42.75207" lon="1.7533">
        <ele>855</ele>
        <time>2016-09-10T16:04:08Z</time>
      </trkpt>
      <trkpt lat="42.75208" lon="1.75344">
        <ele>859</ele>
        <time>2016-09-10T16:04:15Z</time>
      </trkpt>
      <trkpt lat="42.75208" lon="1.75348">
        <ele>860</ele>
        <time>2016-09-10T16:04:18Z</time>
      </trkpt>
      <trkpt lat="42.75208" lon="1.75349">
        <ele>860</ele>
        <time>2016-09-10T16:04:19Z</time>
      </trkpt>
      <trkpt lat="42.75208" lon="1.75351">
        <ele>861</ele>
        <time>2016-09-10T16:04:20Z</time>
      </trkpt>
      <trkpt lat="42.75208" lon="1.75352">
        <ele>861</ele>
        <time>2016-09-10T16:04:21Z</time>
      </trkpt>
      <trkpt lat="42.75208" lon="1.75353">
        <ele>861</ele>
        <time>2016-09-10T16:04:22Z</time>
      </trkpt>
      <trkpt lat="42.75207" lon="1.75364">
        <ele>863</ele>
        <time>2016-09-10T16:04:29Z</time>
      </trkpt>
      <trkpt lat="42.75211" lon="1.75371">
        <ele>862</ele>
        <time>2016-09-10T16:04:34Z</time>
      </trkpt>
      <trkpt lat="42.75214" lon="1.75373">
        <ele>860</ele>
        <time>2016-09-10T16:04:36Z</time>
      </trkpt>
      <trkpt lat="42.75216" lon="1.75373">
        <ele>858</ele>
        <time>2016-09-10T16:04:41Z</time>
      </trkpt>
      <trkpt lat="42.75216" lon="1.75373">
        <ele>858</ele>
        <time>2016-09-10T16:04:50Z</time>
      </trkpt>
      <trkpt lat="42.7522" lon="1.75376">
        <ele>856</ele>
        <time>2016-09-10T16:04:58Z</time>
      </trkpt>
      <trkpt lat="42.7522" lon="1.7538">
        <ele>856</ele>
        <time>2016-09-10T16:05:04Z</time>
      </trkpt>
      <trkpt lat="42.75222" lon="1.75377">
        <ele>855</ele>
        <time>2016-09-10T16:05:17Z</time>
      </trkpt>
      <trkpt lat="42.75221" lon="1.7539">
        <ele>857</ele>
        <time>2016-09-10T16:05:24Z</time>
      </trkpt>
      <trkpt lat="42.75224" lon="1.75397">
        <ele>856</ele>
        <time>2016-09-10T16:05:33Z</time>
      </trkpt>
      <trkpt lat="42.75224" lon="1.75398">
        <ele>857</ele>
        <time>2016-09-10T16:05:34Z</time>
      </trkpt>
      <trkpt lat="42.75224" lon="1.75399">
        <ele>857</ele>
        <time>2016-09-10T16:05:35Z</time>
      </trkpt>
      <trkpt lat="42.75223" lon="1.75402">
        <ele>858</ele>
        <time>2016-09-10T16:05:36Z</time>
      </trkpt>
      <trkpt lat="42.75223" lon="1.75403">
        <ele>858</ele>
        <time>2016-09-10T16:05:37Z</time>
      </trkpt>
      <trkpt lat="42.75221" lon="1.7541">
        <ele>860</ele>
        <time>2016-09-10T16:05:40Z</time>
      </trkpt>
      <trkpt lat="42.75222" lon="1.75423">
        <ele>862</ele>
        <time>2016-09-10T16:05:48Z</time>
      </trkpt>
      <trkpt lat="42.75222" lon="1.75423">
        <ele>861</ele>
        <time>2016-09-10T16:05:49Z</time>
      </trkpt>
      <trkpt lat="42.75223" lon="1.75424">
        <ele>861</ele>
        <time>2016-09-10T16:05:50Z</time>
      </trkpt>
      <trkpt lat="42.75223" lon="1.75425">
        <ele>861</ele>
        <time>2016-09-10T16:05:51Z</time>
      </trkpt>
      <trkpt lat="42.75224" lon="1.75427">
        <ele>861</ele>
        <time>2016-09-10T16:05:52Z</time>
      </trkpt>
      <trkpt lat="42.75227" lon="1.75434">
        <ele>860</ele>
        <time>2016-09-10T16:05:56Z</time>
      </trkpt>
      <trkpt lat="42.75227" lon="1.75436">
        <ele>860</ele>
        <time>2016-09-10T16:05:57Z</time>
      </trkpt>
      <trkpt lat="42.75229" lon="1.75448">
        <ele>861</ele>
        <time>2016-09-10T16:06:04Z</time>
      </trkpt>
      <trkpt lat="42.7523" lon="1.75462">
        <ele>863</ele>
        <time>2016-09-10T16:06:12Z</time>
      </trkpt>
      <trkpt lat="42.7523" lon="1.75468">
        <ele>864</ele>
        <time>2016-09-10T16:06:16Z</time>
      </trkpt>
      <trkpt lat="42.7523" lon="1.75469">
        <ele>864</ele>
        <time>2016-09-10T16:06:17Z</time>
      </trkpt>
      <trkpt lat="42.75231" lon="1.7547">
        <ele>864</ele>
        <time>2016-09-10T16:06:18Z</time>
      </trkpt>
      <trkpt lat="42.75231" lon="1.75472">
        <ele>864</ele>
        <time>2016-09-10T16:06:19Z</time>
      </trkpt>
      <trkpt lat="42.75233" lon="1.75473">
        <ele>864</ele>
        <time>2016-09-10T16:06:20Z</time>
      </trkpt>
      <trkpt lat="42.75237" lon="1.75476">
        <ele>863</ele>
        <time>2016-09-10T16:06:23Z</time>
      </trkpt>
      <trkpt lat="42.75244" lon="1.7548">
        <ele>860</ele>
        <time>2016-09-10T16:06:29Z</time>
      </trkpt>
      <trkpt lat="42.75252" lon="1.75491">
        <ele>860</ele>
        <time>2016-09-10T16:06:39Z</time>
      </trkpt>
      <trkpt lat="42.75253" lon="1.75498">
        <ele>862</ele>
        <time>2016-09-10T16:06:47Z</time>
      </trkpt>
      <trkpt lat="42.7526" lon="1.75505">
        <ele>861</ele>
        <time>2016-09-10T16:06:54Z</time>
      </trkpt>
      <trkpt lat="42.7527" lon="1.75513">
        <ele>859</ele>
        <time>2016-09-10T16:07:01Z</time>
      </trkpt>
      <trkpt lat="42.75277" lon="1.75518">
        <ele>857</ele>
        <time>2016-09-10T16:07:09Z</time>
      </trkpt>
      <trkpt lat="42.75277" lon="1.75519">
        <ele>857</ele>
        <time>2016-09-10T16:07:10Z</time>
      </trkpt>
      <trkpt lat="42.75277" lon="1.75519">
        <ele>857</ele>
        <time>2016-09-10T16:07:11Z</time>
      </trkpt>
      <trkpt lat="42.75278" lon="1.7552">
        <ele>857</ele>
        <time>2016-09-10T16:07:12Z</time>
      </trkpt>
      <trkpt lat="42.75278" lon="1.7552">
        <ele>858</ele>
        <time>2016-09-10T16:07:13Z</time>
      </trkpt>
      <trkpt lat="42.7528" lon="1.75524">
        <ele>858</ele>
        <time>2016-09-10T16:07:19Z</time>
      </trkpt>
      <trkpt lat="42.75285" lon="1.75531">
        <ele>858</ele>
        <time>2016-09-10T16:07:28Z</time>
      </trkpt>
      <trkpt lat="42.7529" lon="1.75538">
        <ele>859</ele>
        <time>2016-09-10T16:07:37Z</time>
      </trkpt>
      <trkpt lat="42.75295" lon="1.75543">
        <ele>859</ele>
        <time>2016-09-10T16:07:46Z</time>
      </trkpt>
      <trkpt lat="42.75305" lon="1.7555">
        <ele>858</ele>
        <time>2016-09-10T16:07:55Z</time>
      </trkpt>
      <trkpt lat="42.75312" lon="1.75555">
        <ele>857</ele>
        <time>2016-09-10T16:08:00Z</time>
      </trkpt>
      <trkpt lat="42.75313" lon="1.75556">
        <ele>856</ele>
        <time>2016-09-10T16:08:01Z</time>
      </trkpt>
      <trkpt lat="42.75314" lon="1.75557">
        <ele>857</ele>
        <time>2016-09-10T16:08:02Z</time>
      </trkpt>
      <trkpt lat="42.75314" lon="1.75558">
        <ele>857</ele>
        <time>2016-09-10T16:08:03Z</time>
      </trkpt>
      <trkpt lat="42.75315" lon="1.75559">
        <ele>857</ele>
        <time>2016-09-10T16:08:04Z</time>
      </trkpt>
      <trkpt lat="42.75317" lon="1.75563">
        <ele>858</ele>
        <time>2016-09-10T16:08:09Z</time>
      </trkpt>
      <trkpt lat="42.75318" lon="1.75565">
        <ele>858</ele>
        <time>2016-09-10T16:08:16Z</time>
      </trkpt>
      <trkpt lat="42.75318" lon="1.75565">
        <ele>858</ele>
        <time>2016-09-10T16:08:17Z</time>
      </trkpt>
      <trkpt lat="42.75318" lon="1.75566">
        <ele>858</ele>
        <time>2016-09-10T16:08:18Z</time>
      </trkpt>
      <trkpt lat="42.75319" lon="1.75567">
        <ele>859</ele>
        <time>2016-09-10T16:08:19Z</time>
      </trkpt>
      <trkpt lat="42.75319" lon="1.75568">
        <ele>859</ele>
        <time>2016-09-10T16:08:20Z</time>
      </trkpt>
      <trkpt lat="42.75319" lon="1.75572">
        <ele>861</ele>
        <time>2016-09-10T16:08:23Z</time>
      </trkpt>
      <trkpt lat="42.75322" lon="1.7558">
        <ele>863</ele>
        <time>2016-09-10T16:08:29Z</time>
      </trkpt>
      <trkpt lat="42.7533" lon="1.75589">
        <ele>862</ele>
        <time>2016-09-10T16:08:37Z</time>
      </trkpt>
      <trkpt lat="42.75332" lon="1.75596">
        <ele>863</ele>
        <time>2016-09-10T16:08:43Z</time>
      </trkpt>
      <trkpt lat="42.75338" lon="1.75604">
        <ele>861</ele>
        <time>2016-09-10T16:08:50Z</time>
      </trkpt>
      <trkpt lat="42.75345" lon="1.75612">
        <ele>860</ele>
        <time>2016-09-10T16:08:58Z</time>
      </trkpt>
      <trkpt lat="42.75348" lon="1.75615">
        <ele>859</ele>
        <time>2016-09-10T16:09:01Z</time>
      </trkpt>
      <trkpt lat="42.75349" lon="1.75617">
        <ele>859</ele>
        <time>2016-09-10T16:09:02Z</time>
      </trkpt>
      <trkpt lat="42.75349" lon="1.75618">
        <ele>859</ele>
        <time>2016-09-10T16:09:03Z</time>
      </trkpt>
      <trkpt lat="42.7535" lon="1.75619">
        <ele>859</ele>
        <time>2016-09-10T16:09:04Z</time>
      </trkpt>
      <trkpt lat="42.75351" lon="1.7562">
        <ele>859</ele>
        <time>2016-09-10T16:09:05Z</time>
      </trkpt>
      <trkpt lat="42.75358" lon="1.75625">
        <ele>857</ele>
        <time>2016-09-10T16:09:12Z</time>
      </trkpt>
      <trkpt lat="42.75363" lon="1.75632">
        <ele>856</ele>
        <time>2016-09-10T16:09:20Z</time>
      </trkpt>
      <trkpt lat="42.75373" lon="1.75641">
        <ele>855</ele>
        <time>2016-09-10T16:09:30Z</time>
      </trkpt>
      <trkpt lat="42.75377" lon="1.75649">
        <ele>857</ele>
        <time>2016-09-10T16:09:38Z</time>
      </trkpt>
      <trkpt lat="42.75381" lon="1.75652">
        <ele>856</ele>
        <time>2016-09-10T16:09:47Z</time>
      </trkpt>
      <trkpt lat="42.75386" lon="1.7566">
        <ele>856</ele>
        <time>2016-09-10T16:09:53Z</time>
      </trkpt>
      <trkpt lat="42.75391" lon="1.75667">
        <ele>857</ele>
        <time>2016-09-10T16:10:00Z</time>
      </trkpt>
      <trkpt lat="42.75392" lon="1.75668">
        <ele>857</ele>
        <time>2016-09-10T16:10:01Z</time>
      </trkpt>
      <trkpt lat="42.75393" lon="1.75669">
        <ele>857</ele>
        <time>2016-09-10T16:10:02Z</time>
      </trkpt>
      <trkpt lat="42.75394" lon="1.75671">
        <ele>857</ele>
        <time>2016-09-10T16:10:03Z</time>
      </trkpt>
      <trkpt lat="42.75395" lon="1.75678">
        <ele>859</ele>
        <time>2016-09-10T16:10:10Z</time>
      </trkpt>
      <trkpt lat="42.75402" lon="1.7569">
        <ele>860</ele>
        <time>2016-09-10T16:10:18Z</time>
      </trkpt>
      <trkpt lat="42.75405" lon="1.75703">
        <ele>863</ele>
        <time>2016-09-10T16:10:25Z</time>
      </trkpt>
      <trkpt lat="42.75415" lon="1.75722">
        <ele>862</ele>
        <time>2016-09-10T16:10:34Z</time>
      </trkpt>
      <trkpt lat="42.75418" lon="1.75725">
        <ele>861</ele>
        <time>2016-09-10T16:10:35Z</time>
      </trkpt>
      <trkpt lat="42.7542" lon="1.75729">
        <ele>860</ele>
        <time>2016-09-10T16:10:36Z</time>
      </trkpt>
      <trkpt lat="42.75422" lon="1.75732">
        <ele>860</ele>
        <time>2016-09-10T16:10:37Z</time>
      </trkpt>
      <trkpt lat="42.75422" lon="1.75732">
        <ele>860</ele>
        <time>2016-09-10T16:10:38Z</time>
      </trkpt>
      <trkpt lat="42.75422" lon="1.75732">
        <ele>860</ele>
        <time>2016-09-10T16:10:39Z</time>
      </trkpt>
      <trkpt lat="42.75423" lon="1.7574">
        <ele>860</ele>
        <time>2016-09-10T16:10:41Z</time>
      </trkpt>
      <trkpt lat="42.75425" lon="1.75748">
        <ele>861</ele>
        <time>2016-09-10T16:10:47Z</time>
      </trkpt>
      <trkpt lat="42.7543" lon="1.75766">
        <ele>860</ele>
        <time>2016-09-10T16:10:54Z</time>
      </trkpt>
      <trkpt lat="42.75432" lon="1.75781">
        <ele>861</ele>
        <time>2016-09-10T16:11:00Z</time>
      </trkpt>
      <trkpt lat="42.75432" lon="1.75785">
        <ele>861</ele>
        <time>2016-09-10T16:11:01Z</time>
      </trkpt>
      <trkpt lat="42.75432" lon="1.75786">
        <ele>861</ele>
        <time>2016-09-10T16:11:02Z</time>
      </trkpt>
      <trkpt lat="42.75433" lon="1.75789">
        <ele>861</ele>
        <time>2016-09-10T16:11:03Z</time>
      </trkpt>
      <trkpt lat="42.75433" lon="1.75791">
        <ele>860</ele>
        <time>2016-09-10T16:11:04Z</time>
      </trkpt>
      <trkpt lat="42.75434" lon="1.758">
        <ele>861</ele>
        <time>2016-09-10T16:11:08Z</time>
      </trkpt>
      <trkpt lat="42.75432" lon="1.75816">
        <ele>863</ele>
        <time>2016-09-10T16:11:15Z</time>
      </trkpt>
      <trkpt lat="42.75433" lon="1.75829">
        <ele>863</ele>
        <time>2016-09-10T16:11:22Z</time>
      </trkpt>
      <trkpt lat="42.75437" lon="1.75836">
        <ele>862</ele>
        <time>2016-09-10T16:11:27Z</time>
      </trkpt>
      <trkpt lat="42.75438" lon="1.75837">
        <ele>861</ele>
        <time>2016-09-10T16:11:28Z</time>
      </trkpt>
      <trkpt lat="42.75438" lon="1.75837">
        <ele>861</ele>
        <time>2016-09-10T16:11:29Z</time>
      </trkpt>
      <trkpt lat="42.75438" lon="1.75837">
        <ele>861</ele>
        <time>2016-09-10T16:11:30Z</time>
      </trkpt>
      <trkpt lat="42.75438" lon="1.75837">
        <ele>861</ele>
        <time>2016-09-10T16:11:31Z</time>
      </trkpt>
      <trkpt lat="42.75441" lon="1.75842">
        <ele>860</ele>
        <time>2016-09-10T16:11:36Z</time>
      </trkpt>
      <trkpt lat="42.75445" lon="1.75849">
        <ele>858</ele>
        <time>2016-09-10T16:11:40Z</time>
      </trkpt>
      <trkpt lat="42.75447" lon="1.75851">
        <ele>858</ele>
        <time>2016-09-10T16:11:41Z</time>
      </trkpt>
      <trkpt lat="42.75447" lon="1.75852">
        <ele>857</ele>
        <time>2016-09-10T16:11:42Z</time>
      </trkpt>
      <trkpt lat="42.75449" lon="1.75854">
        <ele>857</ele>
        <time>2016-09-10T16:11:43Z</time>
      </trkpt>
      <trkpt lat="42.7545" lon="1.75855">
        <ele>856</ele>
        <time>2016-09-10T16:11:44Z</time>
      </trkpt>
      <trkpt lat="42.75451" lon="1.75863">
        <ele>856</ele>
        <time>2016-09-10T16:11:49Z</time>
      </trkpt>
      <trkpt lat="42.75454" lon="1.75871">
        <ele>854</ele>
        <time>2016-09-10T16:11:56Z</time>
      </trkpt>
      <trkpt lat="42.75458" lon="1.75877">
        <ele>852</ele>
        <time>2016-09-10T16:12:00Z</time>
      </trkpt>
      <trkpt lat="42.75458" lon="1.75878">
        <ele>852</ele>
        <time>2016-09-10T16:12:01Z</time>
      </trkpt>
      <trkpt lat="42.7546" lon="1.7588">
        <ele>851</ele>
        <time>2016-09-10T16:12:02Z</time>
      </trkpt>
      <trkpt lat="42.75461" lon="1.75881">
        <ele>851</ele>
        <time>2016-09-10T16:12:03Z</time>
      </trkpt>
      <trkpt lat="42.75462" lon="1.75883">
        <ele>850</ele>
        <time>2016-09-10T16:12:04Z</time>
      </trkpt>
      <trkpt lat="42.75468" lon="1.75894">
        <ele>846</ele>
        <time>2016-09-10T16:12:11Z</time>
      </trkpt>
      <trkpt lat="42.75468" lon="1.75895">
        <ele>846</ele>
        <time>2016-09-10T16:12:12Z</time>
      </trkpt>
      <trkpt lat="42.75468" lon="1.75896">
        <ele>846</ele>
        <time>2016-09-10T16:12:13Z</time>
      </trkpt>
      <trkpt lat="42.75468" lon="1.75898">
        <ele>846</ele>
        <time>2016-09-10T16:12:14Z</time>
      </trkpt>
      <trkpt lat="42.75468" lon="1.75899">
        <ele>846</ele>
        <time>2016-09-10T16:12:15Z</time>
      </trkpt>
      <trkpt lat="42.75468" lon="1.75904">
        <ele>846</ele>
        <time>2016-09-10T16:12:19Z</time>
      </trkpt>
      <trkpt lat="42.75468" lon="1.75911">
        <ele>846</ele>
        <time>2016-09-10T16:12:22Z</time>
      </trkpt>
      <trkpt lat="42.75467" lon="1.75914">
        <ele>846</ele>
        <time>2016-09-10T16:12:23Z</time>
      </trkpt>
      <trkpt lat="42.75467" lon="1.75914">
        <ele>846</ele>
        <time>2016-09-10T16:12:24Z</time>
      </trkpt>
      <trkpt lat="42.75467" lon="1.75916">
        <ele>846</ele>
        <time>2016-09-10T16:12:25Z</time>
      </trkpt>
      <trkpt lat="42.75467" lon="1.75916">
        <ele>846</ele>
        <time>2016-09-10T16:12:26Z</time>
      </trkpt>
      <trkpt lat="42.75466" lon="1.75925">
        <ele>846</ele>
        <time>2016-09-10T16:12:33Z</time>
      </trkpt>
      <trkpt lat="42.75466" lon="1.75925">
        <ele>846</ele>
        <time>2016-09-10T16:12:34Z</time>
      </trkpt>
      <trkpt lat="42.75466" lon="1.75925">
        <ele>846</ele>
        <time>2016-09-10T16:12:35Z</time>
      </trkpt>
      <trkpt lat="42.75466" lon="1.75925">
        <ele>846</ele>
        <time>2016-09-10T16:12:36Z</time>
      </trkpt>
      <trkpt lat="42.75466" lon="1.75928">
        <ele>846</ele>
        <time>2016-09-10T16:12:37Z</time>
      </trkpt>
      <trkpt lat="42.75466" lon="1.75931">
        <ele>846</ele>
        <time>2016-09-10T16:12:39Z</time>
      </trkpt>
      <trkpt lat="42.75466" lon="1.75944">
        <ele>846</ele>
        <time>2016-09-10T16:12:47Z</time>
      </trkpt>
      <trkpt lat="42.75463" lon="1.75957">
        <ele>847</ele>
        <time>2016-09-10T16:12:54Z</time>
      </trkpt>
      <trkpt lat="42.75464" lon="1.75969">
        <ele>845</ele>
        <time>2016-09-10T16:13:00Z</time>
      </trkpt>
      <trkpt lat="42.75465" lon="1.75972">
        <ele>845</ele>
        <time>2016-09-10T16:13:01Z</time>
      </trkpt>
      <trkpt lat="42.75465" lon="1.75974">
        <ele>844</ele>
        <time>2016-09-10T16:13:02Z</time>
      </trkpt>
      <trkpt lat="42.75466" lon="1.75976">
        <ele>844</ele>
        <time>2016-09-10T16:13:03Z</time>
      </trkpt>
      <trkpt lat="42.75466" lon="1.75978">
        <ele>843</ele>
        <time>2016-09-10T16:13:04Z</time>
      </trkpt>
      <trkpt lat="42.75467" lon="1.75984">
        <ele>842</ele>
        <time>2016-09-10T16:13:08Z</time>
      </trkpt>
      <trkpt lat="42.75465" lon="1.75995">
        <ele>842</ele>
        <time>2016-09-10T16:13:13Z</time>
      </trkpt>
      <trkpt lat="42.75465" lon="1.75997">
        <ele>842</ele>
        <time>2016-09-10T16:13:14Z</time>
      </trkpt>
      <trkpt lat="42.75465" lon="1.76">
        <ele>842</ele>
        <time>2016-09-10T16:13:15Z</time>
      </trkpt>
      <trkpt lat="42.75465" lon="1.76002">
        <ele>842</ele>
        <time>2016-09-10T16:13:16Z</time>
      </trkpt>
      <trkpt lat="42.75464" lon="1.76003">
        <ele>843</ele>
        <time>2016-09-10T16:13:17Z</time>
      </trkpt>
      <trkpt lat="42.75462" lon="1.76006">
        <ele>843</ele>
        <time>2016-09-10T16:13:21Z</time>
      </trkpt>
      <trkpt lat="42.75462" lon="1.76007">
        <ele>844</ele>
        <time>2016-09-10T16:13:29Z</time>
      </trkpt>
      <trkpt lat="42.75462" lon="1.76009">
        <ele>843</ele>
        <time>2016-09-10T16:13:42Z</time>
      </trkpt>
      <trkpt lat="42.75463" lon="1.76011">
        <ele>843</ele>
        <time>2016-09-10T16:13:48Z</time>
      </trkpt>
      <trkpt lat="42.75464" lon="1.76012">
        <ele>842</ele>
        <time>2016-09-10T16:13:49Z</time>
      </trkpt>
      <trkpt lat="42.75465" lon="1.76013">
        <ele>841</ele>
        <time>2016-09-10T16:13:50Z</time>
      </trkpt>
      <trkpt lat="42.75465" lon="1.76014">
        <ele>841</ele>
        <time>2016-09-10T16:13:51Z</time>
      </trkpt>
      <trkpt lat="42.75466" lon="1.76015">
        <ele>840</ele>
        <time>2016-09-10T16:13:52Z</time>
      </trkpt>
      <trkpt lat="42.75469" lon="1.76026">
        <ele>837</ele>
        <time>2016-09-10T16:13:59Z</time>
      </trkpt>
      <trkpt lat="42.75471" lon="1.76028">
        <ele>836</ele>
        <time>2016-09-10T16:14:01Z</time>
      </trkpt>
      <trkpt lat="42.75472" lon="1.76029">
        <ele>835</ele>
        <time>2016-09-10T16:14:02Z</time>
      </trkpt>
      <trkpt lat="42.75472" lon="1.7603">
        <ele>835</ele>
        <time>2016-09-10T16:14:03Z</time>
      </trkpt>
      <trkpt lat="42.75472" lon="1.76031">
        <ele>834</ele>
        <time>2016-09-10T16:14:04Z</time>
      </trkpt>
      <trkpt lat="42.75472" lon="1.76031">
        <ele>834</ele>
        <time>2016-09-10T16:14:05Z</time>
      </trkpt>
      <trkpt lat="42.75471" lon="1.76037">
        <ele>835</ele>
        <time>2016-09-10T16:14:11Z</time>
      </trkpt>
      <trkpt lat="42.7547" lon="1.76042">
        <ele>834</ele>
        <time>2016-09-10T16:14:15Z</time>
      </trkpt>
      <trkpt lat="42.75471" lon="1.76043">
        <ele>834</ele>
        <time>2016-09-10T16:14:16Z</time>
      </trkpt>
      <trkpt lat="42.7547" lon="1.76044">
        <ele>834</ele>
        <time>2016-09-10T16:14:17Z</time>
      </trkpt>
      <trkpt lat="42.7547" lon="1.76045">
        <ele>834</ele>
        <time>2016-09-10T16:14:18Z</time>
      </trkpt>
      <trkpt lat="42.7547" lon="1.76047">
        <ele>834</ele>
        <time>2016-09-10T16:14:19Z</time>
      </trkpt>
      <trkpt lat="42.7547" lon="1.7605">
        <ele>833</ele>
        <time>2016-09-10T16:14:24Z</time>
      </trkpt>
      <trkpt lat="42.75471" lon="1.76052">
        <ele>833</ele>
        <time>2016-09-10T16:14:25Z</time>
      </trkpt>
      <trkpt lat="42.75472" lon="1.76054">
        <ele>832</ele>
        <time>2016-09-10T16:14:26Z</time>
      </trkpt>
      <trkpt lat="42.75472" lon="1.76057">
        <ele>831</ele>
        <time>2016-09-10T16:14:27Z</time>
      </trkpt>
      <trkpt lat="42.75473" lon="1.76058">
        <ele>831</ele>
        <time>2016-09-10T16:14:28Z</time>
      </trkpt>
      <trkpt lat="42.75474" lon="1.76063">
        <ele>830</ele>
        <time>2016-09-10T16:14:32Z</time>
      </trkpt>
      <trkpt lat="42.75474" lon="1.76065">
        <ele>830</ele>
        <time>2016-09-10T16:14:33Z</time>
      </trkpt>
      <trkpt lat="42.75474" lon="1.76068">
        <ele>829</ele>
        <time>2016-09-10T16:14:34Z</time>
      </trkpt>
      <trkpt lat="42.75474" lon="1.7607">
        <ele>829</ele>
        <time>2016-09-10T16:14:35Z</time>
      </trkpt>
      <trkpt lat="42.75474" lon="1.76073">
        <ele>829</ele>
        <time>2016-09-10T16:14:36Z</time>
      </trkpt>
      <trkpt lat="42.75474" lon="1.76076">
        <ele>828</ele>
        <time>2016-09-10T16:14:37Z</time>
      </trkpt>
      <trkpt lat="42.75474" lon="1.76078">
        <ele>828</ele>
        <time>2016-09-10T16:14:39Z</time>
      </trkpt>
      <trkpt lat="42.75473" lon="1.7608">
        <ele>828</ele>
        <time>2016-09-10T16:14:41Z</time>
      </trkpt>
      <trkpt lat="42.75473" lon="1.7608">
        <ele>828</ele>
        <time>2016-09-10T16:14:42Z</time>
      </trkpt>
      <trkpt lat="42.75473" lon="1.76082">
        <ele>828</ele>
        <time>2016-09-10T16:14:43Z</time>
      </trkpt>
      <trkpt lat="42.75473" lon="1.76082">
        <ele>828</ele>
        <time>2016-09-10T16:14:44Z</time>
      </trkpt>
      <trkpt lat="42.75473" lon="1.76082">
        <ele>828</ele>
        <time>2016-09-10T16:14:45Z</time>
      </trkpt>
      <trkpt lat="42.75472" lon="1.76096">
        <ele>827</ele>
        <time>2016-09-10T16:14:50Z</time>
      </trkpt>
      <trkpt lat="42.75472" lon="1.76098">
        <ele>827</ele>
        <time>2016-09-10T16:14:51Z</time>
      </trkpt>
      <trkpt lat="42.75471" lon="1.76098">
        <ele>827</ele>
        <time>2016-09-10T16:14:52Z</time>
      </trkpt>
      <trkpt lat="42.75471" lon="1.76099">
        <ele>827</ele>
        <time>2016-09-10T16:14:53Z</time>
      </trkpt>
      <trkpt lat="42.75471" lon="1.761">
        <ele>827</ele>
        <time>2016-09-10T16:14:54Z</time>
      </trkpt>
      <trkpt lat="42.75472" lon="1.76102">
        <ele>827</ele>
        <time>2016-09-10T16:14:55Z</time>
      </trkpt>
      <trkpt lat="42.75473" lon="1.76106">
        <ele>825</ele>
        <time>2016-09-10T16:14:58Z</time>
      </trkpt>
      <trkpt lat="42.75474" lon="1.76107">
        <ele>825</ele>
        <time>2016-09-10T16:14:59Z</time>
      </trkpt>
      <trkpt lat="42.75474" lon="1.76108">
        <ele>824</ele>
        <time>2016-09-10T16:15:00Z</time>
      </trkpt>
      <trkpt lat="42.75475" lon="1.76109">
        <ele>824</ele>
        <time>2016-09-10T16:15:01Z</time>
      </trkpt>
      <trkpt lat="42.75476" lon="1.76112">
        <ele>823</ele>
        <time>2016-09-10T16:15:02Z</time>
      </trkpt>
      <trkpt lat="42.75477" lon="1.76118">
        <ele>821</ele>
        <time>2016-09-10T16:15:06Z</time>
      </trkpt>
      <trkpt lat="42.75478" lon="1.7612">
        <ele>821</ele>
        <time>2016-09-10T16:15:07Z</time>
      </trkpt>
      <trkpt lat="42.75478" lon="1.76121">
        <ele>820</ele>
        <time>2016-09-10T16:15:08Z</time>
      </trkpt>
      <trkpt lat="42.75478" lon="1.76123">
        <ele>820</ele>
        <time>2016-09-10T16:15:09Z</time>
      </trkpt>
      <trkpt lat="42.75478" lon="1.76124">
        <ele>820</ele>
        <time>2016-09-10T16:15:10Z</time>
      </trkpt>
      <trkpt lat="42.7548" lon="1.76134">
        <ele>817</ele>
        <time>2016-09-10T16:15:15Z</time>
      </trkpt>
      <trkpt lat="42.7548" lon="1.76136">
        <ele>817</ele>
        <time>2016-09-10T16:15:17Z</time>
      </trkpt>
      <trkpt lat="42.7548" lon="1.76138">
        <ele>817</ele>
        <time>2016-09-10T16:15:18Z</time>
      </trkpt>
      <trkpt lat="42.75479" lon="1.76139">
        <ele>817</ele>
        <time>2016-09-10T16:15:19Z</time>
      </trkpt>
      <trkpt lat="42.75479" lon="1.7614">
        <ele>817</ele>
        <time>2016-09-10T16:15:20Z</time>
      </trkpt>
      <trkpt lat="42.75479" lon="1.76143">
        <ele>817</ele>
        <time>2016-09-10T16:15:21Z</time>
      </trkpt>
      <trkpt lat="42.75479" lon="1.76145">
        <ele>817</ele>
        <time>2016-09-10T16:15:22Z</time>
      </trkpt>
      <trkpt lat="42.7548" lon="1.76149">
        <ele>816</ele>
        <time>2016-09-10T16:15:25Z</time>
      </trkpt>
      <trkpt lat="42.7548" lon="1.76151">
        <ele>816</ele>
        <time>2016-09-10T16:15:26Z</time>
      </trkpt>
      <trkpt lat="42.7548" lon="1.76151">
        <ele>816</ele>
        <time>2016-09-10T16:15:27Z</time>
      </trkpt>
      <trkpt lat="42.75481" lon="1.76153">
        <ele>815</ele>
        <time>2016-09-10T16:15:28Z</time>
      </trkpt>
      <trkpt lat="42.75481" lon="1.76152">
        <ele>815</ele>
        <time>2016-09-10T16:15:29Z</time>
      </trkpt>
      <trkpt lat="42.75482" lon="1.76158">
        <ele>813</ele>
        <time>2016-09-10T16:15:33Z</time>
      </trkpt>
      <trkpt lat="42.75483" lon="1.76162">
        <ele>812</ele>
        <time>2016-09-10T16:15:35Z</time>
      </trkpt>
      <trkpt lat="42.75484" lon="1.76164">
        <ele>812</ele>
        <time>2016-09-10T16:15:36Z</time>
      </trkpt>
      <trkpt lat="42.75484" lon="1.76165">
        <ele>811</ele>
        <time>2016-09-10T16:15:37Z</time>
      </trkpt>
      <trkpt lat="42.75484" lon="1.76168">
        <ele>810</ele>
        <time>2016-09-10T16:15:38Z</time>
      </trkpt>
      <trkpt lat="42.75484" lon="1.76168">
        <ele>810</ele>
        <time>2016-09-10T16:15:39Z</time>
      </trkpt>
      <trkpt lat="42.7549" lon="1.76171">
        <ele>806</ele>
        <time>2016-09-10T16:15:43Z</time>
      </trkpt>
      <trkpt lat="42.75492" lon="1.76173">
        <ele>805</ele>
        <time>2016-09-10T16:15:44Z</time>
      </trkpt>
      <trkpt lat="42.75492" lon="1.76175">
        <ele>804</ele>
        <time>2016-09-10T16:15:45Z</time>
      </trkpt>
      <trkpt lat="42.75493" lon="1.76178">
        <ele>803</ele>
        <time>2016-09-10T16:15:46Z</time>
      </trkpt>
      <trkpt lat="42.75494" lon="1.76182">
        <ele>802</ele>
        <time>2016-09-10T16:15:47Z</time>
      </trkpt>
      <trkpt lat="42.75496" lon="1.76187">
        <ele>800</ele>
        <time>2016-09-10T16:15:50Z</time>
      </trkpt>
      <trkpt lat="42.75497" lon="1.76189">
        <ele>799</ele>
        <time>2016-09-10T16:15:51Z</time>
      </trkpt>
      <trkpt lat="42.75497" lon="1.76189">
        <ele>799</ele>
        <time>2016-09-10T16:15:52Z</time>
      </trkpt>
      <trkpt lat="42.75498" lon="1.76192">
        <ele>798</ele>
        <time>2016-09-10T16:15:53Z</time>
      </trkpt>
      <trkpt lat="42.75499" lon="1.76195">
        <ele>798</ele>
        <time>2016-09-10T16:15:54Z</time>
      </trkpt>
      <trkpt lat="42.75499" lon="1.76201">
        <ele>797</ele>
        <time>2016-09-10T16:15:58Z</time>
      </trkpt>
      <trkpt lat="42.75499" lon="1.76202">
        <ele>797</ele>
        <time>2016-09-10T16:15:59Z</time>
      </trkpt>
      <trkpt lat="42.75499" lon="1.76204">
        <ele>797</ele>
        <time>2016-09-10T16:16:00Z</time>
      </trkpt>
      <trkpt lat="42.75498" lon="1.76207">
        <ele>797</ele>
        <time>2016-09-10T16:16:01Z</time>
      </trkpt>
      <trkpt lat="42.75497" lon="1.76207">
        <ele>798</ele>
        <time>2016-09-10T16:16:02Z</time>
      </trkpt>
      <trkpt lat="42.75498" lon="1.76208">
        <ele>798</ele>
        <time>2016-09-10T16:16:03Z</time>
      </trkpt>
      <trkpt lat="42.75498" lon="1.76212">
        <ele>797</ele>
        <time>2016-09-10T16:16:06Z</time>
      </trkpt>
      <trkpt lat="42.75498" lon="1.76216">
        <ele>797</ele>
        <time>2016-09-10T16:16:08Z</time>
      </trkpt>
      <trkpt lat="42.75497" lon="1.76219">
        <ele>797</ele>
        <time>2016-09-10T16:16:09Z</time>
      </trkpt>
      <trkpt lat="42.75497" lon="1.76221">
        <ele>797</ele>
        <time>2016-09-10T16:16:10Z</time>
      </trkpt>
      <trkpt lat="42.75497" lon="1.76222">
        <ele>797</ele>
        <time>2016-09-10T16:16:11Z</time>
      </trkpt>
      <trkpt lat="42.75497" lon="1.76224">
        <ele>797</ele>
        <time>2016-09-10T16:16:13Z</time>
      </trkpt>
      <trkpt lat="42.75499" lon="1.76232">
        <ele>795</ele>
        <time>2016-09-10T16:16:18Z</time>
      </trkpt>
      <trkpt lat="42.75499" lon="1.76233">
        <ele>795</ele>
        <time>2016-09-10T16:16:19Z</time>
      </trkpt>
      <trkpt lat="42.755" lon="1.76235">
        <ele>795</ele>
        <time>2016-09-10T16:16:20Z</time>
      </trkpt>
      <trkpt lat="42.75501" lon="1.76236">
        <ele>794</ele>
        <time>2016-09-10T16:16:21Z</time>
      </trkpt>
      <trkpt lat="42.75501" lon="1.76237">
        <ele>794</ele>
        <time>2016-09-10T16:16:22Z</time>
      </trkpt>
      <trkpt lat="42.75501" lon="1.7624">
        <ele>794</ele>
        <time>2016-09-10T16:16:26Z</time>
      </trkpt>
      <trkpt lat="42.755" lon="1.76255">
        <ele>794</ele>
        <time>2016-09-10T16:16:34Z</time>
      </trkpt>
      <trkpt lat="42.75496" lon="1.76267">
        <ele>795</ele>
        <time>2016-09-10T16:16:42Z</time>
      </trkpt>
      <trkpt lat="42.75496" lon="1.76275">
        <ele>795</ele>
        <time>2016-09-10T16:16:49Z</time>
      </trkpt>
      <trkpt lat="42.75494" lon="1.76287">
        <ele>796</ele>
        <time>2016-09-10T16:16:55Z</time>
      </trkpt>
      <trkpt lat="42.75493" lon="1.76298">
        <ele>796</ele>
        <time>2016-09-10T16:17:01Z</time>
      </trkpt>
      <trkpt lat="42.75493" lon="1.76298">
        <ele>796</ele>
        <time>2016-09-10T16:17:02Z</time>
      </trkpt>
      <trkpt lat="42.75494" lon="1.76299">
        <ele>796</ele>
        <time>2016-09-10T16:17:03Z</time>
      </trkpt>
      <trkpt lat="42.75494" lon="1.76301">
        <ele>796</ele>
        <time>2016-09-10T16:17:04Z</time>
      </trkpt>
      <trkpt lat="42.75494" lon="1.76302">
        <ele>796</ele>
        <time>2016-09-10T16:17:05Z</time>
      </trkpt>
      <trkpt lat="42.75493" lon="1.76306">
        <ele>796</ele>
        <time>2016-09-10T16:17:09Z</time>
      </trkpt>
      <trkpt lat="42.75493" lon="1.76309">
        <ele>797</ele>
        <time>2016-09-10T16:17:10Z</time>
      </trkpt>
      <trkpt lat="42.75493" lon="1.76311">
        <ele>797</ele>
        <time>2016-09-10T16:17:11Z</time>
      </trkpt>
      <trkpt lat="42.75493" lon="1.76312">
        <ele>797</ele>
        <time>2016-09-10T16:17:12Z</time>
      </trkpt>
      <trkpt lat="42.75493" lon="1.76312">
        <ele>797</ele>
        <time>2016-09-10T16:17:13Z</time>
      </trkpt>
      <trkpt lat="42.75493" lon="1.76315">
        <ele>796</ele>
        <time>2016-09-10T16:17:15Z</time>
      </trkpt>
      <trkpt lat="42.75493" lon="1.76315">
        <ele>796</ele>
        <time>2016-09-10T16:17:16Z</time>
      </trkpt>
      <trkpt lat="42.75494" lon="1.76316">
        <ele>796</ele>
        <time>2016-09-10T16:17:17Z</time>
      </trkpt>
      <trkpt lat="42.75494" lon="1.76318">
        <ele>796</ele>
        <time>2016-09-10T16:17:18Z</time>
      </trkpt>
      <trkpt lat="42.75495" lon="1.76319">
        <ele>795</ele>
        <time>2016-09-10T16:17:19Z</time>
      </trkpt>
      <trkpt lat="42.75496" lon="1.7632">
        <ele>795</ele>
        <time>2016-09-10T16:17:20Z</time>
      </trkpt>
      <trkpt lat="42.75497" lon="1.7632">
        <ele>794</ele>
        <time>2016-09-10T16:17:22Z</time>
      </trkpt>
      <trkpt lat="42.75497" lon="1.7632">
        <ele>794</ele>
        <time>2016-09-10T16:17:23Z</time>
      </trkpt>
      <trkpt lat="42.75497" lon="1.76321">
        <ele>794</ele>
        <time>2016-09-10T16:17:24Z</time>
      </trkpt>
      <trkpt lat="42.75498" lon="1.76322">
        <ele>794</ele>
        <time>2016-09-10T16:17:25Z</time>
      </trkpt>
      <trkpt lat="42.75499" lon="1.76326">
        <ele>793</ele>
        <time>2016-09-10T16:17:28Z</time>
      </trkpt>
      <trkpt lat="42.75499" lon="1.76327">
        <ele>793</ele>
        <time>2016-09-10T16:17:29Z</time>
      </trkpt>
      <trkpt lat="42.75499" lon="1.76328">
        <ele>793</ele>
        <time>2016-09-10T16:17:30Z</time>
      </trkpt>
      <trkpt lat="42.755" lon="1.76329">
        <ele>793</ele>
        <time>2016-09-10T16:17:31Z</time>
      </trkpt>
      <trkpt lat="42.755" lon="1.7633">
        <ele>792</ele>
        <time>2016-09-10T16:17:32Z</time>
      </trkpt>
      <trkpt lat="42.75501" lon="1.76332">
        <ele>792</ele>
        <time>2016-09-10T16:17:35Z</time>
      </trkpt>
      <trkpt lat="42.75501" lon="1.76332">
        <ele>792</ele>
        <time>2016-09-10T16:17:36Z</time>
      </trkpt>
      <trkpt lat="42.75502" lon="1.76332">
        <ele>792</ele>
        <time>2016-09-10T16:17:37Z</time>
      </trkpt>
      <trkpt lat="42.75503" lon="1.76332">
        <ele>791</ele>
        <time>2016-09-10T16:17:38Z</time>
      </trkpt>
      <trkpt lat="42.75503" lon="1.76332">
        <ele>791</ele>
        <time>2016-09-10T16:17:39Z</time>
      </trkpt>
      <trkpt lat="42.75506" lon="1.76335">
        <ele>790</ele>
        <time>2016-09-10T16:17:42Z</time>
      </trkpt>
      <trkpt lat="42.75508" lon="1.76336">
        <ele>789</ele>
        <time>2016-09-10T16:17:43Z</time>
      </trkpt>
      <trkpt lat="42.75509" lon="1.76336">
        <ele>789</ele>
        <time>2016-09-10T16:17:44Z</time>
      </trkpt>
      <trkpt lat="42.7551" lon="1.76337">
        <ele>788</ele>
        <time>2016-09-10T16:17:45Z</time>
      </trkpt>
      <trkpt lat="42.75511" lon="1.76337">
        <ele>788</ele>
        <time>2016-09-10T16:17:46Z</time>
      </trkpt>
      <trkpt lat="42.75513" lon="1.7634">
        <ele>787</ele>
        <time>2016-09-10T16:17:49Z</time>
      </trkpt>
      <trkpt lat="42.75514" lon="1.76341">
        <ele>787</ele>
        <time>2016-09-10T16:17:50Z</time>
      </trkpt>
      <trkpt lat="42.75514" lon="1.76341">
        <ele>786</ele>
        <time>2016-09-10T16:17:51Z</time>
      </trkpt>
      <trkpt lat="42.75514" lon="1.76341">
        <ele>786</ele>
        <time>2016-09-10T16:17:52Z</time>
      </trkpt>
      <trkpt lat="42.75515" lon="1.76343">
        <ele>786</ele>
        <time>2016-09-10T16:17:56Z</time>
      </trkpt>
      <trkpt lat="42.75515" lon="1.76343">
        <ele>786</ele>
        <time>2016-09-10T16:17:57Z</time>
      </trkpt>
      <trkpt lat="42.75516" lon="1.76344">
        <ele>786</ele>
        <time>2016-09-10T16:17:58Z</time>
      </trkpt>
      <trkpt lat="42.75517" lon="1.76345">
        <ele>785</ele>
        <time>2016-09-10T16:17:59Z</time>
      </trkpt>
      <trkpt lat="42.75518" lon="1.76345">
        <ele>785</ele>
        <time>2016-09-10T16:18:00Z</time>
      </trkpt>
      <trkpt lat="42.75519" lon="1.76346">
        <ele>784</ele>
        <time>2016-09-10T16:18:01Z</time>
      </trkpt>
      <trkpt lat="42.7552" lon="1.76351">
        <ele>784</ele>
        <time>2016-09-10T16:18:04Z</time>
      </trkpt>
      <trkpt lat="42.7552" lon="1.76353">
        <ele>784</ele>
        <time>2016-09-10T16:18:05Z</time>
      </trkpt>
      <trkpt lat="42.7552" lon="1.76355">
        <ele>784</ele>
        <time>2016-09-10T16:18:06Z</time>
      </trkpt>
      <trkpt lat="42.75521" lon="1.76356">
        <ele>784</ele>
        <time>2016-09-10T16:18:07Z</time>
      </trkpt>
      <trkpt lat="42.75521" lon="1.76358">
        <ele>784</ele>
        <time>2016-09-10T16:18:08Z</time>
      </trkpt>
      <trkpt lat="42.75521" lon="1.7636">
        <ele>784</ele>
        <time>2016-09-10T16:18:09Z</time>
      </trkpt>
      <trkpt lat="42.75519" lon="1.76366">
        <ele>784</ele>
        <time>2016-09-10T16:18:12Z</time>
      </trkpt>
      <trkpt lat="42.75519" lon="1.76367">
        <ele>784</ele>
        <time>2016-09-10T16:18:13Z</time>
      </trkpt>
      <trkpt lat="42.75519" lon="1.76369">
        <ele>785</ele>
        <time>2016-09-10T16:18:14Z</time>
      </trkpt>
      <trkpt lat="42.75519" lon="1.7637">
        <ele>784</ele>
        <time>2016-09-10T16:18:15Z</time>
      </trkpt>
      <trkpt lat="42.75519" lon="1.76373">
        <ele>784</ele>
        <time>2016-09-10T16:18:18Z</time>
      </trkpt>
      <trkpt lat="42.75519" lon="1.76375">
        <ele>784</ele>
        <time>2016-09-10T16:18:19Z</time>
      </trkpt>
      <trkpt lat="42.7552" lon="1.76376">
        <ele>784</ele>
        <time>2016-09-10T16:18:20Z</time>
      </trkpt>
      <trkpt lat="42.7552" lon="1.76377">
        <ele>784</ele>
        <time>2016-09-10T16:18:21Z</time>
      </trkpt>
      <trkpt lat="42.75521" lon="1.76379">
        <ele>783</ele>
        <time>2016-09-10T16:18:22Z</time>
      </trkpt>
      <trkpt lat="42.75522" lon="1.7638">
        <ele>783</ele>
        <time>2016-09-10T16:18:25Z</time>
      </trkpt>
      <trkpt lat="42.75523" lon="1.76381">
        <ele>782</ele>
        <time>2016-09-10T16:18:26Z</time>
      </trkpt>
      <trkpt lat="42.75524" lon="1.76381">
        <ele>782</ele>
        <time>2016-09-10T16:18:27Z</time>
      </trkpt>
      <trkpt lat="42.75526" lon="1.76382">
        <ele>781</ele>
        <time>2016-09-10T16:18:28Z</time>
      </trkpt>
      <trkpt lat="42.75527" lon="1.76383">
        <ele>780</ele>
        <time>2016-09-10T16:18:29Z</time>
      </trkpt>
      <trkpt lat="42.75532" lon="1.76386">
        <ele>778</ele>
        <time>2016-09-10T16:18:32Z</time>
      </trkpt>
      <trkpt lat="42.75533" lon="1.76387">
        <ele>778</ele>
        <time>2016-09-10T16:18:33Z</time>
      </trkpt>
      <trkpt lat="42.75534" lon="1.76389">
        <ele>777</ele>
        <time>2016-09-10T16:18:34Z</time>
      </trkpt>
      <trkpt lat="42.75535" lon="1.7639">
        <ele>777</ele>
        <time>2016-09-10T16:18:35Z</time>
      </trkpt>
      <trkpt lat="42.75535" lon="1.76391">
        <ele>776</ele>
        <time>2016-09-10T16:18:36Z</time>
      </trkpt>
      <trkpt lat="42.75536" lon="1.76393">
        <ele>776</ele>
        <time>2016-09-10T16:18:39Z</time>
      </trkpt>
      <trkpt lat="42.75536" lon="1.76393">
        <ele>776</ele>
        <time>2016-09-10T16:18:40Z</time>
      </trkpt>
      <trkpt lat="42.75536" lon="1.76393">
        <ele>776</ele>
        <time>2016-09-10T16:18:41Z</time>
      </trkpt>
      <trkpt lat="42.75536" lon="1.76393">
        <ele>776</ele>
        <time>2016-09-10T16:18:42Z</time>
      </trkpt>
      <trkpt lat="42.75535" lon="1.76394">
        <ele>776</ele>
        <time>2016-09-10T16:18:44Z</time>
      </trkpt>
      <trkpt lat="42.75531" lon="1.76392">
        <ele>778</ele>
        <time>2016-09-10T16:19:00Z</time>
      </trkpt>
      <trkpt lat="42.75534" lon="1.76396">
        <ele>776</ele>
        <time>2016-09-10T16:19:06Z</time>
      </trkpt>
      <trkpt lat="42.75535" lon="1.764">
        <ele>776</ele>
        <time>2016-09-10T16:19:08Z</time>
      </trkpt>
      <trkpt lat="42.75535" lon="1.76402">
        <ele>776</ele>
        <time>2016-09-10T16:19:09Z</time>
      </trkpt>
      <trkpt lat="42.75535" lon="1.76404">
        <ele>775</ele>
        <time>2016-09-10T16:19:10Z</time>
      </trkpt>
      <trkpt lat="42.75536" lon="1.76407">
        <ele>775</ele>
        <time>2016-09-10T16:19:11Z</time>
      </trkpt>
      <trkpt lat="42.75536" lon="1.76408">
        <ele>774</ele>
        <time>2016-09-10T16:19:12Z</time>
      </trkpt>
      <trkpt lat="42.75537" lon="1.76409">
        <ele>774</ele>
        <time>2016-09-10T16:19:13Z</time>
      </trkpt>
      <trkpt lat="42.75542" lon="1.76411">
        <ele>772</ele>
        <time>2016-09-10T16:19:16Z</time>
      </trkpt>
      <trkpt lat="42.75542" lon="1.76411">
        <ele>772</ele>
        <time>2016-09-10T16:19:17Z</time>
      </trkpt>
      <trkpt lat="42.75542" lon="1.76411">
        <ele>772</ele>
        <time>2016-09-10T16:19:18Z</time>
      </trkpt>
      <trkpt lat="42.75542" lon="1.76411">
        <ele>772</ele>
        <time>2016-09-10T16:19:19Z</time>
      </trkpt>
      <trkpt lat="42.75542" lon="1.76411">
        <ele>772</ele>
        <time>2016-09-10T16:19:20Z</time>
      </trkpt>
      <trkpt lat="42.75542" lon="1.76411">
        <ele>772</ele>
        <time>2016-09-10T16:19:30Z</time>
      </trkpt>
      <trkpt lat="42.75542" lon="1.76411">
        <ele>772</ele>
        <time>2016-09-10T16:19:31Z</time>
      </trkpt>
      <trkpt lat="42.75542" lon="1.76411">
        <ele>772</ele>
        <time>2016-09-10T16:19:32Z</time>
      </trkpt>
      <trkpt lat="42.75542" lon="1.76411">
        <ele>772</ele>
        <time>2016-09-10T16:19:33Z</time>
      </trkpt>
      <trkpt lat="42.75542" lon="1.76411">
        <ele>772</ele>
        <time>2016-09-10T16:19:34Z</time>
      </trkpt>
      <trkpt lat="42.75548" lon="1.76411">
        <ele>770</ele>
        <time>2016-09-10T16:19:38Z</time>
      </trkpt>
      <trkpt lat="42.75548" lon="1.76411">
        <ele>770</ele>
        <time>2016-09-10T16:19:39Z</time>
      </trkpt>
      <trkpt lat="42.7555" lon="1.76412">
        <ele>769</ele>
        <time>2016-09-10T16:19:40Z</time>
      </trkpt>
      <trkpt lat="42.75551" lon="1.76413">
        <ele>768</ele>
        <time>2016-09-10T16:19:41Z</time>
      </trkpt>
      <trkpt lat="42.75551" lon="1.76413">
        <ele>768</ele>
        <time>2016-09-10T16:19:42Z</time>
      </trkpt>
      <trkpt lat="42.75552" lon="1.76417">
        <ele>767</ele>
        <time>2016-09-10T16:19:46Z</time>
      </trkpt>
      <trkpt lat="42.75553" lon="1.7642">
        <ele>767</ele>
        <time>2016-09-10T16:19:47Z</time>
      </trkpt>
      <trkpt lat="42.75555" lon="1.76421">
        <ele>766</ele>
        <time>2016-09-10T16:19:48Z</time>
      </trkpt>
      <trkpt lat="42.75557" lon="1.76422">
        <ele>764</ele>
        <time>2016-09-10T16:19:49Z</time>
      </trkpt>
      <trkpt lat="42.75559" lon="1.76424">
        <ele>764</ele>
        <time>2016-09-10T16:19:50Z</time>
      </trkpt>
      <trkpt lat="42.7556" lon="1.76424">
        <ele>763</ele>
        <time>2016-09-10T16:19:51Z</time>
      </trkpt>
      <trkpt lat="42.75561" lon="1.76425">
        <ele>763</ele>
        <time>2016-09-10T16:19:52Z</time>
      </trkpt>
      <trkpt lat="42.75562" lon="1.76425">
        <ele>762</ele>
        <time>2016-09-10T16:19:53Z</time>
      </trkpt>
      <trkpt lat="42.75563" lon="1.76426">
        <ele>762</ele>
        <time>2016-09-10T16:19:54Z</time>
      </trkpt>
      <trkpt lat="42.75566" lon="1.76428">
        <ele>760</ele>
        <time>2016-09-10T16:19:58Z</time>
      </trkpt>
      <trkpt lat="42.75568" lon="1.76428">
        <ele>760</ele>
        <time>2016-09-10T16:19:59Z</time>
      </trkpt>
      <trkpt lat="42.75569" lon="1.76429">
        <ele>759</ele>
        <time>2016-09-10T16:20:00Z</time>
      </trkpt>
      <trkpt lat="42.7557" lon="1.76429">
        <ele>759</ele>
        <time>2016-09-10T16:20:01Z</time>
      </trkpt>
      <trkpt lat="42.75571" lon="1.76429">
        <ele>758</ele>
        <time>2016-09-10T16:20:02Z</time>
      </trkpt>
      <trkpt lat="42.75574" lon="1.76431">
        <ele>757</ele>
        <time>2016-09-10T16:20:04Z</time>
      </trkpt>
      <trkpt lat="42.75575" lon="1.76433">
        <ele>756</ele>
        <time>2016-09-10T16:20:05Z</time>
      </trkpt>
      <trkpt lat="42.75576" lon="1.76434">
        <ele>755</ele>
        <time>2016-09-10T16:20:06Z</time>
      </trkpt>
      <trkpt lat="42.75577" lon="1.76435">
        <ele>755</ele>
        <time>2016-09-10T16:20:07Z</time>
      </trkpt>
      <trkpt lat="42.75577" lon="1.76436">
        <ele>755</ele>
        <time>2016-09-10T16:20:08Z</time>
      </trkpt>
      <trkpt lat="42.75584" lon="1.76439">
        <ele>751</ele>
        <time>2016-09-10T16:20:15Z</time>
      </trkpt>
      <trkpt lat="42.75585" lon="1.76438">
        <ele>751</ele>
        <time>2016-09-10T16:20:16Z</time>
      </trkpt>
      <trkpt lat="42.75586" lon="1.76436">
        <ele>751</ele>
        <time>2016-09-10T16:20:17Z</time>
      </trkpt>
      <trkpt lat="42.75587" lon="1.76436">
        <ele>750</ele>
        <time>2016-09-10T16:20:18Z</time>
      </trkpt>
      <trkpt lat="42.75589" lon="1.76436">
        <ele>749</ele>
        <time>2016-09-10T16:20:19Z</time>
      </trkpt>
      <trkpt lat="42.75591" lon="1.76435">
        <ele>749</ele>
        <time>2016-09-10T16:20:22Z</time>
      </trkpt>
      <trkpt lat="42.75592" lon="1.76432">
        <ele>748</ele>
        <time>2016-09-10T16:20:24Z</time>
      </trkpt>
      <trkpt lat="42.75594" lon="1.76431">
        <ele>748</ele>
        <time>2016-09-10T16:20:25Z</time>
      </trkpt>
      <trkpt lat="42.75595" lon="1.76429">
        <ele>748</ele>
        <time>2016-09-10T16:20:26Z</time>
      </trkpt>
      <trkpt lat="42.75596" lon="1.76428">
        <ele>748</ele>
        <time>2016-09-10T16:20:27Z</time>
      </trkpt>
      <trkpt lat="42.75596" lon="1.76426">
        <ele>748</ele>
        <time>2016-09-10T16:20:28Z</time>
      </trkpt>
      <trkpt lat="42.75597" lon="1.76424">
        <ele>748</ele>
        <time>2016-09-10T16:20:29Z</time>
      </trkpt>
      <trkpt lat="42.75598" lon="1.76422">
        <ele>747</ele>
        <time>2016-09-10T16:20:30Z</time>
      </trkpt>
      <trkpt lat="42.75599" lon="1.76421">
        <ele>747</ele>
        <time>2016-09-10T16:20:31Z</time>
      </trkpt>
      <trkpt lat="42.75601" lon="1.7642">
        <ele>746</ele>
        <time>2016-09-10T16:20:32Z</time>
      </trkpt>
      <trkpt lat="42.75602" lon="1.76419">
        <ele>746</ele>
        <time>2016-09-10T16:20:33Z</time>
      </trkpt>
      <trkpt lat="42.75603" lon="1.76418">
        <ele>745</ele>
        <time>2016-09-10T16:20:34Z</time>
      </trkpt>
      <trkpt lat="42.75606" lon="1.76411">
        <ele>745</ele>
        <time>2016-09-10T16:20:39Z</time>
      </trkpt>
      <trkpt lat="42.75607" lon="1.76411">
        <ele>744</ele>
        <time>2016-09-10T16:20:49Z</time>
      </trkpt>
      <trkpt lat="42.75609" lon="1.7641">
        <ele>744</ele>
        <time>2016-09-10T16:20:57Z</time>
      </trkpt>
      <trkpt lat="42.75609" lon="1.7641">
        <ele>744</ele>
        <time>2016-09-10T16:20:58Z</time>
      </trkpt>
      <trkpt lat="42.7561" lon="1.7641">
        <ele>743</ele>
        <time>2016-09-10T16:20:59Z</time>
      </trkpt>
      <trkpt lat="42.7561" lon="1.7641">
        <ele>743</ele>
        <time>2016-09-10T16:21:00Z</time>
      </trkpt>
      <trkpt lat="42.75611" lon="1.76411">
        <ele>743</ele>
        <time>2016-09-10T16:21:01Z</time>
      </trkpt>
      <trkpt lat="42.75612" lon="1.7641">
        <ele>742</ele>
        <time>2016-09-10T16:21:04Z</time>
      </trkpt>
      <trkpt lat="42.75613" lon="1.7641">
        <ele>742</ele>
        <time>2016-09-10T16:21:05Z</time>
      </trkpt>
      <trkpt lat="42.75613" lon="1.7641">
        <ele>742</ele>
        <time>2016-09-10T16:21:06Z</time>
      </trkpt>
      <trkpt lat="42.75614" lon="1.7641">
        <ele>741</ele>
        <time>2016-09-10T16:21:07Z</time>
      </trkpt>
      <trkpt lat="42.75615" lon="1.7641">
        <ele>741</ele>
        <time>2016-09-10T16:21:08Z</time>
      </trkpt>
      <trkpt lat="42.75617" lon="1.76409">
        <ele>740</ele>
        <time>2016-09-10T16:21:12Z</time>
      </trkpt>
      <trkpt lat="42.75618" lon="1.76409">
        <ele>739</ele>
        <time>2016-09-10T16:21:13Z</time>
      </trkpt>
      <trkpt lat="42.75619" lon="1.76408">
        <ele>739</ele>
        <time>2016-09-10T16:21:14Z</time>
      </trkpt>
      <trkpt lat="42.7562" lon="1.76408">
        <ele>739</ele>
        <time>2016-09-10T16:21:15Z</time>
      </trkpt>
      <trkpt lat="42.75622" lon="1.76408">
        <ele>738</ele>
        <time>2016-09-10T16:21:16Z</time>
      </trkpt>
      <trkpt lat="42.75625" lon="1.76409">
        <ele>736</ele>
        <time>2016-09-10T16:21:18Z</time>
      </trkpt>
      <trkpt lat="42.75626" lon="1.76409">
        <ele>736</ele>
        <time>2016-09-10T16:21:19Z</time>
      </trkpt>
      <trkpt lat="42.75627" lon="1.76408">
        <ele>735</ele>
        <time>2016-09-10T16:21:20Z</time>
      </trkpt>
      <trkpt lat="42.75628" lon="1.76408">
        <ele>735</ele>
        <time>2016-09-10T16:21:21Z</time>
      </trkpt>
      <trkpt lat="42.75628" lon="1.76408">
        <ele>735</ele>
        <time>2016-09-10T16:21:22Z</time>
      </trkpt>
      <trkpt lat="42.75629" lon="1.76408">
        <ele>734</ele>
        <time>2016-09-10T16:21:23Z</time>
      </trkpt>
      <trkpt lat="42.75631" lon="1.76408">
        <ele>734</ele>
        <time>2016-09-10T16:21:25Z</time>
      </trkpt>
      <trkpt lat="42.75632" lon="1.76407">
        <ele>733</ele>
        <time>2016-09-10T16:21:26Z</time>
      </trkpt>
      <trkpt lat="42.75632" lon="1.76407">
        <ele>733</ele>
        <time>2016-09-10T16:21:27Z</time>
      </trkpt>
      <trkpt lat="42.75633" lon="1.76407">
        <ele>732</ele>
        <time>2016-09-10T16:21:28Z</time>
      </trkpt>
      <trkpt lat="42.75634" lon="1.76407">
        <ele>732</ele>
        <time>2016-09-10T16:21:29Z</time>
      </trkpt>
      <trkpt lat="42.75636" lon="1.76405">
        <ele>731</ele>
        <time>2016-09-10T16:21:32Z</time>
      </trkpt>
      <trkpt lat="42.75637" lon="1.76404">
        <ele>731</ele>
        <time>2016-09-10T16:21:33Z</time>
      </trkpt>
      <trkpt lat="42.75638" lon="1.76404">
        <ele>730</ele>
        <time>2016-09-10T16:21:34Z</time>
      </trkpt>
      <trkpt lat="42.75639" lon="1.76404">
        <ele>730</ele>
        <time>2016-09-10T16:21:35Z</time>
      </trkpt>
      <trkpt lat="42.75642" lon="1.76403">
        <ele>728</ele>
        <time>2016-09-10T16:21:39Z</time>
      </trkpt>
      <trkpt lat="42.75642" lon="1.76402">
        <ele>728</ele>
        <time>2016-09-10T16:21:40Z</time>
      </trkpt>
      <trkpt lat="42.75642" lon="1.76402">
        <ele>728</ele>
        <time>2016-09-10T16:21:41Z</time>
      </trkpt>
      <trkpt lat="42.75643" lon="1.76401">
        <ele>728</ele>
        <time>2016-09-10T16:21:42Z</time>
      </trkpt>
      <trkpt lat="42.75644" lon="1.764">
        <ele>727</ele>
        <time>2016-09-10T16:21:43Z</time>
      </trkpt>
      <trkpt lat="42.75646" lon="1.764">
        <ele>726</ele>
        <time>2016-09-10T16:21:46Z</time>
      </trkpt>
      <trkpt lat="42.75646" lon="1.764">
        <ele>726</ele>
        <time>2016-09-10T16:21:47Z</time>
      </trkpt>
      <trkpt lat="42.75647" lon="1.76399">
        <ele>726</ele>
        <time>2016-09-10T16:21:48Z</time>
      </trkpt>
      <trkpt lat="42.75647" lon="1.76399">
        <ele>726</ele>
        <time>2016-09-10T16:21:49Z</time>
      </trkpt>
      <trkpt lat="42.75647" lon="1.76398">
        <ele>725</ele>
        <time>2016-09-10T16:21:50Z</time>
      </trkpt>
      <trkpt lat="42.75648" lon="1.76397">
        <ele>725</ele>
        <time>2016-09-10T16:21:51Z</time>
      </trkpt>
      <trkpt lat="42.75649" lon="1.76396">
        <ele>725</ele>
        <time>2016-09-10T16:21:53Z</time>
      </trkpt>
      <trkpt lat="42.7565" lon="1.76397">
        <ele>724</ele>
        <time>2016-09-10T16:21:54Z</time>
      </trkpt>
      <trkpt lat="42.75651" lon="1.76399">
        <ele>723</ele>
        <time>2016-09-10T16:21:55Z</time>
      </trkpt>
      <trkpt lat="42.75653" lon="1.76402">
        <ele>722</ele>
        <time>2016-09-10T16:21:56Z</time>
      </trkpt>
      <trkpt lat="42.75654" lon="1.76404">
        <ele>721</ele>
        <time>2016-09-10T16:21:57Z</time>
      </trkpt>
      <trkpt lat="42.75655" lon="1.76404">
        <ele>720</ele>
        <time>2016-09-10T16:21:59Z</time>
      </trkpt>
      <trkpt lat="42.75656" lon="1.76404">
        <ele>720</ele>
        <time>2016-09-10T16:22:00Z</time>
      </trkpt>
      <trkpt lat="42.75657" lon="1.76404">
        <ele>720</ele>
        <time>2016-09-10T16:22:01Z</time>
      </trkpt>
      <trkpt lat="42.75657" lon="1.76405">
        <ele>719</ele>
        <time>2016-09-10T16:22:02Z</time>
      </trkpt>
      <trkpt lat="42.75657" lon="1.76405">
        <ele>719</ele>
        <time>2016-09-10T16:22:03Z</time>
      </trkpt>
      <trkpt lat="42.7566" lon="1.76405">
        <ele>717</ele>
        <time>2016-09-10T16:22:06Z</time>
      </trkpt>
      <trkpt lat="42.75662" lon="1.76406">
        <ele>717</ele>
        <time>2016-09-10T16:22:07Z</time>
      </trkpt>
      <trkpt lat="42.75663" lon="1.76406">
        <ele>716</ele>
        <time>2016-09-10T16:22:08Z</time>
      </trkpt>
      <trkpt lat="42.75663" lon="1.76406">
        <ele>716</ele>
        <time>2016-09-10T16:22:09Z</time>
      </trkpt>
      <trkpt lat="42.75664" lon="1.76406">
        <ele>715</ele>
        <time>2016-09-10T16:22:10Z</time>
      </trkpt>
      <trkpt lat="42.75664" lon="1.76405">
        <ele>715</ele>
        <time>2016-09-10T16:22:14Z</time>
      </trkpt>
      <trkpt lat="42.75664" lon="1.76404">
        <ele>715</ele>
        <time>2016-09-10T16:22:15Z</time>
      </trkpt>
      <trkpt lat="42.75664" lon="1.76403">
        <ele>716</ele>
        <time>2016-09-10T16:22:16Z</time>
      </trkpt>
      <trkpt lat="42.75664" lon="1.76403">
        <ele>716</ele>
        <time>2016-09-10T16:22:17Z</time>
      </trkpt>
      <trkpt lat="42.75664" lon="1.76402">
        <ele>716</ele>
        <time>2016-09-10T16:22:18Z</time>
      </trkpt>
      <trkpt lat="42.75666" lon="1.76397">
        <ele>715</ele>
        <time>2016-09-10T16:22:22Z</time>
      </trkpt>
      <trkpt lat="42.75666" lon="1.76396">
        <ele>715</ele>
        <time>2016-09-10T16:22:23Z</time>
      </trkpt>
      <trkpt lat="42.75666" lon="1.76395">
        <ele>715</ele>
        <time>2016-09-10T16:22:24Z</time>
      </trkpt>
      <trkpt lat="42.75667" lon="1.76394">
        <ele>715</ele>
        <time>2016-09-10T16:22:25Z</time>
      </trkpt>
      <trkpt lat="42.75669" lon="1.76388">
        <ele>714</ele>
        <time>2016-09-10T16:22:29Z</time>
      </trkpt>
      <trkpt lat="42.75669" lon="1.76386">
        <ele>714</ele>
        <time>2016-09-10T16:22:30Z</time>
      </trkpt>
      <trkpt lat="42.7567" lon="1.76386">
        <ele>714</ele>
        <time>2016-09-10T16:22:31Z</time>
      </trkpt>
      <trkpt lat="42.7567" lon="1.76385">
        <ele>714</ele>
        <time>2016-09-10T16:22:32Z</time>
      </trkpt>
      <trkpt lat="42.75671" lon="1.76383">
        <ele>714</ele>
        <time>2016-09-10T16:22:33Z</time>
      </trkpt>
      <trkpt lat="42.75671" lon="1.76381">
        <ele>714</ele>
        <time>2016-09-10T16:22:35Z</time>
      </trkpt>
      <trkpt lat="42.75671" lon="1.76379">
        <ele>714</ele>
        <time>2016-09-10T16:22:36Z</time>
      </trkpt>
      <trkpt lat="42.75671" lon="1.76378">
        <ele>714</ele>
        <time>2016-09-10T16:22:37Z</time>
      </trkpt>
      <trkpt lat="42.75671" lon="1.76377">
        <ele>714</ele>
        <time>2016-09-10T16:22:38Z</time>
      </trkpt>
      <trkpt lat="42.75671" lon="1.76376">
        <ele>714</ele>
        <time>2016-09-10T16:22:39Z</time>
      </trkpt>
      <trkpt lat="42.75671" lon="1.7637">
        <ele>714</ele>
        <time>2016-09-10T16:22:44Z</time>
      </trkpt>
      <trkpt lat="42.75671" lon="1.76368">
        <ele>714</ele>
        <time>2016-09-10T16:22:46Z</time>
      </trkpt>
      <trkpt lat="42.75671" lon="1.76367">
        <ele>714</ele>
        <time>2016-09-10T16:22:47Z</time>
      </trkpt>
      <trkpt lat="42.75672" lon="1.76366">
        <ele>714</ele>
        <time>2016-09-10T16:22:48Z</time>
      </trkpt>
      <trkpt lat="42.75673" lon="1.76366">
        <ele>713</ele>
        <time>2016-09-10T16:22:49Z</time>
      </trkpt>
      <trkpt lat="42.75676" lon="1.76366">
        <ele>711</ele>
        <time>2016-09-10T16:22:53Z</time>
      </trkpt>
      <trkpt lat="42.75676" lon="1.76366">
        <ele>711</ele>
        <time>2016-09-10T16:22:54Z</time>
      </trkpt>
      <trkpt lat="42.75676" lon="1.76366">
        <ele>711</ele>
        <time>2016-09-10T16:22:55Z</time>
      </trkpt>
      <trkpt lat="42.75676" lon="1.76366">
        <ele>711</ele>
        <time>2016-09-10T16:22:56Z</time>
      </trkpt>
      <trkpt lat="42.75676" lon="1.76366">
        <ele>711</ele>
        <time>2016-09-10T16:22:57Z</time>
      </trkpt>
      <trkpt lat="42.75676" lon="1.76365">
        <ele>711</ele>
        <time>2016-09-10T16:22:58Z</time>
      </trkpt>
      <trkpt lat="42.75676" lon="1.76365">
        <ele>711</ele>
        <time>2016-09-10T16:23:02Z</time>
      </trkpt>
      <trkpt lat="42.75676" lon="1.76365">
        <ele>711</ele>
        <time>2016-09-10T16:23:04Z</time>
      </trkpt>
      <trkpt lat="42.75678" lon="1.76365">
        <ele>710</ele>
        <time>2016-09-10T16:23:05Z</time>
      </trkpt>
      <trkpt lat="42.75678" lon="1.76365">
        <ele>710</ele>
        <time>2016-09-10T16:23:06Z</time>
      </trkpt>
      <trkpt lat="42.75679" lon="1.76365">
        <ele>709</ele>
        <time>2016-09-10T16:23:07Z</time>
      </trkpt>
      <trkpt lat="42.75681" lon="1.76365">
        <ele>707</ele>
        <time>2016-09-10T16:23:08Z</time>
      </trkpt>
      <trkpt lat="42.75687" lon="1.76369">
        <ele>704</ele>
        <time>2016-09-10T16:23:12Z</time>
      </trkpt>
      <trkpt lat="42.75689" lon="1.7637">
        <ele>703</ele>
        <time>2016-09-10T16:23:13Z</time>
      </trkpt>
      <trkpt lat="42.7569" lon="1.7637">
        <ele>702</ele>
        <time>2016-09-10T16:23:14Z</time>
      </trkpt>
      <trkpt lat="42.7569" lon="1.7637">
        <ele>702</ele>
        <time>2016-09-10T16:23:15Z</time>
      </trkpt>
      <trkpt lat="42.7569" lon="1.7637">
        <ele>702</ele>
        <time>2016-09-10T16:23:16Z</time>
      </trkpt>
      <trkpt lat="42.75692" lon="1.7637">
        <ele>700</ele>
        <time>2016-09-10T16:23:20Z</time>
      </trkpt>
      <trkpt lat="42.75692" lon="1.7637">
        <ele>700</ele>
        <time>2016-09-10T16:23:21Z</time>
      </trkpt>
      <trkpt lat="42.75694" lon="1.7637">
        <ele>699</ele>
        <time>2016-09-10T16:23:22Z</time>
      </trkpt>
      <trkpt lat="42.75696" lon="1.7637">
        <ele>698</ele>
        <time>2016-09-10T16:23:23Z</time>
      </trkpt>
      <trkpt lat="42.75697" lon="1.7637">
        <ele>697</ele>
        <time>2016-09-10T16:23:24Z</time>
      </trkpt>
      <trkpt lat="42.75701" lon="1.7637">
        <ele>694</ele>
        <time>2016-09-10T16:23:29Z</time>
      </trkpt>
      <trkpt lat="42.75702" lon="1.76373">
        <ele>694</ele>
        <time>2016-09-10T16:23:30Z</time>
      </trkpt>
      <trkpt lat="42.75703" lon="1.76376">
        <ele>694</ele>
        <time>2016-09-10T16:23:31Z</time>
      </trkpt>
      <trkpt lat="42.75703" lon="1.76378">
        <ele>693</ele>
        <time>2016-09-10T16:23:32Z</time>
      </trkpt>
      <trkpt lat="42.75704" lon="1.7638">
        <ele>692</ele>
        <time>2016-09-10T16:23:33Z</time>
      </trkpt>
      <trkpt lat="42.75707" lon="1.76383">
        <ele>691</ele>
        <time>2016-09-10T16:23:36Z</time>
      </trkpt>
      <trkpt lat="42.75707" lon="1.76383">
        <ele>691</ele>
        <time>2016-09-10T16:23:38Z</time>
      </trkpt>
      <trkpt lat="42.75707" lon="1.76383">
        <ele>691</ele>
        <time>2016-09-10T16:23:39Z</time>
      </trkpt>
      <trkpt lat="42.75707" lon="1.76383">
        <ele>691</ele>
        <time>2016-09-10T16:23:40Z</time>
      </trkpt>
      <trkpt lat="42.75707" lon="1.76383">
        <ele>691</ele>
        <time>2016-09-10T16:23:41Z</time>
      </trkpt>
      <trkpt lat="42.75707" lon="1.76382">
        <ele>690</ele>
        <time>2016-09-10T16:23:42Z</time>
      </trkpt>
      <trkpt lat="42.75711" lon="1.7638">
        <ele>688</ele>
        <time>2016-09-10T16:23:45Z</time>
      </trkpt>
      <trkpt lat="42.75713" lon="1.76381">
        <ele>687</ele>
        <time>2016-09-10T16:23:46Z</time>
      </trkpt>
      <trkpt lat="42.75714" lon="1.76383">
        <ele>686</ele>
        <time>2016-09-10T16:23:47Z</time>
      </trkpt>
      <trkpt lat="42.75715" lon="1.76384">
        <ele>685</ele>
        <time>2016-09-10T16:23:48Z</time>
      </trkpt>
      <trkpt lat="42.75716" lon="1.76385">
        <ele>685</ele>
        <time>2016-09-10T16:23:49Z</time>
      </trkpt>
      <trkpt lat="42.75718" lon="1.76386">
        <ele>683</ele>
        <time>2016-09-10T16:23:52Z</time>
      </trkpt>
      <trkpt lat="42.75719" lon="1.76387">
        <ele>682</ele>
        <time>2016-09-10T16:23:53Z</time>
      </trkpt>
      <trkpt lat="42.7572" lon="1.76388">
        <ele>681</ele>
        <time>2016-09-10T16:23:54Z</time>
      </trkpt>
      <trkpt lat="42.75721" lon="1.76389">
        <ele>681</ele>
        <time>2016-09-10T16:23:55Z</time>
      </trkpt>
      <trkpt lat="42.75722" lon="1.7639">
        <ele>680</ele>
        <time>2016-09-10T16:23:56Z</time>
      </trkpt>
      <trkpt lat="42.75723" lon="1.76396">
        <ele>679</ele>
        <time>2016-09-10T16:24:00Z</time>
      </trkpt>
      <trkpt lat="42.75724" lon="1.76398">
        <ele>679</ele>
        <time>2016-09-10T16:24:01Z</time>
      </trkpt>
      <trkpt lat="42.75725" lon="1.76399">
        <ele>678</ele>
        <time>2016-09-10T16:24:02Z</time>
      </trkpt>
      <trkpt lat="42.75726" lon="1.764">
        <ele>677</ele>
        <time>2016-09-10T16:24:03Z</time>
      </trkpt>
      <trkpt lat="42.75726" lon="1.76401">
        <ele>677</ele>
        <time>2016-09-10T16:24:04Z</time>
      </trkpt>
      <trkpt lat="42.75728" lon="1.76401">
        <ele>676</ele>
        <time>2016-09-10T16:24:06Z</time>
      </trkpt>
      <trkpt lat="42.75729" lon="1.76403">
        <ele>675</ele>
        <time>2016-09-10T16:24:07Z</time>
      </trkpt>
      <trkpt lat="42.75729" lon="1.76404">
        <ele>675</ele>
        <time>2016-09-10T16:24:08Z</time>
      </trkpt>
      <trkpt lat="42.75729" lon="1.76405">
        <ele>675</ele>
        <time>2016-09-10T16:24:09Z</time>
      </trkpt>
      <trkpt lat="42.75729" lon="1.76406">
        <ele>675</ele>
        <time>2016-09-10T16:24:10Z</time>
      </trkpt>
      <trkpt lat="42.75729" lon="1.76414">
        <ele>675</ele>
        <time>2016-09-10T16:24:16Z</time>
      </trkpt>
      <trkpt lat="42.75729" lon="1.76415">
        <ele>675</ele>
        <time>2016-09-10T16:24:17Z</time>
      </trkpt>
      <trkpt lat="42.75729" lon="1.76416">
        <ele>674</ele>
        <time>2016-09-10T16:24:18Z</time>
      </trkpt>
      <trkpt lat="42.75729" lon="1.76416">
        <ele>674</ele>
        <time>2016-09-10T16:24:19Z</time>
      </trkpt>
      <trkpt lat="42.75729" lon="1.76417">
        <ele>674</ele>
        <time>2016-09-10T16:24:20Z</time>
      </trkpt>
      <trkpt lat="42.75728" lon="1.76419">
        <ele>675</ele>
        <time>2016-09-10T16:24:21Z</time>
      </trkpt>
      <trkpt lat="42.75727" lon="1.76421">
        <ele>676</ele>
        <time>2016-09-10T16:24:23Z</time>
      </trkpt>
      <trkpt lat="42.75725" lon="1.76426">
        <ele>677</ele>
        <time>2016-09-10T16:24:27Z</time>
      </trkpt>
      <trkpt lat="42.75725" lon="1.76426">
        <ele>677</ele>
        <time>2016-09-10T16:24:28Z</time>
      </trkpt>
      <trkpt lat="42.75725" lon="1.76427">
        <ele>677</ele>
        <time>2016-09-10T16:24:29Z</time>
      </trkpt>
      <trkpt lat="42.75725" lon="1.76427">
        <ele>676</ele>
        <time>2016-09-10T16:24:30Z</time>
      </trkpt>
      <trkpt lat="42.75725" lon="1.76427">
        <ele>676</ele>
        <time>2016-09-10T16:24:31Z</time>
      </trkpt>
      <trkpt lat="42.75729" lon="1.76418">
        <ele>674</ele>
        <time>2016-09-10T16:24:37Z</time>
      </trkpt>
      <trkpt lat="42.7573" lon="1.76417">
        <ele>674</ele>
        <time>2016-09-10T16:24:38Z</time>
      </trkpt>
      <trkpt lat="42.75731" lon="1.76416">
        <ele>673</ele>
        <time>2016-09-10T16:24:39Z</time>
      </trkpt>
      <trkpt lat="42.75733" lon="1.76415">
        <ele>672</ele>
        <time>2016-09-10T16:24:40Z</time>
      </trkpt>
      <trkpt lat="42.75734" lon="1.76413">
        <ele>672</ele>
        <time>2016-09-10T16:24:41Z</time>
      </trkpt>
      <trkpt lat="42.75736" lon="1.76407">
        <ele>670</ele>
        <time>2016-09-10T16:24:47Z</time>
      </trkpt>
      <trkpt lat="42.75736" lon="1.76406">
        <ele>670</ele>
        <time>2016-09-10T16:24:48Z</time>
      </trkpt>
      <trkpt lat="42.75736" lon="1.76406">
        <ele>670</ele>
        <time>2016-09-10T16:24:49Z</time>
      </trkpt>
      <trkpt lat="42.75737" lon="1.76405">
        <ele>670</ele>
        <time>2016-09-10T16:24:50Z</time>
      </trkpt>
      <trkpt lat="42.75739" lon="1.764">
        <ele>669</ele>
        <time>2016-09-10T16:24:54Z</time>
      </trkpt>
      <trkpt lat="42.75739" lon="1.76399">
        <ele>669</ele>
        <time>2016-09-10T16:24:55Z</time>
      </trkpt>
      <trkpt lat="42.75738" lon="1.76397">
        <ele>669</ele>
        <time>2016-09-10T16:24:56Z</time>
      </trkpt>
      <trkpt lat="42.75738" lon="1.76396">
        <ele>669</ele>
        <time>2016-09-10T16:24:57Z</time>
      </trkpt>
      <trkpt lat="42.75738" lon="1.76395">
        <ele>669</ele>
        <time>2016-09-10T16:24:58Z</time>
      </trkpt>
      <trkpt lat="42.75737" lon="1.7639">
        <ele>670</ele>
        <time>2016-09-10T16:25:01Z</time>
      </trkpt>
      <trkpt lat="42.75738" lon="1.76389">
        <ele>670</ele>
        <time>2016-09-10T16:25:02Z</time>
      </trkpt>
      <trkpt lat="42.75738" lon="1.76387">
        <ele>670</ele>
        <time>2016-09-10T16:25:03Z</time>
      </trkpt>
      <trkpt lat="42.75737" lon="1.76385">
        <ele>670</ele>
        <time>2016-09-10T16:25:04Z</time>
      </trkpt>
      <trkpt lat="42.75737" lon="1.76384">
        <ele>670</ele>
        <time>2016-09-10T16:25:05Z</time>
      </trkpt>
      <trkpt lat="42.75736" lon="1.76382">
        <ele>671</ele>
        <time>2016-09-10T16:25:06Z</time>
      </trkpt>
      <trkpt lat="42.75736" lon="1.76378">
        <ele>672</ele>
        <time>2016-09-10T16:25:08Z</time>
      </trkpt>
      <trkpt lat="42.75735" lon="1.76376">
        <ele>672</ele>
        <time>2016-09-10T16:25:09Z</time>
      </trkpt>
      <trkpt lat="42.75735" lon="1.76374">
        <ele>672</ele>
        <time>2016-09-10T16:25:10Z</time>
      </trkpt>
      <trkpt lat="42.75735" lon="1.76373">
        <ele>672</ele>
        <time>2016-09-10T16:25:11Z</time>
      </trkpt>
      <trkpt lat="42.75735" lon="1.76371">
        <ele>672</ele>
        <time>2016-09-10T16:25:12Z</time>
      </trkpt>
      <trkpt lat="42.75735" lon="1.76368">
        <ele>671</ele>
        <time>2016-09-10T16:25:14Z</time>
      </trkpt>
      <trkpt lat="42.75735" lon="1.76368">
        <ele>672</ele>
        <time>2016-09-10T16:25:15Z</time>
      </trkpt>
      <trkpt lat="42.75735" lon="1.76368">
        <ele>672</ele>
        <time>2016-09-10T16:25:16Z</time>
      </trkpt>
      <trkpt lat="42.75735" lon="1.76368">
        <ele>672</ele>
        <time>2016-09-10T16:25:17Z</time>
      </trkpt>
      <trkpt lat="42.75735" lon="1.76368">
        <ele>672</ele>
        <time>2016-09-10T16:25:18Z</time>
      </trkpt>
      <trkpt lat="42.75738" lon="1.7637">
        <ele>670</ele>
        <time>2016-09-10T16:25:22Z</time>
      </trkpt>
      <trkpt lat="42.75739" lon="1.76371">
        <ele>669</ele>
        <time>2016-09-10T16:25:23Z</time>
      </trkpt>
      <trkpt lat="42.75741" lon="1.76371">
        <ele>668</ele>
        <time>2016-09-10T16:25:24Z</time>
      </trkpt>
      <trkpt lat="42.75741" lon="1.76371">
        <ele>668</ele>
        <time>2016-09-10T16:25:25Z</time>
      </trkpt>
      <trkpt lat="42.75741" lon="1.76371">
        <ele>668</ele>
        <time>2016-09-10T16:25:26Z</time>
      </trkpt>
      <trkpt lat="42.75743" lon="1.76371">
        <ele>667</ele>
        <time>2016-09-10T16:25:29Z</time>
      </trkpt>
      <trkpt lat="42.75743" lon="1.76371">
        <ele>667</ele>
        <time>2016-09-10T16:25:30Z</time>
      </trkpt>
      <trkpt lat="42.75743" lon="1.76371">
        <ele>667</ele>
        <time>2016-09-10T16:25:31Z</time>
      </trkpt>
      <trkpt lat="42.75744" lon="1.76373">
        <ele>666</ele>
        <time>2016-09-10T16:25:32Z</time>
      </trkpt>
      <trkpt lat="42.75745" lon="1.76373">
        <ele>665</ele>
        <time>2016-09-10T16:25:33Z</time>
      </trkpt>
      <trkpt lat="42.75745" lon="1.76376">
        <ele>665</ele>
        <time>2016-09-10T16:25:34Z</time>
      </trkpt>
      <trkpt lat="42.75745" lon="1.7638">
        <ele>665</ele>
        <time>2016-09-10T16:25:36Z</time>
      </trkpt>
      <trkpt lat="42.75745" lon="1.76382">
        <ele>665</ele>
        <time>2016-09-10T16:25:37Z</time>
      </trkpt>
      <trkpt lat="42.75745" lon="1.76383">
        <ele>665</ele>
        <time>2016-09-10T16:25:38Z</time>
      </trkpt>
      <trkpt lat="42.75746" lon="1.76384">
        <ele>665</ele>
        <time>2016-09-10T16:25:39Z</time>
      </trkpt>
      <trkpt lat="42.75749" lon="1.76386">
        <ele>663</ele>
        <time>2016-09-10T16:25:42Z</time>
      </trkpt>
      <trkpt lat="42.7575" lon="1.76387">
        <ele>662</ele>
        <time>2016-09-10T16:25:43Z</time>
      </trkpt>
      <trkpt lat="42.75751" lon="1.76388">
        <ele>661</ele>
        <time>2016-09-10T16:25:44Z</time>
      </trkpt>
      <trkpt lat="42.75752" lon="1.76389">
        <ele>660</ele>
        <time>2016-09-10T16:25:45Z</time>
      </trkpt>
      <trkpt lat="42.75753" lon="1.7639">
        <ele>660</ele>
        <time>2016-09-10T16:25:46Z</time>
      </trkpt>
      <trkpt lat="42.75754" lon="1.76393">
        <ele>659</ele>
        <time>2016-09-10T16:25:49Z</time>
      </trkpt>
      <trkpt lat="42.75755" lon="1.76394">
        <ele>659</ele>
        <time>2016-09-10T16:25:50Z</time>
      </trkpt>
      <trkpt lat="42.75755" lon="1.76394">
        <ele>658</ele>
        <time>2016-09-10T16:25:51Z</time>
      </trkpt>
      <trkpt lat="42.75756" lon="1.76395">
        <ele>658</ele>
        <time>2016-09-10T16:25:52Z</time>
      </trkpt>
      <trkpt lat="42.75756" lon="1.76395">
        <ele>658</ele>
        <time>2016-09-10T16:25:53Z</time>
      </trkpt>
      <trkpt lat="42.7576" lon="1.76399">
        <ele>655</ele>
        <time>2016-09-10T16:25:57Z</time>
      </trkpt>
      <trkpt lat="42.7576" lon="1.764">
        <ele>655</ele>
        <time>2016-09-10T16:25:58Z</time>
      </trkpt>
      <trkpt lat="42.75762" lon="1.76402">
        <ele>654</ele>
        <time>2016-09-10T16:25:59Z</time>
      </trkpt>
      <trkpt lat="42.75762" lon="1.76403">
        <ele>653</ele>
        <time>2016-09-10T16:26:00Z</time>
      </trkpt>
      <trkpt lat="42.75763" lon="1.76404">
        <ele>653</ele>
        <time>2016-09-10T16:26:01Z</time>
      </trkpt>
      <trkpt lat="42.75765" lon="1.76406">
        <ele>652</ele>
        <time>2016-09-10T16:26:04Z</time>
      </trkpt>
      <trkpt lat="42.75765" lon="1.76407">
        <ele>652</ele>
        <time>2016-09-10T16:26:05Z</time>
      </trkpt>
      <trkpt lat="42.75765" lon="1.76407">
        <ele>652</ele>
        <time>2016-09-10T16:26:06Z</time>
      </trkpt>
      <trkpt lat="42.75765" lon="1.76408">
        <ele>651</ele>
        <time>2016-09-10T16:26:07Z</time>
      </trkpt>
      <trkpt lat="42.75766" lon="1.76409">
        <ele>651</ele>
        <time>2016-09-10T16:26:08Z</time>
      </trkpt>
      <trkpt lat="42.75766" lon="1.7641">
        <ele>651</ele>
        <time>2016-09-10T16:26:10Z</time>
      </trkpt>
      <trkpt lat="42.75767" lon="1.76411">
        <ele>650</ele>
        <time>2016-09-10T16:26:11Z</time>
      </trkpt>
      <trkpt lat="42.75767" lon="1.76411">
        <ele>650</ele>
        <time>2016-09-10T16:26:12Z</time>
      </trkpt>
      <trkpt lat="42.75767" lon="1.76411">
        <ele>650</ele>
        <time>2016-09-10T16:26:13Z</time>
      </trkpt>
      <trkpt lat="42.75767" lon="1.76411">
        <ele>650</ele>
        <time>2016-09-10T16:26:14Z</time>
      </trkpt>
      <trkpt lat="42.75772" lon="1.76413">
        <ele>648</ele>
        <time>2016-09-10T16:26:18Z</time>
      </trkpt>
      <trkpt lat="42.75774" lon="1.76414">
        <ele>648</ele>
        <time>2016-09-10T16:26:19Z</time>
      </trkpt>
      <trkpt lat="42.75775" lon="1.76414">
        <ele>647</ele>
        <time>2016-09-10T16:26:20Z</time>
      </trkpt>
      <trkpt lat="42.75776" lon="1.76414">
        <ele>647</ele>
        <time>2016-09-10T16:26:21Z</time>
      </trkpt>
      <trkpt lat="42.75776" lon="1.76414">
        <ele>647</ele>
        <time>2016-09-10T16:26:22Z</time>
      </trkpt>
      <trkpt lat="42.75778" lon="1.76414">
        <ele>646</ele>
        <time>2016-09-10T16:26:31Z</time>
      </trkpt>
      <trkpt lat="42.75781" lon="1.76412">
        <ele>645</ele>
        <time>2016-09-10T16:26:39Z</time>
      </trkpt>
      <trkpt lat="42.75781" lon="1.76411">
        <ele>645</ele>
        <time>2016-09-10T16:26:40Z</time>
      </trkpt>
      <trkpt lat="42.75781" lon="1.76409">
        <ele>645</ele>
        <time>2016-09-10T16:26:41Z</time>
      </trkpt>
      <trkpt lat="42.75781" lon="1.76407">
        <ele>645</ele>
        <time>2016-09-10T16:26:42Z</time>
      </trkpt>
      <trkpt lat="42.75782" lon="1.76406">
        <ele>644</ele>
        <time>2016-09-10T16:26:43Z</time>
      </trkpt>
      <trkpt lat="42.75782" lon="1.76404">
        <ele>644</ele>
        <time>2016-09-10T16:26:44Z</time>
      </trkpt>
      <trkpt lat="42.75786" lon="1.76397">
        <ele>643</ele>
        <time>2016-09-10T16:26:48Z</time>
      </trkpt>
      <trkpt lat="42.75786" lon="1.76395">
        <ele>643</ele>
        <time>2016-09-10T16:26:49Z</time>
      </trkpt>
      <trkpt lat="42.75787" lon="1.76394">
        <ele>642</ele>
        <time>2016-09-10T16:26:50Z</time>
      </trkpt>
      <trkpt lat="42.75788" lon="1.76393">
        <ele>642</ele>
        <time>2016-09-10T16:26:51Z</time>
      </trkpt>
      <trkpt lat="42.75788" lon="1.76392">
        <ele>642</ele>
        <time>2016-09-10T16:26:52Z</time>
      </trkpt>
      <trkpt lat="42.75791" lon="1.76388">
        <ele>641</ele>
        <time>2016-09-10T16:26:56Z</time>
      </trkpt>
      <trkpt lat="42.75792" lon="1.76388">
        <ele>640</ele>
        <time>2016-09-10T16:26:57Z</time>
      </trkpt>
      <trkpt lat="42.75792" lon="1.76389">
        <ele>640</ele>
        <time>2016-09-10T16:26:58Z</time>
      </trkpt>
      <trkpt lat="42.75793" lon="1.76389">
        <ele>640</ele>
        <time>2016-09-10T16:26:59Z</time>
      </trkpt>
      <trkpt lat="42.75793" lon="1.76389">
        <ele>640</ele>
        <time>2016-09-10T16:27:00Z</time>
      </trkpt>
      <trkpt lat="42.75793" lon="1.76389">
        <ele>640</ele>
        <time>2016-09-10T16:27:10Z</time>
      </trkpt>
      <trkpt lat="42.75793" lon="1.76389">
        <ele>640</ele>
        <time>2016-09-10T16:27:23Z</time>
      </trkpt>
      <trkpt lat="42.75793" lon="1.7639">
        <ele>640</ele>
        <time>2016-09-10T16:27:32Z</time>
      </trkpt>
      <trkpt lat="42.75795" lon="1.76379">
        <ele>639</ele>
        <time>2016-09-10T16:27:41Z</time>
      </trkpt>
      <trkpt lat="42.75796" lon="1.76378">
        <ele>639</ele>
        <time>2016-09-10T16:27:42Z</time>
      </trkpt>
      <trkpt lat="42.75796" lon="1.76376">
        <ele>639</ele>
        <time>2016-09-10T16:27:43Z</time>
      </trkpt>
      <trkpt lat="42.75796" lon="1.76375">
        <ele>639</ele>
        <time>2016-09-10T16:27:44Z</time>
      </trkpt>
      <trkpt lat="42.75797" lon="1.76372">
        <ele>638</ele>
        <time>2016-09-10T16:27:49Z</time>
      </trkpt>
      <trkpt lat="42.75797" lon="1.76371">
        <ele>638</ele>
        <time>2016-09-10T16:27:50Z</time>
      </trkpt>
      <trkpt lat="42.75797" lon="1.7637">
        <ele>638</ele>
        <time>2016-09-10T16:27:51Z</time>
      </trkpt>
      <trkpt lat="42.75797" lon="1.76369">
        <ele>638</ele>
        <time>2016-09-10T16:27:52Z</time>
      </trkpt>
      <trkpt lat="42.75797" lon="1.76368">
        <ele>638</ele>
        <time>2016-09-10T16:27:53Z</time>
      </trkpt>
      <trkpt lat="42.75796" lon="1.76358">
        <ele>638</ele>
        <time>2016-09-10T16:27:58Z</time>
      </trkpt>
      <trkpt lat="42.75796" lon="1.76357">
        <ele>638</ele>
        <time>2016-09-10T16:27:59Z</time>
      </trkpt>
      <trkpt lat="42.75796" lon="1.76356">
        <ele>638</ele>
        <time>2016-09-10T16:28:00Z</time>
      </trkpt>
      <trkpt lat="42.75796" lon="1.76355">
        <ele>638</ele>
        <time>2016-09-10T16:28:01Z</time>
      </trkpt>
      <trkpt lat="42.75795" lon="1.76355">
        <ele>638</ele>
        <time>2016-09-10T16:28:02Z</time>
      </trkpt>
      <trkpt lat="42.75795" lon="1.76355">
        <ele>638</ele>
        <time>2016-09-10T16:28:04Z</time>
      </trkpt>
      <trkpt lat="42.75795" lon="1.76349">
        <ele>639</ele>
        <time>2016-09-10T16:28:10Z</time>
      </trkpt>
      <trkpt lat="42.75795" lon="1.76349">
        <ele>639</ele>
        <time>2016-09-10T16:28:11Z</time>
      </trkpt>
      <trkpt lat="42.75795" lon="1.76349">
        <ele>639</ele>
        <time>2016-09-10T16:28:12Z</time>
      </trkpt>
      <trkpt lat="42.75795" lon="1.76349">
        <ele>639</ele>
        <time>2016-09-10T16:28:13Z</time>
      </trkpt>
      <trkpt lat="42.75795" lon="1.76349">
        <ele>639</ele>
        <time>2016-09-10T16:28:14Z</time>
      </trkpt>
      <trkpt lat="42.75794" lon="1.76347">
        <ele>639</ele>
        <time>2016-09-10T16:28:18Z</time>
      </trkpt>
      <trkpt lat="42.75799" lon="1.76345">
        <ele>637</ele>
        <time>2016-09-10T16:28:22Z</time>
      </trkpt>
      <trkpt lat="42.75801" lon="1.76345">
        <ele>636</ele>
        <time>2016-09-10T16:28:23Z</time>
      </trkpt>
      <trkpt lat="42.75802" lon="1.76345">
        <ele>636</ele>
        <time>2016-09-10T16:28:24Z</time>
      </trkpt>
      <trkpt lat="42.75803" lon="1.76346">
        <ele>635</ele>
        <time>2016-09-10T16:28:25Z</time>
      </trkpt>
      <trkpt lat="42.75804" lon="1.76346">
        <ele>635</ele>
        <time>2016-09-10T16:28:26Z</time>
      </trkpt>
      <trkpt lat="42.75804" lon="1.76347">
        <ele>635</ele>
        <time>2016-09-10T16:28:28Z</time>
      </trkpt>
      <trkpt lat="42.75805" lon="1.7635">
        <ele>635</ele>
        <time>2016-09-10T16:28:31Z</time>
      </trkpt>
      <trkpt lat="42.75806" lon="1.76352">
        <ele>634</ele>
        <time>2016-09-10T16:28:33Z</time>
      </trkpt>
      <trkpt lat="42.75807" lon="1.76355">
        <ele>634</ele>
        <time>2016-09-10T16:28:35Z</time>
      </trkpt>
      <trkpt lat="42.75807" lon="1.76356">
        <ele>634</ele>
        <time>2016-09-10T16:28:36Z</time>
      </trkpt>
      <trkpt lat="42.75808" lon="1.76357">
        <ele>634</ele>
        <time>2016-09-10T16:28:37Z</time>
      </trkpt>
      <trkpt lat="42.75809" lon="1.76357">
        <ele>633</ele>
        <time>2016-09-10T16:28:38Z</time>
      </trkpt>
      <trkpt lat="42.75809" lon="1.76358">
        <ele>633</ele>
        <time>2016-09-10T16:28:39Z</time>
      </trkpt>
      <trkpt lat="42.75811" lon="1.76362">
        <ele>632</ele>
        <time>2016-09-10T16:28:43Z</time>
      </trkpt>
      <trkpt lat="42.75812" lon="1.76369">
        <ele>632</ele>
        <time>2016-09-10T16:28:47Z</time>
      </trkpt>
      <trkpt lat="42.75812" lon="1.76371">
        <ele>632</ele>
        <time>2016-09-10T16:28:48Z</time>
      </trkpt>
      <trkpt lat="42.75812" lon="1.76373">
        <ele>632</ele>
        <time>2016-09-10T16:28:49Z</time>
      </trkpt>
      <trkpt lat="42.75812" lon="1.76375">
        <ele>632</ele>
        <time>2016-09-10T16:28:50Z</time>
      </trkpt>
      <trkpt lat="42.75812" lon="1.76376">
        <ele>632</ele>
        <time>2016-09-10T16:28:51Z</time>
      </trkpt>
      <trkpt lat="42.75812" lon="1.76378">
        <ele>632</ele>
        <time>2016-09-10T16:28:53Z</time>
      </trkpt>
      <trkpt lat="42.75812" lon="1.76387">
        <ele>632</ele>
        <time>2016-09-10T16:28:59Z</time>
      </trkpt>
      <trkpt lat="42.75811" lon="1.76388">
        <ele>632</ele>
        <time>2016-09-10T16:29:00Z</time>
      </trkpt>
      <trkpt lat="42.75811" lon="1.76389">
        <ele>632</ele>
        <time>2016-09-10T16:29:01Z</time>
      </trkpt>
      <trkpt lat="42.75811" lon="1.76391">
        <ele>632</ele>
        <time>2016-09-10T16:29:02Z</time>
      </trkpt>
      <trkpt lat="42.75812" lon="1.76392">
        <ele>632</ele>
        <time>2016-09-10T16:29:03Z</time>
      </trkpt>
      <trkpt lat="42.75812" lon="1.764">
        <ele>632</ele>
        <time>2016-09-10T16:29:08Z</time>
      </trkpt>
      <trkpt lat="42.75817" lon="1.76403">
        <ele>632</ele>
        <time>2016-09-10T16:29:15Z</time>
      </trkpt>
      <trkpt lat="42.75822" lon="1.76405">
        <ele>631</ele>
        <time>2016-09-10T16:29:18Z</time>
      </trkpt>
      <trkpt lat="42.75823" lon="1.76404">
        <ele>631</ele>
        <time>2016-09-10T16:29:19Z</time>
      </trkpt>
      <trkpt lat="42.75824" lon="1.76404">
        <ele>631</ele>
        <time>2016-09-10T16:29:20Z</time>
      </trkpt>
      <trkpt lat="42.75825" lon="1.76404">
        <ele>631</ele>
        <time>2016-09-10T16:29:21Z</time>
      </trkpt>
      <trkpt lat="42.75835" lon="1.76402">
        <ele>630</ele>
        <time>2016-09-10T16:29:27Z</time>
      </trkpt>
      <trkpt lat="42.75844" lon="1.76401">
        <ele>628</ele>
        <time>2016-09-10T16:29:36Z</time>
      </trkpt>
      <trkpt lat="42.75855" lon="1.76401">
        <ele>627</ele>
        <time>2016-09-10T16:29:44Z</time>
      </trkpt>
      <trkpt lat="42.75856" lon="1.76401">
        <ele>627</ele>
        <time>2016-09-10T16:29:45Z</time>
      </trkpt>
      <trkpt lat="42.75858" lon="1.76402">
        <ele>627</ele>
        <time>2016-09-10T16:29:46Z</time>
      </trkpt>
      <trkpt lat="42.75859" lon="1.76401">
        <ele>627</ele>
        <time>2016-09-10T16:29:47Z</time>
      </trkpt>
      <trkpt lat="42.7586" lon="1.76401">
        <ele>627</ele>
        <time>2016-09-10T16:29:48Z</time>
      </trkpt>
      <trkpt lat="42.75866" lon="1.76399">
        <ele>627</ele>
        <time>2016-09-10T16:29:53Z</time>
      </trkpt>
      <trkpt lat="42.75873" lon="1.76398">
        <ele>627</ele>
        <time>2016-09-10T16:30:02Z</time>
      </trkpt>
      <trkpt lat="42.75882" lon="1.76391">
        <ele>627</ele>
        <time>2016-09-10T16:30:10Z</time>
      </trkpt>
      <trkpt lat="42.75884" lon="1.76387">
        <ele>627</ele>
        <time>2016-09-10T16:30:13Z</time>
      </trkpt>
    </trkseg>
  </trk>
</gpx>